<gpx xmlns="http://www.topografix.com/GPX/1/1" xmlns:xsi="http://www.w3.org/2001/XMLSchema-instance" version="1.1" xsi:schemaLocation="http://www.topografix.com/GPX/1/1 http://www.topografix.com/GPX/1/1/gpx.xsd" creator="MotionXGPSFull 24.2 Build 5063R64">
<trk>
<name>Gerard's Run 11 Jun 17</name>
<desc>11 Jun 2017  8:02 am</desc>
<trkseg>
<trkpt lat="-27.3581090" lon="152.9694419">
<ele>29.782</ele>
<time>2017-06-10T22:02:28.624Z</time>
</trkpt>
<trkpt lat="-27.3581090" lon="152.9694419">
<ele>29.472</ele>
<time>2017-06-10T22:04:48.009Z</time>
</trkpt>
<trkpt lat="-27.3579813" lon="152.9696047">
<ele>29.200</ele>
<time>2017-06-10T22:04:59.468Z</time>
</trkpt>
<trkpt lat="-27.3579669" lon="152.9696231">
<ele>28.998</ele>
<time>2017-06-10T22:05:00.208Z</time>
</trkpt>
<trkpt lat="-27.3578188" lon="152.9696263">
<ele>28.762</ele>
<time>2017-06-10T22:05:05.111Z</time>
</trkpt>
<trkpt lat="-27.3576023" lon="152.9695549">
<ele>28.552</ele>
<time>2017-06-10T22:05:07.789Z</time>
</trkpt>
<trkpt lat="-27.3571388" lon="152.9694423">
<ele>28.563</ele>
<time>2017-06-10T22:05:11.191Z</time>
</trkpt>
<trkpt lat="-27.3567581" lon="152.9694431">
<ele>29.107</ele>
<time>2017-06-10T22:05:13.395Z</time>
</trkpt>
<trkpt lat="-27.3562033" lon="152.9694325">
<ele>30.337</ele>
<time>2017-06-10T22:05:16.511Z</time>
</trkpt>
<trkpt lat="-27.3558395" lon="152.9694299">
<ele>32.032</ele>
<time>2017-06-10T22:05:18.543Z</time>
</trkpt>
<trkpt lat="-27.3553032" lon="152.9693269">
<ele>33.866</ele>
<time>2017-06-10T22:05:21.576Z</time>
</trkpt>
<trkpt lat="-27.3549567" lon="152.9691860">
<ele>35.766</ele>
<time>2017-06-10T22:05:23.621Z</time>
</trkpt>
<trkpt lat="-27.3544847" lon="152.9688955">
<ele>37.735</ele>
<time>2017-06-10T22:05:26.612Z</time>
</trkpt>
<trkpt lat="-27.3542036" lon="152.9686485">
<ele>39.546</ele>
<time>2017-06-10T22:05:28.601Z</time>
</trkpt>
<trkpt lat="-27.3539346" lon="152.9683570">
<ele>40.810</ele>
<time>2017-06-10T22:05:30.689Z</time>
</trkpt>
<trkpt lat="-27.3535553" lon="152.9679176">
<ele>41.325</ele>
<time>2017-06-10T22:05:33.737Z</time>
</trkpt>
<trkpt lat="-27.3533101" lon="152.9676242">
<ele>41.098</ele>
<time>2017-06-10T22:05:35.751Z</time>
</trkpt>
<trkpt lat="-27.3529384" lon="152.9672029">
<ele>40.393</ele>
<time>2017-06-10T22:05:38.735Z</time>
</trkpt>
<trkpt lat="-27.3525215" lon="152.9668358">
<ele>39.671</ele>
<time>2017-06-10T22:05:41.756Z</time>
</trkpt>
<trkpt lat="-27.3520453" lon="152.9666103">
<ele>39.371</ele>
<time>2017-06-10T22:05:44.700Z</time>
</trkpt>
<trkpt lat="-27.3517040" lon="152.9664872">
<ele>39.827</ele>
<time>2017-06-10T22:05:46.711Z</time>
</trkpt>
<trkpt lat="-27.3511696" lon="152.9664091">
<ele>41.098</ele>
<time>2017-06-10T22:05:49.721Z</time>
</trkpt>
<trkpt lat="-27.3506289" lon="152.9664204">
<ele>42.720</ele>
<time>2017-06-10T22:05:52.719Z</time>
</trkpt>
<trkpt lat="-27.3502678" lon="152.9664333">
<ele>44.017</ele>
<time>2017-06-10T22:05:54.701Z</time>
</trkpt>
<trkpt lat="-27.3497149" lon="152.9664237">
<ele>44.482</ele>
<time>2017-06-10T22:05:57.741Z</time>
</trkpt>
<trkpt lat="-27.3493595" lon="152.9663266">
<ele>43.783</ele>
<time>2017-06-10T22:05:59.769Z</time>
</trkpt>
<trkpt lat="-27.3488476" lon="152.9661429">
<ele>41.941</ele>
<time>2017-06-10T22:06:02.777Z</time>
</trkpt>
<trkpt lat="-27.3483463" lon="152.9659689">
<ele>39.333</ele>
<time>2017-06-10T22:06:05.755Z</time>
</trkpt>
<trkpt lat="-27.3478421" lon="152.9658346">
<ele>36.491</ele>
<time>2017-06-10T22:06:08.754Z</time>
</trkpt>
<trkpt lat="-27.3474068" lon="152.9655562">
<ele>34.002</ele>
<time>2017-06-10T22:06:11.759Z</time>
</trkpt>
<trkpt lat="-27.3471477" lon="152.9653576">
<ele>32.143</ele>
<time>2017-06-10T22:06:13.743Z</time>
</trkpt>
<trkpt lat="-27.3467802" lon="152.9650262">
<ele>30.752</ele>
<time>2017-06-10T22:06:16.710Z</time>
</trkpt>
<trkpt lat="-27.3465671" lon="152.9647298">
<ele>29.621</ele>
<time>2017-06-10T22:06:18.761Z</time>
</trkpt>
<trkpt lat="-27.3463808" lon="152.9644070">
<ele>28.682</ele>
<time>2017-06-10T22:06:20.811Z</time>
</trkpt>
<trkpt lat="-27.3460462" lon="152.9639891">
<ele>28.023</ele>
<time>2017-06-10T22:06:23.837Z</time>
</trkpt>
<trkpt lat="-27.3459151" lon="152.9636504">
<ele>27.791</ele>
<time>2017-06-10T22:06:25.856Z</time>
</trkpt>
<trkpt lat="-27.3457107" lon="152.9633685">
<ele>27.993</ele>
<time>2017-06-10T22:06:27.822Z</time>
</trkpt>
<trkpt lat="-27.3454104" lon="152.9629142">
<ele>28.477</ele>
<time>2017-06-10T22:06:30.840Z</time>
</trkpt>
<trkpt lat="-27.3450904" lon="152.9624704">
<ele>29.050</ele>
<time>2017-06-10T22:06:33.828Z</time>
</trkpt>
<trkpt lat="-27.3448362" lon="152.9622035">
<ele>29.537</ele>
<time>2017-06-10T22:06:35.843Z</time>
</trkpt>
<trkpt lat="-27.3445784" lon="152.9619465">
<ele>29.814</ele>
<time>2017-06-10T22:06:37.826Z</time>
</trkpt>
<trkpt lat="-27.3442831" lon="152.9617332">
<ele>29.836</ele>
<time>2017-06-10T22:06:39.823Z</time>
</trkpt>
<trkpt lat="-27.3439592" lon="152.9615625">
<ele>29.602</ele>
<time>2017-06-10T22:06:41.845Z</time>
</trkpt>
<trkpt lat="-27.3434662" lon="152.9613411">
<ele>29.061</ele>
<time>2017-06-10T22:06:44.842Z</time>
</trkpt>
<trkpt lat="-27.3431237" lon="152.9612533">
<ele>28.085</ele>
<time>2017-06-10T22:06:46.820Z</time>
</trkpt>
<trkpt lat="-27.3425965" lon="152.9611960">
<ele>26.658</ele>
<time>2017-06-10T22:06:49.816Z</time>
</trkpt>
<trkpt lat="-27.3420683" lon="152.9611476">
<ele>24.933</ele>
<time>2017-06-10T22:06:52.833Z</time>
</trkpt>
<trkpt lat="-27.3417187" lon="152.9610892">
<ele>23.152</ele>
<time>2017-06-10T22:06:54.844Z</time>
</trkpt>
<trkpt lat="-27.3411984" lon="152.9610399">
<ele>21.737</ele>
<time>2017-06-10T22:06:57.807Z</time>
</trkpt>
<trkpt lat="-27.3408484" lon="152.9610240">
<ele>21.046</ele>
<time>2017-06-10T22:06:59.801Z</time>
</trkpt>
<trkpt lat="-27.3403076" lon="152.9609604">
<ele>21.062</ele>
<time>2017-06-10T22:07:02.927Z</time>
</trkpt>
<trkpt lat="-27.3400103" lon="152.9608979">
<ele>21.699</ele>
<time>2017-06-10T22:07:04.858Z</time>
</trkpt>
<trkpt lat="-27.3395878" lon="152.9608317">
<ele>22.847</ele>
<time>2017-06-10T22:07:07.868Z</time>
</trkpt>
<trkpt lat="-27.3393643" lon="152.9607568">
<ele>24.215</ele>
<time>2017-06-10T22:07:09.803Z</time>
</trkpt>
<trkpt lat="-27.3391673" lon="152.9606809">
<ele>25.515</ele>
<time>2017-06-10T22:07:11.891Z</time>
</trkpt>
<trkpt lat="-27.3389285" lon="152.9606343">
<ele>26.583</ele>
<time>2017-06-10T22:07:14.845Z</time>
</trkpt>
<trkpt lat="-27.3388402" lon="152.9605494">
<ele>27.350</ele>
<time>2017-06-10T22:07:17.007Z</time>
</trkpt>
<trkpt lat="-27.3387275" lon="152.9605157">
<ele>27.834</ele>
<time>2017-06-10T22:07:20.141Z</time>
</trkpt>
<trkpt lat="-27.3386321" lon="152.9605264">
<ele>28.086</ele>
<time>2017-06-10T22:07:23.457Z</time>
</trkpt>
<trkpt lat="-27.3385265" lon="152.9605235">
<ele>28.229</ele>
<time>2017-06-10T22:07:28.304Z</time>
</trkpt>
<trkpt lat="-27.3383670" lon="152.9605487">
<ele>28.412</ele>
<time>2017-06-10T22:07:31.853Z</time>
</trkpt>
<trkpt lat="-27.3382065" lon="152.9605656">
<ele>28.743</ele>
<time>2017-06-10T22:07:33.977Z</time>
</trkpt>
<trkpt lat="-27.3379839" lon="152.9605710">
<ele>29.255</ele>
<time>2017-06-10T22:07:36.150Z</time>
</trkpt>
<trkpt lat="-27.3376038" lon="152.9605685">
<ele>29.894</ele>
<time>2017-06-10T22:07:39.304Z</time>
</trkpt>
<trkpt lat="-27.3372106" lon="152.9606415">
<ele>30.559</ele>
<time>2017-06-10T22:07:42.385Z</time>
</trkpt>
<trkpt lat="-27.3368249" lon="152.9607127">
<ele>31.106</ele>
<time>2017-06-10T22:07:45.341Z</time>
</trkpt>
<trkpt lat="-27.3365544" lon="152.9607736">
<ele>31.346</ele>
<time>2017-06-10T22:07:47.261Z</time>
</trkpt>
<trkpt lat="-27.3360780" lon="152.9608259">
<ele>31.262</ele>
<time>2017-06-10T22:07:50.322Z</time>
</trkpt>
<trkpt lat="-27.3357312" lon="152.9609326">
<ele>31.227</ele>
<time>2017-06-10T22:07:52.370Z</time>
</trkpt>
<trkpt lat="-27.3353449" lon="152.9609900">
<ele>31.677</ele>
<time>2017-06-10T22:07:54.477Z</time>
</trkpt>
<trkpt lat="-27.3349721" lon="152.9610466">
<ele>32.693</ele>
<time>2017-06-10T22:07:56.432Z</time>
</trkpt>
<trkpt lat="-27.3345874" lon="152.9611503">
<ele>34.092</ele>
<time>2017-06-10T22:07:58.411Z</time>
</trkpt>
<trkpt lat="-27.3341719" lon="152.9612268">
<ele>35.628</ele>
<time>2017-06-10T22:08:00.480Z</time>
</trkpt>
<trkpt lat="-27.3335666" lon="152.9612589">
<ele>36.908</ele>
<time>2017-06-10T22:08:03.462Z</time>
</trkpt>
<trkpt lat="-27.3329768" lon="152.9613435">
<ele>37.602</ele>
<time>2017-06-10T22:08:06.397Z</time>
</trkpt>
<trkpt lat="-27.3325485" lon="152.9613784">
<ele>37.372</ele>
<time>2017-06-10T22:08:08.530Z</time>
</trkpt>
<trkpt lat="-27.3321522" lon="152.9614111">
<ele>35.947</ele>
<time>2017-06-10T22:08:10.526Z</time>
</trkpt>
<trkpt lat="-27.3315602" lon="152.9615416">
<ele>33.684</ele>
<time>2017-06-10T22:08:13.568Z</time>
</trkpt>
<trkpt lat="-27.3309593" lon="152.9615949">
<ele>31.362</ele>
<time>2017-06-10T22:08:16.614Z</time>
</trkpt>
<trkpt lat="-27.3303886" lon="152.9617328">
<ele>29.590</ele>
<time>2017-06-10T22:08:19.567Z</time>
</trkpt>
<trkpt lat="-27.3298123" lon="152.9618687">
<ele>28.910</ele>
<time>2017-06-10T22:08:22.540Z</time>
</trkpt>
<trkpt lat="-27.3294204" lon="152.9619080">
<ele>29.545</ele>
<time>2017-06-10T22:08:24.524Z</time>
</trkpt>
<trkpt lat="-27.3290303" lon="152.9619974">
<ele>30.973</ele>
<time>2017-06-10T22:08:26.522Z</time>
</trkpt>
<trkpt lat="-27.3286284" lon="152.9620964">
<ele>32.283</ele>
<time>2017-06-10T22:08:28.579Z</time>
</trkpt>
<trkpt lat="-27.3280352" lon="152.9622249">
<ele>32.919</ele>
<time>2017-06-10T22:08:31.603Z</time>
</trkpt>
<trkpt lat="-27.3276533" lon="152.9623521">
<ele>32.853</ele>
<time>2017-06-10T22:08:33.613Z</time>
</trkpt>
<trkpt lat="-27.3272601" lon="152.9624034">
<ele>32.393</ele>
<time>2017-06-10T22:08:35.619Z</time>
</trkpt>
<trkpt lat="-27.3266801" lon="152.9624765">
<ele>32.085</ele>
<time>2017-06-10T22:08:38.583Z</time>
</trkpt>
<trkpt lat="-27.3261056" lon="152.9625860">
<ele>32.648</ele>
<time>2017-06-10T22:08:41.620Z</time>
</trkpt>
<trkpt lat="-27.3255895" lon="152.9627321">
<ele>34.610</ele>
<time>2017-06-10T22:08:44.544Z</time>
</trkpt>
<trkpt lat="-27.3251307" lon="152.9630156">
<ele>37.687</ele>
<time>2017-06-10T22:08:47.513Z</time>
</trkpt>
<trkpt lat="-27.3248800" lon="152.9632996">
<ele>40.898</ele>
<time>2017-06-10T22:08:49.536Z</time>
</trkpt>
<trkpt lat="-27.3246570" lon="152.9636100">
<ele>43.341</ele>
<time>2017-06-10T22:08:51.510Z</time>
</trkpt>
<trkpt lat="-27.3244354" lon="152.9641954">
<ele>44.625</ele>
<time>2017-06-10T22:08:54.574Z</time>
</trkpt>
<trkpt lat="-27.3244272" lon="152.9648516">
<ele>44.840</ele>
<time>2017-06-10T22:08:57.620Z</time>
</trkpt>
<trkpt lat="-27.3245410" lon="152.9652903">
<ele>44.213</ele>
<time>2017-06-10T22:08:59.666Z</time>
</trkpt>
<trkpt lat="-27.3246327" lon="152.9659743">
<ele>42.861</ele>
<time>2017-06-10T22:09:02.739Z</time>
</trkpt>
<trkpt lat="-27.3247050" lon="152.9666702">
<ele>40.624</ele>
<time>2017-06-10T22:09:05.859Z</time>
</trkpt>
<trkpt lat="-27.3247949" lon="152.9673357">
<ele>37.366</ele>
<time>2017-06-10T22:09:08.867Z</time>
</trkpt>
<trkpt lat="-27.3248889" lon="152.9680006">
<ele>33.426</ele>
<time>2017-06-10T22:09:11.868Z</time>
</trkpt>
<trkpt lat="-27.3249826" lon="152.9686642">
<ele>29.594</ele>
<time>2017-06-10T22:09:14.847Z</time>
</trkpt>
<trkpt lat="-27.3250566" lon="152.9691101">
<ele>26.663</ele>
<time>2017-06-10T22:09:16.863Z</time>
</trkpt>
<trkpt lat="-27.3251447" lon="152.9697696">
<ele>24.945</ele>
<time>2017-06-10T22:09:19.843Z</time>
</trkpt>
<trkpt lat="-27.3252282" lon="152.9704228">
<ele>24.140</ele>
<time>2017-06-10T22:09:22.802Z</time>
</trkpt>
<trkpt lat="-27.3253104" lon="152.9708564">
<ele>23.824</ele>
<time>2017-06-10T22:09:24.782Z</time>
</trkpt>
<trkpt lat="-27.3253866" lon="152.9715240">
<ele>23.673</ele>
<time>2017-06-10T22:09:27.781Z</time>
</trkpt>
<trkpt lat="-27.3254811" lon="152.9721900">
<ele>23.542</ele>
<time>2017-06-10T22:09:30.785Z</time>
</trkpt>
<trkpt lat="-27.3255686" lon="152.9728508">
<ele>23.393</ele>
<time>2017-06-10T22:09:33.760Z</time>
</trkpt>
<trkpt lat="-27.3256349" lon="152.9735233">
<ele>23.191</ele>
<time>2017-06-10T22:09:36.756Z</time>
</trkpt>
<trkpt lat="-27.3257406" lon="152.9739598">
<ele>22.949</ele>
<time>2017-06-10T22:09:38.762Z</time>
</trkpt>
<trkpt lat="-27.3258033" lon="152.9743971">
<ele>22.752</ele>
<time>2017-06-10T22:09:40.748Z</time>
</trkpt>
<trkpt lat="-27.3258993" lon="152.9750538">
<ele>22.680</ele>
<time>2017-06-10T22:09:43.742Z</time>
</trkpt>
<trkpt lat="-27.3259915" lon="152.9754861">
<ele>22.761</ele>
<time>2017-06-10T22:09:45.729Z</time>
</trkpt>
<trkpt lat="-27.3260738" lon="152.9761538">
<ele>22.952</ele>
<time>2017-06-10T22:09:48.722Z</time>
</trkpt>
<trkpt lat="-27.3261824" lon="152.9768148">
<ele>23.144</ele>
<time>2017-06-10T22:09:51.703Z</time>
</trkpt>
<trkpt lat="-27.3262645" lon="152.9774803">
<ele>23.240</ele>
<time>2017-06-10T22:09:54.702Z</time>
</trkpt>
<trkpt lat="-27.3263627" lon="152.9781364">
<ele>23.218</ele>
<time>2017-06-10T22:09:57.675Z</time>
</trkpt>
<trkpt lat="-27.3264330" lon="152.9785828">
<ele>23.121</ele>
<time>2017-06-10T22:09:59.692Z</time>
</trkpt>
<trkpt lat="-27.3265107" lon="152.9792497">
<ele>22.992</ele>
<time>2017-06-10T22:10:02.688Z</time>
</trkpt>
<trkpt lat="-27.3265231" lon="152.9797019">
<ele>22.863</ele>
<time>2017-06-10T22:10:04.694Z</time>
</trkpt>
<trkpt lat="-27.3266390" lon="152.9803701">
<ele>22.748</ele>
<time>2017-06-10T22:10:07.711Z</time>
</trkpt>
<trkpt lat="-27.3266986" lon="152.9808122">
<ele>22.611</ele>
<time>2017-06-10T22:10:09.706Z</time>
</trkpt>
<trkpt lat="-27.3267394" lon="152.9812520">
<ele>22.410</ele>
<time>2017-06-10T22:10:11.687Z</time>
</trkpt>
<trkpt lat="-27.3268556" lon="152.9819072">
<ele>22.123</ele>
<time>2017-06-10T22:10:14.706Z</time>
</trkpt>
<trkpt lat="-27.3269207" lon="152.9823269">
<ele>21.664</ele>
<time>2017-06-10T22:10:16.692Z</time>
</trkpt>
<trkpt lat="-27.3270190" lon="152.9829413">
<ele>20.996</ele>
<time>2017-06-10T22:10:19.650Z</time>
</trkpt>
<trkpt lat="-27.3270694" lon="152.9835577">
<ele>20.228</ele>
<time>2017-06-10T22:10:22.636Z</time>
</trkpt>
<trkpt lat="-27.3271499" lon="152.9841567">
<ele>19.526</ele>
<time>2017-06-10T22:10:25.571Z</time>
</trkpt>
<trkpt lat="-27.3272151" lon="152.9847773">
<ele>18.986</ele>
<time>2017-06-10T22:10:28.704Z</time>
</trkpt>
<trkpt lat="-27.3272961" lon="152.9852851">
<ele>18.617</ele>
<time>2017-06-10T22:10:31.674Z</time>
</trkpt>
<trkpt lat="-27.3273283" lon="152.9856970">
<ele>18.224</ele>
<time>2017-06-10T22:10:34.628Z</time>
</trkpt>
<trkpt lat="-27.3273879" lon="152.9858929">
<ele>17.410</ele>
<time>2017-06-10T22:10:36.734Z</time>
</trkpt>
<trkpt lat="-27.3274169" lon="152.9861041">
<ele>16.068</ele>
<time>2017-06-10T22:10:39.823Z</time>
</trkpt>
<trkpt lat="-27.3274256" lon="152.9862189">
<ele>14.539</ele>
<time>2017-06-10T22:10:41.998Z</time>
</trkpt>
<trkpt lat="-27.3274256" lon="152.9862189">
<ele>13.270</ele>
<time>2017-06-10T22:10:47.998Z</time>
</trkpt>
<trkpt lat="-27.3274256" lon="152.9862189">
<ele>12.652</ele>
<time>2017-06-10T22:10:51.145Z</time>
</trkpt>
<trkpt lat="-27.3274567" lon="152.9865756">
<ele>12.710</ele>
<time>2017-06-10T22:10:57.722Z</time>
</trkpt>
<trkpt lat="-27.3275203" lon="152.9869535">
<ele>12.886</ele>
<time>2017-06-10T22:11:00.819Z</time>
</trkpt>
<trkpt lat="-27.3275464" lon="152.9872370">
<ele>12.759</ele>
<time>2017-06-10T22:11:02.740Z</time>
</trkpt>
<trkpt lat="-27.3276161" lon="152.9876792">
<ele>12.537</ele>
<time>2017-06-10T22:11:05.627Z</time>
</trkpt>
<trkpt lat="-27.3276880" lon="152.9881639">
<ele>12.586</ele>
<time>2017-06-10T22:11:08.612Z</time>
</trkpt>
<trkpt lat="-27.3277144" lon="152.9885114">
<ele>12.899</ele>
<time>2017-06-10T22:11:10.653Z</time>
</trkpt>
<trkpt lat="-27.3277795" lon="152.9890215">
<ele>13.213</ele>
<time>2017-06-10T22:11:13.644Z</time>
</trkpt>
<trkpt lat="-27.3278279" lon="152.9893647">
<ele>13.355</ele>
<time>2017-06-10T22:11:15.647Z</time>
</trkpt>
<trkpt lat="-27.3278997" lon="152.9898742">
<ele>13.352</ele>
<time>2017-06-10T22:11:18.634Z</time>
</trkpt>
<trkpt lat="-27.3279584" lon="152.9903749">
<ele>13.301</ele>
<time>2017-06-10T22:11:21.564Z</time>
</trkpt>
<trkpt lat="-27.3280206" lon="152.9908971">
<ele>13.315</ele>
<time>2017-06-10T22:11:24.580Z</time>
</trkpt>
<trkpt lat="-27.3281591" lon="152.9914043">
<ele>13.532</ele>
<time>2017-06-10T22:11:27.557Z</time>
</trkpt>
<trkpt lat="-27.3282310" lon="152.9917561">
<ele>14.080</ele>
<time>2017-06-10T22:11:29.536Z</time>
</trkpt>
<trkpt lat="-27.3283723" lon="152.9920997">
<ele>14.900</ele>
<time>2017-06-10T22:11:31.583Z</time>
</trkpt>
<trkpt lat="-27.3285104" lon="152.9924283">
<ele>15.726</ele>
<time>2017-06-10T22:11:33.567Z</time>
</trkpt>
<trkpt lat="-27.3287397" lon="152.9929052">
<ele>16.340</ele>
<time>2017-06-10T22:11:36.584Z</time>
</trkpt>
<trkpt lat="-27.3288877" lon="152.9932077">
<ele>16.693</ele>
<time>2017-06-10T22:11:38.547Z</time>
</trkpt>
<trkpt lat="-27.3291192" lon="152.9936715">
<ele>16.792</ele>
<time>2017-06-10T22:11:41.595Z</time>
</trkpt>
<trkpt lat="-27.3292722" lon="152.9939543">
<ele>16.636</ele>
<time>2017-06-10T22:11:43.516Z</time>
</trkpt>
<trkpt lat="-27.3294058" lon="152.9942608">
<ele>16.274</ele>
<time>2017-06-10T22:11:45.457Z</time>
</trkpt>
<trkpt lat="-27.3296070" lon="152.9947591">
<ele>15.872</ele>
<time>2017-06-10T22:11:48.502Z</time>
</trkpt>
<trkpt lat="-27.3297404" lon="152.9950979">
<ele>15.607</ele>
<time>2017-06-10T22:11:50.521Z</time>
</trkpt>
<trkpt lat="-27.3298944" lon="152.9956233">
<ele>15.481</ele>
<time>2017-06-10T22:11:53.518Z</time>
</trkpt>
<trkpt lat="-27.3300051" lon="152.9959729">
<ele>15.355</ele>
<time>2017-06-10T22:11:55.524Z</time>
</trkpt>
<trkpt lat="-27.3301429" lon="152.9965007">
<ele>15.166</ele>
<time>2017-06-10T22:11:58.509Z</time>
</trkpt>
<trkpt lat="-27.3302092" lon="152.9968584">
<ele>14.933</ele>
<time>2017-06-10T22:12:00.498Z</time>
</trkpt>
<trkpt lat="-27.3302688" lon="152.9972224">
<ele>14.659</ele>
<time>2017-06-10T22:12:02.493Z</time>
</trkpt>
<trkpt lat="-27.3303517" lon="152.9977774">
<ele>14.366</ele>
<time>2017-06-10T22:12:05.513Z</time>
</trkpt>
<trkpt lat="-27.3304210" lon="152.9983260">
<ele>14.093</ele>
<time>2017-06-10T22:12:08.519Z</time>
</trkpt>
<trkpt lat="-27.3304756" lon="152.9986772">
<ele>13.806</ele>
<time>2017-06-10T22:12:10.546Z</time>
</trkpt>
<trkpt lat="-27.3305531" lon="152.9991728">
<ele>13.454</ele>
<time>2017-06-10T22:12:13.472Z</time>
</trkpt>
<trkpt lat="-27.3305941" lon="152.9996749">
<ele>13.035</ele>
<time>2017-06-10T22:12:16.441Z</time>
</trkpt>
<trkpt lat="-27.3306955" lon="153.0001676">
<ele>12.577</ele>
<time>2017-06-10T22:12:19.410Z</time>
</trkpt>
<trkpt lat="-27.3307591" lon="153.0006871">
<ele>12.163</ele>
<time>2017-06-10T22:12:22.438Z</time>
</trkpt>
<trkpt lat="-27.3308349" lon="153.0010315">
<ele>11.925</ele>
<time>2017-06-10T22:12:24.442Z</time>
</trkpt>
<trkpt lat="-27.3308957" lon="153.0013779">
<ele>11.925</ele>
<time>2017-06-10T22:12:26.412Z</time>
</trkpt>
<trkpt lat="-27.3309667" lon="153.0019111">
<ele>12.125</ele>
<time>2017-06-10T22:12:29.377Z</time>
</trkpt>
<trkpt lat="-27.3310520" lon="153.0024557">
<ele>12.502</ele>
<time>2017-06-10T22:12:32.360Z</time>
</trkpt>
<trkpt lat="-27.3311268" lon="153.0030121">
<ele>13.046</ele>
<time>2017-06-10T22:12:35.349Z</time>
</trkpt>
<trkpt lat="-27.3311670" lon="153.0033884">
<ele>13.695</ele>
<time>2017-06-10T22:12:37.336Z</time>
</trkpt>
<trkpt lat="-27.3312311" lon="153.0039637">
<ele>14.361</ele>
<time>2017-06-10T22:12:40.383Z</time>
</trkpt>
<trkpt lat="-27.3312256" lon="153.0043384">
<ele>15.034</ele>
<time>2017-06-10T22:12:42.410Z</time>
</trkpt>
<trkpt lat="-27.3311643" lon="153.0046840">
<ele>15.654</ele>
<time>2017-06-10T22:12:44.380Z</time>
</trkpt>
<trkpt lat="-27.3310698" lon="153.0051893">
<ele>16.063</ele>
<time>2017-06-10T22:12:47.303Z</time>
</trkpt>
<trkpt lat="-27.3310156" lon="153.0055356">
<ele>16.220</ele>
<time>2017-06-10T22:12:49.278Z</time>
</trkpt>
<trkpt lat="-27.3309080" lon="153.0060555">
<ele>16.245</ele>
<time>2017-06-10T22:12:52.239Z</time>
</trkpt>
<trkpt lat="-27.3308337" lon="153.0066153">
<ele>16.237</ele>
<time>2017-06-10T22:12:55.355Z</time>
</trkpt>
<trkpt lat="-27.3307896" lon="153.0071317">
<ele>16.231</ele>
<time>2017-06-10T22:12:58.238Z</time>
</trkpt>
<trkpt lat="-27.3308590" lon="153.0076633">
<ele>16.207</ele>
<time>2017-06-10T22:13:01.250Z</time>
</trkpt>
<trkpt lat="-27.3309131" lon="153.0080043">
<ele>16.144</ele>
<time>2017-06-10T22:13:03.190Z</time>
</trkpt>
<trkpt lat="-27.3309856" lon="153.0085350">
<ele>16.112</ele>
<time>2017-06-10T22:13:06.182Z</time>
</trkpt>
<trkpt lat="-27.3310439" lon="153.0088796">
<ele>16.340</ele>
<time>2017-06-10T22:13:08.156Z</time>
</trkpt>
<trkpt lat="-27.3310719" lon="153.0092194">
<ele>16.967</ele>
<time>2017-06-10T22:13:10.134Z</time>
</trkpt>
<trkpt lat="-27.3311615" lon="153.0097102">
<ele>17.795</ele>
<time>2017-06-10T22:13:13.097Z</time>
</trkpt>
<trkpt lat="-27.3312120" lon="153.0101954">
<ele>18.588</ele>
<time>2017-06-10T22:13:16.146Z</time>
</trkpt>
<trkpt lat="-27.3312621" lon="153.0105851">
<ele>19.285</ele>
<time>2017-06-10T22:13:19.194Z</time>
</trkpt>
<trkpt lat="-27.3312244" lon="153.0107978">
<ele>19.811</ele>
<time>2017-06-10T22:13:21.488Z</time>
</trkpt>
<trkpt lat="-27.3310807" lon="153.0108056">
<ele>20.103</ele>
<time>2017-06-10T22:13:23.503Z</time>
</trkpt>
<trkpt lat="-27.3307962" lon="153.0108669">
<ele>20.213</ele>
<time>2017-06-10T22:13:26.759Z</time>
</trkpt>
<trkpt lat="-27.3305911" lon="153.0109876">
<ele>20.238</ele>
<time>2017-06-10T22:13:28.855Z</time>
</trkpt>
<trkpt lat="-27.3303505" lon="153.0113307">
<ele>20.226</ele>
<time>2017-06-10T22:13:32.036Z</time>
</trkpt>
<trkpt lat="-27.3301304" lon="153.0117068">
<ele>20.037</ele>
<time>2017-06-10T22:13:35.176Z</time>
</trkpt>
<trkpt lat="-27.3299096" lon="153.0118533">
<ele>19.416</ele>
<time>2017-06-10T22:13:37.060Z</time>
</trkpt>
<trkpt lat="-27.3294140" lon="153.0119601">
<ele>18.509</ele>
<time>2017-06-10T22:13:40.395Z</time>
</trkpt>
<trkpt lat="-27.3290498" lon="153.0120576">
<ele>17.828</ele>
<time>2017-06-10T22:13:42.522Z</time>
</trkpt>
<trkpt lat="-27.3286621" lon="153.0121402">
<ele>17.654</ele>
<time>2017-06-10T22:13:44.465Z</time>
</trkpt>
<trkpt lat="-27.3279970" lon="153.0122764">
<ele>17.985</ele>
<time>2017-06-10T22:13:47.520Z</time>
</trkpt>
<trkpt lat="-27.3275239" lon="153.0123838">
<ele>18.838</ele>
<time>2017-06-10T22:13:49.550Z</time>
</trkpt>
<trkpt lat="-27.3270405" lon="153.0124310">
<ele>20.047</ele>
<time>2017-06-10T22:13:51.600Z</time>
</trkpt>
<trkpt lat="-27.3263538" lon="153.0125531">
<ele>21.140</ele>
<time>2017-06-10T22:13:54.554Z</time>
</trkpt>
<trkpt lat="-27.3256417" lon="153.0126567">
<ele>21.776</ele>
<time>2017-06-10T22:13:57.582Z</time>
</trkpt>
<trkpt lat="-27.3251767" lon="153.0128022">
<ele>22.162</ele>
<time>2017-06-10T22:13:59.578Z</time>
</trkpt>
<trkpt lat="-27.3244536" lon="153.0129008">
<ele>22.636</ele>
<time>2017-06-10T22:14:02.576Z</time>
</trkpt>
<trkpt lat="-27.3239659" lon="153.0129749">
<ele>23.381</ele>
<time>2017-06-10T22:14:04.596Z</time>
</trkpt>
<trkpt lat="-27.3232488" lon="153.0131063">
<ele>24.492</ele>
<time>2017-06-10T22:14:07.582Z</time>
</trkpt>
<trkpt lat="-27.3227707" lon="153.0131920">
<ele>25.992</ele>
<time>2017-06-10T22:14:09.564Z</time>
</trkpt>
<trkpt lat="-27.3220526" lon="153.0133523">
<ele>27.664</ele>
<time>2017-06-10T22:14:12.547Z</time>
</trkpt>
<trkpt lat="-27.3215612" lon="153.0133721">
<ele>29.171</ele>
<time>2017-06-10T22:14:14.547Z</time>
</trkpt>
<trkpt lat="-27.3210764" lon="153.0134484">
<ele>30.268</ele>
<time>2017-06-10T22:14:16.542Z</time>
</trkpt>
<trkpt lat="-27.3205835" lon="153.0134217">
<ele>30.903</ele>
<time>2017-06-10T22:14:18.549Z</time>
</trkpt>
<trkpt lat="-27.3200938" lon="153.0133603">
<ele>31.086</ele>
<time>2017-06-10T22:14:20.544Z</time>
</trkpt>
<trkpt lat="-27.3193542" lon="153.0132076">
<ele>30.842</ele>
<time>2017-06-10T22:14:23.571Z</time>
</trkpt>
<trkpt lat="-27.3188572" lon="153.0131215">
<ele>30.226</ele>
<time>2017-06-10T22:14:25.593Z</time>
</trkpt>
<trkpt lat="-27.3183759" lon="153.0129932">
<ele>29.314</ele>
<time>2017-06-10T22:14:27.599Z</time>
</trkpt>
<trkpt lat="-27.3176541" lon="153.0128295">
<ele>28.185</ele>
<time>2017-06-10T22:14:30.600Z</time>
</trkpt>
<trkpt lat="-27.3171743" lon="153.0126896">
<ele>26.900</ele>
<time>2017-06-10T22:14:32.620Z</time>
</trkpt>
<trkpt lat="-27.3164711" lon="153.0124109">
<ele>25.573</ele>
<time>2017-06-10T22:14:35.653Z</time>
</trkpt>
<trkpt lat="-27.3157924" lon="153.0120955">
<ele>24.466</ele>
<time>2017-06-10T22:14:38.635Z</time>
</trkpt>
<trkpt lat="-27.3153293" lon="153.0119015">
<ele>23.792</ele>
<time>2017-06-10T22:14:40.632Z</time>
</trkpt>
<trkpt lat="-27.3148645" lon="153.0117268">
<ele>23.427</ele>
<time>2017-06-10T22:14:42.612Z</time>
</trkpt>
<trkpt lat="-27.3143797" lon="153.0115978">
<ele>23.158</ele>
<time>2017-06-10T22:14:44.633Z</time>
</trkpt>
<trkpt lat="-27.3136521" lon="153.0114819">
<ele>22.945</ele>
<time>2017-06-10T22:14:47.617Z</time>
</trkpt>
<trkpt lat="-27.3129152" lon="153.0114452">
<ele>22.808</ele>
<time>2017-06-10T22:14:50.607Z</time>
</trkpt>
<trkpt lat="-27.3124250" lon="153.0114550">
<ele>22.711</ele>
<time>2017-06-10T22:14:52.590Z</time>
</trkpt>
<trkpt lat="-27.3116835" lon="153.0115663">
<ele>22.621</ele>
<time>2017-06-10T22:14:55.612Z</time>
</trkpt>
<trkpt lat="-27.3109559" lon="153.0117510">
<ele>22.517</ele>
<time>2017-06-10T22:14:58.625Z</time>
</trkpt>
<trkpt lat="-27.3104242" lon="153.0118603">
<ele>22.296</ele>
<time>2017-06-10T22:15:00.812Z</time>
</trkpt>
<trkpt lat="-27.3100040" lon="153.0119467">
<ele>21.909</ele>
<time>2017-06-10T22:15:02.545Z</time>
</trkpt>
<trkpt lat="-27.3092751" lon="153.0120736">
<ele>21.482</ele>
<time>2017-06-10T22:15:05.540Z</time>
</trkpt>
<trkpt lat="-27.3085355" lon="153.0122730">
<ele>21.101</ele>
<time>2017-06-10T22:15:08.637Z</time>
</trkpt>
<trkpt lat="-27.3080551" lon="153.0123747">
<ele>20.688</ele>
<time>2017-06-10T22:15:10.630Z</time>
</trkpt>
<trkpt lat="-27.3075975" lon="153.0125487">
<ele>20.254</ele>
<time>2017-06-10T22:15:12.594Z</time>
</trkpt>
<trkpt lat="-27.3071383" lon="153.0127791">
<ele>19.942</ele>
<time>2017-06-10T22:15:14.704Z</time>
</trkpt>
<trkpt lat="-27.3065495" lon="153.0131200">
<ele>19.758</ele>
<time>2017-06-10T22:15:17.667Z</time>
</trkpt>
<trkpt lat="-27.3062294" lon="153.0133676">
<ele>19.345</ele>
<time>2017-06-10T22:15:19.613Z</time>
</trkpt>
<trkpt lat="-27.3057804" lon="153.0137837">
<ele>18.376</ele>
<time>2017-06-10T22:15:22.599Z</time>
</trkpt>
<trkpt lat="-27.3054778" lon="153.0140539">
<ele>17.083</ele>
<time>2017-06-10T22:15:24.570Z</time>
</trkpt>
<trkpt lat="-27.3049909" lon="153.0144718">
<ele>15.957</ele>
<time>2017-06-10T22:15:27.602Z</time>
</trkpt>
<trkpt lat="-27.3046385" lon="153.0147505">
<ele>15.248</ele>
<time>2017-06-10T22:15:29.607Z</time>
</trkpt>
<trkpt lat="-27.3040916" lon="153.0151762">
<ele>14.958</ele>
<time>2017-06-10T22:15:32.638Z</time>
</trkpt>
<trkpt lat="-27.3034941" lon="153.0154880">
<ele>14.942</ele>
<time>2017-06-10T22:15:35.607Z</time>
</trkpt>
<trkpt lat="-27.3030875" lon="153.0156588">
<ele>15.045</ele>
<time>2017-06-10T22:15:37.586Z</time>
</trkpt>
<trkpt lat="-27.3024710" lon="153.0158703">
<ele>15.166</ele>
<time>2017-06-10T22:15:40.548Z</time>
</trkpt>
<trkpt lat="-27.3020658" lon="153.0160090">
<ele>15.213</ele>
<time>2017-06-10T22:15:42.479Z</time>
</trkpt>
<trkpt lat="-27.3016308" lon="153.0161348">
<ele>15.158</ele>
<time>2017-06-10T22:15:44.476Z</time>
</trkpt>
<trkpt lat="-27.3009615" lon="153.0163356">
<ele>15.095</ele>
<time>2017-06-10T22:15:47.506Z</time>
</trkpt>
<trkpt lat="-27.3005104" lon="153.0164519">
<ele>15.110</ele>
<time>2017-06-10T22:15:49.490Z</time>
</trkpt>
<trkpt lat="-27.3000465" lon="153.0165781">
<ele>15.214</ele>
<time>2017-06-10T22:15:51.492Z</time>
</trkpt>
<trkpt lat="-27.2993457" lon="153.0167911">
<ele>15.450</ele>
<time>2017-06-10T22:15:54.534Z</time>
</trkpt>
<trkpt lat="-27.2986715" lon="153.0170059">
<ele>15.813</ele>
<time>2017-06-10T22:15:57.516Z</time>
</trkpt>
<trkpt lat="-27.2982247" lon="153.0171368">
<ele>16.148</ele>
<time>2017-06-10T22:15:59.503Z</time>
</trkpt>
<trkpt lat="-27.2975407" lon="153.0173030">
<ele>16.325</ele>
<time>2017-06-10T22:16:02.508Z</time>
</trkpt>
<trkpt lat="-27.2970931" lon="153.0174534">
<ele>16.367</ele>
<time>2017-06-10T22:16:04.495Z</time>
</trkpt>
<trkpt lat="-27.2966258" lon="153.0175739">
<ele>16.433</ele>
<time>2017-06-10T22:16:06.511Z</time>
</trkpt>
<trkpt lat="-27.2959371" lon="153.0178115">
<ele>16.621</ele>
<time>2017-06-10T22:16:09.522Z</time>
</trkpt>
<trkpt lat="-27.2954610" lon="153.0178986">
<ele>16.818</ele>
<time>2017-06-10T22:16:11.525Z</time>
</trkpt>
<trkpt lat="-27.2949902" lon="153.0180134">
<ele>16.907</ele>
<time>2017-06-10T22:16:13.529Z</time>
</trkpt>
<trkpt lat="-27.2945245" lon="153.0181554">
<ele>16.886</ele>
<time>2017-06-10T22:16:15.542Z</time>
</trkpt>
<trkpt lat="-27.2938318" lon="153.0183541">
<ele>16.739</ele>
<time>2017-06-10T22:16:18.541Z</time>
</trkpt>
<trkpt lat="-27.2931492" lon="153.0185472">
<ele>16.499</ele>
<time>2017-06-10T22:16:21.534Z</time>
</trkpt>
<trkpt lat="-27.2924872" lon="153.0187496">
<ele>16.293</ele>
<time>2017-06-10T22:16:24.483Z</time>
</trkpt>
<trkpt lat="-27.2920316" lon="153.0188514">
<ele>16.147</ele>
<time>2017-06-10T22:16:26.450Z</time>
</trkpt>
<trkpt lat="-27.2913373" lon="153.0190721">
<ele>16.003</ele>
<time>2017-06-10T22:16:29.449Z</time>
</trkpt>
<trkpt lat="-27.2908595" lon="153.0192087">
<ele>15.915</ele>
<time>2017-06-10T22:16:31.464Z</time>
</trkpt>
<trkpt lat="-27.2901525" lon="153.0194199">
<ele>15.953</ele>
<time>2017-06-10T22:16:34.448Z</time>
</trkpt>
<trkpt lat="-27.2896830" lon="153.0195649">
<ele>16.115</ele>
<time>2017-06-10T22:16:36.431Z</time>
</trkpt>
<trkpt lat="-27.2889653" lon="153.0197459">
<ele>16.346</ele>
<time>2017-06-10T22:16:39.410Z</time>
</trkpt>
<trkpt lat="-27.2882368" lon="153.0199711">
<ele>16.512</ele>
<time>2017-06-10T22:16:42.436Z</time>
</trkpt>
<trkpt lat="-27.2877489" lon="153.0201215">
<ele>16.534</ele>
<time>2017-06-10T22:16:44.449Z</time>
</trkpt>
<trkpt lat="-27.2872644" lon="153.0202412">
<ele>16.494</ele>
<time>2017-06-10T22:16:46.438Z</time>
</trkpt>
<trkpt lat="-27.2865285" lon="153.0203464">
<ele>16.492</ele>
<time>2017-06-10T22:16:49.421Z</time>
</trkpt>
<trkpt lat="-27.2860214" lon="153.0204171">
<ele>16.570</ele>
<time>2017-06-10T22:16:51.457Z</time>
</trkpt>
<trkpt lat="-27.2852538" lon="153.0204795">
<ele>16.710</ele>
<time>2017-06-10T22:16:54.502Z</time>
</trkpt>
<trkpt lat="-27.2847556" lon="153.0204674">
<ele>16.864</ele>
<time>2017-06-10T22:16:56.464Z</time>
</trkpt>
<trkpt lat="-27.2842461" lon="153.0205145">
<ele>17.026</ele>
<time>2017-06-10T22:16:58.477Z</time>
</trkpt>
<trkpt lat="-27.2837411" lon="153.0204523">
<ele>17.215</ele>
<time>2017-06-10T22:17:00.481Z</time>
</trkpt>
<trkpt lat="-27.2829914" lon="153.0203844">
<ele>17.402</ele>
<time>2017-06-10T22:17:03.462Z</time>
</trkpt>
<trkpt lat="-27.2822514" lon="153.0202927">
<ele>17.591</ele>
<time>2017-06-10T22:17:06.436Z</time>
</trkpt>
<trkpt lat="-27.2817622" lon="153.0202192">
<ele>17.848</ele>
<time>2017-06-10T22:17:08.433Z</time>
</trkpt>
<trkpt lat="-27.2810397" lon="153.0200844">
<ele>18.158</ele>
<time>2017-06-10T22:17:11.421Z</time>
</trkpt>
<trkpt lat="-27.2803401" lon="153.0198437">
<ele>18.408</ele>
<time>2017-06-10T22:17:14.426Z</time>
</trkpt>
<trkpt lat="-27.2798962" lon="153.0196189">
<ele>18.525</ele>
<time>2017-06-10T22:17:16.436Z</time>
</trkpt>
<trkpt lat="-27.2792143" lon="153.0193413">
<ele>18.537</ele>
<time>2017-06-10T22:17:19.443Z</time>
</trkpt>
<trkpt lat="-27.2785546" lon="153.0190343">
<ele>18.567</ele>
<time>2017-06-10T22:17:22.427Z</time>
</trkpt>
<trkpt lat="-27.2778976" lon="153.0187345">
<ele>18.693</ele>
<time>2017-06-10T22:17:25.395Z</time>
</trkpt>
<trkpt lat="-27.2774412" lon="153.0185513">
<ele>18.830</ele>
<time>2017-06-10T22:17:27.410Z</time>
</trkpt>
<trkpt lat="-27.2767881" lon="153.0182125">
<ele>18.885</ele>
<time>2017-06-10T22:17:30.405Z</time>
</trkpt>
<trkpt lat="-27.2761101" lon="153.0179657">
<ele>18.874</ele>
<time>2017-06-10T22:17:33.396Z</time>
</trkpt>
<trkpt lat="-27.2754284" lon="153.0177603">
<ele>18.820</ele>
<time>2017-06-10T22:17:36.389Z</time>
</trkpt>
<trkpt lat="-27.2749761" lon="153.0176664">
<ele>18.701</ele>
<time>2017-06-10T22:17:38.370Z</time>
</trkpt>
<trkpt lat="-27.2745196" lon="153.0175994">
<ele>18.527</ele>
<time>2017-06-10T22:17:40.380Z</time>
</trkpt>
<trkpt lat="-27.2740761" lon="153.0175383">
<ele>18.326</ele>
<time>2017-06-10T22:17:42.372Z</time>
</trkpt>
<trkpt lat="-27.2734156" lon="153.0175572">
<ele>18.114</ele>
<time>2017-06-10T22:17:45.348Z</time>
</trkpt>
<trkpt lat="-27.2729746" lon="153.0175949">
<ele>17.940</ele>
<time>2017-06-10T22:17:47.327Z</time>
</trkpt>
<trkpt lat="-27.2722958" lon="153.0176681">
<ele>17.845</ele>
<time>2017-06-10T22:17:50.343Z</time>
</trkpt>
<trkpt lat="-27.2718425" lon="153.0176708">
<ele>17.783</ele>
<time>2017-06-10T22:17:52.318Z</time>
</trkpt>
<trkpt lat="-27.2711476" lon="153.0177322">
<ele>17.691</ele>
<time>2017-06-10T22:17:55.333Z</time>
</trkpt>
<trkpt lat="-27.2706850" lon="153.0177590">
<ele>17.486</ele>
<time>2017-06-10T22:17:57.310Z</time>
</trkpt>
<trkpt lat="-27.2699722" lon="153.0177972">
<ele>17.107</ele>
<time>2017-06-10T22:18:00.302Z</time>
</trkpt>
<trkpt lat="-27.2694754" lon="153.0178539">
<ele>16.666</ele>
<time>2017-06-10T22:18:02.313Z</time>
</trkpt>
<trkpt lat="-27.2689661" lon="153.0178412">
<ele>16.476</ele>
<time>2017-06-10T22:18:04.324Z</time>
</trkpt>
<trkpt lat="-27.2684549" lon="153.0178782">
<ele>16.771</ele>
<time>2017-06-10T22:18:06.338Z</time>
</trkpt>
<trkpt lat="-27.2679550" lon="153.0179278">
<ele>17.533</ele>
<time>2017-06-10T22:18:08.319Z</time>
</trkpt>
<trkpt lat="-27.2672053" lon="153.0180202">
<ele>18.564</ele>
<time>2017-06-10T22:18:11.298Z</time>
</trkpt>
<trkpt lat="-27.2666914" lon="153.0180075">
<ele>19.647</ele>
<time>2017-06-10T22:18:13.321Z</time>
</trkpt>
<trkpt lat="-27.2659356" lon="153.0181070">
<ele>20.686</ele>
<time>2017-06-10T22:18:16.327Z</time>
</trkpt>
<trkpt lat="-27.2651937" lon="153.0181206">
<ele>21.743</ele>
<time>2017-06-10T22:18:19.296Z</time>
</trkpt>
<trkpt lat="-27.2644563" lon="153.0181561">
<ele>22.860</ele>
<time>2017-06-10T22:18:22.275Z</time>
</trkpt>
<trkpt lat="-27.2636959" lon="153.0181989">
<ele>23.970</ele>
<time>2017-06-10T22:18:25.346Z</time>
</trkpt>
<trkpt lat="-27.2632158" lon="153.0182206">
<ele>25.018</ele>
<time>2017-06-10T22:18:27.285Z</time>
</trkpt>
<trkpt lat="-27.2624915" lon="153.0183035">
<ele>26.040</ele>
<time>2017-06-10T22:18:30.245Z</time>
</trkpt>
<trkpt lat="-27.2617732" lon="153.0183338">
<ele>27.093</ele>
<time>2017-06-10T22:18:33.206Z</time>
</trkpt>
<trkpt lat="-27.2612962" lon="153.0183773">
<ele>28.124</ele>
<time>2017-06-10T22:18:35.219Z</time>
</trkpt>
<trkpt lat="-27.2606085" lon="153.0184338">
<ele>28.966</ele>
<time>2017-06-10T22:18:38.170Z</time>
</trkpt>
<trkpt lat="-27.2601452" lon="153.0184660">
<ele>29.480</ele>
<time>2017-06-10T22:18:40.156Z</time>
</trkpt>
<trkpt lat="-27.2596568" lon="153.0185266">
<ele>29.734</ele>
<time>2017-06-10T22:18:42.191Z</time>
</trkpt>
<trkpt lat="-27.2591559" lon="153.0185751">
<ele>30.007</ele>
<time>2017-06-10T22:18:44.220Z</time>
</trkpt>
<trkpt lat="-27.2584110" lon="153.0185963">
<ele>30.524</ele>
<time>2017-06-10T22:18:47.217Z</time>
</trkpt>
<trkpt lat="-27.2576714" lon="153.0186591">
<ele>31.243</ele>
<time>2017-06-10T22:18:50.215Z</time>
</trkpt>
<trkpt lat="-27.2571716" lon="153.0187037">
<ele>32.082</ele>
<time>2017-06-10T22:18:52.243Z</time>
</trkpt>
<trkpt lat="-27.2564370" lon="153.0187276">
<ele>32.916</ele>
<time>2017-06-10T22:18:55.240Z</time>
</trkpt>
<trkpt lat="-27.2559635" lon="153.0188026">
<ele>33.472</ele>
<time>2017-06-10T22:18:57.229Z</time>
</trkpt>
<trkpt lat="-27.2554908" lon="153.0188267">
<ele>33.598</ele>
<time>2017-06-10T22:18:59.225Z</time>
</trkpt>
<trkpt lat="-27.2547898" lon="153.0188922">
<ele>33.351</ele>
<time>2017-06-10T22:19:02.213Z</time>
</trkpt>
<trkpt lat="-27.2543188" lon="153.0189174">
<ele>32.785</ele>
<time>2017-06-10T22:19:04.220Z</time>
</trkpt>
<trkpt lat="-27.2538505" lon="153.0189476">
<ele>32.042</ele>
<time>2017-06-10T22:19:06.213Z</time>
</trkpt>
<trkpt lat="-27.2533810" lon="153.0190024">
<ele>31.360</ele>
<time>2017-06-10T22:19:08.216Z</time>
</trkpt>
<trkpt lat="-27.2529135" lon="153.0190319">
<ele>30.770</ele>
<time>2017-06-10T22:19:10.193Z</time>
</trkpt>
<trkpt lat="-27.2522037" lon="153.0189963">
<ele>29.988</ele>
<time>2017-06-10T22:19:13.162Z</time>
</trkpt>
<trkpt lat="-27.2514648" lon="153.0189202">
<ele>28.733</ele>
<time>2017-06-10T22:19:16.189Z</time>
</trkpt>
<trkpt lat="-27.2509671" lon="153.0188298">
<ele>26.990</ele>
<time>2017-06-10T22:19:18.191Z</time>
</trkpt>
<trkpt lat="-27.2504610" lon="153.0186995">
<ele>25.088</ele>
<time>2017-06-10T22:19:20.239Z</time>
</trkpt>
<trkpt lat="-27.2499724" lon="153.0185571">
<ele>23.427</ele>
<time>2017-06-10T22:19:22.246Z</time>
</trkpt>
<trkpt lat="-27.2494914" lon="153.0184333">
<ele>22.083</ele>
<time>2017-06-10T22:19:24.239Z</time>
</trkpt>
<trkpt lat="-27.2490370" lon="153.0182320">
<ele>20.883</ele>
<time>2017-06-10T22:19:26.255Z</time>
</trkpt>
<trkpt lat="-27.2483771" lon="153.0179808">
<ele>19.726</ele>
<time>2017-06-10T22:19:29.186Z</time>
</trkpt>
<trkpt lat="-27.2479647" lon="153.0177418">
<ele>18.607</ele>
<time>2017-06-10T22:19:31.179Z</time>
</trkpt>
<trkpt lat="-27.2473611" lon="153.0173526">
<ele>17.631</ele>
<time>2017-06-10T22:19:34.178Z</time>
</trkpt>
<trkpt lat="-27.2469391" lon="153.0171235">
<ele>16.922</ele>
<time>2017-06-10T22:19:36.189Z</time>
</trkpt>
<trkpt lat="-27.2463757" lon="153.0166607">
<ele>16.485</ele>
<time>2017-06-10T22:19:39.186Z</time>
</trkpt>
<trkpt lat="-27.2460079" lon="153.0163529">
<ele>16.324</ele>
<time>2017-06-10T22:19:41.172Z</time>
</trkpt>
<trkpt lat="-27.2454841" lon="153.0158466">
<ele>16.438</ele>
<time>2017-06-10T22:19:44.149Z</time>
</trkpt>
<trkpt lat="-27.2449678" lon="153.0152863">
<ele>16.822</ele>
<time>2017-06-10T22:19:47.192Z</time>
</trkpt>
<trkpt lat="-27.2445067" lon="153.0146969">
<ele>17.567</ele>
<time>2017-06-10T22:19:50.148Z</time>
</trkpt>
<trkpt lat="-27.2442241" lon="153.0142971">
<ele>18.662</ele>
<time>2017-06-10T22:19:52.117Z</time>
</trkpt>
<trkpt lat="-27.2438064" lon="153.0137033">
<ele>19.844</ele>
<time>2017-06-10T22:19:55.074Z</time>
</trkpt>
<trkpt lat="-27.2435049" lon="153.0133187">
<ele>20.884</ele>
<time>2017-06-10T22:19:57.074Z</time>
</trkpt>
<trkpt lat="-27.2431906" lon="153.0129353">
<ele>21.709</ele>
<time>2017-06-10T22:19:59.103Z</time>
</trkpt>
<trkpt lat="-27.2427819" lon="153.0123210">
<ele>22.288</ele>
<time>2017-06-10T22:20:02.101Z</time>
</trkpt>
<trkpt lat="-27.2424966" lon="153.0119282">
<ele>22.698</ele>
<time>2017-06-10T22:20:04.095Z</time>
</trkpt>
<trkpt lat="-27.2421919" lon="153.0115546">
<ele>23.156</ele>
<time>2017-06-10T22:20:06.094Z</time>
</trkpt>
<trkpt lat="-27.2418974" lon="153.0111747">
<ele>23.716</ele>
<time>2017-06-10T22:20:08.087Z</time>
</trkpt>
<trkpt lat="-27.2416151" lon="153.0107835">
<ele>24.295</ele>
<time>2017-06-10T22:20:10.089Z</time>
</trkpt>
<trkpt lat="-27.2411922" lon="153.0102157">
<ele>24.896</ele>
<time>2017-06-10T22:20:13.047Z</time>
</trkpt>
<trkpt lat="-27.2407700" lon="153.0096431">
<ele>25.604</ele>
<time>2017-06-10T22:20:16.039Z</time>
</trkpt>
<trkpt lat="-27.2404969" lon="153.0092600">
<ele>26.433</ele>
<time>2017-06-10T22:20:18.018Z</time>
</trkpt>
<trkpt lat="-27.2402291" lon="153.0088664">
<ele>27.265</ele>
<time>2017-06-10T22:20:20.006Z</time>
</trkpt>
<trkpt lat="-27.2399253" lon="153.0084989">
<ele>27.982</ele>
<time>2017-06-10T22:20:22.012Z</time>
</trkpt>
<trkpt lat="-27.2396139" lon="153.0081423">
<ele>28.574</ele>
<time>2017-06-10T22:20:24.008Z</time>
</trkpt>
<trkpt lat="-27.2391341" lon="153.0076047">
<ele>29.118</ele>
<time>2017-06-10T22:20:27.032Z</time>
</trkpt>
<trkpt lat="-27.2386190" lon="153.0071090">
<ele>29.772</ele>
<time>2017-06-10T22:20:30.032Z</time>
</trkpt>
<trkpt lat="-27.2382667" lon="153.0067722">
<ele>30.615</ele>
<time>2017-06-10T22:20:32.056Z</time>
</trkpt>
<trkpt lat="-27.2376856" lon="153.0063259">
<ele>31.540</ele>
<time>2017-06-10T22:20:35.104Z</time>
</trkpt>
<trkpt lat="-27.2372929" lon="153.0060499">
<ele>32.455</ele>
<time>2017-06-10T22:20:37.093Z</time>
</trkpt>
<trkpt lat="-27.2368841" lon="153.0058049">
<ele>33.338</ele>
<time>2017-06-10T22:20:39.063Z</time>
</trkpt>
<trkpt lat="-27.2362442" lon="153.0054275">
<ele>34.144</ele>
<time>2017-06-10T22:20:42.085Z</time>
</trkpt>
<trkpt lat="-27.2355852" lon="153.0050691">
<ele>34.863</ele>
<time>2017-06-10T22:20:45.112Z</time>
</trkpt>
<trkpt lat="-27.2351514" lon="153.0048618">
<ele>35.471</ele>
<time>2017-06-10T22:20:47.099Z</time>
</trkpt>
<trkpt lat="-27.2345112" lon="153.0045419">
<ele>35.863</ele>
<time>2017-06-10T22:20:50.095Z</time>
</trkpt>
<trkpt lat="-27.2340890" lon="153.0043183">
<ele>36.009</ele>
<time>2017-06-10T22:20:52.098Z</time>
</trkpt>
<trkpt lat="-27.2334296" lon="153.0040646">
<ele>36.021</ele>
<time>2017-06-10T22:20:55.081Z</time>
</trkpt>
<trkpt lat="-27.2330142" lon="153.0037992">
<ele>36.024</ele>
<time>2017-06-10T22:20:57.096Z</time>
</trkpt>
<trkpt lat="-27.2325596" lon="153.0036086">
<ele>36.125</ele>
<time>2017-06-10T22:20:59.109Z</time>
</trkpt>
<trkpt lat="-27.2318939" lon="153.0032578">
<ele>36.395</ele>
<time>2017-06-10T22:21:02.133Z</time>
</trkpt>
<trkpt lat="-27.2314579" lon="153.0030364">
<ele>36.796</ele>
<time>2017-06-10T22:21:04.101Z</time>
</trkpt>
<trkpt lat="-27.2307621" lon="153.0027092">
<ele>37.193</ele>
<time>2017-06-10T22:21:07.191Z</time>
</trkpt>
<trkpt lat="-27.2300861" lon="153.0023729">
<ele>37.517</ele>
<time>2017-06-10T22:21:10.183Z</time>
</trkpt>
<trkpt lat="-27.2296246" lon="153.0021565">
<ele>37.911</ele>
<time>2017-06-10T22:21:12.196Z</time>
</trkpt>
<trkpt lat="-27.2289471" lon="153.0018276">
<ele>38.545</ele>
<time>2017-06-10T22:21:15.166Z</time>
</trkpt>
<trkpt lat="-27.2282575" lon="153.0014881">
<ele>39.420</ele>
<time>2017-06-10T22:21:18.185Z</time>
</trkpt>
<trkpt lat="-27.2277987" lon="153.0012550">
<ele>40.416</ele>
<time>2017-06-10T22:21:20.210Z</time>
</trkpt>
<trkpt lat="-27.2271194" lon="153.0009414">
<ele>41.361</ele>
<time>2017-06-10T22:21:23.188Z</time>
</trkpt>
<trkpt lat="-27.2264559" lon="153.0005922">
<ele>42.115</ele>
<time>2017-06-10T22:21:26.181Z</time>
</trkpt>
<trkpt lat="-27.2257701" lon="153.0002854">
<ele>42.717</ele>
<time>2017-06-10T22:21:29.203Z</time>
</trkpt>
<trkpt lat="-27.2253473" lon="153.0000212">
<ele>43.265</ele>
<time>2017-06-10T22:21:31.194Z</time>
</trkpt>
<trkpt lat="-27.2246651" lon="152.9997323">
<ele>43.768</ele>
<time>2017-06-10T22:21:34.201Z</time>
</trkpt>
<trkpt lat="-27.2242231" lon="152.9995234">
<ele>44.142</ele>
<time>2017-06-10T22:21:36.178Z</time>
</trkpt>
<trkpt lat="-27.2235691" lon="152.9991727">
<ele>44.313</ele>
<time>2017-06-10T22:21:39.154Z</time>
</trkpt>
<trkpt lat="-27.2229033" lon="152.9988171">
<ele>44.305</ele>
<time>2017-06-10T22:21:42.162Z</time>
</trkpt>
<trkpt lat="-27.2224453" lon="152.9986168">
<ele>44.176</ele>
<time>2017-06-10T22:21:44.157Z</time>
</trkpt>
<trkpt lat="-27.2217665" lon="152.9982862">
<ele>43.907</ele>
<time>2017-06-10T22:21:47.160Z</time>
</trkpt>
<trkpt lat="-27.2210943" lon="152.9979494">
<ele>43.403</ele>
<time>2017-06-10T22:21:50.147Z</time>
</trkpt>
<trkpt lat="-27.2206492" lon="152.9977056">
<ele>42.597</ele>
<time>2017-06-10T22:21:52.145Z</time>
</trkpt>
<trkpt lat="-27.2199948" lon="152.9973007">
<ele>41.596</ele>
<time>2017-06-10T22:21:55.140Z</time>
</trkpt>
<trkpt lat="-27.2195512" lon="152.9970473">
<ele>40.486</ele>
<time>2017-06-10T22:21:57.135Z</time>
</trkpt>
<trkpt lat="-27.2189015" lon="152.9966484">
<ele>39.170</ele>
<time>2017-06-10T22:22:00.112Z</time>
</trkpt>
<trkpt lat="-27.2184862" lon="152.9963543">
<ele>37.591</ele>
<time>2017-06-10T22:22:02.094Z</time>
</trkpt>
<trkpt lat="-27.2178638" lon="152.9959066">
<ele>35.885</ele>
<time>2017-06-10T22:22:05.087Z</time>
</trkpt>
<trkpt lat="-27.2174488" lon="152.9956055">
<ele>34.205</ele>
<time>2017-06-10T22:22:07.076Z</time>
</trkpt>
<trkpt lat="-27.2168092" lon="152.9951354">
<ele>32.677</ele>
<time>2017-06-10T22:22:10.116Z</time>
</trkpt>
<trkpt lat="-27.2161670" lon="152.9946627">
<ele>31.434</ele>
<time>2017-06-10T22:22:13.139Z</time>
</trkpt>
<trkpt lat="-27.2155158" lon="152.9941991">
<ele>30.586</ele>
<time>2017-06-10T22:22:16.157Z</time>
</trkpt>
<trkpt lat="-27.2148570" lon="152.9937489">
<ele>30.129</ele>
<time>2017-06-10T22:22:19.170Z</time>
</trkpt>
<trkpt lat="-27.2142173" lon="152.9932934">
<ele>30.009</ele>
<time>2017-06-10T22:22:22.153Z</time>
</trkpt>
<trkpt lat="-27.2137736" lon="152.9930257">
<ele>30.187</ele>
<time>2017-06-10T22:22:24.156Z</time>
</trkpt>
<trkpt lat="-27.2133275" lon="152.9927730">
<ele>30.568</ele>
<time>2017-06-10T22:22:26.158Z</time>
</trkpt>
<trkpt lat="-27.2126687" lon="152.9923936">
<ele>30.966</ele>
<time>2017-06-10T22:22:29.144Z</time>
</trkpt>
<trkpt lat="-27.2122272" lon="152.9921499">
<ele>31.257</ele>
<time>2017-06-10T22:22:31.132Z</time>
</trkpt>
<trkpt lat="-27.2117785" lon="152.9918961">
<ele>31.483</ele>
<time>2017-06-10T22:22:33.140Z</time>
</trkpt>
<trkpt lat="-27.2110726" lon="152.9915577">
<ele>31.791</ele>
<time>2017-06-10T22:22:36.170Z</time>
</trkpt>
<trkpt lat="-27.2105938" lon="152.9913542">
<ele>32.292</ele>
<time>2017-06-10T22:22:38.162Z</time>
</trkpt>
<trkpt lat="-27.2098602" lon="152.9910419">
<ele>32.963</ele>
<time>2017-06-10T22:22:41.208Z</time>
</trkpt>
<trkpt lat="-27.2091394" lon="152.9907627">
<ele>33.768</ele>
<time>2017-06-10T22:22:44.200Z</time>
</trkpt>
<trkpt lat="-27.2084321" lon="152.9904809">
<ele>34.617</ele>
<time>2017-06-10T22:22:47.177Z</time>
</trkpt>
<trkpt lat="-27.2076859" lon="152.9902623">
<ele>35.401</ele>
<time>2017-06-10T22:22:50.214Z</time>
</trkpt>
<trkpt lat="-27.2069474" lon="152.9899958">
<ele>36.110</ele>
<time>2017-06-10T22:22:53.237Z</time>
</trkpt>
<trkpt lat="-27.2064462" lon="152.9898605">
<ele>36.771</ele>
<time>2017-06-10T22:22:55.239Z</time>
</trkpt>
<trkpt lat="-27.2059409" lon="152.9897427">
<ele>37.349</ele>
<time>2017-06-10T22:22:57.245Z</time>
</trkpt>
<trkpt lat="-27.2054451" lon="152.9896121">
<ele>37.843</ele>
<time>2017-06-10T22:22:59.233Z</time>
</trkpt>
<trkpt lat="-27.2046904" lon="152.9894547">
<ele>38.288</ele>
<time>2017-06-10T22:23:02.239Z</time>
</trkpt>
<trkpt lat="-27.2041905" lon="152.9893483">
<ele>38.649</ele>
<time>2017-06-10T22:23:04.235Z</time>
</trkpt>
<trkpt lat="-27.2036900" lon="152.9892362">
<ele>38.928</ele>
<time>2017-06-10T22:23:06.236Z</time>
</trkpt>
<trkpt lat="-27.2031832" lon="152.9891630">
<ele>39.202</ele>
<time>2017-06-10T22:23:08.237Z</time>
</trkpt>
<trkpt lat="-27.2024286" lon="152.9889980">
<ele>39.435</ele>
<time>2017-06-10T22:23:11.242Z</time>
</trkpt>
<trkpt lat="-27.2016767" lon="152.9888219">
<ele>39.562</ele>
<time>2017-06-10T22:23:14.240Z</time>
</trkpt>
<trkpt lat="-27.2009141" lon="152.9886965">
<ele>39.616</ele>
<time>2017-06-10T22:23:17.242Z</time>
</trkpt>
<trkpt lat="-27.2004082" lon="152.9886143">
<ele>39.662</ele>
<time>2017-06-10T22:23:19.235Z</time>
</trkpt>
<trkpt lat="-27.1996454" lon="152.9884760">
<ele>39.731</ele>
<time>2017-06-10T22:23:22.244Z</time>
</trkpt>
<trkpt lat="-27.1991367" lon="152.9883734">
<ele>39.740</ele>
<time>2017-06-10T22:23:24.251Z</time>
</trkpt>
<trkpt lat="-27.1983794" lon="152.9881933">
<ele>39.578</ele>
<time>2017-06-10T22:23:27.259Z</time>
</trkpt>
<trkpt lat="-27.1978701" lon="152.9881162">
<ele>39.220</ele>
<time>2017-06-10T22:23:29.260Z</time>
</trkpt>
<trkpt lat="-27.1973588" lon="152.9880413">
<ele>38.714</ele>
<time>2017-06-10T22:23:31.265Z</time>
</trkpt>
<trkpt lat="-27.1966099" lon="152.9878301">
<ele>38.204</ele>
<time>2017-06-10T22:23:34.266Z</time>
</trkpt>
<trkpt lat="-27.1958438" lon="152.9877059">
<ele>37.826</ele>
<time>2017-06-10T22:23:37.268Z</time>
</trkpt>
<trkpt lat="-27.1950794" lon="152.9875760">
<ele>37.498</ele>
<time>2017-06-10T22:23:40.268Z</time>
</trkpt>
<trkpt lat="-27.1943242" lon="152.9874195">
<ele>37.002</ele>
<time>2017-06-10T22:23:43.263Z</time>
</trkpt>
<trkpt lat="-27.1935736" lon="152.9872887">
<ele>36.220</ele>
<time>2017-06-10T22:23:46.246Z</time>
</trkpt>
<trkpt lat="-27.1930746" lon="152.9871951">
<ele>35.190</ele>
<time>2017-06-10T22:23:48.244Z</time>
</trkpt>
<trkpt lat="-27.1925777" lon="152.9870979">
<ele>34.090</ele>
<time>2017-06-10T22:23:50.250Z</time>
</trkpt>
<trkpt lat="-27.1918418" lon="152.9869464">
<ele>33.145</ele>
<time>2017-06-10T22:23:53.245Z</time>
</trkpt>
<trkpt lat="-27.1911112" lon="152.9868229">
<ele>32.371</ele>
<time>2017-06-10T22:23:56.233Z</time>
</trkpt>
<trkpt lat="-27.1903899" lon="152.9866934">
<ele>31.578</ele>
<time>2017-06-10T22:23:59.208Z</time>
</trkpt>
<trkpt lat="-27.1896672" lon="152.9865358">
<ele>30.800</ele>
<time>2017-06-10T22:24:02.214Z</time>
</trkpt>
<trkpt lat="-27.1889455" lon="152.9863927">
<ele>30.370</ele>
<time>2017-06-10T22:24:05.200Z</time>
</trkpt>
<trkpt lat="-27.1884590" lon="152.9862802">
<ele>30.560</ele>
<time>2017-06-10T22:24:07.211Z</time>
</trkpt>
<trkpt lat="-27.1877293" lon="152.9861154">
<ele>31.348</ele>
<time>2017-06-10T22:24:10.213Z</time>
</trkpt>
<trkpt lat="-27.1870042" lon="152.9859251">
<ele>32.500</ele>
<time>2017-06-10T22:24:13.213Z</time>
</trkpt>
<trkpt lat="-27.1862725" lon="152.9857556">
<ele>33.761</ele>
<time>2017-06-10T22:24:16.216Z</time>
</trkpt>
<trkpt lat="-27.1855451" lon="152.9855648">
<ele>35.024</ele>
<time>2017-06-10T22:24:19.205Z</time>
</trkpt>
<trkpt lat="-27.1850567" lon="152.9854507">
<ele>36.349</ele>
<time>2017-06-10T22:24:21.203Z</time>
</trkpt>
<trkpt lat="-27.1843329" lon="152.9852424">
<ele>37.691</ele>
<time>2017-06-10T22:24:24.201Z</time>
</trkpt>
<trkpt lat="-27.1836165" lon="152.9850099">
<ele>38.799</ele>
<time>2017-06-10T22:24:27.192Z</time>
</trkpt>
<trkpt lat="-27.1828904" lon="152.9847948">
<ele>39.492</ele>
<time>2017-06-10T22:24:30.193Z</time>
</trkpt>
<trkpt lat="-27.1821534" lon="152.9845897">
<ele>39.783</ele>
<time>2017-06-10T22:24:33.219Z</time>
</trkpt>
<trkpt lat="-27.1814364" lon="152.9843495">
<ele>39.771</ele>
<time>2017-06-10T22:24:36.237Z</time>
</trkpt>
<trkpt lat="-27.1807372" lon="152.9842048">
<ele>39.507</ele>
<time>2017-06-10T22:24:39.189Z</time>
</trkpt>
<trkpt lat="-27.1800665" lon="152.9839997">
<ele>38.897</ele>
<time>2017-06-10T22:24:42.133Z</time>
</trkpt>
<trkpt lat="-27.1793750" lon="152.9838246">
<ele>37.857</ele>
<time>2017-06-10T22:24:45.112Z</time>
</trkpt>
<trkpt lat="-27.1786636" lon="152.9836363">
<ele>36.469</ele>
<time>2017-06-10T22:24:48.120Z</time>
</trkpt>
<trkpt lat="-27.1779496" lon="152.9834129">
<ele>34.917</ele>
<time>2017-06-10T22:24:51.135Z</time>
</trkpt>
<trkpt lat="-27.1772541" lon="152.9831837">
<ele>33.334</ele>
<time>2017-06-10T22:24:54.117Z</time>
</trkpt>
<trkpt lat="-27.1767978" lon="152.9830585">
<ele>31.687</ele>
<time>2017-06-10T22:24:56.087Z</time>
</trkpt>
<trkpt lat="-27.1763378" lon="152.9829442">
<ele>30.009</ele>
<time>2017-06-10T22:24:58.061Z</time>
</trkpt>
<trkpt lat="-27.1758626" lon="152.9828152">
<ele>28.522</ele>
<time>2017-06-10T22:25:00.058Z</time>
</trkpt>
<trkpt lat="-27.1751217" lon="152.9826020">
<ele>27.424</ele>
<time>2017-06-10T22:25:03.094Z</time>
</trkpt>
<trkpt lat="-27.1746127" lon="152.9824858">
<ele>26.765</ele>
<time>2017-06-10T22:25:05.110Z</time>
</trkpt>
<trkpt lat="-27.1741159" lon="152.9823533">
<ele>26.478</ele>
<time>2017-06-10T22:25:07.100Z</time>
</trkpt>
<trkpt lat="-27.1733799" lon="152.9821303">
<ele>26.406</ele>
<time>2017-06-10T22:25:10.085Z</time>
</trkpt>
<trkpt lat="-27.1726340" lon="152.9819517">
<ele>26.464</ele>
<time>2017-06-10T22:25:13.077Z</time>
</trkpt>
<trkpt lat="-27.1721444" lon="152.9818001">
<ele>26.659</ele>
<time>2017-06-10T22:25:15.072Z</time>
</trkpt>
<trkpt lat="-27.1714077" lon="152.9815844">
<ele>26.948</ele>
<time>2017-06-10T22:25:18.063Z</time>
</trkpt>
<trkpt lat="-27.1709140" lon="152.9814354">
<ele>27.309</ele>
<time>2017-06-10T22:25:20.061Z</time>
</trkpt>
<trkpt lat="-27.1704133" lon="152.9812972">
<ele>27.825</ele>
<time>2017-06-10T22:25:22.070Z</time>
</trkpt>
<trkpt lat="-27.1696609" lon="152.9810824">
<ele>28.445</ele>
<time>2017-06-10T22:25:25.090Z</time>
</trkpt>
<trkpt lat="-27.1691660" lon="152.9809220">
<ele>28.964</ele>
<time>2017-06-10T22:25:27.100Z</time>
</trkpt>
<trkpt lat="-27.1686789" lon="152.9807724">
<ele>29.278</ele>
<time>2017-06-10T22:25:29.076Z</time>
</trkpt>
<trkpt lat="-27.1681772" lon="152.9806437">
<ele>29.381</ele>
<time>2017-06-10T22:25:31.096Z</time>
</trkpt>
<trkpt lat="-27.1674508" lon="152.9803905">
<ele>29.303</ele>
<time>2017-06-10T22:25:34.091Z</time>
</trkpt>
<trkpt lat="-27.1667104" lon="152.9802096">
<ele>29.068</ele>
<time>2017-06-10T22:25:37.085Z</time>
</trkpt>
<trkpt lat="-27.1662273" lon="152.9800350">
<ele>28.606</ele>
<time>2017-06-10T22:25:39.083Z</time>
</trkpt>
<trkpt lat="-27.1654955" lon="152.9797913">
<ele>27.945</ele>
<time>2017-06-10T22:25:42.083Z</time>
</trkpt>
<trkpt lat="-27.1650027" lon="152.9796589">
<ele>27.185</ele>
<time>2017-06-10T22:25:44.079Z</time>
</trkpt>
<trkpt lat="-27.1642662" lon="152.9794646">
<ele>26.372</ele>
<time>2017-06-10T22:25:47.069Z</time>
</trkpt>
<trkpt lat="-27.1635316" lon="152.9792876">
<ele>25.613</ele>
<time>2017-06-10T22:25:50.043Z</time>
</trkpt>
<trkpt lat="-27.1630426" lon="152.9791415">
<ele>24.986</ele>
<time>2017-06-10T22:25:52.045Z</time>
</trkpt>
<trkpt lat="-27.1625520" lon="152.9790203">
<ele>24.409</ele>
<time>2017-06-10T22:25:54.034Z</time>
</trkpt>
<trkpt lat="-27.1618275" lon="152.9787844">
<ele>23.822</ele>
<time>2017-06-10T22:25:57.023Z</time>
</trkpt>
<trkpt lat="-27.1610867" lon="152.9785840">
<ele>23.318</ele>
<time>2017-06-10T22:26:00.040Z</time>
</trkpt>
<trkpt lat="-27.1605980" lon="152.9784473">
<ele>23.128</ele>
<time>2017-06-10T22:26:02.035Z</time>
</trkpt>
<trkpt lat="-27.1601107" lon="152.9783004">
<ele>23.401</ele>
<time>2017-06-10T22:26:04.034Z</time>
</trkpt>
<trkpt lat="-27.1596210" lon="152.9781458">
<ele>23.991</ele>
<time>2017-06-10T22:26:06.042Z</time>
</trkpt>
<trkpt lat="-27.1588742" lon="152.9779748">
<ele>24.563</ele>
<time>2017-06-10T22:26:09.046Z</time>
</trkpt>
<trkpt lat="-27.1583840" lon="152.9778201">
<ele>24.898</ele>
<time>2017-06-10T22:26:11.049Z</time>
</trkpt>
<trkpt lat="-27.1578723" lon="152.9777681">
<ele>24.913</ele>
<time>2017-06-10T22:26:13.071Z</time>
</trkpt>
<trkpt lat="-27.1573642" lon="152.9777088">
<ele>24.539</ele>
<time>2017-06-10T22:26:15.083Z</time>
</trkpt>
<trkpt lat="-27.1566139" lon="152.9775977">
<ele>23.809</ele>
<time>2017-06-10T22:26:18.073Z</time>
</trkpt>
<trkpt lat="-27.1561125" lon="152.9775304">
<ele>22.911</ele>
<time>2017-06-10T22:26:20.077Z</time>
</trkpt>
<trkpt lat="-27.1553664" lon="152.9774817">
<ele>22.130</ele>
<time>2017-06-10T22:26:23.047Z</time>
</trkpt>
<trkpt lat="-27.1546076" lon="152.9775015">
<ele>21.737</ele>
<time>2017-06-10T22:26:26.074Z</time>
</trkpt>
<trkpt lat="-27.1541290" lon="152.9775275">
<ele>21.739</ele>
<time>2017-06-10T22:26:28.072Z</time>
</trkpt>
<trkpt lat="-27.1534821" lon="152.9775496">
<ele>21.787</ele>
<time>2017-06-10T22:26:30.932Z</time>
</trkpt>
<trkpt lat="-27.1530571" lon="152.9775776">
<ele>21.308</ele>
<time>2017-06-10T22:26:32.884Z</time>
</trkpt>
<trkpt lat="-27.1523728" lon="152.9776163">
<ele>20.098</ele>
<time>2017-06-10T22:26:35.912Z</time>
</trkpt>
<trkpt lat="-27.1518703" lon="152.9776488">
<ele>18.687</ele>
<time>2017-06-10T22:26:37.994Z</time>
</trkpt>
<trkpt lat="-27.1513762" lon="152.9776592">
<ele>17.728</ele>
<time>2017-06-10T22:26:40.023Z</time>
</trkpt>
<trkpt lat="-27.1506774" lon="152.9777099">
<ele>17.372</ele>
<time>2017-06-10T22:26:42.956Z</time>
</trkpt>
<trkpt lat="-27.1499743" lon="152.9777900">
<ele>17.441</ele>
<time>2017-06-10T22:26:45.961Z</time>
</trkpt>
<trkpt lat="-27.1492489" lon="152.9778578">
<ele>17.699</ele>
<time>2017-06-10T22:26:49.017Z</time>
</trkpt>
<trkpt lat="-27.1485363" lon="152.9779512">
<ele>17.979</ele>
<time>2017-06-10T22:26:52.003Z</time>
</trkpt>
<trkpt lat="-27.1478163" lon="152.9780297">
<ele>18.176</ele>
<time>2017-06-10T22:26:54.988Z</time>
</trkpt>
<trkpt lat="-27.1473287" lon="152.9780567">
<ele>18.320</ele>
<time>2017-06-10T22:26:56.987Z</time>
</trkpt>
<trkpt lat="-27.1466074" lon="152.9781336">
<ele>18.486</ele>
<time>2017-06-10T22:27:00.003Z</time>
</trkpt>
<trkpt lat="-27.1459328" lon="152.9781484">
<ele>18.602</ele>
<time>2017-06-10T22:27:02.955Z</time>
</trkpt>
<trkpt lat="-27.1455085" lon="152.9781532">
<ele>18.542</ele>
<time>2017-06-10T22:27:04.937Z</time>
</trkpt>
<trkpt lat="-27.1449011" lon="152.9781302">
<ele>18.352</ele>
<time>2017-06-10T22:27:07.893Z</time>
</trkpt>
<trkpt lat="-27.1445094" lon="152.9781381">
<ele>18.186</ele>
<time>2017-06-10T22:27:09.855Z</time>
</trkpt>
<trkpt lat="-27.1439167" lon="152.9781023">
<ele>18.131</ele>
<time>2017-06-10T22:27:12.800Z</time>
</trkpt>
<trkpt lat="-27.1432710" lon="152.9780979">
<ele>18.250</ele>
<time>2017-06-10T22:27:15.875Z</time>
</trkpt>
<trkpt lat="-27.1426021" lon="152.9780166">
<ele>18.696</ele>
<time>2017-06-10T22:27:18.955Z</time>
</trkpt>
<trkpt lat="-27.1419380" lon="152.9779907">
<ele>19.496</ele>
<time>2017-06-10T22:27:21.946Z</time>
</trkpt>
<trkpt lat="-27.1414863" lon="152.9779726">
<ele>20.403</ele>
<time>2017-06-10T22:27:23.952Z</time>
</trkpt>
<trkpt lat="-27.1408017" lon="152.9778958">
<ele>21.180</ele>
<time>2017-06-10T22:27:26.997Z</time>
</trkpt>
<trkpt lat="-27.1403624" lon="152.9778983">
<ele>21.843</ele>
<time>2017-06-10T22:27:28.967Z</time>
</trkpt>
<trkpt lat="-27.1396925" lon="152.9778545">
<ele>22.418</ele>
<time>2017-06-10T22:27:31.985Z</time>
</trkpt>
<trkpt lat="-27.1392411" lon="152.9778080">
<ele>22.831</ele>
<time>2017-06-10T22:27:34.004Z</time>
</trkpt>
<trkpt lat="-27.1387899" lon="152.9778542">
<ele>23.110</ele>
<time>2017-06-10T22:27:36.027Z</time>
</trkpt>
<trkpt lat="-27.1381353" lon="152.9777859">
<ele>23.329</ele>
<time>2017-06-10T22:27:38.994Z</time>
</trkpt>
<trkpt lat="-27.1376986" lon="152.9777580">
<ele>23.469</ele>
<time>2017-06-10T22:27:40.991Z</time>
</trkpt>
<trkpt lat="-27.1370470" lon="152.9777268">
<ele>23.530</ele>
<time>2017-06-10T22:27:43.980Z</time>
</trkpt>
<trkpt lat="-27.1363942" lon="152.9777274">
<ele>23.569</ele>
<time>2017-06-10T22:27:46.976Z</time>
</trkpt>
<trkpt lat="-27.1359563" lon="152.9777175">
<ele>23.622</ele>
<time>2017-06-10T22:27:48.983Z</time>
</trkpt>
<trkpt lat="-27.1353112" lon="152.9776599">
<ele>23.693</ele>
<time>2017-06-10T22:27:51.947Z</time>
</trkpt>
<trkpt lat="-27.1348686" lon="152.9776121">
<ele>23.768</ele>
<time>2017-06-10T22:27:53.963Z</time>
</trkpt>
<trkpt lat="-27.1344198" lon="152.9775834">
<ele>23.843</ele>
<time>2017-06-10T22:27:55.970Z</time>
</trkpt>
<trkpt lat="-27.1339705" lon="152.9775247">
<ele>23.941</ele>
<time>2017-06-10T22:27:57.972Z</time>
</trkpt>
<trkpt lat="-27.1335195" lon="152.9774842">
<ele>24.074</ele>
<time>2017-06-10T22:27:59.978Z</time>
</trkpt>
<trkpt lat="-27.1328548" lon="152.9774212">
<ele>24.218</ele>
<time>2017-06-10T22:28:02.958Z</time>
</trkpt>
<trkpt lat="-27.1321860" lon="152.9774228">
<ele>24.323</ele>
<time>2017-06-10T22:28:05.959Z</time>
</trkpt>
<trkpt lat="-27.1317306" lon="152.9774330">
<ele>24.311</ele>
<time>2017-06-10T22:28:07.984Z</time>
</trkpt>
<trkpt lat="-27.1310497" lon="152.9773829">
<ele>24.041</ele>
<time>2017-06-10T22:28:10.991Z</time>
</trkpt>
<trkpt lat="-27.1305858" lon="152.9773733">
<ele>23.369</ele>
<time>2017-06-10T22:28:13.018Z</time>
</trkpt>
<trkpt lat="-27.1299005" lon="152.9773480">
<ele>22.396</ele>
<time>2017-06-10T22:28:16.023Z</time>
</trkpt>
<trkpt lat="-27.1292332" lon="152.9773111">
<ele>21.473</ele>
<time>2017-06-10T22:28:19.009Z</time>
</trkpt>
<trkpt lat="-27.1288101" lon="152.9772526">
<ele>20.796</ele>
<time>2017-06-10T22:28:21.010Z</time>
</trkpt>
<trkpt lat="-27.1284142" lon="152.9772488">
<ele>20.146</ele>
<time>2017-06-10T22:28:22.976Z</time>
</trkpt>
<trkpt lat="-27.1280463" lon="152.9771884">
<ele>19.155</ele>
<time>2017-06-10T22:28:24.951Z</time>
</trkpt>
<trkpt lat="-27.1275277" lon="152.9771411">
<ele>17.770</ele>
<time>2017-06-10T22:28:27.878Z</time>
</trkpt>
<trkpt lat="-27.1272032" lon="152.9771319">
<ele>16.177</ele>
<time>2017-06-10T22:28:29.861Z</time>
</trkpt>
<trkpt lat="-27.1267716" lon="152.9770227">
<ele>14.572</ele>
<time>2017-06-10T22:28:32.746Z</time>
</trkpt>
<trkpt lat="-27.1263542" lon="152.9770390">
<ele>13.158</ele>
<time>2017-06-10T22:28:35.662Z</time>
</trkpt>
<trkpt lat="-27.1260864" lon="152.9770195">
<ele>12.042</ele>
<time>2017-06-10T22:28:37.612Z</time>
</trkpt>
<trkpt lat="-27.1256895" lon="152.9769873">
<ele>11.270</ele>
<time>2017-06-10T22:28:40.604Z</time>
</trkpt>
<trkpt lat="-27.1253535" lon="152.9769672">
<ele>10.898</ele>
<time>2017-06-10T22:28:43.458Z</time>
</trkpt>
<trkpt lat="-27.1251191" lon="152.9769386">
<ele>10.795</ele>
<time>2017-06-10T22:28:45.927Z</time>
</trkpt>
<trkpt lat="-27.1251403" lon="152.9768176">
<ele>10.737</ele>
<time>2017-06-10T22:28:47.542Z</time>
</trkpt>
<trkpt lat="-27.1251122" lon="152.9767189">
<ele>10.637</ele>
<time>2017-06-10T22:28:49.235Z</time>
</trkpt>
<trkpt lat="-27.1250339" lon="152.9765666">
<ele>10.512</ele>
<time>2017-06-10T22:28:52.464Z</time>
</trkpt>
<trkpt lat="-27.1248982" lon="152.9764946">
<ele>10.362</ele>
<time>2017-06-10T22:28:55.572Z</time>
</trkpt>
<trkpt lat="-27.1247942" lon="152.9763853">
<ele>10.202</ele>
<time>2017-06-10T22:28:58.572Z</time>
</trkpt>
<trkpt lat="-27.1246853" lon="152.9763653">
<ele>10.102</ele>
<time>2017-06-10T22:29:01.273Z</time>
</trkpt>
<trkpt lat="-27.1245838" lon="152.9764050">
<ele>10.103</ele>
<time>2017-06-10T22:29:05.208Z</time>
</trkpt>
<trkpt lat="-27.1245284" lon="152.9763143">
<ele>10.159</ele>
<time>2017-06-10T22:29:10.998Z</time>
</trkpt>
<trkpt lat="-27.1245284" lon="152.9763143">
<ele>10.206</ele>
<time>2017-06-10T22:29:14.998Z</time>
</trkpt>
<trkpt lat="-27.1245284" lon="152.9763143">
<ele>10.218</ele>
<time>2017-06-10T22:38:48.170Z</time>
</trkpt>
<trkpt lat="-27.1243873" lon="152.9764674">
<ele>10.210</ele>
<time>2017-06-10T22:39:01.172Z</time>
</trkpt>
<trkpt lat="-27.1243805" lon="152.9765899">
<ele>10.224</ele>
<time>2017-06-10T22:39:05.880Z</time>
</trkpt>
<trkpt lat="-27.1242898" lon="152.9766182">
<ele>10.283</ele>
<time>2017-06-10T22:39:09.802Z</time>
</trkpt>
<trkpt lat="-27.1242129" lon="152.9765299">
<ele>10.338</ele>
<time>2017-06-10T22:39:13.137Z</time>
</trkpt>
<trkpt lat="-27.1240927" lon="152.9764877">
<ele>10.346</ele>
<time>2017-06-10T22:39:16.189Z</time>
</trkpt>
<trkpt lat="-27.1240031" lon="152.9764743">
<ele>10.337</ele>
<time>2017-06-10T22:39:17.962Z</time>
</trkpt>
<trkpt lat="-27.1239115" lon="152.9764673">
<ele>10.356</ele>
<time>2017-06-10T22:39:19.798Z</time>
</trkpt>
<trkpt lat="-27.1237920" lon="152.9764601">
<ele>10.407</ele>
<time>2017-06-10T22:39:22.396Z</time>
</trkpt>
<trkpt lat="-27.1236913" lon="152.9764655">
<ele>10.455</ele>
<time>2017-06-10T22:39:25.033Z</time>
</trkpt>
<trkpt lat="-27.1235989" lon="152.9764574">
<ele>10.468</ele>
<time>2017-06-10T22:39:27.998Z</time>
</trkpt>
<trkpt lat="-27.1235989" lon="152.9764574">
<ele>10.440</ele>
<time>2017-06-10T22:39:32.998Z</time>
</trkpt>
<trkpt lat="-27.1235989" lon="152.9764574">
<ele>10.410</ele>
<time>2017-06-10T22:39:33.098Z</time>
</trkpt>
<trkpt lat="-27.1234159" lon="152.9764637">
<ele>10.405</ele>
<time>2017-06-10T23:03:03.999Z</time>
</trkpt>
<trkpt lat="-27.1234159" lon="152.9764637">
<ele>10.411</ele>
<time>2017-06-10T23:03:06.999Z</time>
</trkpt>
<trkpt lat="-27.1234159" lon="152.9764637">
<ele>10.408</ele>
<time>2017-06-10T23:05:16.820Z</time>
</trkpt>
<trkpt lat="-27.1232687" lon="152.9765501">
<ele>10.399</ele>
<time>2017-06-10T23:05:28.366Z</time>
</trkpt>
<trkpt lat="-27.1232605" lon="152.9766653">
<ele>10.188</ele>
<time>2017-06-10T23:05:33.071Z</time>
</trkpt>
<trkpt lat="-27.1232414" lon="152.9767696">
<ele>9.647</ele>
<time>2017-06-10T23:05:37.248Z</time>
</trkpt>
<trkpt lat="-27.1231340" lon="152.9768226">
<ele>9.092</ele>
<time>2017-06-10T23:05:40.744Z</time>
</trkpt>
<trkpt lat="-27.1230186" lon="152.9768123">
<ele>8.848</ele>
<time>2017-06-10T23:05:44.408Z</time>
</trkpt>
<trkpt lat="-27.1229328" lon="152.9767812">
<ele>8.861</ele>
<time>2017-06-10T23:05:47.520Z</time>
</trkpt>
<trkpt lat="-27.1228291" lon="152.9767864">
<ele>8.977</ele>
<time>2017-06-10T23:05:50.446Z</time>
</trkpt>
<trkpt lat="-27.1227155" lon="152.9768236">
<ele>9.117</ele>
<time>2017-06-10T23:05:53.472Z</time>
</trkpt>
<trkpt lat="-27.1225927" lon="152.9768443">
<ele>9.271</ele>
<time>2017-06-10T23:05:56.277Z</time>
</trkpt>
<trkpt lat="-27.1224975" lon="152.9768671">
<ele>9.405</ele>
<time>2017-06-10T23:05:57.783Z</time>
</trkpt>
<trkpt lat="-27.1222374" lon="152.9768667">
<ele>9.508</ele>
<time>2017-06-10T23:06:00.938Z</time>
</trkpt>
<trkpt lat="-27.1218962" lon="152.9768788">
<ele>9.628</ele>
<time>2017-06-10T23:06:04.368Z</time>
</trkpt>
<trkpt lat="-27.1217010" lon="152.9768935">
<ele>9.768</ele>
<time>2017-06-10T23:06:06.116Z</time>
</trkpt>
<trkpt lat="-27.1213513" lon="152.9768696">
<ele>9.818</ele>
<time>2017-06-10T23:06:08.769Z</time>
</trkpt>
<trkpt lat="-27.1208649" lon="152.9768083">
<ele>9.725</ele>
<time>2017-06-10T23:06:11.927Z</time>
</trkpt>
<trkpt lat="-27.1205295" lon="152.9767901">
<ele>9.689</ele>
<time>2017-06-10T23:06:13.948Z</time>
</trkpt>
<trkpt lat="-27.1200327" lon="152.9768166">
<ele>9.898</ele>
<time>2017-06-10T23:06:16.857Z</time>
</trkpt>
<trkpt lat="-27.1196474" lon="152.9768101">
<ele>10.242</ele>
<time>2017-06-10T23:06:18.925Z</time>
</trkpt>
<trkpt lat="-27.1192418" lon="152.9767732">
<ele>10.595</ele>
<time>2017-06-10T23:06:21.011Z</time>
</trkpt>
<trkpt lat="-27.1186572" lon="152.9767540">
<ele>10.973</ele>
<time>2017-06-10T23:06:23.964Z</time>
</trkpt>
<trkpt lat="-27.1182473" lon="152.9767651">
<ele>11.385</ele>
<time>2017-06-10T23:06:25.943Z</time>
</trkpt>
<trkpt lat="-27.1178114" lon="152.9767809">
<ele>11.894</ele>
<time>2017-06-10T23:06:27.971Z</time>
</trkpt>
<trkpt lat="-27.1171718" lon="152.9767729">
<ele>12.585</ele>
<time>2017-06-10T23:06:30.996Z</time>
</trkpt>
<trkpt lat="-27.1165758" lon="152.9766931">
<ele>13.402</ele>
<time>2017-06-10T23:06:33.941Z</time>
</trkpt>
<trkpt lat="-27.1161755" lon="152.9766760">
<ele>14.244</ele>
<time>2017-06-10T23:06:35.924Z</time>
</trkpt>
<trkpt lat="-27.1155579" lon="152.9766359">
<ele>15.039</ele>
<time>2017-06-10T23:06:38.974Z</time>
</trkpt>
<trkpt lat="-27.1149579" lon="152.9765832">
<ele>15.730</ele>
<time>2017-06-10T23:06:41.909Z</time>
</trkpt>
<trkpt lat="-27.1145401" lon="152.9765693">
<ele>16.352</ele>
<time>2017-06-10T23:06:43.885Z</time>
</trkpt>
<trkpt lat="-27.1138975" lon="152.9765371">
<ele>17.003</ele>
<time>2017-06-10T23:06:46.861Z</time>
</trkpt>
<trkpt lat="-27.1132321" lon="152.9765144">
<ele>17.735</ele>
<time>2017-06-10T23:06:49.888Z</time>
</trkpt>
<trkpt lat="-27.1125788" lon="152.9765517">
<ele>18.497</ele>
<time>2017-06-10T23:06:52.907Z</time>
</trkpt>
<trkpt lat="-27.1119497" lon="152.9764997">
<ele>19.104</ele>
<time>2017-06-10T23:06:55.884Z</time>
</trkpt>
<trkpt lat="-27.1115319" lon="152.9764696">
<ele>19.360</ele>
<time>2017-06-10T23:06:57.868Z</time>
</trkpt>
<trkpt lat="-27.1111008" lon="152.9764703">
<ele>19.262</ele>
<time>2017-06-10T23:06:59.855Z</time>
</trkpt>
<trkpt lat="-27.1106507" lon="152.9764316">
<ele>19.000</ele>
<time>2017-06-10T23:07:01.846Z</time>
</trkpt>
<trkpt lat="-27.1099577" lon="152.9763656">
<ele>18.764</ele>
<time>2017-06-10T23:07:04.881Z</time>
</trkpt>
<trkpt lat="-27.1092754" lon="152.9763747">
<ele>18.596</ele>
<time>2017-06-10T23:07:07.887Z</time>
</trkpt>
<trkpt lat="-27.1086135" lon="152.9763681">
<ele>18.340</ele>
<time>2017-06-10T23:07:10.846Z</time>
</trkpt>
<trkpt lat="-27.1081713" lon="152.9763213">
<ele>17.762</ele>
<time>2017-06-10T23:07:12.802Z</time>
</trkpt>
<trkpt lat="-27.1074799" lon="152.9763046">
<ele>16.943</ele>
<time>2017-06-10T23:07:15.784Z</time>
</trkpt>
<trkpt lat="-27.1069971" lon="152.9762620">
<ele>16.279</ele>
<time>2017-06-10T23:07:17.818Z</time>
</trkpt>
<trkpt lat="-27.1062830" lon="152.9762466">
<ele>15.985</ele>
<time>2017-06-10T23:07:20.805Z</time>
</trkpt>
<trkpt lat="-27.1058043" lon="152.9761994">
<ele>15.945</ele>
<time>2017-06-10T23:07:22.819Z</time>
</trkpt>
<trkpt lat="-27.1053373" lon="152.9762073">
<ele>15.983</ele>
<time>2017-06-10T23:07:24.791Z</time>
</trkpt>
<trkpt lat="-27.1046371" lon="152.9762003">
<ele>16.078</ele>
<time>2017-06-10T23:07:27.747Z</time>
</trkpt>
<trkpt lat="-27.1041564" lon="152.9761234">
<ele>16.369</ele>
<time>2017-06-10T23:07:29.789Z</time>
</trkpt>
<trkpt lat="-27.1036827" lon="152.9761691">
<ele>16.907</ele>
<time>2017-06-10T23:07:31.792Z</time>
</trkpt>
<trkpt lat="-27.1032134" lon="152.9761046">
<ele>17.548</ele>
<time>2017-06-10T23:07:33.798Z</time>
</trkpt>
<trkpt lat="-27.1025113" lon="152.9761001">
<ele>18.112</ele>
<time>2017-06-10T23:07:36.791Z</time>
</trkpt>
<trkpt lat="-27.1020397" lon="152.9760434">
<ele>18.545</ele>
<time>2017-06-10T23:07:38.832Z</time>
</trkpt>
<trkpt lat="-27.1013656" lon="152.9759770">
<ele>18.892</ele>
<time>2017-06-10T23:07:41.737Z</time>
</trkpt>
<trkpt lat="-27.1008855" lon="152.9759422">
<ele>19.282</ele>
<time>2017-06-10T23:07:43.768Z</time>
</trkpt>
<trkpt lat="-27.1004091" lon="152.9759579">
<ele>19.773</ele>
<time>2017-06-10T23:07:45.762Z</time>
</trkpt>
<trkpt lat="-27.0996946" lon="152.9759217">
<ele>20.210</ele>
<time>2017-06-10T23:07:48.750Z</time>
</trkpt>
<trkpt lat="-27.0989882" lon="152.9758899">
<ele>20.395</ele>
<time>2017-06-10T23:07:51.700Z</time>
</trkpt>
<trkpt lat="-27.0985015" lon="152.9758554">
<ele>20.307</ele>
<time>2017-06-10T23:07:53.732Z</time>
</trkpt>
<trkpt lat="-27.0980298" lon="152.9758441">
<ele>20.008</ele>
<time>2017-06-10T23:07:55.690Z</time>
</trkpt>
<trkpt lat="-27.0973058" lon="152.9757833">
<ele>19.537</ele>
<time>2017-06-10T23:07:58.688Z</time>
</trkpt>
<trkpt lat="-27.0968195" lon="152.9757653">
<ele>18.945</ele>
<time>2017-06-10T23:08:00.693Z</time>
</trkpt>
<trkpt lat="-27.0961014" lon="152.9756873">
<ele>18.347</ele>
<time>2017-06-10T23:08:03.657Z</time>
</trkpt>
<trkpt lat="-27.0953665" lon="152.9756469">
<ele>17.837</ele>
<time>2017-06-10T23:08:06.658Z</time>
</trkpt>
<trkpt lat="-27.0948833" lon="152.9755947">
<ele>17.421</ele>
<time>2017-06-10T23:08:08.655Z</time>
</trkpt>
<trkpt lat="-27.0941714" lon="152.9755537">
<ele>17.068</ele>
<time>2017-06-10T23:08:11.618Z</time>
</trkpt>
<trkpt lat="-27.0936987" lon="152.9756029">
<ele>16.727</ele>
<time>2017-06-10T23:08:13.582Z</time>
</trkpt>
<trkpt lat="-27.0929579" lon="152.9755499">
<ele>16.412</ele>
<time>2017-06-10T23:08:16.505Z</time>
</trkpt>
<trkpt lat="-27.0920825" lon="152.9755226">
<ele>16.412</ele>
<time>2017-06-10T23:08:19.713Z</time>
</trkpt>
<trkpt lat="-27.0912628" lon="152.9754725">
<ele>17.296</ele>
<time>2017-06-10T23:08:22.678Z</time>
</trkpt>
<trkpt lat="-27.0907261" lon="152.9754898">
<ele>19.046</ele>
<time>2017-06-10T23:08:24.642Z</time>
</trkpt>
<trkpt lat="-27.0899054" lon="152.9753929">
<ele>20.880</ele>
<time>2017-06-10T23:08:27.695Z</time>
</trkpt>
<trkpt lat="-27.0891404" lon="152.9752973">
<ele>22.158</ele>
<time>2017-06-10T23:08:30.719Z</time>
</trkpt>
<trkpt lat="-27.0884769" lon="152.9751875">
<ele>22.402</ele>
<time>2017-06-10T23:08:33.633Z</time>
</trkpt>
<trkpt lat="-27.0878607" lon="152.9751461">
<ele>21.221</ele>
<time>2017-06-10T23:08:36.501Z</time>
</trkpt>
<trkpt lat="-27.0874367" lon="152.9751302">
<ele>19.092</ele>
<time>2017-06-10T23:08:38.508Z</time>
</trkpt>
<trkpt lat="-27.0870191" lon="152.9751613">
<ele>17.116</ele>
<time>2017-06-10T23:08:40.496Z</time>
</trkpt>
<trkpt lat="-27.0863986" lon="152.9751652">
<ele>15.958</ele>
<time>2017-06-10T23:08:43.448Z</time>
</trkpt>
<trkpt lat="-27.0859804" lon="152.9752371">
<ele>15.499</ele>
<time>2017-06-10T23:08:45.444Z</time>
</trkpt>
<trkpt lat="-27.0855502" lon="152.9752027">
<ele>15.331</ele>
<time>2017-06-10T23:08:47.454Z</time>
</trkpt>
<trkpt lat="-27.0851282" lon="152.9751388">
<ele>15.230</ele>
<time>2017-06-10T23:08:49.440Z</time>
</trkpt>
<trkpt lat="-27.0845029" lon="152.9751341">
<ele>15.137</ele>
<time>2017-06-10T23:08:52.388Z</time>
</trkpt>
<trkpt lat="-27.0840893" lon="152.9751238">
<ele>15.042</ele>
<time>2017-06-10T23:08:54.359Z</time>
</trkpt>
<trkpt lat="-27.0836733" lon="152.9751394">
<ele>14.946</ele>
<time>2017-06-10T23:08:56.331Z</time>
</trkpt>
<trkpt lat="-27.0832418" lon="152.9751498">
<ele>14.883</ele>
<time>2017-06-10T23:08:58.347Z</time>
</trkpt>
<trkpt lat="-27.0825984" lon="152.9752263">
<ele>14.887</ele>
<time>2017-06-10T23:09:01.376Z</time>
</trkpt>
<trkpt lat="-27.0819872" lon="152.9752783">
<ele>14.949</ele>
<time>2017-06-10T23:09:04.335Z</time>
</trkpt>
<trkpt lat="-27.0814066" lon="152.9753576">
<ele>15.030</ele>
<time>2017-06-10T23:09:07.243Z</time>
</trkpt>
<trkpt lat="-27.0808009" lon="152.9753726">
<ele>15.076</ele>
<time>2017-06-10T23:09:10.237Z</time>
</trkpt>
<trkpt lat="-27.0801862" lon="152.9754326">
<ele>14.996</ele>
<time>2017-06-10T23:09:13.227Z</time>
</trkpt>
<trkpt lat="-27.0795712" lon="152.9755719">
<ele>14.780</ele>
<time>2017-06-10T23:09:16.225Z</time>
</trkpt>
<trkpt lat="-27.0791541" lon="152.9756275">
<ele>14.574</ele>
<time>2017-06-10T23:09:18.239Z</time>
</trkpt>
<trkpt lat="-27.0785515" lon="152.9756986">
<ele>14.485</ele>
<time>2017-06-10T23:09:21.203Z</time>
</trkpt>
<trkpt lat="-27.0781698" lon="152.9757461">
<ele>14.426</ele>
<time>2017-06-10T23:09:23.154Z</time>
</trkpt>
<trkpt lat="-27.0775956" lon="152.9758532">
<ele>14.291</ele>
<time>2017-06-10T23:09:26.126Z</time>
</trkpt>
<trkpt lat="-27.0772093" lon="152.9759710">
<ele>14.121</ele>
<time>2017-06-10T23:09:28.130Z</time>
</trkpt>
<trkpt lat="-27.0766047" lon="152.9760139">
<ele>14.026</ele>
<time>2017-06-10T23:09:31.122Z</time>
</trkpt>
<trkpt lat="-27.0762007" lon="152.9761303">
<ele>14.040</ele>
<time>2017-06-10T23:09:33.149Z</time>
</trkpt>
<trkpt lat="-27.0755881" lon="152.9762453">
<ele>14.135</ele>
<time>2017-06-10T23:09:36.148Z</time>
</trkpt>
<trkpt lat="-27.0751845" lon="152.9763352">
<ele>14.256</ele>
<time>2017-06-10T23:09:38.166Z</time>
</trkpt>
<trkpt lat="-27.0746042" lon="152.9764054">
<ele>14.326</ele>
<time>2017-06-10T23:09:41.103Z</time>
</trkpt>
<trkpt lat="-27.0742213" lon="152.9764627">
<ele>14.285</ele>
<time>2017-06-10T23:09:43.119Z</time>
</trkpt>
<trkpt lat="-27.0736638" lon="152.9764798">
<ele>14.160</ele>
<time>2017-06-10T23:09:46.110Z</time>
</trkpt>
<trkpt lat="-27.0733195" lon="152.9765135">
<ele>14.026</ele>
<time>2017-06-10T23:09:48.060Z</time>
</trkpt>
<trkpt lat="-27.0728400" lon="152.9763036">
<ele>13.915</ele>
<time>2017-06-10T23:09:51.027Z</time>
</trkpt>
<trkpt lat="-27.0725321" lon="152.9761296">
<ele>13.822</ele>
<time>2017-06-10T23:09:53.021Z</time>
</trkpt>
<trkpt lat="-27.0721030" lon="152.9758130">
<ele>13.803</ele>
<time>2017-06-10T23:09:55.979Z</time>
</trkpt>
<trkpt lat="-27.0717739" lon="152.9753556">
<ele>13.916</ele>
<time>2017-06-10T23:09:58.975Z</time>
</trkpt>
<trkpt lat="-27.0715089" lon="152.9748481">
<ele>14.141</ele>
<time>2017-06-10T23:10:01.956Z</time>
</trkpt>
<trkpt lat="-27.0713687" lon="152.9744791">
<ele>14.418</ele>
<time>2017-06-10T23:10:03.975Z</time>
</trkpt>
<trkpt lat="-27.0712706" lon="152.9738806">
<ele>14.660</ele>
<time>2017-06-10T23:10:06.967Z</time>
</trkpt>
<trkpt lat="-27.0712237" lon="152.9732295">
<ele>14.792</ele>
<time>2017-06-10T23:10:09.990Z</time>
</trkpt>
<trkpt lat="-27.0711839" lon="152.9725373">
<ele>14.842</ele>
<time>2017-06-10T23:10:13.004Z</time>
</trkpt>
<trkpt lat="-27.0711190" lon="152.9718281">
<ele>14.970</ele>
<time>2017-06-10T23:10:16.034Z</time>
</trkpt>
<trkpt lat="-27.0711145" lon="152.9711635">
<ele>15.337</ele>
<time>2017-06-10T23:10:18.934Z</time>
</trkpt>
<trkpt lat="-27.0712020" lon="152.9705089">
<ele>15.877</ele>
<time>2017-06-10T23:10:21.906Z</time>
</trkpt>
<trkpt lat="-27.0714198" lon="152.9698927">
<ele>16.346</ele>
<time>2017-06-10T23:10:24.893Z</time>
</trkpt>
<trkpt lat="-27.0716060" lon="152.9694995">
<ele>16.608</ele>
<time>2017-06-10T23:10:26.912Z</time>
</trkpt>
<trkpt lat="-27.0719294" lon="152.9689579">
<ele>16.700</ele>
<time>2017-06-10T23:10:29.881Z</time>
</trkpt>
<trkpt lat="-27.0721888" lon="152.9686333">
<ele>16.735</ele>
<time>2017-06-10T23:10:31.876Z</time>
</trkpt>
<trkpt lat="-27.0726266" lon="152.9682185">
<ele>16.829</ele>
<time>2017-06-10T23:10:34.845Z</time>
</trkpt>
<trkpt lat="-27.0728838" lon="152.9679052">
<ele>17.074</ele>
<time>2017-06-10T23:10:36.823Z</time>
</trkpt>
<trkpt lat="-27.0732487" lon="152.9673892">
<ele>17.466</ele>
<time>2017-06-10T23:10:39.830Z</time>
</trkpt>
<trkpt lat="-27.0735500" lon="152.9667804">
<ele>17.909</ele>
<time>2017-06-10T23:10:42.887Z</time>
</trkpt>
<trkpt lat="-27.0737254" lon="152.9663587">
<ele>18.281</ele>
<time>2017-06-10T23:10:44.862Z</time>
</trkpt>
<trkpt lat="-27.0739276" lon="152.9656632">
<ele>18.510</ele>
<time>2017-06-10T23:10:47.904Z</time>
</trkpt>
<trkpt lat="-27.0740045" lon="152.9651860">
<ele>18.655</ele>
<time>2017-06-10T23:10:49.897Z</time>
</trkpt>
<trkpt lat="-27.0740682" lon="152.9647112">
<ele>18.810</ele>
<time>2017-06-10T23:10:51.888Z</time>
</trkpt>
<trkpt lat="-27.0740625" lon="152.9642412">
<ele>18.937</ele>
<time>2017-06-10T23:10:53.865Z</time>
</trkpt>
<trkpt lat="-27.0740027" lon="152.9635509">
<ele>18.978</ele>
<time>2017-06-10T23:10:56.819Z</time>
</trkpt>
<trkpt lat="-27.0738843" lon="152.9628806">
<ele>18.937</ele>
<time>2017-06-10T23:10:59.770Z</time>
</trkpt>
<trkpt lat="-27.0737515" lon="152.9624450">
<ele>18.850</ele>
<time>2017-06-10T23:11:01.783Z</time>
</trkpt>
<trkpt lat="-27.0735940" lon="152.9620317">
<ele>18.777</ele>
<time>2017-06-10T23:11:03.758Z</time>
</trkpt>
<trkpt lat="-27.0732540" lon="152.9614502">
<ele>18.786</ele>
<time>2017-06-10T23:11:06.816Z</time>
</trkpt>
<trkpt lat="-27.0730221" lon="152.9610865">
<ele>18.889</ele>
<time>2017-06-10T23:11:08.800Z</time>
</trkpt>
<trkpt lat="-27.0727764" lon="152.9607340">
<ele>18.982</ele>
<time>2017-06-10T23:11:10.810Z</time>
</trkpt>
<trkpt lat="-27.0725384" lon="152.9603916">
<ele>18.925</ele>
<time>2017-06-10T23:11:12.768Z</time>
</trkpt>
<trkpt lat="-27.0722785" lon="152.9600525">
<ele>18.655</ele>
<time>2017-06-10T23:11:14.772Z</time>
</trkpt>
<trkpt lat="-27.0720073" lon="152.9594468">
<ele>18.254</ele>
<time>2017-06-10T23:11:17.786Z</time>
</trkpt>
<trkpt lat="-27.0718212" lon="152.9590552">
<ele>17.917</ele>
<time>2017-06-10T23:11:19.759Z</time>
</trkpt>
<trkpt lat="-27.0716912" lon="152.9586366">
<ele>17.756</ele>
<time>2017-06-10T23:11:21.734Z</time>
</trkpt>
<trkpt lat="-27.0714456" lon="152.9580249">
<ele>17.730</ele>
<time>2017-06-10T23:11:24.726Z</time>
</trkpt>
<trkpt lat="-27.0713724" lon="152.9575873">
<ele>17.759</ele>
<time>2017-06-10T23:11:26.706Z</time>
</trkpt>
<trkpt lat="-27.0712606" lon="152.9569205">
<ele>17.796</ele>
<time>2017-06-10T23:11:29.697Z</time>
</trkpt>
<trkpt lat="-27.0712173" lon="152.9562325">
<ele>17.823</ele>
<time>2017-06-10T23:11:32.694Z</time>
</trkpt>
<trkpt lat="-27.0711252" lon="152.9555463">
<ele>17.895</ele>
<time>2017-06-10T23:11:35.676Z</time>
</trkpt>
<trkpt lat="-27.0710820" lon="152.9550892">
<ele>18.091</ele>
<time>2017-06-10T23:11:37.648Z</time>
</trkpt>
<trkpt lat="-27.0710127" lon="152.9544046">
<ele>18.396</ele>
<time>2017-06-10T23:11:40.617Z</time>
</trkpt>
<trkpt lat="-27.0709422" lon="152.9537221">
<ele>18.734</ele>
<time>2017-06-10T23:11:43.583Z</time>
</trkpt>
<trkpt lat="-27.0708737" lon="152.9532647">
<ele>19.038</ele>
<time>2017-06-10T23:11:45.583Z</time>
</trkpt>
<trkpt lat="-27.0707961" lon="152.9525821">
<ele>19.239</ele>
<time>2017-06-10T23:11:48.569Z</time>
</trkpt>
<trkpt lat="-27.0707365" lon="152.9521462">
<ele>19.343</ele>
<time>2017-06-10T23:11:50.520Z</time>
</trkpt>
<trkpt lat="-27.0706350" lon="152.9514940">
<ele>19.412</ele>
<time>2017-06-10T23:11:53.478Z</time>
</trkpt>
<trkpt lat="-27.0704988" lon="152.9508342">
<ele>19.598</ele>
<time>2017-06-10T23:11:56.493Z</time>
</trkpt>
<trkpt lat="-27.0704424" lon="152.9503906">
<ele>20.151</ele>
<time>2017-06-10T23:11:58.479Z</time>
</trkpt>
<trkpt lat="-27.0703647" lon="152.9499646">
<ele>21.087</ele>
<time>2017-06-10T23:12:00.433Z</time>
</trkpt>
<trkpt lat="-27.0702940" lon="152.9495492">
<ele>22.115</ele>
<time>2017-06-10T23:12:02.374Z</time>
</trkpt>
<trkpt lat="-27.0701791" lon="152.9489294">
<ele>23.044</ele>
<time>2017-06-10T23:12:05.318Z</time>
</trkpt>
<trkpt lat="-27.0700951" lon="152.9485031">
<ele>23.890</ele>
<time>2017-06-10T23:12:07.329Z</time>
</trkpt>
<trkpt lat="-27.0699586" lon="152.9478466">
<ele>24.684</ele>
<time>2017-06-10T23:12:10.336Z</time>
</trkpt>
<trkpt lat="-27.0699185" lon="152.9473791">
<ele>25.436</ele>
<time>2017-06-10T23:12:12.365Z</time>
</trkpt>
<trkpt lat="-27.0697902" lon="152.9469331">
<ele>26.125</ele>
<time>2017-06-10T23:12:14.370Z</time>
</trkpt>
<trkpt lat="-27.0697188" lon="152.9464799">
<ele>26.650</ele>
<time>2017-06-10T23:12:16.335Z</time>
</trkpt>
<trkpt lat="-27.0696202" lon="152.9460248">
<ele>26.892</ele>
<time>2017-06-10T23:12:18.319Z</time>
</trkpt>
<trkpt lat="-27.0694811" lon="152.9453082">
<ele>26.843</ele>
<time>2017-06-10T23:12:21.347Z</time>
</trkpt>
<trkpt lat="-27.0694055" lon="152.9448163">
<ele>26.486</ele>
<time>2017-06-10T23:12:23.353Z</time>
</trkpt>
<trkpt lat="-27.0693205" lon="152.9443148">
<ele>25.849</ele>
<time>2017-06-10T23:12:25.371Z</time>
</trkpt>
<trkpt lat="-27.0692341" lon="152.9438140">
<ele>25.086</ele>
<time>2017-06-10T23:12:27.366Z</time>
</trkpt>
<trkpt lat="-27.0691233" lon="152.9433242">
<ele>24.343</ele>
<time>2017-06-10T23:12:29.346Z</time>
</trkpt>
<trkpt lat="-27.0689787" lon="152.9428420">
<ele>23.685</ele>
<time>2017-06-10T23:12:31.346Z</time>
</trkpt>
<trkpt lat="-27.0688495" lon="152.9421005">
<ele>23.142</ele>
<time>2017-06-10T23:12:34.320Z</time>
</trkpt>
<trkpt lat="-27.0687679" lon="152.9416044">
<ele>22.702</ele>
<time>2017-06-10T23:12:36.310Z</time>
</trkpt>
<trkpt lat="-27.0687065" lon="152.9410865">
<ele>22.381</ele>
<time>2017-06-10T23:12:38.348Z</time>
</trkpt>
<trkpt lat="-27.0686322" lon="152.9405589">
<ele>22.330</ele>
<time>2017-06-10T23:12:40.370Z</time>
</trkpt>
<trkpt lat="-27.0684255" lon="152.9397710">
<ele>22.655</ele>
<time>2017-06-10T23:12:43.395Z</time>
</trkpt>
<trkpt lat="-27.0683408" lon="152.9392269">
<ele>23.254</ele>
<time>2017-06-10T23:12:45.385Z</time>
</trkpt>
<trkpt lat="-27.0682695" lon="152.9386763">
<ele>23.952</ele>
<time>2017-06-10T23:12:47.376Z</time>
</trkpt>
<trkpt lat="-27.0682019" lon="152.9381457">
<ele>24.565</ele>
<time>2017-06-10T23:12:49.318Z</time>
</trkpt>
<trkpt lat="-27.0680906" lon="152.9373590">
<ele>24.920</ele>
<time>2017-06-10T23:12:52.267Z</time>
</trkpt>
<trkpt lat="-27.0680176" lon="152.9368439">
<ele>25.012</ele>
<time>2017-06-10T23:12:54.238Z</time>
</trkpt>
<trkpt lat="-27.0679511" lon="152.9363383">
<ele>24.973</ele>
<time>2017-06-10T23:12:56.201Z</time>
</trkpt>
<trkpt lat="-27.0678837" lon="152.9358410">
<ele>24.901</ele>
<time>2017-06-10T23:12:58.159Z</time>
</trkpt>
<trkpt lat="-27.0677705" lon="152.9351011">
<ele>24.834</ele>
<time>2017-06-10T23:13:01.117Z</time>
</trkpt>
<trkpt lat="-27.0677084" lon="152.9345943">
<ele>24.785</ele>
<time>2017-06-10T23:13:03.121Z</time>
</trkpt>
<trkpt lat="-27.0676279" lon="152.9340793">
<ele>24.782</ele>
<time>2017-06-10T23:13:05.139Z</time>
</trkpt>
<trkpt lat="-27.0675433" lon="152.9333331">
<ele>24.881</ele>
<time>2017-06-10T23:13:08.067Z</time>
</trkpt>
<trkpt lat="-27.0674995" lon="152.9328396">
<ele>25.141</ele>
<time>2017-06-10T23:13:10.033Z</time>
</trkpt>
<trkpt lat="-27.0673975" lon="152.9320975">
<ele>25.504</ele>
<time>2017-06-10T23:13:13.019Z</time>
</trkpt>
<trkpt lat="-27.0673193" lon="152.9313447">
<ele>25.854</ele>
<time>2017-06-10T23:13:16.014Z</time>
</trkpt>
<trkpt lat="-27.0672476" lon="152.9308475">
<ele>26.180</ele>
<time>2017-06-10T23:13:17.995Z</time>
</trkpt>
<trkpt lat="-27.0671147" lon="152.9300880">
<ele>26.549</ele>
<time>2017-06-10T23:13:21.020Z</time>
</trkpt>
<trkpt lat="-27.0670305" lon="152.9293193">
<ele>27.012</ele>
<time>2017-06-10T23:13:24.012Z</time>
</trkpt>
<trkpt lat="-27.0669331" lon="152.9285512">
<ele>27.620</ele>
<time>2017-06-10T23:13:26.985Z</time>
</trkpt>
<trkpt lat="-27.0668321" lon="152.9280384">
<ele>28.319</ele>
<time>2017-06-10T23:13:28.984Z</time>
</trkpt>
<trkpt lat="-27.0667338" lon="152.9272647">
<ele>28.885</ele>
<time>2017-06-10T23:13:31.957Z</time>
</trkpt>
<trkpt lat="-27.0666268" lon="152.9264894">
<ele>29.128</ele>
<time>2017-06-10T23:13:34.943Z</time>
</trkpt>
<trkpt lat="-27.0664894" lon="152.9257129">
<ele>29.026</ele>
<time>2017-06-10T23:13:37.933Z</time>
</trkpt>
<trkpt lat="-27.0663604" lon="152.9249181">
<ele>28.696</ele>
<time>2017-06-10T23:13:40.940Z</time>
</trkpt>
<trkpt lat="-27.0662930" lon="152.9243812">
<ele>28.350</ele>
<time>2017-06-10T23:13:42.939Z</time>
</trkpt>
<trkpt lat="-27.0661949" lon="152.9238491">
<ele>28.216</ele>
<time>2017-06-10T23:13:44.936Z</time>
</trkpt>
<trkpt lat="-27.0661199" lon="152.9233168">
<ele>28.398</ele>
<time>2017-06-10T23:13:46.921Z</time>
</trkpt>
<trkpt lat="-27.0660118" lon="152.9225224">
<ele>28.829</ele>
<time>2017-06-10T23:13:49.900Z</time>
</trkpt>
<trkpt lat="-27.0659164" lon="152.9220047">
<ele>29.400</ele>
<time>2017-06-10T23:13:51.872Z</time>
</trkpt>
<trkpt lat="-27.0658070" lon="152.9214940">
<ele>30.040</ele>
<time>2017-06-10T23:13:53.843Z</time>
</trkpt>
<trkpt lat="-27.0657778" lon="152.9207060">
<ele>30.682</ele>
<time>2017-06-10T23:13:56.827Z</time>
</trkpt>
<trkpt lat="-27.0656608" lon="152.9201996">
<ele>31.211</ele>
<time>2017-06-10T23:13:58.828Z</time>
</trkpt>
<trkpt lat="-27.0655800" lon="152.9194378">
<ele>31.511</ele>
<time>2017-06-10T23:14:01.787Z</time>
</trkpt>
<trkpt lat="-27.0654791" lon="152.9186853">
<ele>31.493</ele>
<time>2017-06-10T23:14:04.738Z</time>
</trkpt>
<trkpt lat="-27.0653451" lon="152.9179383">
<ele>31.164</ele>
<time>2017-06-10T23:14:07.709Z</time>
</trkpt>
<trkpt lat="-27.0651885" lon="152.9174512">
<ele>30.705</ele>
<time>2017-06-10T23:14:09.715Z</time>
</trkpt>
<trkpt lat="-27.0649201" lon="152.9167268">
<ele>30.355</ele>
<time>2017-06-10T23:14:12.717Z</time>
</trkpt>
<trkpt lat="-27.0647517" lon="152.9162457">
<ele>30.220</ele>
<time>2017-06-10T23:14:14.684Z</time>
</trkpt>
<trkpt lat="-27.0644178" lon="152.9155988">
<ele>30.269</ele>
<time>2017-06-10T23:14:17.580Z</time>
</trkpt>
<trkpt lat="-27.0641994" lon="152.9151699">
<ele>30.402</ele>
<time>2017-06-10T23:14:19.531Z</time>
</trkpt>
<trkpt lat="-27.0639826" lon="152.9147300">
<ele>30.555</ele>
<time>2017-06-10T23:14:21.525Z</time>
</trkpt>
<trkpt lat="-27.0636444" lon="152.9141265">
<ele>30.737</ele>
<time>2017-06-10T23:14:24.410Z</time>
</trkpt>
<trkpt lat="-27.0633649" lon="152.9135569">
<ele>30.930</ele>
<time>2017-06-10T23:14:27.198Z</time>
</trkpt>
<trkpt lat="-27.0630537" lon="152.9130282">
<ele>31.009</ele>
<time>2017-06-10T23:14:30.076Z</time>
</trkpt>
<trkpt lat="-27.0628949" lon="152.9126581">
<ele>30.861</ele>
<time>2017-06-10T23:14:32.002Z</time>
</trkpt>
<trkpt lat="-27.0627266" lon="152.9123095">
<ele>30.526</ele>
<time>2017-06-10T23:14:33.908Z</time>
</trkpt>
<trkpt lat="-27.0624485" lon="152.9118109">
<ele>30.136</ele>
<time>2017-06-10T23:14:36.816Z</time>
</trkpt>
<trkpt lat="-27.0622644" lon="152.9114812">
<ele>29.807</ele>
<time>2017-06-10T23:14:38.770Z</time>
</trkpt>
<trkpt lat="-27.0620830" lon="152.9111726">
<ele>29.580</ele>
<time>2017-06-10T23:14:40.667Z</time>
</trkpt>
<trkpt lat="-27.0618449" lon="152.9107495">
<ele>29.388</ele>
<time>2017-06-10T23:14:43.378Z</time>
</trkpt>
<trkpt lat="-27.0616920" lon="152.9104571">
<ele>29.160</ele>
<time>2017-06-10T23:14:45.292Z</time>
</trkpt>
<trkpt lat="-27.0614589" lon="152.9100040">
<ele>28.935</ele>
<time>2017-06-10T23:14:48.339Z</time>
</trkpt>
<trkpt lat="-27.0612969" lon="152.9097276">
<ele>28.792</ele>
<time>2017-06-10T23:14:50.250Z</time>
</trkpt>
<trkpt lat="-27.0610906" lon="152.9093044">
<ele>28.740</ele>
<time>2017-06-10T23:14:53.080Z</time>
</trkpt>
<trkpt lat="-27.0609220" lon="152.9088227">
<ele>28.736</ele>
<time>2017-06-10T23:14:56.151Z</time>
</trkpt>
<trkpt lat="-27.0607979" lon="152.9085053">
<ele>28.783</ele>
<time>2017-06-10T23:14:58.181Z</time>
</trkpt>
<trkpt lat="-27.0606748" lon="152.9080322">
<ele>28.884</ele>
<time>2017-06-10T23:15:01.010Z</time>
</trkpt>
<trkpt lat="-27.0606145" lon="152.9077277">
<ele>28.969</ele>
<time>2017-06-10T23:15:02.827Z</time>
</trkpt>
<trkpt lat="-27.0605473" lon="152.9074414">
<ele>28.968</ele>
<time>2017-06-10T23:15:04.629Z</time>
</trkpt>
<trkpt lat="-27.0604462" lon="152.9071462">
<ele>28.905</ele>
<time>2017-06-10T23:15:06.629Z</time>
</trkpt>
<trkpt lat="-27.0602674" lon="152.9066531">
<ele>28.915</ele>
<time>2017-06-10T23:15:09.991Z</time>
</trkpt>
<trkpt lat="-27.0601444" lon="152.9063042">
<ele>29.186</ele>
<time>2017-06-10T23:15:12.215Z</time>
</trkpt>
<trkpt lat="-27.0599941" lon="152.9059457">
<ele>29.735</ele>
<time>2017-06-10T23:15:14.368Z</time>
</trkpt>
<trkpt lat="-27.0597658" lon="152.9054131">
<ele>30.364</ele>
<time>2017-06-10T23:15:17.387Z</time>
</trkpt>
<trkpt lat="-27.0595177" lon="152.9048951">
<ele>30.924</ele>
<time>2017-06-10T23:15:20.333Z</time>
</trkpt>
<trkpt lat="-27.0593324" lon="152.9045411">
<ele>31.419</ele>
<time>2017-06-10T23:15:22.392Z</time>
</trkpt>
<trkpt lat="-27.0591058" lon="152.9042075">
<ele>31.876</ele>
<time>2017-06-10T23:15:24.476Z</time>
</trkpt>
<trkpt lat="-27.0588612" lon="152.9038888">
<ele>32.274</ele>
<time>2017-06-10T23:15:26.511Z</time>
</trkpt>
<trkpt lat="-27.0585096" lon="152.9033824">
<ele>32.629</ele>
<time>2017-06-10T23:15:29.532Z</time>
</trkpt>
<trkpt lat="-27.0582122" lon="152.9030560">
<ele>33.081</ele>
<time>2017-06-10T23:15:31.678Z</time>
</trkpt>
<trkpt lat="-27.0578897" lon="152.9027228">
<ele>33.754</ele>
<time>2017-06-10T23:15:33.842Z</time>
</trkpt>
<trkpt lat="-27.0575634" lon="152.9024061">
<ele>34.608</ele>
<time>2017-06-10T23:15:35.884Z</time>
</trkpt>
<trkpt lat="-27.0570972" lon="152.9019923">
<ele>35.409</ele>
<time>2017-06-10T23:15:38.707Z</time>
</trkpt>
<trkpt lat="-27.0568034" lon="152.9017512">
<ele>35.896</ele>
<time>2017-06-10T23:15:40.497Z</time>
</trkpt>
<trkpt lat="-27.0564221" lon="152.9013636">
<ele>35.980</ele>
<time>2017-06-10T23:15:43.242Z</time>
</trkpt>
<trkpt lat="-27.0562072" lon="152.9011164">
<ele>35.654</ele>
<time>2017-06-10T23:15:44.944Z</time>
</trkpt>
<trkpt lat="-27.0558798" lon="152.9007759">
<ele>34.958</ele>
<time>2017-06-10T23:15:47.642Z</time>
</trkpt>
<trkpt lat="-27.0555264" lon="152.9004413">
<ele>34.150</ele>
<time>2017-06-10T23:15:50.606Z</time>
</trkpt>
<trkpt lat="-27.0552859" lon="152.9002178">
<ele>33.567</ele>
<time>2017-06-10T23:15:52.650Z</time>
</trkpt>
<trkpt lat="-27.0549344" lon="152.8998255">
<ele>33.333</ele>
<time>2017-06-10T23:15:55.816Z</time>
</trkpt>
<trkpt lat="-27.0545603" lon="152.8994359">
<ele>33.367</ele>
<time>2017-06-10T23:15:58.936Z</time>
</trkpt>
<trkpt lat="-27.0542420" lon="152.8989791">
<ele>33.512</ele>
<time>2017-06-10T23:16:01.984Z</time>
</trkpt>
<trkpt lat="-27.0538283" lon="152.8986206">
<ele>33.579</ele>
<time>2017-06-10T23:16:05.048Z</time>
</trkpt>
<trkpt lat="-27.0535675" lon="152.8983733">
<ele>33.403</ele>
<time>2017-06-10T23:16:07.046Z</time>
</trkpt>
<trkpt lat="-27.0533378" lon="152.8981033">
<ele>32.963</ele>
<time>2017-06-10T23:16:08.981Z</time>
</trkpt>
<trkpt lat="-27.0529480" lon="152.8977593">
<ele>32.387</ele>
<time>2017-06-10T23:16:11.927Z</time>
</trkpt>
<trkpt lat="-27.0525233" lon="152.8973731">
<ele>31.812</ele>
<time>2017-06-10T23:16:15.171Z</time>
</trkpt>
<trkpt lat="-27.0522607" lon="152.8970950">
<ele>31.332</ele>
<time>2017-06-10T23:16:17.237Z</time>
</trkpt>
<trkpt lat="-27.0520210" lon="152.8967982">
<ele>31.025</ele>
<time>2017-06-10T23:16:19.178Z</time>
</trkpt>
<trkpt lat="-27.0517001" lon="152.8963165">
<ele>30.920</ele>
<time>2017-06-10T23:16:22.120Z</time>
</trkpt>
<trkpt lat="-27.0514025" lon="152.8958167">
<ele>31.098</ele>
<time>2017-06-10T23:16:25.094Z</time>
</trkpt>
<trkpt lat="-27.0511770" lon="152.8953126">
<ele>31.715</ele>
<time>2017-06-10T23:16:27.927Z</time>
</trkpt>
<trkpt lat="-27.0510157" lon="152.8948599">
<ele>32.674</ele>
<time>2017-06-10T23:16:30.486Z</time>
</trkpt>
<trkpt lat="-27.0508759" lon="152.8944118">
<ele>33.541</ele>
<time>2017-06-10T23:16:33.190Z</time>
</trkpt>
<trkpt lat="-27.0507958" lon="152.8941179">
<ele>33.956</ele>
<time>2017-06-10T23:16:35.050Z</time>
</trkpt>
<trkpt lat="-27.0507442" lon="152.8937235">
<ele>33.870</ele>
<time>2017-06-10T23:16:37.497Z</time>
</trkpt>
<trkpt lat="-27.0507042" lon="152.8934873">
<ele>33.378</ele>
<time>2017-06-10T23:16:39.068Z</time>
</trkpt>
<trkpt lat="-27.0506585" lon="152.8931311">
<ele>32.645</ele>
<time>2017-06-10T23:16:41.543Z</time>
</trkpt>
<trkpt lat="-27.0506100" lon="152.8927543">
<ele>31.933</ele>
<time>2017-06-10T23:16:44.523Z</time>
</trkpt>
<trkpt lat="-27.0505802" lon="152.8925010">
<ele>31.470</ele>
<time>2017-06-10T23:16:46.587Z</time>
</trkpt>
<trkpt lat="-27.0504821" lon="152.8920897">
<ele>31.346</ele>
<time>2017-06-10T23:16:49.971Z</time>
</trkpt>
<trkpt lat="-27.0504526" lon="152.8917869">
<ele>31.604</ele>
<time>2017-06-10T23:16:52.257Z</time>
</trkpt>
<trkpt lat="-27.0504190" lon="152.8914890">
<ele>32.147</ele>
<time>2017-06-10T23:16:54.424Z</time>
</trkpt>
<trkpt lat="-27.0503201" lon="152.8910118">
<ele>32.720</ele>
<time>2017-06-10T23:16:57.700Z</time>
</trkpt>
<trkpt lat="-27.0502248" lon="152.8905887">
<ele>33.205</ele>
<time>2017-06-10T23:17:00.546Z</time>
</trkpt>
<trkpt lat="-27.0501302" lon="152.8903057">
<ele>33.697</ele>
<time>2017-06-10T23:17:02.497Z</time>
</trkpt>
<trkpt lat="-27.0500617" lon="152.8899975">
<ele>34.218</ele>
<time>2017-06-10T23:17:04.534Z</time>
</trkpt>
<trkpt lat="-27.0499039" lon="152.8896898">
<ele>34.664</ele>
<time>2017-06-10T23:17:06.774Z</time>
</trkpt>
<trkpt lat="-27.0496647" lon="152.8892236">
<ele>34.980</ele>
<time>2017-06-10T23:17:10.088Z</time>
</trkpt>
<trkpt lat="-27.0494528" lon="152.8887252">
<ele>35.174</ele>
<time>2017-06-10T23:17:13.271Z</time>
</trkpt>
<trkpt lat="-27.0492043" lon="152.8882774">
<ele>35.255</ele>
<time>2017-06-10T23:17:16.202Z</time>
</trkpt>
<trkpt lat="-27.0490796" lon="152.8879555">
<ele>35.216</ele>
<time>2017-06-10T23:17:18.160Z</time>
</trkpt>
<trkpt lat="-27.0488388" lon="152.8875137">
<ele>35.058</ele>
<time>2017-06-10T23:17:21.068Z</time>
</trkpt>
<trkpt lat="-27.0486616" lon="152.8870766">
<ele>34.751</ele>
<time>2017-06-10T23:17:23.806Z</time>
</trkpt>
<trkpt lat="-27.0484964" lon="152.8867984">
<ele>34.313</ele>
<time>2017-06-10T23:17:25.789Z</time>
</trkpt>
<trkpt lat="-27.0482932" lon="152.8863464">
<ele>33.905</ele>
<time>2017-06-10T23:17:28.852Z</time>
</trkpt>
<trkpt lat="-27.0481524" lon="152.8860609">
<ele>33.667</ele>
<time>2017-06-10T23:17:30.804Z</time>
</trkpt>
<trkpt lat="-27.0479160" lon="152.8856538">
<ele>33.590</ele>
<time>2017-06-10T23:17:33.696Z</time>
</trkpt>
<trkpt lat="-27.0477312" lon="152.8853890">
<ele>33.659</ele>
<time>2017-06-10T23:17:35.737Z</time>
</trkpt>
<trkpt lat="-27.0475773" lon="152.8850942">
<ele>33.902</ele>
<time>2017-06-10T23:17:37.820Z</time>
</trkpt>
<trkpt lat="-27.0473341" lon="152.8846786">
<ele>34.316</ele>
<time>2017-06-10T23:17:40.814Z</time>
</trkpt>
<trkpt lat="-27.0470666" lon="152.8842693">
<ele>34.879</ele>
<time>2017-06-10T23:17:43.828Z</time>
</trkpt>
<trkpt lat="-27.0467896" lon="152.8838219">
<ele>35.671</ele>
<time>2017-06-10T23:17:47.067Z</time>
</trkpt>
<trkpt lat="-27.0465905" lon="152.8835458">
<ele>36.870</ele>
<time>2017-06-10T23:17:49.094Z</time>
</trkpt>
<trkpt lat="-27.0463405" lon="152.8831929">
<ele>38.366</ele>
<time>2017-06-10T23:17:51.604Z</time>
</trkpt>
<trkpt lat="-27.0461742" lon="152.8828612">
<ele>39.661</ele>
<time>2017-06-10T23:17:53.881Z</time>
</trkpt>
<trkpt lat="-27.0460239" lon="152.8824918">
<ele>40.427</ele>
<time>2017-06-10T23:17:56.610Z</time>
</trkpt>
<trkpt lat="-27.0458972" lon="152.8822289">
<ele>40.786</ele>
<time>2017-06-10T23:17:58.786Z</time>
</trkpt>
<trkpt lat="-27.0458626" lon="152.8819230">
<ele>40.984</ele>
<time>2017-06-10T23:18:01.054Z</time>
</trkpt>
<trkpt lat="-27.0458409" lon="152.8814582">
<ele>41.176</ele>
<time>2017-06-10T23:18:04.268Z</time>
</trkpt>
<trkpt lat="-27.0458475" lon="152.8809847">
<ele>41.515</ele>
<time>2017-06-10T23:18:07.424Z</time>
</trkpt>
<trkpt lat="-27.0458505" lon="152.8804811">
<ele>42.100</ele>
<time>2017-06-10T23:18:10.672Z</time>
</trkpt>
<trkpt lat="-27.0458534" lon="152.8799469">
<ele>42.793</ele>
<time>2017-06-10T23:18:13.948Z</time>
</trkpt>
<trkpt lat="-27.0458113" lon="152.8793712">
<ele>43.375</ele>
<time>2017-06-10T23:18:17.275Z</time>
</trkpt>
<trkpt lat="-27.0458269" lon="152.8787770">
<ele>43.856</ele>
<time>2017-06-10T23:18:20.492Z</time>
</trkpt>
<trkpt lat="-27.0457837" lon="152.8783860">
<ele>44.380</ele>
<time>2017-06-10T23:18:22.542Z</time>
</trkpt>
<trkpt lat="-27.0457458" lon="152.8778332">
<ele>44.949</ele>
<time>2017-06-10T23:18:25.407Z</time>
</trkpt>
<trkpt lat="-27.0457693" lon="152.8774826">
<ele>45.472</ele>
<time>2017-06-10T23:18:27.257Z</time>
</trkpt>
<trkpt lat="-27.0457432" lon="152.8769792">
<ele>45.913</ele>
<time>2017-06-10T23:18:30.004Z</time>
</trkpt>
<trkpt lat="-27.0456858" lon="152.8764504">
<ele>46.309</ele>
<time>2017-06-10T23:18:33.053Z</time>
</trkpt>
<trkpt lat="-27.0456578" lon="152.8760229">
<ele>46.733</ele>
<time>2017-06-10T23:18:35.509Z</time>
</trkpt>
<trkpt lat="-27.0456281" lon="152.8756885">
<ele>47.195</ele>
<time>2017-06-10T23:18:37.391Z</time>
</trkpt>
<trkpt lat="-27.0455776" lon="152.8753663">
<ele>47.592</ele>
<time>2017-06-10T23:18:39.194Z</time>
</trkpt>
<trkpt lat="-27.0455153" lon="152.8748781">
<ele>47.783</ele>
<time>2017-06-10T23:18:41.944Z</time>
</trkpt>
<trkpt lat="-27.0454281" lon="152.8743932">
<ele>47.605</ele>
<time>2017-06-10T23:18:44.830Z</time>
</trkpt>
<trkpt lat="-27.0454197" lon="152.8739268">
<ele>46.971</ele>
<time>2017-06-10T23:18:47.638Z</time>
</trkpt>
<trkpt lat="-27.0453324" lon="152.8734791">
<ele>46.066</ele>
<time>2017-06-10T23:18:50.478Z</time>
</trkpt>
<trkpt lat="-27.0452660" lon="152.8730298">
<ele>45.290</ele>
<time>2017-06-10T23:18:53.361Z</time>
</trkpt>
<trkpt lat="-27.0452434" lon="152.8725870">
<ele>44.876</ele>
<time>2017-06-10T23:18:56.241Z</time>
</trkpt>
<trkpt lat="-27.0451646" lon="152.8721564">
<ele>44.866</ele>
<time>2017-06-10T23:18:59.163Z</time>
</trkpt>
<trkpt lat="-27.0450950" lon="152.8718819">
<ele>45.302</ele>
<time>2017-06-10T23:19:01.072Z</time>
</trkpt>
<trkpt lat="-27.0449593" lon="152.8714349">
<ele>46.163</ele>
<time>2017-06-10T23:19:04.238Z</time>
</trkpt>
<trkpt lat="-27.0447535" lon="152.8710029">
<ele>47.338</ele>
<time>2017-06-10T23:19:07.473Z</time>
</trkpt>
<trkpt lat="-27.0446092" lon="152.8707269">
<ele>48.638</ele>
<time>2017-06-10T23:19:09.510Z</time>
</trkpt>
<trkpt lat="-27.0444627" lon="152.8704400">
<ele>49.698</ele>
<time>2017-06-10T23:19:11.584Z</time>
</trkpt>
<trkpt lat="-27.0442407" lon="152.8699612">
<ele>50.220</ele>
<time>2017-06-10T23:19:14.892Z</time>
</trkpt>
<trkpt lat="-27.0440552" lon="152.8696699">
<ele>50.184</ele>
<time>2017-06-10T23:19:16.956Z</time>
</trkpt>
<trkpt lat="-27.0437596" lon="152.8692256">
<ele>49.707</ele>
<time>2017-06-10T23:19:20.069Z</time>
</trkpt>
<trkpt lat="-27.0433484" lon="152.8689106">
<ele>48.884</ele>
<time>2017-06-10T23:19:23.142Z</time>
</trkpt>
<trkpt lat="-27.0430295" lon="152.8687662">
<ele>47.817</ele>
<time>2017-06-10T23:19:25.250Z</time>
</trkpt>
<trkpt lat="-27.0427094" lon="152.8686242">
<ele>46.754</ele>
<time>2017-06-10T23:19:27.328Z</time>
</trkpt>
<trkpt lat="-27.0422153" lon="152.8685117">
<ele>45.919</ele>
<time>2017-06-10T23:19:30.301Z</time>
</trkpt>
<trkpt lat="-27.0418975" lon="152.8684847">
<ele>45.224</ele>
<time>2017-06-10T23:19:32.174Z</time>
</trkpt>
<trkpt lat="-27.0414437" lon="152.8683870">
<ele>44.602</ele>
<time>2017-06-10T23:19:34.939Z</time>
</trkpt>
<trkpt lat="-27.0410770" lon="152.8683354">
<ele>44.261</ele>
<time>2017-06-10T23:19:37.278Z</time>
</trkpt>
<trkpt lat="-27.0408686" lon="152.8682898">
<ele>44.387</ele>
<time>2017-06-10T23:19:38.711Z</time>
</trkpt>
<trkpt lat="-27.0406909" lon="152.8681693">
<ele>44.915</ele>
<time>2017-06-10T23:19:40.210Z</time>
</trkpt>
<trkpt lat="-27.0405137" lon="152.8680489">
<ele>45.648</ele>
<time>2017-06-10T23:19:41.836Z</time>
</trkpt>
<trkpt lat="-27.0403583" lon="152.8679487">
<ele>46.427</ele>
<time>2017-06-10T23:19:43.404Z</time>
</trkpt>
<trkpt lat="-27.0401606" lon="152.8677231">
<ele>47.207</ele>
<time>2017-06-10T23:19:46.151Z</time>
</trkpt>
<trkpt lat="-27.0400296" lon="152.8675554">
<ele>48.071</ele>
<time>2017-06-10T23:19:48.315Z</time>
</trkpt>
<trkpt lat="-27.0398467" lon="152.8672511">
<ele>49.064</ele>
<time>2017-06-10T23:19:51.999Z</time>
</trkpt>
<trkpt lat="-27.0397688" lon="152.8669899">
<ele>50.131</ele>
<time>2017-06-10T23:19:54.570Z</time>
</trkpt>
<trkpt lat="-27.0397485" lon="152.8667202">
<ele>51.183</ele>
<time>2017-06-10T23:19:56.947Z</time>
</trkpt>
<trkpt lat="-27.0396978" lon="152.8662767">
<ele>52.120</ele>
<time>2017-06-10T23:20:00.462Z</time>
</trkpt>
<trkpt lat="-27.0396915" lon="152.8658705">
<ele>52.940</ele>
<time>2017-06-10T23:20:03.594Z</time>
</trkpt>
<trkpt lat="-27.0396907" lon="152.8655455">
<ele>53.665</ele>
<time>2017-06-10T23:20:06.114Z</time>
</trkpt>
<trkpt lat="-27.0397114" lon="152.8652258">
<ele>54.169</ele>
<time>2017-06-10T23:20:08.682Z</time>
</trkpt>
<trkpt lat="-27.0396976" lon="152.8649062">
<ele>54.352</ele>
<time>2017-06-10T23:20:11.432Z</time>
</trkpt>
<trkpt lat="-27.0397265" lon="152.8646901">
<ele>54.258</ele>
<time>2017-06-10T23:20:13.432Z</time>
</trkpt>
<trkpt lat="-27.0397051" lon="152.8644743">
<ele>54.022</ele>
<time>2017-06-10T23:20:15.512Z</time>
</trkpt>
<trkpt lat="-27.0397207" lon="152.8641601">
<ele>53.782</ele>
<time>2017-06-10T23:20:18.531Z</time>
</trkpt>
<trkpt lat="-27.0397318" lon="152.8638073">
<ele>53.607</ele>
<time>2017-06-10T23:20:21.840Z</time>
</trkpt>
<trkpt lat="-27.0397715" lon="152.8635670">
<ele>53.531</ele>
<time>2017-06-10T23:20:24.061Z</time>
</trkpt>
<trkpt lat="-27.0398212" lon="152.8631980">
<ele>53.597</ele>
<time>2017-06-10T23:20:27.322Z</time>
</trkpt>
<trkpt lat="-27.0398523" lon="152.8629494">
<ele>53.952</ele>
<time>2017-06-10T23:20:29.420Z</time>
</trkpt>
<trkpt lat="-27.0398666" lon="152.8627254">
<ele>54.692</ele>
<time>2017-06-10T23:20:31.274Z</time>
</trkpt>
<trkpt lat="-27.0398772" lon="152.8625595">
<ele>55.602</ele>
<time>2017-06-10T23:20:32.620Z</time>
</trkpt>
<trkpt lat="-27.0399439" lon="152.8623614">
<ele>56.381</ele>
<time>2017-06-10T23:20:34.373Z</time>
</trkpt>
<trkpt lat="-27.0399980" lon="152.8621143">
<ele>57.007</ele>
<time>2017-06-10T23:20:36.720Z</time>
</trkpt>
<trkpt lat="-27.0400441" lon="152.8618287">
<ele>57.657</ele>
<time>2017-06-10T23:20:40.169Z</time>
</trkpt>
<trkpt lat="-27.0400433" lon="152.8615176">
<ele>58.432</ele>
<time>2017-06-10T23:20:43.930Z</time>
</trkpt>
<trkpt lat="-27.0401033" lon="152.8613147">
<ele>59.289</ele>
<time>2017-06-10T23:20:46.260Z</time>
</trkpt>
<trkpt lat="-27.0401003" lon="152.8610982">
<ele>60.130</ele>
<time>2017-06-10T23:20:48.461Z</time>
</trkpt>
<trkpt lat="-27.0401403" lon="152.8608124">
<ele>60.856</ele>
<time>2017-06-10T23:20:51.268Z</time>
</trkpt>
<trkpt lat="-27.0400932" lon="152.8606442">
<ele>61.496</ele>
<time>2017-06-10T23:20:52.923Z</time>
</trkpt>
<trkpt lat="-27.0400902" lon="152.8605054">
<ele>62.113</ele>
<time>2017-06-10T23:20:54.291Z</time>
</trkpt>
<trkpt lat="-27.0401805" lon="152.8604205">
<ele>62.653</ele>
<time>2017-06-10T23:20:55.596Z</time>
</trkpt>
<trkpt lat="-27.0404272" lon="152.8603853">
<ele>63.104</ele>
<time>2017-06-10T23:20:58.601Z</time>
</trkpt>
<trkpt lat="-27.0405977" lon="152.8603432">
<ele>63.644</ele>
<time>2017-06-10T23:21:01.163Z</time>
</trkpt>
<trkpt lat="-27.0407881" lon="152.8602664">
<ele>64.360</ele>
<time>2017-06-10T23:21:04.235Z</time>
</trkpt>
<trkpt lat="-27.0411452" lon="152.8601722">
<ele>65.082</ele>
<time>2017-06-10T23:21:08.629Z</time>
</trkpt>
<trkpt lat="-27.0415317" lon="152.8599499">
<ele>65.590</ele>
<time>2017-06-10T23:21:12.558Z</time>
</trkpt>
<trkpt lat="-27.0417504" lon="152.8597556">
<ele>65.769</ele>
<time>2017-06-10T23:21:14.694Z</time>
</trkpt>
<trkpt lat="-27.0420265" lon="152.8594782">
<ele>65.509</ele>
<time>2017-06-10T23:21:17.313Z</time>
</trkpt>
<trkpt lat="-27.0422255" lon="152.8591966">
<ele>64.751</ele>
<time>2017-06-10T23:21:19.440Z</time>
</trkpt>
<trkpt lat="-27.0425790" lon="152.8588084">
<ele>63.548</ele>
<time>2017-06-10T23:21:22.530Z</time>
</trkpt>
<trkpt lat="-27.0428150" lon="152.8585497">
<ele>61.850</ele>
<time>2017-06-10T23:21:24.546Z</time>
</trkpt>
<trkpt lat="-27.0432515" lon="152.8582739">
<ele>59.549</ele>
<time>2017-06-10T23:21:27.532Z</time>
</trkpt>
<trkpt lat="-27.0435437" lon="152.8581714">
<ele>57.210</ele>
<time>2017-06-10T23:21:29.339Z</time>
</trkpt>
<trkpt lat="-27.0438394" lon="152.8579866">
<ele>56.005</ele>
<time>2017-06-10T23:21:31.310Z</time>
</trkpt>
<trkpt lat="-27.0442489" lon="152.8578393">
<ele>56.266</ele>
<time>2017-06-10T23:21:33.756Z</time>
</trkpt>
<trkpt lat="-27.0447995" lon="152.8576090">
<ele>57.109</ele>
<time>2017-06-10T23:21:36.988Z</time>
</trkpt>
<trkpt lat="-27.0451258" lon="152.8575039">
<ele>57.274</ele>
<time>2017-06-10T23:21:38.836Z</time>
</trkpt>
<trkpt lat="-27.0456357" lon="152.8573619">
<ele>55.988</ele>
<time>2017-06-10T23:21:41.761Z</time>
</trkpt>
<trkpt lat="-27.0459594" lon="152.8572660">
<ele>53.666</ele>
<time>2017-06-10T23:21:43.670Z</time>
</trkpt>
<trkpt lat="-27.0464584" lon="152.8572430">
<ele>51.530</ele>
<time>2017-06-10T23:21:46.605Z</time>
</trkpt>
<trkpt lat="-27.0467899" lon="152.8572260">
<ele>50.214</ele>
<time>2017-06-10T23:21:48.578Z</time>
</trkpt>
<trkpt lat="-27.0471245" lon="152.8572248">
<ele>49.605</ele>
<time>2017-06-10T23:21:50.584Z</time>
</trkpt>
<trkpt lat="-27.0476439" lon="152.8574164">
<ele>49.454</ele>
<time>2017-06-10T23:21:53.803Z</time>
</trkpt>
<trkpt lat="-27.0481426" lon="152.8575751">
<ele>49.751</ele>
<time>2017-06-10T23:21:56.795Z</time>
</trkpt>
<trkpt lat="-27.0484797" lon="152.8576324">
<ele>50.676</ele>
<time>2017-06-10T23:21:58.755Z</time>
</trkpt>
<trkpt lat="-27.0489767" lon="152.8576734">
<ele>52.189</ele>
<time>2017-06-10T23:22:01.660Z</time>
</trkpt>
<trkpt lat="-27.0492793" lon="152.8575359">
<ele>53.931</ele>
<time>2017-06-10T23:22:03.598Z</time>
</trkpt>
<trkpt lat="-27.0497438" lon="152.8574612">
<ele>55.525</ele>
<time>2017-06-10T23:22:06.493Z</time>
</trkpt>
<trkpt lat="-27.0501879" lon="152.8573741">
<ele>56.754</ele>
<time>2017-06-10T23:22:09.360Z</time>
</trkpt>
<trkpt lat="-27.0504255" lon="152.8571877">
<ele>57.599</ele>
<time>2017-06-10T23:22:11.249Z</time>
</trkpt>
<trkpt lat="-27.0506105" lon="152.8569136">
<ele>58.177</ele>
<time>2017-06-10T23:22:13.324Z</time>
</trkpt>
<trkpt lat="-27.0508652" lon="152.8564967">
<ele>58.627</ele>
<time>2017-06-10T23:22:16.353Z</time>
</trkpt>
<trkpt lat="-27.0510951" lon="152.8560490">
<ele>59.145</ele>
<time>2017-06-10T23:22:19.391Z</time>
</trkpt>
<trkpt lat="-27.0512493" lon="152.8557782">
<ele>59.833</ele>
<time>2017-06-10T23:22:21.275Z</time>
</trkpt>
<trkpt lat="-27.0514388" lon="152.8554188">
<ele>60.558</ele>
<time>2017-06-10T23:22:23.862Z</time>
</trkpt>
<trkpt lat="-27.0516086" lon="152.8550629">
<ele>61.230</ele>
<time>2017-06-10T23:22:26.566Z</time>
</trkpt>
<trkpt lat="-27.0517495" lon="152.8548213">
<ele>62.146</ele>
<time>2017-06-10T23:22:28.611Z</time>
</trkpt>
<trkpt lat="-27.0518307" lon="152.8543761">
<ele>63.543</ele>
<time>2017-06-10T23:22:31.794Z</time>
</trkpt>
<trkpt lat="-27.0518215" lon="152.8540730">
<ele>65.291</ele>
<time>2017-06-10T23:22:33.856Z</time>
</trkpt>
<trkpt lat="-27.0518141" lon="152.8537573">
<ele>67.130</ele>
<time>2017-06-10T23:22:35.943Z</time>
</trkpt>
<trkpt lat="-27.0517142" lon="152.8532958">
<ele>68.779</ele>
<time>2017-06-10T23:22:39.009Z</time>
</trkpt>
<trkpt lat="-27.0517540" lon="152.8529684">
<ele>70.040</ele>
<time>2017-06-10T23:22:41.106Z</time>
</trkpt>
<trkpt lat="-27.0519166" lon="152.8524847">
<ele>70.849</ele>
<time>2017-06-10T23:22:44.305Z</time>
</trkpt>
<trkpt lat="-27.0521206" lon="152.8520448">
<ele>71.176</ele>
<time>2017-06-10T23:22:47.303Z</time>
</trkpt>
<trkpt lat="-27.0522822" lon="152.8517571">
<ele>71.007</ele>
<time>2017-06-10T23:22:49.335Z</time>
</trkpt>
<trkpt lat="-27.0524510" lon="152.8514676">
<ele>70.395</ele>
<time>2017-06-10T23:22:51.391Z</time>
</trkpt>
<trkpt lat="-27.0526022" lon="152.8509771">
<ele>69.566</ele>
<time>2017-06-10T23:22:54.456Z</time>
</trkpt>
<trkpt lat="-27.0526308" lon="152.8506280">
<ele>68.775</ele>
<time>2017-06-10T23:22:56.512Z</time>
</trkpt>
<trkpt lat="-27.0526719" lon="152.8500868">
<ele>68.133</ele>
<time>2017-06-10T23:22:59.624Z</time>
</trkpt>
<trkpt lat="-27.0527232" lon="152.8497241">
<ele>67.637</ele>
<time>2017-06-10T23:23:01.686Z</time>
</trkpt>
<trkpt lat="-27.0527967" lon="152.8491658">
<ele>67.220</ele>
<time>2017-06-10T23:23:04.791Z</time>
</trkpt>
<trkpt lat="-27.0528183" lon="152.8488059">
<ele>66.823</ele>
<time>2017-06-10T23:23:06.762Z</time>
</trkpt>
<trkpt lat="-27.0528889" lon="152.8484195">
<ele>66.483</ele>
<time>2017-06-10T23:23:08.891Z</time>
</trkpt>
<trkpt lat="-27.0529594" lon="152.8478739">
<ele>66.280</ele>
<time>2017-06-10T23:23:11.840Z</time>
</trkpt>
<trkpt lat="-27.0529791" lon="152.8475154">
<ele>66.231</ele>
<time>2017-06-10T23:23:13.767Z</time>
</trkpt>
<trkpt lat="-27.0530777" lon="152.8469386">
<ele>66.317</ele>
<time>2017-06-10T23:23:16.881Z</time>
</trkpt>
<trkpt lat="-27.0531022" lon="152.8465272">
<ele>66.597</ele>
<time>2017-06-10T23:23:18.981Z</time>
</trkpt>
<trkpt lat="-27.0532004" lon="152.8461326">
<ele>67.080</ele>
<time>2017-06-10T23:23:20.974Z</time>
</trkpt>
<trkpt lat="-27.0533529" lon="152.8457503">
<ele>67.654</ele>
<time>2017-06-10T23:23:22.986Z</time>
</trkpt>
<trkpt lat="-27.0535816" lon="152.8451891">
<ele>68.224</ele>
<time>2017-06-10T23:23:25.957Z</time>
</trkpt>
<trkpt lat="-27.0537915" lon="152.8446228">
<ele>68.781</ele>
<time>2017-06-10T23:23:28.923Z</time>
</trkpt>
<trkpt lat="-27.0539192" lon="152.8442346">
<ele>69.326</ele>
<time>2017-06-10T23:23:30.927Z</time>
</trkpt>
<trkpt lat="-27.0540823" lon="152.8438593">
<ele>69.799</ele>
<time>2017-06-10T23:23:32.942Z</time>
</trkpt>
<trkpt lat="-27.0542179" lon="152.8434321">
<ele>70.104</ele>
<time>2017-06-10T23:23:35.108Z</time>
</trkpt>
<trkpt lat="-27.0544001" lon="152.8430368">
<ele>70.170</ele>
<time>2017-06-10T23:23:37.193Z</time>
</trkpt>
<trkpt lat="-27.0546714" lon="152.8424376">
<ele>70.045</ele>
<time>2017-06-10T23:23:40.245Z</time>
</trkpt>
<trkpt lat="-27.0548183" lon="152.8419877">
<ele>69.929</ele>
<time>2017-06-10T23:23:42.363Z</time>
</trkpt>
<trkpt lat="-27.0550069" lon="152.8415604">
<ele>70.120</ele>
<time>2017-06-10T23:23:44.412Z</time>
</trkpt>
<trkpt lat="-27.0552298" lon="152.8409365">
<ele>70.828</ele>
<time>2017-06-10T23:23:47.328Z</time>
</trkpt>
<trkpt lat="-27.0553897" lon="152.8405403">
<ele>72.070</ele>
<time>2017-06-10T23:23:49.265Z</time>
</trkpt>
<trkpt lat="-27.0555472" lon="152.8401534">
<ele>73.550</ele>
<time>2017-06-10T23:23:51.203Z</time>
</trkpt>
<trkpt lat="-27.0557001" lon="152.8397716">
<ele>74.733</ele>
<time>2017-06-10T23:23:53.143Z</time>
</trkpt>
<trkpt lat="-27.0558641" lon="152.8392099">
<ele>75.278</ele>
<time>2017-06-10T23:23:55.971Z</time>
</trkpt>
<trkpt lat="-27.0558733" lon="152.8386191">
<ele>75.107</ele>
<time>2017-06-10T23:23:58.912Z</time>
</trkpt>
<trkpt lat="-27.0557232" lon="152.8380648">
<ele>74.091</ele>
<time>2017-06-10T23:24:01.877Z</time>
</trkpt>
<trkpt lat="-27.0555889" lon="152.8374820">
<ele>72.284</ele>
<time>2017-06-10T23:24:04.962Z</time>
</trkpt>
<trkpt lat="-27.0555640" lon="152.8368805">
<ele>70.369</ele>
<time>2017-06-10T23:24:08.003Z</time>
</trkpt>
<trkpt lat="-27.0556549" lon="152.8364900">
<ele>69.514</ele>
<time>2017-06-10T23:24:10.039Z</time>
</trkpt>
<trkpt lat="-27.0559087" lon="152.8359571">
<ele>70.067</ele>
<time>2017-06-10T23:24:13.106Z</time>
</trkpt>
<trkpt lat="-27.0560561" lon="152.8356208">
<ele>69.849</ele>
<time>2017-06-10T23:24:15.018Z</time>
</trkpt>
<trkpt lat="-27.0562024" lon="152.8352895">
<ele>66.681</ele>
<time>2017-06-10T23:24:16.941Z</time>
</trkpt>
<trkpt lat="-27.0564508" lon="152.8348236">
<ele>62.079</ele>
<time>2017-06-10T23:24:19.855Z</time>
</trkpt>
<trkpt lat="-27.0566324" lon="152.8345192">
<ele>59.141</ele>
<time>2017-06-10T23:24:21.847Z</time>
</trkpt>
<trkpt lat="-27.0569228" lon="152.8341298">
<ele>58.981</ele>
<time>2017-06-10T23:24:24.710Z</time>
</trkpt>
<trkpt lat="-27.0570902" lon="152.8337507">
<ele>61.286</ele>
<time>2017-06-10T23:24:27.275Z</time>
</trkpt>
<trkpt lat="-27.0572032" lon="152.8334891">
<ele>65.421</ele>
<time>2017-06-10T23:24:29.148Z</time>
</trkpt>
<trkpt lat="-27.0574037" lon="152.8331656">
<ele>70.375</ele>
<time>2017-06-10T23:24:31.895Z</time>
</trkpt>
<trkpt lat="-27.0577558" lon="152.8329844">
<ele>75.057</ele>
<time>2017-06-10T23:24:35.007Z</time>
</trkpt>
<trkpt lat="-27.0580739" lon="152.8327696">
<ele>78.839</ele>
<time>2017-06-10T23:24:37.979Z</time>
</trkpt>
<trkpt lat="-27.0581935" lon="152.8325114">
<ele>81.457</ele>
<time>2017-06-10T23:24:40.047Z</time>
</trkpt>
<trkpt lat="-27.0582493" lon="152.8321721">
<ele>82.869</ele>
<time>2017-06-10T23:24:42.512Z</time>
</trkpt>
<trkpt lat="-27.0583529" lon="152.8318059">
<ele>83.342</ele>
<time>2017-06-10T23:24:44.944Z</time>
</trkpt>
<trkpt lat="-27.0584998" lon="152.8314269">
<ele>83.182</ele>
<time>2017-06-10T23:24:47.214Z</time>
</trkpt>
<trkpt lat="-27.0586311" lon="152.8310559">
<ele>82.626</ele>
<time>2017-06-10T23:24:49.271Z</time>
</trkpt>
<trkpt lat="-27.0588415" lon="152.8305765">
<ele>82.002</ele>
<time>2017-06-10T23:24:52.082Z</time>
</trkpt>
<trkpt lat="-27.0590605" lon="152.8303724">
<ele>81.782</ele>
<time>2017-06-10T23:24:53.853Z</time>
</trkpt>
<trkpt lat="-27.0594738" lon="152.8301566">
<ele>82.420</ele>
<time>2017-06-10T23:24:56.885Z</time>
</trkpt>
<trkpt lat="-27.0596700" lon="152.8299625">
<ele>84.489</ele>
<time>2017-06-10T23:24:58.673Z</time>
</trkpt>
<trkpt lat="-27.0598244" lon="152.8297207">
<ele>88.094</ele>
<time>2017-06-10T23:25:00.561Z</time>
</trkpt>
<trkpt lat="-27.0600678" lon="152.8293559">
<ele>92.471</ele>
<time>2017-06-10T23:25:03.598Z</time>
</trkpt>
<trkpt lat="-27.0602020" lon="152.8291856">
<ele>97.251</ele>
<time>2017-06-10T23:25:05.129Z</time>
</trkpt>
<trkpt lat="-27.0603217" lon="152.8290714">
<ele>102.503</ele>
<time>2017-06-10T23:25:06.395Z</time>
</trkpt>
<trkpt lat="-27.0605869" lon="152.8292113">
<ele>107.595</ele>
<time>2017-06-10T23:25:09.220Z</time>
</trkpt>
<trkpt lat="-27.0608245" lon="152.8293430">
<ele>112.086</ele>
<time>2017-06-10T23:25:12.165Z</time>
</trkpt>
<trkpt lat="-27.0611660" lon="152.8295337">
<ele>116.189</ele>
<time>2017-06-10T23:25:15.543Z</time>
</trkpt>
<trkpt lat="-27.0613746" lon="152.8296148">
<ele>120.035</ele>
<time>2017-06-10T23:25:17.381Z</time>
</trkpt>
<trkpt lat="-27.0615654" lon="152.8296493">
<ele>123.453</ele>
<time>2017-06-10T23:25:19.047Z</time>
</trkpt>
<trkpt lat="-27.0617194" lon="152.8294764">
<ele>126.181</ele>
<time>2017-06-10T23:25:21.171Z</time>
</trkpt>
<trkpt lat="-27.0617670" lon="152.8291823">
<ele>128.404</ele>
<time>2017-06-10T23:25:24.173Z</time>
</trkpt>
<trkpt lat="-27.0617085" lon="152.8289757">
<ele>130.799</ele>
<time>2017-06-10T23:25:26.510Z</time>
</trkpt>
<trkpt lat="-27.0616104" lon="152.8285932">
<ele>133.604</ele>
<time>2017-06-10T23:25:30.397Z</time>
</trkpt>
<trkpt lat="-27.0616114" lon="152.8281732">
<ele>136.839</ele>
<time>2017-06-10T23:25:33.933Z</time>
</trkpt>
<trkpt lat="-27.0616116" lon="152.8278887">
<ele>141.092</ele>
<time>2017-06-10T23:25:36.304Z</time>
</trkpt>
<trkpt lat="-27.0617532" lon="152.8277212">
<ele>146.762</ele>
<time>2017-06-10T23:25:38.344Z</time>
</trkpt>
<trkpt lat="-27.0618462" lon="152.8275195">
<ele>152.869</ele>
<time>2017-06-10T23:25:40.517Z</time>
</trkpt>
<trkpt lat="-27.0618395" lon="152.8271647">
<ele>157.943</ele>
<time>2017-06-10T23:25:43.716Z</time>
</trkpt>
<trkpt lat="-27.0620131" lon="152.8268945">
<ele>161.645</ele>
<time>2017-06-10T23:25:46.809Z</time>
</trkpt>
<trkpt lat="-27.0621808" lon="152.8267813">
<ele>164.588</ele>
<time>2017-06-10T23:25:48.960Z</time>
</trkpt>
<trkpt lat="-27.0623619" lon="152.8266244">
<ele>167.134</ele>
<time>2017-06-10T23:25:51.695Z</time>
</trkpt>
<trkpt lat="-27.0623605" lon="152.8262986">
<ele>169.444</ele>
<time>2017-06-10T23:25:55.152Z</time>
</trkpt>
<trkpt lat="-27.0623294" lon="152.8260093">
<ele>171.938</ele>
<time>2017-06-10T23:25:57.752Z</time>
</trkpt>
<trkpt lat="-27.0623245" lon="152.8254466">
<ele>174.701</ele>
<time>2017-06-10T23:26:01.659Z</time>
</trkpt>
<trkpt lat="-27.0622973" lon="152.8251726">
<ele>177.550</ele>
<time>2017-06-10T23:26:03.615Z</time>
</trkpt>
<trkpt lat="-27.0623995" lon="152.8249506">
<ele>180.539</ele>
<time>2017-06-10T23:26:05.773Z</time>
</trkpt>
<trkpt lat="-27.0625471" lon="152.8248725">
<ele>183.840</ele>
<time>2017-06-10T23:26:07.836Z</time>
</trkpt>
<trkpt lat="-27.0626294" lon="152.8247363">
<ele>187.401</ele>
<time>2017-06-10T23:26:09.820Z</time>
</trkpt>
<trkpt lat="-27.0625908" lon="152.8244800">
<ele>190.663</ele>
<time>2017-06-10T23:26:13.026Z</time>
</trkpt>
<trkpt lat="-27.0626973" lon="152.8242024">
<ele>193.280</ele>
<time>2017-06-10T23:26:16.486Z</time>
</trkpt>
<trkpt lat="-27.0630046" lon="152.8240234">
<ele>195.850</ele>
<time>2017-06-10T23:26:19.922Z</time>
</trkpt>
<trkpt lat="-27.0633941" lon="152.8239490">
<ele>199.030</ele>
<time>2017-06-10T23:26:22.958Z</time>
</trkpt>
<trkpt lat="-27.0638545" lon="152.8239017">
<ele>202.901</ele>
<time>2017-06-10T23:26:26.077Z</time>
</trkpt>
<trkpt lat="-27.0641619" lon="152.8238648">
<ele>207.268</ele>
<time>2017-06-10T23:26:28.197Z</time>
</trkpt>
<trkpt lat="-27.0643927" lon="152.8237809">
<ele>211.650</ele>
<time>2017-06-10T23:26:30.027Z</time>
</trkpt>
<trkpt lat="-27.0647499" lon="152.8239298">
<ele>215.455</ele>
<time>2017-06-10T23:26:33.164Z</time>
</trkpt>
<trkpt lat="-27.0649767" lon="152.8241020">
<ele>218.634</ele>
<time>2017-06-10T23:26:35.679Z</time>
</trkpt>
<trkpt lat="-27.0652779" lon="152.8240834">
<ele>221.524</ele>
<time>2017-06-10T23:26:38.613Z</time>
</trkpt>
<trkpt lat="-27.0654600" lon="152.8241253">
<ele>224.383</ele>
<time>2017-06-10T23:26:40.671Z</time>
</trkpt>
<trkpt lat="-27.0656690" lon="152.8240545">
<ele>227.280</ele>
<time>2017-06-10T23:26:43.133Z</time>
</trkpt>
<trkpt lat="-27.0657848" lon="152.8238084">
<ele>230.023</ele>
<time>2017-06-10T23:26:45.423Z</time>
</trkpt>
<trkpt lat="-27.0659267" lon="152.8233558">
<ele>232.291</ele>
<time>2017-06-10T23:26:48.768Z</time>
</trkpt>
<trkpt lat="-27.0660863" lon="152.8231605">
<ele>234.143</ele>
<time>2017-06-10T23:26:50.789Z</time>
</trkpt>
<trkpt lat="-27.0662566" lon="152.8230688">
<ele>235.869</ele>
<time>2017-06-10T23:26:52.689Z</time>
</trkpt>
<trkpt lat="-27.0664581" lon="152.8230491">
<ele>237.625</ele>
<time>2017-06-10T23:26:54.738Z</time>
</trkpt>
<trkpt lat="-27.0667530" lon="152.8231456">
<ele>239.462</ele>
<time>2017-06-10T23:26:58.028Z</time>
</trkpt>
<trkpt lat="-27.0669997" lon="152.8231601">
<ele>241.684</ele>
<time>2017-06-10T23:27:01.692Z</time>
</trkpt>
<trkpt lat="-27.0670917" lon="152.8231607">
<ele>244.403</ele>
<time>2017-06-10T23:27:04.278Z</time>
</trkpt>
<trkpt lat="-27.0671841" lon="152.8231283">
<ele>247.070</ele>
<time>2017-06-10T23:27:06.998Z</time>
</trkpt>
<trkpt lat="-27.0671841" lon="152.8231283">
<ele>248.887</ele>
<time>2017-06-10T23:27:08.998Z</time>
</trkpt>
<trkpt lat="-27.0671841" lon="152.8231283">
<ele>249.529</ele>
<time>2017-06-10T23:27:22.377Z</time>
</trkpt>
<trkpt lat="-27.0672574" lon="152.8228680">
<ele>249.314</ele>
<time>2017-06-10T23:27:30.075Z</time>
</trkpt>
<trkpt lat="-27.0672567" lon="152.8226999">
<ele>249.168</ele>
<time>2017-06-10T23:27:31.989Z</time>
</trkpt>
<trkpt lat="-27.0672577" lon="152.8225079">
<ele>249.668</ele>
<time>2017-06-10T23:27:33.722Z</time>
</trkpt>
<trkpt lat="-27.0673447" lon="152.8221667">
<ele>250.195</ele>
<time>2017-06-10T23:27:36.803Z</time>
</trkpt>
<trkpt lat="-27.0674233" lon="152.8218376">
<ele>249.736</ele>
<time>2017-06-10T23:27:39.840Z</time>
</trkpt>
<trkpt lat="-27.0675989" lon="152.8216230">
<ele>248.066</ele>
<time>2017-06-10T23:27:42.555Z</time>
</trkpt>
<trkpt lat="-27.0677635" lon="152.8213571">
<ele>245.771</ele>
<time>2017-06-10T23:27:45.222Z</time>
</trkpt>
<trkpt lat="-27.0679818" lon="152.8210323">
<ele>243.679</ele>
<time>2017-06-10T23:27:48.266Z</time>
</trkpt>
<trkpt lat="-27.0681237" lon="152.8206769">
<ele>242.109</ele>
<time>2017-06-10T23:27:51.226Z</time>
</trkpt>
<trkpt lat="-27.0682676" lon="152.8203489">
<ele>240.750</ele>
<time>2017-06-10T23:27:54.370Z</time>
</trkpt>
<trkpt lat="-27.0683030" lon="152.8200329">
<ele>239.176</ele>
<time>2017-06-10T23:27:57.431Z</time>
</trkpt>
<trkpt lat="-27.0681836" lon="152.8197418">
<ele>237.071</ele>
<time>2017-06-10T23:28:00.631Z</time>
</trkpt>
<trkpt lat="-27.0680970" lon="152.8195882">
<ele>234.242</ele>
<time>2017-06-10T23:28:02.350Z</time>
</trkpt>
<trkpt lat="-27.0677973" lon="152.8194584">
<ele>230.978</ele>
<time>2017-06-10T23:28:05.016Z</time>
</trkpt>
<trkpt lat="-27.0673415" lon="152.8193218">
<ele>227.757</ele>
<time>2017-06-10T23:28:08.199Z</time>
</trkpt>
<trkpt lat="-27.0670418" lon="152.8191636">
<ele>224.756</ele>
<time>2017-06-10T23:28:10.295Z</time>
</trkpt>
<trkpt lat="-27.0667670" lon="152.8190302">
<ele>222.099</ele>
<time>2017-06-10T23:28:12.324Z</time>
</trkpt>
<trkpt lat="-27.0665918" lon="152.8188049">
<ele>220.119</ele>
<time>2017-06-10T23:28:14.209Z</time>
</trkpt>
<trkpt lat="-27.0665085" lon="152.8183012">
<ele>219.065</ele>
<time>2017-06-10T23:28:17.351Z</time>
</trkpt>
<trkpt lat="-27.0663968" lon="152.8178031">
<ele>219.233</ele>
<time>2017-06-10T23:28:20.346Z</time>
</trkpt>
<trkpt lat="-27.0663017" lon="152.8174543">
<ele>221.063</ele>
<time>2017-06-10T23:28:22.593Z</time>
</trkpt>
<trkpt lat="-27.0662329" lon="152.8170391">
<ele>225.068</ele>
<time>2017-06-10T23:28:25.615Z</time>
</trkpt>
<trkpt lat="-27.0661735" lon="152.8167773">
<ele>231.232</ele>
<time>2017-06-10T23:28:27.774Z</time>
</trkpt>
<trkpt lat="-27.0660977" lon="152.8165803">
<ele>237.670</ele>
<time>2017-06-10T23:28:29.500Z</time>
</trkpt>
<trkpt lat="-27.0659970" lon="152.8163654">
<ele>241.852</ele>
<time>2017-06-10T23:28:31.349Z</time>
</trkpt>
<trkpt lat="-27.0658104" lon="152.8160041">
<ele>243.380</ele>
<time>2017-06-10T23:28:34.672Z</time>
</trkpt>
<trkpt lat="-27.0657558" lon="152.8156962">
<ele>244.165</ele>
<time>2017-06-10T23:28:37.478Z</time>
</trkpt>
<trkpt lat="-27.0658085" lon="152.8154758">
<ele>245.800</ele>
<time>2017-06-10T23:28:39.705Z</time>
</trkpt>
<trkpt lat="-27.0658651" lon="152.8152898">
<ele>248.064</ele>
<time>2017-06-10T23:28:41.731Z</time>
</trkpt>
<trkpt lat="-27.0660676" lon="152.8150873">
<ele>250.105</ele>
<time>2017-06-10T23:28:44.929Z</time>
</trkpt>
<trkpt lat="-27.0663199" lon="152.8149958">
<ele>251.818</ele>
<time>2017-06-10T23:28:48.222Z</time>
</trkpt>
<trkpt lat="-27.0664377" lon="152.8148432">
<ele>253.290</ele>
<time>2017-06-10T23:28:50.425Z</time>
</trkpt>
<trkpt lat="-27.0664785" lon="152.8145519">
<ele>254.514</ele>
<time>2017-06-10T23:28:53.420Z</time>
</trkpt>
<trkpt lat="-27.0665174" lon="152.8142270">
<ele>255.354</ele>
<time>2017-06-10T23:28:56.500Z</time>
</trkpt>
<trkpt lat="-27.0666845" lon="152.8139412">
<ele>255.758</ele>
<time>2017-06-10T23:28:59.657Z</time>
</trkpt>
<trkpt lat="-27.0667760" lon="152.8137197">
<ele>255.852</ele>
<time>2017-06-10T23:29:02.026Z</time>
</trkpt>
<trkpt lat="-27.0667527" lon="152.8134236">
<ele>255.824</ele>
<time>2017-06-10T23:29:04.977Z</time>
</trkpt>
<trkpt lat="-27.0667086" lon="152.8131403">
<ele>255.691</ele>
<time>2017-06-10T23:29:07.632Z</time>
</trkpt>
<trkpt lat="-27.0669237" lon="152.8128805">
<ele>255.229</ele>
<time>2017-06-10T23:29:10.508Z</time>
</trkpt>
<trkpt lat="-27.0671216" lon="152.8127523">
<ele>254.337</ele>
<time>2017-06-10T23:29:12.485Z</time>
</trkpt>
<trkpt lat="-27.0673182" lon="152.8125910">
<ele>253.246</ele>
<time>2017-06-10T23:29:14.553Z</time>
</trkpt>
<trkpt lat="-27.0675856" lon="152.8122883">
<ele>252.126</ele>
<time>2017-06-10T23:29:17.654Z</time>
</trkpt>
<trkpt lat="-27.0678273" lon="152.8119719">
<ele>250.739</ele>
<time>2017-06-10T23:29:20.499Z</time>
</trkpt>
<trkpt lat="-27.0681157" lon="152.8116298">
<ele>248.652</ele>
<time>2017-06-10T23:29:23.370Z</time>
</trkpt>
<trkpt lat="-27.0684947" lon="152.8113228">
<ele>246.207</ele>
<time>2017-06-10T23:29:26.102Z</time>
</trkpt>
<trkpt lat="-27.0687807" lon="152.8110921">
<ele>245.113</ele>
<time>2017-06-10T23:29:27.918Z</time>
</trkpt>
<trkpt lat="-27.0691051" lon="152.8108573">
<ele>246.930</ele>
<time>2017-06-10T23:29:29.893Z</time>
</trkpt>
<trkpt lat="-27.0694766" lon="152.8106498">
<ele>250.962</ele>
<time>2017-06-10T23:29:32.162Z</time>
</trkpt>
<trkpt lat="-27.0699284" lon="152.8104487">
<ele>254.815</ele>
<time>2017-06-10T23:29:35.653Z</time>
</trkpt>
<trkpt lat="-27.0702660" lon="152.8103103">
<ele>256.905</ele>
<time>2017-06-10T23:29:39.045Z</time>
</trkpt>
<trkpt lat="-27.0705610" lon="152.8101973">
<ele>257.688</ele>
<time>2017-06-10T23:29:42.626Z</time>
</trkpt>
<trkpt lat="-27.0707837" lon="152.8103336">
<ele>258.579</ele>
<time>2017-06-10T23:29:45.954Z</time>
</trkpt>
<trkpt lat="-27.0709067" lon="152.8104708">
<ele>260.433</ele>
<time>2017-06-10T23:29:48.159Z</time>
</trkpt>
<trkpt lat="-27.0710396" lon="152.8105244">
<ele>263.069</ele>
<time>2017-06-10T23:29:49.827Z</time>
</trkpt>
<trkpt lat="-27.0711774" lon="152.8104578">
<ele>265.851</ele>
<time>2017-06-10T23:29:51.283Z</time>
</trkpt>
<trkpt lat="-27.0713343" lon="152.8101879">
<ele>268.372</ele>
<time>2017-06-10T23:29:53.949Z</time>
</trkpt>
<trkpt lat="-27.0715492" lon="152.8098484">
<ele>270.475</ele>
<time>2017-06-10T23:29:57.426Z</time>
</trkpt>
<trkpt lat="-27.0716912" lon="152.8096835">
<ele>271.897</ele>
<time>2017-06-10T23:29:59.343Z</time>
</trkpt>
<trkpt lat="-27.0718023" lon="152.8093180">
<ele>272.242</ele>
<time>2017-06-10T23:30:02.283Z</time>
</trkpt>
<trkpt lat="-27.0718110" lon="152.8090671">
<ele>271.603</ele>
<time>2017-06-10T23:30:04.070Z</time>
</trkpt>
<trkpt lat="-27.0719162" lon="152.8086631">
<ele>270.802</ele>
<time>2017-06-10T23:30:06.903Z</time>
</trkpt>
<trkpt lat="-27.0719894" lon="152.8083938">
<ele>270.839</ele>
<time>2017-06-10T23:30:08.751Z</time>
</trkpt>
<trkpt lat="-27.0721948" lon="152.8079937">
<ele>272.227</ele>
<time>2017-06-10T23:30:11.746Z</time>
</trkpt>
<trkpt lat="-27.0723130" lon="152.8077385">
<ele>274.981</ele>
<time>2017-06-10T23:30:13.617Z</time>
</trkpt>
<trkpt lat="-27.0726167" lon="152.8074711">
<ele>278.568</ele>
<time>2017-06-10T23:30:16.423Z</time>
</trkpt>
<trkpt lat="-27.0728512" lon="152.8073213">
<ele>282.473</ele>
<time>2017-06-10T23:30:18.441Z</time>
</trkpt>
<trkpt lat="-27.0731158" lon="152.8072389">
<ele>286.625</ele>
<time>2017-06-10T23:30:20.527Z</time>
</trkpt>
<trkpt lat="-27.0734895" lon="152.8072074">
<ele>291.023</ele>
<time>2017-06-10T23:30:23.371Z</time>
</trkpt>
<trkpt lat="-27.0738615" lon="152.8073701">
<ele>295.644</ele>
<time>2017-06-10T23:30:26.292Z</time>
</trkpt>
<trkpt lat="-27.0741221" lon="152.8074900">
<ele>300.555</ele>
<time>2017-06-10T23:30:28.454Z</time>
</trkpt>
<trkpt lat="-27.0744603" lon="152.8076981">
<ele>305.189</ele>
<time>2017-06-10T23:30:31.899Z</time>
</trkpt>
<trkpt lat="-27.0747704" lon="152.8078458">
<ele>308.859</ele>
<time>2017-06-10T23:30:35.640Z</time>
</trkpt>
<trkpt lat="-27.0749562" lon="152.8078646">
<ele>311.613</ele>
<time>2017-06-10T23:30:37.486Z</time>
</trkpt>
<trkpt lat="-27.0750585" lon="152.8076835">
<ele>313.860</ele>
<time>2017-06-10T23:30:39.096Z</time>
</trkpt>
<trkpt lat="-27.0751586" lon="152.8074086">
<ele>316.005</ele>
<time>2017-06-10T23:30:41.205Z</time>
</trkpt>
<trkpt lat="-27.0753790" lon="152.8070547">
<ele>318.443</ele>
<time>2017-06-10T23:30:44.145Z</time>
</trkpt>
<trkpt lat="-27.0755315" lon="152.8068383">
<ele>321.632</ele>
<time>2017-06-10T23:30:45.984Z</time>
</trkpt>
<trkpt lat="-27.0757680" lon="152.8066727">
<ele>325.630</ele>
<time>2017-06-10T23:30:48.098Z</time>
</trkpt>
<trkpt lat="-27.0761559" lon="152.8064644">
<ele>329.815</ele>
<time>2017-06-10T23:30:51.483Z</time>
</trkpt>
<trkpt lat="-27.0764833" lon="152.8062596">
<ele>333.922</ele>
<time>2017-06-10T23:30:54.847Z</time>
</trkpt>
<trkpt lat="-27.0766804" lon="152.8061351">
<ele>338.438</ele>
<time>2017-06-10T23:30:57.042Z</time>
</trkpt>
<trkpt lat="-27.0769037" lon="152.8059446">
<ele>343.213</ele>
<time>2017-06-10T23:30:59.642Z</time>
</trkpt>
<trkpt lat="-27.0770237" lon="152.8057609">
<ele>347.051</ele>
<time>2017-06-10T23:31:01.466Z</time>
</trkpt>
<trkpt lat="-27.0772366" lon="152.8054648">
<ele>348.995</ele>
<time>2017-06-10T23:31:04.443Z</time>
</trkpt>
<trkpt lat="-27.0773643" lon="152.8052641">
<ele>349.321</ele>
<time>2017-06-10T23:31:06.301Z</time>
</trkpt>
<trkpt lat="-27.0774416" lon="152.8050885">
<ele>348.858</ele>
<time>2017-06-10T23:31:07.691Z</time>
</trkpt>
<trkpt lat="-27.0775377" lon="152.8048121">
<ele>348.067</ele>
<time>2017-06-10T23:31:09.768Z</time>
</trkpt>
<trkpt lat="-27.0775397" lon="152.8043172">
<ele>347.045</ele>
<time>2017-06-10T23:31:13.171Z</time>
</trkpt>
<trkpt lat="-27.0775657" lon="152.8040255">
<ele>345.872</ele>
<time>2017-06-10T23:31:15.026Z</time>
</trkpt>
<trkpt lat="-27.0776356" lon="152.8037616">
<ele>344.743</ele>
<time>2017-06-10T23:31:16.693Z</time>
</trkpt>
<trkpt lat="-27.0778916" lon="152.8033142">
<ele>343.953</ele>
<time>2017-06-10T23:31:19.733Z</time>
</trkpt>
<trkpt lat="-27.0781908" lon="152.8029052">
<ele>343.669</ele>
<time>2017-06-10T23:31:22.818Z</time>
</trkpt>
<trkpt lat="-27.0783145" lon="152.8025879">
<ele>343.842</ele>
<time>2017-06-10T23:31:25.028Z</time>
</trkpt>
<trkpt lat="-27.0784301" lon="152.8022850">
<ele>344.467</ele>
<time>2017-06-10T23:31:27.224Z</time>
</trkpt>
<trkpt lat="-27.0785027" lon="152.8018628">
<ele>345.614</ele>
<time>2017-06-10T23:31:30.162Z</time>
</trkpt>
<trkpt lat="-27.0785117" lon="152.8014192">
<ele>347.209</ele>
<time>2017-06-10T23:31:33.271Z</time>
</trkpt>
<trkpt lat="-27.0784745" lon="152.8011362">
<ele>348.840</ele>
<time>2017-06-10T23:31:35.300Z</time>
</trkpt>
<trkpt lat="-27.0784002" lon="152.8007159">
<ele>349.964</ele>
<time>2017-06-10T23:31:38.204Z</time>
</trkpt>
<trkpt lat="-27.0784295" lon="152.8003060">
<ele>350.399</ele>
<time>2017-06-10T23:31:40.704Z</time>
</trkpt>
<trkpt lat="-27.0786337" lon="152.8000321">
<ele>350.497</ele>
<time>2017-06-10T23:31:42.857Z</time>
</trkpt>
<trkpt lat="-27.0788505" lon="152.7995776">
<ele>350.895</ele>
<time>2017-06-10T23:31:46.235Z</time>
</trkpt>
<trkpt lat="-27.0789604" lon="152.7993205">
<ele>352.308</ele>
<time>2017-06-10T23:31:48.204Z</time>
</trkpt>
<trkpt lat="-27.0789861" lon="152.7989570">
<ele>354.850</ele>
<time>2017-06-10T23:31:50.656Z</time>
</trkpt>
<trkpt lat="-27.0788939" lon="152.7986834">
<ele>357.848</ele>
<time>2017-06-10T23:31:52.495Z</time>
</trkpt>
<trkpt lat="-27.0787385" lon="152.7984247">
<ele>360.480</ele>
<time>2017-06-10T23:31:54.369Z</time>
</trkpt>
<trkpt lat="-27.0786279" lon="152.7980644">
<ele>362.209</ele>
<time>2017-06-10T23:31:56.595Z</time>
</trkpt>
<trkpt lat="-27.0785907" lon="152.7977193">
<ele>362.933</ele>
<time>2017-06-10T23:31:58.589Z</time>
</trkpt>
<trkpt lat="-27.0783818" lon="152.7972503">
<ele>363.005</ele>
<time>2017-06-10T23:32:01.531Z</time>
</trkpt>
<trkpt lat="-27.0782012" lon="152.7969105">
<ele>362.763</ele>
<time>2017-06-10T23:32:03.911Z</time>
</trkpt>
<trkpt lat="-27.0779669" lon="152.7964502">
<ele>362.421</ele>
<time>2017-06-10T23:32:08.015Z</time>
</trkpt>
<trkpt lat="-27.0778923" lon="152.7962592">
<ele>362.205</ele>
<time>2017-06-10T23:32:09.677Z</time>
</trkpt>
<trkpt lat="-27.0776518" lon="152.7959938">
<ele>362.312</ele>
<time>2017-06-10T23:32:12.496Z</time>
</trkpt>
<trkpt lat="-27.0774454" lon="152.7958067">
<ele>362.769</ele>
<time>2017-06-10T23:32:14.628Z</time>
</trkpt>
<trkpt lat="-27.0773184" lon="152.7955840">
<ele>363.360</ele>
<time>2017-06-10T23:32:16.418Z</time>
</trkpt>
<trkpt lat="-27.0771802" lon="152.7952117">
<ele>363.633</ele>
<time>2017-06-10T23:32:19.081Z</time>
</trkpt>
<trkpt lat="-27.0770710" lon="152.7947718">
<ele>363.117</ele>
<time>2017-06-10T23:32:22.008Z</time>
</trkpt>
<trkpt lat="-27.0770307" lon="152.7944786">
<ele>361.767</ele>
<time>2017-06-10T23:32:23.831Z</time>
</trkpt>
<trkpt lat="-27.0771231" lon="152.7939804">
<ele>360.115</ele>
<time>2017-06-10T23:32:26.678Z</time>
</trkpt>
<trkpt lat="-27.0772300" lon="152.7936528">
<ele>358.700</ele>
<time>2017-06-10T23:32:28.517Z</time>
</trkpt>
<trkpt lat="-27.0773505" lon="152.7932999">
<ele>357.728</ele>
<time>2017-06-10T23:32:30.508Z</time>
</trkpt>
<trkpt lat="-27.0776373" lon="152.7928468">
<ele>357.257</ele>
<time>2017-06-10T23:32:33.537Z</time>
</trkpt>
<trkpt lat="-27.0778792" lon="152.7926114">
<ele>357.306</ele>
<time>2017-06-10T23:32:35.552Z</time>
</trkpt>
<trkpt lat="-27.0782309" lon="152.7923005">
<ele>357.921</ele>
<time>2017-06-10T23:32:38.436Z</time>
</trkpt>
<trkpt lat="-27.0785523" lon="152.7919631">
<ele>358.884</ele>
<time>2017-06-10T23:32:41.222Z</time>
</trkpt>
<trkpt lat="-27.0787847" lon="152.7917511">
<ele>359.455</ele>
<time>2017-06-10T23:32:43.088Z</time>
</trkpt>
<trkpt lat="-27.0791844" lon="152.7914602">
<ele>358.922</ele>
<time>2017-06-10T23:32:46.012Z</time>
</trkpt>
<trkpt lat="-27.0795026" lon="152.7914391">
<ele>356.894</ele>
<time>2017-06-10T23:32:47.978Z</time>
</trkpt>
<trkpt lat="-27.0799634" lon="152.7912854">
<ele>353.708</ele>
<time>2017-06-10T23:32:50.979Z</time>
</trkpt>
<trkpt lat="-27.0802850" lon="152.7911582">
<ele>350.724</ele>
<time>2017-06-10T23:32:53.112Z</time>
</trkpt>
<trkpt lat="-27.0806962" lon="152.7908770">
<ele>349.127</ele>
<time>2017-06-10T23:32:56.215Z</time>
</trkpt>
<trkpt lat="-27.0810561" lon="152.7905782">
<ele>349.108</ele>
<time>2017-06-10T23:32:59.497Z</time>
</trkpt>
<trkpt lat="-27.0813656" lon="152.7903912">
<ele>350.539</ele>
<time>2017-06-10T23:33:02.413Z</time>
</trkpt>
<trkpt lat="-27.0815888" lon="152.7904412">
<ele>353.171</ele>
<time>2017-06-10T23:33:04.417Z</time>
</trkpt>
<trkpt lat="-27.0818134" lon="152.7904807">
<ele>356.357</ele>
<time>2017-06-10T23:33:06.479Z</time>
</trkpt>
<trkpt lat="-27.0821055" lon="152.7904162">
<ele>359.391</ele>
<time>2017-06-10T23:33:09.202Z</time>
</trkpt>
<trkpt lat="-27.0822985" lon="152.7903051">
<ele>362.058</ele>
<time>2017-06-10T23:33:10.950Z</time>
</trkpt>
<trkpt lat="-27.0824480" lon="152.7900951">
<ele>364.384</ele>
<time>2017-06-10T23:33:12.755Z</time>
</trkpt>
<trkpt lat="-27.0825200" lon="152.7896227">
<ele>366.071</ele>
<time>2017-06-10T23:33:15.345Z</time>
</trkpt>
<trkpt lat="-27.0824612" lon="152.7889957">
<ele>366.878</ele>
<time>2017-06-10T23:33:18.282Z</time>
</trkpt>
<trkpt lat="-27.0824598" lon="152.7885522">
<ele>367.058</ele>
<time>2017-06-10T23:33:20.234Z</time>
</trkpt>
<trkpt lat="-27.0825224" lon="152.7878932">
<ele>367.217</ele>
<time>2017-06-10T23:33:23.187Z</time>
</trkpt>
<trkpt lat="-27.0825819" lon="152.7872580">
<ele>368.204</ele>
<time>2017-06-10T23:33:26.120Z</time>
</trkpt>
<trkpt lat="-27.0826015" lon="152.7868533">
<ele>370.616</ele>
<time>2017-06-10T23:33:28.054Z</time>
</trkpt>
<trkpt lat="-27.0826472" lon="152.7864559">
<ele>374.081</ele>
<time>2017-06-10T23:33:30.125Z</time>
</trkpt>
<trkpt lat="-27.0826806" lon="152.7859398">
<ele>377.789</ele>
<time>2017-06-10T23:33:33.034Z</time>
</trkpt>
<trkpt lat="-27.0826635" lon="152.7856366">
<ele>381.741</ele>
<time>2017-06-10T23:33:34.886Z</time>
</trkpt>
<trkpt lat="-27.0825702" lon="152.7851755">
<ele>386.221</ele>
<time>2017-06-10T23:33:37.738Z</time>
</trkpt>
<trkpt lat="-27.0824619" lon="152.7848662">
<ele>390.938</ele>
<time>2017-06-10T23:33:39.696Z</time>
</trkpt>
<trkpt lat="-27.0823643" lon="152.7845470">
<ele>395.369</ele>
<time>2017-06-10T23:33:41.698Z</time>
</trkpt>
<trkpt lat="-27.0821937" lon="152.7841169">
<ele>399.115</ele>
<time>2017-06-10T23:33:44.609Z</time>
</trkpt>
<trkpt lat="-27.0820963" lon="152.7838742">
<ele>402.552</ele>
<time>2017-06-10T23:33:46.452Z</time>
</trkpt>
<trkpt lat="-27.0819617" lon="152.7836732">
<ele>406.490</ele>
<time>2017-06-10T23:33:48.242Z</time>
</trkpt>
<trkpt lat="-27.0816610" lon="152.7834059">
<ele>410.757</ele>
<time>2017-06-10T23:33:51.192Z</time>
</trkpt>
<trkpt lat="-27.0813412" lon="152.7831064">
<ele>414.811</ele>
<time>2017-06-10T23:33:54.276Z</time>
</trkpt>
<trkpt lat="-27.0810916" lon="152.7828213">
<ele>418.654</ele>
<time>2017-06-10T23:33:57.158Z</time>
</trkpt>
<trkpt lat="-27.0808924" lon="152.7825700">
<ele>422.319</ele>
<time>2017-06-10T23:33:59.845Z</time>
</trkpt>
<trkpt lat="-27.0808522" lon="152.7822884">
<ele>425.636</ele>
<time>2017-06-10T23:34:02.026Z</time>
</trkpt>
<trkpt lat="-27.0807740" lon="152.7819029">
<ele>428.372</ele>
<time>2017-06-10T23:34:04.906Z</time>
</trkpt>
<trkpt lat="-27.0807030" lon="152.7816338">
<ele>430.557</ele>
<time>2017-06-10T23:34:06.932Z</time>
</trkpt>
<trkpt lat="-27.0807615" lon="152.7812379">
<ele>432.487</ele>
<time>2017-06-10T23:34:09.869Z</time>
</trkpt>
<trkpt lat="-27.0808108" lon="152.7809857">
<ele>434.425</ele>
<time>2017-06-10T23:34:11.870Z</time>
</trkpt>
<trkpt lat="-27.0806752" lon="152.7806677">
<ele>436.477</ele>
<time>2017-06-10T23:34:14.729Z</time>
</trkpt>
<trkpt lat="-27.0805450" lon="152.7803556">
<ele>438.732</ele>
<time>2017-06-10T23:34:17.626Z</time>
</trkpt>
<trkpt lat="-27.0803196" lon="152.7801378">
<ele>441.363</ele>
<time>2017-06-10T23:34:20.493Z</time>
</trkpt>
<trkpt lat="-27.0799417" lon="152.7800293">
<ele>444.489</ele>
<time>2017-06-10T23:34:24.079Z</time>
</trkpt>
<trkpt lat="-27.0796433" lon="152.7800205">
<ele>447.958</ele>
<time>2017-06-10T23:34:26.801Z</time>
</trkpt>
<trkpt lat="-27.0794619" lon="152.7799665">
<ele>451.497</ele>
<time>2017-06-10T23:34:28.724Z</time>
</trkpt>
<trkpt lat="-27.0792936" lon="152.7797825">
<ele>454.684</ele>
<time>2017-06-10T23:34:31.677Z</time>
</trkpt>
<trkpt lat="-27.0791973" lon="152.7796574">
<ele>457.197</ele>
<time>2017-06-10T23:34:34.184Z</time>
</trkpt>
<trkpt lat="-27.0791093" lon="152.7795495">
<ele>459.066</ele>
<time>2017-06-10T23:34:36.998Z</time>
</trkpt>
<trkpt lat="-27.0791093" lon="152.7795495">
<ele>460.316</ele>
<time>2017-06-10T23:34:41.998Z</time>
</trkpt>
<trkpt lat="-27.0791093" lon="152.7795495">
<ele>460.757</ele>
<time>2017-06-10T23:34:50.358Z</time>
</trkpt>
<trkpt lat="-27.0789176" lon="152.7795166">
<ele>460.494</ele>
<time>2017-06-10T23:34:58.434Z</time>
</trkpt>
<trkpt lat="-27.0787670" lon="152.7798328">
<ele>460.338</ele>
<time>2017-06-10T23:35:01.745Z</time>
</trkpt>
<trkpt lat="-27.0785258" lon="152.7802749">
<ele>460.900</ele>
<time>2017-06-10T23:35:05.025Z</time>
</trkpt>
<trkpt lat="-27.0782111" lon="152.7806660">
<ele>461.766</ele>
<time>2017-06-10T23:35:08.013Z</time>
</trkpt>
<trkpt lat="-27.0779923" lon="152.7809385">
<ele>462.170</ele>
<time>2017-06-10T23:35:10.021Z</time>
</trkpt>
<trkpt lat="-27.0776572" lon="152.7813382">
<ele>461.756</ele>
<time>2017-06-10T23:35:12.989Z</time>
</trkpt>
<trkpt lat="-27.0773928" lon="152.7815459">
<ele>460.398</ele>
<time>2017-06-10T23:35:14.882Z</time>
</trkpt>
<trkpt lat="-27.0769415" lon="152.7818296">
<ele>458.279</ele>
<time>2017-06-10T23:35:17.868Z</time>
</trkpt>
<trkpt lat="-27.0765856" lon="152.7818949">
<ele>455.814</ele>
<time>2017-06-10T23:35:19.896Z</time>
</trkpt>
<trkpt lat="-27.0762317" lon="152.7819402">
<ele>453.418</ele>
<time>2017-06-10T23:35:21.829Z</time>
</trkpt>
<trkpt lat="-27.0756698" lon="152.7819368">
<ele>451.453</ele>
<time>2017-06-10T23:35:24.800Z</time>
</trkpt>
<trkpt lat="-27.0752959" lon="152.7818679">
<ele>450.188</ele>
<time>2017-06-10T23:35:26.767Z</time>
</trkpt>
<trkpt lat="-27.0749300" lon="152.7817904">
<ele>449.607</ele>
<time>2017-06-10T23:35:28.736Z</time>
</trkpt>
<trkpt lat="-27.0745672" lon="152.7817531">
<ele>449.507</ele>
<time>2017-06-10T23:35:30.705Z</time>
</trkpt>
<trkpt lat="-27.0740235" lon="152.7817876">
<ele>449.616</ele>
<time>2017-06-10T23:35:33.623Z</time>
</trkpt>
<trkpt lat="-27.0736533" lon="152.7818670">
<ele>449.761</ele>
<time>2017-06-10T23:35:35.562Z</time>
</trkpt>
<trkpt lat="-27.0732184" lon="152.7819567">
<ele>449.918</ele>
<time>2017-06-10T23:35:37.822Z</time>
</trkpt>
<trkpt lat="-27.0726665" lon="152.7818787">
<ele>450.203</ele>
<time>2017-06-10T23:35:40.735Z</time>
</trkpt>
<trkpt lat="-27.0721772" lon="152.7816749">
<ele>450.865</ele>
<time>2017-06-10T23:35:43.595Z</time>
</trkpt>
<trkpt lat="-27.0718584" lon="152.7816396">
<ele>452.305</ele>
<time>2017-06-10T23:35:45.501Z</time>
</trkpt>
<trkpt lat="-27.0714096" lon="152.7814932">
<ele>454.598</ele>
<time>2017-06-10T23:35:48.375Z</time>
</trkpt>
<trkpt lat="-27.0710923" lon="152.7815440">
<ele>457.394</ele>
<time>2017-06-10T23:35:50.348Z</time>
</trkpt>
<trkpt lat="-27.0707373" lon="152.7816069">
<ele>460.293</ele>
<time>2017-06-10T23:35:52.490Z</time>
</trkpt>
<trkpt lat="-27.0702310" lon="152.7816400">
<ele>462.926</ele>
<time>2017-06-10T23:35:55.448Z</time>
</trkpt>
<trkpt lat="-27.0697218" lon="152.7815663">
<ele>465.117</ele>
<time>2017-06-10T23:35:58.378Z</time>
</trkpt>
<trkpt lat="-27.0692267" lon="152.7813265">
<ele>467.008</ele>
<time>2017-06-10T23:36:01.403Z</time>
</trkpt>
<trkpt lat="-27.0687102" lon="152.7812099">
<ele>468.765</ele>
<time>2017-06-10T23:36:04.328Z</time>
</trkpt>
<trkpt lat="-27.0681783" lon="152.7811063">
<ele>470.509</ele>
<time>2017-06-10T23:36:07.298Z</time>
</trkpt>
<trkpt lat="-27.0678286" lon="152.7810394">
<ele>472.249</ele>
<time>2017-06-10T23:36:09.255Z</time>
</trkpt>
<trkpt lat="-27.0674857" lon="152.7809868">
<ele>473.756</ele>
<time>2017-06-10T23:36:11.185Z</time>
</trkpt>
<trkpt lat="-27.0671364" lon="152.7809448">
<ele>474.804</ele>
<time>2017-06-10T23:36:13.130Z</time>
</trkpt>
<trkpt lat="-27.0667798" lon="152.7808706">
<ele>475.443</ele>
<time>2017-06-10T23:36:15.089Z</time>
</trkpt>
<trkpt lat="-27.0662164" lon="152.7808078">
<ele>475.859</ele>
<time>2017-06-10T23:36:18.086Z</time>
</trkpt>
<trkpt lat="-27.0656466" lon="152.7807918">
<ele>476.112</ele>
<time>2017-06-10T23:36:21.055Z</time>
</trkpt>
<trkpt lat="-27.0650716" lon="152.7808207">
<ele>475.983</ele>
<time>2017-06-10T23:36:24.027Z</time>
</trkpt>
<trkpt lat="-27.0646843" lon="152.7808693">
<ele>475.016</ele>
<time>2017-06-10T23:36:26.019Z</time>
</trkpt>
<trkpt lat="-27.0642778" lon="152.7808839">
<ele>473.082</ele>
<time>2017-06-10T23:36:28.083Z</time>
</trkpt>
<trkpt lat="-27.0638940" lon="152.7807580">
<ele>470.580</ele>
<time>2017-06-10T23:36:30.098Z</time>
</trkpt>
<trkpt lat="-27.0633677" lon="152.7804286">
<ele>467.911</ele>
<time>2017-06-10T23:36:33.107Z</time>
</trkpt>
<trkpt lat="-27.0630985" lon="152.7800863">
<ele>465.352</ele>
<time>2017-06-10T23:36:35.120Z</time>
</trkpt>
<trkpt lat="-27.0626602" lon="152.7796290">
<ele>463.381</ele>
<time>2017-06-10T23:36:38.081Z</time>
</trkpt>
<trkpt lat="-27.0623181" lon="152.7793837">
<ele>463.076</ele>
<time>2017-06-10T23:36:40.055Z</time>
</trkpt>
<trkpt lat="-27.0619915" lon="152.7790661">
<ele>464.774</ele>
<time>2017-06-10T23:36:42.088Z</time>
</trkpt>
<trkpt lat="-27.0614782" lon="152.7786119">
<ele>466.992</ele>
<time>2017-06-10T23:36:45.110Z</time>
</trkpt>
<trkpt lat="-27.0611724" lon="152.7782700">
<ele>468.026</ele>
<time>2017-06-10T23:36:47.094Z</time>
</trkpt>
<trkpt lat="-27.0607230" lon="152.7777389">
<ele>467.509</ele>
<time>2017-06-10T23:36:50.089Z</time>
</trkpt>
<trkpt lat="-27.0603722" lon="152.7771210">
<ele>465.855</ele>
<time>2017-06-10T23:36:53.093Z</time>
</trkpt>
<trkpt lat="-27.0601295" lon="152.7767377">
<ele>463.596</ele>
<time>2017-06-10T23:36:55.046Z</time>
</trkpt>
<trkpt lat="-27.0598453" lon="152.7763996">
<ele>461.266</ele>
<time>2017-06-10T23:36:56.993Z</time>
</trkpt>
<trkpt lat="-27.0594388" lon="152.7758639">
<ele>459.503</ele>
<time>2017-06-10T23:36:59.957Z</time>
</trkpt>
<trkpt lat="-27.0590423" lon="152.7753410">
<ele>458.432</ele>
<time>2017-06-10T23:37:02.889Z</time>
</trkpt>
<trkpt lat="-27.0587198" lon="152.7750668">
<ele>457.510</ele>
<time>2017-06-10T23:37:04.860Z</time>
</trkpt>
<trkpt lat="-27.0583870" lon="152.7747872">
<ele>456.333</ele>
<time>2017-06-10T23:37:06.897Z</time>
</trkpt>
<trkpt lat="-27.0577978" lon="152.7746176">
<ele>455.025</ele>
<time>2017-06-10T23:37:09.865Z</time>
</trkpt>
<trkpt lat="-27.0573990" lon="152.7744890">
<ele>453.921</ele>
<time>2017-06-10T23:37:11.843Z</time>
</trkpt>
<trkpt lat="-27.0567721" lon="152.7743207">
<ele>453.256</ele>
<time>2017-06-10T23:37:14.831Z</time>
</trkpt>
<trkpt lat="-27.0563159" lon="152.7742720">
<ele>453.018</ele>
<time>2017-06-10T23:37:16.870Z</time>
</trkpt>
<trkpt lat="-27.0556467" lon="152.7739991">
<ele>452.989</ele>
<time>2017-06-10T23:37:19.998Z</time>
</trkpt>
<trkpt lat="-27.0552366" lon="152.7738905">
<ele>452.842</ele>
<time>2017-06-10T23:37:21.880Z</time>
</trkpt>
<trkpt lat="-27.0547985" lon="152.7738350">
<ele>452.333</ele>
<time>2017-06-10T23:37:23.873Z</time>
</trkpt>
<trkpt lat="-27.0541703" lon="152.7736774">
<ele>451.533</ele>
<time>2017-06-10T23:37:26.804Z</time>
</trkpt>
<trkpt lat="-27.0537779" lon="152.7735058">
<ele>450.598</ele>
<time>2017-06-10T23:37:28.744Z</time>
</trkpt>
<trkpt lat="-27.0534037" lon="152.7733054">
<ele>449.555</ele>
<time>2017-06-10T23:37:30.649Z</time>
</trkpt>
<trkpt lat="-27.0530625" lon="152.7729840">
<ele>448.595</ele>
<time>2017-06-10T23:37:32.661Z</time>
</trkpt>
<trkpt lat="-27.0525806" lon="152.7724674">
<ele>448.018</ele>
<time>2017-06-10T23:37:35.630Z</time>
</trkpt>
<trkpt lat="-27.0520727" lon="152.7720003">
<ele>447.957</ele>
<time>2017-06-10T23:37:38.556Z</time>
</trkpt>
<trkpt lat="-27.0517591" lon="152.7716583">
<ele>448.507</ele>
<time>2017-06-10T23:37:40.527Z</time>
</trkpt>
<trkpt lat="-27.0514080" lon="152.7713951">
<ele>449.664</ele>
<time>2017-06-10T23:37:42.470Z</time>
</trkpt>
<trkpt lat="-27.0509338" lon="152.7709920">
<ele>451.119</ele>
<time>2017-06-10T23:37:45.315Z</time>
</trkpt>
<trkpt lat="-27.0505818" lon="152.7708387">
<ele>452.672</ele>
<time>2017-06-10T23:37:47.214Z</time>
</trkpt>
<trkpt lat="-27.0502098" lon="152.7707984">
<ele>454.330</ele>
<time>2017-06-10T23:37:49.138Z</time>
</trkpt>
<trkpt lat="-27.0496737" lon="152.7707964">
<ele>455.956</ele>
<time>2017-06-10T23:37:51.979Z</time>
</trkpt>
<trkpt lat="-27.0493340" lon="152.7709280">
<ele>457.273</ele>
<time>2017-06-10T23:37:53.942Z</time>
</trkpt>
<trkpt lat="-27.0489921" lon="152.7711029">
<ele>458.095</ele>
<time>2017-06-10T23:37:55.982Z</time>
</trkpt>
<trkpt lat="-27.0486415" lon="152.7712629">
<ele>458.439</ele>
<time>2017-06-10T23:37:57.999Z</time>
</trkpt>
<trkpt lat="-27.0481399" lon="152.7715413">
<ele>458.414</ele>
<time>2017-06-10T23:38:00.965Z</time>
</trkpt>
<trkpt lat="-27.0477938" lon="152.7716990">
<ele>457.960</ele>
<time>2017-06-10T23:38:02.945Z</time>
</trkpt>
<trkpt lat="-27.0474535" lon="152.7718759">
<ele>457.004</ele>
<time>2017-06-10T23:38:04.924Z</time>
</trkpt>
<trkpt lat="-27.0469777" lon="152.7721518">
<ele>455.668</ele>
<time>2017-06-10T23:38:07.819Z</time>
</trkpt>
<trkpt lat="-27.0466419" lon="152.7723634">
<ele>453.909</ele>
<time>2017-06-10T23:38:09.972Z</time>
</trkpt>
<trkpt lat="-27.0462232" lon="152.7726849">
<ele>451.500</ele>
<time>2017-06-10T23:38:13.035Z</time>
</trkpt>
<trkpt lat="-27.0460659" lon="152.7731790">
<ele>448.352</ele>
<time>2017-06-10T23:38:16.076Z</time>
</trkpt>
<trkpt lat="-27.0459546" lon="152.7736161">
<ele>444.621</ele>
<time>2017-06-10T23:38:18.856Z</time>
</trkpt>
<trkpt lat="-27.0459998" lon="152.7739733">
<ele>440.760</ele>
<time>2017-06-10T23:38:21.408Z</time>
</trkpt>
<trkpt lat="-27.0460825" lon="152.7743410">
<ele>437.201</ele>
<time>2017-06-10T23:38:24.289Z</time>
</trkpt>
<trkpt lat="-27.0460377" lon="152.7748676">
<ele>433.867</ele>
<time>2017-06-10T23:38:28.005Z</time>
</trkpt>
<trkpt lat="-27.0459973" lon="152.7751217">
<ele>430.068</ele>
<time>2017-06-10T23:38:29.743Z</time>
</trkpt>
<trkpt lat="-27.0459651" lon="152.7753712">
<ele>425.694</ele>
<time>2017-06-10T23:38:31.599Z</time>
</trkpt>
<trkpt lat="-27.0456641" lon="152.7755909">
<ele>421.405</ele>
<time>2017-06-10T23:38:34.884Z</time>
</trkpt>
<trkpt lat="-27.0456002" lon="152.7758005">
<ele>417.247</ele>
<time>2017-06-10T23:38:36.870Z</time>
</trkpt>
<trkpt lat="-27.0452955" lon="152.7758451">
<ele>413.028</ele>
<time>2017-06-10T23:38:40.067Z</time>
</trkpt>
<trkpt lat="-27.0450821" lon="152.7760889">
<ele>409.003</ele>
<time>2017-06-10T23:38:43.163Z</time>
</trkpt>
<trkpt lat="-27.0451699" lon="152.7763803">
<ele>405.169</ele>
<time>2017-06-10T23:38:45.863Z</time>
</trkpt>
<trkpt lat="-27.0451381" lon="152.7768290">
<ele>401.618</ele>
<time>2017-06-10T23:38:49.499Z</time>
</trkpt>
<trkpt lat="-27.0447392" lon="152.7769022">
<ele>398.427</ele>
<time>2017-06-10T23:38:52.488Z</time>
</trkpt>
<trkpt lat="-27.0443632" lon="152.7771753">
<ele>395.354</ele>
<time>2017-06-10T23:38:55.412Z</time>
</trkpt>
<trkpt lat="-27.0439306" lon="152.7774125">
<ele>392.234</ele>
<time>2017-06-10T23:38:58.460Z</time>
</trkpt>
<trkpt lat="-27.0436224" lon="152.7774693">
<ele>388.921</ele>
<time>2017-06-10T23:39:00.436Z</time>
</trkpt>
<trkpt lat="-27.0431580" lon="152.7776062">
<ele>385.355</ele>
<time>2017-06-10T23:39:03.436Z</time>
</trkpt>
<trkpt lat="-27.0428183" lon="152.7776113">
<ele>381.840</ele>
<time>2017-06-10T23:39:05.497Z</time>
</trkpt>
<trkpt lat="-27.0425008" lon="152.7775358">
<ele>378.976</ele>
<time>2017-06-10T23:39:07.468Z</time>
</trkpt>
<trkpt lat="-27.0421822" lon="152.7774915">
<ele>377.083</ele>
<time>2017-06-10T23:39:09.434Z</time>
</trkpt>
<trkpt lat="-27.0417061" lon="152.7774017">
<ele>375.611</ele>
<time>2017-06-10T23:39:12.404Z</time>
</trkpt>
<trkpt lat="-27.0413883" lon="152.7773883">
<ele>373.411</ele>
<time>2017-06-10T23:39:14.393Z</time>
</trkpt>
<trkpt lat="-27.0410783" lon="152.7773941">
<ele>369.980</ele>
<time>2017-06-10T23:39:16.404Z</time>
</trkpt>
<trkpt lat="-27.0407800" lon="152.7773936">
<ele>365.836</ele>
<time>2017-06-10T23:39:18.441Z</time>
</trkpt>
<trkpt lat="-27.0403412" lon="152.7772603">
<ele>361.718</ele>
<time>2017-06-10T23:39:21.691Z</time>
</trkpt>
<trkpt lat="-27.0399503" lon="152.7771984">
<ele>357.690</ele>
<time>2017-06-10T23:39:24.801Z</time>
</trkpt>
<trkpt lat="-27.0396273" lon="152.7772253">
<ele>353.517</ele>
<time>2017-06-10T23:39:27.725Z</time>
</trkpt>
<trkpt lat="-27.0393627" lon="152.7771548">
<ele>349.352</ele>
<time>2017-06-10T23:39:30.433Z</time>
</trkpt>
<trkpt lat="-27.0391999" lon="152.7769776">
<ele>345.597</ele>
<time>2017-06-10T23:39:32.774Z</time>
</trkpt>
<trkpt lat="-27.0388889" lon="152.7768595">
<ele>342.406</ele>
<time>2017-06-10T23:39:36.016Z</time>
</trkpt>
<trkpt lat="-27.0385521" lon="152.7770995">
<ele>339.534</ele>
<time>2017-06-10T23:39:39.721Z</time>
</trkpt>
<trkpt lat="-27.0382988" lon="152.7772967">
<ele>336.532</ele>
<time>2017-06-10T23:39:42.663Z</time>
</trkpt>
<trkpt lat="-27.0381010" lon="152.7773064">
<ele>333.213</ele>
<time>2017-06-10T23:39:44.589Z</time>
</trkpt>
<trkpt lat="-27.0379026" lon="152.7772183">
<ele>329.866</ele>
<time>2017-06-10T23:39:46.690Z</time>
</trkpt>
<trkpt lat="-27.0377173" lon="152.7772003">
<ele>326.866</ele>
<time>2017-06-10T23:39:48.534Z</time>
</trkpt>
<trkpt lat="-27.0374264" lon="152.7773456">
<ele>324.288</ele>
<time>2017-06-10T23:39:51.666Z</time>
</trkpt>
<trkpt lat="-27.0371344" lon="152.7773573">
<ele>321.450</ele>
<time>2017-06-10T23:39:54.493Z</time>
</trkpt>
<trkpt lat="-27.0369358" lon="152.7772708">
<ele>317.124</ele>
<time>2017-06-10T23:39:56.529Z</time>
</trkpt>
<trkpt lat="-27.0366272" lon="152.7772764">
<ele>311.310</ele>
<time>2017-06-10T23:39:59.587Z</time>
</trkpt>
<trkpt lat="-27.0363465" lon="152.7774244">
<ele>305.647</ele>
<time>2017-06-10T23:40:02.624Z</time>
</trkpt>
<trkpt lat="-27.0359106" lon="152.7772593">
<ele>301.207</ele>
<time>2017-06-10T23:40:06.651Z</time>
</trkpt>
<trkpt lat="-27.0356307" lon="152.7770801">
<ele>297.699</ele>
<time>2017-06-10T23:40:09.404Z</time>
</trkpt>
<trkpt lat="-27.0353424" lon="152.7768719">
<ele>294.520</ele>
<time>2017-06-10T23:40:12.624Z</time>
</trkpt>
<trkpt lat="-27.0351419" lon="152.7768733">
<ele>291.223</ele>
<time>2017-06-10T23:40:14.680Z</time>
</trkpt>
<trkpt lat="-27.0349767" lon="152.7767727">
<ele>287.816</ele>
<time>2017-06-10T23:40:16.676Z</time>
</trkpt>
<trkpt lat="-27.0348470" lon="152.7766083">
<ele>284.669</ele>
<time>2017-06-10T23:40:18.748Z</time>
</trkpt>
<trkpt lat="-27.0346108" lon="152.7764140">
<ele>281.909</ele>
<time>2017-06-10T23:40:21.621Z</time>
</trkpt>
<trkpt lat="-27.0344156" lon="152.7764832">
<ele>279.173</ele>
<time>2017-06-10T23:40:23.467Z</time>
</trkpt>
<trkpt lat="-27.0341548" lon="152.7767751">
<ele>276.169</ele>
<time>2017-06-10T23:40:26.425Z</time>
</trkpt>
<trkpt lat="-27.0338835" lon="152.7770760">
<ele>272.766</ele>
<time>2017-06-10T23:40:29.303Z</time>
</trkpt>
<trkpt lat="-27.0336401" lon="152.7772005">
<ele>268.643</ele>
<time>2017-06-10T23:40:31.344Z</time>
</trkpt>
<trkpt lat="-27.0333557" lon="152.7775024">
<ele>263.771</ele>
<time>2017-06-10T23:40:34.674Z</time>
</trkpt>
<trkpt lat="-27.0331421" lon="152.7776779">
<ele>258.455</ele>
<time>2017-06-10T23:40:37.002Z</time>
</trkpt>
<trkpt lat="-27.0328063" lon="152.7778165">
<ele>252.985</ele>
<time>2017-06-10T23:40:40.061Z</time>
</trkpt>
<trkpt lat="-27.0325361" lon="152.7780213">
<ele>247.669</ele>
<time>2017-06-10T23:40:42.574Z</time>
</trkpt>
<trkpt lat="-27.0322878" lon="152.7781113">
<ele>242.647</ele>
<time>2017-06-10T23:40:44.387Z</time>
</trkpt>
<trkpt lat="-27.0319937" lon="152.7781289">
<ele>238.070</ele>
<time>2017-06-10T23:40:46.334Z</time>
</trkpt>
<trkpt lat="-27.0316854" lon="152.7781705">
<ele>234.296</ele>
<time>2017-06-10T23:40:48.346Z</time>
</trkpt>
<trkpt lat="-27.0312145" lon="152.7781539">
<ele>231.317</ele>
<time>2017-06-10T23:40:51.204Z</time>
</trkpt>
<trkpt lat="-27.0309166" lon="152.7783087">
<ele>228.555</ele>
<time>2017-06-10T23:40:53.093Z</time>
</trkpt>
<trkpt lat="-27.0304382" lon="152.7787491">
<ele>225.404</ele>
<time>2017-06-10T23:40:56.441Z</time>
</trkpt>
<trkpt lat="-27.0301376" lon="152.7790132">
<ele>221.602</ele>
<time>2017-06-10T23:40:58.554Z</time>
</trkpt>
<trkpt lat="-27.0298447" lon="152.7792511">
<ele>217.373</ele>
<time>2017-06-10T23:41:00.561Z</time>
</trkpt>
<trkpt lat="-27.0293313" lon="152.7793861">
<ele>213.450</ele>
<time>2017-06-10T23:41:03.487Z</time>
</trkpt>
<trkpt lat="-27.0289704" lon="152.7793359">
<ele>210.726</ele>
<time>2017-06-10T23:41:05.668Z</time>
</trkpt>
<trkpt lat="-27.0286409" lon="152.7792125">
<ele>209.576</ele>
<time>2017-06-10T23:41:07.899Z</time>
</trkpt>
<trkpt lat="-27.0282137" lon="152.7791084">
<ele>209.863</ele>
<time>2017-06-10T23:41:10.945Z</time>
</trkpt>
<trkpt lat="-27.0277649" lon="152.7792009">
<ele>211.300</ele>
<time>2017-06-10T23:41:14.293Z</time>
</trkpt>
<trkpt lat="-27.0275149" lon="152.7793097">
<ele>213.712</ele>
<time>2017-06-10T23:41:16.352Z</time>
</trkpt>
<trkpt lat="-27.0272771" lon="152.7793163">
<ele>216.705</ele>
<time>2017-06-10T23:41:18.109Z</time>
</trkpt>
<trkpt lat="-27.0269592" lon="152.7791010">
<ele>219.664</ele>
<time>2017-06-10T23:41:20.737Z</time>
</trkpt>
<trkpt lat="-27.0266982" lon="152.7786770">
<ele>221.940</ele>
<time>2017-06-10T23:41:23.872Z</time>
</trkpt>
<trkpt lat="-27.0263278" lon="152.7783672">
<ele>222.330</ele>
<time>2017-06-10T23:41:27.564Z</time>
</trkpt>
<trkpt lat="-27.0261381" lon="152.7781843">
<ele>220.363</ele>
<time>2017-06-10T23:41:30.117Z</time>
</trkpt>
<trkpt lat="-27.0258719" lon="152.7780325">
<ele>217.711</ele>
<time>2017-06-10T23:41:33.351Z</time>
</trkpt>
<trkpt lat="-27.0256148" lon="152.7781527">
<ele>216.368</ele>
<time>2017-06-10T23:41:35.956Z</time>
</trkpt>
<trkpt lat="-27.0255384" lon="152.7784440">
<ele>216.705</ele>
<time>2017-06-10T23:41:38.292Z</time>
</trkpt>
<trkpt lat="-27.0256276" lon="152.7788534">
<ele>217.948</ele>
<time>2017-06-10T23:41:41.462Z</time>
</trkpt>
<trkpt lat="-27.0255190" lon="152.7791560">
<ele>219.106</ele>
<time>2017-06-10T23:41:43.689Z</time>
</trkpt>
<trkpt lat="-27.0253788" lon="152.7793576">
<ele>219.694</ele>
<time>2017-06-10T23:41:45.416Z</time>
</trkpt>
<trkpt lat="-27.0251375" lon="152.7794443">
<ele>219.671</ele>
<time>2017-06-10T23:41:47.392Z</time>
</trkpt>
<trkpt lat="-27.0247258" lon="152.7795214">
<ele>219.170</ele>
<time>2017-06-10T23:41:50.998Z</time>
</trkpt>
<trkpt lat="-27.0243972" lon="152.7794499">
<ele>218.205</ele>
<time>2017-06-10T23:41:53.964Z</time>
</trkpt>
<trkpt lat="-27.0240898" lon="152.7795258">
<ele>216.574</ele>
<time>2017-06-10T23:41:56.465Z</time>
</trkpt>
<trkpt lat="-27.0239402" lon="152.7797283">
<ele>214.182</ele>
<time>2017-06-10T23:41:58.202Z</time>
</trkpt>
<trkpt lat="-27.0239004" lon="152.7800198">
<ele>211.470</ele>
<time>2017-06-10T23:42:00.121Z</time>
</trkpt>
<trkpt lat="-27.0238667" lon="152.7803291">
<ele>209.088</ele>
<time>2017-06-10T23:42:02.121Z</time>
</trkpt>
<trkpt lat="-27.0236444" lon="152.7808695">
<ele>207.234</ele>
<time>2017-06-10T23:42:05.728Z</time>
</trkpt>
<trkpt lat="-27.0232740" lon="152.7810656">
<ele>205.533</ele>
<time>2017-06-10T23:42:08.091Z</time>
</trkpt>
<trkpt lat="-27.0229677" lon="152.7809981">
<ele>203.519</ele>
<time>2017-06-10T23:42:09.695Z</time>
</trkpt>
<trkpt lat="-27.0226347" lon="152.7808734">
<ele>201.220</ele>
<time>2017-06-10T23:42:11.388Z</time>
</trkpt>
<trkpt lat="-27.0222644" lon="152.7806982">
<ele>199.174</ele>
<time>2017-06-10T23:42:13.262Z</time>
</trkpt>
<trkpt lat="-27.0218810" lon="152.7804964">
<ele>197.774</ele>
<time>2017-06-10T23:42:15.224Z</time>
</trkpt>
<trkpt lat="-27.0212770" lon="152.7802520">
<ele>196.903</ele>
<time>2017-06-10T23:42:18.205Z</time>
</trkpt>
<trkpt lat="-27.0206858" lon="152.7799971">
<ele>196.082</ele>
<time>2017-06-10T23:42:21.172Z</time>
</trkpt>
<trkpt lat="-27.0200861" lon="152.7797895">
<ele>194.769</ele>
<time>2017-06-10T23:42:24.120Z</time>
</trkpt>
<trkpt lat="-27.0194768" lon="152.7795549">
<ele>192.715</ele>
<time>2017-06-10T23:42:27.161Z</time>
</trkpt>
<trkpt lat="-27.0190732" lon="152.7794400">
<ele>190.083</ele>
<time>2017-06-10T23:42:29.127Z</time>
</trkpt>
<trkpt lat="-27.0184857" lon="152.7792372">
<ele>187.321</ele>
<time>2017-06-10T23:42:32.005Z</time>
</trkpt>
<trkpt lat="-27.0178559" lon="152.7791283">
<ele>184.793</ele>
<time>2017-06-10T23:42:34.937Z</time>
</trkpt>
<trkpt lat="-27.0172113" lon="152.7790909">
<ele>182.546</ele>
<time>2017-06-10T23:42:37.907Z</time>
</trkpt>
<trkpt lat="-27.0167755" lon="152.7790973">
<ele>180.389</ele>
<time>2017-06-10T23:42:39.963Z</time>
</trkpt>
<trkpt lat="-27.0163693" lon="152.7790402">
<ele>178.206</ele>
<time>2017-06-10T23:42:41.895Z</time>
</trkpt>
<trkpt lat="-27.0157621" lon="152.7788674">
<ele>176.035</ele>
<time>2017-06-10T23:42:44.841Z</time>
</trkpt>
<trkpt lat="-27.0153446" lon="152.7787946">
<ele>173.797</ele>
<time>2017-06-10T23:42:46.823Z</time>
</trkpt>
<trkpt lat="-27.0149252" lon="152.7788259">
<ele>171.439</ele>
<time>2017-06-10T23:42:48.791Z</time>
</trkpt>
<trkpt lat="-27.0142953" lon="152.7788473">
<ele>169.280</ele>
<time>2017-06-10T23:42:51.697Z</time>
</trkpt>
<trkpt lat="-27.0138707" lon="152.7788348">
<ele>167.592</ele>
<time>2017-06-10T23:42:53.615Z</time>
</trkpt>
<trkpt lat="-27.0134314" lon="152.7787632">
<ele>166.356</ele>
<time>2017-06-10T23:42:55.621Z</time>
</trkpt>
<trkpt lat="-27.0127805" lon="152.7786383">
<ele>165.568</ele>
<time>2017-06-10T23:42:58.645Z</time>
</trkpt>
<trkpt lat="-27.0123602" lon="152.7785585">
<ele>165.113</ele>
<time>2017-06-10T23:43:00.607Z</time>
</trkpt>
<trkpt lat="-27.0117211" lon="152.7784674">
<ele>164.686</ele>
<time>2017-06-10T23:43:03.563Z</time>
</trkpt>
<trkpt lat="-27.0110831" lon="152.7784032">
<ele>164.066</ele>
<time>2017-06-10T23:43:06.461Z</time>
</trkpt>
<trkpt lat="-27.0104242" lon="152.7783428">
<ele>163.172</ele>
<time>2017-06-10T23:43:09.373Z</time>
</trkpt>
<trkpt lat="-27.0097428" lon="152.7783703">
<ele>162.015</ele>
<time>2017-06-10T23:43:12.336Z</time>
</trkpt>
<trkpt lat="-27.0090097" lon="152.7783673">
<ele>160.664</ele>
<time>2017-06-10T23:43:15.532Z</time>
</trkpt>
<trkpt lat="-27.0085480" lon="152.7784536">
<ele>158.935</ele>
<time>2017-06-10T23:43:17.571Z</time>
</trkpt>
<trkpt lat="-27.0081102" lon="152.7785768">
<ele>156.650</ele>
<time>2017-06-10T23:43:19.539Z</time>
</trkpt>
<trkpt lat="-27.0074739" lon="152.7788215">
<ele>154.095</ele>
<time>2017-06-10T23:43:22.487Z</time>
</trkpt>
<trkpt lat="-27.0070523" lon="152.7789850">
<ele>151.666</ele>
<time>2017-06-10T23:43:24.455Z</time>
</trkpt>
<trkpt lat="-27.0066537" lon="152.7792127">
<ele>149.602</ele>
<time>2017-06-10T23:43:26.433Z</time>
</trkpt>
<trkpt lat="-27.0060815" lon="152.7795910">
<ele>148.116</ele>
<time>2017-06-10T23:43:29.359Z</time>
</trkpt>
<trkpt lat="-27.0057104" lon="152.7798616">
<ele>147.182</ele>
<time>2017-06-10T23:43:31.283Z</time>
</trkpt>
<trkpt lat="-27.0051731" lon="152.7803647">
<ele>146.631</ele>
<time>2017-06-10T23:43:34.247Z</time>
</trkpt>
<trkpt lat="-27.0046714" lon="152.7809196">
<ele>146.390</ele>
<time>2017-06-10T23:43:37.171Z</time>
</trkpt>
<trkpt lat="-27.0043899" lon="152.7813418">
<ele>146.396</ele>
<time>2017-06-10T23:43:39.105Z</time>
</trkpt>
<trkpt lat="-27.0039846" lon="152.7820185">
<ele>146.524</ele>
<time>2017-06-10T23:43:42.058Z</time>
</trkpt>
<trkpt lat="-27.0037300" lon="152.7824866">
<ele>146.647</ele>
<time>2017-06-10T23:43:44.049Z</time>
</trkpt>
<trkpt lat="-27.0033204" lon="152.7831478">
<ele>146.684</ele>
<time>2017-06-10T23:43:47.052Z</time>
</trkpt>
<trkpt lat="-27.0030775" lon="152.7835996">
<ele>146.567</ele>
<time>2017-06-10T23:43:49.104Z</time>
</trkpt>
<trkpt lat="-27.0028281" lon="152.7840085">
<ele>146.249</ele>
<time>2017-06-10T23:43:51.066Z</time>
</trkpt>
<trkpt lat="-27.0024705" lon="152.7846175">
<ele>145.768</ele>
<time>2017-06-10T23:43:53.990Z</time>
</trkpt>
<trkpt lat="-27.0022113" lon="152.7850194">
<ele>145.187</ele>
<time>2017-06-10T23:43:55.973Z</time>
</trkpt>
<trkpt lat="-27.0019036" lon="152.7856770">
<ele>144.604</ele>
<time>2017-06-10T23:43:58.909Z</time>
</trkpt>
<trkpt lat="-27.0016817" lon="152.7863862">
<ele>144.089</ele>
<time>2017-06-10T23:44:01.846Z</time>
</trkpt>
<trkpt lat="-27.0015607" lon="152.7868877">
<ele>143.507</ele>
<time>2017-06-10T23:44:03.854Z</time>
</trkpt>
<trkpt lat="-27.0014986" lon="152.7874335">
<ele>142.782</ele>
<time>2017-06-10T23:44:05.969Z</time>
</trkpt>
<trkpt lat="-27.0014591" lon="152.7881824">
<ele>142.079</ele>
<time>2017-06-10T23:44:08.825Z</time>
</trkpt>
<trkpt lat="-27.0014423" lon="152.7887068">
<ele>141.585</ele>
<time>2017-06-10T23:44:10.827Z</time>
</trkpt>
<trkpt lat="-27.0013759" lon="152.7891985">
<ele>141.413</ele>
<time>2017-06-10T23:44:12.744Z</time>
</trkpt>
<trkpt lat="-27.0013154" lon="152.7899435">
<ele>141.532</ele>
<time>2017-06-10T23:44:15.706Z</time>
</trkpt>
<trkpt lat="-27.0012519" lon="152.7904262">
<ele>141.636</ele>
<time>2017-06-10T23:44:17.676Z</time>
</trkpt>
<trkpt lat="-27.0012149" lon="152.7911412">
<ele>141.469</ele>
<time>2017-06-10T23:44:20.616Z</time>
</trkpt>
<trkpt lat="-27.0010829" lon="152.7918359">
<ele>141.151</ele>
<time>2017-06-10T23:44:23.599Z</time>
</trkpt>
<trkpt lat="-27.0008262" lon="152.7924503">
<ele>141.007</ele>
<time>2017-06-10T23:44:26.568Z</time>
</trkpt>
<trkpt lat="-27.0004587" lon="152.7929699">
<ele>141.247</ele>
<time>2017-06-10T23:44:29.588Z</time>
</trkpt>
<trkpt lat="-27.0001714" lon="152.7932416">
<ele>141.885</ele>
<time>2017-06-10T23:44:31.551Z</time>
</trkpt>
<trkpt lat="-26.9996663" lon="152.7935105">
<ele>142.725</ele>
<time>2017-06-10T23:44:34.492Z</time>
</trkpt>
<trkpt lat="-26.9991473" lon="152.7937425">
<ele>143.529</ele>
<time>2017-06-10T23:44:37.444Z</time>
</trkpt>
<trkpt lat="-26.9986079" lon="152.7938963">
<ele>144.240</ele>
<time>2017-06-10T23:44:40.345Z</time>
</trkpt>
<trkpt lat="-26.9980282" lon="152.7939838">
<ele>144.871</ele>
<time>2017-06-10T23:44:43.279Z</time>
</trkpt>
<trkpt lat="-26.9974123" lon="152.7939801">
<ele>145.383</ele>
<time>2017-06-10T23:44:46.289Z</time>
</trkpt>
<trkpt lat="-26.9968168" lon="152.7941078">
<ele>145.771</ele>
<time>2017-06-10T23:44:49.240Z</time>
</trkpt>
<trkpt lat="-26.9964176" lon="152.7941376">
<ele>146.039</ele>
<time>2017-06-10T23:44:51.168Z</time>
</trkpt>
<trkpt lat="-26.9958091" lon="152.7942364">
<ele>146.205</ele>
<time>2017-06-10T23:44:54.101Z</time>
</trkpt>
<trkpt lat="-26.9953992" lon="152.7942960">
<ele>146.334</ele>
<time>2017-06-10T23:44:56.092Z</time>
</trkpt>
<trkpt lat="-26.9950076" lon="152.7943703">
<ele>146.450</ele>
<time>2017-06-10T23:44:58.067Z</time>
</trkpt>
<trkpt lat="-26.9944259" lon="152.7944307">
<ele>146.498</ele>
<time>2017-06-10T23:45:01.027Z</time>
</trkpt>
<trkpt lat="-26.9940511" lon="152.7945180">
<ele>146.367</ele>
<time>2017-06-10T23:45:03.015Z</time>
</trkpt>
<trkpt lat="-26.9934901" lon="152.7946284">
<ele>146.065</ele>
<time>2017-06-10T23:45:05.984Z</time>
</trkpt>
<trkpt lat="-26.9931132" lon="152.7946945">
<ele>145.710</ele>
<time>2017-06-10T23:45:07.931Z</time>
</trkpt>
<trkpt lat="-26.9925200" lon="152.7947372">
<ele>145.354</ele>
<time>2017-06-10T23:45:10.906Z</time>
</trkpt>
<trkpt lat="-26.9921288" lon="152.7948156">
<ele>144.850</ele>
<time>2017-06-10T23:45:12.863Z</time>
</trkpt>
<trkpt lat="-26.9917361" lon="152.7948792">
<ele>143.974</ele>
<time>2017-06-10T23:45:14.809Z</time>
</trkpt>
<trkpt lat="-26.9913385" lon="152.7949282">
<ele>142.601</ele>
<time>2017-06-10T23:45:16.751Z</time>
</trkpt>
<trkpt lat="-26.9907354" lon="152.7950610">
<ele>140.793</ele>
<time>2017-06-10T23:45:19.729Z</time>
</trkpt>
<trkpt lat="-26.9903395" lon="152.7951817">
<ele>138.629</ele>
<time>2017-06-10T23:45:21.765Z</time>
</trkpt>
<trkpt lat="-26.9898164" lon="152.7954401">
<ele>136.290</ele>
<time>2017-06-10T23:45:24.729Z</time>
</trkpt>
<trkpt lat="-26.9893175" lon="152.7956427">
<ele>134.077</ele>
<time>2017-06-10T23:45:27.688Z</time>
</trkpt>
<trkpt lat="-26.9889159" lon="152.7959327">
<ele>132.367</ele>
<time>2017-06-10T23:45:30.485Z</time>
</trkpt>
<trkpt lat="-26.9886396" lon="152.7961568">
<ele>131.477</ele>
<time>2017-06-10T23:45:32.515Z</time>
</trkpt>
<trkpt lat="-26.9883776" lon="152.7963878">
<ele>131.485</ele>
<time>2017-06-10T23:45:34.587Z</time>
</trkpt>
<trkpt lat="-26.9880533" lon="152.7967077">
<ele>132.213</ele>
<time>2017-06-10T23:45:37.446Z</time>
</trkpt>
<trkpt lat="-26.9878561" lon="152.7968986">
<ele>133.473</ele>
<time>2017-06-10T23:45:39.330Z</time>
</trkpt>
<trkpt lat="-26.9876753" lon="152.7971059">
<ele>134.994</ele>
<time>2017-06-10T23:45:41.330Z</time>
</trkpt>
<trkpt lat="-26.9875516" lon="152.7973183">
<ele>136.474</ele>
<time>2017-06-10T23:45:43.381Z</time>
</trkpt>
<trkpt lat="-26.9873851" lon="152.7975175">
<ele>137.715</ele>
<time>2017-06-10T23:45:46.053Z</time>
</trkpt>
<trkpt lat="-26.9872843" lon="152.7976532">
<ele>138.676</ele>
<time>2017-06-10T23:45:48.273Z</time>
</trkpt>
<trkpt lat="-26.9872005" lon="152.7976963">
<ele>139.370</ele>
<time>2017-06-10T23:45:49.999Z</time>
</trkpt>
<trkpt lat="-26.9872005" lon="152.7976963">
<ele>139.793</ele>
<time>2017-06-10T23:45:54.999Z</time>
</trkpt>
<trkpt lat="-26.9872005" lon="152.7976963">
<ele>139.923</ele>
<time>2017-06-10T23:46:18.091Z</time>
</trkpt>
<trkpt lat="-26.9870121" lon="152.7976712">
<ele>139.838</ele>
<time>2017-06-10T23:46:23.330Z</time>
</trkpt>
<trkpt lat="-26.9868030" lon="152.7974549">
<ele>139.801</ele>
<time>2017-06-10T23:46:26.055Z</time>
</trkpt>
<trkpt lat="-26.9864926" lon="152.7971167">
<ele>140.094</ele>
<time>2017-06-10T23:46:29.128Z</time>
</trkpt>
<trkpt lat="-26.9862228" lon="152.7968582">
<ele>140.924</ele>
<time>2017-06-10T23:46:31.233Z</time>
</trkpt>
<trkpt lat="-26.9858112" lon="152.7964900">
<ele>142.276</ele>
<time>2017-06-10T23:46:34.203Z</time>
</trkpt>
<trkpt lat="-26.9855098" lon="152.7962501">
<ele>143.821</ele>
<time>2017-06-10T23:46:36.196Z</time>
</trkpt>
<trkpt lat="-26.9850250" lon="152.7959619">
<ele>145.100</ele>
<time>2017-06-10T23:46:39.249Z</time>
</trkpt>
<trkpt lat="-26.9847600" lon="152.7957389">
<ele>145.828</ele>
<time>2017-06-10T23:46:41.236Z</time>
</trkpt>
<trkpt lat="-26.9844731" lon="152.7955945">
<ele>145.934</ele>
<time>2017-06-10T23:46:43.195Z</time>
</trkpt>
<trkpt lat="-26.9841789" lon="152.7954798">
<ele>145.531</ele>
<time>2017-06-10T23:46:45.143Z</time>
</trkpt>
<trkpt lat="-26.9837321" lon="152.7952721">
<ele>144.845</ele>
<time>2017-06-10T23:46:48.118Z</time>
</trkpt>
<trkpt lat="-26.9832664" lon="152.7950777">
<ele>144.111</ele>
<time>2017-06-10T23:46:51.066Z</time>
</trkpt>
<trkpt lat="-26.9829237" lon="152.7949597">
<ele>143.409</ele>
<time>2017-06-10T23:46:53.043Z</time>
</trkpt>
<trkpt lat="-26.9825713" lon="152.7948084">
<ele>142.812</ele>
<time>2017-06-10T23:46:55.037Z</time>
</trkpt>
<trkpt lat="-26.9821980" lon="152.7947140">
<ele>142.393</ele>
<time>2017-06-10T23:46:56.995Z</time>
</trkpt>
<trkpt lat="-26.9816584" lon="152.7944673">
<ele>142.044</ele>
<time>2017-06-10T23:46:59.907Z</time>
</trkpt>
<trkpt lat="-26.9811241" lon="152.7941238">
<ele>141.559</ele>
<time>2017-06-10T23:47:02.952Z</time>
</trkpt>
<trkpt lat="-26.9807602" lon="152.7939488">
<ele>140.770</ele>
<time>2017-06-10T23:47:04.954Z</time>
</trkpt>
<trkpt lat="-26.9804334" lon="152.7937070">
<ele>139.699</ele>
<time>2017-06-10T23:47:06.942Z</time>
</trkpt>
<trkpt lat="-26.9799590" lon="152.7933067">
<ele>138.709</ele>
<time>2017-06-10T23:47:09.944Z</time>
</trkpt>
<trkpt lat="-26.9796221" lon="152.7930772">
<ele>138.223</ele>
<time>2017-06-10T23:47:11.958Z</time>
</trkpt>
<trkpt lat="-26.9793154" lon="152.7928295">
<ele>138.365</ele>
<time>2017-06-10T23:47:13.920Z</time>
</trkpt>
<trkpt lat="-26.9788050" lon="152.7925244">
<ele>138.981</ele>
<time>2017-06-10T23:47:16.919Z</time>
</trkpt>
<trkpt lat="-26.9784753" lon="152.7922978">
<ele>139.955</ele>
<time>2017-06-10T23:47:18.906Z</time>
</trkpt>
<trkpt lat="-26.9779788" lon="152.7919393">
<ele>141.203</ele>
<time>2017-06-10T23:47:21.907Z</time>
</trkpt>
<trkpt lat="-26.9774832" lon="152.7915753">
<ele>142.446</ele>
<time>2017-06-10T23:47:24.875Z</time>
</trkpt>
<trkpt lat="-26.9771477" lon="152.7913386">
<ele>143.461</ele>
<time>2017-06-10T23:47:26.806Z</time>
</trkpt>
<trkpt lat="-26.9766083" lon="152.7909799">
<ele>144.231</ele>
<time>2017-06-10T23:47:29.821Z</time>
</trkpt>
<trkpt lat="-26.9762634" lon="152.7907280">
<ele>144.710</ele>
<time>2017-06-10T23:47:31.795Z</time>
</trkpt>
<trkpt lat="-26.9758910" lon="152.7905336">
<ele>144.814</ele>
<time>2017-06-10T23:47:33.783Z</time>
</trkpt>
<trkpt lat="-26.9755516" lon="152.7902833">
<ele>144.493</ele>
<time>2017-06-10T23:47:35.774Z</time>
</trkpt>
<trkpt lat="-26.9750623" lon="152.7898801">
<ele>143.746</ele>
<time>2017-06-10T23:47:38.794Z</time>
</trkpt>
<trkpt lat="-26.9745598" lon="152.7895495">
<ele>142.632</ele>
<time>2017-06-10T23:47:41.753Z</time>
</trkpt>
<trkpt lat="-26.9742414" lon="152.7893103">
<ele>141.292</ele>
<time>2017-06-10T23:47:43.710Z</time>
</trkpt>
<trkpt lat="-26.9739263" lon="152.7890557">
<ele>140.103</ele>
<time>2017-06-10T23:47:45.652Z</time>
</trkpt>
<trkpt lat="-26.9733893" lon="152.7887230">
<ele>139.446</ele>
<time>2017-06-10T23:47:48.666Z</time>
</trkpt>
<trkpt lat="-26.9728760" lon="152.7883344">
<ele>139.336</ele>
<time>2017-06-10T23:47:51.676Z</time>
</trkpt>
<trkpt lat="-26.9725192" lon="152.7881214">
<ele>139.504</ele>
<time>2017-06-10T23:47:53.658Z</time>
</trkpt>
<trkpt lat="-26.9720057" lon="152.7877595">
<ele>139.722</ele>
<time>2017-06-10T23:47:56.617Z</time>
</trkpt>
<trkpt lat="-26.9714608" lon="152.7874094">
<ele>139.985</ele>
<time>2017-06-10T23:47:59.659Z</time>
</trkpt>
<trkpt lat="-26.9709468" lon="152.7870415">
<ele>140.459</ele>
<time>2017-06-10T23:48:02.627Z</time>
</trkpt>
<trkpt lat="-26.9706285" lon="152.7867563">
<ele>141.081</ele>
<time>2017-06-10T23:48:04.610Z</time>
</trkpt>
<trkpt lat="-26.9702806" lon="152.7865091">
<ele>141.588</ele>
<time>2017-06-10T23:48:06.575Z</time>
</trkpt>
<trkpt lat="-26.9698049" lon="152.7860205">
<ele>141.929</ele>
<time>2017-06-10T23:48:09.606Z</time>
</trkpt>
<trkpt lat="-26.9694707" lon="152.7857212">
<ele>142.269</ele>
<time>2017-06-10T23:48:11.615Z</time>
</trkpt>
<trkpt lat="-26.9690055" lon="152.7852555">
<ele>142.629</ele>
<time>2017-06-10T23:48:14.573Z</time>
</trkpt>
<trkpt lat="-26.9685133" lon="152.7848251">
<ele>142.881</ele>
<time>2017-06-10T23:48:17.557Z</time>
</trkpt>
<trkpt lat="-26.9680054" lon="152.7844234">
<ele>142.969</ele>
<time>2017-06-10T23:48:20.548Z</time>
</trkpt>
<trkpt lat="-26.9677045" lon="152.7841226">
<ele>142.888</ele>
<time>2017-06-10T23:48:22.520Z</time>
</trkpt>
<trkpt lat="-26.9672081" lon="152.7837360">
<ele>142.568</ele>
<time>2017-06-10T23:48:25.514Z</time>
</trkpt>
<trkpt lat="-26.9669057" lon="152.7834627">
<ele>141.900</ele>
<time>2017-06-10T23:48:27.469Z</time>
</trkpt>
<trkpt lat="-26.9666217" lon="152.7831569">
<ele>140.842</ele>
<time>2017-06-10T23:48:29.457Z</time>
</trkpt>
<trkpt lat="-26.9661148" lon="152.7828035">
<ele>139.498</ele>
<time>2017-06-10T23:48:32.476Z</time>
</trkpt>
<trkpt lat="-26.9658070" lon="152.7825524">
<ele>137.827</ele>
<time>2017-06-10T23:48:34.479Z</time>
</trkpt>
<trkpt lat="-26.9653671" lon="152.7822161">
<ele>135.650</ele>
<time>2017-06-10T23:48:37.440Z</time>
</trkpt>
<trkpt lat="-26.9649444" lon="152.7819381">
<ele>132.916</ele>
<time>2017-06-10T23:48:40.393Z</time>
</trkpt>
<trkpt lat="-26.9646756" lon="152.7817935">
<ele>129.737</ele>
<time>2017-06-10T23:48:42.332Z</time>
</trkpt>
<trkpt lat="-26.9642791" lon="152.7815867">
<ele>126.604</ele>
<time>2017-06-10T23:48:45.242Z</time>
</trkpt>
<trkpt lat="-26.9640251" lon="152.7814215">
<ele>124.189</ele>
<time>2017-06-10T23:48:47.191Z</time>
</trkpt>
<trkpt lat="-26.9636249" lon="152.7811788">
<ele>122.675</ele>
<time>2017-06-10T23:48:50.194Z</time>
</trkpt>
<trkpt lat="-26.9633626" lon="152.7810255">
<ele>121.896</ele>
<time>2017-06-10T23:48:52.148Z</time>
</trkpt>
<trkpt lat="-26.9629511" lon="152.7808057">
<ele>121.696</ele>
<time>2017-06-10T23:48:55.154Z</time>
</trkpt>
<trkpt lat="-26.9625458" lon="152.7805725">
<ele>121.959</ele>
<time>2017-06-10T23:48:58.141Z</time>
</trkpt>
<trkpt lat="-26.9621409" lon="152.7803506">
<ele>122.638</ele>
<time>2017-06-10T23:49:01.092Z</time>
</trkpt>
<trkpt lat="-26.9618806" lon="152.7801778">
<ele>123.678</ele>
<time>2017-06-10T23:49:03.074Z</time>
</trkpt>
<trkpt lat="-26.9614561" lon="152.7799916">
<ele>124.874</ele>
<time>2017-06-10T23:49:06.051Z</time>
</trkpt>
<trkpt lat="-26.9610565" lon="152.7797413">
<ele>125.966</ele>
<time>2017-06-10T23:49:09.027Z</time>
</trkpt>
<trkpt lat="-26.9607978" lon="152.7795663">
<ele>126.820</ele>
<time>2017-06-10T23:49:10.995Z</time>
</trkpt>
<trkpt lat="-26.9603693" lon="152.7793877">
<ele>127.420</ele>
<time>2017-06-10T23:49:13.968Z</time>
</trkpt>
<trkpt lat="-26.9599113" lon="152.7792895">
<ele>127.785</ele>
<time>2017-06-10T23:49:16.986Z</time>
</trkpt>
<trkpt lat="-26.9594697" lon="152.7791666">
<ele>128.014</ele>
<time>2017-06-10T23:49:19.954Z</time>
</trkpt>
<trkpt lat="-26.9591755" lon="152.7791176">
<ele>128.212</ele>
<time>2017-06-10T23:49:21.943Z</time>
</trkpt>
<trkpt lat="-26.9588914" lon="152.7790481">
<ele>128.381</ele>
<time>2017-06-10T23:49:23.909Z</time>
</trkpt>
<trkpt lat="-26.9584651" lon="152.7789165">
<ele>128.476</ele>
<time>2017-06-10T23:49:26.895Z</time>
</trkpt>
<trkpt lat="-26.9580416" lon="152.7787913">
<ele>128.501</ele>
<time>2017-06-10T23:49:29.885Z</time>
</trkpt>
<trkpt lat="-26.9576440" lon="152.7786749">
<ele>128.467</ele>
<time>2017-06-10T23:49:32.785Z</time>
</trkpt>
<trkpt lat="-26.9572594" lon="152.7785128">
<ele>128.390</ele>
<time>2017-06-10T23:49:35.753Z</time>
</trkpt>
<trkpt lat="-26.9568559" lon="152.7784182">
<ele>128.343</ele>
<time>2017-06-10T23:49:38.757Z</time>
</trkpt>
<trkpt lat="-26.9564628" lon="152.7783655">
<ele>128.381</ele>
<time>2017-06-10T23:49:41.713Z</time>
</trkpt>
<trkpt lat="-26.9560892" lon="152.7783167">
<ele>128.460</ele>
<time>2017-06-10T23:49:44.664Z</time>
</trkpt>
<trkpt lat="-26.9558947" lon="152.7782190">
<ele>128.504</ele>
<time>2017-06-10T23:49:46.478Z</time>
</trkpt>
<trkpt lat="-26.9555836" lon="152.7781652">
<ele>128.488</ele>
<time>2017-06-10T23:49:49.337Z</time>
</trkpt>
<trkpt lat="-26.9553757" lon="152.7780644">
<ele>128.422</ele>
<time>2017-06-10T23:49:51.408Z</time>
</trkpt>
<trkpt lat="-26.9551506" lon="152.7780448">
<ele>128.302</ele>
<time>2017-06-10T23:49:53.466Z</time>
</trkpt>
<trkpt lat="-26.9548770" lon="152.7779269">
<ele>128.089</ele>
<time>2017-06-10T23:49:56.273Z</time>
</trkpt>
<trkpt lat="-26.9547019" lon="152.7778624">
<ele>127.701</ele>
<time>2017-06-10T23:49:58.178Z</time>
</trkpt>
<trkpt lat="-26.9545191" lon="152.7778395">
<ele>127.114</ele>
<time>2017-06-10T23:50:00.144Z</time>
</trkpt>
<trkpt lat="-26.9542747" lon="152.7777312">
<ele>126.469</ele>
<time>2017-06-10T23:50:03.049Z</time>
</trkpt>
<trkpt lat="-26.9541039" lon="152.7776831">
<ele>125.921</ele>
<time>2017-06-10T23:50:05.037Z</time>
</trkpt>
<trkpt lat="-26.9538281" lon="152.7775984">
<ele>125.539</ele>
<time>2017-06-10T23:50:08.157Z</time>
</trkpt>
<trkpt lat="-26.9535203" lon="152.7774782">
<ele>125.379</ele>
<time>2017-06-10T23:50:11.357Z</time>
</trkpt>
<trkpt lat="-26.9532025" lon="152.7773996">
<ele>125.410</ele>
<time>2017-06-10T23:50:14.363Z</time>
</trkpt>
<trkpt lat="-26.9529092" lon="152.7772725">
<ele>125.482</ele>
<time>2017-06-10T23:50:17.294Z</time>
</trkpt>
<trkpt lat="-26.9526889" lon="152.7772566">
<ele>125.453</ele>
<time>2017-06-10T23:50:19.336Z</time>
</trkpt>
<trkpt lat="-26.9523610" lon="152.7771157">
<ele>125.277</ele>
<time>2017-06-10T23:50:22.472Z</time>
</trkpt>
<trkpt lat="-26.9520555" lon="152.7769836">
<ele>124.961</ele>
<time>2017-06-10T23:50:25.486Z</time>
</trkpt>
<trkpt lat="-26.9518421" lon="152.7769346">
<ele>124.460</ele>
<time>2017-06-10T23:50:27.999Z</time>
</trkpt>
<trkpt lat="-26.9518421" lon="152.7769346">
<ele>123.852</ele>
<time>2017-06-10T23:50:31.999Z</time>
</trkpt>
<trkpt lat="-26.9518421" lon="152.7769346">
<ele>123.457</ele>
<time>2017-06-10T23:50:38.761Z</time>
</trkpt>
<trkpt lat="-26.9517186" lon="152.7770434">
<ele>123.428</ele>
<time>2017-06-10T23:50:48.731Z</time>
</trkpt>
<trkpt lat="-26.9517701" lon="152.7771439">
<ele>122.783</ele>
<time>2017-06-10T23:50:51.528Z</time>
</trkpt>
<trkpt lat="-26.9518525" lon="152.7771867">
<ele>120.849</ele>
<time>2017-06-10T23:50:53.503Z</time>
</trkpt>
<trkpt lat="-26.9519428" lon="152.7772094">
<ele>118.800</ele>
<time>2017-06-10T23:50:55.232Z</time>
</trkpt>
<trkpt lat="-26.9521201" lon="152.7772619">
<ele>117.844</ele>
<time>2017-06-10T23:50:58.114Z</time>
</trkpt>
<trkpt lat="-26.9523335" lon="152.7773161">
<ele>117.810</ele>
<time>2017-06-10T23:51:01.538Z</time>
</trkpt>
<trkpt lat="-26.9524682" lon="152.7774126">
<ele>118.240</ele>
<time>2017-06-10T23:51:06.617Z</time>
</trkpt>
<trkpt lat="-26.9525652" lon="152.7774370">
<ele>118.765</ele>
<time>2017-06-10T23:51:10.350Z</time>
</trkpt>
<trkpt lat="-26.9526332" lon="152.7776814">
<ele>119.197</ele>
<time>2017-06-10T23:51:13.811Z</time>
</trkpt>
<trkpt lat="-26.9526431" lon="152.7779250">
<ele>119.554</ele>
<time>2017-06-10T23:51:15.799Z</time>
</trkpt>
<trkpt lat="-26.9526514" lon="152.7781797">
<ele>119.921</ele>
<time>2017-06-10T23:51:17.585Z</time>
</trkpt>
<trkpt lat="-26.9526965" lon="152.7784691">
<ele>120.323</ele>
<time>2017-06-10T23:51:19.477Z</time>
</trkpt>
<trkpt lat="-26.9527466" lon="152.7789490">
<ele>120.688</ele>
<time>2017-06-10T23:51:22.353Z</time>
</trkpt>
<trkpt lat="-26.9528166" lon="152.7794569">
<ele>120.912</ele>
<time>2017-06-10T23:51:25.313Z</time>
</trkpt>
<trkpt lat="-26.9528524" lon="152.7797910">
<ele>120.911</ele>
<time>2017-06-10T23:51:27.310Z</time>
</trkpt>
<trkpt lat="-26.9528950" lon="152.7801009">
<ele>120.612</ele>
<time>2017-06-10T23:51:29.207Z</time>
</trkpt>
<trkpt lat="-26.9529579" lon="152.7805776">
<ele>119.947</ele>
<time>2017-06-10T23:51:32.071Z</time>
</trkpt>
<trkpt lat="-26.9530116" lon="152.7810727">
<ele>118.870</ele>
<time>2017-06-10T23:51:34.948Z</time>
</trkpt>
<trkpt lat="-26.9530441" lon="152.7814143">
<ele>117.558</ele>
<time>2017-06-10T23:51:36.906Z</time>
</trkpt>
<trkpt lat="-26.9530887" lon="152.7819069">
<ele>116.476</ele>
<time>2017-06-10T23:51:39.767Z</time>
</trkpt>
<trkpt lat="-26.9531487" lon="152.7822280">
<ele>116.019</ele>
<time>2017-06-10T23:51:41.714Z</time>
</trkpt>
<trkpt lat="-26.9531719" lon="152.7827041">
<ele>116.126</ele>
<time>2017-06-10T23:51:44.551Z</time>
</trkpt>
<trkpt lat="-26.9532287" lon="152.7831861">
<ele>116.404</ele>
<time>2017-06-10T23:51:47.405Z</time>
</trkpt>
<trkpt lat="-26.9532848" lon="152.7835214">
<ele>116.543</ele>
<time>2017-06-10T23:51:49.377Z</time>
</trkpt>
<trkpt lat="-26.9533422" lon="152.7838423">
<ele>116.485</ele>
<time>2017-06-10T23:51:51.307Z</time>
</trkpt>
<trkpt lat="-26.9533374" lon="152.7841553">
<ele>116.250</ele>
<time>2017-06-10T23:51:53.186Z</time>
</trkpt>
<trkpt lat="-26.9534023" lon="152.7846259">
<ele>115.880</ele>
<time>2017-06-10T23:51:56.040Z</time>
</trkpt>
<trkpt lat="-26.9534644" lon="152.7849554">
<ele>115.486</ele>
<time>2017-06-10T23:51:58.033Z</time>
</trkpt>
<trkpt lat="-26.9534925" lon="152.7852678">
<ele>115.165</ele>
<time>2017-06-10T23:51:59.962Z</time>
</trkpt>
<trkpt lat="-26.9535397" lon="152.7855341">
<ele>114.883</ele>
<time>2017-06-10T23:52:01.869Z</time>
</trkpt>
<trkpt lat="-26.9535585" lon="152.7858211">
<ele>114.511</ele>
<time>2017-06-10T23:52:04.279Z</time>
</trkpt>
<trkpt lat="-26.9535688" lon="152.7859230">
<ele>113.832</ele>
<time>2017-06-10T23:52:05.691Z</time>
</trkpt>
<trkpt lat="-26.9536318" lon="152.7857402">
<ele>112.722</ele>
<time>2017-06-10T23:52:09.999Z</time>
</trkpt>
<trkpt lat="-26.9536318" lon="152.7857402">
<ele>111.523</ele>
<time>2017-06-10T23:52:13.999Z</time>
</trkpt>
<trkpt lat="-26.9536318" lon="152.7857402">
<ele>110.853</ele>
<time>2017-06-10T23:52:14.594Z</time>
</trkpt>
<trkpt lat="-26.9535320" lon="152.7856248">
<ele>110.859</ele>
<time>2017-06-10T23:52:18.512Z</time>
</trkpt>
<trkpt lat="-26.9535223" lon="152.7850706">
<ele>111.089</ele>
<time>2017-06-10T23:52:24.765Z</time>
</trkpt>
<trkpt lat="-26.9535470" lon="152.7849720">
<ele>111.100</ele>
<time>2017-06-10T23:52:25.999Z</time>
</trkpt>
<trkpt lat="-26.9535470" lon="152.7849720">
<ele>110.939</ele>
<time>2017-06-10T23:52:28.999Z</time>
</trkpt>
<trkpt lat="-26.9535470" lon="152.7849720">
<ele>110.836</ele>
<time>2017-06-10T23:54:08.018Z</time>
</trkpt>
<trkpt lat="-26.9535154" lon="152.7848044">
<ele>110.816</ele>
<time>2017-06-10T23:54:16.459Z</time>
</trkpt>
<trkpt lat="-26.9534928" lon="152.7846084">
<ele>110.808</ele>
<time>2017-06-10T23:54:18.506Z</time>
</trkpt>
<trkpt lat="-26.9534207" lon="152.7842125">
<ele>110.826</ele>
<time>2017-06-10T23:54:21.640Z</time>
</trkpt>
<trkpt lat="-26.9533759" lon="152.7838923">
<ele>111.097</ele>
<time>2017-06-10T23:54:23.636Z</time>
</trkpt>
<trkpt lat="-26.9533138" lon="152.7833849">
<ele>111.903</ele>
<time>2017-06-10T23:54:26.667Z</time>
</trkpt>
<trkpt lat="-26.9532813" lon="152.7830454">
<ele>113.199</ele>
<time>2017-06-10T23:54:28.649Z</time>
</trkpt>
<trkpt lat="-26.9532221" lon="152.7825320">
<ele>114.607</ele>
<time>2017-06-10T23:54:31.637Z</time>
</trkpt>
<trkpt lat="-26.9531582" lon="152.7820142">
<ele>115.800</ele>
<time>2017-06-10T23:54:34.617Z</time>
</trkpt>
<trkpt lat="-26.9531249" lon="152.7814880">
<ele>116.783</ele>
<time>2017-06-10T23:54:37.580Z</time>
</trkpt>
<trkpt lat="-26.9530366" lon="152.7809665">
<ele>117.611</ele>
<time>2017-06-10T23:54:40.516Z</time>
</trkpt>
<trkpt lat="-26.9529815" lon="152.7806106">
<ele>118.090</ele>
<time>2017-06-10T23:54:42.493Z</time>
</trkpt>
<trkpt lat="-26.9529083" lon="152.7800803">
<ele>118.162</ele>
<time>2017-06-10T23:54:45.466Z</time>
</trkpt>
<trkpt lat="-26.9528683" lon="152.7795717">
<ele>118.050</ele>
<time>2017-06-10T23:54:48.374Z</time>
</trkpt>
<trkpt lat="-26.9528234" lon="152.7792402">
<ele>118.061</ele>
<time>2017-06-10T23:54:50.300Z</time>
</trkpt>
<trkpt lat="-26.9527541" lon="152.7789016">
<ele>118.473</ele>
<time>2017-06-10T23:54:52.361Z</time>
</trkpt>
<trkpt lat="-26.9527522" lon="152.7784228">
<ele>119.291</ele>
<time>2017-06-10T23:54:55.472Z</time>
</trkpt>
<trkpt lat="-26.9527013" lon="152.7780535">
<ele>120.202</ele>
<time>2017-06-10T23:54:58.285Z</time>
</trkpt>
<trkpt lat="-26.9526474" lon="152.7777169">
<ele>120.899</ele>
<time>2017-06-10T23:55:01.147Z</time>
</trkpt>
<trkpt lat="-26.9526123" lon="152.7775112">
<ele>121.306</ele>
<time>2017-06-10T23:55:03.138Z</time>
</trkpt>
<trkpt lat="-26.9526534" lon="152.7773514">
<ele>121.496</ele>
<time>2017-06-10T23:55:05.283Z</time>
</trkpt>
<trkpt lat="-26.9527134" lon="152.7772659">
<ele>121.555</ele>
<time>2017-06-10T23:55:06.999Z</time>
</trkpt>
<trkpt lat="-26.9527134" lon="152.7772659">
<ele>121.537</ele>
<time>2017-06-10T23:55:09.999Z</time>
</trkpt>
<trkpt lat="-26.9527134" lon="152.7772659">
<ele>121.478</ele>
<time>2017-06-10T23:55:32.486Z</time>
</trkpt>
<trkpt lat="-26.9525483" lon="152.7771236">
<ele>121.423</ele>
<time>2017-06-10T23:55:37.240Z</time>
</trkpt>
<trkpt lat="-26.9521844" lon="152.7769963">
<ele>121.514</ele>
<time>2017-06-10T23:55:41.099Z</time>
</trkpt>
<trkpt lat="-26.9519134" lon="152.7768940">
<ele>121.908</ele>
<time>2017-06-10T23:55:43.293Z</time>
</trkpt>
<trkpt lat="-26.9515188" lon="152.7767408">
<ele>122.469</ele>
<time>2017-06-10T23:55:46.501Z</time>
</trkpt>
<trkpt lat="-26.9512786" lon="152.7767267">
<ele>122.842</ele>
<time>2017-06-10T23:55:48.747Z</time>
</trkpt>
<trkpt lat="-26.9510366" lon="152.7767485">
<ele>122.786</ele>
<time>2017-06-10T23:55:53.901Z</time>
</trkpt>
<trkpt lat="-26.9510497" lon="152.7768511">
<ele>122.119</ele>
<time>2017-06-10T23:55:55.999Z</time>
</trkpt>
<trkpt lat="-26.9510497" lon="152.7768511">
<ele>121.015</ele>
<time>2017-06-10T23:55:56.999Z</time>
</trkpt>
<trkpt lat="-26.9510497" lon="152.7768511">
<ele>120.238</ele>
<time>2017-06-10T23:55:57.966Z</time>
</trkpt>
<trkpt lat="-26.9512036" lon="152.7769451">
<ele>120.221</ele>
<time>2017-06-10T23:56:03.271Z</time>
</trkpt>
<trkpt lat="-26.9513213" lon="152.7769743">
<ele>120.106</ele>
<time>2017-06-10T23:56:05.709Z</time>
</trkpt>
<trkpt lat="-26.9514155" lon="152.7770187">
<ele>119.174</ele>
<time>2017-06-10T23:56:07.999Z</time>
</trkpt>
<trkpt lat="-26.9514155" lon="152.7770187">
<ele>118.066</ele>
<time>2017-06-10T23:56:12.999Z</time>
</trkpt>
<trkpt lat="-26.9514155" lon="152.7770187">
<ele>117.566</ele>
<time>2017-06-10T23:56:13.099Z</time>
</trkpt>
<trkpt lat="-26.9515628" lon="152.7772566">
<ele>117.738</ele>
<time>2017-06-11T00:17:26.999Z</time>
</trkpt>
<trkpt lat="-26.9515628" lon="152.7772566">
<ele>118.173</ele>
<time>2017-06-11T00:17:30.999Z</time>
</trkpt>
<trkpt lat="-26.9515628" lon="152.7772566">
<ele>118.335</ele>
<time>2017-06-11T00:17:37.255Z</time>
</trkpt>
<trkpt lat="-26.9516975" lon="152.7771578">
<ele>118.208</ele>
<time>2017-06-11T00:17:42.941Z</time>
</trkpt>
<trkpt lat="-26.9517886" lon="152.7771842">
<ele>118.304</ele>
<time>2017-06-11T00:17:45.148Z</time>
</trkpt>
<trkpt lat="-26.9518924" lon="152.7772504">
<ele>118.846</ele>
<time>2017-06-11T00:17:48.552Z</time>
</trkpt>
<trkpt lat="-26.9518794" lon="152.7773667">
<ele>119.497</ele>
<time>2017-06-11T00:17:51.930Z</time>
</trkpt>
<trkpt lat="-26.9517921" lon="152.7774134">
<ele>119.872</ele>
<time>2017-06-11T00:17:55.693Z</time>
</trkpt>
<trkpt lat="-26.9517063" lon="152.7773684">
<ele>119.982</ele>
<time>2017-06-11T00:17:59.999Z</time>
</trkpt>
<trkpt lat="-26.9517063" lon="152.7773684">
<ele>119.954</ele>
<time>2017-06-11T00:18:01.999Z</time>
</trkpt>
<trkpt lat="-26.9517063" lon="152.7773684">
<ele>119.889</ele>
<time>2017-06-11T00:22:52.930Z</time>
</trkpt>
<trkpt lat="-26.9518807" lon="152.7774315">
<ele>119.839</ele>
<time>2017-06-11T00:23:07.108Z</time>
</trkpt>
<trkpt lat="-26.9519249" lon="152.7773435">
<ele>119.896</ele>
<time>2017-06-11T00:23:11.069Z</time>
</trkpt>
<trkpt lat="-26.9519921" lon="152.7772593">
<ele>120.146</ele>
<time>2017-06-11T00:23:13.519Z</time>
</trkpt>
<trkpt lat="-26.9520885" lon="152.7772657">
<ele>120.528</ele>
<time>2017-06-11T00:23:15.474Z</time>
</trkpt>
<trkpt lat="-26.9522130" lon="152.7773154">
<ele>120.902</ele>
<time>2017-06-11T00:23:18.313Z</time>
</trkpt>
<trkpt lat="-26.9523016" lon="152.7773711">
<ele>121.212</ele>
<time>2017-06-11T00:23:20.712Z</time>
</trkpt>
<trkpt lat="-26.9524061" lon="152.7774153">
<ele>121.470</ele>
<time>2017-06-11T00:23:23.895Z</time>
</trkpt>
<trkpt lat="-26.9525026" lon="152.7774235">
<ele>121.688</ele>
<time>2017-06-11T00:23:26.998Z</time>
</trkpt>
<trkpt lat="-26.9525026" lon="152.7774235">
<ele>121.851</ele>
<time>2017-06-11T00:23:28.998Z</time>
</trkpt>
<trkpt lat="-26.9525026" lon="152.7774235">
<ele>121.908</ele>
<time>2017-06-11T00:23:29.064Z</time>
</trkpt>
<trkpt lat="-26.9526341" lon="152.7773655">
<ele>121.849</ele>
<time>2017-06-11T00:23:33.998Z</time>
</trkpt>
<trkpt lat="-26.9526341" lon="152.7773655">
<ele>121.759</ele>
<time>2017-06-11T00:23:37.998Z</time>
</trkpt>
<trkpt lat="-26.9526341" lon="152.7773655">
<ele>121.707</ele>
<time>2017-06-11T00:23:42.089Z</time>
</trkpt>
<trkpt lat="-26.9525590" lon="152.7771891">
<ele>121.694</ele>
<time>2017-06-11T00:23:47.284Z</time>
</trkpt>
<trkpt lat="-26.9523711" lon="152.7771128">
<ele>121.988</ele>
<time>2017-06-11T00:23:49.505Z</time>
</trkpt>
<trkpt lat="-26.9520466" lon="152.7769888">
<ele>122.793</ele>
<time>2017-06-11T00:23:52.733Z</time>
</trkpt>
<trkpt lat="-26.9518350" lon="152.7769131">
<ele>123.681</ele>
<time>2017-06-11T00:23:54.741Z</time>
</trkpt>
<trkpt lat="-26.9516166" lon="152.7768427">
<ele>124.154</ele>
<time>2017-06-11T00:23:56.731Z</time>
</trkpt>
<trkpt lat="-26.9513805" lon="152.7767603">
<ele>124.207</ele>
<time>2017-06-11T00:23:58.793Z</time>
</trkpt>
<trkpt lat="-26.9511399" lon="152.7767001">
<ele>124.013</ele>
<time>2017-06-11T00:24:00.825Z</time>
</trkpt>
<trkpt lat="-26.9507940" lon="152.7765845">
<ele>123.736</ele>
<time>2017-06-11T00:24:03.822Z</time>
</trkpt>
<trkpt lat="-26.9504453" lon="152.7764660">
<ele>123.386</ele>
<time>2017-06-11T00:24:06.856Z</time>
</trkpt>
<trkpt lat="-26.9502196" lon="152.7763588">
<ele>122.790</ele>
<time>2017-06-11T00:24:08.859Z</time>
</trkpt>
<trkpt lat="-26.9500035" lon="152.7762129">
<ele>121.914</ele>
<time>2017-06-11T00:24:10.857Z</time>
</trkpt>
<trkpt lat="-26.9497224" lon="152.7759110">
<ele>120.974</ele>
<time>2017-06-11T00:24:13.922Z</time>
</trkpt>
<trkpt lat="-26.9494752" lon="152.7756041">
<ele>120.149</ele>
<time>2017-06-11T00:24:17.026Z</time>
</trkpt>
<trkpt lat="-26.9493419" lon="152.7754361">
<ele>119.424</ele>
<time>2017-06-11T00:24:19.064Z</time>
</trkpt>
<trkpt lat="-26.9492247" lon="152.7752916">
<ele>118.668</ele>
<time>2017-06-11T00:24:20.657Z</time>
</trkpt>
<trkpt lat="-26.9489969" lon="152.7749994">
<ele>117.792</ele>
<time>2017-06-11T00:24:23.465Z</time>
</trkpt>
<trkpt lat="-26.9487967" lon="152.7747462">
<ele>116.975</ele>
<time>2017-06-11T00:24:25.620Z</time>
</trkpt>
<trkpt lat="-26.9485230" lon="152.7744025">
<ele>116.493</ele>
<time>2017-06-11T00:24:28.721Z</time>
</trkpt>
<trkpt lat="-26.9482902" lon="152.7741202">
<ele>116.327</ele>
<time>2017-06-11T00:24:31.635Z</time>
</trkpt>
<trkpt lat="-26.9481405" lon="152.7739437">
<ele>116.092</ele>
<time>2017-06-11T00:24:33.627Z</time>
</trkpt>
<trkpt lat="-26.9479109" lon="152.7736866">
<ele>115.535</ele>
<time>2017-06-11T00:24:36.657Z</time>
</trkpt>
<trkpt lat="-26.9477593" lon="152.7735339">
<ele>114.850</ele>
<time>2017-06-11T00:24:38.579Z</time>
</trkpt>
<trkpt lat="-26.9475150" lon="152.7733011">
<ele>114.335</ele>
<time>2017-06-11T00:24:41.569Z</time>
</trkpt>
<trkpt lat="-26.9473505" lon="152.7731463">
<ele>114.063</ele>
<time>2017-06-11T00:24:43.653Z</time>
</trkpt>
<trkpt lat="-26.9471301" lon="152.7729490">
<ele>113.984</ele>
<time>2017-06-11T00:24:46.463Z</time>
</trkpt>
<trkpt lat="-26.9469601" lon="152.7728085">
<ele>113.966</ele>
<time>2017-06-11T00:24:48.513Z</time>
</trkpt>
<trkpt lat="-26.9466981" lon="152.7726122">
<ele>113.887</ele>
<time>2017-06-11T00:24:51.576Z</time>
</trkpt>
<trkpt lat="-26.9464573" lon="152.7724363">
<ele>113.760</ele>
<time>2017-06-11T00:24:54.562Z</time>
</trkpt>
<trkpt lat="-26.9462489" lon="152.7722791">
<ele>113.564</ele>
<time>2017-06-11T00:24:57.398Z</time>
</trkpt>
<trkpt lat="-26.9461004" lon="152.7721689">
<ele>113.192</ele>
<time>2017-06-11T00:24:59.350Z</time>
</trkpt>
<trkpt lat="-26.9459216" lon="152.7720300">
<ele>112.733</ele>
<time>2017-06-11T00:25:01.463Z</time>
</trkpt>
<trkpt lat="-26.9457345" lon="152.7718789">
<ele>112.447</ele>
<time>2017-06-11T00:25:03.574Z</time>
</trkpt>
<trkpt lat="-26.9454724" lon="152.7716745">
<ele>112.433</ele>
<time>2017-06-11T00:25:06.525Z</time>
</trkpt>
<trkpt lat="-26.9452092" lon="152.7714730">
<ele>112.572</ele>
<time>2017-06-11T00:25:09.530Z</time>
</trkpt>
<trkpt lat="-26.9450318" lon="152.7713474">
<ele>112.728</ele>
<time>2017-06-11T00:25:11.542Z</time>
</trkpt>
<trkpt lat="-26.9448640" lon="152.7712188">
<ele>112.897</ele>
<time>2017-06-11T00:25:13.498Z</time>
</trkpt>
<trkpt lat="-26.9446855" lon="152.7710831">
<ele>113.101</ele>
<time>2017-06-11T00:25:15.474Z</time>
</trkpt>
<trkpt lat="-26.9443957" lon="152.7708555">
<ele>113.274</ele>
<time>2017-06-11T00:25:18.587Z</time>
</trkpt>
<trkpt lat="-26.9442101" lon="152.7706980">
<ele>113.359</ele>
<time>2017-06-11T00:25:20.603Z</time>
</trkpt>
<trkpt lat="-26.9439388" lon="152.7704663">
<ele>113.375</ele>
<time>2017-06-11T00:25:23.458Z</time>
</trkpt>
<trkpt lat="-26.9437322" lon="152.7702849">
<ele>113.406</ele>
<time>2017-06-11T00:25:25.365Z</time>
</trkpt>
<trkpt lat="-26.9434938" lon="152.7700628">
<ele>113.562</ele>
<time>2017-06-11T00:25:27.441Z</time>
</trkpt>
<trkpt lat="-26.9431500" lon="152.7697324">
<ele>113.970</ele>
<time>2017-06-11T00:25:30.474Z</time>
</trkpt>
<trkpt lat="-26.9429393" lon="152.7695319">
<ele>114.645</ele>
<time>2017-06-11T00:25:32.427Z</time>
</trkpt>
<trkpt lat="-26.9426359" lon="152.7692155">
<ele>115.340</ele>
<time>2017-06-11T00:25:35.408Z</time>
</trkpt>
<trkpt lat="-26.9423536" lon="152.7688722">
<ele>115.755</ele>
<time>2017-06-11T00:25:38.415Z</time>
</trkpt>
<trkpt lat="-26.9420803" lon="152.7685271">
<ele>115.927</ele>
<time>2017-06-11T00:25:41.354Z</time>
</trkpt>
<trkpt lat="-26.9417943" lon="152.7681623">
<ele>116.151</ele>
<time>2017-06-11T00:25:44.340Z</time>
</trkpt>
<trkpt lat="-26.9415027" lon="152.7677564">
<ele>116.619</ele>
<time>2017-06-11T00:25:47.346Z</time>
</trkpt>
<trkpt lat="-26.9412062" lon="152.7673107">
<ele>117.386</ele>
<time>2017-06-11T00:25:50.375Z</time>
</trkpt>
<trkpt lat="-26.9410209" lon="152.7670028">
<ele>118.538</ele>
<time>2017-06-11T00:25:52.337Z</time>
</trkpt>
<trkpt lat="-26.9407282" lon="152.7665288">
<ele>119.960</ele>
<time>2017-06-11T00:25:55.329Z</time>
</trkpt>
<trkpt lat="-26.9405562" lon="152.7661832">
<ele>121.357</ele>
<time>2017-06-11T00:25:57.318Z</time>
</trkpt>
<trkpt lat="-26.9402508" lon="152.7656899">
<ele>122.577</ele>
<time>2017-06-11T00:26:00.285Z</time>
</trkpt>
<trkpt lat="-26.9400440" lon="152.7653384">
<ele>123.634</ele>
<time>2017-06-11T00:26:02.331Z</time>
</trkpt>
<trkpt lat="-26.9397215" lon="152.7648423">
<ele>124.533</ele>
<time>2017-06-11T00:26:05.307Z</time>
</trkpt>
<trkpt lat="-26.9395232" lon="152.7644961">
<ele>125.181</ele>
<time>2017-06-11T00:26:07.310Z</time>
</trkpt>
<trkpt lat="-26.9391843" lon="152.7640231">
<ele>125.486</ele>
<time>2017-06-11T00:26:10.287Z</time>
</trkpt>
<trkpt lat="-26.9389399" lon="152.7637375">
<ele>125.405</ele>
<time>2017-06-11T00:26:12.250Z</time>
</trkpt>
<trkpt lat="-26.9385006" lon="152.7633852">
<ele>124.810</ele>
<time>2017-06-11T00:26:15.232Z</time>
</trkpt>
<trkpt lat="-26.9381822" lon="152.7631714">
<ele>123.561</ele>
<time>2017-06-11T00:26:17.244Z</time>
</trkpt>
<trkpt lat="-26.9376852" lon="152.7629042">
<ele>121.807</ele>
<time>2017-06-11T00:26:20.218Z</time>
</trkpt>
<trkpt lat="-26.9373551" lon="152.7627167">
<ele>119.924</ele>
<time>2017-06-11T00:26:22.197Z</time>
</trkpt>
<trkpt lat="-26.9370457" lon="152.7624707">
<ele>118.316</ele>
<time>2017-06-11T00:26:24.222Z</time>
</trkpt>
<trkpt lat="-26.9365444" lon="152.7621825">
<ele>117.302</ele>
<time>2017-06-11T00:26:27.264Z</time>
</trkpt>
<trkpt lat="-26.9362227" lon="152.7620036">
<ele>116.905</ele>
<time>2017-06-11T00:26:29.294Z</time>
</trkpt>
<trkpt lat="-26.9359633" lon="152.7617909">
<ele>116.767</ele>
<time>2017-06-11T00:26:31.208Z</time>
</trkpt>
<trkpt lat="-26.9355522" lon="152.7614974">
<ele>116.492</ele>
<time>2017-06-11T00:26:34.119Z</time>
</trkpt>
<trkpt lat="-26.9351067" lon="152.7611730">
<ele>115.977</ele>
<time>2017-06-11T00:26:37.135Z</time>
</trkpt>
<trkpt lat="-26.9347880" lon="152.7609537">
<ele>115.473</ele>
<time>2017-06-11T00:26:39.147Z</time>
</trkpt>
<trkpt lat="-26.9344901" lon="152.7606884">
<ele>115.308</ele>
<time>2017-06-11T00:26:41.146Z</time>
</trkpt>
<trkpt lat="-26.9341813" lon="152.7604233">
<ele>115.602</ele>
<time>2017-06-11T00:26:43.120Z</time>
</trkpt>
<trkpt lat="-26.9337057" lon="152.7599751">
<ele>116.230</ele>
<time>2017-06-11T00:26:46.165Z</time>
</trkpt>
<trkpt lat="-26.9334027" lon="152.7596476">
<ele>117.008</ele>
<time>2017-06-11T00:26:48.185Z</time>
</trkpt>
<trkpt lat="-26.9329459" lon="152.7591811">
<ele>117.828</ele>
<time>2017-06-11T00:26:51.198Z</time>
</trkpt>
<trkpt lat="-26.9324923" lon="152.7587679">
<ele>118.684</ele>
<time>2017-06-11T00:26:54.174Z</time>
</trkpt>
<trkpt lat="-26.9322130" lon="152.7584865">
<ele>119.499</ele>
<time>2017-06-11T00:26:56.231Z</time>
</trkpt>
<trkpt lat="-26.9318951" lon="152.7580450">
<ele>120.018</ele>
<time>2017-06-11T00:26:59.178Z</time>
</trkpt>
<trkpt lat="-26.9316901" lon="152.7577780">
<ele>119.978</ele>
<time>2017-06-11T00:27:01.166Z</time>
</trkpt>
<trkpt lat="-26.9313915" lon="152.7574058">
<ele>119.384</ele>
<time>2017-06-11T00:27:04.169Z</time>
</trkpt>
<trkpt lat="-26.9312391" lon="152.7571812">
<ele>118.522</ele>
<time>2017-06-11T00:27:06.217Z</time>
</trkpt>
<trkpt lat="-26.9310409" lon="152.7569632">
<ele>117.691</ele>
<time>2017-06-11T00:27:09.039Z</time>
</trkpt>
<trkpt lat="-26.9309119" lon="152.7568266">
<ele>116.923</ele>
<time>2017-06-11T00:27:11.633Z</time>
</trkpt>
<trkpt lat="-26.9308557" lon="152.7567253">
<ele>116.103</ele>
<time>2017-06-11T00:27:13.998Z</time>
</trkpt>
<trkpt lat="-26.9308557" lon="152.7567253">
<ele>115.308</ele>
<time>2017-06-11T00:27:18.998Z</time>
</trkpt>
<trkpt lat="-26.9308557" lon="152.7567253">
<ele>114.858</ele>
<time>2017-06-11T00:27:19.098Z</time>
</trkpt>
<trkpt lat="-26.9307087" lon="152.7565379">
<ele>114.845</ele>
<time>2017-06-11T00:27:27.821Z</time>
</trkpt>
<trkpt lat="-26.9306176" lon="152.7565010">
<ele>114.871</ele>
<time>2017-06-11T00:27:30.173Z</time>
</trkpt>
<trkpt lat="-26.9304744" lon="152.7566667">
<ele>114.624</ele>
<time>2017-06-11T00:27:32.811Z</time>
</trkpt>
<trkpt lat="-26.9302886" lon="152.7568944">
<ele>114.395</ele>
<time>2017-06-11T00:27:35.138Z</time>
</trkpt>
<trkpt lat="-26.9299339" lon="152.7572550">
<ele>114.635</ele>
<time>2017-06-11T00:27:38.504Z</time>
</trkpt>
<trkpt lat="-26.9295969" lon="152.7576039">
<ele>115.362</ele>
<time>2017-06-11T00:27:41.257Z</time>
</trkpt>
<trkpt lat="-26.9293497" lon="152.7579662">
<ele>116.436</ele>
<time>2017-06-11T00:27:43.382Z</time>
</trkpt>
<trkpt lat="-26.9290442" lon="152.7583223">
<ele>117.780</ele>
<time>2017-06-11T00:27:45.605Z</time>
</trkpt>
<trkpt lat="-26.9287853" lon="152.7585702">
<ele>119.132</ele>
<time>2017-06-11T00:27:47.406Z</time>
</trkpt>
<trkpt lat="-26.9284211" lon="152.7589838">
<ele>120.088</ele>
<time>2017-06-11T00:27:50.232Z</time>
</trkpt>
<trkpt lat="-26.9280680" lon="152.7594342">
<ele>120.397</ele>
<time>2017-06-11T00:27:53.206Z</time>
</trkpt>
<trkpt lat="-26.9278029" lon="152.7596964">
<ele>119.979</ele>
<time>2017-06-11T00:27:55.194Z</time>
</trkpt>
<trkpt lat="-26.9275624" lon="152.7599620">
<ele>119.038</ele>
<time>2017-06-11T00:27:57.040Z</time>
</trkpt>
<trkpt lat="-26.9271294" lon="152.7604131">
<ele>118.051</ele>
<time>2017-06-11T00:28:00.061Z</time>
</trkpt>
<trkpt lat="-26.9268089" lon="152.7607593">
<ele>117.396</ele>
<time>2017-06-11T00:28:02.070Z</time>
</trkpt>
<trkpt lat="-26.9263067" lon="152.7613572">
<ele>117.248</ele>
<time>2017-06-11T00:28:05.113Z</time>
</trkpt>
<trkpt lat="-26.9258759" lon="152.7617906">
<ele>117.819</ele>
<time>2017-06-11T00:28:07.233Z</time>
</trkpt>
<trkpt lat="-26.9252353" lon="152.7625023">
<ele>119.201</ele>
<time>2017-06-11T00:28:10.341Z</time>
</trkpt>
<trkpt lat="-26.9246440" lon="152.7632033">
<ele>121.380</ele>
<time>2017-06-11T00:28:13.321Z</time>
</trkpt>
<trkpt lat="-26.9242846" lon="152.7635962">
<ele>123.865</ele>
<time>2017-06-11T00:28:15.237Z</time>
</trkpt>
<trkpt lat="-26.9237754" lon="152.7641556">
<ele>125.696</ele>
<time>2017-06-11T00:28:18.084Z</time>
</trkpt>
<trkpt lat="-26.9234417" lon="152.7645702">
<ele>126.455</ele>
<time>2017-06-11T00:28:20.086Z</time>
</trkpt>
<trkpt lat="-26.9229034" lon="152.7651639">
<ele>126.699</ele>
<time>2017-06-11T00:28:23.119Z</time>
</trkpt>
<trkpt lat="-26.9223869" lon="152.7657270">
<ele>126.996</ele>
<time>2017-06-11T00:28:26.056Z</time>
</trkpt>
<trkpt lat="-26.9220073" lon="152.7660762">
<ele>127.418</ele>
<time>2017-06-11T00:28:28.034Z</time>
</trkpt>
<trkpt lat="-26.9216380" lon="152.7664668">
<ele>127.754</ele>
<time>2017-06-11T00:28:30.034Z</time>
</trkpt>
<trkpt lat="-26.9210903" lon="152.7670687">
<ele>127.911</ele>
<time>2017-06-11T00:28:33.058Z</time>
</trkpt>
<trkpt lat="-26.9206033" lon="152.7676529">
<ele>127.771</ele>
<time>2017-06-11T00:28:35.964Z</time>
</trkpt>
<trkpt lat="-26.9202744" lon="152.7680049">
<ele>127.111</ele>
<time>2017-06-11T00:28:37.915Z</time>
</trkpt>
<trkpt lat="-26.9199543" lon="152.7683497">
<ele>126.089</ele>
<time>2017-06-11T00:28:39.868Z</time>
</trkpt>
<trkpt lat="-26.9194158" lon="152.7688059">
<ele>125.334</ele>
<time>2017-06-11T00:28:42.856Z</time>
</trkpt>
<trkpt lat="-26.9188635" lon="152.7692244">
<ele>125.161</ele>
<time>2017-06-11T00:28:45.808Z</time>
</trkpt>
<trkpt lat="-26.9184604" lon="152.7694577">
<ele>125.321</ele>
<time>2017-06-11T00:28:47.814Z</time>
</trkpt>
<trkpt lat="-26.9178698" lon="152.7698296">
<ele>125.442</ele>
<time>2017-06-11T00:28:50.768Z</time>
</trkpt>
<trkpt lat="-26.9172209" lon="152.7701854">
<ele>125.367</ele>
<time>2017-06-11T00:28:53.804Z</time>
</trkpt>
<trkpt lat="-26.9167864" lon="152.7704323">
<ele>125.217</ele>
<time>2017-06-11T00:28:55.787Z</time>
</trkpt>
<trkpt lat="-26.9161343" lon="152.7708372">
<ele>125.213</ele>
<time>2017-06-11T00:28:58.788Z</time>
</trkpt>
<trkpt lat="-26.9156727" lon="152.7710421">
<ele>125.403</ele>
<time>2017-06-11T00:29:00.778Z</time>
</trkpt>
<trkpt lat="-26.9152408" lon="152.7712944">
<ele>125.603</ele>
<time>2017-06-11T00:29:02.738Z</time>
</trkpt>
<trkpt lat="-26.9145785" lon="152.7716655">
<ele>125.654</ele>
<time>2017-06-11T00:29:05.694Z</time>
</trkpt>
<trkpt lat="-26.9138975" lon="152.7720655">
<ele>125.638</ele>
<time>2017-06-11T00:29:08.695Z</time>
</trkpt>
<trkpt lat="-26.9132542" lon="152.7725527">
<ele>125.797</ele>
<time>2017-06-11T00:29:11.686Z</time>
</trkpt>
<trkpt lat="-26.9128232" lon="152.7728364">
<ele>126.308</ele>
<time>2017-06-11T00:29:13.637Z</time>
</trkpt>
<trkpt lat="-26.9123969" lon="152.7731082">
<ele>126.988</ele>
<time>2017-06-11T00:29:15.596Z</time>
</trkpt>
<trkpt lat="-26.9120028" lon="152.7734463">
<ele>127.479</ele>
<time>2017-06-11T00:29:17.599Z</time>
</trkpt>
<trkpt lat="-26.9114117" lon="152.7739483">
<ele>127.696</ele>
<time>2017-06-11T00:29:20.592Z</time>
</trkpt>
<trkpt lat="-26.9108138" lon="152.7744302">
<ele>127.786</ele>
<time>2017-06-11T00:29:23.568Z</time>
</trkpt>
<trkpt lat="-26.9102670" lon="152.7749828">
<ele>127.851</ele>
<time>2017-06-11T00:29:26.551Z</time>
</trkpt>
<trkpt lat="-26.9098665" lon="152.7753027">
<ele>127.999</ele>
<time>2017-06-11T00:29:28.553Z</time>
</trkpt>
<trkpt lat="-26.9093007" lon="152.7757795">
<ele>128.372</ele>
<time>2017-06-11T00:29:31.475Z</time>
</trkpt>
<trkpt lat="-26.9088888" lon="152.7760578">
<ele>128.943</ele>
<time>2017-06-11T00:29:33.483Z</time>
</trkpt>
<trkpt lat="-26.9082643" lon="152.7764381">
<ele>129.519</ele>
<time>2017-06-11T00:29:36.450Z</time>
</trkpt>
<trkpt lat="-26.9078261" lon="152.7766474">
<ele>129.961</ele>
<time>2017-06-11T00:29:38.431Z</time>
</trkpt>
<trkpt lat="-26.9073744" lon="152.7768391">
<ele>130.279</ele>
<time>2017-06-11T00:29:40.426Z</time>
</trkpt>
<trkpt lat="-26.9066845" lon="152.7770322">
<ele>130.632</ele>
<time>2017-06-11T00:29:43.371Z</time>
</trkpt>
<trkpt lat="-26.9059971" lon="152.7771979">
<ele>131.279</ele>
<time>2017-06-11T00:29:46.317Z</time>
</trkpt>
<trkpt lat="-26.9055298" lon="152.7772216">
<ele>132.371</ele>
<time>2017-06-11T00:29:48.289Z</time>
</trkpt>
<trkpt lat="-26.9048321" lon="152.7772975">
<ele>133.700</ele>
<time>2017-06-11T00:29:51.253Z</time>
</trkpt>
<trkpt lat="-26.9040949" lon="152.7772851">
<ele>134.789</ele>
<time>2017-06-11T00:29:54.295Z</time>
</trkpt>
<trkpt lat="-26.9032865" lon="152.7773835">
<ele>135.298</ele>
<time>2017-06-11T00:29:57.548Z</time>
</trkpt>
<trkpt lat="-26.9028588" lon="152.7774682">
<ele>135.087</ele>
<time>2017-06-11T00:29:59.297Z</time>
</trkpt>
<trkpt lat="-26.9021594" lon="152.7775823">
<ele>134.329</ele>
<time>2017-06-11T00:30:02.229Z</time>
</trkpt>
<trkpt lat="-26.9014896" lon="152.7778085">
<ele>133.573</ele>
<time>2017-06-11T00:30:05.209Z</time>
</trkpt>
<trkpt lat="-26.9010572" lon="152.7780145">
<ele>133.427</ele>
<time>2017-06-11T00:30:07.228Z</time>
</trkpt>
<trkpt lat="-26.9004181" lon="152.7782975">
<ele>133.946</ele>
<time>2017-06-11T00:30:10.187Z</time>
</trkpt>
<trkpt lat="-26.8999930" lon="152.7785076">
<ele>134.454</ele>
<time>2017-06-11T00:30:12.193Z</time>
</trkpt>
<trkpt lat="-26.8993983" lon="152.7788895">
<ele>134.273</ele>
<time>2017-06-11T00:30:15.165Z</time>
</trkpt>
<trkpt lat="-26.8987664" lon="152.7792618">
<ele>133.310</ele>
<time>2017-06-11T00:30:18.211Z</time>
</trkpt>
<trkpt lat="-26.8983359" lon="152.7795002">
<ele>131.930</ele>
<time>2017-06-11T00:30:20.210Z</time>
</trkpt>
<trkpt lat="-26.8977109" lon="152.7799239">
<ele>130.770</ele>
<time>2017-06-11T00:30:23.213Z</time>
</trkpt>
<trkpt lat="-26.8970705" lon="152.7803164">
<ele>130.219</ele>
<time>2017-06-11T00:30:26.196Z</time>
</trkpt>
<trkpt lat="-26.8964321" lon="152.7807135">
<ele>130.156</ele>
<time>2017-06-11T00:30:29.180Z</time>
</trkpt>
<trkpt lat="-26.8960226" lon="152.7809933">
<ele>130.545</ele>
<time>2017-06-11T00:30:31.150Z</time>
</trkpt>
<trkpt lat="-26.8956329" lon="152.7812658">
<ele>131.585</ele>
<time>2017-06-11T00:30:33.077Z</time>
</trkpt>
<trkpt lat="-26.8950807" lon="152.7816445">
<ele>133.175</ele>
<time>2017-06-11T00:30:35.922Z</time>
</trkpt>
<trkpt lat="-26.8947217" lon="152.7819076">
<ele>134.898</ele>
<time>2017-06-11T00:30:37.877Z</time>
</trkpt>
<trkpt lat="-26.8941619" lon="152.7823193">
<ele>136.412</ele>
<time>2017-06-11T00:30:40.895Z</time>
</trkpt>
<trkpt lat="-26.8935873" lon="152.7827477">
<ele>137.439</ele>
<time>2017-06-11T00:30:43.907Z</time>
</trkpt>
<trkpt lat="-26.8929538" lon="152.7831635">
<ele>137.863</ele>
<time>2017-06-11T00:30:46.956Z</time>
</trkpt>
<trkpt lat="-26.8925282" lon="152.7834761">
<ele>137.711</ele>
<time>2017-06-11T00:30:48.977Z</time>
</trkpt>
<trkpt lat="-26.8919014" lon="152.7839413">
<ele>137.089</ele>
<time>2017-06-11T00:30:51.945Z</time>
</trkpt>
<trkpt lat="-26.8914718" lon="152.7842417">
<ele>136.201</ele>
<time>2017-06-11T00:30:53.953Z</time>
</trkpt>
<trkpt lat="-26.8908485" lon="152.7847320">
<ele>135.313</ele>
<time>2017-06-11T00:30:56.945Z</time>
</trkpt>
<trkpt lat="-26.8904484" lon="152.7850814">
<ele>134.604</ele>
<time>2017-06-11T00:30:58.927Z</time>
</trkpt>
<trkpt lat="-26.8898139" lon="152.7855724">
<ele>134.053</ele>
<time>2017-06-11T00:31:01.944Z</time>
</trkpt>
<trkpt lat="-26.8891798" lon="152.7860281">
<ele>133.542</ele>
<time>2017-06-11T00:31:04.922Z</time>
</trkpt>
<trkpt lat="-26.8885312" lon="152.7864042">
<ele>133.090</ele>
<time>2017-06-11T00:31:07.852Z</time>
</trkpt>
<trkpt lat="-26.8880767" lon="152.7866129">
<ele>132.764</ele>
<time>2017-06-11T00:31:09.834Z</time>
</trkpt>
<trkpt lat="-26.8876131" lon="152.7867776">
<ele>132.590</ele>
<time>2017-06-11T00:31:11.806Z</time>
</trkpt>
<trkpt lat="-26.8869118" lon="152.7869661">
<ele>132.622</ele>
<time>2017-06-11T00:31:14.770Z</time>
</trkpt>
<trkpt lat="-26.8864398" lon="152.7870516">
<ele>133.037</ele>
<time>2017-06-11T00:31:16.750Z</time>
</trkpt>
<trkpt lat="-26.8859633" lon="152.7871052">
<ele>133.884</ele>
<time>2017-06-11T00:31:18.737Z</time>
</trkpt>
<trkpt lat="-26.8852499" lon="152.7871100">
<ele>134.908</ele>
<time>2017-06-11T00:31:21.713Z</time>
</trkpt>
<trkpt lat="-26.8847637" lon="152.7870844">
<ele>135.796</ele>
<time>2017-06-11T00:31:23.737Z</time>
</trkpt>
<trkpt lat="-26.8842751" lon="152.7870541">
<ele>136.414</ele>
<time>2017-06-11T00:31:25.751Z</time>
</trkpt>
<trkpt lat="-26.8837901" lon="152.7870159">
<ele>136.754</ele>
<time>2017-06-11T00:31:27.740Z</time>
</trkpt>
<trkpt lat="-26.8830593" lon="152.7869713">
<ele>136.864</ele>
<time>2017-06-11T00:31:30.722Z</time>
</trkpt>
<trkpt lat="-26.8823356" lon="152.7869555">
<ele>136.827</ele>
<time>2017-06-11T00:31:33.669Z</time>
</trkpt>
<trkpt lat="-26.8815957" lon="152.7870403">
<ele>136.817</ele>
<time>2017-06-11T00:31:36.673Z</time>
</trkpt>
<trkpt lat="-26.8811206" lon="152.7871581">
<ele>137.110</ele>
<time>2017-06-11T00:31:38.627Z</time>
</trkpt>
<trkpt lat="-26.8804737" lon="152.7873728">
<ele>137.814</ele>
<time>2017-06-11T00:31:41.444Z</time>
</trkpt>
<trkpt lat="-26.8800540" lon="152.7875443">
<ele>138.612</ele>
<time>2017-06-11T00:31:43.386Z</time>
</trkpt>
<trkpt lat="-26.8794391" lon="152.7878721">
<ele>139.061</ele>
<time>2017-06-11T00:31:46.393Z</time>
</trkpt>
<trkpt lat="-26.8788599" lon="152.7882860">
<ele>139.047</ele>
<time>2017-06-11T00:31:49.397Z</time>
</trkpt>
<trkpt lat="-26.8783025" lon="152.7887818">
<ele>138.735</ele>
<time>2017-06-11T00:31:52.442Z</time>
</trkpt>
<trkpt lat="-26.8779516" lon="152.7891640">
<ele>138.347</ele>
<time>2017-06-11T00:31:54.491Z</time>
</trkpt>
<trkpt lat="-26.8774691" lon="152.7897942">
<ele>138.066</ele>
<time>2017-06-11T00:31:57.542Z</time>
</trkpt>
<trkpt lat="-26.8771928" lon="152.7902268">
<ele>137.890</ele>
<time>2017-06-11T00:31:59.508Z</time>
</trkpt>
<trkpt lat="-26.8769360" lon="152.7906795">
<ele>137.658</ele>
<time>2017-06-11T00:32:01.512Z</time>
</trkpt>
<trkpt lat="-26.8765891" lon="152.7914178">
<ele>137.355</ele>
<time>2017-06-11T00:32:04.564Z</time>
</trkpt>
<trkpt lat="-26.8762543" lon="152.7921554">
<ele>137.158</ele>
<time>2017-06-11T00:32:07.516Z</time>
</trkpt>
<trkpt lat="-26.8759125" lon="152.7928979">
<ele>137.148</ele>
<time>2017-06-11T00:32:10.487Z</time>
</trkpt>
<trkpt lat="-26.8755692" lon="152.7936584">
<ele>137.224</ele>
<time>2017-06-11T00:32:13.499Z</time>
</trkpt>
<trkpt lat="-26.8752225" lon="152.7944163">
<ele>137.327</ele>
<time>2017-06-11T00:32:16.485Z</time>
</trkpt>
<trkpt lat="-26.8748810" lon="152.7951600">
<ele>137.563</ele>
<time>2017-06-11T00:32:19.429Z</time>
</trkpt>
<trkpt lat="-26.8745545" lon="152.7958909">
<ele>138.075</ele>
<time>2017-06-11T00:32:22.357Z</time>
</trkpt>
<trkpt lat="-26.8742265" lon="152.7966175">
<ele>138.928</ele>
<time>2017-06-11T00:32:25.312Z</time>
</trkpt>
<trkpt lat="-26.8738987" lon="152.7973395">
<ele>140.121</ele>
<time>2017-06-11T00:32:28.254Z</time>
</trkpt>
<trkpt lat="-26.8736836" lon="152.7978264">
<ele>141.578</ele>
<time>2017-06-11T00:32:30.231Z</time>
</trkpt>
<trkpt lat="-26.8733563" lon="152.7985581">
<ele>143.067</ele>
<time>2017-06-11T00:32:33.210Z</time>
</trkpt>
<trkpt lat="-26.8731314" lon="152.7990401">
<ele>144.388</ele>
<time>2017-06-11T00:32:35.188Z</time>
</trkpt>
<trkpt lat="-26.8729113" lon="152.7995220">
<ele>145.555</ele>
<time>2017-06-11T00:32:37.161Z</time>
</trkpt>
<trkpt lat="-26.8725831" lon="152.8002539">
<ele>146.591</ele>
<time>2017-06-11T00:32:40.142Z</time>
</trkpt>
<trkpt lat="-26.8722482" lon="152.8009890">
<ele>147.487</ele>
<time>2017-06-11T00:32:43.127Z</time>
</trkpt>
<trkpt lat="-26.8720281" lon="152.8014739">
<ele>148.340</ele>
<time>2017-06-11T00:32:45.096Z</time>
</trkpt>
<trkpt lat="-26.8717208" lon="152.8022147">
<ele>149.143</ele>
<time>2017-06-11T00:32:48.057Z</time>
</trkpt>
<trkpt lat="-26.8715404" lon="152.8027118">
<ele>149.765</ele>
<time>2017-06-11T00:32:49.999Z</time>
</trkpt>
<trkpt lat="-26.8713795" lon="152.8032321">
<ele>150.162</ele>
<time>2017-06-11T00:32:51.981Z</time>
</trkpt>
<trkpt lat="-26.8711749" lon="152.8040056">
<ele>150.369</ele>
<time>2017-06-11T00:32:54.885Z</time>
</trkpt>
<trkpt lat="-26.8709899" lon="152.8048081">
<ele>150.435</ele>
<time>2017-06-11T00:32:57.865Z</time>
</trkpt>
<trkpt lat="-26.8708015" lon="152.8056347">
<ele>150.429</ele>
<time>2017-06-11T00:33:00.895Z</time>
</trkpt>
<trkpt lat="-26.8706154" lon="152.8064413">
<ele>150.408</ele>
<time>2017-06-11T00:33:03.841Z</time>
</trkpt>
<trkpt lat="-26.8704777" lon="152.8069696">
<ele>150.302</ele>
<time>2017-06-11T00:33:05.800Z</time>
</trkpt>
<trkpt lat="-26.8702985" lon="152.8074862">
<ele>149.973</ele>
<time>2017-06-11T00:33:07.792Z</time>
</trkpt>
<trkpt lat="-26.8699745" lon="152.8082232">
<ele>149.418</ele>
<time>2017-06-11T00:33:10.763Z</time>
</trkpt>
<trkpt lat="-26.8697084" lon="152.8086930">
<ele>148.706</ele>
<time>2017-06-11T00:33:12.775Z</time>
</trkpt>
<trkpt lat="-26.8694102" lon="152.8091449">
<ele>147.871</ele>
<time>2017-06-11T00:33:14.790Z</time>
</trkpt>
<trkpt lat="-26.8689146" lon="152.8097702">
<ele>146.934</ele>
<time>2017-06-11T00:33:17.763Z</time>
</trkpt>
<trkpt lat="-26.8683526" lon="152.8103304">
<ele>145.658</ele>
<time>2017-06-11T00:33:20.751Z</time>
</trkpt>
<trkpt lat="-26.8677747" lon="152.8108435">
<ele>143.738</ele>
<time>2017-06-11T00:33:23.687Z</time>
</trkpt>
<trkpt lat="-26.8673977" lon="152.8111858">
<ele>141.323</ele>
<time>2017-06-11T00:33:25.634Z</time>
</trkpt>
<trkpt lat="-26.8668360" lon="152.8117005">
<ele>139.002</ele>
<time>2017-06-11T00:33:28.594Z</time>
</trkpt>
<trkpt lat="-26.8664712" lon="152.8120292">
<ele>137.305</ele>
<time>2017-06-11T00:33:30.525Z</time>
</trkpt>
<trkpt lat="-26.8659356" lon="152.8125161">
<ele>136.301</ele>
<time>2017-06-11T00:33:33.437Z</time>
</trkpt>
<trkpt lat="-26.8655926" lon="152.8128310">
<ele>135.643</ele>
<time>2017-06-11T00:33:35.336Z</time>
</trkpt>
<trkpt lat="-26.8652495" lon="152.8131424">
<ele>135.031</ele>
<time>2017-06-11T00:33:37.269Z</time>
</trkpt>
<trkpt lat="-26.8647253" lon="152.8136166">
<ele>134.427</ele>
<time>2017-06-11T00:33:40.258Z</time>
</trkpt>
<trkpt lat="-26.8642016" lon="152.8140861">
<ele>133.953</ele>
<time>2017-06-11T00:33:43.226Z</time>
</trkpt>
<trkpt lat="-26.8638326" lon="152.8143665">
<ele>133.695</ele>
<time>2017-06-11T00:33:45.196Z</time>
</trkpt>
<trkpt lat="-26.8632617" lon="152.8147728">
<ele>133.687</ele>
<time>2017-06-11T00:33:48.188Z</time>
</trkpt>
<trkpt lat="-26.8628742" lon="152.8149333">
<ele>133.974</ele>
<time>2017-06-11T00:33:50.013Z</time>
</trkpt>
<trkpt lat="-26.8625033" lon="152.8150861">
<ele>134.472</ele>
<time>2017-06-11T00:33:51.803Z</time>
</trkpt>
<trkpt lat="-26.8619404" lon="152.8152880">
<ele>134.918</ele>
<time>2017-06-11T00:33:54.655Z</time>
</trkpt>
<trkpt lat="-26.8613861" lon="152.8154113">
<ele>135.182</ele>
<time>2017-06-11T00:33:57.485Z</time>
</trkpt>
<trkpt lat="-26.8610113" lon="152.8154693">
<ele>135.385</ele>
<time>2017-06-11T00:33:59.431Z</time>
</trkpt>
<trkpt lat="-26.8604872" lon="152.8155064">
<ele>135.662</ele>
<time>2017-06-11T00:34:02.220Z</time>
</trkpt>
<trkpt lat="-26.8601259" lon="152.8154938">
<ele>136.042</ele>
<time>2017-06-11T00:34:04.199Z</time>
</trkpt>
<trkpt lat="-26.8597631" lon="152.8155303">
<ele>136.486</ele>
<time>2017-06-11T00:34:06.209Z</time>
</trkpt>
<trkpt lat="-26.8592086" lon="152.8155527">
<ele>136.946</ele>
<time>2017-06-11T00:34:09.256Z</time>
</trkpt>
<trkpt lat="-26.8586325" lon="152.8155560">
<ele>137.389</ele>
<time>2017-06-11T00:34:12.354Z</time>
</trkpt>
<trkpt lat="-26.8581294" lon="152.8155862">
<ele>137.819</ele>
<time>2017-06-11T00:34:15.004Z</time>
</trkpt>
<trkpt lat="-26.8577068" lon="152.8156058">
<ele>138.193</ele>
<time>2017-06-11T00:34:17.342Z</time>
</trkpt>
<trkpt lat="-26.8573710" lon="152.8156053">
<ele>138.335</ele>
<time>2017-06-11T00:34:19.393Z</time>
</trkpt>
<trkpt lat="-26.8571491" lon="152.8155904">
<ele>138.074</ele>
<time>2017-06-11T00:34:20.822Z</time>
</trkpt>
<trkpt lat="-26.8571065" lon="152.8157567">
<ele>137.523</ele>
<time>2017-06-11T00:34:21.992Z</time>
</trkpt>
<trkpt lat="-26.8572378" lon="152.8161042">
<ele>137.025</ele>
<time>2017-06-11T00:34:24.881Z</time>
</trkpt>
<trkpt lat="-26.8573695" lon="152.8163922">
<ele>136.838</ele>
<time>2017-06-11T00:34:28.595Z</time>
</trkpt>
<trkpt lat="-26.8576531" lon="152.8169305">
<ele>137.020</ele>
<time>2017-06-11T00:34:35.015Z</time>
</trkpt>
<trkpt lat="-26.8578971" lon="152.8174875">
<ele>137.550</ele>
<time>2017-06-11T00:34:38.440Z</time>
</trkpt>
<trkpt lat="-26.8581362" lon="152.8180584">
<ele>138.240</ele>
<time>2017-06-11T00:34:41.495Z</time>
</trkpt>
<trkpt lat="-26.8583916" lon="152.8186341">
<ele>138.743</ele>
<time>2017-06-11T00:34:44.547Z</time>
</trkpt>
<trkpt lat="-26.8586005" lon="152.8189673">
<ele>138.842</ele>
<time>2017-06-11T00:34:46.462Z</time>
</trkpt>
<trkpt lat="-26.8589768" lon="152.8194575">
<ele>138.624</ele>
<time>2017-06-11T00:34:49.506Z</time>
</trkpt>
<trkpt lat="-26.8592835" lon="152.8197490">
<ele>138.303</ele>
<time>2017-06-11T00:34:51.610Z</time>
</trkpt>
<trkpt lat="-26.8595806" lon="152.8200362">
<ele>138.007</ele>
<time>2017-06-11T00:34:53.618Z</time>
</trkpt>
<trkpt lat="-26.8600001" lon="152.8205186">
<ele>137.690</ele>
<time>2017-06-11T00:34:56.646Z</time>
</trkpt>
<trkpt lat="-26.8604228" lon="152.8209514">
<ele>137.244</ele>
<time>2017-06-11T00:34:59.519Z</time>
</trkpt>
<trkpt lat="-26.8608093" lon="152.8213540">
<ele>136.449</ele>
<time>2017-06-11T00:35:02.214Z</time>
</trkpt>
<trkpt lat="-26.8610775" lon="152.8215897">
<ele>135.060</ele>
<time>2017-06-11T00:35:04.058Z</time>
</trkpt>
<trkpt lat="-26.8614326" lon="152.8221050">
<ele>133.349</ele>
<time>2017-06-11T00:35:07.316Z</time>
</trkpt>
<trkpt lat="-26.8616732" lon="152.8227104">
<ele>132.033</ele>
<time>2017-06-11T00:35:10.524Z</time>
</trkpt>
<trkpt lat="-26.8617197" lon="152.8231515">
<ele>131.548</ele>
<time>2017-06-11T00:35:12.542Z</time>
</trkpt>
<trkpt lat="-26.8616574" lon="152.8238507">
<ele>131.726</ele>
<time>2017-06-11T00:35:15.649Z</time>
</trkpt>
<trkpt lat="-26.8615365" lon="152.8243554">
<ele>132.179</ele>
<time>2017-06-11T00:35:17.892Z</time>
</trkpt>
<trkpt lat="-26.8614357" lon="152.8248810">
<ele>132.777</ele>
<time>2017-06-11T00:35:20.044Z</time>
</trkpt>
<trkpt lat="-26.8612590" lon="152.8255622">
<ele>133.469</ele>
<time>2017-06-11T00:35:22.775Z</time>
</trkpt>
<trkpt lat="-26.8610826" lon="152.8261797">
<ele>133.972</ele>
<time>2017-06-11T00:35:25.368Z</time>
</trkpt>
<trkpt lat="-26.8609102" lon="152.8265632">
<ele>133.933</ele>
<time>2017-06-11T00:35:27.225Z</time>
</trkpt>
<trkpt lat="-26.8606867" lon="152.8269100">
<ele>133.312</ele>
<time>2017-06-11T00:35:29.143Z</time>
</trkpt>
<trkpt lat="-26.8603875" lon="152.8271427">
<ele>132.474</ele>
<time>2017-06-11T00:35:31.048Z</time>
</trkpt>
<trkpt lat="-26.8598033" lon="152.8273668">
<ele>131.843</ele>
<time>2017-06-11T00:35:34.343Z</time>
</trkpt>
<trkpt lat="-26.8592006" lon="152.8276319">
<ele>131.663</ele>
<time>2017-06-11T00:35:37.586Z</time>
</trkpt>
<trkpt lat="-26.8588054" lon="152.8278025">
<ele>132.029</ele>
<time>2017-06-11T00:35:39.570Z</time>
</trkpt>
<trkpt lat="-26.8584234" lon="152.8279983">
<ele>132.678</ele>
<time>2017-06-11T00:35:41.520Z</time>
</trkpt>
<trkpt lat="-26.8581002" lon="152.8282343">
<ele>133.189</ele>
<time>2017-06-11T00:35:43.326Z</time>
</trkpt>
<trkpt lat="-26.8578656" lon="152.8285289">
<ele>133.348</ele>
<time>2017-06-11T00:35:45.021Z</time>
</trkpt>
<trkpt lat="-26.8576526" lon="152.8291491">
<ele>133.200</ele>
<time>2017-06-11T00:35:48.068Z</time>
</trkpt>
<trkpt lat="-26.8575048" lon="152.8296145">
<ele>132.944</ele>
<time>2017-06-11T00:35:50.382Z</time>
</trkpt>
<trkpt lat="-26.8572151" lon="152.8303817">
<ele>132.905</ele>
<time>2017-06-11T00:35:53.882Z</time>
</trkpt>
<trkpt lat="-26.8570066" lon="152.8309387">
<ele>133.559</ele>
<time>2017-06-11T00:35:56.161Z</time>
</trkpt>
<trkpt lat="-26.8567997" lon="152.8314620">
<ele>135.070</ele>
<time>2017-06-11T00:35:58.132Z</time>
</trkpt>
<trkpt lat="-26.8566131" lon="152.8319692">
<ele>136.802</ele>
<time>2017-06-11T00:36:00.003Z</time>
</trkpt>
<trkpt lat="-26.8563079" lon="152.8327161">
<ele>137.953</ele>
<time>2017-06-11T00:36:02.931Z</time>
</trkpt>
<trkpt lat="-26.8561120" lon="152.8332377">
<ele>138.364</ele>
<time>2017-06-11T00:36:04.976Z</time>
</trkpt>
<trkpt lat="-26.8559199" lon="152.8337443">
<ele>138.347</ele>
<time>2017-06-11T00:36:06.944Z</time>
</trkpt>
<trkpt lat="-26.8557211" lon="152.8344927">
<ele>138.223</ele>
<time>2017-06-11T00:36:09.751Z</time>
</trkpt>
<trkpt lat="-26.8556382" lon="152.8349882">
<ele>137.984</ele>
<time>2017-06-11T00:36:11.605Z</time>
</trkpt>
<trkpt lat="-26.8555704" lon="152.8354928">
<ele>137.480</ele>
<time>2017-06-11T00:36:13.534Z</time>
</trkpt>
<trkpt lat="-26.8555027" lon="152.8362522">
<ele>136.873</ele>
<time>2017-06-11T00:36:16.465Z</time>
</trkpt>
<trkpt lat="-26.8554479" lon="152.8367741">
<ele>136.482</ele>
<time>2017-06-11T00:36:18.489Z</time>
</trkpt>
<trkpt lat="-26.8553885" lon="152.8375836">
<ele>136.412</ele>
<time>2017-06-11T00:36:21.578Z</time>
</trkpt>
<trkpt lat="-26.8552971" lon="152.8383109">
<ele>136.563</ele>
<time>2017-06-11T00:36:24.341Z</time>
</trkpt>
<trkpt lat="-26.8552213" lon="152.8387382">
<ele>136.652</ele>
<time>2017-06-11T00:36:26.028Z</time>
</trkpt>
<trkpt lat="-26.8551709" lon="152.8391148">
<ele>136.383</ele>
<time>2017-06-11T00:36:27.549Z</time>
</trkpt>
<trkpt lat="-26.8550576" lon="152.8395875">
<ele>135.718</ele>
<time>2017-06-11T00:36:29.691Z</time>
</trkpt>
<trkpt lat="-26.8549369" lon="152.8398507">
<ele>134.803</ele>
<time>2017-06-11T00:36:31.102Z</time>
</trkpt>
<trkpt lat="-26.8547379" lon="152.8400395">
<ele>133.810</ele>
<time>2017-06-11T00:36:32.706Z</time>
</trkpt>
<trkpt lat="-26.8543568" lon="152.8402637">
<ele>132.986</ele>
<time>2017-06-11T00:36:35.573Z</time>
</trkpt>
<trkpt lat="-26.8540821" lon="152.8404205">
<ele>132.582</ele>
<time>2017-06-11T00:36:37.884Z</time>
</trkpt>
<trkpt lat="-26.8537763" lon="152.8406330">
<ele>132.736</ele>
<time>2017-06-11T00:36:40.540Z</time>
</trkpt>
<trkpt lat="-26.8534913" lon="152.8408242">
<ele>133.512</ele>
<time>2017-06-11T00:36:42.831Z</time>
</trkpt>
<trkpt lat="-26.8530689" lon="152.8411299">
<ele>134.907</ele>
<time>2017-06-11T00:36:45.956Z</time>
</trkpt>
<trkpt lat="-26.8526576" lon="152.8414313">
<ele>136.952</ele>
<time>2017-06-11T00:36:48.840Z</time>
</trkpt>
<trkpt lat="-26.8523915" lon="152.8416246">
<ele>139.748</ele>
<time>2017-06-11T00:36:50.707Z</time>
</trkpt>
<trkpt lat="-26.8520829" lon="152.8420594">
<ele>142.673</ele>
<time>2017-06-11T00:36:53.699Z</time>
</trkpt>
<trkpt lat="-26.8518793" lon="152.8423676">
<ele>144.590</ele>
<time>2017-06-11T00:36:55.812Z</time>
</trkpt>
<trkpt lat="-26.8514905" lon="152.8428493">
<ele>145.209</ele>
<time>2017-06-11T00:36:59.306Z</time>
</trkpt>
<trkpt lat="-26.8512183" lon="152.8431856">
<ele>146.577</ele>
<time>2017-06-11T00:37:01.554Z</time>
</trkpt>
<trkpt lat="-26.8508817" lon="152.8437659">
<ele>150.100</ele>
<time>2017-06-11T00:37:04.761Z</time>
</trkpt>
<trkpt lat="-26.8505206" lon="152.8443082">
<ele>153.435</ele>
<time>2017-06-11T00:37:07.749Z</time>
</trkpt>
<trkpt lat="-26.8501704" lon="152.8448211">
<ele>153.801</ele>
<time>2017-06-11T00:37:10.597Z</time>
</trkpt>
<trkpt lat="-26.8500073" lon="152.8451765">
<ele>151.451</ele>
<time>2017-06-11T00:37:12.382Z</time>
</trkpt>
<trkpt lat="-26.8498453" lon="152.8457503">
<ele>147.995</ele>
<time>2017-06-11T00:37:15.148Z</time>
</trkpt>
<trkpt lat="-26.8497458" lon="152.8464187">
<ele>144.821</ele>
<time>2017-06-11T00:37:18.459Z</time>
</trkpt>
<trkpt lat="-26.8496241" lon="152.8468756">
<ele>142.636</ele>
<time>2017-06-11T00:37:20.702Z</time>
</trkpt>
<trkpt lat="-26.8495194" lon="152.8473382">
<ele>141.667</ele>
<time>2017-06-11T00:37:22.852Z</time>
</trkpt>
<trkpt lat="-26.8494439" lon="152.8477940">
<ele>141.683</ele>
<time>2017-06-11T00:37:24.832Z</time>
</trkpt>
<trkpt lat="-26.8493016" lon="152.8484972">
<ele>142.098</ele>
<time>2017-06-11T00:37:27.861Z</time>
</trkpt>
<trkpt lat="-26.8491503" lon="152.8491360">
<ele>142.465</ele>
<time>2017-06-11T00:37:30.673Z</time>
</trkpt>
<trkpt lat="-26.8489235" lon="152.8497382">
<ele>142.639</ele>
<time>2017-06-11T00:37:33.483Z</time>
</trkpt>
<trkpt lat="-26.8487225" lon="152.8503484">
<ele>142.564</ele>
<time>2017-06-11T00:37:36.374Z</time>
</trkpt>
<trkpt lat="-26.8485453" lon="152.8507665">
<ele>142.264</ele>
<time>2017-06-11T00:37:38.461Z</time>
</trkpt>
<trkpt lat="-26.8483762" lon="152.8511978">
<ele>141.990</ele>
<time>2017-06-11T00:37:40.575Z</time>
</trkpt>
<trkpt lat="-26.8481911" lon="152.8516204">
<ele>141.966</ele>
<time>2017-06-11T00:37:42.630Z</time>
</trkpt>
<trkpt lat="-26.8478989" lon="152.8522358">
<ele>142.155</ele>
<time>2017-06-11T00:37:45.597Z</time>
</trkpt>
<trkpt lat="-26.8477077" lon="152.8526512">
<ele>142.438</ele>
<time>2017-06-11T00:37:47.570Z</time>
</trkpt>
<trkpt lat="-26.8475599" lon="152.8530698">
<ele>142.706</ele>
<time>2017-06-11T00:37:49.476Z</time>
</trkpt>
<trkpt lat="-26.8474330" lon="152.8536964">
<ele>142.860</ele>
<time>2017-06-11T00:37:52.254Z</time>
</trkpt>
<trkpt lat="-26.8474112" lon="152.8543176">
<ele>142.836</ele>
<time>2017-06-11T00:37:55.030Z</time>
</trkpt>
<trkpt lat="-26.8474781" lon="152.8549119">
<ele>142.684</ele>
<time>2017-06-11T00:37:57.784Z</time>
</trkpt>
<trkpt lat="-26.8475815" lon="152.8552627">
<ele>142.535</ele>
<time>2017-06-11T00:37:59.528Z</time>
</trkpt>
<trkpt lat="-26.8478641" lon="152.8556791">
<ele>142.471</ele>
<time>2017-06-11T00:38:02.094Z</time>
</trkpt>
<trkpt lat="-26.8482490" lon="152.8560407">
<ele>142.467</ele>
<time>2017-06-11T00:38:05.099Z</time>
</trkpt>
<trkpt lat="-26.8484920" lon="152.8562651">
<ele>142.542</ele>
<time>2017-06-11T00:38:07.064Z</time>
</trkpt>
<trkpt lat="-26.8488231" lon="152.8565735">
<ele>142.774</ele>
<time>2017-06-11T00:38:09.779Z</time>
</trkpt>
<trkpt lat="-26.8491417" lon="152.8569130">
<ele>143.106</ele>
<time>2017-06-11T00:38:12.554Z</time>
</trkpt>
<trkpt lat="-26.8493135" lon="152.8571807">
<ele>143.203</ele>
<time>2017-06-11T00:38:14.496Z</time>
</trkpt>
<trkpt lat="-26.8494124" lon="152.8574626">
<ele>142.687</ele>
<time>2017-06-11T00:38:16.335Z</time>
</trkpt>
<trkpt lat="-26.8493828" lon="152.8579044">
<ele>141.480</ele>
<time>2017-06-11T00:38:19.058Z</time>
</trkpt>
<trkpt lat="-26.8493392" lon="152.8582611">
<ele>139.867</ele>
<time>2017-06-11T00:38:21.310Z</time>
</trkpt>
<trkpt lat="-26.8492562" lon="152.8586135">
<ele>138.398</ele>
<time>2017-06-11T00:38:23.694Z</time>
</trkpt>
<trkpt lat="-26.8492570" lon="152.8589760">
<ele>137.579</ele>
<time>2017-06-11T00:38:26.033Z</time>
</trkpt>
<trkpt lat="-26.8493019" lon="152.8593023">
<ele>137.568</ele>
<time>2017-06-11T00:38:28.006Z</time>
</trkpt>
<trkpt lat="-26.8493938" lon="152.8598529">
<ele>138.359</ele>
<time>2017-06-11T00:38:31.202Z</time>
</trkpt>
<trkpt lat="-26.8495084" lon="152.8602666">
<ele>140.068</ele>
<time>2017-06-11T00:38:33.675Z</time>
</trkpt>
<trkpt lat="-26.8496103" lon="152.8607581">
<ele>142.346</ele>
<time>2017-06-11T00:38:36.450Z</time>
</trkpt>
<trkpt lat="-26.8496366" lon="152.8610811">
<ele>144.204</ele>
<time>2017-06-11T00:38:38.153Z</time>
</trkpt>
<trkpt lat="-26.8497500" lon="152.8615015">
<ele>144.921</ele>
<time>2017-06-11T00:38:40.560Z</time>
</trkpt>
<trkpt lat="-26.8497387" lon="152.8618731">
<ele>144.452</ele>
<time>2017-06-11T00:38:42.723Z</time>
</trkpt>
<trkpt lat="-26.8494207" lon="152.8622481">
<ele>142.961</ele>
<time>2017-06-11T00:38:45.967Z</time>
</trkpt>
<trkpt lat="-26.8491071" lon="152.8625360">
<ele>140.839</ele>
<time>2017-06-11T00:38:49.261Z</time>
</trkpt>
<trkpt lat="-26.8488583" lon="152.8626118">
<ele>138.696</ele>
<time>2017-06-11T00:38:51.340Z</time>
</trkpt>
<trkpt lat="-26.8485872" lon="152.8626092">
<ele>137.118</ele>
<time>2017-06-11T00:38:53.372Z</time>
</trkpt>
<trkpt lat="-26.8481749" lon="152.8624981">
<ele>136.457</ele>
<time>2017-06-11T00:38:56.461Z</time>
</trkpt>
<trkpt lat="-26.8478993" lon="152.8624866">
<ele>136.840</ele>
<time>2017-06-11T00:38:58.503Z</time>
</trkpt>
<trkpt lat="-26.8476598" lon="152.8625398">
<ele>138.048</ele>
<time>2017-06-11T00:39:00.265Z</time>
</trkpt>
<trkpt lat="-26.8474899" lon="152.8627019">
<ele>139.470</ele>
<time>2017-06-11T00:39:01.858Z</time>
</trkpt>
<trkpt lat="-26.8473586" lon="152.8631077">
<ele>140.488</ele>
<time>2017-06-11T00:39:04.608Z</time>
</trkpt>
<trkpt lat="-26.8472408" lon="152.8634157">
<ele>140.845</ele>
<time>2017-06-11T00:39:07.013Z</time>
</trkpt>
<trkpt lat="-26.8469213" lon="152.8637643">
<ele>140.544</ele>
<time>2017-06-11T00:39:10.801Z</time>
</trkpt>
<trkpt lat="-26.8465900" lon="152.8639818">
<ele>139.817</ele>
<time>2017-06-11T00:39:13.559Z</time>
</trkpt>
<trkpt lat="-26.8462079" lon="152.8643490">
<ele>139.081</ele>
<time>2017-06-11T00:39:16.841Z</time>
</trkpt>
<trkpt lat="-26.8459719" lon="152.8645865">
<ele>138.828</ele>
<time>2017-06-11T00:39:18.760Z</time>
</trkpt>
<trkpt lat="-26.8457568" lon="152.8648295">
<ele>139.261</ele>
<time>2017-06-11T00:39:20.549Z</time>
</trkpt>
<trkpt lat="-26.8455770" lon="152.8651526">
<ele>140.061</ele>
<time>2017-06-11T00:39:22.574Z</time>
</trkpt>
<trkpt lat="-26.8453655" lon="152.8657100">
<ele>140.773</ele>
<time>2017-06-11T00:39:25.980Z</time>
</trkpt>
<trkpt lat="-26.8452220" lon="152.8660974">
<ele>141.281</ele>
<time>2017-06-11T00:39:28.223Z</time>
</trkpt>
<trkpt lat="-26.8450190" lon="152.8667218">
<ele>141.734</ele>
<time>2017-06-11T00:39:31.529Z</time>
</trkpt>
<trkpt lat="-26.8448091" lon="152.8673161">
<ele>142.354</ele>
<time>2017-06-11T00:39:34.504Z</time>
</trkpt>
<trkpt lat="-26.8446671" lon="152.8676994">
<ele>143.283</ele>
<time>2017-06-11T00:39:36.406Z</time>
</trkpt>
<trkpt lat="-26.8445054" lon="152.8681155">
<ele>144.426</ele>
<time>2017-06-11T00:39:38.490Z</time>
</trkpt>
<trkpt lat="-26.8444169" lon="152.8684991">
<ele>145.498</ele>
<time>2017-06-11T00:39:40.349Z</time>
</trkpt>
<trkpt lat="-26.8443913" lon="152.8691842">
<ele>146.358</ele>
<time>2017-06-11T00:39:43.606Z</time>
</trkpt>
<trkpt lat="-26.8443892" lon="152.8698744">
<ele>147.183</ele>
<time>2017-06-11T00:39:46.732Z</time>
</trkpt>
<trkpt lat="-26.8443771" lon="152.8703492">
<ele>148.226</ele>
<time>2017-06-11T00:39:48.790Z</time>
</trkpt>
<trkpt lat="-26.8443370" lon="152.8709898">
<ele>149.467</ele>
<time>2017-06-11T00:39:51.560Z</time>
</trkpt>
<trkpt lat="-26.8443418" lon="152.8713777">
<ele>150.806</ele>
<time>2017-06-11T00:39:53.282Z</time>
</trkpt>
<trkpt lat="-26.8443970" lon="152.8717017">
<ele>152.148</ele>
<time>2017-06-11T00:39:54.759Z</time>
</trkpt>
<trkpt lat="-26.8446738" lon="152.8722106">
<ele>153.251</ele>
<time>2017-06-11T00:39:57.680Z</time>
</trkpt>
<trkpt lat="-26.8450054" lon="152.8727506">
<ele>154.147</ele>
<time>2017-06-11T00:40:01.161Z</time>
</trkpt>
<trkpt lat="-26.8453333" lon="152.8733290">
<ele>155.362</ele>
<time>2017-06-11T00:40:04.566Z</time>
</trkpt>
<trkpt lat="-26.8456332" lon="152.8738638">
<ele>157.170</ele>
<time>2017-06-11T00:40:07.499Z</time>
</trkpt>
<trkpt lat="-26.8458904" lon="152.8744036">
<ele>159.173</ele>
<time>2017-06-11T00:40:10.340Z</time>
</trkpt>
<trkpt lat="-26.8460731" lon="152.8747498">
<ele>160.697</ele>
<time>2017-06-11T00:40:12.237Z</time>
</trkpt>
<trkpt lat="-26.8462971" lon="152.8752980">
<ele>161.398</ele>
<time>2017-06-11T00:40:15.117Z</time>
</trkpt>
<trkpt lat="-26.8463551" lon="152.8757150">
<ele>161.472</ele>
<time>2017-06-11T00:40:17.169Z</time>
</trkpt>
<trkpt lat="-26.8464178" lon="152.8761264">
<ele>161.404</ele>
<time>2017-06-11T00:40:19.210Z</time>
</trkpt>
<trkpt lat="-26.8465220" lon="152.8767240">
<ele>161.653</ele>
<time>2017-06-11T00:40:22.129Z</time>
</trkpt>
<trkpt lat="-26.8465895" lon="152.8770927">
<ele>162.450</ele>
<time>2017-06-11T00:40:23.929Z</time>
</trkpt>
<trkpt lat="-26.8466352" lon="152.8776204">
<ele>163.522</ele>
<time>2017-06-11T00:40:26.514Z</time>
</trkpt>
<trkpt lat="-26.8466591" lon="152.8779230">
<ele>164.292</ele>
<time>2017-06-11T00:40:28.058Z</time>
</trkpt>
<trkpt lat="-26.8466340" lon="152.8783557">
<ele>164.446</ele>
<time>2017-06-11T00:40:30.410Z</time>
</trkpt>
<trkpt lat="-26.8465987" lon="152.8786015">
<ele>164.066</ele>
<time>2017-06-11T00:40:31.822Z</time>
</trkpt>
<trkpt lat="-26.8465565" lon="152.8789392">
<ele>163.421</ele>
<time>2017-06-11T00:40:33.893Z</time>
</trkpt>
<trkpt lat="-26.8465057" lon="152.8791103">
<ele>162.724</ele>
<time>2017-06-11T00:40:35.044Z</time>
</trkpt>
<trkpt lat="-26.8464999" lon="152.8792415">
<ele>161.993</ele>
<time>2017-06-11T00:40:35.882Z</time>
</trkpt>
<trkpt lat="-26.8464926" lon="152.8793982">
<ele>161.241</ele>
<time>2017-06-11T00:40:36.980Z</time>
</trkpt>
<trkpt lat="-26.8464502" lon="152.8796832">
<ele>160.625</ele>
<time>2017-06-11T00:40:39.149Z</time>
</trkpt>
<trkpt lat="-26.8464293" lon="152.8800950">
<ele>160.300</ele>
<time>2017-06-11T00:40:42.698Z</time>
</trkpt>
<trkpt lat="-26.8463794" lon="152.8803881">
<ele>160.455</ele>
<time>2017-06-11T00:40:46.464Z</time>
</trkpt>
<trkpt lat="-26.8463206" lon="152.8807002">
<ele>161.193</ele>
<time>2017-06-11T00:40:50.095Z</time>
</trkpt>
<trkpt lat="-26.8462740" lon="152.8811294">
<ele>162.257</ele>
<time>2017-06-11T00:40:53.405Z</time>
</trkpt>
<trkpt lat="-26.8462510" lon="152.8814192">
<ele>163.262</ele>
<time>2017-06-11T00:40:55.274Z</time>
</trkpt>
<trkpt lat="-26.8462031" lon="152.8817096">
<ele>164.076</ele>
<time>2017-06-11T00:40:57.167Z</time>
</trkpt>
<trkpt lat="-26.8461274" lon="152.8821266">
<ele>164.718</ele>
<time>2017-06-11T00:40:59.972Z</time>
</trkpt>
<trkpt lat="-26.8460048" lon="152.8823647">
<ele>165.253</ele>
<time>2017-06-11T00:41:01.842Z</time>
</trkpt>
<trkpt lat="-26.8458765" lon="152.8825720">
<ele>165.766</ele>
<time>2017-06-11T00:41:03.572Z</time>
</trkpt>
<trkpt lat="-26.8457288" lon="152.8827352">
<ele>166.238</ele>
<time>2017-06-11T00:41:05.186Z</time>
</trkpt>
<trkpt lat="-26.8456556" lon="152.8828284">
<ele>166.550</ele>
<time>2017-06-11T00:41:06.051Z</time>
</trkpt>
<trkpt lat="-26.8454934" lon="152.8829675">
<ele>166.600</ele>
<time>2017-06-11T00:41:07.706Z</time>
</trkpt>
<trkpt lat="-26.8453344" lon="152.8831281">
<ele>166.420</ele>
<time>2017-06-11T00:41:09.515Z</time>
</trkpt>
<trkpt lat="-26.8451663" lon="152.8832687">
<ele>166.163</ele>
<time>2017-06-11T00:41:11.423Z</time>
</trkpt>
<trkpt lat="-26.8450503" lon="152.8833456">
<ele>165.968</ele>
<time>2017-06-11T00:41:12.820Z</time>
</trkpt>
<trkpt lat="-26.8448960" lon="152.8834612">
<ele>165.785</ele>
<time>2017-06-11T00:41:15.163Z</time>
</trkpt>
<trkpt lat="-26.8447941" lon="152.8834104">
<ele>165.421</ele>
<time>2017-06-11T00:41:16.766Z</time>
</trkpt>
<trkpt lat="-26.8447240" lon="152.8833078">
<ele>164.734</ele>
<time>2017-06-11T00:41:18.216Z</time>
</trkpt>
<trkpt lat="-26.8446700" lon="152.8832249">
<ele>163.807</ele>
<time>2017-06-11T00:41:19.268Z</time>
</trkpt>
<trkpt lat="-26.8446196" lon="152.8831335">
<ele>162.875</ele>
<time>2017-06-11T00:41:20.196Z</time>
</trkpt>
<trkpt lat="-26.8445520" lon="152.8830343">
<ele>162.120</ele>
<time>2017-06-11T00:41:21.302Z</time>
</trkpt>
<trkpt lat="-26.8444766" lon="152.8829299">
<ele>161.568</ele>
<time>2017-06-11T00:41:22.579Z</time>
</trkpt>
<trkpt lat="-26.8443553" lon="152.8827995">
<ele>161.217</ele>
<time>2017-06-11T00:41:24.804Z</time>
</trkpt>
<trkpt lat="-26.8442335" lon="152.8826043">
<ele>161.069</ele>
<time>2017-06-11T00:41:28.681Z</time>
</trkpt>
<trkpt lat="-26.8439953" lon="152.8822888">
<ele>161.074</ele>
<time>2017-06-11T00:41:38.652Z</time>
</trkpt>
<trkpt lat="-26.8437520" lon="152.8819743">
<ele>161.127</ele>
<time>2017-06-11T00:41:45.860Z</time>
</trkpt>
<trkpt lat="-26.8434631" lon="152.8816710">
<ele>161.101</ele>
<time>2017-06-11T00:41:49.642Z</time>
</trkpt>
<trkpt lat="-26.8432327" lon="152.8815015">
<ele>160.887</ele>
<time>2017-06-11T00:41:51.879Z</time>
</trkpt>
<trkpt lat="-26.8428553" lon="152.8812857">
<ele>160.513</ele>
<time>2017-06-11T00:41:55.208Z</time>
</trkpt>
<trkpt lat="-26.8424716" lon="152.8811569">
<ele>160.110</ele>
<time>2017-06-11T00:41:58.246Z</time>
</trkpt>
<trkpt lat="-26.8422079" lon="152.8811055">
<ele>159.702</ele>
<time>2017-06-11T00:42:00.214Z</time>
</trkpt>
<trkpt lat="-26.8418079" lon="152.8810678">
<ele>159.233</ele>
<time>2017-06-11T00:42:03.183Z</time>
</trkpt>
<trkpt lat="-26.8414760" lon="152.8810339">
<ele>158.664</ele>
<time>2017-06-11T00:42:05.696Z</time>
</trkpt>
<trkpt lat="-26.8411731" lon="152.8809503">
<ele>157.822</ele>
<time>2017-06-11T00:42:08.048Z</time>
</trkpt>
<trkpt lat="-26.8409468" lon="152.8809052">
<ele>156.429</ele>
<time>2017-06-11T00:42:09.832Z</time>
</trkpt>
<trkpt lat="-26.8407847" lon="152.8809487">
<ele>154.451</ele>
<time>2017-06-11T00:42:11.174Z</time>
</trkpt>
<trkpt lat="-26.8406704" lon="152.8810306">
<ele>152.183</ele>
<time>2017-06-11T00:42:12.306Z</time>
</trkpt>
<trkpt lat="-26.8404876" lon="152.8811919">
<ele>150.232</ele>
<time>2017-06-11T00:42:14.456Z</time>
</trkpt>
<trkpt lat="-26.8401497" lon="152.8811741">
<ele>149.146</ele>
<time>2017-06-11T00:42:18.170Z</time>
</trkpt>
<trkpt lat="-26.8399278" lon="152.8811500">
<ele>149.041</ele>
<time>2017-06-11T00:42:21.600Z</time>
</trkpt>
<trkpt lat="-26.8396856" lon="152.8811319">
<ele>149.661</ele>
<time>2017-06-11T00:42:25.130Z</time>
</trkpt>
<trkpt lat="-26.8394382" lon="152.8811294">
<ele>150.621</ele>
<time>2017-06-11T00:42:27.915Z</time>
</trkpt>
<trkpt lat="-26.8391922" lon="152.8811329">
<ele>151.624</ele>
<time>2017-06-11T00:42:30.291Z</time>
</trkpt>
<trkpt lat="-26.8387965" lon="152.8811411">
<ele>152.549</ele>
<time>2017-06-11T00:42:33.816Z</time>
</trkpt>
<trkpt lat="-26.8385111" lon="152.8811362">
<ele>153.373</ele>
<time>2017-06-11T00:42:36.243Z</time>
</trkpt>
<trkpt lat="-26.8382018" lon="152.8810966">
<ele>154.152</ele>
<time>2017-06-11T00:42:38.739Z</time>
</trkpt>
<trkpt lat="-26.8377488" lon="152.8810041">
<ele>154.919</ele>
<time>2017-06-11T00:42:42.214Z</time>
</trkpt>
<trkpt lat="-26.8372924" lon="152.8808842">
<ele>155.687</ele>
<time>2017-06-11T00:42:45.388Z</time>
</trkpt>
<trkpt lat="-26.8368401" lon="152.8807540">
<ele>156.488</ele>
<time>2017-06-11T00:42:48.416Z</time>
</trkpt>
<trkpt lat="-26.8365362" lon="152.8806431">
<ele>157.285</ele>
<time>2017-06-11T00:42:50.456Z</time>
</trkpt>
<trkpt lat="-26.8361227" lon="152.8803675">
<ele>157.945</ele>
<time>2017-06-11T00:42:53.506Z</time>
</trkpt>
<trkpt lat="-26.8358221" lon="152.8801846">
<ele>158.357</ele>
<time>2017-06-11T00:42:55.648Z</time>
</trkpt>
<trkpt lat="-26.8353788" lon="152.8799815">
<ele>158.603</ele>
<time>2017-06-11T00:42:58.575Z</time>
</trkpt>
<trkpt lat="-26.8348908" lon="152.8798221">
<ele>158.934</ele>
<time>2017-06-11T00:43:01.602Z</time>
</trkpt>
<trkpt lat="-26.8345860" lon="152.8797187">
<ele>159.468</ele>
<time>2017-06-11T00:43:03.501Z</time>
</trkpt>
<trkpt lat="-26.8341922" lon="152.8794757">
<ele>160.012</ele>
<time>2017-06-11T00:43:06.200Z</time>
</trkpt>
<trkpt lat="-26.8338057" lon="152.8793010">
<ele>160.167</ele>
<time>2017-06-11T00:43:08.784Z</time>
</trkpt>
<trkpt lat="-26.8335522" lon="152.8791177">
<ele>159.722</ele>
<time>2017-06-11T00:43:10.731Z</time>
</trkpt>
<trkpt lat="-26.8331295" lon="152.8789348">
<ele>158.925</ele>
<time>2017-06-11T00:43:13.819Z</time>
</trkpt>
<trkpt lat="-26.8327208" lon="152.8787554">
<ele>158.059</ele>
<time>2017-06-11T00:43:16.861Z</time>
</trkpt>
<trkpt lat="-26.8324604" lon="152.8785915">
<ele>156.923</ele>
<time>2017-06-11T00:43:18.889Z</time>
</trkpt>
<trkpt lat="-26.8320779" lon="152.8784164">
<ele>155.363</ele>
<time>2017-06-11T00:43:21.666Z</time>
</trkpt>
<trkpt lat="-26.8317221" lon="152.8783172">
<ele>153.556</ele>
<time>2017-06-11T00:43:24.138Z</time>
</trkpt>
<trkpt lat="-26.8314732" lon="152.8783420">
<ele>151.640</ele>
<time>2017-06-11T00:43:25.878Z</time>
</trkpt>
<trkpt lat="-26.8310286" lon="152.8784591">
<ele>149.791</ele>
<time>2017-06-11T00:43:29.261Z</time>
</trkpt>
<trkpt lat="-26.8306870" lon="152.8785761">
<ele>148.188</ele>
<time>2017-06-11T00:43:32.077Z</time>
</trkpt>
<trkpt lat="-26.8301798" lon="152.8787624">
<ele>146.849</ele>
<time>2017-06-11T00:43:35.799Z</time>
</trkpt>
<trkpt lat="-26.8298470" lon="152.8788899">
<ele>145.774</ele>
<time>2017-06-11T00:43:37.906Z</time>
</trkpt>
<trkpt lat="-26.8294179" lon="152.8790613">
<ele>144.981</ele>
<time>2017-06-11T00:43:40.555Z</time>
</trkpt>
<trkpt lat="-26.8291485" lon="152.8792006">
<ele>144.425</ele>
<time>2017-06-11T00:43:42.314Z</time>
</trkpt>
<trkpt lat="-26.8289187" lon="152.8794327">
<ele>144.023</ele>
<time>2017-06-11T00:43:44.191Z</time>
</trkpt>
<trkpt lat="-26.8286116" lon="152.8798787">
<ele>143.728</ele>
<time>2017-06-11T00:43:47.336Z</time>
</trkpt>
<trkpt lat="-26.8283713" lon="152.8801940">
<ele>143.681</ele>
<time>2017-06-11T00:43:49.681Z</time>
</trkpt>
<trkpt lat="-26.8281138" lon="152.8807142">
<ele>144.131</ele>
<time>2017-06-11T00:43:52.902Z</time>
</trkpt>
<trkpt lat="-26.8278856" lon="152.8810130">
<ele>145.347</ele>
<time>2017-06-11T00:43:54.891Z</time>
</trkpt>
<trkpt lat="-26.8276582" lon="152.8813248">
<ele>147.202</ele>
<time>2017-06-11T00:43:56.887Z</time>
</trkpt>
<trkpt lat="-26.8272745" lon="152.8817045">
<ele>149.019</ele>
<time>2017-06-11T00:43:59.776Z</time>
</trkpt>
<trkpt lat="-26.8269996" lon="152.8819517">
<ele>150.345</ele>
<time>2017-06-11T00:44:01.780Z</time>
</trkpt>
<trkpt lat="-26.8265361" lon="152.8823367">
<ele>151.423</ele>
<time>2017-06-11T00:44:05.045Z</time>
</trkpt>
<trkpt lat="-26.8262544" lon="152.8825767">
<ele>152.724</ele>
<time>2017-06-11T00:44:07.031Z</time>
</trkpt>
<trkpt lat="-26.8258949" lon="152.8828784">
<ele>154.292</ele>
<time>2017-06-11T00:44:09.535Z</time>
</trkpt>
<trkpt lat="-26.8255964" lon="152.8829991">
<ele>155.678</ele>
<time>2017-06-11T00:44:11.314Z</time>
</trkpt>
<trkpt lat="-26.8251389" lon="152.8831127">
<ele>156.572</ele>
<time>2017-06-11T00:44:14.129Z</time>
</trkpt>
<trkpt lat="-26.8248124" lon="152.8830394">
<ele>157.282</ele>
<time>2017-06-11T00:44:16.319Z</time>
</trkpt>
<trkpt lat="-26.8245110" lon="152.8829190">
<ele>158.348</ele>
<time>2017-06-11T00:44:18.424Z</time>
</trkpt>
<trkpt lat="-26.8242086" lon="152.8827912">
<ele>160.050</ele>
<time>2017-06-11T00:44:20.501Z</time>
</trkpt>
<trkpt lat="-26.8238998" lon="152.8826960">
<ele>162.264</ele>
<time>2017-06-11T00:44:22.498Z</time>
</trkpt>
<trkpt lat="-26.8234541" lon="152.8825166">
<ele>164.582</ele>
<time>2017-06-11T00:44:25.424Z</time>
</trkpt>
<trkpt lat="-26.8229928" lon="152.8823517">
<ele>166.504</ele>
<time>2017-06-11T00:44:28.484Z</time>
</trkpt>
<trkpt lat="-26.8226772" lon="152.8822711">
<ele>167.704</ele>
<time>2017-06-11T00:44:30.540Z</time>
</trkpt>
<trkpt lat="-26.8221790" lon="152.8821726">
<ele>168.100</ele>
<time>2017-06-11T00:44:33.719Z</time>
</trkpt>
<trkpt lat="-26.8218775" lon="152.8822008">
<ele>167.932</ele>
<time>2017-06-11T00:44:35.573Z</time>
</trkpt>
<trkpt lat="-26.8214561" lon="152.8823195">
<ele>167.764</ele>
<time>2017-06-11T00:44:38.201Z</time>
</trkpt>
<trkpt lat="-26.8212213" lon="152.8824730">
<ele>168.213</ele>
<time>2017-06-11T00:44:39.881Z</time>
</trkpt>
<trkpt lat="-26.8208332" lon="152.8827874">
<ele>169.450</ele>
<time>2017-06-11T00:44:43.084Z</time>
</trkpt>
<trkpt lat="-26.8206005" lon="152.8830193">
<ele>171.330</ele>
<time>2017-06-11T00:44:45.290Z</time>
</trkpt>
<trkpt lat="-26.8203273" lon="152.8831713">
<ele>173.585</ele>
<time>2017-06-11T00:44:47.335Z</time>
</trkpt>
<trkpt lat="-26.8198430" lon="152.8832366">
<ele>175.724</ele>
<time>2017-06-11T00:44:50.507Z</time>
</trkpt>
<trkpt lat="-26.8193422" lon="152.8832961">
<ele>177.400</ele>
<time>2017-06-11T00:44:53.807Z</time>
</trkpt>
<trkpt lat="-26.8189696" lon="152.8832142">
<ele>178.695</ele>
<time>2017-06-11T00:44:56.191Z</time>
</trkpt>
<trkpt lat="-26.8184462" lon="152.8830876">
<ele>179.793</ele>
<time>2017-06-11T00:44:59.414Z</time>
</trkpt>
<trkpt lat="-26.8179223" lon="152.8829960">
<ele>181.153</ele>
<time>2017-06-11T00:45:02.493Z</time>
</trkpt>
<trkpt lat="-26.8174506" lon="152.8828149">
<ele>183.479</ele>
<time>2017-06-11T00:45:05.365Z</time>
</trkpt>
<trkpt lat="-26.8170462" lon="152.8824904">
<ele>187.068</ele>
<time>2017-06-11T00:45:08.293Z</time>
</trkpt>
<trkpt lat="-26.8167255" lon="152.8820586">
<ele>191.578</ele>
<time>2017-06-11T00:45:11.337Z</time>
</trkpt>
<trkpt lat="-26.8164650" lon="152.8816018">
<ele>196.509</ele>
<time>2017-06-11T00:45:14.291Z</time>
</trkpt>
<trkpt lat="-26.8161182" lon="152.8812230">
<ele>201.555</ele>
<time>2017-06-11T00:45:17.257Z</time>
</trkpt>
<trkpt lat="-26.8158770" lon="152.8810164">
<ele>206.536</ele>
<time>2017-06-11T00:45:19.136Z</time>
</trkpt>
<trkpt lat="-26.8155918" lon="152.8808562">
<ele>210.975</ele>
<time>2017-06-11T00:45:21.124Z</time>
</trkpt>
<trkpt lat="-26.8151252" lon="152.8807789">
<ele>214.477</ele>
<time>2017-06-11T00:45:24.118Z</time>
</trkpt>
<trkpt lat="-26.8148040" lon="152.8807627">
<ele>217.340</ele>
<time>2017-06-11T00:45:26.154Z</time>
</trkpt>
<trkpt lat="-26.8143350" lon="152.8809464">
<ele>219.926</ele>
<time>2017-06-11T00:45:29.277Z</time>
</trkpt>
<trkpt lat="-26.8140336" lon="152.8811105">
<ele>222.187</ele>
<time>2017-06-11T00:45:31.348Z</time>
</trkpt>
<trkpt lat="-26.8136008" lon="152.8815564">
<ele>224.050</ele>
<time>2017-06-11T00:45:34.906Z</time>
</trkpt>
<trkpt lat="-26.8132597" lon="152.8821338">
<ele>225.507</ele>
<time>2017-06-11T00:45:38.510Z</time>
</trkpt>
<trkpt lat="-26.8130581" lon="152.8824149">
<ele>226.509</ele>
<time>2017-06-11T00:45:40.321Z</time>
</trkpt>
<trkpt lat="-26.8129044" lon="152.8827577">
<ele>227.007</ele>
<time>2017-06-11T00:45:42.246Z</time>
</trkpt>
<trkpt lat="-26.8128200" lon="152.8831330">
<ele>226.948</ele>
<time>2017-06-11T00:45:44.242Z</time>
</trkpt>
<trkpt lat="-26.8126164" lon="152.8836622">
<ele>226.276</ele>
<time>2017-06-11T00:45:47.305Z</time>
</trkpt>
<trkpt lat="-26.8123840" lon="152.8839563">
<ele>224.875</ele>
<time>2017-06-11T00:45:49.409Z</time>
</trkpt>
<trkpt lat="-26.8121275" lon="152.8842344">
<ele>222.863</ele>
<time>2017-06-11T00:45:51.514Z</time>
</trkpt>
<trkpt lat="-26.8118482" lon="152.8846972">
<ele>220.658</ele>
<time>2017-06-11T00:45:54.364Z</time>
</trkpt>
<trkpt lat="-26.8115659" lon="152.8850880">
<ele>218.592</ele>
<time>2017-06-11T00:45:56.995Z</time>
</trkpt>
<trkpt lat="-26.8113004" lon="152.8852054">
<ele>216.586</ele>
<time>2017-06-11T00:45:58.800Z</time>
</trkpt>
<trkpt lat="-26.8108531" lon="152.8853112">
<ele>214.438</ele>
<time>2017-06-11T00:46:01.799Z</time>
</trkpt>
<trkpt lat="-26.8105370" lon="152.8853940">
<ele>211.835</ele>
<time>2017-06-11T00:46:04.002Z</time>
</trkpt>
<trkpt lat="-26.8102995" lon="152.8856452">
<ele>208.599</ele>
<time>2017-06-11T00:46:06.228Z</time>
</trkpt>
<trkpt lat="-26.8100427" lon="152.8861252">
<ele>205.152</ele>
<time>2017-06-11T00:46:09.705Z</time>
</trkpt>
<trkpt lat="-26.8099198" lon="152.8864774">
<ele>202.240</ele>
<time>2017-06-11T00:46:11.936Z</time>
</trkpt>
<trkpt lat="-26.8098314" lon="152.8869043">
<ele>200.322</ele>
<time>2017-06-11T00:46:14.359Z</time>
</trkpt>
<trkpt lat="-26.8098747" lon="152.8872112">
<ele>199.370</ele>
<time>2017-06-11T00:46:16.236Z</time>
</trkpt>
<trkpt lat="-26.8098632" lon="152.8875241">
<ele>198.929</ele>
<time>2017-06-11T00:46:18.255Z</time>
</trkpt>
<trkpt lat="-26.8096303" lon="152.8879089">
<ele>198.627</ele>
<time>2017-06-11T00:46:21.356Z</time>
</trkpt>
<trkpt lat="-26.8094578" lon="152.8881467">
<ele>198.411</ele>
<time>2017-06-11T00:46:23.353Z</time>
</trkpt>
<trkpt lat="-26.8092698" lon="152.8885907">
<ele>198.429</ele>
<time>2017-06-11T00:46:26.581Z</time>
</trkpt>
<trkpt lat="-26.8091371" lon="152.8888649">
<ele>198.895</ele>
<time>2017-06-11T00:46:28.627Z</time>
</trkpt>
<trkpt lat="-26.8089046" lon="152.8890567">
<ele>199.770</ele>
<time>2017-06-11T00:46:30.665Z</time>
</trkpt>
<trkpt lat="-26.8086557" lon="152.8892488">
<ele>200.754</ele>
<time>2017-06-11T00:46:32.771Z</time>
</trkpt>
<trkpt lat="-26.8083118" lon="152.8894978">
<ele>201.656</ele>
<time>2017-06-11T00:46:35.639Z</time>
</trkpt>
<trkpt lat="-26.8081954" lon="152.8897080">
<ele>202.551</ele>
<time>2017-06-11T00:46:37.207Z</time>
</trkpt>
<trkpt lat="-26.8081657" lon="152.8899096">
<ele>203.550</ele>
<time>2017-06-11T00:46:38.566Z</time>
</trkpt>
<trkpt lat="-26.8083046" lon="152.8902370">
<ele>204.594</ele>
<time>2017-06-11T00:46:41.388Z</time>
</trkpt>
<trkpt lat="-26.8084219" lon="152.8905082">
<ele>205.670</ele>
<time>2017-06-11T00:46:43.968Z</time>
</trkpt>
<trkpt lat="-26.8084880" lon="152.8907995">
<ele>206.867</ele>
<time>2017-06-11T00:46:46.313Z</time>
</trkpt>
<trkpt lat="-26.8084548" lon="152.8910950">
<ele>208.159</ele>
<time>2017-06-11T00:46:48.364Z</time>
</trkpt>
<trkpt lat="-26.8084100" lon="152.8913686">
<ele>209.556</ele>
<time>2017-06-11T00:46:50.218Z</time>
</trkpt>
<trkpt lat="-26.8085935" lon="152.8917712">
<ele>211.165</ele>
<time>2017-06-11T00:46:53.377Z</time>
</trkpt>
<trkpt lat="-26.8087451" lon="152.8921336">
<ele>213.116</ele>
<time>2017-06-11T00:46:56.252Z</time>
</trkpt>
<trkpt lat="-26.8085877" lon="152.8925065">
<ele>215.375</ele>
<time>2017-06-11T00:46:59.291Z</time>
</trkpt>
<trkpt lat="-26.8084152" lon="152.8929212">
<ele>217.660</ele>
<time>2017-06-11T00:47:02.717Z</time>
</trkpt>
<trkpt lat="-26.8083299" lon="152.8932198">
<ele>219.801</ele>
<time>2017-06-11T00:47:04.873Z</time>
</trkpt>
<trkpt lat="-26.8081770" lon="152.8936664">
<ele>221.781</ele>
<time>2017-06-11T00:47:07.922Z</time>
</trkpt>
<trkpt lat="-26.8079288" lon="152.8940104">
<ele>223.635</ele>
<time>2017-06-11T00:47:10.741Z</time>
</trkpt>
<trkpt lat="-26.8077921" lon="152.8943623">
<ele>225.487</ele>
<time>2017-06-11T00:47:13.306Z</time>
</trkpt>
<trkpt lat="-26.8077006" lon="152.8947432">
<ele>227.264</ele>
<time>2017-06-11T00:47:16.222Z</time>
</trkpt>
<trkpt lat="-26.8076491" lon="152.8950552">
<ele>228.760</ele>
<time>2017-06-11T00:47:18.507Z</time>
</trkpt>
<trkpt lat="-26.8076228" lon="152.8954766">
<ele>230.077</ele>
<time>2017-06-11T00:47:21.316Z</time>
</trkpt>
<trkpt lat="-26.8075025" lon="152.8958692">
<ele>231.649</ele>
<time>2017-06-11T00:47:24.199Z</time>
</trkpt>
<trkpt lat="-26.8073332" lon="152.8962500">
<ele>233.836</ele>
<time>2017-06-11T00:47:27.277Z</time>
</trkpt>
<trkpt lat="-26.8072194" lon="152.8964280">
<ele>236.529</ele>
<time>2017-06-11T00:47:28.843Z</time>
</trkpt>
<trkpt lat="-26.8071603" lon="152.8966145">
<ele>239.152</ele>
<time>2017-06-11T00:47:30.335Z</time>
</trkpt>
<trkpt lat="-26.8072663" lon="152.8969532">
<ele>241.167</ele>
<time>2017-06-11T00:47:33.544Z</time>
</trkpt>
<trkpt lat="-26.8073445" lon="152.8971633">
<ele>242.743</ele>
<time>2017-06-11T00:47:35.749Z</time>
</trkpt>
<trkpt lat="-26.8073125" lon="152.8974394">
<ele>244.445</ele>
<time>2017-06-11T00:47:38.312Z</time>
</trkpt>
<trkpt lat="-26.8070342" lon="152.8976991">
<ele>246.619</ele>
<time>2017-06-11T00:47:42.187Z</time>
</trkpt>
<trkpt lat="-26.8068130" lon="152.8978908">
<ele>249.433</ele>
<time>2017-06-11T00:47:44.750Z</time>
</trkpt>
<trkpt lat="-26.8064870" lon="152.8981607">
<ele>252.576</ele>
<time>2017-06-11T00:47:47.872Z</time>
</trkpt>
<trkpt lat="-26.8061084" lon="152.8983143">
<ele>255.221</ele>
<time>2017-06-11T00:47:51.001Z</time>
</trkpt>
<trkpt lat="-26.8058791" lon="152.8984032">
<ele>256.814</ele>
<time>2017-06-11T00:47:52.953Z</time>
</trkpt>
<trkpt lat="-26.8056430" lon="152.8987791">
<ele>257.388</ele>
<time>2017-06-11T00:47:56.162Z</time>
</trkpt>
<trkpt lat="-26.8055067" lon="152.8992262">
<ele>257.337</ele>
<time>2017-06-11T00:47:59.170Z</time>
</trkpt>
<trkpt lat="-26.8053643" lon="152.8995679">
<ele>257.359</ele>
<time>2017-06-11T00:48:01.466Z</time>
</trkpt>
<trkpt lat="-26.8050903" lon="152.8999774">
<ele>257.978</ele>
<time>2017-06-11T00:48:04.534Z</time>
</trkpt>
<trkpt lat="-26.8048372" lon="152.9003982">
<ele>259.213</ele>
<time>2017-06-11T00:48:07.642Z</time>
</trkpt>
<trkpt lat="-26.8046681" lon="152.9006108">
<ele>261.041</ele>
<time>2017-06-11T00:48:09.468Z</time>
</trkpt>
<trkpt lat="-26.8044067" lon="152.9008303">
<ele>263.478</ele>
<time>2017-06-11T00:48:11.836Z</time>
</trkpt>
<trkpt lat="-26.8040053" lon="152.9010854">
<ele>266.229</ele>
<time>2017-06-11T00:48:15.045Z</time>
</trkpt>
<trkpt lat="-26.8036577" lon="152.9014013">
<ele>269.123</ele>
<time>2017-06-11T00:48:18.100Z</time>
</trkpt>
<trkpt lat="-26.8033269" lon="152.9018624">
<ele>272.186</ele>
<time>2017-06-11T00:48:21.344Z</time>
</trkpt>
<trkpt lat="-26.8029622" lon="152.9022990">
<ele>275.145</ele>
<time>2017-06-11T00:48:24.377Z</time>
</trkpt>
<trkpt lat="-26.8026846" lon="152.9024735">
<ele>277.614</ele>
<time>2017-06-11T00:48:26.257Z</time>
</trkpt>
<trkpt lat="-26.8022880" lon="152.9026603">
<ele>279.428</ele>
<time>2017-06-11T00:48:29.030Z</time>
</trkpt>
<trkpt lat="-26.8020693" lon="152.9027920">
<ele>280.681</ele>
<time>2017-06-11T00:48:30.837Z</time>
</trkpt>
<trkpt lat="-26.8018685" lon="152.9031117">
<ele>281.587</ele>
<time>2017-06-11T00:48:33.639Z</time>
</trkpt>
<trkpt lat="-26.8018134" lon="152.9033732">
<ele>282.322</ele>
<time>2017-06-11T00:48:35.685Z</time>
</trkpt>
<trkpt lat="-26.8019149" lon="152.9037812">
<ele>283.093</ele>
<time>2017-06-11T00:48:38.841Z</time>
</trkpt>
<trkpt lat="-26.8019862" lon="152.9042077">
<ele>284.366</ele>
<time>2017-06-11T00:48:41.885Z</time>
</trkpt>
<trkpt lat="-26.8018250" lon="152.9045258">
<ele>286.448</ele>
<time>2017-06-11T00:48:44.610Z</time>
</trkpt>
<trkpt lat="-26.8016369" lon="152.9046450">
<ele>288.950</ele>
<time>2017-06-11T00:48:46.568Z</time>
</trkpt>
<trkpt lat="-26.8013928" lon="152.9047178">
<ele>291.112</ele>
<time>2017-06-11T00:48:48.774Z</time>
</trkpt>
<trkpt lat="-26.8010074" lon="152.9049076">
<ele>292.564</ele>
<time>2017-06-11T00:48:51.972Z</time>
</trkpt>
<trkpt lat="-26.8007672" lon="152.9050691">
<ele>293.328</ele>
<time>2017-06-11T00:48:53.962Z</time>
</trkpt>
<trkpt lat="-26.8004679" lon="152.9054234">
<ele>293.452</ele>
<time>2017-06-11T00:48:56.994Z</time>
</trkpt>
<trkpt lat="-26.8002708" lon="152.9058698">
<ele>292.984</ele>
<time>2017-06-11T00:49:00.078Z</time>
</trkpt>
<trkpt lat="-26.8002600" lon="152.9063482">
<ele>292.255</ele>
<time>2017-06-11T00:49:03.109Z</time>
</trkpt>
<trkpt lat="-26.8002754" lon="152.9067962">
<ele>291.715</ele>
<time>2017-06-11T00:49:06.023Z</time>
</trkpt>
<trkpt lat="-26.8003267" lon="152.9070886">
<ele>291.511</ele>
<time>2017-06-11T00:49:08.002Z</time>
</trkpt>
<trkpt lat="-26.8004555" lon="152.9075155">
<ele>291.429</ele>
<time>2017-06-11T00:49:11.047Z</time>
</trkpt>
<trkpt lat="-26.8004137" lon="152.9077715">
<ele>290.951</ele>
<time>2017-06-11T00:49:12.866Z</time>
</trkpt>
<trkpt lat="-26.8003299" lon="152.9080491">
<ele>289.737</ele>
<time>2017-06-11T00:49:14.947Z</time>
</trkpt>
<trkpt lat="-26.8001206" lon="152.9084247">
<ele>288.166</ele>
<time>2017-06-11T00:49:17.980Z</time>
</trkpt>
<trkpt lat="-26.7997518" lon="152.9086791">
<ele>286.943</ele>
<time>2017-06-11T00:49:21.097Z</time>
</trkpt>
<trkpt lat="-26.7994697" lon="152.9088114">
<ele>286.394</ele>
<time>2017-06-11T00:49:23.177Z</time>
</trkpt>
<trkpt lat="-26.7992094" lon="152.9089689">
<ele>286.482</ele>
<time>2017-06-11T00:49:25.169Z</time>
</trkpt>
<trkpt lat="-26.7988558" lon="152.9091299">
<ele>287.105</ele>
<time>2017-06-11T00:49:27.919Z</time>
</trkpt>
<trkpt lat="-26.7986172" lon="152.9091616">
<ele>288.302</ele>
<time>2017-06-11T00:49:29.852Z</time>
</trkpt>
<trkpt lat="-26.7982284" lon="152.9090560">
<ele>290.064</ele>
<time>2017-06-11T00:49:33.015Z</time>
</trkpt>
<trkpt lat="-26.7979213" lon="152.9089816">
<ele>292.281</ele>
<time>2017-06-11T00:49:35.223Z</time>
</trkpt>
<trkpt lat="-26.7974362" lon="152.9088870">
<ele>294.652</ele>
<time>2017-06-11T00:49:38.394Z</time>
</trkpt>
<trkpt lat="-26.7969678" lon="152.9087233">
<ele>296.572</ele>
<time>2017-06-11T00:49:41.425Z</time>
</trkpt>
<trkpt lat="-26.7965355" lon="152.9084592">
<ele>297.723</ele>
<time>2017-06-11T00:49:44.446Z</time>
</trkpt>
<trkpt lat="-26.7961371" lon="152.9081768">
<ele>298.813</ele>
<time>2017-06-11T00:49:47.377Z</time>
</trkpt>
<trkpt lat="-26.7957515" lon="152.9078859">
<ele>300.915</ele>
<time>2017-06-11T00:49:50.346Z</time>
</trkpt>
<trkpt lat="-26.7954042" lon="152.9076056">
<ele>304.257</ele>
<time>2017-06-11T00:49:53.216Z</time>
</trkpt>
<trkpt lat="-26.7951941" lon="152.9074565">
<ele>307.766</ele>
<time>2017-06-11T00:49:55.033Z</time>
</trkpt>
<trkpt lat="-26.7950055" lon="152.9071928">
<ele>310.103</ele>
<time>2017-06-11T00:49:57.645Z</time>
</trkpt>
<trkpt lat="-26.7950059" lon="152.9067809">
<ele>311.243</ele>
<time>2017-06-11T00:50:00.961Z</time>
</trkpt>
<trkpt lat="-26.7951143" lon="152.9063653">
<ele>312.303</ele>
<time>2017-06-11T00:50:04.079Z</time>
</trkpt>
<trkpt lat="-26.7950316" lon="152.9059345">
<ele>314.039</ele>
<time>2017-06-11T00:50:07.242Z</time>
</trkpt>
<trkpt lat="-26.7947470" lon="152.9056420">
<ele>316.724</ele>
<time>2017-06-11T00:50:10.375Z</time>
</trkpt>
<trkpt lat="-26.7944978" lon="152.9054910">
<ele>320.292</ele>
<time>2017-06-11T00:50:12.454Z</time>
</trkpt>
<trkpt lat="-26.7940926" lon="152.9052945">
<ele>323.998</ele>
<time>2017-06-11T00:50:15.477Z</time>
</trkpt>
<trkpt lat="-26.7938347" lon="152.9052413">
<ele>326.976</ele>
<time>2017-06-11T00:50:17.293Z</time>
</trkpt>
<trkpt lat="-26.7934605" lon="152.9053742">
<ele>328.842</ele>
<time>2017-06-11T00:50:20.070Z</time>
</trkpt>
<trkpt lat="-26.7930248" lon="152.9056521">
<ele>329.640</ele>
<time>2017-06-11T00:50:23.317Z</time>
</trkpt>
<trkpt lat="-26.7926234" lon="152.9060380">
<ele>329.910</ele>
<time>2017-06-11T00:50:26.443Z</time>
</trkpt>
<trkpt lat="-26.7922757" lon="152.9064857">
<ele>330.166</ele>
<time>2017-06-11T00:50:29.581Z</time>
</trkpt>
<trkpt lat="-26.7920756" lon="152.9067854">
<ele>330.272</ele>
<time>2017-06-11T00:50:31.621Z</time>
</trkpt>
<trkpt lat="-26.7918888" lon="152.9072960">
<ele>329.923</ele>
<time>2017-06-11T00:50:34.571Z</time>
</trkpt>
<trkpt lat="-26.7917662" lon="152.9077715">
<ele>329.331</ele>
<time>2017-06-11T00:50:36.994Z</time>
</trkpt>
<trkpt lat="-26.7916011" lon="152.9083675">
<ele>328.937</ele>
<time>2017-06-11T00:50:39.971Z</time>
</trkpt>
<trkpt lat="-26.7915100" lon="152.9087921">
<ele>328.926</ele>
<time>2017-06-11T00:50:42.160Z</time>
</trkpt>
<trkpt lat="-26.7913807" lon="152.9093112">
<ele>329.262</ele>
<time>2017-06-11T00:50:45.093Z</time>
</trkpt>
<trkpt lat="-26.7913711" lon="152.9096272">
<ele>329.974</ele>
<time>2017-06-11T00:50:47.009Z</time>
</trkpt>
<trkpt lat="-26.7914785" lon="152.9100914">
<ele>331.151</ele>
<time>2017-06-11T00:50:50.002Z</time>
</trkpt>
<trkpt lat="-26.7915082" lon="152.9104191">
<ele>332.840</ele>
<time>2017-06-11T00:50:52.079Z</time>
</trkpt>
<trkpt lat="-26.7913584" lon="152.9108375">
<ele>334.864</ele>
<time>2017-06-11T00:50:54.857Z</time>
</trkpt>
<trkpt lat="-26.7910502" lon="152.9112726">
<ele>336.922</ele>
<time>2017-06-11T00:50:58.015Z</time>
</trkpt>
<trkpt lat="-26.7908988" lon="152.9116183">
<ele>338.984</ele>
<time>2017-06-11T00:51:00.068Z</time>
</trkpt>
<trkpt lat="-26.7908067" lon="152.9119943">
<ele>341.107</ele>
<time>2017-06-11T00:51:02.069Z</time>
</trkpt>
<trkpt lat="-26.7907767" lon="152.9126192">
<ele>343.139</ele>
<time>2017-06-11T00:51:05.113Z</time>
</trkpt>
<trkpt lat="-26.7907603" lon="152.9130631">
<ele>345.107</ele>
<time>2017-06-11T00:51:07.150Z</time>
</trkpt>
<trkpt lat="-26.7907442" lon="152.9135026">
<ele>347.097</ele>
<time>2017-06-11T00:51:09.192Z</time>
</trkpt>
<trkpt lat="-26.7906519" lon="152.9140996">
<ele>348.994</ele>
<time>2017-06-11T00:51:12.133Z</time>
</trkpt>
<trkpt lat="-26.7906587" lon="152.9146551">
<ele>350.903</ele>
<time>2017-06-11T00:51:14.994Z</time>
</trkpt>
<trkpt lat="-26.7907554" lon="152.9150317">
<ele>353.163</ele>
<time>2017-06-11T00:51:17.039Z</time>
</trkpt>
<trkpt lat="-26.7908664" lon="152.9155880">
<ele>355.725</ele>
<time>2017-06-11T00:51:19.974Z</time>
</trkpt>
<trkpt lat="-26.7909272" lon="152.9161798">
<ele>358.346</ele>
<time>2017-06-11T00:51:23.004Z</time>
</trkpt>
<trkpt lat="-26.7909525" lon="152.9165623">
<ele>360.993</ele>
<time>2017-06-11T00:51:24.933Z</time>
</trkpt>
<trkpt lat="-26.7910766" lon="152.9171526">
<ele>363.466</ele>
<time>2017-06-11T00:51:27.940Z</time>
</trkpt>
<trkpt lat="-26.7912354" lon="152.9177356">
<ele>365.430</ele>
<time>2017-06-11T00:51:30.956Z</time>
</trkpt>
<trkpt lat="-26.7914521" lon="152.9182382">
<ele>366.892</ele>
<time>2017-06-11T00:51:33.854Z</time>
</trkpt>
<trkpt lat="-26.7915783" lon="152.9185395">
<ele>368.062</ele>
<time>2017-06-11T00:51:35.749Z</time>
</trkpt>
<trkpt lat="-26.7916014" lon="152.9188425">
<ele>369.033</ele>
<time>2017-06-11T00:51:37.652Z</time>
</trkpt>
<trkpt lat="-26.7915323" lon="152.9192562">
<ele>369.829</ele>
<time>2017-06-11T00:51:40.538Z</time>
</trkpt>
<trkpt lat="-26.7914365" lon="152.9194835">
<ele>370.482</ele>
<time>2017-06-11T00:51:42.392Z</time>
</trkpt>
<trkpt lat="-26.7911383" lon="152.9197830">
<ele>370.986</ele>
<time>2017-06-11T00:51:45.573Z</time>
</trkpt>
<trkpt lat="-26.7909021" lon="152.9199478">
<ele>371.383</ele>
<time>2017-06-11T00:51:47.708Z</time>
</trkpt>
<trkpt lat="-26.7906281" lon="152.9201133">
<ele>371.743</ele>
<time>2017-06-11T00:51:50.409Z</time>
</trkpt>
<trkpt lat="-26.7905087" lon="152.9203623">
<ele>371.861</ele>
<time>2017-06-11T00:51:53.116Z</time>
</trkpt>
<trkpt lat="-26.7904172" lon="152.9207084">
<ele>371.403</ele>
<time>2017-06-11T00:51:56.335Z</time>
</trkpt>
<trkpt lat="-26.7903686" lon="152.9209847">
<ele>370.303</ele>
<time>2017-06-11T00:51:58.529Z</time>
</trkpt>
<trkpt lat="-26.7903069" lon="152.9212540">
<ele>368.745</ele>
<time>2017-06-11T00:52:00.645Z</time>
</trkpt>
<trkpt lat="-26.7902681" lon="152.9215184">
<ele>366.929</ele>
<time>2017-06-11T00:52:02.747Z</time>
</trkpt>
<trkpt lat="-26.7902252" lon="152.9218595">
<ele>364.937</ele>
<time>2017-06-11T00:52:05.781Z</time>
</trkpt>
<trkpt lat="-26.7902187" lon="152.9220143">
<ele>362.579</ele>
<time>2017-06-11T00:52:07.496Z</time>
</trkpt>
<trkpt lat="-26.7902011" lon="152.9221240">
<ele>359.749</ele>
<time>2017-06-11T00:52:08.999Z</time>
</trkpt>
<trkpt lat="-26.7902011" lon="152.9221240">
<ele>357.126</ele>
<time>2017-06-11T00:52:13.999Z</time>
</trkpt>
<trkpt lat="-26.7902011" lon="152.9221240">
<ele>355.751</ele>
<time>2017-06-11T00:52:32.195Z</time>
</trkpt>
<trkpt lat="-26.7900375" lon="152.9223258">
<ele>355.730</ele>
<time>2017-06-11T00:52:39.805Z</time>
</trkpt>
<trkpt lat="-26.7897643" lon="152.9221833">
<ele>355.499</ele>
<time>2017-06-11T00:52:42.991Z</time>
</trkpt>
<trkpt lat="-26.7895499" lon="152.9219785">
<ele>353.942</ele>
<time>2017-06-11T00:52:44.968Z</time>
</trkpt>
<trkpt lat="-26.7892999" lon="152.9217527">
<ele>352.444</ele>
<time>2017-06-11T00:52:46.936Z</time>
</trkpt>
<trkpt lat="-26.7890115" lon="152.9215313">
<ele>352.835</ele>
<time>2017-06-11T00:52:48.880Z</time>
</trkpt>
<trkpt lat="-26.7886752" lon="152.9213346">
<ele>355.070</ele>
<time>2017-06-11T00:52:50.896Z</time>
</trkpt>
<trkpt lat="-26.7881624" lon="152.9210966">
<ele>358.158</ele>
<time>2017-06-11T00:52:53.812Z</time>
</trkpt>
<trkpt lat="-26.7876185" lon="152.9208625">
<ele>361.306</ele>
<time>2017-06-11T00:52:56.828Z</time>
</trkpt>
<trkpt lat="-26.7872481" lon="152.9207507">
<ele>364.158</ele>
<time>2017-06-11T00:52:58.800Z</time>
</trkpt>
<trkpt lat="-26.7866735" lon="152.9206402">
<ele>366.550</ele>
<time>2017-06-11T00:53:01.793Z</time>
</trkpt>
<trkpt lat="-26.7862926" lon="152.9205468">
<ele>368.611</ele>
<time>2017-06-11T00:53:03.798Z</time>
</trkpt>
<trkpt lat="-26.7857096" lon="152.9204304">
<ele>370.629</ele>
<time>2017-06-11T00:53:06.858Z</time>
</trkpt>
<trkpt lat="-26.7853114" lon="152.9203911">
<ele>372.749</ele>
<time>2017-06-11T00:53:08.941Z</time>
</trkpt>
<trkpt lat="-26.7849269" lon="152.9204365">
<ele>374.931</ele>
<time>2017-06-11T00:53:11.021Z</time>
</trkpt>
<trkpt lat="-26.7845836" lon="152.9204677">
<ele>376.954</ele>
<time>2017-06-11T00:53:12.919Z</time>
</trkpt>
<trkpt lat="-26.7840343" lon="152.9204306">
<ele>378.544</ele>
<time>2017-06-11T00:53:15.949Z</time>
</trkpt>
<trkpt lat="-26.7836864" lon="152.9202936">
<ele>379.749</ele>
<time>2017-06-11T00:53:17.990Z</time>
</trkpt>
<trkpt lat="-26.7831775" lon="152.9200772">
<ele>380.805</ele>
<time>2017-06-11T00:53:20.962Z</time>
</trkpt>
<trkpt lat="-26.7826572" lon="152.9198181">
<ele>381.850</ele>
<time>2017-06-11T00:53:24.071Z</time>
</trkpt>
<trkpt lat="-26.7821827" lon="152.9195652">
<ele>382.879</ele>
<time>2017-06-11T00:53:27.051Z</time>
</trkpt>
<trkpt lat="-26.7818979" lon="152.9193598">
<ele>383.734</ele>
<time>2017-06-11T00:53:29.041Z</time>
</trkpt>
<trkpt lat="-26.7815136" lon="152.9189741">
<ele>384.213</ele>
<time>2017-06-11T00:53:32.069Z</time>
</trkpt>
<trkpt lat="-26.7811347" lon="152.9185857">
<ele>384.358</ele>
<time>2017-06-11T00:53:35.008Z</time>
</trkpt>
<trkpt lat="-26.7809322" lon="152.9182435">
<ele>384.415</ele>
<time>2017-06-11T00:53:37.022Z</time>
</trkpt>
<trkpt lat="-26.7806399" lon="152.9177358">
<ele>384.590</ele>
<time>2017-06-11T00:53:39.995Z</time>
</trkpt>
<trkpt lat="-26.7804803" lon="152.9173805">
<ele>385.004</ele>
<time>2017-06-11T00:53:41.960Z</time>
</trkpt>
<trkpt lat="-26.7804480" lon="152.9169649">
<ele>385.690</ele>
<time>2017-06-11T00:53:43.954Z</time>
</trkpt>
<trkpt lat="-26.7803481" lon="152.9165452">
<ele>386.625</ele>
<time>2017-06-11T00:53:45.955Z</time>
</trkpt>
<trkpt lat="-26.7802485" lon="152.9161219">
<ele>387.761</ele>
<time>2017-06-11T00:53:47.972Z</time>
</trkpt>
<trkpt lat="-26.7801489" lon="152.9154882">
<ele>388.922</ele>
<time>2017-06-11T00:53:50.984Z</time>
</trkpt>
<trkpt lat="-26.7800203" lon="152.9148948">
<ele>389.864</ele>
<time>2017-06-11T00:53:53.901Z</time>
</trkpt>
<trkpt lat="-26.7799384" lon="152.9144839">
<ele>390.518</ele>
<time>2017-06-11T00:53:55.942Z</time>
</trkpt>
<trkpt lat="-26.7797909" lon="152.9138796">
<ele>390.924</ele>
<time>2017-06-11T00:53:58.941Z</time>
</trkpt>
<trkpt lat="-26.7796439" lon="152.9132640">
<ele>391.126</ele>
<time>2017-06-11T00:54:01.951Z</time>
</trkpt>
<trkpt lat="-26.7794992" lon="152.9126756">
<ele>391.234</ele>
<time>2017-06-11T00:54:04.834Z</time>
</trkpt>
<trkpt lat="-26.7793908" lon="152.9122683">
<ele>391.374</ele>
<time>2017-06-11T00:54:06.819Z</time>
</trkpt>
<trkpt lat="-26.7792657" lon="152.9118768">
<ele>391.605</ele>
<time>2017-06-11T00:54:08.738Z</time>
</trkpt>
<trkpt lat="-26.7791315" lon="152.9114715">
<ele>391.918</ele>
<time>2017-06-11T00:54:10.748Z</time>
</trkpt>
<trkpt lat="-26.7789534" lon="152.9108762">
<ele>392.284</ele>
<time>2017-06-11T00:54:13.727Z</time>
</trkpt>
<trkpt lat="-26.7788755" lon="152.9102741">
<ele>392.752</ele>
<time>2017-06-11T00:54:16.708Z</time>
</trkpt>
<trkpt lat="-26.7788264" lon="152.9098905">
<ele>393.493</ele>
<time>2017-06-11T00:54:18.686Z</time>
</trkpt>
<trkpt lat="-26.7787790" lon="152.9095153">
<ele>394.533</ele>
<time>2017-06-11T00:54:20.665Z</time>
</trkpt>
<trkpt lat="-26.7787305" lon="152.9089496">
<ele>395.567</ele>
<time>2017-06-11T00:54:23.648Z</time>
</trkpt>
<trkpt lat="-26.7786024" lon="152.9084020">
<ele>396.251</ele>
<time>2017-06-11T00:54:26.573Z</time>
</trkpt>
<trkpt lat="-26.7784924" lon="152.9080189">
<ele>396.410</ele>
<time>2017-06-11T00:54:28.542Z</time>
</trkpt>
<trkpt lat="-26.7783590" lon="152.9073893">
<ele>396.028</ele>
<time>2017-06-11T00:54:31.632Z</time>
</trkpt>
<trkpt lat="-26.7782650" lon="152.9069784">
<ele>395.283</ele>
<time>2017-06-11T00:54:33.604Z</time>
</trkpt>
<trkpt lat="-26.7781624" lon="152.9063341">
<ele>394.528</ele>
<time>2017-06-11T00:54:36.697Z</time>
</trkpt>
<trkpt lat="-26.7780582" lon="152.9057496">
<ele>394.406</ele>
<time>2017-06-11T00:54:39.697Z</time>
</trkpt>
<trkpt lat="-26.7779942" lon="152.9053941">
<ele>395.508</ele>
<time>2017-06-11T00:54:41.628Z</time>
</trkpt>
<trkpt lat="-26.7778978" lon="152.9048429">
<ele>397.588</ele>
<time>2017-06-11T00:54:44.636Z</time>
</trkpt>
<trkpt lat="-26.7778349" lon="152.9044846">
<ele>399.996</ele>
<time>2017-06-11T00:54:46.643Z</time>
</trkpt>
<trkpt lat="-26.7777737" lon="152.9041447">
<ele>402.393</ele>
<time>2017-06-11T00:54:48.604Z</time>
</trkpt>
<trkpt lat="-26.7776812" lon="152.9036386">
<ele>404.532</ele>
<time>2017-06-11T00:54:51.545Z</time>
</trkpt>
<trkpt lat="-26.7776049" lon="152.9032974">
<ele>406.281</ele>
<time>2017-06-11T00:54:53.496Z</time>
</trkpt>
<trkpt lat="-26.7774499" lon="152.9027724">
<ele>407.691</ele>
<time>2017-06-11T00:54:56.475Z</time>
</trkpt>
<trkpt lat="-26.7772655" lon="152.9022341">
<ele>408.801</ele>
<time>2017-06-11T00:54:59.527Z</time>
</trkpt>
<trkpt lat="-26.7771014" lon="152.9017086">
<ele>409.685</ele>
<time>2017-06-11T00:55:02.564Z</time>
</trkpt>
<trkpt lat="-26.7769858" lon="152.9014008">
<ele>410.364</ele>
<time>2017-06-11T00:55:04.510Z</time>
</trkpt>
<trkpt lat="-26.7768299" lon="152.9011298">
<ele>410.756</ele>
<time>2017-06-11T00:55:06.485Z</time>
</trkpt>
<trkpt lat="-26.7765107" lon="152.9008066">
<ele>410.825</ele>
<time>2017-06-11T00:55:09.489Z</time>
</trkpt>
<trkpt lat="-26.7761387" lon="152.9005409">
<ele>410.478</ele>
<time>2017-06-11T00:55:12.609Z</time>
</trkpt>
<trkpt lat="-26.7759056" lon="152.9003810">
<ele>409.675</ele>
<time>2017-06-11T00:55:14.612Z</time>
</trkpt>
<trkpt lat="-26.7755820" lon="152.9001196">
<ele>408.748</ele>
<time>2017-06-11T00:55:17.547Z</time>
</trkpt>
<trkpt lat="-26.7753187" lon="152.8997543">
<ele>408.296</ele>
<time>2017-06-11T00:55:20.595Z</time>
</trkpt>
<trkpt lat="-26.7751734" lon="152.8993131">
<ele>408.717</ele>
<time>2017-06-11T00:55:23.582Z</time>
</trkpt>
<trkpt lat="-26.7751291" lon="152.8988334">
<ele>409.950</ele>
<time>2017-06-11T00:55:26.538Z</time>
</trkpt>
<trkpt lat="-26.7751839" lon="152.8983258">
<ele>411.560</ele>
<time>2017-06-11T00:55:29.552Z</time>
</trkpt>
<trkpt lat="-26.7752896" lon="152.8978309">
<ele>413.132</ele>
<time>2017-06-11T00:55:32.449Z</time>
</trkpt>
<trkpt lat="-26.7753117" lon="152.8974550">
<ele>414.526</ele>
<time>2017-06-11T00:55:34.506Z</time>
</trkpt>
<trkpt lat="-26.7753412" lon="152.8970743">
<ele>415.744</ele>
<time>2017-06-11T00:55:36.609Z</time>
</trkpt>
<trkpt lat="-26.7753239" lon="152.8965589">
<ele>416.804</ele>
<time>2017-06-11T00:55:39.526Z</time>
</trkpt>
<trkpt lat="-26.7752482" lon="152.8962351">
<ele>417.878</ele>
<time>2017-06-11T00:55:41.474Z</time>
</trkpt>
<trkpt lat="-26.7752044" lon="152.8958960">
<ele>419.093</ele>
<time>2017-06-11T00:55:43.471Z</time>
</trkpt>
<trkpt lat="-26.7751294" lon="152.8953848">
<ele>420.295</ele>
<time>2017-06-11T00:55:46.451Z</time>
</trkpt>
<trkpt lat="-26.7751778" lon="152.8948522">
<ele>421.285</ele>
<time>2017-06-11T00:55:49.458Z</time>
</trkpt>
<trkpt lat="-26.7753054" lon="152.8945221">
<ele>421.970</ele>
<time>2017-06-11T00:55:51.422Z</time>
</trkpt>
<trkpt lat="-26.7754962" lon="152.8942117">
<ele>422.252</ele>
<time>2017-06-11T00:55:53.450Z</time>
</trkpt>
<trkpt lat="-26.7756863" lon="152.8939097">
<ele>422.102</ele>
<time>2017-06-11T00:55:55.450Z</time>
</trkpt>
<trkpt lat="-26.7758406" lon="152.8933990">
<ele>421.599</ele>
<time>2017-06-11T00:55:58.427Z</time>
</trkpt>
<trkpt lat="-26.7758545" lon="152.8928815">
<ele>420.837</ele>
<time>2017-06-11T00:56:01.406Z</time>
</trkpt>
<trkpt lat="-26.7757856" lon="152.8925621">
<ele>420.037</ele>
<time>2017-06-11T00:56:03.377Z</time>
</trkpt>
<trkpt lat="-26.7755663" lon="152.8921409">
<ele>419.527</ele>
<time>2017-06-11T00:56:06.312Z</time>
</trkpt>
<trkpt lat="-26.7753683" lon="152.8918841">
<ele>419.545</ele>
<time>2017-06-11T00:56:08.307Z</time>
</trkpt>
<trkpt lat="-26.7750163" lon="152.8915560">
<ele>420.126</ele>
<time>2017-06-11T00:56:11.225Z</time>
</trkpt>
<trkpt lat="-26.7746680" lon="152.8911525">
<ele>421.096</ele>
<time>2017-06-11T00:56:14.213Z</time>
</trkpt>
<trkpt lat="-26.7742694" lon="152.8907174">
<ele>422.228</ele>
<time>2017-06-11T00:56:17.310Z</time>
</trkpt>
<trkpt lat="-26.7738704" lon="152.8902770">
<ele>423.270</ele>
<time>2017-06-11T00:56:20.331Z</time>
</trkpt>
<trkpt lat="-26.7735679" lon="152.8899911">
<ele>423.870</ele>
<time>2017-06-11T00:56:22.494Z</time>
</trkpt>
<trkpt lat="-26.7731364" lon="152.8896801">
<ele>423.807</ele>
<time>2017-06-11T00:56:25.367Z</time>
</trkpt>
<trkpt lat="-26.7727976" lon="152.8895208">
<ele>423.069</ele>
<time>2017-06-11T00:56:27.422Z</time>
</trkpt>
<trkpt lat="-26.7724356" lon="152.8894124">
<ele>421.816</ele>
<time>2017-06-11T00:56:29.407Z</time>
</trkpt>
<trkpt lat="-26.7718445" lon="152.8892885">
<ele>420.428</ele>
<time>2017-06-11T00:56:32.458Z</time>
</trkpt>
<trkpt lat="-26.7714465" lon="152.8891852">
<ele>419.164</ele>
<time>2017-06-11T00:56:34.452Z</time>
</trkpt>
<trkpt lat="-26.7710507" lon="152.8891001">
<ele>418.028</ele>
<time>2017-06-11T00:56:36.443Z</time>
</trkpt>
<trkpt lat="-26.7704927" lon="152.8889110">
<ele>417.028</ele>
<time>2017-06-11T00:56:39.403Z</time>
</trkpt>
<trkpt lat="-26.7701407" lon="152.8887773">
<ele>416.302</ele>
<time>2017-06-11T00:56:41.383Z</time>
</trkpt>
<trkpt lat="-26.7698089" lon="152.8886085">
<ele>416.008</ele>
<time>2017-06-11T00:56:43.382Z</time>
</trkpt>
<trkpt lat="-26.7695322" lon="152.8883420">
<ele>416.261</ele>
<time>2017-06-11T00:56:45.437Z</time>
</trkpt>
<trkpt lat="-26.7692203" lon="152.8878788">
<ele>417.071</ele>
<time>2017-06-11T00:56:48.399Z</time>
</trkpt>
<trkpt lat="-26.7689634" lon="152.8873764">
<ele>418.420</ele>
<time>2017-06-11T00:56:51.396Z</time>
</trkpt>
<trkpt lat="-26.7687546" lon="152.8868655">
<ele>420.279</ele>
<time>2017-06-11T00:56:54.411Z</time>
</trkpt>
<trkpt lat="-26.7685804" lon="152.8866033">
<ele>422.458</ele>
<time>2017-06-11T00:56:56.367Z</time>
</trkpt>
<trkpt lat="-26.7684742" lon="152.8863404">
<ele>424.522</ele>
<time>2017-06-11T00:56:58.269Z</time>
</trkpt>
<trkpt lat="-26.7683126" lon="152.8859581">
<ele>426.099</ele>
<time>2017-06-11T00:57:01.261Z</time>
</trkpt>
<trkpt lat="-26.7682685" lon="152.8857242">
<ele>427.201</ele>
<time>2017-06-11T00:57:03.176Z</time>
</trkpt>
<trkpt lat="-26.7682228" lon="152.8855149">
<ele>427.996</ele>
<time>2017-06-11T00:57:05.135Z</time>
</trkpt>
<trkpt lat="-26.7682491" lon="152.8853464">
<ele>428.476</ele>
<time>2017-06-11T00:57:06.924Z</time>
</trkpt>
<trkpt lat="-26.7682848" lon="152.8851987">
<ele>428.607</ele>
<time>2017-06-11T00:57:08.827Z</time>
</trkpt>
<trkpt lat="-26.7682582" lon="152.8850377">
<ele>428.436</ele>
<time>2017-06-11T00:57:11.175Z</time>
</trkpt>
<trkpt lat="-26.7681240" lon="152.8849726">
<ele>428.003</ele>
<time>2017-06-11T00:57:13.595Z</time>
</trkpt>
<trkpt lat="-26.7678701" lon="152.8849875">
<ele>427.436</ele>
<time>2017-06-11T00:57:16.839Z</time>
</trkpt>
<trkpt lat="-26.7676662" lon="152.8850667">
<ele>426.942</ele>
<time>2017-06-11T00:57:18.963Z</time>
</trkpt>
<trkpt lat="-26.7674332" lon="152.8851664">
<ele>426.595</ele>
<time>2017-06-11T00:57:21.031Z</time>
</trkpt>
<trkpt lat="-26.7669972" lon="152.8853098">
<ele>426.320</ele>
<time>2017-06-11T00:57:24.383Z</time>
</trkpt>
<trkpt lat="-26.7667064" lon="152.8853897">
<ele>425.944</ele>
<time>2017-06-11T00:57:26.437Z</time>
</trkpt>
<trkpt lat="-26.7662620" lon="152.8855108">
<ele>425.260</ele>
<time>2017-06-11T00:57:29.477Z</time>
</trkpt>
<trkpt lat="-26.7659564" lon="152.8856167">
<ele>424.182</ele>
<time>2017-06-11T00:57:31.462Z</time>
</trkpt>
<trkpt lat="-26.7654646" lon="152.8857486">
<ele>422.887</ele>
<time>2017-06-11T00:57:34.484Z</time>
</trkpt>
<trkpt lat="-26.7651241" lon="152.8858517">
<ele>421.677</ele>
<time>2017-06-11T00:57:36.515Z</time>
</trkpt>
<trkpt lat="-26.7646183" lon="152.8859919">
<ele>420.735</ele>
<time>2017-06-11T00:57:39.481Z</time>
</trkpt>
<trkpt lat="-26.7642765" lon="152.8860989">
<ele>420.038</ele>
<time>2017-06-11T00:57:41.453Z</time>
</trkpt>
<trkpt lat="-26.7639167" lon="152.8861899">
<ele>419.485</ele>
<time>2017-06-11T00:57:43.470Z</time>
</trkpt>
<trkpt lat="-26.7635634" lon="152.8863036">
<ele>419.039</ele>
<time>2017-06-11T00:57:45.475Z</time>
</trkpt>
<trkpt lat="-26.7630374" lon="152.8864736">
<ele>418.720</ele>
<time>2017-06-11T00:57:48.486Z</time>
</trkpt>
<trkpt lat="-26.7625299" lon="152.8866582">
<ele>418.448</ele>
<time>2017-06-11T00:57:51.471Z</time>
</trkpt>
<trkpt lat="-26.7621999" lon="152.8867599">
<ele>418.152</ele>
<time>2017-06-11T00:57:53.416Z</time>
</trkpt>
<trkpt lat="-26.7618612" lon="152.8868617">
<ele>417.886</ele>
<time>2017-06-11T00:57:55.414Z</time>
</trkpt>
<trkpt lat="-26.7615137" lon="152.8869330">
<ele>417.747</ele>
<time>2017-06-11T00:57:57.432Z</time>
</trkpt>
<trkpt lat="-26.7611787" lon="152.8870432">
<ele>417.736</ele>
<time>2017-06-11T00:57:59.449Z</time>
</trkpt>
<trkpt lat="-26.7608590" lon="152.8871571">
<ele>417.798</ele>
<time>2017-06-11T00:58:01.413Z</time>
</trkpt>
<trkpt lat="-26.7603612" lon="152.8872845">
<ele>417.885</ele>
<time>2017-06-11T00:58:04.417Z</time>
</trkpt>
<trkpt lat="-26.7600307" lon="152.8873726">
<ele>417.956</ele>
<time>2017-06-11T00:58:06.374Z</time>
</trkpt>
<trkpt lat="-26.7595046" lon="152.8875083">
<ele>417.932</ele>
<time>2017-06-11T00:58:09.414Z</time>
</trkpt>
<trkpt lat="-26.7589840" lon="152.8876813">
<ele>417.615</ele>
<time>2017-06-11T00:58:12.430Z</time>
</trkpt>
<trkpt lat="-26.7586266" lon="152.8877587">
<ele>416.727</ele>
<time>2017-06-11T00:58:14.480Z</time>
</trkpt>
<trkpt lat="-26.7581124" lon="152.8878556">
<ele>415.234</ele>
<time>2017-06-11T00:58:17.421Z</time>
</trkpt>
<trkpt lat="-26.7577577" lon="152.8878371">
<ele>413.255</ele>
<time>2017-06-11T00:58:19.389Z</time>
</trkpt>
<trkpt lat="-26.7574193" lon="152.8876990">
<ele>410.933</ele>
<time>2017-06-11T00:58:21.335Z</time>
</trkpt>
<trkpt lat="-26.7569158" lon="152.8874142">
<ele>408.558</ele>
<time>2017-06-11T00:58:24.326Z</time>
</trkpt>
<trkpt lat="-26.7565821" lon="152.8872040">
<ele>406.183</ele>
<time>2017-06-11T00:58:26.326Z</time>
</trkpt>
<trkpt lat="-26.7562618" lon="152.8869733">
<ele>403.932</ele>
<time>2017-06-11T00:58:28.323Z</time>
</trkpt>
<trkpt lat="-26.7557567" lon="152.8866803">
<ele>402.061</ele>
<time>2017-06-11T00:58:31.329Z</time>
</trkpt>
<trkpt lat="-26.7553831" lon="152.8866576">
<ele>399.703</ele>
<time>2017-06-11T00:58:33.333Z</time>
</trkpt>
<trkpt lat="-26.7548331" lon="152.8867610">
<ele>396.169</ele>
<time>2017-06-11T00:58:36.336Z</time>
</trkpt>
<trkpt lat="-26.7544894" lon="152.8869381">
<ele>392.568</ele>
<time>2017-06-11T00:58:38.362Z</time>
</trkpt>
<trkpt lat="-26.7541532" lon="152.8872241">
<ele>390.103</ele>
<time>2017-06-11T00:58:40.579Z</time>
</trkpt>
<trkpt lat="-26.7537399" lon="152.8876748">
<ele>388.861</ele>
<time>2017-06-11T00:58:43.531Z</time>
</trkpt>
<trkpt lat="-26.7534556" lon="152.8880086">
<ele>388.411</ele>
<time>2017-06-11T00:58:45.557Z</time>
</trkpt>
<trkpt lat="-26.7531588" lon="152.8883335">
<ele>388.265</ele>
<time>2017-06-11T00:58:47.584Z</time>
</trkpt>
<trkpt lat="-26.7528775" lon="152.8886526">
<ele>388.075</ele>
<time>2017-06-11T00:58:49.558Z</time>
</trkpt>
<trkpt lat="-26.7523822" lon="152.8890327">
<ele>387.545</ele>
<time>2017-06-11T00:58:52.554Z</time>
</trkpt>
<trkpt lat="-26.7520225" lon="152.8892096">
<ele>386.362</ele>
<time>2017-06-11T00:58:54.549Z</time>
</trkpt>
<trkpt lat="-26.7516555" lon="152.8893137">
<ele>384.490</ele>
<time>2017-06-11T00:58:56.470Z</time>
</trkpt>
<trkpt lat="-26.7512694" lon="152.8893636">
<ele>382.350</ele>
<time>2017-06-11T00:58:58.440Z</time>
</trkpt>
<trkpt lat="-26.7508816" lon="152.8893280">
<ele>380.396</ele>
<time>2017-06-11T00:59:00.421Z</time>
</trkpt>
<trkpt lat="-26.7505104" lon="152.8892138">
<ele>378.773</ele>
<time>2017-06-11T00:59:02.393Z</time>
</trkpt>
<trkpt lat="-26.7499851" lon="152.8889278">
<ele>377.498</ele>
<time>2017-06-11T00:59:05.387Z</time>
</trkpt>
<trkpt lat="-26.7494996" lon="152.8885669">
<ele>376.639</ele>
<time>2017-06-11T00:59:08.394Z</time>
</trkpt>
<trkpt lat="-26.7491789" lon="152.8883606">
<ele>376.243</ele>
<time>2017-06-11T00:59:10.378Z</time>
</trkpt>
<trkpt lat="-26.7486965" lon="152.8880887">
<ele>376.354</ele>
<time>2017-06-11T00:59:13.345Z</time>
</trkpt>
<trkpt lat="-26.7483455" lon="152.8880265">
<ele>377.102</ele>
<time>2017-06-11T00:59:15.297Z</time>
</trkpt>
<trkpt lat="-26.7479730" lon="152.8880157">
<ele>378.447</ele>
<time>2017-06-11T00:59:17.277Z</time>
</trkpt>
<trkpt lat="-26.7475859" lon="152.8880712">
<ele>379.994</ele>
<time>2017-06-11T00:59:19.242Z</time>
</trkpt>
<trkpt lat="-26.7469932" lon="152.8883122">
<ele>381.244</ele>
<time>2017-06-11T00:59:22.285Z</time>
</trkpt>
<trkpt lat="-26.7466085" lon="152.8885244">
<ele>381.837</ele>
<time>2017-06-11T00:59:24.278Z</time>
</trkpt>
<trkpt lat="-26.7460146" lon="152.8888070">
<ele>381.600</ele>
<time>2017-06-11T00:59:27.290Z</time>
</trkpt>
<trkpt lat="-26.7454712" lon="152.8891192">
<ele>380.389</ele>
<time>2017-06-11T00:59:30.207Z</time>
</trkpt>
<trkpt lat="-26.7450944" lon="152.8892994">
<ele>378.311</ele>
<time>2017-06-11T00:59:32.197Z</time>
</trkpt>
<trkpt lat="-26.7446819" lon="152.8894755">
<ele>376.029</ele>
<time>2017-06-11T00:59:34.364Z</time>
</trkpt>
<trkpt lat="-26.7442043" lon="152.8898820">
<ele>374.185</ele>
<time>2017-06-11T00:59:37.351Z</time>
</trkpt>
<trkpt lat="-26.7439406" lon="152.8902443">
<ele>372.808</ele>
<time>2017-06-11T00:59:39.443Z</time>
</trkpt>
<trkpt lat="-26.7437286" lon="152.8906226">
<ele>371.591</ele>
<time>2017-06-11T00:59:41.426Z</time>
</trkpt>
<trkpt lat="-26.7435781" lon="152.8910523">
<ele>370.281</ele>
<time>2017-06-11T00:59:43.446Z</time>
</trkpt>
<trkpt lat="-26.7434412" lon="152.8914840">
<ele>368.684</ele>
<time>2017-06-11T00:59:45.408Z</time>
</trkpt>
<trkpt lat="-26.7432010" lon="152.8921307">
<ele>366.636</ele>
<time>2017-06-11T00:59:48.339Z</time>
</trkpt>
<trkpt lat="-26.7429169" lon="152.8928174">
<ele>364.519</ele>
<time>2017-06-11T00:59:51.404Z</time>
</trkpt>
<trkpt lat="-26.7424961" lon="152.8934185">
<ele>363.237</ele>
<time>2017-06-11T00:59:54.425Z</time>
</trkpt>
<trkpt lat="-26.7420363" lon="152.8939921">
<ele>363.490</ele>
<time>2017-06-11T00:59:57.484Z</time>
</trkpt>
<trkpt lat="-26.7416044" lon="152.8945247">
<ele>365.316</ele>
<time>2017-06-11T01:00:00.488Z</time>
</trkpt>
<trkpt lat="-26.7413091" lon="152.8950716">
<ele>368.033</ele>
<time>2017-06-11T01:00:03.393Z</time>
</trkpt>
<trkpt lat="-26.7410674" lon="152.8955909">
<ele>370.694</ele>
<time>2017-06-11T01:00:06.233Z</time>
</trkpt>
<trkpt lat="-26.7407425" lon="152.8960528">
<ele>373.075</ele>
<time>2017-06-11T01:00:09.161Z</time>
</trkpt>
<trkpt lat="-26.7404684" lon="152.8963305">
<ele>375.595</ele>
<time>2017-06-11T01:00:11.237Z</time>
</trkpt>
<trkpt lat="-26.7400843" lon="152.8967490">
<ele>378.354</ele>
<time>2017-06-11T01:00:14.227Z</time>
</trkpt>
<trkpt lat="-26.7398112" lon="152.8972801">
<ele>381.058</ele>
<time>2017-06-11T01:00:17.234Z</time>
</trkpt>
<trkpt lat="-26.7394854" lon="152.8977941">
<ele>383.533</ele>
<time>2017-06-11T01:00:20.277Z</time>
</trkpt>
<trkpt lat="-26.7390902" lon="152.8982535">
<ele>385.475</ele>
<time>2017-06-11T01:00:23.282Z</time>
</trkpt>
<trkpt lat="-26.7387766" lon="152.8985326">
<ele>386.421</ele>
<time>2017-06-11T01:00:25.285Z</time>
</trkpt>
<trkpt lat="-26.7382538" lon="152.8989419">
<ele>386.294</ele>
<time>2017-06-11T01:00:28.355Z</time>
</trkpt>
<trkpt lat="-26.7378933" lon="152.8992160">
<ele>385.236</ele>
<time>2017-06-11T01:00:30.369Z</time>
</trkpt>
<trkpt lat="-26.7373374" lon="152.8996093">
<ele>383.505</ele>
<time>2017-06-11T01:00:33.391Z</time>
</trkpt>
<trkpt lat="-26.7367837" lon="152.8999719">
<ele>381.741</ele>
<time>2017-06-11T01:00:36.347Z</time>
</trkpt>
<trkpt lat="-26.7364387" lon="152.9002552">
<ele>380.585</ele>
<time>2017-06-11T01:00:38.319Z</time>
</trkpt>
<trkpt lat="-26.7360760" lon="152.9005331">
<ele>380.352</ele>
<time>2017-06-11T01:00:40.322Z</time>
</trkpt>
<trkpt lat="-26.7357095" lon="152.9008173">
<ele>381.167</ele>
<time>2017-06-11T01:00:42.345Z</time>
</trkpt>
<trkpt lat="-26.7351604" lon="152.9011994">
<ele>382.847</ele>
<time>2017-06-11T01:00:45.310Z</time>
</trkpt>
<trkpt lat="-26.7346047" lon="152.9015404">
<ele>384.977</ele>
<time>2017-06-11T01:00:48.287Z</time>
</trkpt>
<trkpt lat="-26.7342117" lon="152.9017047">
<ele>387.046</ele>
<time>2017-06-11T01:00:50.322Z</time>
</trkpt>
<trkpt lat="-26.7338347" lon="152.9018016">
<ele>388.486</ele>
<time>2017-06-11T01:00:52.325Z</time>
</trkpt>
<trkpt lat="-26.7335070" lon="152.9018685">
<ele>388.832</ele>
<time>2017-06-11T01:00:54.270Z</time>
</trkpt>
<trkpt lat="-26.7330695" lon="152.9018979">
<ele>387.834</ele>
<time>2017-06-11T01:00:57.161Z</time>
</trkpt>
<trkpt lat="-26.7327132" lon="152.9018550">
<ele>386.001</ele>
<time>2017-06-11T01:00:59.941Z</time>
</trkpt>
<trkpt lat="-26.7323894" lon="152.9018670">
<ele>384.744</ele>
<time>2017-06-11T01:01:02.854Z</time>
</trkpt>
<trkpt lat="-26.7322274" lon="152.9018417">
<ele>384.868</ele>
<time>2017-06-11T01:01:04.670Z</time>
</trkpt>
<trkpt lat="-26.7320553" lon="152.9018479">
<ele>385.756</ele>
<time>2017-06-11T01:01:06.999Z</time>
</trkpt>
<trkpt lat="-26.7320553" lon="152.9018479">
<ele>386.307</ele>
<time>2017-06-11T01:01:11.999Z</time>
</trkpt>
<trkpt lat="-26.7320553" lon="152.9018479">
<ele>386.121</ele>
<time>2017-06-11T01:01:17.450Z</time>
</trkpt>
<trkpt lat="-26.7318458" lon="152.9019432">
<ele>385.637</ele>
<time>2017-06-11T01:01:23.581Z</time>
</trkpt>
<trkpt lat="-26.7317401" lon="152.9019071">
<ele>384.689</ele>
<time>2017-06-11T01:01:25.579Z</time>
</trkpt>
<trkpt lat="-26.7316241" lon="152.9018794">
<ele>382.936</ele>
<time>2017-06-11T01:01:28.156Z</time>
</trkpt>
<trkpt lat="-26.7315217" lon="152.9018839">
<ele>381.259</ele>
<time>2017-06-11T01:01:30.999Z</time>
</trkpt>
<trkpt lat="-26.7315217" lon="152.9018839">
<ele>380.519</ele>
<time>2017-06-11T01:01:34.999Z</time>
</trkpt>
<trkpt lat="-26.7315217" lon="152.9018839">
<ele>380.461</ele>
<time>2017-06-11T01:01:35.099Z</time>
</trkpt>
<trkpt lat="-26.7312985" lon="152.9019074">
<ele>380.636</ele>
<time>2017-06-11T01:22:17.999Z</time>
</trkpt>
<trkpt lat="-26.7312985" lon="152.9019074">
<ele>380.698</ele>
<time>2017-06-11T01:22:20.999Z</time>
</trkpt>
<trkpt lat="-26.7312985" lon="152.9019074">
<ele>380.544</ele>
<time>2017-06-11T01:22:59.540Z</time>
</trkpt>
<trkpt lat="-26.7311767" lon="152.9018260">
<ele>380.340</ele>
<time>2017-06-11T01:23:08.832Z</time>
</trkpt>
<trkpt lat="-26.7312084" lon="152.9017109">
<ele>380.443</ele>
<time>2017-06-11T01:23:13.762Z</time>
</trkpt>
<trkpt lat="-26.7311533" lon="152.9016281">
<ele>380.958</ele>
<time>2017-06-11T01:23:17.999Z</time>
</trkpt>
<trkpt lat="-26.7311533" lon="152.9016281">
<ele>381.351</ele>
<time>2017-06-11T01:23:30.999Z</time>
</trkpt>
<trkpt lat="-26.7311533" lon="152.9016281">
<ele>381.188</ele>
<time>2017-06-11T01:23:36.633Z</time>
</trkpt>
<trkpt lat="-26.7311356" lon="152.9014171">
<ele>380.785</ele>
<time>2017-06-11T01:23:42.470Z</time>
</trkpt>
<trkpt lat="-26.7309002" lon="152.9012844">
<ele>380.564</ele>
<time>2017-06-11T01:23:44.940Z</time>
</trkpt>
<trkpt lat="-26.7305551" lon="152.9010692">
<ele>380.576</ele>
<time>2017-06-11T01:23:47.188Z</time>
</trkpt>
<trkpt lat="-26.7301662" lon="152.9007981">
<ele>381.058</ele>
<time>2017-06-11T01:23:49.540Z</time>
</trkpt>
<trkpt lat="-26.7296866" lon="152.9004830">
<ele>382.473</ele>
<time>2017-06-11T01:23:52.488Z</time>
</trkpt>
<trkpt lat="-26.7293905" lon="152.9002942">
<ele>384.938</ele>
<time>2017-06-11T01:23:54.362Z</time>
</trkpt>
<trkpt lat="-26.7290744" lon="152.9001313">
<ele>387.968</ele>
<time>2017-06-11T01:23:56.298Z</time>
</trkpt>
<trkpt lat="-26.7285918" lon="152.8998989">
<ele>390.880</ele>
<time>2017-06-11T01:23:59.201Z</time>
</trkpt>
<trkpt lat="-26.7282436" lon="152.8997967">
<ele>393.419</ele>
<time>2017-06-11T01:24:01.148Z</time>
</trkpt>
<trkpt lat="-26.7278898" lon="152.8996751">
<ele>395.728</ele>
<time>2017-06-11T01:24:03.127Z</time>
</trkpt>
<trkpt lat="-26.7275199" lon="152.8996114">
<ele>397.705</ele>
<time>2017-06-11T01:24:05.145Z</time>
</trkpt>
<trkpt lat="-26.7269793" lon="152.8995692">
<ele>399.039</ele>
<time>2017-06-11T01:24:08.130Z</time>
</trkpt>
<trkpt lat="-26.7264361" lon="152.8995119">
<ele>399.625</ele>
<time>2017-06-11T01:24:11.218Z</time>
</trkpt>
<trkpt lat="-26.7260919" lon="152.8994648">
<ele>399.371</ele>
<time>2017-06-11T01:24:13.195Z</time>
</trkpt>
<trkpt lat="-26.7255718" lon="152.8994415">
<ele>398.117</ele>
<time>2017-06-11T01:24:16.140Z</time>
</trkpt>
<trkpt lat="-26.7252213" lon="152.8994222">
<ele>395.725</ele>
<time>2017-06-11T01:24:18.084Z</time>
</trkpt>
<trkpt lat="-26.7246813" lon="152.8994546">
<ele>392.477</ele>
<time>2017-06-11T01:24:21.045Z</time>
</trkpt>
<trkpt lat="-26.7243239" lon="152.8994834">
<ele>388.711</ele>
<time>2017-06-11T01:24:22.977Z</time>
</trkpt>
<trkpt lat="-26.7239513" lon="152.8994709">
<ele>384.496</ele>
<time>2017-06-11T01:24:24.948Z</time>
</trkpt>
<trkpt lat="-26.7233851" lon="152.8994584">
<ele>380.084</ele>
<time>2017-06-11T01:24:27.906Z</time>
</trkpt>
<trkpt lat="-26.7230135" lon="152.8993498">
<ele>375.778</ele>
<time>2017-06-11T01:24:29.862Z</time>
</trkpt>
<trkpt lat="-26.7226185" lon="152.8992717">
<ele>371.697</ele>
<time>2017-06-11T01:24:31.870Z</time>
</trkpt>
<trkpt lat="-26.7222368" lon="152.8991066">
<ele>368.255</ele>
<time>2017-06-11T01:24:33.952Z</time>
</trkpt>
<trkpt lat="-26.7217000" lon="152.8989055">
<ele>365.722</ele>
<time>2017-06-11T01:24:36.893Z</time>
</trkpt>
<trkpt lat="-26.7213450" lon="152.8987931">
<ele>363.969</ele>
<time>2017-06-11T01:24:38.834Z</time>
</trkpt>
<trkpt lat="-26.7209843" lon="152.8986653">
<ele>362.924</ele>
<time>2017-06-11T01:24:40.814Z</time>
</trkpt>
<trkpt lat="-26.7204417" lon="152.8984527">
<ele>362.693</ele>
<time>2017-06-11T01:24:43.831Z</time>
</trkpt>
<trkpt lat="-26.7200930" lon="152.8983403">
<ele>363.408</ele>
<time>2017-06-11T01:24:45.743Z</time>
</trkpt>
<trkpt lat="-26.7195412" lon="152.8982349">
<ele>364.826</ele>
<time>2017-06-11T01:24:48.671Z</time>
</trkpt>
<trkpt lat="-26.7191775" lon="152.8982364">
<ele>366.376</ele>
<time>2017-06-11T01:24:50.537Z</time>
</trkpt>
<trkpt lat="-26.7186063" lon="152.8983079">
<ele>367.620</ele>
<time>2017-06-11T01:24:53.470Z</time>
</trkpt>
<trkpt lat="-26.7180302" lon="152.8984605">
<ele>368.412</ele>
<time>2017-06-11T01:24:56.507Z</time>
</trkpt>
<trkpt lat="-26.7176897" lon="152.8986216">
<ele>369.012</ele>
<time>2017-06-11T01:24:58.477Z</time>
</trkpt>
<trkpt lat="-26.7172438" lon="152.8989254">
<ele>369.974</ele>
<time>2017-06-11T01:25:01.346Z</time>
</trkpt>
<trkpt lat="-26.7168861" lon="152.8990554">
<ele>371.759</ele>
<time>2017-06-11T01:25:03.491Z</time>
</trkpt>
<trkpt lat="-26.7165736" lon="152.8991733">
<ele>374.331</ele>
<time>2017-06-11T01:25:05.442Z</time>
</trkpt>
<trkpt lat="-26.7161175" lon="152.8993242">
<ele>377.105</ele>
<time>2017-06-11T01:25:08.363Z</time>
</trkpt>
<trkpt lat="-26.7156643" lon="152.8993952">
<ele>379.630</ele>
<time>2017-06-11T01:25:11.292Z</time>
</trkpt>
<trkpt lat="-26.7153896" lon="152.8995669">
<ele>381.820</ele>
<time>2017-06-11T01:25:13.339Z</time>
</trkpt>
<trkpt lat="-26.7149621" lon="152.8997189">
<ele>383.408</ele>
<time>2017-06-11T01:25:16.264Z</time>
</trkpt>
<trkpt lat="-26.7146588" lon="152.8997904">
<ele>384.147</ele>
<time>2017-06-11T01:25:18.301Z</time>
</trkpt>
<trkpt lat="-26.7142188" lon="152.8997626">
<ele>384.182</ele>
<time>2017-06-11T01:25:21.222Z</time>
</trkpt>
<trkpt lat="-26.7139860" lon="152.8995544">
<ele>383.699</ele>
<time>2017-06-11T01:25:23.191Z</time>
</trkpt>
<trkpt lat="-26.7137634" lon="152.8993022">
<ele>382.878</ele>
<time>2017-06-11T01:25:25.178Z</time>
</trkpt>
<trkpt lat="-26.7134583" lon="152.8988520">
<ele>382.129</ele>
<time>2017-06-11T01:25:28.179Z</time>
</trkpt>
<trkpt lat="-26.7131176" lon="152.8983837">
<ele>382.130</ele>
<time>2017-06-11T01:25:31.329Z</time>
</trkpt>
<trkpt lat="-26.7129129" lon="152.8981237">
<ele>383.654</ele>
<time>2017-06-11T01:25:33.357Z</time>
</trkpt>
<trkpt lat="-26.7126502" lon="152.8978133">
<ele>386.674</ele>
<time>2017-06-11T01:25:36.100Z</time>
</trkpt>
<trkpt lat="-26.7122398" lon="152.8977665">
<ele>390.338</ele>
<time>2017-06-11T01:25:39.243Z</time>
</trkpt>
<trkpt lat="-26.7119526" lon="152.8978685">
<ele>394.103</ele>
<time>2017-06-11T01:25:41.469Z</time>
</trkpt>
<trkpt lat="-26.7115824" lon="152.8981459">
<ele>397.612</ele>
<time>2017-06-11T01:25:44.784Z</time>
</trkpt>
<trkpt lat="-26.7113420" lon="152.8982349">
<ele>400.381</ele>
<time>2017-06-11T01:25:46.710Z</time>
</trkpt>
<trkpt lat="-26.7109736" lon="152.8983669">
<ele>402.260</ele>
<time>2017-06-11T01:25:49.587Z</time>
</trkpt>
<trkpt lat="-26.7106781" lon="152.8984681">
<ele>403.423</ele>
<time>2017-06-11T01:25:51.764Z</time>
</trkpt>
<trkpt lat="-26.7104138" lon="152.8985627">
<ele>404.075</ele>
<time>2017-06-11T01:25:53.643Z</time>
</trkpt>
<trkpt lat="-26.7100004" lon="152.8987605">
<ele>404.233</ele>
<time>2017-06-11T01:25:56.609Z</time>
</trkpt>
<trkpt lat="-26.7095913" lon="152.8990342">
<ele>403.759</ele>
<time>2017-06-11T01:25:59.666Z</time>
</trkpt>
<trkpt lat="-26.7091850" lon="152.8992858">
<ele>402.804</ele>
<time>2017-06-11T01:26:02.622Z</time>
</trkpt>
<trkpt lat="-26.7089434" lon="152.8994983">
<ele>401.878</ele>
<time>2017-06-11T01:26:04.579Z</time>
</trkpt>
<trkpt lat="-26.7086429" lon="152.8996689">
<ele>401.366</ele>
<time>2017-06-11T01:26:06.721Z</time>
</trkpt>
<trkpt lat="-26.7083549" lon="152.8998311">
<ele>401.139</ele>
<time>2017-06-11T01:26:08.708Z</time>
</trkpt>
<trkpt lat="-26.7078620" lon="152.8999486">
<ele>400.757</ele>
<time>2017-06-11T01:26:11.712Z</time>
</trkpt>
<trkpt lat="-26.7073455" lon="152.8999940">
<ele>399.745</ele>
<time>2017-06-11T01:26:14.739Z</time>
</trkpt>
<trkpt lat="-26.7068539" lon="152.9000908">
<ele>397.845</ele>
<time>2017-06-11T01:26:17.700Z</time>
</trkpt>
<trkpt lat="-26.7065511" lon="152.9002335">
<ele>395.457</ele>
<time>2017-06-11T01:26:19.692Z</time>
</trkpt>
<trkpt lat="-26.7061378" lon="152.9005081">
<ele>393.519</ele>
<time>2017-06-11T01:26:22.617Z</time>
</trkpt>
<trkpt lat="-26.7057518" lon="152.9008447">
<ele>392.728</ele>
<time>2017-06-11T01:26:25.586Z</time>
</trkpt>
<trkpt lat="-26.7054562" lon="152.9010602">
<ele>393.100</ele>
<time>2017-06-11T01:26:27.738Z</time>
</trkpt>
<trkpt lat="-26.7050639" lon="152.9013599">
<ele>394.055</ele>
<time>2017-06-11T01:26:30.693Z</time>
</trkpt>
<trkpt lat="-26.7048181" lon="152.9015649">
<ele>394.919</ele>
<time>2017-06-11T01:26:32.694Z</time>
</trkpt>
<trkpt lat="-26.7045829" lon="152.9017615">
<ele>395.386</ele>
<time>2017-06-11T01:26:34.699Z</time>
</trkpt>
<trkpt lat="-26.7042356" lon="152.9019871">
<ele>395.487</ele>
<time>2017-06-11T01:26:37.508Z</time>
</trkpt>
<trkpt lat="-26.7039323" lon="152.9023013">
<ele>395.372</ele>
<time>2017-06-11T01:26:40.478Z</time>
</trkpt>
<trkpt lat="-26.7037758" lon="152.9025354">
<ele>395.204</ele>
<time>2017-06-11T01:26:42.406Z</time>
</trkpt>
<trkpt lat="-26.7036115" lon="152.9029272">
<ele>395.126</ele>
<time>2017-06-11T01:26:45.261Z</time>
</trkpt>
<trkpt lat="-26.7034815" lon="152.9031955">
<ele>395.338</ele>
<time>2017-06-11T01:26:47.278Z</time>
</trkpt>
<trkpt lat="-26.7032049" lon="152.9035031">
<ele>396.079</ele>
<time>2017-06-11T01:26:50.230Z</time>
</trkpt>
<trkpt lat="-26.7030084" lon="152.9036375">
<ele>397.489</ele>
<time>2017-06-11T01:26:52.018Z</time>
</trkpt>
<trkpt lat="-26.7026345" lon="152.9038247">
<ele>399.337</ele>
<time>2017-06-11T01:26:55.149Z</time>
</trkpt>
<trkpt lat="-26.7022399" lon="152.9038524">
<ele>401.052</ele>
<time>2017-06-11T01:26:58.068Z</time>
</trkpt>
<trkpt lat="-26.7018262" lon="152.9039582">
<ele>402.172</ele>
<time>2017-06-11T01:27:01.039Z</time>
</trkpt>
<trkpt lat="-26.7015291" lon="152.9040815">
<ele>402.547</ele>
<time>2017-06-11T01:27:03.034Z</time>
</trkpt>
<trkpt lat="-26.7010354" lon="152.9042587">
<ele>402.183</ele>
<time>2017-06-11T01:27:06.079Z</time>
</trkpt>
<trkpt lat="-26.7005609" lon="152.9045881">
<ele>401.020</ele>
<time>2017-06-11T01:27:09.217Z</time>
</trkpt>
<trkpt lat="-26.7000858" lon="152.9048522">
<ele>398.995</ele>
<time>2017-06-11T01:27:12.245Z</time>
</trkpt>
<trkpt lat="-26.6997608" lon="152.9049202">
<ele>396.739</ele>
<time>2017-06-11T01:27:14.296Z</time>
</trkpt>
<trkpt lat="-26.6994840" lon="152.9049003">
<ele>395.388</ele>
<time>2017-06-11T01:27:16.211Z</time>
</trkpt>
<trkpt lat="-26.6991165" lon="152.9048520">
<ele>395.440</ele>
<time>2017-06-11T01:27:18.995Z</time>
</trkpt>
<trkpt lat="-26.6987905" lon="152.9047977">
<ele>396.644</ele>
<time>2017-06-11T01:27:21.756Z</time>
</trkpt>
<trkpt lat="-26.6985976" lon="152.9047605">
<ele>398.563</ele>
<time>2017-06-11T01:27:23.593Z</time>
</trkpt>
<trkpt lat="-26.6983236" lon="152.9046876">
<ele>400.585</ele>
<time>2017-06-11T01:27:26.451Z</time>
</trkpt>
<trkpt lat="-26.6981523" lon="152.9046449">
<ele>402.073</ele>
<time>2017-06-11T01:27:28.344Z</time>
</trkpt>
<trkpt lat="-26.6978556" lon="152.9046108">
<ele>402.798</ele>
<time>2017-06-11T01:27:31.569Z</time>
</trkpt>
<trkpt lat="-26.6976507" lon="152.9045946">
<ele>402.852</ele>
<time>2017-06-11T01:27:33.613Z</time>
</trkpt>
<trkpt lat="-26.6974449" lon="152.9045159">
<ele>402.346</ele>
<time>2017-06-11T01:27:35.645Z</time>
</trkpt>
<trkpt lat="-26.6972304" lon="152.9043995">
<ele>401.366</ele>
<time>2017-06-11T01:27:37.714Z</time>
</trkpt>
<trkpt lat="-26.6970580" lon="152.9041922">
<ele>400.005</ele>
<time>2017-06-11T01:27:39.698Z</time>
</trkpt>
<trkpt lat="-26.6968860" lon="152.9037388">
<ele>398.400</ele>
<time>2017-06-11T01:27:42.815Z</time>
</trkpt>
<trkpt lat="-26.6968184" lon="152.9034073">
<ele>396.794</ele>
<time>2017-06-11T01:27:44.811Z</time>
</trkpt>
<trkpt lat="-26.6967365" lon="152.9030992">
<ele>395.479</ele>
<time>2017-06-11T01:27:46.693Z</time>
</trkpt>
<trkpt lat="-26.6965975" lon="152.9027949">
<ele>394.626</ele>
<time>2017-06-11T01:27:48.703Z</time>
</trkpt>
<trkpt lat="-26.6963172" lon="152.9023919">
<ele>394.202</ele>
<time>2017-06-11T01:27:51.706Z</time>
</trkpt>
<trkpt lat="-26.6959890" lon="152.9020561">
<ele>394.149</ele>
<time>2017-06-11T01:27:54.657Z</time>
</trkpt>
<trkpt lat="-26.6957600" lon="152.9018537">
<ele>394.493</ele>
<time>2017-06-11T01:27:56.572Z</time>
</trkpt>
<trkpt lat="-26.6955508" lon="152.9015914">
<ele>395.094</ele>
<time>2017-06-11T01:27:58.592Z</time>
</trkpt>
<trkpt lat="-26.6953446" lon="152.9011188">
<ele>395.615</ele>
<time>2017-06-11T01:28:01.588Z</time>
</trkpt>
<trkpt lat="-26.6952229" lon="152.9007933">
<ele>395.819</ele>
<time>2017-06-11T01:28:03.632Z</time>
</trkpt>
<trkpt lat="-26.6950311" lon="152.9003454">
<ele>395.750</ele>
<time>2017-06-11T01:28:06.589Z</time>
</trkpt>
<trkpt lat="-26.6948585" lon="152.8999480">
<ele>395.649</ele>
<time>2017-06-11T01:28:09.341Z</time>
</trkpt>
<trkpt lat="-26.6947620" lon="152.8997165">
<ele>395.888</ele>
<time>2017-06-11T01:28:11.081Z</time>
</trkpt>
<trkpt lat="-26.6945830" lon="152.8995322">
<ele>396.663</ele>
<time>2017-06-11T01:28:13.105Z</time>
</trkpt>
<trkpt lat="-26.6945200" lon="152.8992889">
<ele>397.803</ele>
<time>2017-06-11T01:28:15.022Z</time>
</trkpt>
<trkpt lat="-26.6944276" lon="152.8990373">
<ele>399.050</ele>
<time>2017-06-11T01:28:17.083Z</time>
</trkpt>
<trkpt lat="-26.6942921" lon="152.8986735">
<ele>400.307</ele>
<time>2017-06-11T01:28:20.039Z</time>
</trkpt>
<trkpt lat="-26.6941748" lon="152.8984382">
<ele>401.611</ele>
<time>2017-06-11T01:28:22.027Z</time>
</trkpt>
<trkpt lat="-26.6940163" lon="152.8980522">
<ele>402.962</ele>
<time>2017-06-11T01:28:25.062Z</time>
</trkpt>
<trkpt lat="-26.6938771" lon="152.8977992">
<ele>404.141</ele>
<time>2017-06-11T01:28:27.083Z</time>
</trkpt>
<trkpt lat="-26.6937385" lon="152.8975305">
<ele>404.894</ele>
<time>2017-06-11T01:28:29.119Z</time>
</trkpt>
<trkpt lat="-26.6936222" lon="152.8972247">
<ele>405.028</ele>
<time>2017-06-11T01:28:31.190Z</time>
</trkpt>
<trkpt lat="-26.6935252" lon="152.8967155">
<ele>404.401</ele>
<time>2017-06-11T01:28:34.243Z</time>
</trkpt>
<trkpt lat="-26.6934127" lon="152.8964178">
<ele>403.075</ele>
<time>2017-06-11T01:28:36.159Z</time>
</trkpt>
<trkpt lat="-26.6932343" lon="152.8961742">
<ele>401.519</ele>
<time>2017-06-11T01:28:38.112Z</time>
</trkpt>
<trkpt lat="-26.6930554" lon="152.8959317">
<ele>400.389</ele>
<time>2017-06-11T01:28:40.076Z</time>
</trkpt>
<trkpt lat="-26.6928647" lon="152.8957160">
<ele>400.026</ele>
<time>2017-06-11T01:28:41.990Z</time>
</trkpt>
<trkpt lat="-26.6926682" lon="152.8954882">
<ele>400.368</ele>
<time>2017-06-11T01:28:44.002Z</time>
</trkpt>
<trkpt lat="-26.6924694" lon="152.8952955">
<ele>401.225</ele>
<time>2017-06-11T01:28:45.875Z</time>
</trkpt>
<trkpt lat="-26.6921616" lon="152.8950920">
<ele>402.316</ele>
<time>2017-06-11T01:28:48.602Z</time>
</trkpt>
<trkpt lat="-26.6918767" lon="152.8949108">
<ele>403.262</ele>
<time>2017-06-11T01:28:51.393Z</time>
</trkpt>
<trkpt lat="-26.6917290" lon="152.8947673">
<ele>403.765</ele>
<time>2017-06-11T01:28:53.184Z</time>
</trkpt>
<trkpt lat="-26.6915194" lon="152.8945653">
<ele>403.754</ele>
<time>2017-06-11T01:28:55.923Z</time>
</trkpt>
<trkpt lat="-26.6913240" lon="152.8943882">
<ele>403.192</ele>
<time>2017-06-11T01:28:58.616Z</time>
</trkpt>
<trkpt lat="-26.6911636" lon="152.8942044">
<ele>402.026</ele>
<time>2017-06-11T01:29:01.296Z</time>
</trkpt>
<trkpt lat="-26.6910375" lon="152.8939736">
<ele>400.434</ele>
<time>2017-06-11T01:29:04.292Z</time>
</trkpt>
<trkpt lat="-26.6909710" lon="152.8938484">
<ele>398.846</ele>
<time>2017-06-11T01:29:05.921Z</time>
</trkpt>
<trkpt lat="-26.6908900" lon="152.8937479">
<ele>397.716</ele>
<time>2017-06-11T01:29:07.523Z</time>
</trkpt>
<trkpt lat="-26.6907571" lon="152.8936015">
<ele>397.278</ele>
<time>2017-06-11T01:29:10.297Z</time>
</trkpt>
<trkpt lat="-26.6906589" lon="152.8935146">
<ele>397.537</ele>
<time>2017-06-11T01:29:12.277Z</time>
</trkpt>
<trkpt lat="-26.6905127" lon="152.8933571">
<ele>398.374</ele>
<time>2017-06-11T01:29:15.440Z</time>
</trkpt>
<trkpt lat="-26.6903164" lon="152.8932469">
<ele>399.658</ele>
<time>2017-06-11T01:29:18.705Z</time>
</trkpt>
<trkpt lat="-26.6901815" lon="152.8932039">
<ele>401.322</ele>
<time>2017-06-11T01:29:20.702Z</time>
</trkpt>
<trkpt lat="-26.6900764" lon="152.8931247">
<ele>403.160</ele>
<time>2017-06-11T01:29:22.467Z</time>
</trkpt>
<trkpt lat="-26.6899575" lon="152.8930625">
<ele>404.801</ele>
<time>2017-06-11T01:29:24.332Z</time>
</trkpt>
<trkpt lat="-26.6898382" lon="152.8929923">
<ele>406.083</ele>
<time>2017-06-11T01:29:26.295Z</time>
</trkpt>
<trkpt lat="-26.6897338" lon="152.8929616">
<ele>407.084</ele>
<time>2017-06-11T01:29:27.879Z</time>
</trkpt>
<trkpt lat="-26.6896320" lon="152.8929171">
<ele>407.933</ele>
<time>2017-06-11T01:29:29.649Z</time>
</trkpt>
<trkpt lat="-26.6895396" lon="152.8928813">
<ele>408.775</ele>
<time>2017-06-11T01:29:31.569Z</time>
</trkpt>
<trkpt lat="-26.6894433" lon="152.8928489">
<ele>409.681</ele>
<time>2017-06-11T01:29:34.725Z</time>
</trkpt>
<trkpt lat="-26.6893374" lon="152.8928038">
<ele>410.605</ele>
<time>2017-06-11T01:29:38.966Z</time>
</trkpt>
<trkpt lat="-26.6892335" lon="152.8927804">
<ele>411.485</ele>
<time>2017-06-11T01:29:42.511Z</time>
</trkpt>
<trkpt lat="-26.6891413" lon="152.8927251">
<ele>412.335</ele>
<time>2017-06-11T01:29:45.444Z</time>
</trkpt>
<trkpt lat="-26.6890297" lon="152.8927155">
<ele>413.215</ele>
<time>2017-06-11T01:29:48.515Z</time>
</trkpt>
<trkpt lat="-26.6889257" lon="152.8926571">
<ele>414.187</ele>
<time>2017-06-11T01:29:52.125Z</time>
</trkpt>
<trkpt lat="-26.6888339" lon="152.8925525">
<ele>415.247</ele>
<time>2017-06-11T01:29:57.531Z</time>
</trkpt>
<trkpt lat="-26.6887630" lon="152.8926192">
<ele>416.296</ele>
<time>2017-06-11T01:30:00.712Z</time>
</trkpt>
<trkpt lat="-26.6887219" lon="152.8927143">
<ele>417.240</ele>
<time>2017-06-11T01:30:03.242Z</time>
</trkpt>
<trkpt lat="-26.6887253" lon="152.8928399">
<ele>417.958</ele>
<time>2017-06-11T01:30:07.015Z</time>
</trkpt>
<trkpt lat="-26.6886529" lon="152.8929290">
<ele>418.328</ele>
<time>2017-06-11T01:30:11.189Z</time>
</trkpt>
<trkpt lat="-26.6885061" lon="152.8929923">
<ele>418.382</ele>
<time>2017-06-11T01:30:15.238Z</time>
</trkpt>
<trkpt lat="-26.6883927" lon="152.8930593">
<ele>418.205</ele>
<time>2017-06-11T01:30:17.831Z</time>
</trkpt>
<trkpt lat="-26.6880610" lon="152.8933920">
<ele>417.746</ele>
<time>2017-06-11T01:30:26.123Z</time>
</trkpt>
<trkpt lat="-26.6879458" lon="152.8934851">
<ele>416.947</ele>
<time>2017-06-11T01:30:28.297Z</time>
</trkpt>
<trkpt lat="-26.6878449" lon="152.8936464">
<ele>415.649</ele>
<time>2017-06-11T01:30:30.795Z</time>
</trkpt>
<trkpt lat="-26.6876578" lon="152.8940197">
<ele>413.609</ele>
<time>2017-06-11T01:30:35.303Z</time>
</trkpt>
<trkpt lat="-26.6875643" lon="152.8943695">
<ele>410.819</ele>
<time>2017-06-11T01:30:38.231Z</time>
</trkpt>
<trkpt lat="-26.6874791" lon="152.8946419">
<ele>407.640</ele>
<time>2017-06-11T01:30:40.274Z</time>
</trkpt>
<trkpt lat="-26.6873022" lon="152.8948805">
<ele>404.438</ele>
<time>2017-06-11T01:30:42.320Z</time>
</trkpt>
<trkpt lat="-26.6871027" lon="152.8952673">
<ele>401.265</ele>
<time>2017-06-11T01:30:45.647Z</time>
</trkpt>
<trkpt lat="-26.6869892" lon="152.8954428">
<ele>397.610</ele>
<time>2017-06-11T01:30:47.629Z</time>
</trkpt>
<trkpt lat="-26.6868667" lon="152.8955447">
<ele>393.125</ele>
<time>2017-06-11T01:30:49.238Z</time>
</trkpt>
<trkpt lat="-26.6865701" lon="152.8955515">
<ele>388.814</ele>
<time>2017-06-11T01:30:52.146Z</time>
</trkpt>
<trkpt lat="-26.6862906" lon="152.8956714">
<ele>386.164</ele>
<time>2017-06-11T01:30:54.820Z</time>
</trkpt>
<trkpt lat="-26.6860729" lon="152.8957857">
<ele>385.071</ele>
<time>2017-06-11T01:30:56.792Z</time>
</trkpt>
<trkpt lat="-26.6858663" lon="152.8959260">
<ele>382.934</ele>
<time>2017-06-11T01:30:58.674Z</time>
</trkpt>
<trkpt lat="-26.6856610" lon="152.8963033">
<ele>378.209</ele>
<time>2017-06-11T01:31:01.615Z</time>
</trkpt>
<trkpt lat="-26.6854669" lon="152.8965306">
<ele>373.099</ele>
<time>2017-06-11T01:31:03.578Z</time>
</trkpt>
<trkpt lat="-26.6852811" lon="152.8967757">
<ele>369.798</ele>
<time>2017-06-11T01:31:05.551Z</time>
</trkpt>
<trkpt lat="-26.6850228" lon="152.8971499">
<ele>367.667</ele>
<time>2017-06-11T01:31:08.435Z</time>
</trkpt>
<trkpt lat="-26.6848399" lon="152.8974079">
<ele>365.285</ele>
<time>2017-06-11T01:31:10.425Z</time>
</trkpt>
<trkpt lat="-26.6846120" lon="152.8976393">
<ele>361.938</ele>
<time>2017-06-11T01:31:12.506Z</time>
</trkpt>
<trkpt lat="-26.6843361" lon="152.8980043">
<ele>357.964</ele>
<time>2017-06-11T01:31:15.401Z</time>
</trkpt>
<trkpt lat="-26.6840709" lon="152.8984096">
<ele>353.643</ele>
<time>2017-06-11T01:31:18.465Z</time>
</trkpt>
<trkpt lat="-26.6838546" lon="152.8986400">
<ele>348.626</ele>
<time>2017-06-11T01:31:20.497Z</time>
</trkpt>
<trkpt lat="-26.6834850" lon="152.8989364">
<ele>343.106</ele>
<time>2017-06-11T01:31:23.570Z</time>
</trkpt>
<trkpt lat="-26.6832363" lon="152.8991134">
<ele>337.643</ele>
<time>2017-06-11T01:31:25.695Z</time>
</trkpt>
<trkpt lat="-26.6829939" lon="152.8992130">
<ele>332.473</ele>
<time>2017-06-11T01:31:27.768Z</time>
</trkpt>
<trkpt lat="-26.6827936" lon="152.8993344">
<ele>327.867</ele>
<time>2017-06-11T01:31:29.857Z</time>
</trkpt>
<trkpt lat="-26.6826152" lon="152.8994179">
<ele>324.048</ele>
<time>2017-06-11T01:31:31.843Z</time>
</trkpt>
<trkpt lat="-26.6823335" lon="152.8993829">
<ele>320.834</ele>
<time>2017-06-11T01:31:34.848Z</time>
</trkpt>
<trkpt lat="-26.6820569" lon="152.8993979">
<ele>317.789</ele>
<time>2017-06-11T01:31:37.831Z</time>
</trkpt>
<trkpt lat="-26.6819333" lon="152.8995825">
<ele>314.401</ele>
<time>2017-06-11T01:31:39.734Z</time>
</trkpt>
<trkpt lat="-26.6819563" lon="152.8999956">
<ele>310.685</ele>
<time>2017-06-11T01:31:42.710Z</time>
</trkpt>
<trkpt lat="-26.6820484" lon="152.9004902">
<ele>306.756</ele>
<time>2017-06-11T01:31:45.835Z</time>
</trkpt>
<trkpt lat="-26.6822009" lon="152.9008102">
<ele>302.422</ele>
<time>2017-06-11T01:31:47.901Z</time>
</trkpt>
<trkpt lat="-26.6823385" lon="152.9011417">
<ele>297.973</ele>
<time>2017-06-11T01:31:49.936Z</time>
</trkpt>
<trkpt lat="-26.6823980" lon="152.9016726">
<ele>293.996</ele>
<time>2017-06-11T01:31:52.884Z</time>
</trkpt>
<trkpt lat="-26.6823190" lon="152.9020268">
<ele>289.868</ele>
<time>2017-06-11T01:31:54.851Z</time>
</trkpt>
<trkpt lat="-26.6821719" lon="152.9023573">
<ele>284.590</ele>
<time>2017-06-11T01:31:56.820Z</time>
</trkpt>
<trkpt lat="-26.6821107" lon="152.9027142">
<ele>278.450</ele>
<time>2017-06-11T01:31:58.779Z</time>
</trkpt>
<trkpt lat="-26.6819728" lon="152.9032137">
<ele>272.433</ele>
<time>2017-06-11T01:32:01.720Z</time>
</trkpt>
<trkpt lat="-26.6818911" lon="152.9035038">
<ele>266.785</ele>
<time>2017-06-11T01:32:03.627Z</time>
</trkpt>
<trkpt lat="-26.6819575" lon="152.9037791">
<ele>261.548</ele>
<time>2017-06-11T01:32:05.390Z</time>
</trkpt>
<trkpt lat="-26.6821688" lon="152.9040481">
<ele>257.078</ele>
<time>2017-06-11T01:32:07.444Z</time>
</trkpt>
<trkpt lat="-26.6824446" lon="152.9045061">
<ele>253.449</ele>
<time>2017-06-11T01:32:10.475Z</time>
</trkpt>
<trkpt lat="-26.6826718" lon="152.9050035">
<ele>249.965</ele>
<time>2017-06-11T01:32:13.595Z</time>
</trkpt>
<trkpt lat="-26.6828359" lon="152.9054615">
<ele>246.348</ele>
<time>2017-06-11T01:32:16.589Z</time>
</trkpt>
<trkpt lat="-26.6827689" lon="152.9059378">
<ele>242.169</ele>
<time>2017-06-11T01:32:19.713Z</time>
</trkpt>
<trkpt lat="-26.6826674" lon="152.9061975">
<ele>237.351</ele>
<time>2017-06-11T01:32:21.657Z</time>
</trkpt>
<trkpt lat="-26.6824973" lon="152.9065650">
<ele>232.934</ele>
<time>2017-06-11T01:32:24.491Z</time>
</trkpt>
<trkpt lat="-26.6822717" lon="152.9067396">
<ele>229.048</ele>
<time>2017-06-11T01:32:26.485Z</time>
</trkpt>
<trkpt lat="-26.6820771" lon="152.9069634">
<ele>224.785</ele>
<time>2017-06-11T01:32:28.387Z</time>
</trkpt>
<trkpt lat="-26.6819053" lon="152.9073822">
<ele>220.223</ele>
<time>2017-06-11T01:32:30.966Z</time>
</trkpt>
<trkpt lat="-26.6817479" lon="152.9079063">
<ele>215.487</ele>
<time>2017-06-11T01:32:33.845Z</time>
</trkpt>
<trkpt lat="-26.6816580" lon="152.9082886">
<ele>211.118</ele>
<time>2017-06-11T01:32:35.796Z</time>
</trkpt>
<trkpt lat="-26.6815803" lon="152.9086727">
<ele>208.128</ele>
<time>2017-06-11T01:32:37.815Z</time>
</trkpt>
<trkpt lat="-26.6814779" lon="152.9091940">
<ele>206.684</ele>
<time>2017-06-11T01:32:40.682Z</time>
</trkpt>
<trkpt lat="-26.6814520" lon="152.9095311">
<ele>206.135</ele>
<time>2017-06-11T01:32:42.615Z</time>
</trkpt>
<trkpt lat="-26.6814794" lon="152.9098632">
<ele>205.889</ele>
<time>2017-06-11T01:32:44.490Z</time>
</trkpt>
<trkpt lat="-26.6816281" lon="152.9103859">
<ele>205.673</ele>
<time>2017-06-11T01:32:47.478Z</time>
</trkpt>
<trkpt lat="-26.6817308" lon="152.9107483">
<ele>205.233</ele>
<time>2017-06-11T01:32:49.490Z</time>
</trkpt>
<trkpt lat="-26.6817471" lon="152.9113065">
<ele>204.101</ele>
<time>2017-06-11T01:32:52.472Z</time>
</trkpt>
<trkpt lat="-26.6817380" lon="152.9116691">
<ele>201.927</ele>
<time>2017-06-11T01:32:54.435Z</time>
</trkpt>
<trkpt lat="-26.6817410" lon="152.9120318">
<ele>198.859</ele>
<time>2017-06-11T01:32:56.402Z</time>
</trkpt>
<trkpt lat="-26.6817579" lon="152.9123930">
<ele>195.594</ele>
<time>2017-06-11T01:32:58.372Z</time>
</trkpt>
<trkpt lat="-26.6817462" lon="152.9129184">
<ele>192.785</ele>
<time>2017-06-11T01:33:01.209Z</time>
</trkpt>
<trkpt lat="-26.6815266" lon="152.9134257">
<ele>190.367</ele>
<time>2017-06-11T01:33:04.182Z</time>
</trkpt>
<trkpt lat="-26.6813289" lon="152.9137295">
<ele>188.157</ele>
<time>2017-06-11T01:33:06.152Z</time>
</trkpt>
<trkpt lat="-26.6811104" lon="152.9140079">
<ele>186.379</ele>
<time>2017-06-11T01:33:08.118Z</time>
</trkpt>
<trkpt lat="-26.6809210" lon="152.9143031">
<ele>185.167</ele>
<time>2017-06-11T01:33:10.050Z</time>
</trkpt>
<trkpt lat="-26.6807343" lon="152.9148268">
<ele>184.178</ele>
<time>2017-06-11T01:33:13.034Z</time>
</trkpt>
<trkpt lat="-26.6805452" lon="152.9153905">
<ele>182.882</ele>
<time>2017-06-11T01:33:16.217Z</time>
</trkpt>
<trkpt lat="-26.6805115" lon="152.9158088">
<ele>180.734</ele>
<time>2017-06-11T01:33:18.336Z</time>
</trkpt>
<trkpt lat="-26.6805266" lon="152.9164894">
<ele>177.738</ele>
<time>2017-06-11T01:33:21.579Z</time>
</trkpt>
<trkpt lat="-26.6805965" lon="152.9171117">
<ele>174.365</ele>
<time>2017-06-11T01:33:24.517Z</time>
</trkpt>
<trkpt lat="-26.6806476" lon="152.9175227">
<ele>170.109</ele>
<time>2017-06-11T01:33:26.480Z</time>
</trkpt>
<trkpt lat="-26.6806618" lon="152.9179430">
<ele>164.316</ele>
<time>2017-06-11T01:33:28.462Z</time>
</trkpt>
<trkpt lat="-26.6808119" lon="152.9185813">
<ele>158.551</ele>
<time>2017-06-11T01:33:31.585Z</time>
</trkpt>
<trkpt lat="-26.6809693" lon="152.9191743">
<ele>155.036</ele>
<time>2017-06-11T01:33:34.557Z</time>
</trkpt>
<trkpt lat="-26.6808686" lon="152.9197647">
<ele>153.985</ele>
<time>2017-06-11T01:33:37.451Z</time>
</trkpt>
<trkpt lat="-26.6807237" lon="152.9201700">
<ele>154.261</ele>
<time>2017-06-11T01:33:39.487Z</time>
</trkpt>
<trkpt lat="-26.6805445" lon="152.9208004">
<ele>155.149</ele>
<time>2017-06-11T01:33:42.515Z</time>
</trkpt>
<trkpt lat="-26.6804672" lon="152.9212268">
<ele>156.883</ele>
<time>2017-06-11T01:33:44.477Z</time>
</trkpt>
<trkpt lat="-26.6804050" lon="152.9218842">
<ele>159.595</ele>
<time>2017-06-11T01:33:47.503Z</time>
</trkpt>
<trkpt lat="-26.6804300" lon="152.9224956">
<ele>162.266</ele>
<time>2017-06-11T01:33:50.421Z</time>
</trkpt>
<trkpt lat="-26.6804769" lon="152.9228779">
<ele>163.840</ele>
<time>2017-06-11T01:33:52.328Z</time>
</trkpt>
<trkpt lat="-26.6807439" lon="152.9233904">
<ele>164.322</ele>
<time>2017-06-11T01:33:55.272Z</time>
</trkpt>
<trkpt lat="-26.6809294" lon="152.9237265">
<ele>164.263</ele>
<time>2017-06-11T01:33:57.229Z</time>
</trkpt>
<trkpt lat="-26.6811663" lon="152.9242505">
<ele>164.007</ele>
<time>2017-06-11T01:34:00.188Z</time>
</trkpt>
<trkpt lat="-26.6813865" lon="152.9247460">
<ele>163.438</ele>
<time>2017-06-11T01:34:03.139Z</time>
</trkpt>
<trkpt lat="-26.6816138" lon="152.9249627">
<ele>162.239</ele>
<time>2017-06-11T01:34:05.070Z</time>
</trkpt>
<trkpt lat="-26.6821186" lon="152.9250917">
<ele>160.488</ele>
<time>2017-06-11T01:34:08.471Z</time>
</trkpt>
<trkpt lat="-26.6824498" lon="152.9250419">
<ele>158.464</ele>
<time>2017-06-11T01:34:10.604Z</time>
</trkpt>
<trkpt lat="-26.6827321" lon="152.9249854">
<ele>156.259</ele>
<time>2017-06-11T01:34:12.443Z</time>
</trkpt>
<trkpt lat="-26.6832101" lon="152.9250901">
<ele>153.948</ele>
<time>2017-06-11T01:34:15.509Z</time>
</trkpt>
<trkpt lat="-26.6836860" lon="152.9252702">
<ele>151.445</ele>
<time>2017-06-11T01:34:18.525Z</time>
</trkpt>
<trkpt lat="-26.6840137" lon="152.9253709">
<ele>148.406</ele>
<time>2017-06-11T01:34:20.526Z</time>
</trkpt>
<trkpt lat="-26.6843275" lon="152.9254685">
<ele>144.994</ele>
<time>2017-06-11T01:34:22.523Z</time>
</trkpt>
<trkpt lat="-26.6847840" lon="152.9255754">
<ele>141.876</ele>
<time>2017-06-11T01:34:25.572Z</time>
</trkpt>
<trkpt lat="-26.6851993" lon="152.9255623">
<ele>139.260</ele>
<time>2017-06-11T01:34:28.399Z</time>
</trkpt>
<trkpt lat="-26.6855743" lon="152.9254448">
<ele>136.711</ele>
<time>2017-06-11T01:34:30.835Z</time>
</trkpt>
<trkpt lat="-26.6859139" lon="152.9253806">
<ele>133.911</ele>
<time>2017-06-11T01:34:32.951Z</time>
</trkpt>
<trkpt lat="-26.6863661" lon="152.9253785">
<ele>130.241</ele>
<time>2017-06-11T01:34:35.733Z</time>
</trkpt>
<trkpt lat="-26.6867704" lon="152.9257268">
<ele>124.670</ele>
<time>2017-06-11T01:34:38.741Z</time>
</trkpt>
<trkpt lat="-26.6870099" lon="152.9260345">
<ele>118.263</ele>
<time>2017-06-11T01:34:40.754Z</time>
</trkpt>
<trkpt lat="-26.6874139" lon="152.9264356">
<ele>113.891</ele>
<time>2017-06-11T01:34:43.780Z</time>
</trkpt>
<trkpt lat="-26.6877993" lon="152.9267840">
<ele>112.474</ele>
<time>2017-06-11T01:34:46.688Z</time>
</trkpt>
<trkpt lat="-26.6880880" lon="152.9269443">
<ele>112.279</ele>
<time>2017-06-11T01:34:48.644Z</time>
</trkpt>
<trkpt lat="-26.6884403" lon="152.9269505">
<ele>111.555</ele>
<time>2017-06-11T01:34:50.741Z</time>
</trkpt>
<trkpt lat="-26.6887778" lon="152.9269290">
<ele>110.073</ele>
<time>2017-06-11T01:34:52.726Z</time>
</trkpt>
<trkpt lat="-26.6891057" lon="152.9269098">
<ele>108.455</ele>
<time>2017-06-11T01:34:54.627Z</time>
</trkpt>
<trkpt lat="-26.6896381" lon="152.9269373">
<ele>106.840</ele>
<time>2017-06-11T01:34:57.680Z</time>
</trkpt>
<trkpt lat="-26.6899641" lon="152.9271209">
<ele>104.788</ele>
<time>2017-06-11T01:34:59.727Z</time>
</trkpt>
<trkpt lat="-26.6902167" lon="152.9274151">
<ele>102.072</ele>
<time>2017-06-11T01:35:01.768Z</time>
</trkpt>
<trkpt lat="-26.6904439" lon="152.9276927">
<ele>99.263</ele>
<time>2017-06-11T01:35:03.700Z</time>
</trkpt>
<trkpt lat="-26.6906219" lon="152.9282053">
<ele>97.046</ele>
<time>2017-06-11T01:35:06.535Z</time>
</trkpt>
<trkpt lat="-26.6906649" lon="152.9286004">
<ele>95.374</ele>
<time>2017-06-11T01:35:08.585Z</time>
</trkpt>
<trkpt lat="-26.6908013" lon="152.9291461">
<ele>93.886</ele>
<time>2017-06-11T01:35:11.504Z</time>
</trkpt>
<trkpt lat="-26.6908437" lon="152.9295396">
<ele>92.376</ele>
<time>2017-06-11T01:35:13.541Z</time>
</trkpt>
<trkpt lat="-26.6908430" lon="152.9299181">
<ele>90.854</ele>
<time>2017-06-11T01:35:15.526Z</time>
</trkpt>
<trkpt lat="-26.6908449" lon="152.9302709">
<ele>89.522</ele>
<time>2017-06-11T01:35:17.505Z</time>
</trkpt>
<trkpt lat="-26.6908897" lon="152.9307679">
<ele>88.521</ele>
<time>2017-06-11T01:35:20.370Z</time>
</trkpt>
<trkpt lat="-26.6911149" lon="152.9310417">
<ele>87.630</ele>
<time>2017-06-11T01:35:22.352Z</time>
</trkpt>
<trkpt lat="-26.6915347" lon="152.9314599">
<ele>86.701</ele>
<time>2017-06-11T01:35:25.500Z</time>
</trkpt>
<trkpt lat="-26.6918193" lon="152.9317267">
<ele>85.946</ele>
<time>2017-06-11T01:35:27.503Z</time>
</trkpt>
<trkpt lat="-26.6920943" lon="152.9319919">
<ele>85.482</ele>
<time>2017-06-11T01:35:29.455Z</time>
</trkpt>
<trkpt lat="-26.6924849" lon="152.9324212">
<ele>85.079</ele>
<time>2017-06-11T01:35:32.397Z</time>
</trkpt>
<trkpt lat="-26.6927379" lon="152.9327044">
<ele>84.456</ele>
<time>2017-06-11T01:35:34.354Z</time>
</trkpt>
<trkpt lat="-26.6930684" lon="152.9331583">
<ele>83.520</ele>
<time>2017-06-11T01:35:37.303Z</time>
</trkpt>
<trkpt lat="-26.6934203" lon="152.9335499">
<ele>82.271</ele>
<time>2017-06-11T01:35:40.279Z</time>
</trkpt>
<trkpt lat="-26.6936941" lon="152.9339328">
<ele>80.673</ele>
<time>2017-06-11T01:35:43.143Z</time>
</trkpt>
<trkpt lat="-26.6937941" lon="152.9342322">
<ele>78.818</ele>
<time>2017-06-11T01:35:45.047Z</time>
</trkpt>
<trkpt lat="-26.6938489" lon="152.9348068">
<ele>77.074</ele>
<time>2017-06-11T01:35:48.196Z</time>
</trkpt>
<trkpt lat="-26.6939261" lon="152.9354117">
<ele>75.859</ele>
<time>2017-06-11T01:35:51.225Z</time>
</trkpt>
<trkpt lat="-26.6939626" lon="152.9358205">
<ele>75.307</ele>
<time>2017-06-11T01:35:53.202Z</time>
</trkpt>
<trkpt lat="-26.6940455" lon="152.9364448">
<ele>75.183</ele>
<time>2017-06-11T01:35:56.173Z</time>
</trkpt>
<trkpt lat="-26.6941347" lon="152.9370932">
<ele>75.115</ele>
<time>2017-06-11T01:35:59.160Z</time>
</trkpt>
<trkpt lat="-26.6942271" lon="152.9377530">
<ele>74.860</ele>
<time>2017-06-11T01:36:02.124Z</time>
</trkpt>
<trkpt lat="-26.6943042" lon="152.9382089">
<ele>74.361</ele>
<time>2017-06-11T01:36:04.172Z</time>
</trkpt>
<trkpt lat="-26.6943413" lon="152.9386354">
<ele>73.669</ele>
<time>2017-06-11T01:36:06.089Z</time>
</trkpt>
<trkpt lat="-26.6944344" lon="152.9390600">
<ele>72.874</ele>
<time>2017-06-11T01:36:08.117Z</time>
</trkpt>
<trkpt lat="-26.6945101" lon="152.9396604">
<ele>72.052</ele>
<time>2017-06-11T01:36:11.089Z</time>
</trkpt>
<trkpt lat="-26.6945533" lon="152.9400025">
<ele>71.040</ele>
<time>2017-06-11T01:36:12.983Z</time>
</trkpt>
<trkpt lat="-26.6945499" lon="152.9403235">
<ele>69.647</ele>
<time>2017-06-11T01:36:14.954Z</time>
</trkpt>
<trkpt lat="-26.6945901" lon="152.9407338">
<ele>68.039</ele>
<time>2017-06-11T01:36:17.836Z</time>
</trkpt>
<trkpt lat="-26.6946268" lon="152.9410434">
<ele>66.492</ele>
<time>2017-06-11T01:36:20.540Z</time>
</trkpt>
<trkpt lat="-26.6946668" lon="152.9411647">
<ele>65.081</ele>
<time>2017-06-11T01:36:22.000Z</time>
</trkpt>
<trkpt lat="-26.6946668" lon="152.9411647">
<ele>63.970</ele>
<time>2017-06-11T01:36:28.000Z</time>
</trkpt>
<trkpt lat="-26.6946668" lon="152.9411647">
<ele>63.441</ele>
<time>2017-06-11T01:36:46.567Z</time>
</trkpt>
<trkpt lat="-26.6948912" lon="152.9412497">
<ele>63.473</ele>
<time>2017-06-11T01:36:54.399Z</time>
</trkpt>
<trkpt lat="-26.6949997" lon="152.9412311">
<ele>63.681</ele>
<time>2017-06-11T01:36:56.545Z</time>
</trkpt>
<trkpt lat="-26.6950963" lon="152.9411887">
<ele>63.781</ele>
<time>2017-06-11T01:36:58.737Z</time>
</trkpt>
<trkpt lat="-26.6952293" lon="152.9411248">
<ele>63.813</ele>
<time>2017-06-11T01:37:03.011Z</time>
</trkpt>
<trkpt lat="-26.6953194" lon="152.9410949">
<ele>63.909</ele>
<time>2017-06-11T01:37:07.035Z</time>
</trkpt>
<trkpt lat="-26.6954112" lon="152.9410562">
<ele>64.057</ele>
<time>2017-06-11T01:37:10.727Z</time>
</trkpt>
<trkpt lat="-26.6954873" lon="152.9411749">
<ele>64.093</ele>
<time>2017-06-11T01:37:13.387Z</time>
</trkpt>
<trkpt lat="-26.6954788" lon="152.9413750">
<ele>63.943</ele>
<time>2017-06-11T01:37:15.407Z</time>
</trkpt>
<trkpt lat="-26.6954958" lon="152.9416311">
<ele>63.779</ele>
<time>2017-06-11T01:37:17.471Z</time>
</trkpt>
<trkpt lat="-26.6955741" lon="152.9420372">
<ele>63.824</ele>
<time>2017-06-11T01:37:20.556Z</time>
</trkpt>
<trkpt lat="-26.6955833" lon="152.9423120">
<ele>64.177</ele>
<time>2017-06-11T01:37:22.488Z</time>
</trkpt>
<trkpt lat="-26.6954860" lon="152.9425867">
<ele>64.750</ele>
<time>2017-06-11T01:37:24.487Z</time>
</trkpt>
<trkpt lat="-26.6953995" lon="152.9428722">
<ele>65.298</ele>
<time>2017-06-11T01:37:26.468Z</time>
</trkpt>
<trkpt lat="-26.6952796" lon="152.9433085">
<ele>65.702</ele>
<time>2017-06-11T01:37:29.428Z</time>
</trkpt>
<trkpt lat="-26.6952177" lon="152.9436159">
<ele>66.084</ele>
<time>2017-06-11T01:37:31.418Z</time>
</trkpt>
<trkpt lat="-26.6950979" lon="152.9440770">
<ele>66.612</ele>
<time>2017-06-11T01:37:34.442Z</time>
</trkpt>
<trkpt lat="-26.6950308" lon="152.9445360">
<ele>67.383</ele>
<time>2017-06-11T01:37:37.451Z</time>
</trkpt>
<trkpt lat="-26.6950160" lon="152.9448225">
<ele>68.424</ele>
<time>2017-06-11T01:37:39.491Z</time>
</trkpt>
<trkpt lat="-26.6949513" lon="152.9450604">
<ele>69.551</ele>
<time>2017-06-11T01:37:41.474Z</time>
</trkpt>
<trkpt lat="-26.6948778" lon="152.9452645">
<ele>70.390</ele>
<time>2017-06-11T01:37:43.515Z</time>
</trkpt>
<trkpt lat="-26.6946792" lon="152.9454503">
<ele>70.752</ele>
<time>2017-06-11T01:37:46.586Z</time>
</trkpt>
<trkpt lat="-26.6946187" lon="152.9455987">
<ele>70.764</ele>
<time>2017-06-11T01:37:48.557Z</time>
</trkpt>
<trkpt lat="-26.6944676" lon="152.9457807">
<ele>70.639</ele>
<time>2017-06-11T01:37:51.528Z</time>
</trkpt>
<trkpt lat="-26.6943435" lon="152.9458941">
<ele>70.604</ele>
<time>2017-06-11T01:37:53.342Z</time>
</trkpt>
<trkpt lat="-26.6940330" lon="152.9460996">
<ele>70.853</ele>
<time>2017-06-11T01:37:56.889Z</time>
</trkpt>
<trkpt lat="-26.6938571" lon="152.9461985">
<ele>71.496</ele>
<time>2017-06-11T01:37:58.595Z</time>
</trkpt>
<trkpt lat="-26.6935464" lon="152.9463470">
<ele>72.538</ele>
<time>2017-06-11T01:38:01.542Z</time>
</trkpt>
<trkpt lat="-26.6933621" lon="152.9464491">
<ele>73.858</ele>
<time>2017-06-11T01:38:03.491Z</time>
</trkpt>
<trkpt lat="-26.6931217" lon="152.9466222">
<ele>75.187</ele>
<time>2017-06-11T01:38:06.383Z</time>
</trkpt>
<trkpt lat="-26.6928877" lon="152.9467721">
<ele>76.278</ele>
<time>2017-06-11T01:38:09.237Z</time>
</trkpt>
<trkpt lat="-26.6926194" lon="152.9469267">
<ele>77.060</ele>
<time>2017-06-11T01:38:12.236Z</time>
</trkpt>
<trkpt lat="-26.6923349" lon="152.9471619">
<ele>77.554</ele>
<time>2017-06-11T01:38:15.282Z</time>
</trkpt>
<trkpt lat="-26.6920986" lon="152.9473173">
<ele>77.794</ele>
<time>2017-06-11T01:38:17.340Z</time>
</trkpt>
<trkpt lat="-26.6917247" lon="152.9475519">
<ele>77.883</ele>
<time>2017-06-11T01:38:20.414Z</time>
</trkpt>
<trkpt lat="-26.6913849" lon="152.9478256">
<ele>77.802</ele>
<time>2017-06-11T01:38:23.352Z</time>
</trkpt>
<trkpt lat="-26.6911806" lon="152.9480491">
<ele>77.419</ele>
<time>2017-06-11T01:38:25.332Z</time>
</trkpt>
<trkpt lat="-26.6909105" lon="152.9484347">
<ele>76.817</ele>
<time>2017-06-11T01:38:28.326Z</time>
</trkpt>
<trkpt lat="-26.6907619" lon="152.9487176">
<ele>76.239</ele>
<time>2017-06-11T01:38:30.291Z</time>
</trkpt>
<trkpt lat="-26.6906160" lon="152.9490167">
<ele>75.762</ele>
<time>2017-06-11T01:38:32.328Z</time>
</trkpt>
<trkpt lat="-26.6905190" lon="152.9493222">
<ele>75.349</ele>
<time>2017-06-11T01:38:34.295Z</time>
</trkpt>
<trkpt lat="-26.6903710" lon="152.9497596">
<ele>74.967</ele>
<time>2017-06-11T01:38:37.163Z</time>
</trkpt>
<trkpt lat="-26.6902685" lon="152.9500719">
<ele>74.524</ele>
<time>2017-06-11T01:38:39.203Z</time>
</trkpt>
<trkpt lat="-26.6901120" lon="152.9505338">
<ele>73.987</ele>
<time>2017-06-11T01:38:42.204Z</time>
</trkpt>
<trkpt lat="-26.6900180" lon="152.9508517">
<ele>73.506</ele>
<time>2017-06-11T01:38:44.221Z</time>
</trkpt>
<trkpt lat="-26.6898875" lon="152.9513352">
<ele>73.309</ele>
<time>2017-06-11T01:38:47.301Z</time>
</trkpt>
<trkpt lat="-26.6897918" lon="152.9516219">
<ele>73.587</ele>
<time>2017-06-11T01:38:49.261Z</time>
</trkpt>
<trkpt lat="-26.6896431" lon="152.9520442">
<ele>74.298</ele>
<time>2017-06-11T01:38:52.210Z</time>
</trkpt>
<trkpt lat="-26.6894895" lon="152.9524790">
<ele>75.090</ele>
<time>2017-06-11T01:38:55.178Z</time>
</trkpt>
<trkpt lat="-26.6892950" lon="152.9529244">
<ele>75.630</ele>
<time>2017-06-11T01:38:58.202Z</time>
</trkpt>
<trkpt lat="-26.6891503" lon="152.9532134">
<ele>75.633</ele>
<time>2017-06-11T01:39:00.151Z</time>
</trkpt>
<trkpt lat="-26.6889760" lon="152.9535077">
<ele>74.854</ele>
<time>2017-06-11T01:39:02.168Z</time>
</trkpt>
<trkpt lat="-26.6888330" lon="152.9538237">
<ele>73.413</ele>
<time>2017-06-11T01:39:04.150Z</time>
</trkpt>
<trkpt lat="-26.6886136" lon="152.9543072">
<ele>71.641</ele>
<time>2017-06-11T01:39:07.145Z</time>
</trkpt>
<trkpt lat="-26.6884629" lon="152.9546390">
<ele>69.628</ele>
<time>2017-06-11T01:39:09.190Z</time>
</trkpt>
<trkpt lat="-26.6882335" lon="152.9551356">
<ele>67.535</ele>
<time>2017-06-11T01:39:12.328Z</time>
</trkpt>
<trkpt lat="-26.6880703" lon="152.9554105">
<ele>65.697</ele>
<time>2017-06-11T01:39:14.263Z</time>
</trkpt>
<trkpt lat="-26.6879361" lon="152.9556906">
<ele>64.279</ele>
<time>2017-06-11T01:39:16.201Z</time>
</trkpt>
<trkpt lat="-26.6876904" lon="152.9560606">
<ele>63.353</ele>
<time>2017-06-11T01:39:19.158Z</time>
</trkpt>
<trkpt lat="-26.6875138" lon="152.9562554">
<ele>63.034</ele>
<time>2017-06-11T01:39:21.097Z</time>
</trkpt>
<trkpt lat="-26.6872889" lon="152.9565767">
<ele>63.360</ele>
<time>2017-06-11T01:39:24.048Z</time>
</trkpt>
<trkpt lat="-26.6871509" lon="152.9569451">
<ele>64.508</ele>
<time>2017-06-11T01:39:27.091Z</time>
</trkpt>
<trkpt lat="-26.6871560" lon="152.9572707">
<ele>66.676</ele>
<time>2017-06-11T01:39:29.892Z</time>
</trkpt>
<trkpt lat="-26.6871325" lon="152.9574559">
<ele>69.508</ele>
<time>2017-06-11T01:39:31.842Z</time>
</trkpt>
<trkpt lat="-26.6871113" lon="152.9576069">
<ele>72.096</ele>
<time>2017-06-11T01:39:33.736Z</time>
</trkpt>
<trkpt lat="-26.6870031" lon="152.9577877">
<ele>73.784</ele>
<time>2017-06-11T01:39:36.908Z</time>
</trkpt>
<trkpt lat="-26.6869583" lon="152.9579025">
<ele>74.563</ele>
<time>2017-06-11T01:39:38.814Z</time>
</trkpt>
<trkpt lat="-26.6868508" lon="152.9579984">
<ele>74.785</ele>
<time>2017-06-11T01:39:40.964Z</time>
</trkpt>
<trkpt lat="-26.6867598" lon="152.9582111">
<ele>74.799</ele>
<time>2017-06-11T01:39:43.943Z</time>
</trkpt>
<trkpt lat="-26.6865841" lon="152.9584461">
<ele>74.846</ele>
<time>2017-06-11T01:39:47.212Z</time>
</trkpt>
<trkpt lat="-26.6864057" lon="152.9585733">
<ele>75.087</ele>
<time>2017-06-11T01:39:49.421Z</time>
</trkpt>
<trkpt lat="-26.6862388" lon="152.9586797">
<ele>75.477</ele>
<time>2017-06-11T01:39:51.395Z</time>
</trkpt>
<trkpt lat="-26.6860995" lon="152.9588330">
<ele>75.733</ele>
<time>2017-06-11T01:39:53.393Z</time>
</trkpt>
<trkpt lat="-26.6858761" lon="152.9590271">
<ele>75.585</ele>
<time>2017-06-11T01:39:56.255Z</time>
</trkpt>
<trkpt lat="-26.6856990" lon="152.9591617">
<ele>74.820</ele>
<time>2017-06-11T01:39:58.549Z</time>
</trkpt>
<trkpt lat="-26.6854962" lon="152.9593027">
<ele>73.342</ele>
<time>2017-06-11T01:40:02.131Z</time>
</trkpt>
<trkpt lat="-26.6854017" lon="152.9592910">
<ele>71.158</ele>
<time>2017-06-11T01:40:04.010Z</time>
</trkpt>
<trkpt lat="-26.6854017" lon="152.9592910">
<ele>68.753</ele>
<time>2017-06-11T01:40:09.010Z</time>
</trkpt>
<trkpt lat="-26.6854017" lon="152.9592910">
<ele>67.322</ele>
<time>2017-06-11T01:40:13.044Z</time>
</trkpt>
<trkpt lat="-26.6852130" lon="152.9593374">
<ele>67.388</ele>
<time>2017-06-11T01:40:18.681Z</time>
</trkpt>
<trkpt lat="-26.6850368" lon="152.9594876">
<ele>66.891</ele>
<time>2017-06-11T01:40:22.247Z</time>
</trkpt>
<trkpt lat="-26.6848865" lon="152.9594601">
<ele>64.214</ele>
<time>2017-06-11T01:40:24.605Z</time>
</trkpt>
<trkpt lat="-26.6847720" lon="152.9595682">
<ele>60.949</ele>
<time>2017-06-11T01:40:27.173Z</time>
</trkpt>
<trkpt lat="-26.6847330" lon="152.9597167">
<ele>58.942</ele>
<time>2017-06-11T01:40:30.195Z</time>
</trkpt>
<trkpt lat="-26.6847888" lon="152.9598793">
<ele>57.990</ele>
<time>2017-06-11T01:40:34.828Z</time>
</trkpt>
<trkpt lat="-26.6848573" lon="152.9599589">
<ele>57.383</ele>
<time>2017-06-11T01:40:37.316Z</time>
</trkpt>
<trkpt lat="-26.6849199" lon="152.9601037">
<ele>56.658</ele>
<time>2017-06-11T01:40:39.653Z</time>
</trkpt>
<trkpt lat="-26.6850302" lon="152.9601056">
<ele>55.884</ele>
<time>2017-06-11T01:40:41.185Z</time>
</trkpt>
<trkpt lat="-26.6852739" lon="152.9599961">
<ele>55.405</ele>
<time>2017-06-11T01:40:43.563Z</time>
</trkpt>
<trkpt lat="-26.6855071" lon="152.9599035">
<ele>55.394</ele>
<time>2017-06-11T01:40:45.449Z</time>
</trkpt>
<trkpt lat="-26.6859221" lon="152.9598256">
<ele>55.818</ele>
<time>2017-06-11T01:40:48.705Z</time>
</trkpt>
<trkpt lat="-26.6862859" lon="152.9598073">
<ele>56.623</ele>
<time>2017-06-11T01:40:51.691Z</time>
</trkpt>
<trkpt lat="-26.6866116" lon="152.9600110">
<ele>57.699</ele>
<time>2017-06-11T01:40:54.549Z</time>
</trkpt>
<trkpt lat="-26.6867675" lon="152.9602675">
<ele>58.829</ele>
<time>2017-06-11T01:40:56.416Z</time>
</trkpt>
<trkpt lat="-26.6870044" lon="152.9607335">
<ele>59.812</ele>
<time>2017-06-11T01:40:59.389Z</time>
</trkpt>
<trkpt lat="-26.6871847" lon="152.9610456">
<ele>60.647</ele>
<time>2017-06-11T01:41:01.440Z</time>
</trkpt>
<trkpt lat="-26.6873761" lon="152.9615138">
<ele>61.461</ele>
<time>2017-06-11T01:41:04.442Z</time>
</trkpt>
<trkpt lat="-26.6874710" lon="152.9618067">
<ele>62.474</ele>
<time>2017-06-11T01:41:06.346Z</time>
</trkpt>
<trkpt lat="-26.6876621" lon="152.9622384">
<ele>63.832</ele>
<time>2017-06-11T01:41:09.444Z</time>
</trkpt>
<trkpt lat="-26.6877434" lon="152.9625125">
<ele>65.509</ele>
<time>2017-06-11T01:41:11.493Z</time>
</trkpt>
<trkpt lat="-26.6878285" lon="152.9627573">
<ele>67.332</ele>
<time>2017-06-11T01:41:13.470Z</time>
</trkpt>
<trkpt lat="-26.6880441" lon="152.9629915">
<ele>69.072</ele>
<time>2017-06-11T01:41:16.004Z</time>
</trkpt>
<trkpt lat="-26.6884302" lon="152.9630148">
<ele>70.759</ele>
<time>2017-06-11T01:41:19.214Z</time>
</trkpt>
<trkpt lat="-26.6886568" lon="152.9630962">
<ele>72.729</ele>
<time>2017-06-11T01:41:21.215Z</time>
</trkpt>
<trkpt lat="-26.6888820" lon="152.9631509">
<ele>74.955</ele>
<time>2017-06-11T01:41:23.122Z</time>
</trkpt>
<trkpt lat="-26.6892310" lon="152.9632231">
<ele>77.004</ele>
<time>2017-06-11T01:41:25.920Z</time>
</trkpt>
<trkpt lat="-26.6894981" lon="152.9631723">
<ele>78.617</ele>
<time>2017-06-11T01:41:27.859Z</time>
</trkpt>
<trkpt lat="-26.6899110" lon="152.9630657">
<ele>79.741</ele>
<time>2017-06-11T01:41:30.808Z</time>
</trkpt>
<trkpt lat="-26.6902010" lon="152.9630367">
<ele>80.326</ele>
<time>2017-06-11T01:41:32.855Z</time>
</trkpt>
<trkpt lat="-26.6904632" lon="152.9629630">
<ele>80.421</ele>
<time>2017-06-11T01:41:34.937Z</time>
</trkpt>
<trkpt lat="-26.6908037" lon="152.9628636">
<ele>80.152</ele>
<time>2017-06-11T01:41:37.790Z</time>
</trkpt>
<trkpt lat="-26.6910339" lon="152.9628149">
<ele>79.624</ele>
<time>2017-06-11T01:41:39.722Z</time>
</trkpt>
<trkpt lat="-26.6912639" lon="152.9629176">
<ele>79.011</ele>
<time>2017-06-11T01:41:41.958Z</time>
</trkpt>
<trkpt lat="-26.6915151" lon="152.9630825">
<ele>78.513</ele>
<time>2017-06-11T01:41:45.061Z</time>
</trkpt>
<trkpt lat="-26.6916271" lon="152.9631598">
<ele>78.153</ele>
<time>2017-06-11T01:41:47.117Z</time>
</trkpt>
<trkpt lat="-26.6917496" lon="152.9632568">
<ele>77.806</ele>
<time>2017-06-11T01:41:50.150Z</time>
</trkpt>
<trkpt lat="-26.6918543" lon="152.9632696">
<ele>77.470</ele>
<time>2017-06-11T01:41:52.966Z</time>
</trkpt>
<trkpt lat="-26.6919575" lon="152.9632181">
<ele>77.238</ele>
<time>2017-06-11T01:41:55.553Z</time>
</trkpt>
<trkpt lat="-26.6920049" lon="152.9628499">
<ele>77.120</ele>
<time>2017-06-11T01:41:59.042Z</time>
</trkpt>
<trkpt lat="-26.6921117" lon="152.9623333">
<ele>77.154</ele>
<time>2017-06-11T01:42:02.300Z</time>
</trkpt>
<trkpt lat="-26.6923342" lon="152.9618490">
<ele>77.434</ele>
<time>2017-06-11T01:42:05.291Z</time>
</trkpt>
<trkpt lat="-26.6927421" lon="152.9614717">
<ele>77.858</ele>
<time>2017-06-11T01:42:08.280Z</time>
</trkpt>
<trkpt lat="-26.6931755" lon="152.9610592">
<ele>77.945</ele>
<time>2017-06-11T01:42:11.274Z</time>
</trkpt>
<trkpt lat="-26.6937001" lon="152.9607421">
<ele>77.462</ele>
<time>2017-06-11T01:42:14.304Z</time>
</trkpt>
<trkpt lat="-26.6940562" lon="152.9605516">
<ele>76.921</ele>
<time>2017-06-11T01:42:16.291Z</time>
</trkpt>
<trkpt lat="-26.6943899" lon="152.9603357">
<ele>76.853</ele>
<time>2017-06-11T01:42:18.248Z</time>
</trkpt>
<trkpt lat="-26.6947303" lon="152.9601429">
<ele>77.151</ele>
<time>2017-06-11T01:42:20.225Z</time>
</trkpt>
<trkpt lat="-26.6952512" lon="152.9599387">
<ele>77.539</ele>
<time>2017-06-11T01:42:23.125Z</time>
</trkpt>
<trkpt lat="-26.6958110" lon="152.9597716">
<ele>78.052</ele>
<time>2017-06-11T01:42:26.196Z</time>
</trkpt>
<trkpt lat="-26.6961573" lon="152.9596657">
<ele>78.831</ele>
<time>2017-06-11T01:42:28.146Z</time>
</trkpt>
<trkpt lat="-26.6966745" lon="152.9596819">
<ele>79.650</ele>
<time>2017-06-11T01:42:30.999Z</time>
</trkpt>
<trkpt lat="-26.6971997" lon="152.9598624">
<ele>80.263</ele>
<time>2017-06-11T01:42:34.009Z</time>
</trkpt>
<trkpt lat="-26.6975267" lon="152.9600537">
<ele>80.832</ele>
<time>2017-06-11T01:42:35.984Z</time>
</trkpt>
<trkpt lat="-26.6978213" lon="152.9603208">
<ele>81.440</ele>
<time>2017-06-11T01:42:37.984Z</time>
</trkpt>
<trkpt lat="-26.6981977" lon="152.9608114">
<ele>81.834</ele>
<time>2017-06-11T01:42:41.023Z</time>
</trkpt>
<trkpt lat="-26.6984189" lon="152.9611315">
<ele>81.661</ele>
<time>2017-06-11T01:42:42.972Z</time>
</trkpt>
<trkpt lat="-26.6987716" lon="152.9615869">
<ele>80.785</ele>
<time>2017-06-11T01:42:45.968Z</time>
</trkpt>
<trkpt lat="-26.6990507" lon="152.9617990">
<ele>79.442</ele>
<time>2017-06-11T01:42:47.891Z</time>
</trkpt>
<trkpt lat="-26.6995940" lon="152.9618898">
<ele>78.082</ele>
<time>2017-06-11T01:42:50.978Z</time>
</trkpt>
<trkpt lat="-26.6999540" lon="152.9619227">
<ele>77.013</ele>
<time>2017-06-11T01:42:52.974Z</time>
</trkpt>
<trkpt lat="-26.7002994" lon="152.9619743">
<ele>76.299</ele>
<time>2017-06-11T01:42:54.949Z</time>
</trkpt>
<trkpt lat="-26.7008009" lon="152.9620312">
<ele>75.820</ele>
<time>2017-06-11T01:42:57.860Z</time>
</trkpt>
<trkpt lat="-26.7011594" lon="152.9620530">
<ele>75.414</ele>
<time>2017-06-11T01:42:59.871Z</time>
</trkpt>
<trkpt lat="-26.7017276" lon="152.9620671">
<ele>74.978</ele>
<time>2017-06-11T01:43:02.928Z</time>
</trkpt>
<trkpt lat="-26.7021104" lon="152.9620777">
<ele>74.499</ele>
<time>2017-06-11T01:43:04.942Z</time>
</trkpt>
<trkpt lat="-26.7026968" lon="152.9621065">
<ele>73.997</ele>
<time>2017-06-11T01:43:07.952Z</time>
</trkpt>
<trkpt lat="-26.7033226" lon="152.9620655">
<ele>73.427</ele>
<time>2017-06-11T01:43:10.974Z</time>
</trkpt>
<trkpt lat="-26.7037451" lon="152.9620119">
<ele>72.485</ele>
<time>2017-06-11T01:43:12.969Z</time>
</trkpt>
<trkpt lat="-26.7043507" lon="152.9619087">
<ele>71.198</ele>
<time>2017-06-11T01:43:15.929Z</time>
</trkpt>
<trkpt lat="-26.7047513" lon="152.9618590">
<ele>70.300</ele>
<time>2017-06-11T01:43:17.962Z</time>
</trkpt>
<trkpt lat="-26.7051478" lon="152.9618302">
<ele>70.200</ele>
<time>2017-06-11T01:43:19.970Z</time>
</trkpt>
<trkpt lat="-26.7057411" lon="152.9617303">
<ele>70.472</ele>
<time>2017-06-11T01:43:22.939Z</time>
</trkpt>
<trkpt lat="-26.7063655" lon="152.9615493">
<ele>70.389</ele>
<time>2017-06-11T01:43:26.055Z</time>
</trkpt>
<trkpt lat="-26.7069320" lon="152.9613644">
<ele>69.532</ele>
<time>2017-06-11T01:43:29.012Z</time>
</trkpt>
<trkpt lat="-26.7072739" lon="152.9612051">
<ele>68.301</ele>
<time>2017-06-11T01:43:30.986Z</time>
</trkpt>
<trkpt lat="-26.7077203" lon="152.9608215">
<ele>67.504</ele>
<time>2017-06-11T01:43:34.043Z</time>
</trkpt>
<trkpt lat="-26.7079642" lon="152.9605260">
<ele>67.376</ele>
<time>2017-06-11T01:43:36.012Z</time>
</trkpt>
<trkpt lat="-26.7082147" lon="152.9602193">
<ele>67.550</ele>
<time>2017-06-11T01:43:38.054Z</time>
</trkpt>
<trkpt lat="-26.7085821" lon="152.9597538">
<ele>67.645</ele>
<time>2017-06-11T01:43:41.163Z</time>
</trkpt>
<trkpt lat="-26.7088027" lon="152.9594677">
<ele>67.483</ele>
<time>2017-06-11T01:43:43.215Z</time>
</trkpt>
<trkpt lat="-26.7091473" lon="152.9591851">
<ele>67.026</ele>
<time>2017-06-11T01:43:45.991Z</time>
</trkpt>
<trkpt lat="-26.7095661" lon="152.9591413">
<ele>66.338</ele>
<time>2017-06-11T01:43:48.841Z</time>
</trkpt>
<trkpt lat="-26.7098688" lon="152.9592078">
<ele>65.553</ele>
<time>2017-06-11T01:43:50.834Z</time>
</trkpt>
<trkpt lat="-26.7102148" lon="152.9592564">
<ele>64.860</ele>
<time>2017-06-11T01:43:52.913Z</time>
</trkpt>
<trkpt lat="-26.7107628" lon="152.9593188">
<ele>64.428</ele>
<time>2017-06-11T01:43:56.013Z</time>
</trkpt>
<trkpt lat="-26.7111311" lon="152.9593388">
<ele>64.324</ele>
<time>2017-06-11T01:43:58.017Z</time>
</trkpt>
<trkpt lat="-26.7115097" lon="152.9593628">
<ele>64.481</ele>
<time>2017-06-11T01:44:00.077Z</time>
</trkpt>
<trkpt lat="-26.7120425" lon="152.9593910">
<ele>64.691</ele>
<time>2017-06-11T01:44:03.036Z</time>
</trkpt>
<trkpt lat="-26.7124069" lon="152.9594020">
<ele>64.755</ele>
<time>2017-06-11T01:44:05.134Z</time>
</trkpt>
<trkpt lat="-26.7127362" lon="152.9594168">
<ele>64.619</ele>
<time>2017-06-11T01:44:07.056Z</time>
</trkpt>
<trkpt lat="-26.7130899" lon="152.9594000">
<ele>64.398</ele>
<time>2017-06-11T01:44:09.081Z</time>
</trkpt>
<trkpt lat="-26.7134653" lon="152.9593270">
<ele>64.302</ele>
<time>2017-06-11T01:44:11.191Z</time>
</trkpt>
<trkpt lat="-26.7140045" lon="152.9592048">
<ele>64.536</ele>
<time>2017-06-11T01:44:14.218Z</time>
</trkpt>
<trkpt lat="-26.7143540" lon="152.9591189">
<ele>65.314</ele>
<time>2017-06-11T01:44:16.209Z</time>
</trkpt>
<trkpt lat="-26.7148633" lon="152.9589569">
<ele>66.692</ele>
<time>2017-06-11T01:44:19.226Z</time>
</trkpt>
<trkpt lat="-26.7153391" lon="152.9587854">
<ele>68.682</ele>
<time>2017-06-11T01:44:22.239Z</time>
</trkpt>
<trkpt lat="-26.7157876" lon="152.9586149">
<ele>71.431</ele>
<time>2017-06-11T01:44:25.295Z</time>
</trkpt>
<trkpt lat="-26.7160487" lon="152.9585039">
<ele>74.984</ele>
<time>2017-06-11T01:44:27.251Z</time>
</trkpt>
<trkpt lat="-26.7162909" lon="152.9583785">
<ele>78.702</ele>
<time>2017-06-11T01:44:29.188Z</time>
</trkpt>
<trkpt lat="-26.7165521" lon="152.9582496">
<ele>81.805</ele>
<time>2017-06-11T01:44:31.211Z</time>
</trkpt>
<trkpt lat="-26.7169877" lon="152.9581061">
<ele>83.945</ele>
<time>2017-06-11T01:44:34.316Z</time>
</trkpt>
<trkpt lat="-26.7172677" lon="152.9580133">
<ele>84.902</ele>
<time>2017-06-11T01:44:36.320Z</time>
</trkpt>
<trkpt lat="-26.7176618" lon="152.9579344">
<ele>84.549</ele>
<time>2017-06-11T01:44:39.129Z</time>
</trkpt>
<trkpt lat="-26.7179354" lon="152.9579849">
<ele>83.022</ele>
<time>2017-06-11T01:44:41.138Z</time>
</trkpt>
<trkpt lat="-26.7183436" lon="152.9580080">
<ele>80.572</ele>
<time>2017-06-11T01:44:44.209Z</time>
</trkpt>
<trkpt lat="-26.7185731" lon="152.9578536">
<ele>75.820</ele>
<time>2017-06-11T01:44:46.236Z</time>
</trkpt>
<trkpt lat="-26.7188688" lon="152.9574470">
<ele>68.085</ele>
<time>2017-06-11T01:44:49.610Z</time>
</trkpt>
<trkpt lat="-26.7190431" lon="152.9571941">
<ele>60.619</ele>
<time>2017-06-11T01:44:51.716Z</time>
</trkpt>
<trkpt lat="-26.7192090" lon="152.9569835">
<ele>56.649</ele>
<time>2017-06-11T01:44:53.796Z</time>
</trkpt>
<trkpt lat="-26.7195297" lon="152.9568424">
<ele>55.679</ele>
<time>2017-06-11T01:44:56.710Z</time>
</trkpt>
<trkpt lat="-26.7197944" lon="152.9569056">
<ele>55.993</ele>
<time>2017-06-11T01:44:58.805Z</time>
</trkpt>
<trkpt lat="-26.7200410" lon="152.9570797">
<ele>56.288</ele>
<time>2017-06-11T01:45:00.904Z</time>
</trkpt>
<trkpt lat="-26.7202908" lon="152.9572487">
<ele>56.232</ele>
<time>2017-06-11T01:45:02.943Z</time>
</trkpt>
<trkpt lat="-26.7205442" lon="152.9574167">
<ele>56.132</ele>
<time>2017-06-11T01:45:04.942Z</time>
</trkpt>
<trkpt lat="-26.7208128" lon="152.9575765">
<ele>56.403</ele>
<time>2017-06-11T01:45:06.989Z</time>
</trkpt>
<trkpt lat="-26.7212179" lon="152.9577618">
<ele>57.204</ele>
<time>2017-06-11T01:45:09.955Z</time>
</trkpt>
<trkpt lat="-26.7215002" lon="152.9578131">
<ele>58.198</ele>
<time>2017-06-11T01:45:11.868Z</time>
</trkpt>
<trkpt lat="-26.7218069" lon="152.9578323">
<ele>58.832</ele>
<time>2017-06-11T01:45:13.918Z</time>
</trkpt>
<trkpt lat="-26.7221011" lon="152.9578436">
<ele>58.860</ele>
<time>2017-06-11T01:45:16.050Z</time>
</trkpt>
<trkpt lat="-26.7224758" lon="152.9579474">
<ele>58.403</ele>
<time>2017-06-11T01:45:18.989Z</time>
</trkpt>
<trkpt lat="-26.7226496" lon="152.9581691">
<ele>57.617</ele>
<time>2017-06-11T01:45:20.853Z</time>
</trkpt>
<trkpt lat="-26.7228192" lon="152.9584648">
<ele>56.663</ele>
<time>2017-06-11T01:45:22.865Z</time>
</trkpt>
<trkpt lat="-26.7229895" lon="152.9587573">
<ele>55.800</ele>
<time>2017-06-11T01:45:24.901Z</time>
</trkpt>
<trkpt lat="-26.7232620" lon="152.9591342">
<ele>55.148</ele>
<time>2017-06-11T01:45:27.839Z</time>
</trkpt>
<trkpt lat="-26.7234620" lon="152.9593584">
<ele>54.454</ele>
<time>2017-06-11T01:45:29.854Z</time>
</trkpt>
<trkpt lat="-26.7236961" lon="152.9595185">
<ele>53.507</ele>
<time>2017-06-11T01:45:31.859Z</time>
</trkpt>
<trkpt lat="-26.7239524" lon="152.9595751">
<ele>52.544</ele>
<time>2017-06-11T01:45:33.832Z</time>
</trkpt>
<trkpt lat="-26.7243223" lon="152.9595546">
<ele>51.916</ele>
<time>2017-06-11T01:45:36.689Z</time>
</trkpt>
<trkpt lat="-26.7245572" lon="152.9594453">
<ele>51.580</ele>
<time>2017-06-11T01:45:38.747Z</time>
</trkpt>
<trkpt lat="-26.7248625" lon="152.9591893">
<ele>51.281</ele>
<time>2017-06-11T01:45:41.966Z</time>
</trkpt>
<trkpt lat="-26.7250973" lon="152.9588896">
<ele>50.918</ele>
<time>2017-06-11T01:45:45.169Z</time>
</trkpt>
<trkpt lat="-26.7252723" lon="152.9586304">
<ele>50.513</ele>
<time>2017-06-11T01:45:47.924Z</time>
</trkpt>
<trkpt lat="-26.7254099" lon="152.9584731">
<ele>50.088</ele>
<time>2017-06-11T01:45:50.071Z</time>
</trkpt>
<trkpt lat="-26.7255682" lon="152.9582775">
<ele>49.687</ele>
<time>2017-06-11T01:45:53.239Z</time>
</trkpt>
<trkpt lat="-26.7256905" lon="152.9581355">
<ele>49.335</ele>
<time>2017-06-11T01:45:56.718Z</time>
</trkpt>
<trkpt lat="-26.7258002" lon="152.9580110">
<ele>48.996</ele>
<time>2017-06-11T01:46:00.085Z</time>
</trkpt>
<trkpt lat="-26.7259540" lon="152.9580286">
<ele>48.650</ele>
<time>2017-06-11T01:46:02.786Z</time>
</trkpt>
<trkpt lat="-26.7261128" lon="152.9581823">
<ele>48.375</ele>
<time>2017-06-11T01:46:05.986Z</time>
</trkpt>
<trkpt lat="-26.7261989" lon="152.9582912">
<ele>48.262</ele>
<time>2017-06-11T01:46:07.976Z</time>
</trkpt>
<trkpt lat="-26.7263097" lon="152.9583786">
<ele>48.301</ele>
<time>2017-06-11T01:46:09.991Z</time>
</trkpt>
<trkpt lat="-26.7263292" lon="152.9586224">
<ele>48.386</ele>
<time>2017-06-11T01:46:12.884Z</time>
</trkpt>
<trkpt lat="-26.7262483" lon="152.9589317">
<ele>48.453</ele>
<time>2017-06-11T01:46:16.184Z</time>
</trkpt>
<trkpt lat="-26.7261200" lon="152.9591794">
<ele>48.520</ele>
<time>2017-06-11T01:46:18.680Z</time>
</trkpt>
<trkpt lat="-26.7260055" lon="152.9594603">
<ele>48.624</ele>
<time>2017-06-11T01:46:20.764Z</time>
</trkpt>
<trkpt lat="-26.7258640" lon="152.9597845">
<ele>48.870</ele>
<time>2017-06-11T01:46:22.922Z</time>
</trkpt>
<trkpt lat="-26.7256983" lon="152.9602679">
<ele>49.382</ele>
<time>2017-06-11T01:46:25.922Z</time>
</trkpt>
<trkpt lat="-26.7256176" lon="152.9606243">
<ele>50.074</ele>
<time>2017-06-11T01:46:27.937Z</time>
</trkpt>
<trkpt lat="-26.7256262" lon="152.9609928">
<ele>50.708</ele>
<time>2017-06-11T01:46:29.873Z</time>
</trkpt>
<trkpt lat="-26.7256364" lon="152.9615850">
<ele>51.199</ele>
<time>2017-06-11T01:46:32.967Z</time>
</trkpt>
<trkpt lat="-26.7256107" lon="152.9621504">
<ele>51.617</ele>
<time>2017-06-11T01:46:35.913Z</time>
</trkpt>
<trkpt lat="-26.7255996" lon="152.9627832">
<ele>51.972</ele>
<time>2017-06-11T01:46:39.046Z</time>
</trkpt>
<trkpt lat="-26.7257179" lon="152.9634398">
<ele>52.229</ele>
<time>2017-06-11T01:46:42.158Z</time>
</trkpt>
<trkpt lat="-26.7258654" lon="152.9640353">
<ele>52.559</ele>
<time>2017-06-11T01:46:44.980Z</time>
</trkpt>
<trkpt lat="-26.7259364" lon="152.9644548">
<ele>53.248</ele>
<time>2017-06-11T01:46:47.038Z</time>
</trkpt>
<trkpt lat="-26.7260248" lon="152.9650374">
<ele>54.240</ele>
<time>2017-06-11T01:46:50.111Z</time>
</trkpt>
<trkpt lat="-26.7261510" lon="152.9655320">
<ele>55.242</ele>
<time>2017-06-11T01:46:52.978Z</time>
</trkpt>
<trkpt lat="-26.7261802" lon="152.9660218">
<ele>56.206</ele>
<time>2017-06-11T01:46:55.680Z</time>
</trkpt>
<trkpt lat="-26.7262442" lon="152.9666351">
<ele>57.099</ele>
<time>2017-06-11T01:46:58.918Z</time>
</trkpt>
<trkpt lat="-26.7262681" lon="152.9669800">
<ele>57.440</ele>
<time>2017-06-11T01:47:00.658Z</time>
</trkpt>
<trkpt lat="-26.7263392" lon="152.9675763">
<ele>56.880</ele>
<time>2017-06-11T01:47:03.679Z</time>
</trkpt>
<trkpt lat="-26.7264226" lon="152.9681306">
<ele>55.729</ele>
<time>2017-06-11T01:47:06.480Z</time>
</trkpt>
<trkpt lat="-26.7264697" lon="152.9685437">
<ele>54.515</ele>
<time>2017-06-11T01:47:08.469Z</time>
</trkpt>
<trkpt lat="-26.7265599" lon="152.9691836">
<ele>53.577</ele>
<time>2017-06-11T01:47:11.489Z</time>
</trkpt>
<trkpt lat="-26.7266258" lon="152.9696027">
<ele>53.050</ele>
<time>2017-06-11T01:47:13.468Z</time>
</trkpt>
<trkpt lat="-26.7267009" lon="152.9702226">
<ele>52.859</ele>
<time>2017-06-11T01:47:16.391Z</time>
</trkpt>
<trkpt lat="-26.7268573" lon="152.9708353">
<ele>52.890</ele>
<time>2017-06-11T01:47:19.364Z</time>
</trkpt>
<trkpt lat="-26.7270546" lon="152.9714226">
<ele>53.111</ele>
<time>2017-06-11T01:47:22.248Z</time>
</trkpt>
<trkpt lat="-26.7273155" lon="152.9720222">
<ele>53.736</ele>
<time>2017-06-11T01:47:25.254Z</time>
</trkpt>
<trkpt lat="-26.7275973" lon="152.9726194">
<ele>54.759</ele>
<time>2017-06-11T01:47:28.276Z</time>
</trkpt>
<trkpt lat="-26.7277810" lon="152.9732597">
<ele>54.917</ele>
<time>2017-06-11T01:47:31.270Z</time>
</trkpt>
<trkpt lat="-26.7279205" lon="152.9737006">
<ele>52.072</ele>
<time>2017-06-11T01:47:33.315Z</time>
</trkpt>
<trkpt lat="-26.7281292" lon="152.9740900">
<ele>46.259</ele>
<time>2017-06-11T01:47:35.362Z</time>
</trkpt>
<trkpt lat="-26.7283708" lon="152.9746325">
<ele>40.553</ele>
<time>2017-06-11T01:47:38.255Z</time>
</trkpt>
<trkpt lat="-26.7284912" lon="152.9749684">
<ele>43.309</ele>
<time>2017-06-11T01:47:40.168Z</time>
</trkpt>
<trkpt lat="-26.7286008" lon="152.9752873">
<ele>58.793</ele>
<time>2017-06-11T01:47:42.128Z</time>
</trkpt>
<trkpt lat="-26.7287231" lon="152.9757585">
<ele>77.302</ele>
<time>2017-06-11T01:47:45.029Z</time>
</trkpt>
<trkpt lat="-26.7289379" lon="152.9760218">
<ele>85.695</ele>
<time>2017-06-11T01:47:47.019Z</time>
</trkpt>
<trkpt lat="-26.7291896" lon="152.9762823">
<ele>82.109</ele>
<time>2017-06-11T01:47:49.028Z</time>
</trkpt>
<trkpt lat="-26.7294861" lon="152.9765148">
<ele>73.550</ele>
<time>2017-06-11T01:47:51.079Z</time>
</trkpt>
<trkpt lat="-26.7297365" lon="152.9767902">
<ele>71.972</ele>
<time>2017-06-11T01:47:53.055Z</time>
</trkpt>
<trkpt lat="-26.7301597" lon="152.9771463">
<ele>82.159</ele>
<time>2017-06-11T01:47:56.081Z</time>
</trkpt>
<trkpt lat="-26.7304094" lon="152.9773524">
<ele>95.689</ele>
<time>2017-06-11T01:47:58.026Z</time>
</trkpt>
<trkpt lat="-26.7307584" lon="152.9775436">
<ele>103.266</ele>
<time>2017-06-11T01:48:00.690Z</time>
</trkpt>
<trkpt lat="-26.7310368" lon="152.9775409">
<ele>104.647</ele>
<time>2017-06-11T01:48:02.692Z</time>
</trkpt>
<trkpt lat="-26.7315380" lon="152.9773920">
<ele>103.033</ele>
<time>2017-06-11T01:48:06.221Z</time>
</trkpt>
<trkpt lat="-26.7318271" lon="152.9773015">
<ele>101.305</ele>
<time>2017-06-11T01:48:08.181Z</time>
</trkpt>
<trkpt lat="-26.7321233" lon="152.9773130">
<ele>100.706</ele>
<time>2017-06-11T01:48:10.078Z</time>
</trkpt>
<trkpt lat="-26.7324630" lon="152.9774067">
<ele>101.173</ele>
<time>2017-06-11T01:48:12.234Z</time>
</trkpt>
<trkpt lat="-26.7329203" lon="152.9775882">
<ele>102.252</ele>
<time>2017-06-11T01:48:15.146Z</time>
</trkpt>
<trkpt lat="-26.7332229" lon="152.9776829">
<ele>103.692</ele>
<time>2017-06-11T01:48:17.065Z</time>
</trkpt>
<trkpt lat="-26.7335020" lon="152.9777869">
<ele>105.525</ele>
<time>2017-06-11T01:48:18.948Z</time>
</trkpt>
<trkpt lat="-26.7337847" lon="152.9778833">
<ele>107.412</ele>
<time>2017-06-11T01:48:20.908Z</time>
</trkpt>
<trkpt lat="-26.7340495" lon="152.9780189">
<ele>108.419</ele>
<time>2017-06-11T01:48:22.854Z</time>
</trkpt>
<trkpt lat="-26.7343735" lon="152.9783821">
<ele>108.214</ele>
<time>2017-06-11T01:48:25.857Z</time>
</trkpt>
<trkpt lat="-26.7345611" lon="152.9788981">
<ele>108.317</ele>
<time>2017-06-11T01:48:28.912Z</time>
</trkpt>
<trkpt lat="-26.7345874" lon="152.9792810">
<ele>109.885</ele>
<time>2017-06-11T01:48:30.927Z</time>
</trkpt>
<trkpt lat="-26.7345278" lon="152.9796638">
<ele>111.808</ele>
<time>2017-06-11T01:48:32.974Z</time>
</trkpt>
<trkpt lat="-26.7346117" lon="152.9800913">
<ele>115.286</ele>
<time>2017-06-11T01:48:35.260Z</time>
</trkpt>
<trkpt lat="-26.7347052" lon="152.9804506">
<ele>122.050</ele>
<time>2017-06-11T01:48:37.176Z</time>
</trkpt>
<trkpt lat="-26.7348768" lon="152.9808023">
<ele>128.820</ele>
<time>2017-06-11T01:48:39.198Z</time>
</trkpt>
<trkpt lat="-26.7350911" lon="152.9813470">
<ele>132.001</ele>
<time>2017-06-11T01:48:42.186Z</time>
</trkpt>
<trkpt lat="-26.7352173" lon="152.9817145">
<ele>132.047</ele>
<time>2017-06-11T01:48:44.120Z</time>
</trkpt>
<trkpt lat="-26.7351685" lon="152.9823364">
<ele>130.436</ele>
<time>2017-06-11T01:48:47.070Z</time>
</trkpt>
<trkpt lat="-26.7351350" lon="152.9827809">
<ele>128.398</ele>
<time>2017-06-11T01:48:49.083Z</time>
</trkpt>
<trkpt lat="-26.7351062" lon="152.9832161">
<ele>126.693</ele>
<time>2017-06-11T01:48:51.096Z</time>
</trkpt>
<trkpt lat="-26.7350871" lon="152.9838140">
<ele>125.701</ele>
<time>2017-06-11T01:48:54.020Z</time>
</trkpt>
<trkpt lat="-26.7350969" lon="152.9841622">
<ele>125.544</ele>
<time>2017-06-11T01:48:55.895Z</time>
</trkpt>
<trkpt lat="-26.7351897" lon="152.9845121">
<ele>126.078</ele>
<time>2017-06-11T01:48:57.939Z</time>
</trkpt>
<trkpt lat="-26.7353661" lon="152.9847995">
<ele>126.962</ele>
<time>2017-06-11T01:48:59.926Z</time>
</trkpt>
<trkpt lat="-26.7355110" lon="152.9852908">
<ele>127.780</ele>
<time>2017-06-11T01:49:02.903Z</time>
</trkpt>
<trkpt lat="-26.7354254" lon="152.9858230">
<ele>128.286</ele>
<time>2017-06-11T01:49:05.971Z</time>
</trkpt>
<trkpt lat="-26.7352594" lon="152.9861303">
<ele>128.299</ele>
<time>2017-06-11T01:49:07.976Z</time>
</trkpt>
<trkpt lat="-26.7350408" lon="152.9863651">
<ele>127.735</ele>
<time>2017-06-11T01:49:09.880Z</time>
</trkpt>
<trkpt lat="-26.7346760" lon="152.9867303">
<ele>126.762</ele>
<time>2017-06-11T01:49:12.960Z</time>
</trkpt>
<trkpt lat="-26.7344489" lon="152.9869852">
<ele>125.694</ele>
<time>2017-06-11T01:49:14.990Z</time>
</trkpt>
<trkpt lat="-26.7342492" lon="152.9872268">
<ele>124.753</ele>
<time>2017-06-11T01:49:16.871Z</time>
</trkpt>
<trkpt lat="-26.7339859" lon="152.9876541">
<ele>123.986</ele>
<time>2017-06-11T01:49:19.829Z</time>
</trkpt>
<trkpt lat="-26.7339221" lon="152.9880166">
<ele>123.269</ele>
<time>2017-06-11T01:49:21.871Z</time>
</trkpt>
<trkpt lat="-26.7339168" lon="152.9886057">
<ele>122.577</ele>
<time>2017-06-11T01:49:25.056Z</time>
</trkpt>
<trkpt lat="-26.7339232" lon="152.9889592">
<ele>122.080</ele>
<time>2017-06-11T01:49:26.966Z</time>
</trkpt>
<trkpt lat="-26.7339093" lon="152.9894700">
<ele>122.036</ele>
<time>2017-06-11T01:49:29.784Z</time>
</trkpt>
<trkpt lat="-26.7337820" lon="152.9898175">
<ele>122.884</ele>
<time>2017-06-11T01:49:31.889Z</time>
</trkpt>
<trkpt lat="-26.7334875" lon="152.9902460">
<ele>124.801</ele>
<time>2017-06-11T01:49:34.886Z</time>
</trkpt>
<trkpt lat="-26.7331152" lon="152.9906140">
<ele>127.379</ele>
<time>2017-06-11T01:49:37.920Z</time>
</trkpt>
<trkpt lat="-26.7327877" lon="152.9907669">
<ele>129.878</ele>
<time>2017-06-11T01:49:40.005Z</time>
</trkpt>
<trkpt lat="-26.7321879" lon="152.9908735">
<ele>131.571</ele>
<time>2017-06-11T01:49:43.410Z</time>
</trkpt>
<trkpt lat="-26.7316421" lon="152.9910356">
<ele>131.849</ele>
<time>2017-06-11T01:49:46.449Z</time>
</trkpt>
<trkpt lat="-26.7312897" lon="152.9911308">
<ele>130.431</ele>
<time>2017-06-11T01:49:48.361Z</time>
</trkpt>
<trkpt lat="-26.7307563" lon="152.9913340">
<ele>127.877</ele>
<time>2017-06-11T01:49:51.272Z</time>
</trkpt>
<trkpt lat="-26.7303717" lon="152.9914885">
<ele>125.430</ele>
<time>2017-06-11T01:49:53.290Z</time>
</trkpt>
<trkpt lat="-26.7300021" lon="152.9916396">
<ele>123.912</ele>
<time>2017-06-11T01:49:55.257Z</time>
</trkpt>
<trkpt lat="-26.7294626" lon="152.9918244">
<ele>123.383</ele>
<time>2017-06-11T01:49:58.208Z</time>
</trkpt>
<trkpt lat="-26.7289392" lon="152.9918768">
<ele>123.508</ele>
<time>2017-06-11T01:50:01.110Z</time>
</trkpt>
<trkpt lat="-26.7285996" lon="152.9917415">
<ele>123.848</ele>
<time>2017-06-11T01:50:03.155Z</time>
</trkpt>
<trkpt lat="-26.7281093" lon="152.9916226">
<ele>124.053</ele>
<time>2017-06-11T01:50:06.083Z</time>
</trkpt>
<trkpt lat="-26.7277905" lon="152.9916560">
<ele>123.902</ele>
<time>2017-06-11T01:50:08.015Z</time>
</trkpt>
<trkpt lat="-26.7274847" lon="152.9918394">
<ele>123.459</ele>
<time>2017-06-11T01:50:10.059Z</time>
</trkpt>
<trkpt lat="-26.7269992" lon="152.9921377">
<ele>123.083</ele>
<time>2017-06-11T01:50:13.211Z</time>
</trkpt>
<trkpt lat="-26.7266887" lon="152.9923518">
<ele>122.989</ele>
<time>2017-06-11T01:50:15.237Z</time>
</trkpt>
<trkpt lat="-26.7262487" lon="152.9927045">
<ele>122.958</ele>
<time>2017-06-11T01:50:18.256Z</time>
</trkpt>
<trkpt lat="-26.7259361" lon="152.9931699">
<ele>122.629</ele>
<time>2017-06-11T01:50:21.232Z</time>
</trkpt>
<trkpt lat="-26.7257489" lon="152.9934652">
<ele>121.907</ele>
<time>2017-06-11T01:50:23.164Z</time>
</trkpt>
<trkpt lat="-26.7255221" lon="152.9937118">
<ele>121.031</ele>
<time>2017-06-11T01:50:25.065Z</time>
</trkpt>
<trkpt lat="-26.7250582" lon="152.9939741">
<ele>120.300</ele>
<time>2017-06-11T01:50:28.092Z</time>
</trkpt>
<trkpt lat="-26.7246834" lon="152.9939875">
<ele>119.868</ele>
<time>2017-06-11T01:50:30.098Z</time>
</trkpt>
<trkpt lat="-26.7240475" lon="152.9939540">
<ele>119.805</ele>
<time>2017-06-11T01:50:33.400Z</time>
</trkpt>
<trkpt lat="-26.7237288" lon="152.9939025">
<ele>120.228</ele>
<time>2017-06-11T01:50:35.115Z</time>
</trkpt>
<trkpt lat="-26.7233861" lon="152.9938269">
<ele>121.226</ele>
<time>2017-06-11T01:50:37.056Z</time>
</trkpt>
<trkpt lat="-26.7230594" lon="152.9937423">
<ele>122.718</ele>
<time>2017-06-11T01:50:39.003Z</time>
</trkpt>
<trkpt lat="-26.7227551" lon="152.9937051">
<ele>124.484</ele>
<time>2017-06-11T01:50:40.808Z</time>
</trkpt>
<trkpt lat="-26.7223933" lon="152.9937670">
<ele>126.244</ele>
<time>2017-06-11T01:50:42.933Z</time>
</trkpt>
<trkpt lat="-26.7218812" lon="152.9939269">
<ele>127.718</ele>
<time>2017-06-11T01:50:45.950Z</time>
</trkpt>
<trkpt lat="-26.7215427" lon="152.9940992">
<ele>128.774</ele>
<time>2017-06-11T01:50:48.016Z</time>
</trkpt>
<trkpt lat="-26.7212201" lon="152.9942476">
<ele>129.471</ele>
<time>2017-06-11T01:50:50.007Z</time>
</trkpt>
<trkpt lat="-26.7209395" lon="152.9943994">
<ele>129.930</ele>
<time>2017-06-11T01:50:51.895Z</time>
</trkpt>
<trkpt lat="-26.7206636" lon="152.9945342">
<ele>130.206</ele>
<time>2017-06-11T01:50:53.772Z</time>
</trkpt>
<trkpt lat="-26.7201998" lon="152.9947725">
<ele>130.350</ele>
<time>2017-06-11T01:50:56.870Z</time>
</trkpt>
<trkpt lat="-26.7196813" lon="152.9948992">
<ele>130.437</ele>
<time>2017-06-11T01:50:59.882Z</time>
</trkpt>
<trkpt lat="-26.7191123" lon="152.9949600">
<ele>130.455</ele>
<time>2017-06-11T01:51:02.987Z</time>
</trkpt>
<trkpt lat="-26.7185798" lon="152.9950442">
<ele>130.332</ele>
<time>2017-06-11T01:51:05.952Z</time>
</trkpt>
<trkpt lat="-26.7181139" lon="152.9952429">
<ele>130.002</ele>
<time>2017-06-11T01:51:08.840Z</time>
</trkpt>
<trkpt lat="-26.7179067" lon="152.9955426">
<ele>129.310</ele>
<time>2017-06-11T01:51:10.876Z</time>
</trkpt>
<trkpt lat="-26.7177622" lon="152.9958797">
<ele>128.244</ele>
<time>2017-06-11T01:51:12.913Z</time>
</trkpt>
<trkpt lat="-26.7175337" lon="152.9963760">
<ele>127.094</ele>
<time>2017-06-11T01:51:15.981Z</time>
</trkpt>
<trkpt lat="-26.7173155" lon="152.9967882">
<ele>126.088</ele>
<time>2017-06-11T01:51:18.679Z</time>
</trkpt>
<trkpt lat="-26.7172158" lon="152.9971182">
<ele>125.207</ele>
<time>2017-06-11T01:51:20.594Z</time>
</trkpt>
<trkpt lat="-26.7173260" lon="152.9976686">
<ele>124.350</ele>
<time>2017-06-11T01:51:23.576Z</time>
</trkpt>
<trkpt lat="-26.7173895" lon="152.9980641">
<ele>123.341</ele>
<time>2017-06-11T01:51:25.653Z</time>
</trkpt>
<trkpt lat="-26.7174723" lon="152.9984215">
<ele>122.153</ele>
<time>2017-06-11T01:51:27.629Z</time>
</trkpt>
<trkpt lat="-26.7175532" lon="152.9989335">
<ele>121.039</ele>
<time>2017-06-11T01:51:30.464Z</time>
</trkpt>
<trkpt lat="-26.7175157" lon="152.9992859">
<ele>120.167</ele>
<time>2017-06-11T01:51:32.389Z</time>
</trkpt>
<trkpt lat="-26.7173621" lon="152.9998205">
<ele>119.492</ele>
<time>2017-06-11T01:51:35.349Z</time>
</trkpt>
<trkpt lat="-26.7172984" lon="153.0004235">
<ele>118.887</ele>
<time>2017-06-11T01:51:38.370Z</time>
</trkpt>
<trkpt lat="-26.7173264" lon="153.0008529">
<ele>118.042</ele>
<time>2017-06-11T01:51:40.363Z</time>
</trkpt>
<trkpt lat="-26.7173165" lon="153.0013016">
<ele>116.643</ele>
<time>2017-06-11T01:51:42.382Z</time>
</trkpt>
<trkpt lat="-26.7172972" lon="153.0017440">
<ele>114.720</ele>
<time>2017-06-11T01:51:44.388Z</time>
</trkpt>
<trkpt lat="-26.7172318" lon="153.0023785">
<ele>112.585</ele>
<time>2017-06-11T01:51:47.331Z</time>
</trkpt>
<trkpt lat="-26.7172255" lon="153.0027916">
<ele>110.390</ele>
<time>2017-06-11T01:51:49.259Z</time>
</trkpt>
<trkpt lat="-26.7172381" lon="153.0032489">
<ele>108.152</ele>
<time>2017-06-11T01:51:51.395Z</time>
</trkpt>
<trkpt lat="-26.7172590" lon="153.0036640">
<ele>106.206</ele>
<time>2017-06-11T01:51:53.394Z</time>
</trkpt>
<trkpt lat="-26.7171316" lon="153.0042304">
<ele>105.003</ele>
<time>2017-06-11T01:51:56.282Z</time>
</trkpt>
<trkpt lat="-26.7169947" lon="153.0047820">
<ele>104.904</ele>
<time>2017-06-11T01:51:59.168Z</time>
</trkpt>
<trkpt lat="-26.7169235" lon="153.0051724">
<ele>106.285</ele>
<time>2017-06-11T01:52:01.148Z</time>
</trkpt>
<trkpt lat="-26.7169464" lon="153.0057946">
<ele>108.625</ele>
<time>2017-06-11T01:52:04.228Z</time>
</trkpt>
<trkpt lat="-26.7169493" lon="153.0061526">
<ele>110.527</ele>
<time>2017-06-11T01:52:06.146Z</time>
</trkpt>
<trkpt lat="-26.7167531" lon="153.0065777">
<ele>111.314</ele>
<time>2017-06-11T01:52:08.919Z</time>
</trkpt>
<trkpt lat="-26.7165677" lon="153.0068152">
<ele>111.969</ele>
<time>2017-06-11T01:52:10.814Z</time>
</trkpt>
<trkpt lat="-26.7162519" lon="153.0072164">
<ele>113.904</ele>
<time>2017-06-11T01:52:13.828Z</time>
</trkpt>
<trkpt lat="-26.7158293" lon="153.0075912">
<ele>117.289</ele>
<time>2017-06-11T01:52:16.906Z</time>
</trkpt>
<trkpt lat="-26.7153652" lon="153.0079473">
<ele>121.186</ele>
<time>2017-06-11T01:52:19.985Z</time>
</trkpt>
<trkpt lat="-26.7150861" lon="153.0081053">
<ele>124.803</ele>
<time>2017-06-11T01:52:21.718Z</time>
</trkpt>
<trkpt lat="-26.7148343" lon="153.0083635">
<ele>127.782</ele>
<time>2017-06-11T01:52:23.658Z</time>
</trkpt>
<trkpt lat="-26.7146374" lon="153.0087015">
<ele>130.192</ele>
<time>2017-06-11T01:52:25.731Z</time>
</trkpt>
<trkpt lat="-26.7143534" lon="153.0092485">
<ele>132.402</ele>
<time>2017-06-11T01:52:28.973Z</time>
</trkpt>
<trkpt lat="-26.7140715" lon="153.0097079">
<ele>134.874</ele>
<time>2017-06-11T01:52:31.856Z</time>
</trkpt>
<trkpt lat="-26.7136663" lon="153.0100783">
<ele>137.716</ele>
<time>2017-06-11T01:52:34.888Z</time>
</trkpt>
<trkpt lat="-26.7133429" lon="153.0102339">
<ele>140.493</ele>
<time>2017-06-11T01:52:36.886Z</time>
</trkpt>
<trkpt lat="-26.7129886" lon="153.0103686">
<ele>142.644</ele>
<time>2017-06-11T01:52:38.962Z</time>
</trkpt>
<trkpt lat="-26.7124625" lon="153.0105605">
<ele>143.999</ele>
<time>2017-06-11T01:52:41.989Z</time>
</trkpt>
<trkpt lat="-26.7119086" lon="153.0107139">
<ele>144.699</ele>
<time>2017-06-11T01:52:45.109Z</time>
</trkpt>
<trkpt lat="-26.7115701" lon="153.0108300">
<ele>144.942</ele>
<time>2017-06-11T01:52:47.081Z</time>
</trkpt>
<trkpt lat="-26.7112359" lon="153.0109484">
<ele>144.735</ele>
<time>2017-06-11T01:52:49.082Z</time>
</trkpt>
<trkpt lat="-26.7107907" lon="153.0112212">
<ele>143.912</ele>
<time>2017-06-11T01:52:52.043Z</time>
</trkpt>
<trkpt lat="-26.7104778" lon="153.0117243">
<ele>142.177</ele>
<time>2017-06-11T01:52:55.291Z</time>
</trkpt>
<trkpt lat="-26.7103089" lon="153.0123380">
<ele>139.270</ele>
<time>2017-06-11T01:52:58.668Z</time>
</trkpt>
<trkpt lat="-26.7100985" lon="153.0128582">
<ele>135.384</ele>
<time>2017-06-11T01:53:01.723Z</time>
</trkpt>
<trkpt lat="-26.7098569" lon="153.0132919">
<ele>131.294</ele>
<time>2017-06-11T01:53:04.531Z</time>
</trkpt>
<trkpt lat="-26.7096210" lon="153.0135355">
<ele>127.812</ele>
<time>2017-06-11T01:53:06.475Z</time>
</trkpt>
<trkpt lat="-26.7093465" lon="153.0139892">
<ele>125.440</ele>
<time>2017-06-11T01:53:09.385Z</time>
</trkpt>
<trkpt lat="-26.7092132" lon="153.0143567">
<ele>124.104</ele>
<time>2017-06-11T01:53:11.415Z</time>
</trkpt>
<trkpt lat="-26.7091422" lon="153.0147528">
<ele>123.300</ele>
<time>2017-06-11T01:53:13.510Z</time>
</trkpt>
<trkpt lat="-26.7090465" lon="153.0152803">
<ele>122.728</ele>
<time>2017-06-11T01:53:16.448Z</time>
</trkpt>
<trkpt lat="-26.7089101" lon="153.0155819">
<ele>122.404</ele>
<time>2017-06-11T01:53:18.451Z</time>
</trkpt>
<trkpt lat="-26.7085563" lon="153.0158362">
<ele>122.280</ele>
<time>2017-06-11T01:53:21.265Z</time>
</trkpt>
<trkpt lat="-26.7082507" lon="153.0159399">
<ele>122.153</ele>
<time>2017-06-11T01:53:23.306Z</time>
</trkpt>
<trkpt lat="-26.7077708" lon="153.0160118">
<ele>121.760</ele>
<time>2017-06-11T01:53:26.287Z</time>
</trkpt>
<trkpt lat="-26.7072883" lon="153.0161518">
<ele>120.758</ele>
<time>2017-06-11T01:53:29.351Z</time>
</trkpt>
<trkpt lat="-26.7068960" lon="153.0164202">
<ele>118.854</ele>
<time>2017-06-11T01:53:32.400Z</time>
</trkpt>
<trkpt lat="-26.7066098" lon="153.0167352">
<ele>116.285</ele>
<time>2017-06-11T01:53:35.331Z</time>
</trkpt>
<trkpt lat="-26.7065027" lon="153.0170016">
<ele>113.794</ele>
<time>2017-06-11T01:53:37.313Z</time>
</trkpt>
<trkpt lat="-26.7062691" lon="153.0174506">
<ele>111.933</ele>
<time>2017-06-11T01:53:40.892Z</time>
</trkpt>
<trkpt lat="-26.7061112" lon="153.0176527">
<ele>110.456</ele>
<time>2017-06-11T01:53:42.826Z</time>
</trkpt>
<trkpt lat="-26.7059119" lon="153.0178413">
<ele>108.593</ele>
<time>2017-06-11T01:53:44.854Z</time>
</trkpt>
<trkpt lat="-26.7056340" lon="153.0181689">
<ele>106.176</ele>
<time>2017-06-11T01:53:47.903Z</time>
</trkpt>
<trkpt lat="-26.7054587" lon="153.0184086">
<ele>103.404</ele>
<time>2017-06-11T01:53:49.898Z</time>
</trkpt>
<trkpt lat="-26.7052575" lon="153.0188139">
<ele>100.568</ele>
<time>2017-06-11T01:53:52.820Z</time>
</trkpt>
<trkpt lat="-26.7051169" lon="153.0190853">
<ele>97.547</ele>
<time>2017-06-11T01:53:54.745Z</time>
</trkpt>
<trkpt lat="-26.7049693" lon="153.0193680">
<ele>94.130</ele>
<time>2017-06-11T01:53:56.783Z</time>
</trkpt>
<trkpt lat="-26.7047720" lon="153.0197601">
<ele>90.904</ele>
<time>2017-06-11T01:53:59.678Z</time>
</trkpt>
<trkpt lat="-26.7046520" lon="153.0200112">
<ele>88.191</ele>
<time>2017-06-11T01:54:01.732Z</time>
</trkpt>
<trkpt lat="-26.7044917" lon="153.0203427">
<ele>83.745</ele>
<time>2017-06-11T01:54:04.974Z</time>
</trkpt>
<trkpt lat="-26.7043776" lon="153.0205414">
<ele>76.186</ele>
<time>2017-06-11T01:54:07.896Z</time>
</trkpt>
<trkpt lat="-26.7043256" lon="153.0206712">
<ele>67.967</ele>
<time>2017-06-11T01:54:10.419Z</time>
</trkpt>
<trkpt lat="-26.7042616" lon="153.0207672">
<ele>62.105</ele>
<time>2017-06-11T01:54:13.133Z</time>
</trkpt>
<trkpt lat="-26.7041795" lon="153.0208749">
<ele>58.888</ele>
<time>2017-06-11T01:54:16.947Z</time>
</trkpt>
<trkpt lat="-26.7040717" lon="153.0209219">
<ele>57.482</ele>
<time>2017-06-11T01:54:20.392Z</time>
</trkpt>
<trkpt lat="-26.7039088" lon="153.0207953">
<ele>57.078</ele>
<time>2017-06-11T01:54:22.869Z</time>
</trkpt>
<trkpt lat="-26.7034704" lon="153.0204580">
<ele>57.325</ele>
<time>2017-06-11T01:54:26.537Z</time>
</trkpt>
<trkpt lat="-26.7031032" lon="153.0200485">
<ele>58.612</ele>
<time>2017-06-11T01:54:28.907Z</time>
</trkpt>
<trkpt lat="-26.7026355" lon="153.0193841">
<ele>61.348</ele>
<time>2017-06-11T01:54:32.138Z</time>
</trkpt>
<trkpt lat="-26.7023106" lon="153.0187322">
<ele>64.703</ele>
<time>2017-06-11T01:54:35.035Z</time>
</trkpt>
<trkpt lat="-26.7020613" lon="153.0180490">
<ele>67.183</ele>
<time>2017-06-11T01:54:37.988Z</time>
</trkpt>
<trkpt lat="-26.7018760" lon="153.0176038">
<ele>67.931</ele>
<time>2017-06-11T01:54:40.011Z</time>
</trkpt>
<trkpt lat="-26.7016903" lon="153.0171448">
<ele>66.975</ele>
<time>2017-06-11T01:54:42.147Z</time>
</trkpt>
<trkpt lat="-26.7013513" lon="153.0165390">
<ele>64.949</ele>
<time>2017-06-11T01:54:45.176Z</time>
</trkpt>
<trkpt lat="-26.7010790" lon="153.0161853">
<ele>62.433</ele>
<time>2017-06-11T01:54:47.107Z</time>
</trkpt>
<trkpt lat="-26.7007762" lon="153.0158347">
<ele>59.785</ele>
<time>2017-06-11T01:54:49.053Z</time>
</trkpt>
<trkpt lat="-26.7004506" lon="153.0154856">
<ele>57.428</ele>
<time>2017-06-11T01:54:51.006Z</time>
</trkpt>
<trkpt lat="-26.6999559" lon="153.0149437">
<ele>55.565</ele>
<time>2017-06-11T01:54:53.991Z</time>
</trkpt>
<trkpt lat="-26.6994670" lon="153.0144153">
<ele>54.006</ele>
<time>2017-06-11T01:54:56.923Z</time>
</trkpt>
<trkpt lat="-26.6989736" lon="153.0138841">
<ele>52.477</ele>
<time>2017-06-11T01:54:59.882Z</time>
</trkpt>
<trkpt lat="-26.6986435" lon="153.0135254">
<ele>50.885</ele>
<time>2017-06-11T01:55:01.885Z</time>
</trkpt>
<trkpt lat="-26.6981552" lon="153.0130012">
<ele>49.371</ele>
<time>2017-06-11T01:55:04.848Z</time>
</trkpt>
<trkpt lat="-26.6978344" lon="153.0126527">
<ele>48.052</ele>
<time>2017-06-11T01:55:06.820Z</time>
</trkpt>
<trkpt lat="-26.6975211" lon="153.0123156">
<ele>47.030</ele>
<time>2017-06-11T01:55:08.802Z</time>
</trkpt>
<trkpt lat="-26.6972255" lon="153.0119962">
<ele>46.368</ele>
<time>2017-06-11T01:55:10.827Z</time>
</trkpt>
<trkpt lat="-26.6968241" lon="153.0115490">
<ele>45.872</ele>
<time>2017-06-11T01:55:13.828Z</time>
</trkpt>
<trkpt lat="-26.6964703" lon="153.0111521">
<ele>45.173</ele>
<time>2017-06-11T01:55:16.714Z</time>
</trkpt>
<trkpt lat="-26.6962151" lon="153.0109327">
<ele>44.097</ele>
<time>2017-06-11T01:55:18.655Z</time>
</trkpt>
<trkpt lat="-26.6958046" lon="153.0106299">
<ele>42.867</ele>
<time>2017-06-11T01:55:21.786Z</time>
</trkpt>
<trkpt lat="-26.6955793" lon="153.0104594">
<ele>41.811</ele>
<time>2017-06-11T01:55:23.892Z</time>
</trkpt>
<trkpt lat="-26.6952910" lon="153.0102523">
<ele>41.024</ele>
<time>2017-06-11T01:55:26.670Z</time>
</trkpt>
<trkpt lat="-26.6950896" lon="153.0101023">
<ele>40.488</ele>
<time>2017-06-11T01:55:28.519Z</time>
</trkpt>
<trkpt lat="-26.6947473" lon="153.0098448">
<ele>40.191</ele>
<time>2017-06-11T01:55:31.487Z</time>
</trkpt>
<trkpt lat="-26.6943686" lon="153.0095787">
<ele>40.056</ele>
<time>2017-06-11T01:55:34.535Z</time>
</trkpt>
<trkpt lat="-26.6940026" lon="153.0093038">
<ele>39.988</ele>
<time>2017-06-11T01:55:37.545Z</time>
</trkpt>
<trkpt lat="-26.6936466" lon="153.0090512">
<ele>39.930</ele>
<time>2017-06-11T01:55:40.492Z</time>
</trkpt>
<trkpt lat="-26.6933883" lon="153.0089290">
<ele>39.953</ele>
<time>2017-06-11T01:55:42.498Z</time>
</trkpt>
<trkpt lat="-26.6931353" lon="153.0088201">
<ele>40.098</ele>
<time>2017-06-11T01:55:44.447Z</time>
</trkpt>
<trkpt lat="-26.6928749" lon="153.0087137">
<ele>40.256</ele>
<time>2017-06-11T01:55:46.445Z</time>
</trkpt>
<trkpt lat="-26.6924877" lon="153.0085667">
<ele>40.317</ele>
<time>2017-06-11T01:55:49.463Z</time>
</trkpt>
<trkpt lat="-26.6922518" lon="153.0084768">
<ele>40.249</ele>
<time>2017-06-11T01:55:51.441Z</time>
</trkpt>
<trkpt lat="-26.6919176" lon="153.0083498">
<ele>40.024</ele>
<time>2017-06-11T01:55:54.336Z</time>
</trkpt>
<trkpt lat="-26.6916977" lon="153.0082685">
<ele>39.608</ele>
<time>2017-06-11T01:55:56.263Z</time>
</trkpt>
<trkpt lat="-26.6914712" lon="153.0081828">
<ele>38.980</ele>
<time>2017-06-11T01:55:58.241Z</time>
</trkpt>
<trkpt lat="-26.6911298" lon="153.0080549">
<ele>38.193</ele>
<time>2017-06-11T01:56:01.219Z</time>
</trkpt>
<trkpt lat="-26.6909061" lon="153.0079804">
<ele>37.278</ele>
<time>2017-06-11T01:56:03.189Z</time>
</trkpt>
<trkpt lat="-26.6906883" lon="153.0079162">
<ele>36.221</ele>
<time>2017-06-11T01:56:05.143Z</time>
</trkpt>
<trkpt lat="-26.6903666" lon="153.0078110">
<ele>35.146</ele>
<time>2017-06-11T01:56:08.203Z</time>
</trkpt>
<trkpt lat="-26.6901055" lon="153.0077024">
<ele>34.201</ele>
<time>2017-06-11T01:56:11.010Z</time>
</trkpt>
<trkpt lat="-26.6899463" lon="153.0076121">
<ele>33.379</ele>
<time>2017-06-11T01:56:13.006Z</time>
</trkpt>
<trkpt lat="-26.6897303" lon="153.0074790">
<ele>32.667</ele>
<time>2017-06-11T01:56:16.016Z</time>
</trkpt>
<trkpt lat="-26.6896274" lon="153.0074092">
<ele>32.142</ele>
<time>2017-06-11T01:56:17.930Z</time>
</trkpt>
<trkpt lat="-26.6895257" lon="153.0073692">
<ele>31.820</ele>
<time>2017-06-11T01:56:19.999Z</time>
</trkpt>
<trkpt lat="-26.6895257" lon="153.0073692">
<ele>31.649</ele>
<time>2017-06-11T01:56:23.999Z</time>
</trkpt>
<trkpt lat="-26.6895257" lon="153.0073692">
<ele>31.587</ele>
<time>2017-06-11T01:56:42.284Z</time>
</trkpt>
<trkpt lat="-26.6893773" lon="153.0072762">
<ele>31.585</ele>
<time>2017-06-11T01:56:49.999Z</time>
</trkpt>
<trkpt lat="-26.6893773" lon="153.0072762">
<ele>31.591</ele>
<time>2017-06-11T01:56:53.999Z</time>
</trkpt>
<trkpt lat="-26.6893773" lon="153.0072762">
<ele>31.579</ele>
<time>2017-06-11T01:56:56.751Z</time>
</trkpt>
<trkpt lat="-26.6891890" lon="153.0074976">
<ele>31.560</ele>
<time>2017-06-11T01:57:03.485Z</time>
</trkpt>
<trkpt lat="-26.6891291" lon="153.0079075">
<ele>31.637</ele>
<time>2017-06-11T01:57:06.069Z</time>
</trkpt>
<trkpt lat="-26.6890166" lon="153.0083674">
<ele>32.166</ele>
<time>2017-06-11T01:57:08.356Z</time>
</trkpt>
<trkpt lat="-26.6889186" lon="153.0087884">
<ele>33.523</ele>
<time>2017-06-11T01:57:10.453Z</time>
</trkpt>
<trkpt lat="-26.6887891" lon="153.0093340">
<ele>35.510</ele>
<time>2017-06-11T01:57:13.354Z</time>
</trkpt>
<trkpt lat="-26.6887481" lon="153.0096924">
<ele>37.626</ele>
<time>2017-06-11T01:57:15.322Z</time>
</trkpt>
<trkpt lat="-26.6886280" lon="153.0102079">
<ele>39.675</ele>
<time>2017-06-11T01:57:18.285Z</time>
</trkpt>
<trkpt lat="-26.6884859" lon="153.0107095">
<ele>41.830</ele>
<time>2017-06-11T01:57:21.252Z</time>
</trkpt>
<trkpt lat="-26.6884370" lon="153.0110702">
<ele>44.419</ele>
<time>2017-06-11T01:57:23.252Z</time>
</trkpt>
<trkpt lat="-26.6884592" lon="153.0116120">
<ele>47.417</ele>
<time>2017-06-11T01:57:25.995Z</time>
</trkpt>
<trkpt lat="-26.6884869" lon="153.0122441">
<ele>50.030</ele>
<time>2017-06-11T01:57:28.931Z</time>
</trkpt>
<trkpt lat="-26.6885230" lon="153.0126837">
<ele>50.258</ele>
<time>2017-06-11T01:57:30.866Z</time>
</trkpt>
<trkpt lat="-26.6886843" lon="153.0133323">
<ele>46.394</ele>
<time>2017-06-11T01:57:33.721Z</time>
</trkpt>
<trkpt lat="-26.6889558" lon="153.0137444">
<ele>39.970</ele>
<time>2017-06-11T01:57:35.713Z</time>
</trkpt>
<trkpt lat="-26.6894861" lon="153.0143510">
<ele>34.626</ele>
<time>2017-06-11T01:57:38.945Z</time>
</trkpt>
<trkpt lat="-26.6897844" lon="153.0147270">
<ele>32.704</ele>
<time>2017-06-11T01:57:40.966Z</time>
</trkpt>
<trkpt lat="-26.6900134" lon="153.0150871">
<ele>34.284</ele>
<time>2017-06-11T01:57:42.803Z</time>
</trkpt>
<trkpt lat="-26.6901221" lon="153.0155626">
<ele>37.813</ele>
<time>2017-06-11T01:57:44.762Z</time>
</trkpt>
<trkpt lat="-26.6901833" lon="153.0160816">
<ele>41.606</ele>
<time>2017-06-11T01:57:46.886Z</time>
</trkpt>
<trkpt lat="-26.6902642" lon="153.0167642">
<ele>45.077</ele>
<time>2017-06-11T01:57:49.963Z</time>
</trkpt>
<trkpt lat="-26.6902699" lon="153.0171228">
<ele>48.747</ele>
<time>2017-06-11T01:57:51.830Z</time>
</trkpt>
<trkpt lat="-26.6899187" lon="153.0175830">
<ele>53.131</ele>
<time>2017-06-11T01:57:54.810Z</time>
</trkpt>
<trkpt lat="-26.6895128" lon="153.0177310">
<ele>58.051</ele>
<time>2017-06-11T01:57:56.945Z</time>
</trkpt>
<trkpt lat="-26.6889893" lon="153.0180316">
<ele>68.759</ele>
<time>2017-06-11T01:58:00.043Z</time>
</trkpt>
<trkpt lat="-26.6887037" lon="153.0185303">
<ele>87.748</ele>
<time>2017-06-11T01:58:02.981Z</time>
</trkpt>
<trkpt lat="-26.6885649" lon="153.0191106">
<ele>105.719</ele>
<time>2017-06-11T01:58:05.833Z</time>
</trkpt>
<trkpt lat="-26.6884369" lon="153.0195529">
<ele>113.836</ele>
<time>2017-06-11T01:58:07.932Z</time>
</trkpt>
<trkpt lat="-26.6883540" lon="153.0199916">
<ele>113.604</ele>
<time>2017-06-11T01:58:10.032Z</time>
</trkpt>
<trkpt lat="-26.6882163" lon="153.0205963">
<ele>109.639</ele>
<time>2017-06-11T01:58:13.086Z</time>
</trkpt>
<trkpt lat="-26.6881108" lon="153.0211682">
<ele>105.712</ele>
<time>2017-06-11T01:58:16.177Z</time>
</trkpt>
<trkpt lat="-26.6881172" lon="153.0216846">
<ele>103.959</ele>
<time>2017-06-11T01:58:19.123Z</time>
</trkpt>
<trkpt lat="-26.6882279" lon="153.0221651">
<ele>105.729</ele>
<time>2017-06-11T01:58:21.934Z</time>
</trkpt>
<trkpt lat="-26.6885377" lon="153.0226120">
<ele>114.542</ele>
<time>2017-06-11T01:58:24.917Z</time>
</trkpt>
<trkpt lat="-26.6889448" lon="153.0230355">
<ele>130.444</ele>
<time>2017-06-11T01:58:27.994Z</time>
</trkpt>
<trkpt lat="-26.6892466" lon="153.0233016">
<ele>144.521</ele>
<time>2017-06-11T01:58:30.057Z</time>
</trkpt>
<trkpt lat="-26.6896823" lon="153.0237054">
<ele>150.064</ele>
<time>2017-06-11T01:58:33.120Z</time>
</trkpt>
<trkpt lat="-26.6900997" lon="153.0240940">
<ele>149.762</ele>
<time>2017-06-11T01:58:36.141Z</time>
</trkpt>
<trkpt lat="-26.6903608" lon="153.0243526">
<ele>147.829</ele>
<time>2017-06-11T01:58:38.186Z</time>
</trkpt>
<trkpt lat="-26.6906941" lon="153.0247724">
<ele>146.653</ele>
<time>2017-06-11T01:58:41.278Z</time>
</trkpt>
<trkpt lat="-26.6908921" lon="153.0252386">
<ele>146.913</ele>
<time>2017-06-11T01:58:44.243Z</time>
</trkpt>
<trkpt lat="-26.6911092" lon="153.0257617">
<ele>148.262</ele>
<time>2017-06-11T01:58:47.450Z</time>
</trkpt>
<trkpt lat="-26.6912270" lon="153.0260970">
<ele>149.798</ele>
<time>2017-06-11T01:58:49.393Z</time>
</trkpt>
<trkpt lat="-26.6915165" lon="153.0265178">
<ele>150.798</ele>
<time>2017-06-11T01:58:52.291Z</time>
</trkpt>
<trkpt lat="-26.6918438" lon="153.0269256">
<ele>150.908</ele>
<time>2017-06-11T01:58:55.376Z</time>
</trkpt>
<trkpt lat="-26.6920503" lon="153.0271698">
<ele>149.797</ele>
<time>2017-06-11T01:58:57.409Z</time>
</trkpt>
<trkpt lat="-26.6923223" lon="153.0275323">
<ele>147.404</ele>
<time>2017-06-11T01:59:00.314Z</time>
</trkpt>
<trkpt lat="-26.6925181" lon="153.0279564">
<ele>143.729</ele>
<time>2017-06-11T01:59:03.064Z</time>
</trkpt>
<trkpt lat="-26.6926475" lon="153.0284749">
<ele>139.261</ele>
<time>2017-06-11T01:59:05.849Z</time>
</trkpt>
<trkpt lat="-26.6928103" lon="153.0291142">
<ele>135.106</ele>
<time>2017-06-11T01:59:08.914Z</time>
</trkpt>
<trkpt lat="-26.6929222" lon="153.0295749">
<ele>131.621</ele>
<time>2017-06-11T01:59:10.935Z</time>
</trkpt>
<trkpt lat="-26.6931146" lon="153.0302530">
<ele>128.717</ele>
<time>2017-06-11T01:59:14.011Z</time>
</trkpt>
<trkpt lat="-26.6932977" lon="153.0306409">
<ele>126.923</ele>
<time>2017-06-11T01:59:16.081Z</time>
</trkpt>
<trkpt lat="-26.6935844" lon="153.0311630">
<ele>126.378</ele>
<time>2017-06-11T01:59:19.183Z</time>
</trkpt>
<trkpt lat="-26.6937712" lon="153.0316515">
<ele>126.533</ele>
<time>2017-06-11T01:59:22.191Z</time>
</trkpt>
<trkpt lat="-26.6938866" lon="153.0319571">
<ele>126.781</ele>
<time>2017-06-11T01:59:24.232Z</time>
</trkpt>
<trkpt lat="-26.6938860" lon="153.0324803">
<ele>126.824</ele>
<time>2017-06-11T01:59:27.418Z</time>
</trkpt>
<trkpt lat="-26.6936798" lon="153.0329479">
<ele>127.128</ele>
<time>2017-06-11T01:59:30.471Z</time>
</trkpt>
<trkpt lat="-26.6935913" lon="153.0332737">
<ele>130.991</ele>
<time>2017-06-11T01:59:32.373Z</time>
</trkpt>
<trkpt lat="-26.6935289" lon="153.0338162">
<ele>139.842</ele>
<time>2017-06-11T01:59:35.293Z</time>
</trkpt>
<trkpt lat="-26.6935389" lon="153.0343807">
<ele>148.755</ele>
<time>2017-06-11T01:59:38.338Z</time>
</trkpt>
<trkpt lat="-26.6934087" lon="153.0348887">
<ele>153.014</ele>
<time>2017-06-11T01:59:41.325Z</time>
</trkpt>
<trkpt lat="-26.6932471" lon="153.0353422">
<ele>153.196</ele>
<time>2017-06-11T01:59:44.109Z</time>
</trkpt>
<trkpt lat="-26.6931208" lon="153.0356600">
<ele>151.618</ele>
<time>2017-06-11T01:59:46.143Z</time>
</trkpt>
<trkpt lat="-26.6930274" lon="153.0359586">
<ele>150.236</ele>
<time>2017-06-11T01:59:48.116Z</time>
</trkpt>
<trkpt lat="-26.6929394" lon="153.0363891">
<ele>149.934</ele>
<time>2017-06-11T01:59:50.904Z</time>
</trkpt>
<trkpt lat="-26.6930238" lon="153.0368537">
<ele>150.969</ele>
<time>2017-06-11T01:59:53.874Z</time>
</trkpt>
<trkpt lat="-26.6930769" lon="153.0371576">
<ele>152.910</ele>
<time>2017-06-11T01:59:55.961Z</time>
</trkpt>
<trkpt lat="-26.6931682" lon="153.0373801">
<ele>155.810</ele>
<time>2017-06-11T01:59:57.882Z</time>
</trkpt>
<trkpt lat="-26.6934620" lon="153.0375643">
<ele>160.077</ele>
<time>2017-06-11T02:00:00.852Z</time>
</trkpt>
<trkpt lat="-26.6936646" lon="153.0376641">
<ele>164.349</ele>
<time>2017-06-11T02:00:02.759Z</time>
</trkpt>
<trkpt lat="-26.6939614" lon="153.0379090">
<ele>165.715</ele>
<time>2017-06-11T02:00:06.112Z</time>
</trkpt>
<trkpt lat="-26.6941997" lon="153.0380783">
<ele>163.393</ele>
<time>2017-06-11T02:00:09.069Z</time>
</trkpt>
<trkpt lat="-26.6944518" lon="153.0381184">
<ele>159.766</ele>
<time>2017-06-11T02:00:12.152Z</time>
</trkpt>
<trkpt lat="-26.6945975" lon="153.0382997">
<ele>157.778</ele>
<time>2017-06-11T02:00:15.000Z</time>
</trkpt>
<trkpt lat="-26.6945756" lon="153.0384884">
<ele>158.175</ele>
<time>2017-06-11T02:00:16.775Z</time>
</trkpt>
<trkpt lat="-26.6943711" lon="153.0387983">
<ele>159.905</ele>
<time>2017-06-11T02:00:19.858Z</time>
</trkpt>
<trkpt lat="-26.6941678" lon="153.0390487">
<ele>161.579</ele>
<time>2017-06-11T02:00:22.124Z</time>
</trkpt>
<trkpt lat="-26.6939159" lon="153.0394260">
<ele>162.577</ele>
<time>2017-06-11T02:00:25.160Z</time>
</trkpt>
<trkpt lat="-26.6936681" lon="153.0398116">
<ele>162.823</ele>
<time>2017-06-11T02:00:28.178Z</time>
</trkpt>
<trkpt lat="-26.6934938" lon="153.0400576">
<ele>162.358</ele>
<time>2017-06-11T02:00:30.201Z</time>
</trkpt>
<trkpt lat="-26.6932651" lon="153.0404150">
<ele>161.294</ele>
<time>2017-06-11T02:00:33.166Z</time>
</trkpt>
<trkpt lat="-26.6930523" lon="153.0407675">
<ele>159.739</ele>
<time>2017-06-11T02:00:36.159Z</time>
</trkpt>
<trkpt lat="-26.6928987" lon="153.0409892">
<ele>157.714</ele>
<time>2017-06-11T02:00:38.102Z</time>
</trkpt>
<trkpt lat="-26.6926405" lon="153.0413364">
<ele>155.512</ele>
<time>2017-06-11T02:00:41.333Z</time>
</trkpt>
<trkpt lat="-26.6924191" lon="153.0416367">
<ele>153.573</ele>
<time>2017-06-11T02:00:44.288Z</time>
</trkpt>
<trkpt lat="-26.6923038" lon="153.0418819">
<ele>151.923</ele>
<time>2017-06-11T02:00:46.476Z</time>
</trkpt>
<trkpt lat="-26.6923242" lon="153.0423307">
<ele>150.427</ele>
<time>2017-06-11T02:00:50.754Z</time>
</trkpt>
<trkpt lat="-26.6924068" lon="153.0425106">
<ele>149.082</ele>
<time>2017-06-11T02:00:54.159Z</time>
</trkpt>
<trkpt lat="-26.6924480" lon="153.0426527">
<ele>147.831</ele>
<time>2017-06-11T02:00:57.615Z</time>
</trkpt>
<trkpt lat="-26.6924858" lon="153.0427747">
<ele>146.561</ele>
<time>2017-06-11T02:01:00.312Z</time>
</trkpt>
<trkpt lat="-26.6925453" lon="153.0429011">
<ele>145.261</ele>
<time>2017-06-11T02:01:02.280Z</time>
</trkpt>
<trkpt lat="-26.6926029" lon="153.0430121">
<ele>144.131</ele>
<time>2017-06-11T02:01:03.847Z</time>
</trkpt>
<trkpt lat="-26.6926470" lon="153.0433082">
<ele>143.446</ele>
<time>2017-06-11T02:01:06.634Z</time>
</trkpt>
<trkpt lat="-26.6926560" lon="153.0435484">
<ele>143.320</ele>
<time>2017-06-11T02:01:08.682Z</time>
</trkpt>
<trkpt lat="-26.6926596" lon="153.0437899">
<ele>143.686</ele>
<time>2017-06-11T02:01:10.708Z</time>
</trkpt>
<trkpt lat="-26.6927047" lon="153.0440226">
<ele>144.297</ele>
<time>2017-06-11T02:01:12.728Z</time>
</trkpt>
<trkpt lat="-26.6926978" lon="153.0442582">
<ele>144.892</ele>
<time>2017-06-11T02:01:14.732Z</time>
</trkpt>
<trkpt lat="-26.6926112" lon="153.0444716">
<ele>145.410</ele>
<time>2017-06-11T02:01:16.667Z</time>
</trkpt>
<trkpt lat="-26.6923230" lon="153.0446900">
<ele>145.900</ele>
<time>2017-06-11T02:01:19.551Z</time>
</trkpt>
<trkpt lat="-26.6921100" lon="153.0448712">
<ele>146.421</ele>
<time>2017-06-11T02:01:21.630Z</time>
</trkpt>
<trkpt lat="-26.6917823" lon="153.0451221">
<ele>146.928</ele>
<time>2017-06-11T02:01:24.683Z</time>
</trkpt>
<trkpt lat="-26.6914613" lon="153.0453694">
<ele>147.271</ele>
<time>2017-06-11T02:01:27.757Z</time>
</trkpt>
<trkpt lat="-26.6912557" lon="153.0455191">
<ele>147.210</ele>
<time>2017-06-11T02:01:29.725Z</time>
</trkpt>
<trkpt lat="-26.6909916" lon="153.0456688">
<ele>146.549</ele>
<time>2017-06-11T02:01:32.127Z</time>
</trkpt>
<trkpt lat="-26.6906891" lon="153.0458225">
<ele>145.388</ele>
<time>2017-06-11T02:01:34.924Z</time>
</trkpt>
<trkpt lat="-26.6903805" lon="153.0459697">
<ele>143.980</ele>
<time>2017-06-11T02:01:37.892Z</time>
</trkpt>
<trkpt lat="-26.6901698" lon="153.0460310">
<ele>142.465</ele>
<time>2017-06-11T02:01:39.827Z</time>
</trkpt>
<trkpt lat="-26.6899588" lon="153.0461015">
<ele>141.076</ele>
<time>2017-06-11T02:01:41.773Z</time>
</trkpt>
<trkpt lat="-26.6896368" lon="153.0462037">
<ele>140.121</ele>
<time>2017-06-11T02:01:44.776Z</time>
</trkpt>
<trkpt lat="-26.6893337" lon="153.0463500">
<ele>139.698</ele>
<time>2017-06-11T02:01:47.817Z</time>
</trkpt>
<trkpt lat="-26.6890270" lon="153.0464954">
<ele>139.745</ele>
<time>2017-06-11T02:01:50.994Z</time>
</trkpt>
<trkpt lat="-26.6887394" lon="153.0466146">
<ele>140.105</ele>
<time>2017-06-11T02:01:54.576Z</time>
</trkpt>
<trkpt lat="-26.6885695" lon="153.0467877">
<ele>140.361</ele>
<time>2017-06-11T02:01:57.828Z</time>
</trkpt>
<trkpt lat="-26.6885077" lon="153.0469207">
<ele>140.123</ele>
<time>2017-06-11T02:01:59.632Z</time>
</trkpt>
<trkpt lat="-26.6884217" lon="153.0471324">
<ele>139.500</ele>
<time>2017-06-11T02:02:02.163Z</time>
</trkpt>
<trkpt lat="-26.6883173" lon="153.0474095">
<ele>138.917</ele>
<time>2017-06-11T02:02:05.038Z</time>
</trkpt>
<trkpt lat="-26.6882354" lon="153.0476025">
<ele>138.624</ele>
<time>2017-06-11T02:02:07.025Z</time>
</trkpt>
<trkpt lat="-26.6881066" lon="153.0478989">
<ele>138.552</ele>
<time>2017-06-11T02:02:10.141Z</time>
</trkpt>
<trkpt lat="-26.6879923" lon="153.0481813">
<ele>138.388</ele>
<time>2017-06-11T02:02:13.438Z</time>
</trkpt>
<trkpt lat="-26.6878861" lon="153.0484124">
<ele>137.752</ele>
<time>2017-06-11T02:02:16.904Z</time>
</trkpt>
<trkpt lat="-26.6878178" lon="153.0486002">
<ele>136.542</ele>
<time>2017-06-11T02:02:20.350Z</time>
</trkpt>
<trkpt lat="-26.6877050" lon="153.0487150">
<ele>135.033</ele>
<time>2017-06-11T02:02:24.220Z</time>
</trkpt>
<trkpt lat="-26.6876357" lon="153.0488213">
<ele>133.571</ele>
<time>2017-06-11T02:02:28.264Z</time>
</trkpt>
<trkpt lat="-26.6875867" lon="153.0489059">
<ele>132.354</ele>
<time>2017-06-11T02:02:32.157Z</time>
</trkpt>
<trkpt lat="-26.6874970" lon="153.0489617">
<ele>131.438</ele>
<time>2017-06-11T02:02:36.859Z</time>
</trkpt>
<trkpt lat="-26.6874229" lon="153.0490265">
<ele>130.788</ele>
<time>2017-06-11T02:02:40.000Z</time>
</trkpt>
<trkpt lat="-26.6873375" lon="153.0490807">
<ele>130.322</ele>
<time>2017-06-11T02:02:42.446Z</time>
</trkpt>
<trkpt lat="-26.6872228" lon="153.0491636">
<ele>129.991</ele>
<time>2017-06-11T02:02:45.378Z</time>
</trkpt>
<trkpt lat="-26.6871179" lon="153.0492529">
<ele>129.798</ele>
<time>2017-06-11T02:02:47.865Z</time>
</trkpt>
<trkpt lat="-26.6869739" lon="153.0493344">
<ele>129.684</ele>
<time>2017-06-11T02:02:50.523Z</time>
</trkpt>
<trkpt lat="-26.6868122" lon="153.0494597">
<ele>129.554</ele>
<time>2017-06-11T02:02:53.352Z</time>
</trkpt>
<trkpt lat="-26.6867057" lon="153.0495609">
<ele>129.373</ele>
<time>2017-06-11T02:02:55.100Z</time>
</trkpt>
<trkpt lat="-26.6865814" lon="153.0496859">
<ele>129.154</ele>
<time>2017-06-11T02:02:57.104Z</time>
</trkpt>
<trkpt lat="-26.6864336" lon="153.0498032">
<ele>128.916</ele>
<time>2017-06-11T02:02:59.304Z</time>
</trkpt>
<trkpt lat="-26.6862435" lon="153.0499715">
<ele>128.682</ele>
<time>2017-06-11T02:03:02.558Z</time>
</trkpt>
<trkpt lat="-26.6860646" lon="153.0501203">
<ele>128.414</ele>
<time>2017-06-11T02:03:07.081Z</time>
</trkpt>
<trkpt lat="-26.6859481" lon="153.0502235">
<ele>127.972</ele>
<time>2017-06-11T02:03:12.041Z</time>
</trkpt>
<trkpt lat="-26.6858779" lon="153.0503134">
<ele>127.227</ele>
<time>2017-06-11T02:03:15.190Z</time>
</trkpt>
<trkpt lat="-26.6858324" lon="153.0504317">
<ele>126.203</ele>
<time>2017-06-11T02:03:17.577Z</time>
</trkpt>
<trkpt lat="-26.6857144" lon="153.0505196">
<ele>125.115</ele>
<time>2017-06-11T02:03:19.874Z</time>
</trkpt>
<trkpt lat="-26.6855580" lon="153.0506664">
<ele>124.260</ele>
<time>2017-06-11T02:03:22.526Z</time>
</trkpt>
<trkpt lat="-26.6855689" lon="153.0509491">
<ele>123.789</ele>
<time>2017-06-11T02:03:25.365Z</time>
</trkpt>
<trkpt lat="-26.6855119" lon="153.0512524">
<ele>123.633</ele>
<time>2017-06-11T02:03:28.056Z</time>
</trkpt>
<trkpt lat="-26.6854471" lon="153.0514818">
<ele>123.642</ele>
<time>2017-06-11T02:03:30.029Z</time>
</trkpt>
<trkpt lat="-26.6853711" lon="153.0518473">
<ele>123.711</ele>
<time>2017-06-11T02:03:33.097Z</time>
</trkpt>
<trkpt lat="-26.6852653" lon="153.0521886">
<ele>123.778</ele>
<time>2017-06-11T02:03:36.128Z</time>
</trkpt>
<trkpt lat="-26.6851553" lon="153.0525139">
<ele>123.814</ele>
<time>2017-06-11T02:03:38.990Z</time>
</trkpt>
<trkpt lat="-26.6850804" lon="153.0527494">
<ele>123.813</ele>
<time>2017-06-11T02:03:41.054Z</time>
</trkpt>
<trkpt lat="-26.6850103" lon="153.0529778">
<ele>123.826</ele>
<time>2017-06-11T02:03:43.194Z</time>
</trkpt>
<trkpt lat="-26.6849470" lon="153.0531879">
<ele>123.937</ele>
<time>2017-06-11T02:03:45.260Z</time>
</trkpt>
<trkpt lat="-26.6848713" lon="153.0534705">
<ele>124.210</ele>
<time>2017-06-11T02:03:48.045Z</time>
</trkpt>
<trkpt lat="-26.6847900" lon="153.0536601">
<ele>124.694</ele>
<time>2017-06-11T02:03:49.893Z</time>
</trkpt>
<trkpt lat="-26.6847154" lon="153.0538856">
<ele>125.422</ele>
<time>2017-06-11T02:03:52.046Z</time>
</trkpt>
<trkpt lat="-26.6846362" lon="153.0541045">
<ele>126.388</ele>
<time>2017-06-11T02:03:55.073Z</time>
</trkpt>
<trkpt lat="-26.6845904" lon="153.0542458">
<ele>127.547</ele>
<time>2017-06-11T02:03:59.051Z</time>
</trkpt>
<trkpt lat="-26.6845543" lon="153.0543507">
<ele>128.728</ele>
<time>2017-06-11T02:04:02.643Z</time>
</trkpt>
<trkpt lat="-26.6845196" lon="153.0544589">
<ele>129.682</ele>
<time>2017-06-11T02:04:05.266Z</time>
</trkpt>
<trkpt lat="-26.6844660" lon="153.0545992">
<ele>130.375</ele>
<time>2017-06-11T02:04:07.196Z</time>
</trkpt>
<trkpt lat="-26.6843771" lon="153.0548860">
<ele>130.967</ele>
<time>2017-06-11T02:04:10.188Z</time>
</trkpt>
<trkpt lat="-26.6842676" lon="153.0552277">
<ele>131.619</ele>
<time>2017-06-11T02:04:13.289Z</time>
</trkpt>
<trkpt lat="-26.6841970" lon="153.0554452">
<ele>132.442</ele>
<time>2017-06-11T02:04:15.329Z</time>
</trkpt>
<trkpt lat="-26.6841322" lon="153.0556461">
<ele>133.349</ele>
<time>2017-06-11T02:04:17.297Z</time>
</trkpt>
<trkpt lat="-26.6840350" lon="153.0558363">
<ele>134.070</ele>
<time>2017-06-11T02:04:19.249Z</time>
</trkpt>
<trkpt lat="-26.6839056" lon="153.0561608">
<ele>134.459</ele>
<time>2017-06-11T02:04:22.273Z</time>
</trkpt>
<trkpt lat="-26.6838252" lon="153.0563820">
<ele>134.665</ele>
<time>2017-06-11T02:04:24.169Z</time>
</trkpt>
<trkpt lat="-26.6836854" lon="153.0567419">
<ele>134.907</ele>
<time>2017-06-11T02:04:27.156Z</time>
</trkpt>
<trkpt lat="-26.6835953" lon="153.0569863">
<ele>135.277</ele>
<time>2017-06-11T02:04:29.077Z</time>
</trkpt>
<trkpt lat="-26.6834513" lon="153.0573679">
<ele>135.758</ele>
<time>2017-06-11T02:04:32.065Z</time>
</trkpt>
<trkpt lat="-26.6833517" lon="153.0576075">
<ele>136.414</ele>
<time>2017-06-11T02:04:34.020Z</time>
</trkpt>
<trkpt lat="-26.6832565" lon="153.0578479">
<ele>137.289</ele>
<time>2017-06-11T02:04:36.051Z</time>
</trkpt>
<trkpt lat="-26.6831147" lon="153.0581821">
<ele>138.246</ele>
<time>2017-06-11T02:04:38.934Z</time>
</trkpt>
<trkpt lat="-26.6830192" lon="153.0584199">
<ele>139.048</ele>
<time>2017-06-11T02:04:40.958Z</time>
</trkpt>
<trkpt lat="-26.6828775" lon="153.0587651">
<ele>139.540</ele>
<time>2017-06-11T02:04:43.844Z</time>
</trkpt>
<trkpt lat="-26.6827756" lon="153.0590138">
<ele>139.589</ele>
<time>2017-06-11T02:04:45.779Z</time>
</trkpt>
<trkpt lat="-26.6826579" lon="153.0592790">
<ele>139.142</ele>
<time>2017-06-11T02:04:47.789Z</time>
</trkpt>
<trkpt lat="-26.6825288" lon="153.0595489">
<ele>138.330</ele>
<time>2017-06-11T02:04:49.816Z</time>
</trkpt>
<trkpt lat="-26.6825366" lon="153.0599894">
<ele>137.336</ele>
<time>2017-06-11T02:04:52.707Z</time>
</trkpt>
<trkpt lat="-26.6825342" lon="153.0602964">
<ele>136.094</ele>
<time>2017-06-11T02:04:54.675Z</time>
</trkpt>
<trkpt lat="-26.6825237" lon="153.0607739">
<ele>134.566</ele>
<time>2017-06-11T02:04:57.674Z</time>
</trkpt>
<trkpt lat="-26.6825350" lon="153.0611008">
<ele>132.959</ele>
<time>2017-06-11T02:04:59.672Z</time>
</trkpt>
<trkpt lat="-26.6825710" lon="153.0615922">
<ele>131.565</ele>
<time>2017-06-11T02:05:02.663Z</time>
</trkpt>
<trkpt lat="-26.6825959" lon="153.0619233">
<ele>130.558</ele>
<time>2017-06-11T02:05:04.657Z</time>
</trkpt>
<trkpt lat="-26.6826174" lon="153.0624266">
<ele>129.949</ele>
<time>2017-06-11T02:05:07.641Z</time>
</trkpt>
<trkpt lat="-26.6826391" lon="153.0627720">
<ele>129.646</ele>
<time>2017-06-11T02:05:09.672Z</time>
</trkpt>
<trkpt lat="-26.6826643" lon="153.0632704">
<ele>129.599</ele>
<time>2017-06-11T02:05:12.650Z</time>
</trkpt>
<trkpt lat="-26.6826712" lon="153.0635923">
<ele>129.758</ele>
<time>2017-06-11T02:05:14.649Z</time>
</trkpt>
<trkpt lat="-26.6826771" lon="153.0638957">
<ele>130.049</ele>
<time>2017-06-11T02:05:16.606Z</time>
</trkpt>
<trkpt lat="-26.6826888" lon="153.0643319">
<ele>130.427</ele>
<time>2017-06-11T02:05:19.454Z</time>
</trkpt>
<trkpt lat="-26.6826662" lon="153.0646415">
<ele>131.027</ele>
<time>2017-06-11T02:05:21.486Z</time>
</trkpt>
<trkpt lat="-26.6826640" lon="153.0649368">
<ele>132.015</ele>
<time>2017-06-11T02:05:23.529Z</time>
</trkpt>
<trkpt lat="-26.6826026" lon="153.0653239">
<ele>133.265</ele>
<time>2017-06-11T02:05:26.367Z</time>
</trkpt>
<trkpt lat="-26.6825419" lon="153.0657390">
<ele>134.569</ele>
<time>2017-06-11T02:05:29.402Z</time>
</trkpt>
<trkpt lat="-26.6825404" lon="153.0661748">
<ele>135.778</ele>
<time>2017-06-11T02:05:32.444Z</time>
</trkpt>
<trkpt lat="-26.6825052" lon="153.0664419">
<ele>136.633</ele>
<time>2017-06-11T02:05:34.385Z</time>
</trkpt>
<trkpt lat="-26.6824625" lon="153.0668387">
<ele>136.892</ele>
<time>2017-06-11T02:05:37.346Z</time>
</trkpt>
<trkpt lat="-26.6825008" lon="153.0672230">
<ele>136.448</ele>
<time>2017-06-11T02:05:40.241Z</time>
</trkpt>
<trkpt lat="-26.6824900" lon="153.0676413">
<ele>135.327</ele>
<time>2017-06-11T02:05:43.261Z</time>
</trkpt>
<trkpt lat="-26.6825559" lon="153.0679347">
<ele>133.772</ele>
<time>2017-06-11T02:05:45.293Z</time>
</trkpt>
<trkpt lat="-26.6827917" lon="153.0681653">
<ele>132.161</ele>
<time>2017-06-11T02:05:47.516Z</time>
</trkpt>
<trkpt lat="-26.6830076" lon="153.0686602">
<ele>130.782</ele>
<time>2017-06-11T02:05:50.937Z</time>
</trkpt>
<trkpt lat="-26.6831997" lon="153.0690606">
<ele>129.631</ele>
<time>2017-06-11T02:05:53.785Z</time>
</trkpt>
<trkpt lat="-26.6833066" lon="153.0693411">
<ele>128.439</ele>
<time>2017-06-11T02:05:55.727Z</time>
</trkpt>
<trkpt lat="-26.6834521" lon="153.0697746">
<ele>127.132</ele>
<time>2017-06-11T02:05:58.703Z</time>
</trkpt>
<trkpt lat="-26.6836168" lon="153.0700077">
<ele>125.843</ele>
<time>2017-06-11T02:06:00.670Z</time>
</trkpt>
<trkpt lat="-26.6838043" lon="153.0703862">
<ele>124.615</ele>
<time>2017-06-11T02:06:03.583Z</time>
</trkpt>
<trkpt lat="-26.6839752" lon="153.0707706">
<ele>123.419</ele>
<time>2017-06-11T02:06:06.590Z</time>
</trkpt>
<trkpt lat="-26.6840444" lon="153.0710128">
<ele>122.231</ele>
<time>2017-06-11T02:06:08.564Z</time>
</trkpt>
<trkpt lat="-26.6841568" lon="153.0713451">
<ele>121.037</ele>
<time>2017-06-11T02:06:11.659Z</time>
</trkpt>
<trkpt lat="-26.6841675" lon="153.0715086">
<ele>119.875</ele>
<time>2017-06-11T02:06:13.702Z</time>
</trkpt>
<trkpt lat="-26.6841030" lon="153.0715835">
<ele>118.742</ele>
<time>2017-06-11T02:06:15.452Z</time>
</trkpt>
<trkpt lat="-26.6840499" lon="153.0716965">
<ele>117.604</ele>
<time>2017-06-11T02:06:17.646Z</time>
</trkpt>
<trkpt lat="-26.6839620" lon="153.0719331">
<ele>116.510</ele>
<time>2017-06-11T02:06:21.236Z</time>
</trkpt>
<trkpt lat="-26.6840258" lon="153.0721370">
<ele>115.634</ele>
<time>2017-06-11T02:06:23.277Z</time>
</trkpt>
<trkpt lat="-26.6839874" lon="153.0725425">
<ele>115.143</ele>
<time>2017-06-11T02:06:26.511Z</time>
</trkpt>
<trkpt lat="-26.6838335" lon="153.0727784">
<ele>115.092</ele>
<time>2017-06-11T02:06:28.517Z</time>
</trkpt>
<trkpt lat="-26.6835065" lon="153.0730496">
<ele>115.427</ele>
<time>2017-06-11T02:06:31.522Z</time>
</trkpt>
<trkpt lat="-26.6832767" lon="153.0732307">
<ele>116.006</ele>
<time>2017-06-11T02:06:33.556Z</time>
</trkpt>
<trkpt lat="-26.6829518" lon="153.0735135">
<ele>116.674</ele>
<time>2017-06-11T02:06:36.564Z</time>
</trkpt>
<trkpt lat="-26.6827724" lon="153.0737303">
<ele>117.380</ele>
<time>2017-06-11T02:06:38.555Z</time>
</trkpt>
<trkpt lat="-26.6825504" lon="153.0740864">
<ele>118.123</ele>
<time>2017-06-11T02:06:41.553Z</time>
</trkpt>
<trkpt lat="-26.6823480" lon="153.0744342">
<ele>118.864</ele>
<time>2017-06-11T02:06:44.523Z</time>
</trkpt>
<trkpt lat="-26.6823209" lon="153.0747051">
<ele>119.531</ele>
<time>2017-06-11T02:06:46.539Z</time>
</trkpt>
<trkpt lat="-26.6823984" lon="153.0751101">
<ele>120.090</ele>
<time>2017-06-11T02:06:49.589Z</time>
</trkpt>
<trkpt lat="-26.6825427" lon="153.0753428">
<ele>120.493</ele>
<time>2017-06-11T02:06:51.649Z</time>
</trkpt>
<trkpt lat="-26.6826330" lon="153.0757343">
<ele>120.681</ele>
<time>2017-06-11T02:06:54.582Z</time>
</trkpt>
<trkpt lat="-26.6826353" lon="153.0761455">
<ele>120.462</ele>
<time>2017-06-11T02:06:57.517Z</time>
</trkpt>
<trkpt lat="-26.6826891" lon="153.0765918">
<ele>119.483</ele>
<time>2017-06-11T02:07:00.736Z</time>
</trkpt>
<trkpt lat="-26.6826595" lon="153.0769888">
<ele>117.502</ele>
<time>2017-06-11T02:07:03.712Z</time>
</trkpt>
<trkpt lat="-26.6827386" lon="153.0772419">
<ele>114.511</ele>
<time>2017-06-11T02:07:05.739Z</time>
</trkpt>
<trkpt lat="-26.6827680" lon="153.0775090">
<ele>111.267</ele>
<time>2017-06-11T02:07:07.736Z</time>
</trkpt>
<trkpt lat="-26.6829373" lon="153.0778516">
<ele>109.075</ele>
<time>2017-06-11T02:07:10.610Z</time>
</trkpt>
<trkpt lat="-26.6831163" lon="153.0780278">
<ele>109.349</ele>
<time>2017-06-11T02:07:12.537Z</time>
</trkpt>
<trkpt lat="-26.6833466" lon="153.0781490">
<ele>112.048</ele>
<time>2017-06-11T02:07:14.548Z</time>
</trkpt>
<trkpt lat="-26.6836873" lon="153.0783539">
<ele>114.183</ele>
<time>2017-06-11T02:07:17.524Z</time>
</trkpt>
<trkpt lat="-26.6839529" lon="153.0786828">
<ele>113.342</ele>
<time>2017-06-11T02:07:20.477Z</time>
</trkpt>
<trkpt lat="-26.6840729" lon="153.0789738">
<ele>110.373</ele>
<time>2017-06-11T02:07:22.539Z</time>
</trkpt>
<trkpt lat="-26.6841621" lon="153.0794648">
<ele>107.072</ele>
<time>2017-06-11T02:07:25.619Z</time>
</trkpt>
<trkpt lat="-26.6841055" lon="153.0798312">
<ele>104.952</ele>
<time>2017-06-11T02:07:27.690Z</time>
</trkpt>
<trkpt lat="-26.6839438" lon="153.0801708">
<ele>104.561</ele>
<time>2017-06-11T02:07:29.739Z</time>
</trkpt>
<trkpt lat="-26.6837110" lon="153.0806680">
<ele>104.842</ele>
<time>2017-06-11T02:07:32.729Z</time>
</trkpt>
<trkpt lat="-26.6835590" lon="153.0809883">
<ele>104.309</ele>
<time>2017-06-11T02:07:34.679Z</time>
</trkpt>
<trkpt lat="-26.6833891" lon="153.0813036">
<ele>102.225</ele>
<time>2017-06-11T02:07:36.630Z</time>
</trkpt>
<trkpt lat="-26.6832064" lon="153.0816261">
<ele>99.046</ele>
<time>2017-06-11T02:07:38.606Z</time>
</trkpt>
<trkpt lat="-26.6829695" lon="153.0821412">
<ele>95.858</ele>
<time>2017-06-11T02:07:41.653Z</time>
</trkpt>
<trkpt lat="-26.6827205" lon="153.0825831">
<ele>93.435</ele>
<time>2017-06-11T02:07:44.587Z</time>
</trkpt>
<trkpt lat="-26.6825005" lon="153.0830019">
<ele>91.768</ele>
<time>2017-06-11T02:07:47.471Z</time>
</trkpt>
<trkpt lat="-26.6822709" lon="153.0834237">
<ele>90.448</ele>
<time>2017-06-11T02:07:50.448Z</time>
</trkpt>
<trkpt lat="-26.6821101" lon="153.0836820">
<ele>89.317</ele>
<time>2017-06-11T02:07:52.356Z</time>
</trkpt>
<trkpt lat="-26.6819524" lon="153.0841516">
<ele>88.412</ele>
<time>2017-06-11T02:07:55.365Z</time>
</trkpt>
<trkpt lat="-26.6818730" lon="153.0846269">
<ele>87.659</ele>
<time>2017-06-11T02:07:58.191Z</time>
</trkpt>
<trkpt lat="-26.6818618" lon="153.0849747">
<ele>86.961</ele>
<time>2017-06-11T02:08:00.149Z</time>
</trkpt>
<trkpt lat="-26.6818215" lon="153.0853330">
<ele>86.382</ele>
<time>2017-06-11T02:08:02.117Z</time>
</trkpt>
<trkpt lat="-26.6818453" lon="153.0857094">
<ele>85.960</ele>
<time>2017-06-11T02:08:04.154Z</time>
</trkpt>
<trkpt lat="-26.6819175" lon="153.0860582">
<ele>85.513</ele>
<time>2017-06-11T02:08:06.177Z</time>
</trkpt>
<trkpt lat="-26.6821808" lon="153.0864602">
<ele>84.921</ele>
<time>2017-06-11T02:08:09.252Z</time>
</trkpt>
<trkpt lat="-26.6823600" lon="153.0868060">
<ele>84.208</ele>
<time>2017-06-11T02:08:12.169Z</time>
</trkpt>
<trkpt lat="-26.6825287" lon="153.0870740">
<ele>83.405</ele>
<time>2017-06-11T02:08:15.219Z</time>
</trkpt>
<trkpt lat="-26.6825783" lon="153.0871857">
<ele>82.454</ele>
<time>2017-06-11T02:08:16.867Z</time>
</trkpt>
<trkpt lat="-26.6826156" lon="153.0872829">
<ele>81.283</ele>
<time>2017-06-11T02:08:18.827Z</time>
</trkpt>
<trkpt lat="-26.6826949" lon="153.0873768">
<ele>79.950</ele>
<time>2017-06-11T02:08:21.999Z</time>
</trkpt>
<trkpt lat="-26.6826949" lon="153.0873768">
<ele>78.776</ele>
<time>2017-06-11T02:08:27.999Z</time>
</trkpt>
<trkpt lat="-26.6826949" lon="153.0873768">
<ele>78.179</ele>
<time>2017-06-11T02:08:54.728Z</time>
</trkpt>
<trkpt lat="-26.6828151" lon="153.0876088">
<ele>78.204</ele>
<time>2017-06-11T02:09:00.512Z</time>
</trkpt>
<trkpt lat="-26.6828750" lon="153.0879106">
<ele>78.170</ele>
<time>2017-06-11T02:09:03.597Z</time>
</trkpt>
<trkpt lat="-26.6829444" lon="153.0881441">
<ele>77.587</ele>
<time>2017-06-11T02:09:05.648Z</time>
</trkpt>
<trkpt lat="-26.6829593" lon="153.0883877">
<ele>76.959</ele>
<time>2017-06-11T02:09:07.627Z</time>
</trkpt>
<trkpt lat="-26.6829484" lon="153.0886277">
<ele>76.912</ele>
<time>2017-06-11T02:09:09.487Z</time>
</trkpt>
<trkpt lat="-26.6827828" lon="153.0889848">
<ele>77.359</ele>
<time>2017-06-11T02:09:12.478Z</time>
</trkpt>
<trkpt lat="-26.6826429" lon="153.0892222">
<ele>77.896</ele>
<time>2017-06-11T02:09:14.491Z</time>
</trkpt>
<trkpt lat="-26.6823172" lon="153.0894327">
<ele>78.230</ele>
<time>2017-06-11T02:09:17.362Z</time>
</trkpt>
<trkpt lat="-26.6819334" lon="153.0896309">
<ele>78.209</ele>
<time>2017-06-11T02:09:20.424Z</time>
</trkpt>
<trkpt lat="-26.6816751" lon="153.0897418">
<ele>77.750</ele>
<time>2017-06-11T02:09:22.421Z</time>
</trkpt>
<trkpt lat="-26.6814588" lon="153.0899496">
<ele>76.927</ele>
<time>2017-06-11T02:09:24.448Z</time>
</trkpt>
<trkpt lat="-26.6812435" lon="153.0901751">
<ele>75.932</ele>
<time>2017-06-11T02:09:26.447Z</time>
</trkpt>
<trkpt lat="-26.6810487" lon="153.0906660">
<ele>74.898</ele>
<time>2017-06-11T02:09:29.617Z</time>
</trkpt>
<trkpt lat="-26.6808981" lon="153.0909692">
<ele>73.679</ele>
<time>2017-06-11T02:09:31.616Z</time>
</trkpt>
<trkpt lat="-26.6806249" lon="153.0913628">
<ele>72.030</ele>
<time>2017-06-11T02:09:34.452Z</time>
</trkpt>
<trkpt lat="-26.6801886" lon="153.0916977">
<ele>69.933</ele>
<time>2017-06-11T02:09:37.737Z</time>
</trkpt>
<trkpt lat="-26.6798654" lon="153.0917171">
<ele>67.624</ele>
<time>2017-06-11T02:09:39.636Z</time>
</trkpt>
<trkpt lat="-26.6795270" lon="153.0916487">
<ele>65.608</ele>
<time>2017-06-11T02:09:41.628Z</time>
</trkpt>
<trkpt lat="-26.6792086" lon="153.0915943">
<ele>64.380</ele>
<time>2017-06-11T02:09:43.583Z</time>
</trkpt>
<trkpt lat="-26.6787600" lon="153.0916588">
<ele>63.866</ele>
<time>2017-06-11T02:09:46.440Z</time>
</trkpt>
<trkpt lat="-26.6784968" lon="153.0917815">
<ele>63.542</ele>
<time>2017-06-11T02:09:48.334Z</time>
</trkpt>
<trkpt lat="-26.6782685" lon="153.0919764">
<ele>63.028</ele>
<time>2017-06-11T02:09:50.426Z</time>
</trkpt>
<trkpt lat="-26.6780320" lon="153.0923001">
<ele>62.348</ele>
<time>2017-06-11T02:09:53.762Z</time>
</trkpt>
<trkpt lat="-26.6778898" lon="153.0924583">
<ele>61.499</ele>
<time>2017-06-11T02:09:56.908Z</time>
</trkpt>
<trkpt lat="-26.6778264" lon="153.0925325">
<ele>60.178</ele>
<time>2017-06-11T02:09:58.999Z</time>
</trkpt>
<trkpt lat="-26.6778264" lon="153.0925325">
<ele>58.555</ele>
<time>2017-06-11T02:10:00.999Z</time>
</trkpt>
<trkpt lat="-26.6778264" lon="153.0925325">
<ele>57.551</ele>
<time>2017-06-11T02:10:10.268Z</time>
</trkpt>
<trkpt lat="-26.6776830" lon="153.0926883">
<ele>57.587</ele>
<time>2017-06-11T02:10:15.015Z</time>
</trkpt>
<trkpt lat="-26.6774301" lon="153.0929906">
<ele>57.594</ele>
<time>2017-06-11T02:10:18.303Z</time>
</trkpt>
<trkpt lat="-26.6771476" lon="153.0934666">
<ele>56.693</ele>
<time>2017-06-11T02:10:21.753Z</time>
</trkpt>
<trkpt lat="-26.6770567" lon="153.0937721">
<ele>55.601</ele>
<time>2017-06-11T02:10:23.588Z</time>
</trkpt>
<trkpt lat="-26.6769249" lon="153.0941258">
<ele>55.165</ele>
<time>2017-06-11T02:10:25.783Z</time>
</trkpt>
<trkpt lat="-26.6767706" lon="153.0945410">
<ele>55.200</ele>
<time>2017-06-11T02:10:28.412Z</time>
</trkpt>
<trkpt lat="-26.6766561" lon="153.0948092">
<ele>55.270</ele>
<time>2017-06-11T02:10:30.304Z</time>
</trkpt>
<trkpt lat="-26.6765640" lon="153.0950497">
<ele>55.206</ele>
<time>2017-06-11T02:10:32.181Z</time>
</trkpt>
<trkpt lat="-26.6764564" lon="153.0952356">
<ele>55.100</ele>
<time>2017-06-11T02:10:34.010Z</time>
</trkpt>
<trkpt lat="-26.6762592" lon="153.0954359">
<ele>55.082</ele>
<time>2017-06-11T02:10:36.773Z</time>
</trkpt>
<trkpt lat="-26.6761570" lon="153.0955529">
<ele>55.231</ele>
<time>2017-06-11T02:10:38.614Z</time>
</trkpt>
<trkpt lat="-26.6760902" lon="153.0956239">
<ele>55.511</ele>
<time>2017-06-11T02:10:39.999Z</time>
</trkpt>
<trkpt lat="-26.6760902" lon="153.0956239">
<ele>55.751</ele>
<time>2017-06-11T02:10:45.999Z</time>
</trkpt>
<trkpt lat="-26.6760902" lon="153.0956239">
<ele>55.830</ele>
<time>2017-06-11T02:12:07.972Z</time>
</trkpt>
<trkpt lat="-26.6759394" lon="153.0958092">
<ele>55.790</ele>
<time>2017-06-11T02:12:13.639Z</time>
</trkpt>
<trkpt lat="-26.6758151" lon="153.0959571">
<ele>55.720</ele>
<time>2017-06-11T02:12:15.770Z</time>
</trkpt>
<trkpt lat="-26.6756697" lon="153.0961202">
<ele>55.717</ele>
<time>2017-06-11T02:12:17.930Z</time>
</trkpt>
<trkpt lat="-26.6754835" lon="153.0963537">
<ele>55.804</ele>
<time>2017-06-11T02:12:20.978Z</time>
</trkpt>
<trkpt lat="-26.6753817" lon="153.0964881">
<ele>55.878</ele>
<time>2017-06-11T02:12:22.870Z</time>
</trkpt>
<trkpt lat="-26.6752882" lon="153.0966417">
<ele>55.807</ele>
<time>2017-06-11T02:12:24.773Z</time>
</trkpt>
<trkpt lat="-26.6751162" lon="153.0968683">
<ele>55.567</ele>
<time>2017-06-11T02:12:27.576Z</time>
</trkpt>
<trkpt lat="-26.6749103" lon="153.0971563">
<ele>55.266</ele>
<time>2017-06-11T02:12:30.571Z</time>
</trkpt>
<trkpt lat="-26.6747565" lon="153.0973908">
<ele>55.072</ele>
<time>2017-06-11T02:12:32.553Z</time>
</trkpt>
<trkpt lat="-26.6746074" lon="153.0976614">
<ele>55.119</ele>
<time>2017-06-11T02:12:34.564Z</time>
</trkpt>
<trkpt lat="-26.6744246" lon="153.0981080">
<ele>55.517</ele>
<time>2017-06-11T02:12:37.594Z</time>
</trkpt>
<trkpt lat="-26.6743541" lon="153.0984288">
<ele>56.320</ele>
<time>2017-06-11T02:12:39.611Z</time>
</trkpt>
<trkpt lat="-26.6743259" lon="153.0987542">
<ele>57.410</ele>
<time>2017-06-11T02:12:41.614Z</time>
</trkpt>
<trkpt lat="-26.6743469" lon="153.0990803">
<ele>58.579</ele>
<time>2017-06-11T02:12:43.644Z</time>
</trkpt>
<trkpt lat="-26.6744206" lon="153.0995607">
<ele>59.747</ele>
<time>2017-06-11T02:12:46.763Z</time>
</trkpt>
<trkpt lat="-26.6744509" lon="153.0999979">
<ele>60.992</ele>
<time>2017-06-11T02:12:49.704Z</time>
</trkpt>
<trkpt lat="-26.6744073" lon="153.1004293">
<ele>62.161</ele>
<time>2017-06-11T02:12:52.644Z</time>
</trkpt>
<trkpt lat="-26.6743364" lon="153.1008802">
<ele>62.804</ele>
<time>2017-06-11T02:12:55.667Z</time>
</trkpt>
<trkpt lat="-26.6742712" lon="153.1011856">
<ele>62.529</ele>
<time>2017-06-11T02:12:57.720Z</time>
</trkpt>
<trkpt lat="-26.6742684" lon="153.1014797">
<ele>61.332</ele>
<time>2017-06-11T02:12:59.776Z</time>
</trkpt>
<trkpt lat="-26.6742284" lon="153.1018712">
<ele>59.568</ele>
<time>2017-06-11T02:13:02.702Z</time>
</trkpt>
<trkpt lat="-26.6741821" lon="153.1022403">
<ele>57.618</ele>
<time>2017-06-11T02:13:05.597Z</time>
</trkpt>
<trkpt lat="-26.6741458" lon="153.1024953">
<ele>55.912</ele>
<time>2017-06-11T02:13:07.607Z</time>
</trkpt>
<trkpt lat="-26.6740973" lon="153.1027430">
<ele>54.970</ele>
<time>2017-06-11T02:13:09.622Z</time>
</trkpt>
<trkpt lat="-26.6740301" lon="153.1031052">
<ele>54.963</ele>
<time>2017-06-11T02:13:12.560Z</time>
</trkpt>
<trkpt lat="-26.6739730" lon="153.1033668">
<ele>55.746</ele>
<time>2017-06-11T02:13:14.602Z</time>
</trkpt>
<trkpt lat="-26.6739088" lon="153.1036303">
<ele>57.102</ele>
<time>2017-06-11T02:13:16.620Z</time>
</trkpt>
<trkpt lat="-26.6738613" lon="153.1040327">
<ele>58.672</ele>
<time>2017-06-11T02:13:19.564Z</time>
</trkpt>
<trkpt lat="-26.6739345" lon="153.1043074">
<ele>60.108</ele>
<time>2017-06-11T02:13:21.550Z</time>
</trkpt>
<trkpt lat="-26.6740448" lon="153.1045751">
<ele>61.151</ele>
<time>2017-06-11T02:13:23.536Z</time>
</trkpt>
<trkpt lat="-26.6741973" lon="153.1049899">
<ele>61.575</ele>
<time>2017-06-11T02:13:26.532Z</time>
</trkpt>
<trkpt lat="-26.6743026" lon="153.1052578">
<ele>61.266</ele>
<time>2017-06-11T02:13:28.554Z</time>
</trkpt>
<trkpt lat="-26.6744677" lon="153.1056169">
<ele>60.396</ele>
<time>2017-06-11T02:13:31.527Z</time>
</trkpt>
<trkpt lat="-26.6746829" lon="153.1058740">
<ele>59.275</ele>
<time>2017-06-11T02:13:34.323Z</time>
</trkpt>
<trkpt lat="-26.6749567" lon="153.1060937">
<ele>58.070</ele>
<time>2017-06-11T02:13:37.342Z</time>
</trkpt>
<trkpt lat="-26.6752342" lon="153.1063232">
<ele>56.939</ele>
<time>2017-06-11T02:13:40.353Z</time>
</trkpt>
<trkpt lat="-26.6754908" lon="153.1065758">
<ele>56.167</ele>
<time>2017-06-11T02:13:43.336Z</time>
</trkpt>
<trkpt lat="-26.6756183" lon="153.1067862">
<ele>55.907</ele>
<time>2017-06-11T02:13:45.363Z</time>
</trkpt>
<trkpt lat="-26.6757076" lon="153.1070091">
<ele>56.116</ele>
<time>2017-06-11T02:13:47.383Z</time>
</trkpt>
<trkpt lat="-26.6757521" lon="153.1073541">
<ele>56.632</ele>
<time>2017-06-11T02:13:50.280Z</time>
</trkpt>
<trkpt lat="-26.6757619" lon="153.1076097">
<ele>57.301</ele>
<time>2017-06-11T02:13:52.284Z</time>
</trkpt>
<trkpt lat="-26.6757643" lon="153.1080169">
<ele>58.029</ele>
<time>2017-06-11T02:13:55.297Z</time>
</trkpt>
<trkpt lat="-26.6757506" lon="153.1084486">
<ele>58.731</ele>
<time>2017-06-11T02:13:58.341Z</time>
</trkpt>
<trkpt lat="-26.6757437" lon="153.1087239">
<ele>59.395</ele>
<time>2017-06-11T02:14:00.304Z</time>
</trkpt>
<trkpt lat="-26.6757471" lon="153.1089917">
<ele>60.145</ele>
<time>2017-06-11T02:14:02.261Z</time>
</trkpt>
<trkpt lat="-26.6757519" lon="153.1092625">
<ele>61.081</ele>
<time>2017-06-11T02:14:04.228Z</time>
</trkpt>
<trkpt lat="-26.6757428" lon="153.1096878">
<ele>62.129</ele>
<time>2017-06-11T02:14:07.236Z</time>
</trkpt>
<trkpt lat="-26.6757457" lon="153.1099911">
<ele>63.018</ele>
<time>2017-06-11T02:14:09.238Z</time>
</trkpt>
<trkpt lat="-26.6757857" lon="153.1104762">
<ele>63.401</ele>
<time>2017-06-11T02:14:12.313Z</time>
</trkpt>
<trkpt lat="-26.6758412" lon="153.1109695">
<ele>62.992</ele>
<time>2017-06-11T02:14:15.373Z</time>
</trkpt>
<trkpt lat="-26.6759000" lon="153.1112788">
<ele>61.843</ele>
<time>2017-06-11T02:14:17.378Z</time>
</trkpt>
<trkpt lat="-26.6759545" lon="153.1115637">
<ele>60.544</ele>
<time>2017-06-11T02:14:19.314Z</time>
</trkpt>
<trkpt lat="-26.6760381" lon="153.1119848">
<ele>59.753</ele>
<time>2017-06-11T02:14:22.354Z</time>
</trkpt>
<trkpt lat="-26.6760956" lon="153.1123472">
<ele>59.703</ele>
<time>2017-06-11T02:14:25.252Z</time>
</trkpt>
<trkpt lat="-26.6761244" lon="153.1126811">
<ele>60.233</ele>
<time>2017-06-11T02:14:28.188Z</time>
</trkpt>
<trkpt lat="-26.6761148" lon="153.1128901">
<ele>60.899</ele>
<time>2017-06-11T02:14:30.388Z</time>
</trkpt>
<trkpt lat="-26.6761120" lon="153.1131153">
<ele>61.286</ele>
<time>2017-06-11T02:14:33.748Z</time>
</trkpt>
<trkpt lat="-26.6761076" lon="153.1132333">
<ele>61.234</ele>
<time>2017-06-11T02:14:36.276Z</time>
</trkpt>
<trkpt lat="-26.6760995" lon="153.1133570">
<ele>60.671</ele>
<time>2017-06-11T02:14:40.462Z</time>
</trkpt>
<trkpt lat="-26.6761184" lon="153.1134582">
<ele>59.676</ele>
<time>2017-06-11T02:14:44.999Z</time>
</trkpt>
<trkpt lat="-26.6761184" lon="153.1134582">
<ele>58.651</ele>
<time>2017-06-11T02:14:46.999Z</time>
</trkpt>
<trkpt lat="-26.6761184" lon="153.1134582">
<ele>58.102</ele>
<time>2017-06-11T02:15:11.572Z</time>
</trkpt>
<trkpt lat="-26.6760713" lon="153.1136707">
<ele>58.125</ele>
<time>2017-06-11T02:15:37.410Z</time>
</trkpt>
<trkpt lat="-26.6760597" lon="153.1138426">
<ele>57.885</ele>
<time>2017-06-11T02:15:40.208Z</time>
</trkpt>
<trkpt lat="-26.6760417" lon="153.1139808">
<ele>56.747</ele>
<time>2017-06-11T02:15:41.746Z</time>
</trkpt>
<trkpt lat="-26.6759854" lon="153.1142494">
<ele>55.353</ele>
<time>2017-06-11T02:15:44.624Z</time>
</trkpt>
<trkpt lat="-26.6759414" lon="153.1144669">
<ele>54.388</ele>
<time>2017-06-11T02:15:47.160Z</time>
</trkpt>
<trkpt lat="-26.6759296" lon="153.1146025">
<ele>53.509</ele>
<time>2017-06-11T02:15:48.999Z</time>
</trkpt>
<trkpt lat="-26.6759296" lon="153.1146025">
<ele>52.492</ele>
<time>2017-06-11T02:15:53.999Z</time>
</trkpt>
<trkpt lat="-26.6759296" lon="153.1146025">
<ele>51.828</ele>
<time>2017-06-11T02:17:08.529Z</time>
</trkpt>
<trkpt lat="-26.6759597" lon="153.1148635">
<ele>51.841</ele>
<time>2017-06-11T02:17:13.290Z</time>
</trkpt>
<trkpt lat="-26.6762148" lon="153.1150675">
<ele>51.475</ele>
<time>2017-06-11T02:17:16.311Z</time>
</trkpt>
<trkpt lat="-26.6765505" lon="153.1153167">
<ele>49.927</ele>
<time>2017-06-11T02:17:19.383Z</time>
</trkpt>
<trkpt lat="-26.6767624" lon="153.1155297">
<ele>48.158</ele>
<time>2017-06-11T02:17:21.382Z</time>
</trkpt>
<trkpt lat="-26.6769755" lon="153.1157399">
<ele>47.170</ele>
<time>2017-06-11T02:17:23.368Z</time>
</trkpt>
<trkpt lat="-26.6771247" lon="153.1160073">
<ele>46.699</ele>
<time>2017-06-11T02:17:25.387Z</time>
</trkpt>
<trkpt lat="-26.6772610" lon="153.1162490">
<ele>46.220</ele>
<time>2017-06-11T02:17:27.316Z</time>
</trkpt>
<trkpt lat="-26.6773932" lon="153.1164770">
<ele>45.409</ele>
<time>2017-06-11T02:17:29.271Z</time>
</trkpt>
<trkpt lat="-26.6775630" lon="153.1168065">
<ele>44.252</ele>
<time>2017-06-11T02:17:32.207Z</time>
</trkpt>
<trkpt lat="-26.6776681" lon="153.1169919">
<ele>42.869</ele>
<time>2017-06-11T02:17:34.209Z</time>
</trkpt>
<trkpt lat="-26.6777768" lon="153.1171127">
<ele>41.426</ele>
<time>2017-06-11T02:17:36.056Z</time>
</trkpt>
<trkpt lat="-26.6779248" lon="153.1171135">
<ele>40.134</ele>
<time>2017-06-11T02:17:37.986Z</time>
</trkpt>
<trkpt lat="-26.6781562" lon="153.1169933">
<ele>39.104</ele>
<time>2017-06-11T02:17:41.364Z</time>
</trkpt>
<trkpt lat="-26.6783286" lon="153.1168582">
<ele>38.285</ele>
<time>2017-06-11T02:17:44.502Z</time>
</trkpt>
<trkpt lat="-26.6784145" lon="153.1167991">
<ele>37.519</ele>
<time>2017-06-11T02:17:46.191Z</time>
</trkpt>
<trkpt lat="-26.6785342" lon="153.1167338">
<ele>36.725</ele>
<time>2017-06-11T02:17:48.279Z</time>
</trkpt>
<trkpt lat="-26.6786510" lon="153.1166573">
<ele>36.054</ele>
<time>2017-06-11T02:17:50.187Z</time>
</trkpt>
<trkpt lat="-26.6788473" lon="153.1165341">
<ele>35.665</ele>
<time>2017-06-11T02:17:53.028Z</time>
</trkpt>
<trkpt lat="-26.6790260" lon="153.1164386">
<ele>35.503</ele>
<time>2017-06-11T02:17:55.100Z</time>
</trkpt>
<trkpt lat="-26.6793151" lon="153.1163004">
<ele>35.424</ele>
<time>2017-06-11T02:17:58.212Z</time>
</trkpt>
<trkpt lat="-26.6796051" lon="153.1162882">
<ele>35.342</ele>
<time>2017-06-11T02:18:01.118Z</time>
</trkpt>
<trkpt lat="-26.6798066" lon="153.1163256">
<ele>35.228</ele>
<time>2017-06-11T02:18:03.204Z</time>
</trkpt>
<trkpt lat="-26.6799697" lon="153.1164188">
<ele>35.060</ele>
<time>2017-06-11T02:18:05.230Z</time>
</trkpt>
<trkpt lat="-26.6801637" lon="153.1165547">
<ele>34.814</ele>
<time>2017-06-11T02:18:08.050Z</time>
</trkpt>
<trkpt lat="-26.6802748" lon="153.1166262">
<ele>34.439</ele>
<time>2017-06-11T02:18:09.923Z</time>
</trkpt>
<trkpt lat="-26.6803735" lon="153.1166863">
<ele>33.936</ele>
<time>2017-06-11T02:18:11.701Z</time>
</trkpt>
<trkpt lat="-26.6805478" lon="153.1167904">
<ele>33.436</ele>
<time>2017-06-11T02:18:14.792Z</time>
</trkpt>
<trkpt lat="-26.6807216" lon="153.1169232">
<ele>33.031</ele>
<time>2017-06-11T02:18:17.864Z</time>
</trkpt>
<trkpt lat="-26.6808237" lon="153.1170162">
<ele>32.684</ele>
<time>2017-06-11T02:18:19.787Z</time>
</trkpt>
<trkpt lat="-26.6809344" lon="153.1172096">
<ele>32.343</ele>
<time>2017-06-11T02:18:22.878Z</time>
</trkpt>
<trkpt lat="-26.6810157" lon="153.1173779">
<ele>32.002</ele>
<time>2017-06-11T02:18:25.674Z</time>
</trkpt>
<trkpt lat="-26.6810753" lon="153.1175511">
<ele>31.674</ele>
<time>2017-06-11T02:18:28.737Z</time>
</trkpt>
<trkpt lat="-26.6811217" lon="153.1176753">
<ele>31.394</ele>
<time>2017-06-11T02:18:31.321Z</time>
</trkpt>
<trkpt lat="-26.6812089" lon="153.1177553">
<ele>31.211</ele>
<time>2017-06-11T02:18:34.295Z</time>
</trkpt>
<trkpt lat="-26.6812721" lon="153.1178732">
<ele>31.138</ele>
<time>2017-06-11T02:18:37.464Z</time>
</trkpt>
<trkpt lat="-26.6813269" lon="153.1180091">
<ele>31.140</ele>
<time>2017-06-11T02:18:40.551Z</time>
</trkpt>
<trkpt lat="-26.6813572" lon="153.1181152">
<ele>31.175</ele>
<time>2017-06-11T02:18:42.675Z</time>
</trkpt>
<trkpt lat="-26.6814229" lon="153.1182735">
<ele>31.219</ele>
<time>2017-06-11T02:18:46.062Z</time>
</trkpt>
<trkpt lat="-26.6814584" lon="153.1183780">
<ele>31.263</ele>
<time>2017-06-11T02:18:48.498Z</time>
</trkpt>
<trkpt lat="-26.6815144" lon="153.1184812">
<ele>31.274</ele>
<time>2017-06-11T02:18:51.555Z</time>
</trkpt>
<trkpt lat="-26.6815879" lon="153.1185510">
<ele>31.217</ele>
<time>2017-06-11T02:18:54.999Z</time>
</trkpt>
<trkpt lat="-26.6815879" lon="153.1185510">
<ele>31.119</ele>
<time>2017-06-11T02:18:59.999Z</time>
</trkpt>
<trkpt lat="-26.6815879" lon="153.1185510">
<ele>31.051</ele>
<time>2017-06-11T02:19:12.216Z</time>
</trkpt>
<trkpt lat="-26.6817018" lon="153.1187542">
<ele>31.042</ele>
<time>2017-06-11T02:19:19.819Z</time>
</trkpt>
<trkpt lat="-26.6817700" lon="153.1189055">
<ele>31.061</ele>
<time>2017-06-11T02:19:21.676Z</time>
</trkpt>
<trkpt lat="-26.6818921" lon="153.1191964">
<ele>31.082</ele>
<time>2017-06-11T02:19:24.804Z</time>
</trkpt>
<trkpt lat="-26.6820179" lon="153.1194784">
<ele>31.154</ele>
<time>2017-06-11T02:19:27.799Z</time>
</trkpt>
<trkpt lat="-26.6821919" lon="153.1196838">
<ele>31.309</ele>
<time>2017-06-11T02:19:30.701Z</time>
</trkpt>
<trkpt lat="-26.6823165" lon="153.1197762">
<ele>31.435</ele>
<time>2017-06-11T02:19:32.678Z</time>
</trkpt>
<trkpt lat="-26.6824310" lon="153.1198430">
<ele>31.414</ele>
<time>2017-06-11T02:19:34.635Z</time>
</trkpt>
<trkpt lat="-26.6825230" lon="153.1199214">
<ele>31.259</ele>
<time>2017-06-11T02:19:36.714Z</time>
</trkpt>
<trkpt lat="-26.6825990" lon="153.1200398">
<ele>31.031</ele>
<time>2017-06-11T02:19:39.280Z</time>
</trkpt>
<trkpt lat="-26.6826454" lon="153.1201336">
<ele>30.775</ele>
<time>2017-06-11T02:19:41.299Z</time>
</trkpt>
<trkpt lat="-26.6827077" lon="153.1202517">
<ele>30.529</ele>
<time>2017-06-11T02:19:44.088Z</time>
</trkpt>
<trkpt lat="-26.6827029" lon="153.1203597">
<ele>30.330</ele>
<time>2017-06-11T02:19:46.639Z</time>
</trkpt>
<trkpt lat="-26.6826135" lon="153.1204423">
<ele>30.181</ele>
<time>2017-06-11T02:19:49.907Z</time>
</trkpt>
<trkpt lat="-26.6825332" lon="153.1205026">
<ele>30.062</ele>
<time>2017-06-11T02:19:52.665Z</time>
</trkpt>
<trkpt lat="-26.6824439" lon="153.1205619">
<ele>29.973</ele>
<time>2017-06-11T02:19:55.999Z</time>
</trkpt>
<trkpt lat="-26.6824439" lon="153.1205619">
<ele>29.922</ele>
<time>2017-06-11T02:19:59.999Z</time>
</trkpt>
<trkpt lat="-26.6824439" lon="153.1205619">
<ele>29.901</ele>
<time>2017-06-11T02:20:30.589Z</time>
</trkpt>
<trkpt lat="-26.6822798" lon="153.1206614">
<ele>29.899</ele>
<time>2017-06-11T02:20:39.597Z</time>
</trkpt>
<trkpt lat="-26.6822012" lon="153.1207113">
<ele>29.935</ele>
<time>2017-06-11T02:20:41.864Z</time>
</trkpt>
<trkpt lat="-26.6820896" lon="153.1207804">
<ele>30.018</ele>
<time>2017-06-11T02:20:45.223Z</time>
</trkpt>
<trkpt lat="-26.6820105" lon="153.1208714">
<ele>30.119</ele>
<time>2017-06-11T02:20:48.689Z</time>
</trkpt>
<trkpt lat="-26.6820365" lon="153.1209959">
<ele>30.203</ele>
<time>2017-06-11T02:20:52.533Z</time>
</trkpt>
<trkpt lat="-26.6821073" lon="153.1210918">
<ele>30.257</ele>
<time>2017-06-11T02:20:55.543Z</time>
</trkpt>
<trkpt lat="-26.6821775" lon="153.1212232">
<ele>30.283</ele>
<time>2017-06-11T02:20:58.544Z</time>
</trkpt>
<trkpt lat="-26.6822445" lon="153.1213444">
<ele>30.318</ele>
<time>2017-06-11T02:21:00.670Z</time>
</trkpt>
<trkpt lat="-26.6823460" lon="153.1215410">
<ele>30.413</ele>
<time>2017-06-11T02:21:03.959Z</time>
</trkpt>
<trkpt lat="-26.6824034" lon="153.1216518">
<ele>30.600</ele>
<time>2017-06-11T02:21:06.326Z</time>
</trkpt>
<trkpt lat="-26.6824605" lon="153.1217612">
<ele>30.850</ele>
<time>2017-06-11T02:21:09.011Z</time>
</trkpt>
<trkpt lat="-26.6825212" lon="153.1218679">
<ele>31.071</ele>
<time>2017-06-11T02:21:11.734Z</time>
</trkpt>
<trkpt lat="-26.6825840" lon="153.1219966">
<ele>31.230</ele>
<time>2017-06-11T02:21:14.613Z</time>
</trkpt>
<trkpt lat="-26.6826640" lon="153.1221513">
<ele>31.402</ele>
<time>2017-06-11T02:21:17.767Z</time>
</trkpt>
<trkpt lat="-26.6827151" lon="153.1222564">
<ele>31.640</ele>
<time>2017-06-11T02:21:19.673Z</time>
</trkpt>
<trkpt lat="-26.6827897" lon="153.1224504">
<ele>31.909</ele>
<time>2017-06-11T02:21:22.904Z</time>
</trkpt>
<trkpt lat="-26.6828823" lon="153.1226315">
<ele>32.147</ele>
<time>2017-06-11T02:21:26.056Z</time>
</trkpt>
<trkpt lat="-26.6829449" lon="153.1227419">
<ele>32.310</ele>
<time>2017-06-11T02:21:28.073Z</time>
</trkpt>
<trkpt lat="-26.6830434" lon="153.1229025">
<ele>32.382</ele>
<time>2017-06-11T02:21:30.889Z</time>
</trkpt>
<trkpt lat="-26.6831542" lon="153.1230881">
<ele>32.382</ele>
<time>2017-06-11T02:21:33.726Z</time>
</trkpt>
<trkpt lat="-26.6832349" lon="153.1232509">
<ele>32.359</ele>
<time>2017-06-11T02:21:35.711Z</time>
</trkpt>
<trkpt lat="-26.6833556" lon="153.1235231">
<ele>32.354</ele>
<time>2017-06-11T02:21:38.712Z</time>
</trkpt>
<trkpt lat="-26.6834591" lon="153.1237114">
<ele>32.387</ele>
<time>2017-06-11T02:21:40.705Z</time>
</trkpt>
<trkpt lat="-26.6835524" lon="153.1239139">
<ele>32.462</ele>
<time>2017-06-11T02:21:42.678Z</time>
</trkpt>
<trkpt lat="-26.6836495" lon="153.1241235">
<ele>32.572</ele>
<time>2017-06-11T02:21:44.676Z</time>
</trkpt>
<trkpt lat="-26.6838013" lon="153.1244350">
<ele>32.680</ele>
<time>2017-06-11T02:21:47.690Z</time>
</trkpt>
<trkpt lat="-26.6839487" lon="153.1247401">
<ele>32.749</ele>
<time>2017-06-11T02:21:50.649Z</time>
</trkpt>
<trkpt lat="-26.6840428" lon="153.1249493">
<ele>32.792</ele>
<time>2017-06-11T02:21:52.589Z</time>
</trkpt>
<trkpt lat="-26.6841386" lon="153.1251708">
<ele>32.876</ele>
<time>2017-06-11T02:21:54.611Z</time>
</trkpt>
<trkpt lat="-26.6842199" lon="153.1253890">
<ele>33.010</ele>
<time>2017-06-11T02:21:56.629Z</time>
</trkpt>
<trkpt lat="-26.6843096" lon="153.1257072">
<ele>33.093</ele>
<time>2017-06-11T02:21:59.640Z</time>
</trkpt>
<trkpt lat="-26.6843657" lon="153.1259955">
<ele>33.038</ele>
<time>2017-06-11T02:22:02.558Z</time>
</trkpt>
<trkpt lat="-26.6843879" lon="153.1261713">
<ele>32.895</ele>
<time>2017-06-11T02:22:04.512Z</time>
</trkpt>
<trkpt lat="-26.6843875" lon="153.1264210">
<ele>32.781</ele>
<time>2017-06-11T02:22:07.558Z</time>
</trkpt>
<trkpt lat="-26.6843856" lon="153.1265498">
<ele>32.794</ele>
<time>2017-06-11T02:22:09.464Z</time>
</trkpt>
<trkpt lat="-26.6845681" lon="153.1266354">
<ele>32.950</ele>
<time>2017-06-11T02:22:12.548Z</time>
</trkpt>
<trkpt lat="-26.6846808" lon="153.1268699">
<ele>33.163</ele>
<time>2017-06-11T02:22:15.570Z</time>
</trkpt>
<trkpt lat="-26.6847237" lon="153.1270767">
<ele>33.376</ele>
<time>2017-06-11T02:22:17.631Z</time>
</trkpt>
<trkpt lat="-26.6847593" lon="153.1273930">
<ele>33.595</ele>
<time>2017-06-11T02:22:20.669Z</time>
</trkpt>
<trkpt lat="-26.6847809" lon="153.1277049">
<ele>33.801</ele>
<time>2017-06-11T02:22:23.772Z</time>
</trkpt>
<trkpt lat="-26.6848017" lon="153.1279716">
<ele>33.998</ele>
<time>2017-06-11T02:22:26.698Z</time>
</trkpt>
<trkpt lat="-26.6848223" lon="153.1282154">
<ele>34.201</ele>
<time>2017-06-11T02:22:29.519Z</time>
</trkpt>
<trkpt lat="-26.6848289" lon="153.1283926">
<ele>34.376</ele>
<time>2017-06-11T02:22:31.548Z</time>
</trkpt>
<trkpt lat="-26.6848330" lon="153.1285624">
<ele>34.500</ele>
<time>2017-06-11T02:22:33.498Z</time>
</trkpt>
<trkpt lat="-26.6848296" lon="153.1288182">
<ele>34.582</ele>
<time>2017-06-11T02:22:36.480Z</time>
</trkpt>
<trkpt lat="-26.6848191" lon="153.1289784">
<ele>34.618</ele>
<time>2017-06-11T02:22:38.467Z</time>
</trkpt>
<trkpt lat="-26.6848024" lon="153.1291209">
<ele>34.592</ele>
<time>2017-06-11T02:22:40.554Z</time>
</trkpt>
<trkpt lat="-26.6848075" lon="153.1292849">
<ele>34.507</ele>
<time>2017-06-11T02:22:43.451Z</time>
</trkpt>
<trkpt lat="-26.6847917" lon="153.1294105">
<ele>34.353</ele>
<time>2017-06-11T02:22:46.404Z</time>
</trkpt>
<trkpt lat="-26.6848487" lon="153.1294986">
<ele>34.117</ele>
<time>2017-06-11T02:22:49.743Z</time>
</trkpt>
<trkpt lat="-26.6849378" lon="153.1295580">
<ele>33.839</ele>
<time>2017-06-11T02:22:53.796Z</time>
</trkpt>
<trkpt lat="-26.6850205" lon="153.1296285">
<ele>33.604</ele>
<time>2017-06-11T02:22:57.515Z</time>
</trkpt>
<trkpt lat="-26.6851186" lon="153.1296731">
<ele>33.460</ele>
<time>2017-06-11T02:23:00.628Z</time>
</trkpt>
<trkpt lat="-26.6851959" lon="153.1297468">
<ele>33.365</ele>
<time>2017-06-11T02:23:03.517Z</time>
</trkpt>
<trkpt lat="-26.6852103" lon="153.1298621">
<ele>33.220</ele>
<time>2017-06-11T02:23:06.448Z</time>
</trkpt>
<trkpt lat="-26.6851743" lon="153.1299883">
<ele>32.969</ele>
<time>2017-06-11T02:23:09.697Z</time>
</trkpt>
<trkpt lat="-26.6851718" lon="153.1301027">
<ele>32.672</ele>
<time>2017-06-11T02:23:12.666Z</time>
</trkpt>
<trkpt lat="-26.6851520" lon="153.1302081">
<ele>32.445</ele>
<time>2017-06-11T02:23:15.909Z</time>
</trkpt>
<trkpt lat="-26.6850783" lon="153.1301438">
<ele>32.342</ele>
<time>2017-06-11T02:23:19.471Z</time>
</trkpt>
<trkpt lat="-26.6851091" lon="153.1300420">
<ele>32.346</ele>
<time>2017-06-11T02:23:24.000Z</time>
</trkpt>
<trkpt lat="-26.6851091" lon="153.1300420">
<ele>32.415</ele>
<time>2017-06-11T02:23:36.000Z</time>
</trkpt>
<trkpt lat="-26.6851091" lon="153.1300420">
<ele>32.466</ele>
<time>2017-06-11T02:33:54.000Z</time>
</trkpt>
<trkpt lat="-26.6852110" lon="153.1299512">
<ele>1.436</ele>
<time>2017-06-11T02:34:16.924Z</time>
</trkpt>
<trkpt lat="-26.6852110" lon="153.1299512">
<ele>1.436</ele>
<time>2017-06-11T02:34:16.924Z</time>
</trkpt>
<trkpt lat="-26.6852310" lon="153.1299493">
<ele>1.296</ele>
<time>2017-06-11T02:34:19.000Z</time>
</trkpt>
<trkpt lat="-26.6852310" lon="153.1299493">
<ele>1.295</ele>
<time>2017-06-11T02:34:23.000Z</time>
</trkpt>
<trkpt lat="-26.6852310" lon="153.1299493">
<ele>1.295</ele>
<time>2017-06-11T02:34:50.004Z</time>
</trkpt>
<trkpt lat="-26.6852438" lon="153.1299192">
<ele>1.084</ele>
<time>2017-06-11T02:48:46.359Z</time>
</trkpt>
<trkpt lat="-26.6852438" lon="153.1299192">
<ele>1.084</ele>
<time>2017-06-11T02:48:46.359Z</time>
</trkpt>
<trkpt lat="-26.6852840" lon="153.1299718">
<ele>1.645</ele>
<time>2017-06-11T03:19:12.049Z</time>
</trkpt>
<trkpt lat="-26.6852840" lon="153.1299718">
<ele>1.645</ele>
<time>2017-06-11T03:19:12.049Z</time>
</trkpt>
<trkpt lat="-26.6853684" lon="153.1299579">
<ele>10.001</ele>
<time>2017-06-11T04:01:14.000Z</time>
</trkpt>
<trkpt lat="-26.6858183" lon="153.1299515">
<ele>9.996</ele>
<time>2017-06-11T04:14:18.000Z</time>
</trkpt>
<trkpt lat="-26.6858183" lon="153.1299515">
<ele>9.950</ele>
<time>2017-06-11T04:14:18.001Z</time>
</trkpt>
<trkpt lat="-26.6858183" lon="153.1299515">
<ele>9.835</ele>
<time>2017-06-11T04:14:32.677Z</time>
</trkpt>
<trkpt lat="-26.6858183" lon="153.1299515">
<ele>9.792</ele>
<time>2017-06-11T04:14:45.000Z</time>
</trkpt>
<trkpt lat="-26.6858183" lon="153.1299515">
<ele>9.860</ele>
<time>2017-06-11T04:14:48.418Z</time>
</trkpt>
<trkpt lat="-26.6856615" lon="153.1300313">
<ele>9.853</ele>
<time>2017-06-11T04:15:07.000Z</time>
</trkpt>
<trkpt lat="-26.6856615" lon="153.1300313">
<ele>9.803</ele>
<time>2017-06-11T04:15:19.000Z</time>
</trkpt>
<trkpt lat="-26.6856615" lon="153.1300313">
<ele>9.773</ele>
<time>2017-06-11T04:31:54.999Z</time>
</trkpt>
<trkpt lat="-26.6854232" lon="153.1300100">
<ele>9.082</ele>
<time>2017-06-11T04:32:09.999Z</time>
</trkpt>
<trkpt lat="-26.6854232" lon="153.1300100">
<ele>9.078</ele>
<time>2017-06-11T04:32:12.999Z</time>
</trkpt>
<trkpt lat="-26.6854232" lon="153.1300100">
<ele>9.075</ele>
<time>2017-06-11T04:48:32.687Z</time>
</trkpt>
<trkpt lat="-26.6855104" lon="153.1298883">
<ele>9.073</ele>
<time>2017-06-11T04:48:45.999Z</time>
</trkpt>
<trkpt lat="-26.6855104" lon="153.1298883">
<ele>9.069</ele>
<time>2017-06-11T04:48:53.999Z</time>
</trkpt>
<trkpt lat="-26.6855104" lon="153.1298883">
<ele>9.064</ele>
<time>2017-06-11T04:49:07.908Z</time>
</trkpt>
<trkpt lat="-26.6853253" lon="153.1297861">
<ele>9.061</ele>
<time>2017-06-11T04:49:30.612Z</time>
</trkpt>
<trkpt lat="-26.6852450" lon="153.1297389">
<ele>8.943</ele>
<time>2017-06-11T04:49:37.999Z</time>
</trkpt>
<trkpt lat="-26.6852450" lon="153.1297389">
<ele>8.641</ele>
<time>2017-06-11T04:49:46.999Z</time>
</trkpt>
<trkpt lat="-26.6852450" lon="153.1297389">
<ele>8.389</ele>
<time>2017-06-11T04:49:47.099Z</time>
</trkpt>
<trkpt lat="-26.6850844" lon="153.1299333">
<ele>8.432</ele>
<time>2017-06-11T04:50:32.999Z</time>
</trkpt>
<trkpt lat="-26.6850844" lon="153.1299333">
<ele>8.627</ele>
<time>2017-06-11T04:50:35.999Z</time>
</trkpt>
<trkpt lat="-26.6850844" lon="153.1299333">
<ele>8.725</ele>
<time>2017-06-11T05:04:26.848Z</time>
</trkpt>
<trkpt lat="-26.6849352" lon="153.1299195">
<ele>8.697</ele>
<time>2017-06-11T05:04:36.998Z</time>
</trkpt>
<trkpt lat="-26.6848314" lon="153.1298489">
<ele>9.786</ele>
<time>2017-06-11T05:04:41.799Z</time>
</trkpt>
<trkpt lat="-26.6848151" lon="153.1295908">
<ele>12.767</ele>
<time>2017-06-11T05:04:49.945Z</time>
</trkpt>
<trkpt lat="-26.6848136" lon="153.1292583">
<ele>15.972</ele>
<time>2017-06-11T05:04:54.272Z</time>
</trkpt>
<trkpt lat="-26.6848222" lon="153.1290207">
<ele>17.740</ele>
<time>2017-06-11T05:04:56.550Z</time>
</trkpt>
<trkpt lat="-26.6848138" lon="153.1286565">
<ele>18.362</ele>
<time>2017-06-11T05:04:59.742Z</time>
</trkpt>
<trkpt lat="-26.6848096" lon="153.1284039">
<ele>18.501</ele>
<time>2017-06-11T05:05:01.881Z</time>
</trkpt>
<trkpt lat="-26.6847977" lon="153.1280144">
<ele>18.592</ele>
<time>2017-06-11T05:05:05.044Z</time>
</trkpt>
<trkpt lat="-26.6847734" lon="153.1277466">
<ele>18.785</ele>
<time>2017-06-11T05:05:07.149Z</time>
</trkpt>
<trkpt lat="-26.6847450" lon="153.1273394">
<ele>19.043</ele>
<time>2017-06-11T05:05:10.282Z</time>
</trkpt>
<trkpt lat="-26.6846878" lon="153.1269710">
<ele>19.261</ele>
<time>2017-06-11T05:05:13.260Z</time>
</trkpt>
<trkpt lat="-26.6846196" lon="153.1266706">
<ele>19.328</ele>
<time>2017-06-11T05:05:16.025Z</time>
</trkpt>
<trkpt lat="-26.6845679" lon="153.1265066">
<ele>19.149</ele>
<time>2017-06-11T05:05:17.841Z</time>
</trkpt>
<trkpt lat="-26.6845033" lon="153.1262491">
<ele>18.739</ele>
<time>2017-06-11T05:05:20.902Z</time>
</trkpt>
<trkpt lat="-26.6844029" lon="153.1259646">
<ele>18.264</ele>
<time>2017-06-11T05:05:24.112Z</time>
</trkpt>
<trkpt lat="-26.6843333" lon="153.1257117">
<ele>17.901</ele>
<time>2017-06-11T05:05:26.391Z</time>
</trkpt>
<trkpt lat="-26.6841884" lon="153.1253421">
<ele>17.702</ele>
<time>2017-06-11T05:05:29.550Z</time>
</trkpt>
<trkpt lat="-26.6841110" lon="153.1250897">
<ele>17.626</ele>
<time>2017-06-11T05:05:31.582Z</time>
</trkpt>
<trkpt lat="-26.6840124" lon="153.1248435">
<ele>17.609</ele>
<time>2017-06-11T05:05:33.612Z</time>
</trkpt>
<trkpt lat="-26.6838240" lon="153.1244693">
<ele>17.642</ele>
<time>2017-06-11T05:05:36.750Z</time>
</trkpt>
<trkpt lat="-26.6837086" lon="153.1242192">
<ele>17.740</ele>
<time>2017-06-11T05:05:38.779Z</time>
</trkpt>
<trkpt lat="-26.6835880" lon="153.1239785">
<ele>17.868</ele>
<time>2017-06-11T05:05:40.803Z</time>
</trkpt>
<trkpt lat="-26.6834161" lon="153.1236221">
<ele>17.967</ele>
<time>2017-06-11T05:05:43.829Z</time>
</trkpt>
<trkpt lat="-26.6832994" lon="153.1233908">
<ele>18.030</ele>
<time>2017-06-11T05:05:45.857Z</time>
</trkpt>
<trkpt lat="-26.6831991" lon="153.1231579">
<ele>18.077</ele>
<time>2017-06-11T05:05:47.855Z</time>
</trkpt>
<trkpt lat="-26.6830873" lon="153.1229303">
<ele>18.106</ele>
<time>2017-06-11T05:05:49.878Z</time>
</trkpt>
<trkpt lat="-26.6829333" lon="153.1225865">
<ele>18.098</ele>
<time>2017-06-11T05:05:52.917Z</time>
</trkpt>
<trkpt lat="-26.6827733" lon="153.1222647">
<ele>18.056</ele>
<time>2017-06-11T05:05:55.956Z</time>
</trkpt>
<trkpt lat="-26.6826212" lon="153.1219819">
<ele>18.013</ele>
<time>2017-06-11T05:05:58.917Z</time>
</trkpt>
<trkpt lat="-26.6825197" lon="153.1218153">
<ele>17.991</ele>
<time>2017-06-11T05:06:00.953Z</time>
</trkpt>
<trkpt lat="-26.6824034" lon="153.1215886">
<ele>17.945</ele>
<time>2017-06-11T05:06:03.919Z</time>
</trkpt>
<trkpt lat="-26.6823144" lon="153.1214014">
<ele>17.748</ele>
<time>2017-06-11T05:06:06.903Z</time>
</trkpt>
<trkpt lat="-26.6822947" lon="153.1212875">
<ele>17.289</ele>
<time>2017-06-11T05:06:09.002Z</time>
</trkpt>
<trkpt lat="-26.6822947" lon="153.1212875">
<ele>16.708</ele>
<time>2017-06-11T05:06:12.002Z</time>
</trkpt>
<trkpt lat="-26.6822947" lon="153.1212875">
<ele>16.357</ele>
<time>2017-06-11T05:06:22.973Z</time>
</trkpt>
<trkpt lat="-26.6822297" lon="153.1211343">
<ele>16.373</ele>
<time>2017-06-11T05:06:28.818Z</time>
</trkpt>
<trkpt lat="-26.6821472" lon="153.1210905">
<ele>16.272</ele>
<time>2017-06-11T05:06:31.002Z</time>
</trkpt>
<trkpt lat="-26.6821472" lon="153.1210905">
<ele>15.686</ele>
<time>2017-06-11T05:06:35.002Z</time>
</trkpt>
<trkpt lat="-26.6821472" lon="153.1210905">
<ele>15.132</ele>
<time>2017-06-11T05:06:37.946Z</time>
</trkpt>
<trkpt lat="-26.6820325" lon="153.1209286">
<ele>15.128</ele>
<time>2017-06-11T05:06:46.398Z</time>
</trkpt>
<trkpt lat="-26.6820785" lon="153.1208306">
<ele>15.287</ele>
<time>2017-06-11T05:06:48.238Z</time>
</trkpt>
<trkpt lat="-26.6822030" lon="153.1207373">
<ele>15.174</ele>
<time>2017-06-11T05:06:50.382Z</time>
</trkpt>
<trkpt lat="-26.6824060" lon="153.1206123">
<ele>14.951</ele>
<time>2017-06-11T05:06:53.389Z</time>
</trkpt>
<trkpt lat="-26.6825409" lon="153.1205219">
<ele>14.894</ele>
<time>2017-06-11T05:06:55.203Z</time>
</trkpt>
<trkpt lat="-26.6827084" lon="153.1204287">
<ele>14.998</ele>
<time>2017-06-11T05:06:57.188Z</time>
</trkpt>
<trkpt lat="-26.6829675" lon="153.1202512">
<ele>15.180</ele>
<time>2017-06-11T05:07:00.268Z</time>
</trkpt>
<trkpt lat="-26.6831525" lon="153.1201403">
<ele>15.408</ele>
<time>2017-06-11T05:07:02.304Z</time>
</trkpt>
<trkpt lat="-26.6834331" lon="153.1199855">
<ele>15.665</ele>
<time>2017-06-11T05:07:05.436Z</time>
</trkpt>
<trkpt lat="-26.6836834" lon="153.1198360">
<ele>15.899</ele>
<time>2017-06-11T05:07:08.572Z</time>
</trkpt>
<trkpt lat="-26.6838337" lon="153.1197535">
<ele>16.045</ele>
<time>2017-06-11T05:07:10.614Z</time>
</trkpt>
<trkpt lat="-26.6840485" lon="153.1196508">
<ele>16.060</ele>
<time>2017-06-11T05:07:13.834Z</time>
</trkpt>
<trkpt lat="-26.6841648" lon="153.1195640">
<ele>15.927</ele>
<time>2017-06-11T05:07:15.961Z</time>
</trkpt>
<trkpt lat="-26.6841926" lon="153.1193628">
<ele>15.703</ele>
<time>2017-06-11T05:07:18.589Z</time>
</trkpt>
<trkpt lat="-26.6840948" lon="153.1192200">
<ele>15.500</ele>
<time>2017-06-11T05:07:20.727Z</time>
</trkpt>
<trkpt lat="-26.6840300" lon="153.1190626">
<ele>15.381</ele>
<time>2017-06-11T05:07:22.740Z</time>
</trkpt>
<trkpt lat="-26.6839568" lon="153.1189124">
<ele>15.329</ele>
<time>2017-06-11T05:07:24.686Z</time>
</trkpt>
<trkpt lat="-26.6838325" lon="153.1186743">
<ele>15.313</ele>
<time>2017-06-11T05:07:27.828Z</time>
</trkpt>
<trkpt lat="-26.6837297" lon="153.1184488">
<ele>15.328</ele>
<time>2017-06-11T05:07:30.982Z</time>
</trkpt>
<trkpt lat="-26.6836601" lon="153.1183133">
<ele>15.369</ele>
<time>2017-06-11T05:07:33.221Z</time>
</trkpt>
<trkpt lat="-26.6836040" lon="153.1182022">
<ele>15.411</ele>
<time>2017-06-11T05:07:35.205Z</time>
</trkpt>
<trkpt lat="-26.6835724" lon="153.1180935">
<ele>15.431</ele>
<time>2017-06-11T05:07:37.011Z</time>
</trkpt>
<trkpt lat="-26.6836410" lon="153.1179147">
<ele>15.432</ele>
<time>2017-06-11T05:07:39.603Z</time>
</trkpt>
<trkpt lat="-26.6838486" lon="153.1177970">
<ele>15.437</ele>
<time>2017-06-11T05:07:42.566Z</time>
</trkpt>
<trkpt lat="-26.6839899" lon="153.1177027">
<ele>15.489</ele>
<time>2017-06-11T05:07:44.561Z</time>
</trkpt>
<trkpt lat="-26.6841241" lon="153.1176019">
<ele>15.599</ele>
<time>2017-06-11T05:07:46.423Z</time>
</trkpt>
<trkpt lat="-26.6842712" lon="153.1175177">
<ele>15.720</ele>
<time>2017-06-11T05:07:48.168Z</time>
</trkpt>
<trkpt lat="-26.6845362" lon="153.1173558">
<ele>15.826</ele>
<time>2017-06-11T05:07:51.012Z</time>
</trkpt>
<trkpt lat="-26.6848429" lon="153.1171660">
<ele>15.977</ele>
<time>2017-06-11T05:07:53.996Z</time>
</trkpt>
<trkpt lat="-26.6850524" lon="153.1170429">
<ele>16.270</ele>
<time>2017-06-11T05:07:55.960Z</time>
</trkpt>
<trkpt lat="-26.6852596" lon="153.1169221">
<ele>16.753</ele>
<time>2017-06-11T05:07:57.928Z</time>
</trkpt>
<trkpt lat="-26.6854647" lon="153.1168039">
<ele>17.365</ele>
<time>2017-06-11T05:07:59.883Z</time>
</trkpt>
<trkpt lat="-26.6857672" lon="153.1166265">
<ele>17.986</ele>
<time>2017-06-11T05:08:02.720Z</time>
</trkpt>
<trkpt lat="-26.6861003" lon="153.1164378">
<ele>18.493</ele>
<time>2017-06-11T05:08:05.717Z</time>
</trkpt>
<trkpt lat="-26.6863230" lon="153.1163022">
<ele>18.789</ele>
<time>2017-06-11T05:08:07.739Z</time>
</trkpt>
<trkpt lat="-26.6866421" lon="153.1161088">
<ele>18.846</ele>
<time>2017-06-11T05:08:10.642Z</time>
</trkpt>
<trkpt lat="-26.6868571" lon="153.1159672">
<ele>18.692</ele>
<time>2017-06-11T05:08:12.607Z</time>
</trkpt>
<trkpt lat="-26.6871851" lon="153.1157578">
<ele>18.430</ele>
<time>2017-06-11T05:08:15.556Z</time>
</trkpt>
<trkpt lat="-26.6874088" lon="153.1156269">
<ele>18.217</ele>
<time>2017-06-11T05:08:17.520Z</time>
</trkpt>
<trkpt lat="-26.6877718" lon="153.1155168">
<ele>18.118</ele>
<time>2017-06-11T05:08:20.465Z</time>
</trkpt>
<trkpt lat="-26.6880164" lon="153.1154754">
<ele>18.105</ele>
<time>2017-06-11T05:08:22.405Z</time>
</trkpt>
<trkpt lat="-26.6883845" lon="153.1153711">
<ele>18.188</ele>
<time>2017-06-11T05:08:25.349Z</time>
</trkpt>
<trkpt lat="-26.6887706" lon="153.1153182">
<ele>18.400</ele>
<time>2017-06-11T05:08:28.298Z</time>
</trkpt>
<trkpt lat="-26.6890329" lon="153.1152629">
<ele>18.670</ele>
<time>2017-06-11T05:08:30.263Z</time>
</trkpt>
<trkpt lat="-26.6893040" lon="153.1152243">
<ele>18.857</ele>
<time>2017-06-11T05:08:32.237Z</time>
</trkpt>
<trkpt lat="-26.6897203" lon="153.1152034">
<ele>18.922</ele>
<time>2017-06-11T05:08:35.241Z</time>
</trkpt>
<trkpt lat="-26.6901196" lon="153.1151845">
<ele>18.936</ele>
<time>2017-06-11T05:08:38.154Z</time>
</trkpt>
<trkpt lat="-26.6905139" lon="153.1151643">
<ele>18.958</ele>
<time>2017-06-11T05:08:41.087Z</time>
</trkpt>
<trkpt lat="-26.6908843" lon="153.1151791">
<ele>18.978</ele>
<time>2017-06-11T05:08:43.906Z</time>
</trkpt>
<trkpt lat="-26.6911326" lon="153.1151653">
<ele>18.941</ele>
<time>2017-06-11T05:08:45.911Z</time>
</trkpt>
<trkpt lat="-26.6914519" lon="153.1151496">
<ele>18.809</ele>
<time>2017-06-11T05:08:48.847Z</time>
</trkpt>
<trkpt lat="-26.6916399" lon="153.1151363">
<ele>18.608</ele>
<time>2017-06-11T05:08:51.002Z</time>
</trkpt>
<trkpt lat="-26.6916399" lon="153.1151363">
<ele>18.427</ele>
<time>2017-06-11T05:08:57.000Z</time>
</trkpt>
<trkpt lat="-26.6916399" lon="153.1151363">
<ele>18.338</ele>
<time>2017-06-11T05:09:04.319Z</time>
</trkpt>
<trkpt lat="-26.6918797" lon="153.1151075">
<ele>18.340</ele>
<time>2017-06-11T05:09:11.359Z</time>
</trkpt>
<trkpt lat="-26.6920246" lon="153.1151151">
<ele>18.062</ele>
<time>2017-06-11T05:09:13.835Z</time>
</trkpt>
<trkpt lat="-26.6921911" lon="153.1151112">
<ele>17.274</ele>
<time>2017-06-11T05:09:16.185Z</time>
</trkpt>
<trkpt lat="-26.6924719" lon="153.1151078">
<ele>16.512</ele>
<time>2017-06-11T05:09:19.391Z</time>
</trkpt>
<trkpt lat="-26.6926828" lon="153.1150909">
<ele>16.343</ele>
<time>2017-06-11T05:09:21.517Z</time>
</trkpt>
<trkpt lat="-26.6929673" lon="153.1150653">
<ele>16.620</ele>
<time>2017-06-11T05:09:24.575Z</time>
</trkpt>
<trkpt lat="-26.6931105" lon="153.1150363">
<ele>16.954</ele>
<time>2017-06-11T05:09:26.647Z</time>
</trkpt>
<trkpt lat="-26.6932059" lon="153.1150227">
<ele>17.097</ele>
<time>2017-06-11T05:09:29.676Z</time>
</trkpt>
<trkpt lat="-26.6932916" lon="153.1149898">
<ele>16.995</ele>
<time>2017-06-11T05:09:32.999Z</time>
</trkpt>
<trkpt lat="-26.6932916" lon="153.1149898">
<ele>16.701</ele>
<time>2017-06-11T05:09:33.000Z</time>
</trkpt>
<trkpt lat="-26.6932916" lon="153.1149898">
<ele>16.354</ele>
<time>2017-06-11T05:09:46.344Z</time>
</trkpt>
<trkpt lat="-26.6934574" lon="153.1149648">
<ele>16.160</ele>
<time>2017-06-11T05:09:51.398Z</time>
</trkpt>
<trkpt lat="-26.6935746" lon="153.1147340">
<ele>16.230</ele>
<time>2017-06-11T05:09:54.339Z</time>
</trkpt>
<trkpt lat="-26.6935792" lon="153.1142543">
<ele>16.556</ele>
<time>2017-06-11T05:09:57.707Z</time>
</trkpt>
<trkpt lat="-26.6936359" lon="153.1137172">
<ele>17.258</ele>
<time>2017-06-11T05:10:00.818Z</time>
</trkpt>
<trkpt lat="-26.6936792" lon="153.1133500">
<ele>18.492</ele>
<time>2017-06-11T05:10:02.831Z</time>
</trkpt>
<trkpt lat="-26.6937826" lon="153.1128051">
<ele>20.055</ele>
<time>2017-06-11T05:10:05.821Z</time>
</trkpt>
<trkpt lat="-26.6938250" lon="153.1122109">
<ele>21.697</ele>
<time>2017-06-11T05:10:08.990Z</time>
</trkpt>
<trkpt lat="-26.6939178" lon="153.1118509">
<ele>23.499</ele>
<time>2017-06-11T05:10:11.017Z</time>
</trkpt>
<trkpt lat="-26.6940626" lon="153.1113404">
<ele>25.384</ele>
<time>2017-06-11T05:10:13.949Z</time>
</trkpt>
<trkpt lat="-26.6942725" lon="153.1108653">
<ele>26.991</ele>
<time>2017-06-11T05:10:16.846Z</time>
</trkpt>
<trkpt lat="-26.6944405" lon="153.1105522">
<ele>28.165</ele>
<time>2017-06-11T05:10:18.776Z</time>
</trkpt>
<trkpt lat="-26.6946067" lon="153.1102054">
<ele>28.944</ele>
<time>2017-06-11T05:10:20.787Z</time>
</trkpt>
<trkpt lat="-26.6949117" lon="153.1097278">
<ele>29.348</ele>
<time>2017-06-11T05:10:23.756Z</time>
</trkpt>
<trkpt lat="-26.6951036" lon="153.1094001">
<ele>29.365</ele>
<time>2017-06-11T05:10:25.737Z</time>
</trkpt>
<trkpt lat="-26.6954134" lon="153.1089233">
<ele>29.006</ele>
<time>2017-06-11T05:10:28.729Z</time>
</trkpt>
<trkpt lat="-26.6957221" lon="153.1084539">
<ele>28.387</ele>
<time>2017-06-11T05:10:31.700Z</time>
</trkpt>
<trkpt lat="-26.6958976" lon="153.1080991">
<ele>27.707</ele>
<time>2017-06-11T05:10:33.751Z</time>
</trkpt>
<trkpt lat="-26.6960801" lon="153.1077681">
<ele>27.179</ele>
<time>2017-06-11T05:10:35.698Z</time>
</trkpt>
<trkpt lat="-26.6963402" lon="153.1072492">
<ele>26.973</ele>
<time>2017-06-11T05:10:38.666Z</time>
</trkpt>
<trkpt lat="-26.6966466" lon="153.1067584">
<ele>27.153</ele>
<time>2017-06-11T05:10:41.645Z</time>
</trkpt>
<trkpt lat="-26.6968492" lon="153.1064280">
<ele>27.669</ele>
<time>2017-06-11T05:10:43.630Z</time>
</trkpt>
<trkpt lat="-26.6971700" lon="153.1059393">
<ele>28.323</ele>
<time>2017-06-11T05:10:46.543Z</time>
</trkpt>
<trkpt lat="-26.6974165" lon="153.1055605">
<ele>28.885</ele>
<time>2017-06-11T05:10:48.574Z</time>
</trkpt>
<trkpt lat="-26.6977854" lon="153.1049541">
<ele>29.354</ele>
<time>2017-06-11T05:10:51.595Z</time>
</trkpt>
<trkpt lat="-26.6980216" lon="153.1045265">
<ele>29.936</ele>
<time>2017-06-11T05:10:53.593Z</time>
</trkpt>
<trkpt lat="-26.6984189" lon="153.1039120">
<ele>30.606</ele>
<time>2017-06-11T05:10:56.597Z</time>
</trkpt>
<trkpt lat="-26.6988458" lon="153.1033024">
<ele>31.081</ele>
<time>2017-06-11T05:10:59.663Z</time>
</trkpt>
<trkpt lat="-26.6993053" lon="153.1027261">
<ele>31.244</ele>
<time>2017-06-11T05:11:02.723Z</time>
</trkpt>
<trkpt lat="-26.6997774" lon="153.1022098">
<ele>31.217</ele>
<time>2017-06-11T05:11:05.656Z</time>
</trkpt>
<trkpt lat="-26.7003099" lon="153.1017372">
<ele>31.195</ele>
<time>2017-06-11T05:11:08.674Z</time>
</trkpt>
<trkpt lat="-26.7006895" lon="153.1014620">
<ele>31.314</ele>
<time>2017-06-11T05:11:10.671Z</time>
</trkpt>
<trkpt lat="-26.7010844" lon="153.1011980">
<ele>31.514</ele>
<time>2017-06-11T05:11:12.697Z</time>
</trkpt>
<trkpt lat="-26.7016766" lon="153.1008369">
<ele>31.657</ele>
<time>2017-06-11T05:11:15.661Z</time>
</trkpt>
<trkpt lat="-26.7020921" lon="153.1006132">
<ele>31.693</ele>
<time>2017-06-11T05:11:17.681Z</time>
</trkpt>
<trkpt lat="-26.7027372" lon="153.1003567">
<ele>31.649</ele>
<time>2017-06-11T05:11:20.696Z</time>
</trkpt>
<trkpt lat="-26.7033866" lon="153.1001600">
<ele>31.599</ele>
<time>2017-06-11T05:11:23.674Z</time>
</trkpt>
<trkpt lat="-26.7040300" lon="153.0999654">
<ele>31.586</ele>
<time>2017-06-11T05:11:26.619Z</time>
</trkpt>
<trkpt lat="-26.7044715" lon="153.0998532">
<ele>31.649</ele>
<time>2017-06-11T05:11:28.617Z</time>
</trkpt>
<trkpt lat="-26.7051197" lon="153.0996431">
<ele>31.792</ele>
<time>2017-06-11T05:11:31.594Z</time>
</trkpt>
<trkpt lat="-26.7057777" lon="153.0994296">
<ele>31.891</ele>
<time>2017-06-11T05:11:34.577Z</time>
</trkpt>
<trkpt lat="-26.7062555" lon="153.0992937">
<ele>31.829</ele>
<time>2017-06-11T05:11:36.666Z</time>
</trkpt>
<trkpt lat="-26.7069059" lon="153.0989611">
<ele>31.670</ele>
<time>2017-06-11T05:11:39.701Z</time>
</trkpt>
<trkpt lat="-26.7075022" lon="153.0985762">
<ele>31.524</ele>
<time>2017-06-11T05:11:42.659Z</time>
</trkpt>
<trkpt lat="-26.7078647" lon="153.0982936">
<ele>31.380</ele>
<time>2017-06-11T05:11:44.582Z</time>
</trkpt>
<trkpt lat="-26.7082302" lon="153.0979568">
<ele>31.203</ele>
<time>2017-06-11T05:11:46.639Z</time>
</trkpt>
<trkpt lat="-26.7087462" lon="153.0974475">
<ele>31.091</ele>
<time>2017-06-11T05:11:49.619Z</time>
</trkpt>
<trkpt lat="-26.7092127" lon="153.0968708">
<ele>31.201</ele>
<time>2017-06-11T05:11:52.644Z</time>
</trkpt>
<trkpt lat="-26.7096000" lon="153.0962594">
<ele>31.491</ele>
<time>2017-06-11T05:11:55.593Z</time>
</trkpt>
<trkpt lat="-26.7098474" lon="153.0958399">
<ele>31.757</ele>
<time>2017-06-11T05:11:57.584Z</time>
</trkpt>
<trkpt lat="-26.7100851" lon="153.0954197">
<ele>31.852</ele>
<time>2017-06-11T05:11:59.569Z</time>
</trkpt>
<trkpt lat="-26.7104143" lon="153.0947724">
<ele>31.744</ele>
<time>2017-06-11T05:12:02.561Z</time>
</trkpt>
<trkpt lat="-26.7106159" lon="153.0943451">
<ele>31.440</ele>
<time>2017-06-11T05:12:04.519Z</time>
</trkpt>
<trkpt lat="-26.7108278" lon="153.0939105">
<ele>31.039</ele>
<time>2017-06-11T05:12:06.522Z</time>
</trkpt>
<trkpt lat="-26.7111400" lon="153.0932625">
<ele>30.713</ele>
<time>2017-06-11T05:12:09.481Z</time>
</trkpt>
<trkpt lat="-26.7114573" lon="153.0925996">
<ele>30.584</ele>
<time>2017-06-11T05:12:12.471Z</time>
</trkpt>
<trkpt lat="-26.7118134" lon="153.0919544">
<ele>30.744</ele>
<time>2017-06-11T05:12:15.466Z</time>
</trkpt>
<trkpt lat="-26.7120225" lon="153.0915079">
<ele>31.254</ele>
<time>2017-06-11T05:12:17.451Z</time>
</trkpt>
<trkpt lat="-26.7123365" lon="153.0908386">
<ele>31.937</ele>
<time>2017-06-11T05:12:20.426Z</time>
</trkpt>
<trkpt lat="-26.7125648" lon="153.0903995">
<ele>32.576</ele>
<time>2017-06-11T05:12:22.392Z</time>
</trkpt>
<trkpt lat="-26.7129209" lon="153.0897117">
<ele>33.176</ele>
<time>2017-06-11T05:12:25.404Z</time>
</trkpt>
<trkpt lat="-26.7131128" lon="153.0892069">
<ele>33.788</ele>
<time>2017-06-11T05:12:27.412Z</time>
</trkpt>
<trkpt lat="-26.7132775" lon="153.0886829">
<ele>34.373</ele>
<time>2017-06-11T05:12:29.407Z</time>
</trkpt>
<trkpt lat="-26.7133947" lon="153.0878408">
<ele>34.903</ele>
<time>2017-06-11T05:12:32.416Z</time>
</trkpt>
<trkpt lat="-26.7134667" lon="153.0869662">
<ele>35.415</ele>
<time>2017-06-11T05:12:35.471Z</time>
</trkpt>
<trkpt lat="-26.7134217" lon="153.0861218">
<ele>35.997</ele>
<time>2017-06-11T05:12:38.418Z</time>
</trkpt>
<trkpt lat="-26.7133043" lon="153.0852618">
<ele>36.710</ele>
<time>2017-06-11T05:12:41.450Z</time>
</trkpt>
<trkpt lat="-26.7132406" lon="153.0843990">
<ele>37.428</ele>
<time>2017-06-11T05:12:44.456Z</time>
</trkpt>
<trkpt lat="-26.7131776" lon="153.0835396">
<ele>37.895</ele>
<time>2017-06-11T05:12:47.442Z</time>
</trkpt>
<trkpt lat="-26.7130686" lon="153.0826830">
<ele>37.993</ele>
<time>2017-06-11T05:12:50.432Z</time>
</trkpt>
<trkpt lat="-26.7129905" lon="153.0818229">
<ele>37.840</ele>
<time>2017-06-11T05:12:53.416Z</time>
</trkpt>
<trkpt lat="-26.7129259" lon="153.0812476">
<ele>37.641</ele>
<time>2017-06-11T05:12:55.423Z</time>
</trkpt>
<trkpt lat="-26.7128747" lon="153.0806776">
<ele>37.536</ele>
<time>2017-06-11T05:12:57.411Z</time>
</trkpt>
<trkpt lat="-26.7127883" lon="153.0798207">
<ele>37.651</ele>
<time>2017-06-11T05:13:00.403Z</time>
</trkpt>
<trkpt lat="-26.7126990" lon="153.0789600">
<ele>38.074</ele>
<time>2017-06-11T05:13:03.399Z</time>
</trkpt>
<trkpt lat="-26.7126089" lon="153.0781013">
<ele>38.639</ele>
<time>2017-06-11T05:13:06.382Z</time>
</trkpt>
<trkpt lat="-26.7125416" lon="153.0775291">
<ele>39.141</ele>
<time>2017-06-11T05:13:08.372Z</time>
</trkpt>
<trkpt lat="-26.7124255" lon="153.0766726">
<ele>39.596</ele>
<time>2017-06-11T05:13:11.362Z</time>
</trkpt>
<trkpt lat="-26.7123461" lon="153.0758140">
<ele>40.052</ele>
<time>2017-06-11T05:13:14.342Z</time>
</trkpt>
<trkpt lat="-26.7122722" lon="153.0749448">
<ele>40.511</ele>
<time>2017-06-11T05:13:17.348Z</time>
</trkpt>
<trkpt lat="-26.7122185" lon="153.0743681">
<ele>40.928</ele>
<time>2017-06-11T05:13:19.341Z</time>
</trkpt>
<trkpt lat="-26.7121195" lon="153.0735113">
<ele>41.202</ele>
<time>2017-06-11T05:13:22.312Z</time>
</trkpt>
<trkpt lat="-26.7119865" lon="153.0726540">
<ele>41.259</ele>
<time>2017-06-11T05:13:25.304Z</time>
</trkpt>
<trkpt lat="-26.7119485" lon="153.0717919">
<ele>41.139</ele>
<time>2017-06-11T05:13:28.272Z</time>
</trkpt>
<trkpt lat="-26.7118359" lon="153.0709308">
<ele>40.974</ele>
<time>2017-06-11T05:13:31.277Z</time>
</trkpt>
<trkpt lat="-26.7117881" lon="153.0703685">
<ele>40.874</ele>
<time>2017-06-11T05:13:33.255Z</time>
</trkpt>
<trkpt lat="-26.7117116" lon="153.0695300">
<ele>40.848</ele>
<time>2017-06-11T05:13:36.225Z</time>
</trkpt>
<trkpt lat="-26.7116465" lon="153.0689692">
<ele>40.842</ele>
<time>2017-06-11T05:13:38.214Z</time>
</trkpt>
<trkpt lat="-26.7115933" lon="153.0684050">
<ele>40.812</ele>
<time>2017-06-11T05:13:40.208Z</time>
</trkpt>
<trkpt lat="-26.7115397" lon="153.0678448">
<ele>40.782</ele>
<time>2017-06-11T05:13:42.191Z</time>
</trkpt>
<trkpt lat="-26.7114475" lon="153.0670094">
<ele>40.811</ele>
<time>2017-06-11T05:13:45.159Z</time>
</trkpt>
<trkpt lat="-26.7113667" lon="153.0664495">
<ele>40.950</ele>
<time>2017-06-11T05:13:47.153Z</time>
</trkpt>
<trkpt lat="-26.7112872" lon="153.0656026">
<ele>41.189</ele>
<time>2017-06-11T05:13:50.141Z</time>
</trkpt>
<trkpt lat="-26.7112276" lon="153.0647521">
<ele>41.493</ele>
<time>2017-06-11T05:13:53.135Z</time>
</trkpt>
<trkpt lat="-26.7111717" lon="153.0641925">
<ele>41.809</ele>
<time>2017-06-11T05:13:55.119Z</time>
</trkpt>
<trkpt lat="-26.7111525" lon="153.0636316">
<ele>42.063</ele>
<time>2017-06-11T05:13:57.101Z</time>
</trkpt>
<trkpt lat="-26.7111573" lon="153.0630661">
<ele>42.267</ele>
<time>2017-06-11T05:13:59.092Z</time>
</trkpt>
<trkpt lat="-26.7111757" lon="153.0622136">
<ele>42.470</ele>
<time>2017-06-11T05:14:02.087Z</time>
</trkpt>
<trkpt lat="-26.7111925" lon="153.0616441">
<ele>42.663</ele>
<time>2017-06-11T05:14:04.084Z</time>
</trkpt>
<trkpt lat="-26.7113211" lon="153.0608014">
<ele>42.852</ele>
<time>2017-06-11T05:14:07.078Z</time>
</trkpt>
<trkpt lat="-26.7114544" lon="153.0599633">
<ele>43.095</ele>
<time>2017-06-11T05:14:10.059Z</time>
</trkpt>
<trkpt lat="-26.7116186" lon="153.0594232">
<ele>43.437</ele>
<time>2017-06-11T05:14:12.060Z</time>
</trkpt>
<trkpt lat="-26.7117199" lon="153.0588693">
<ele>43.880</ele>
<time>2017-06-11T05:14:14.046Z</time>
</trkpt>
<trkpt lat="-26.7119190" lon="153.0580496">
<ele>44.344</ele>
<time>2017-06-11T05:14:17.036Z</time>
</trkpt>
<trkpt lat="-26.7121097" lon="153.0575249">
<ele>44.714</ele>
<time>2017-06-11T05:14:19.035Z</time>
</trkpt>
<trkpt lat="-26.7122735" lon="153.0569894">
<ele>44.961</ele>
<time>2017-06-11T05:14:21.031Z</time>
</trkpt>
<trkpt lat="-26.7124979" lon="153.0561829">
<ele>45.183</ele>
<time>2017-06-11T05:14:24.002Z</time>
</trkpt>
<trkpt lat="-26.7126845" lon="153.0556487">
<ele>45.521</ele>
<time>2017-06-11T05:14:26.010Z</time>
</trkpt>
<trkpt lat="-26.7128246" lon="153.0551041">
<ele>46.008</ele>
<time>2017-06-11T05:14:27.993Z</time>
</trkpt>
<trkpt lat="-26.7129972" lon="153.0545662">
<ele>46.508</ele>
<time>2017-06-11T05:14:29.994Z</time>
</trkpt>
<trkpt lat="-26.7131701" lon="153.0540343">
<ele>46.897</ele>
<time>2017-06-11T05:14:31.975Z</time>
</trkpt>
<trkpt lat="-26.7133739" lon="153.0532041">
<ele>47.201</ele>
<time>2017-06-11T05:14:34.985Z</time>
</trkpt>
<trkpt lat="-26.7135721" lon="153.0526748">
<ele>47.567</ele>
<time>2017-06-11T05:14:36.989Z</time>
</trkpt>
<trkpt lat="-26.7138242" lon="153.0518756">
<ele>48.104</ele>
<time>2017-06-11T05:14:39.947Z</time>
</trkpt>
<trkpt lat="-26.7142199" lon="153.0511403">
<ele>48.776</ele>
<time>2017-06-11T05:14:42.949Z</time>
</trkpt>
<trkpt lat="-26.7144956" lon="153.0506649">
<ele>49.484</ele>
<time>2017-06-11T05:14:44.936Z</time>
</trkpt>
<trkpt lat="-26.7149722" lon="153.0499980">
<ele>50.105</ele>
<time>2017-06-11T05:14:47.931Z</time>
</trkpt>
<trkpt lat="-26.7154565" lon="153.0493821">
<ele>50.535</ele>
<time>2017-06-11T05:14:50.810Z</time>
</trkpt>
<trkpt lat="-26.7158425" lon="153.0489985">
<ele>50.808</ele>
<time>2017-06-11T05:14:52.848Z</time>
</trkpt>
<trkpt lat="-26.7162676" lon="153.0486094">
<ele>51.005</ele>
<time>2017-06-11T05:14:55.019Z</time>
</trkpt>
<trkpt lat="-26.7166398" lon="153.0482645">
<ele>51.169</ele>
<time>2017-06-11T05:14:56.924Z</time>
</trkpt>
<trkpt lat="-26.7170515" lon="153.0479400">
<ele>51.340</ele>
<time>2017-06-11T05:14:58.901Z</time>
</trkpt>
<trkpt lat="-26.7175159" lon="153.0476905">
<ele>51.518</ele>
<time>2017-06-11T05:15:00.918Z</time>
</trkpt>
<trkpt lat="-26.7181890" lon="153.0472727">
<ele>51.643</ele>
<time>2017-06-11T05:15:03.935Z</time>
</trkpt>
<trkpt lat="-26.7186461" lon="153.0470084">
<ele>51.650</ele>
<time>2017-06-11T05:15:05.953Z</time>
</trkpt>
<trkpt lat="-26.7190833" lon="153.0467387">
<ele>51.491</ele>
<time>2017-06-11T05:15:07.905Z</time>
</trkpt>
<trkpt lat="-26.7197654" lon="153.0463488">
<ele>51.217</ele>
<time>2017-06-11T05:15:10.891Z</time>
</trkpt>
<trkpt lat="-26.7204528" lon="153.0459521">
<ele>50.976</ele>
<time>2017-06-11T05:15:13.932Z</time>
</trkpt>
<trkpt lat="-26.7208809" lon="153.0457451">
<ele>50.804</ele>
<time>2017-06-11T05:15:15.880Z</time>
</trkpt>
<trkpt lat="-26.7212805" lon="153.0455667">
<ele>50.514</ele>
<time>2017-06-11T05:15:17.801Z</time>
</trkpt>
<trkpt lat="-26.7219090" lon="153.0454197">
<ele>49.840</ele>
<time>2017-06-11T05:15:20.782Z</time>
</trkpt>
<trkpt lat="-26.7223157" lon="153.0453983">
<ele>48.677</ele>
<time>2017-06-11T05:15:22.729Z</time>
</trkpt>
<trkpt lat="-26.7229210" lon="153.0454650">
<ele>47.297</ele>
<time>2017-06-11T05:15:25.696Z</time>
</trkpt>
<trkpt lat="-26.7233273" lon="153.0454796">
<ele>46.220</ele>
<time>2017-06-11T05:15:27.682Z</time>
</trkpt>
<trkpt lat="-26.7237406" lon="153.0455212">
<ele>45.737</ele>
<time>2017-06-11T05:15:29.695Z</time>
</trkpt>
<trkpt lat="-26.7243386" lon="153.0456587">
<ele>45.709</ele>
<time>2017-06-11T05:15:32.632Z</time>
</trkpt>
<trkpt lat="-26.7249815" lon="153.0458407">
<ele>45.833</ele>
<time>2017-06-11T05:15:35.706Z</time>
</trkpt>
<trkpt lat="-26.7254397" lon="153.0459921">
<ele>45.896</ele>
<time>2017-06-11T05:15:37.755Z</time>
</trkpt>
<trkpt lat="-26.7261932" lon="153.0461723">
<ele>45.835</ele>
<time>2017-06-11T05:15:40.864Z</time>
</trkpt>
<trkpt lat="-26.7269333" lon="153.0463217">
<ele>45.701</ele>
<time>2017-06-11T05:15:43.818Z</time>
</trkpt>
<trkpt lat="-26.7274363" lon="153.0464058">
<ele>45.376</ele>
<time>2017-06-11T05:15:45.832Z</time>
</trkpt>
<trkpt lat="-26.7279371" lon="153.0464496">
<ele>44.661</ele>
<time>2017-06-11T05:15:47.839Z</time>
</trkpt>
<trkpt lat="-26.7284290" lon="153.0464693">
<ele>43.706</ele>
<time>2017-06-11T05:15:49.816Z</time>
</trkpt>
<trkpt lat="-26.7289403" lon="153.0464722">
<ele>42.839</ele>
<time>2017-06-11T05:15:51.848Z</time>
</trkpt>
<trkpt lat="-26.7297057" lon="153.0464961">
<ele>42.203</ele>
<time>2017-06-11T05:15:54.863Z</time>
</trkpt>
<trkpt lat="-26.7302047" lon="153.0464815">
<ele>41.805</ele>
<time>2017-06-11T05:15:56.836Z</time>
</trkpt>
<trkpt lat="-26.7309681" lon="153.0465341">
<ele>41.585</ele>
<time>2017-06-11T05:15:59.862Z</time>
</trkpt>
<trkpt lat="-26.7317249" lon="153.0465816">
<ele>41.482</ele>
<time>2017-06-11T05:16:02.854Z</time>
</trkpt>
<trkpt lat="-26.7322366" lon="153.0466276">
<ele>41.512</ele>
<time>2017-06-11T05:16:04.865Z</time>
</trkpt>
<trkpt lat="-26.7330073" lon="153.0467417">
<ele>41.664</ele>
<time>2017-06-11T05:16:07.886Z</time>
</trkpt>
<trkpt lat="-26.7337636" lon="153.0467980">
<ele>41.858</ele>
<time>2017-06-11T05:16:10.840Z</time>
</trkpt>
<trkpt lat="-26.7342727" lon="153.0468772">
<ele>42.104</ele>
<time>2017-06-11T05:16:12.852Z</time>
</trkpt>
<trkpt lat="-26.7350443" lon="153.0469716">
<ele>42.549</ele>
<time>2017-06-11T05:16:15.886Z</time>
</trkpt>
<trkpt lat="-26.7358307" lon="153.0470393">
<ele>43.387</ele>
<time>2017-06-11T05:16:18.947Z</time>
</trkpt>
<trkpt lat="-26.7363391" lon="153.0471024">
<ele>44.818</ele>
<time>2017-06-11T05:16:20.924Z</time>
</trkpt>
<trkpt lat="-26.7370969" lon="153.0472322">
<ele>46.700</ele>
<time>2017-06-11T05:16:23.890Z</time>
</trkpt>
<trkpt lat="-26.7378672" lon="153.0473159">
<ele>48.598</ele>
<time>2017-06-11T05:16:26.879Z</time>
</trkpt>
<trkpt lat="-26.7383815" lon="153.0473686">
<ele>50.255</ele>
<time>2017-06-11T05:16:28.864Z</time>
</trkpt>
<trkpt lat="-26.7389046" lon="153.0474542">
<ele>51.547</ele>
<time>2017-06-11T05:16:30.890Z</time>
</trkpt>
<trkpt lat="-26.7396656" lon="153.0475711">
<ele>52.350</ele>
<time>2017-06-11T05:16:33.840Z</time>
</trkpt>
<trkpt lat="-26.7401771" lon="153.0476309">
<ele>52.740</ele>
<time>2017-06-11T05:16:35.824Z</time>
</trkpt>
<trkpt lat="-26.7409301" lon="153.0478076">
<ele>52.899</ele>
<time>2017-06-11T05:16:38.788Z</time>
</trkpt>
<trkpt lat="-26.7416993" lon="153.0479837">
<ele>52.907</ele>
<time>2017-06-11T05:16:41.795Z</time>
</trkpt>
<trkpt lat="-26.7424721" lon="153.0481313">
<ele>52.716</ele>
<time>2017-06-11T05:16:44.793Z</time>
</trkpt>
<trkpt lat="-26.7432337" lon="153.0482556">
<ele>52.248</ele>
<time>2017-06-11T05:16:47.760Z</time>
</trkpt>
<trkpt lat="-26.7437491" lon="153.0483672">
<ele>51.570</ele>
<time>2017-06-11T05:16:49.797Z</time>
</trkpt>
<trkpt lat="-26.7442586" lon="153.0484011">
<ele>50.854</ele>
<time>2017-06-11T05:16:51.778Z</time>
</trkpt>
<trkpt lat="-26.7447747" lon="153.0484267">
<ele>50.203</ele>
<time>2017-06-11T05:16:53.781Z</time>
</trkpt>
<trkpt lat="-26.7455430" lon="153.0484464">
<ele>49.636</ele>
<time>2017-06-11T05:16:56.757Z</time>
</trkpt>
<trkpt lat="-26.7460629" lon="153.0484153">
<ele>49.054</ele>
<time>2017-06-11T05:16:58.774Z</time>
</trkpt>
<trkpt lat="-26.7468311" lon="153.0483281">
<ele>48.326</ele>
<time>2017-06-11T05:17:01.764Z</time>
</trkpt>
<trkpt lat="-26.7473433" lon="153.0482285">
<ele>47.501</ele>
<time>2017-06-11T05:17:03.779Z</time>
</trkpt>
<trkpt lat="-26.7480987" lon="153.0480523">
<ele>46.820</ele>
<time>2017-06-11T05:17:06.776Z</time>
</trkpt>
<trkpt lat="-26.7488652" lon="153.0479071">
<ele>46.476</ele>
<time>2017-06-11T05:17:09.800Z</time>
</trkpt>
<trkpt lat="-26.7496172" lon="153.0477388">
<ele>46.607</ele>
<time>2017-06-11T05:17:12.781Z</time>
</trkpt>
<trkpt lat="-26.7503702" lon="153.0475864">
<ele>47.309</ele>
<time>2017-06-11T05:17:15.753Z</time>
</trkpt>
<trkpt lat="-26.7511338" lon="153.0474355">
<ele>48.391</ele>
<time>2017-06-11T05:17:18.755Z</time>
</trkpt>
<trkpt lat="-26.7516612" lon="153.0473620">
<ele>49.336</ele>
<time>2017-06-11T05:17:20.807Z</time>
</trkpt>
<trkpt lat="-26.7524261" lon="153.0472482">
<ele>49.805</ele>
<time>2017-06-11T05:17:23.787Z</time>
</trkpt>
<trkpt lat="-26.7529405" lon="153.0471720">
<ele>49.820</ele>
<time>2017-06-11T05:17:25.790Z</time>
</trkpt>
<trkpt lat="-26.7537097" lon="153.0470951">
<ele>49.490</ele>
<time>2017-06-11T05:17:28.770Z</time>
</trkpt>
<trkpt lat="-26.7544783" lon="153.0469633">
<ele>48.806</ele>
<time>2017-06-11T05:17:31.766Z</time>
</trkpt>
<trkpt lat="-26.7552562" lon="153.0468684">
<ele>47.653</ele>
<time>2017-06-11T05:17:34.767Z</time>
</trkpt>
<trkpt lat="-26.7557816" lon="153.0468556">
<ele>46.018</ele>
<time>2017-06-11T05:17:36.774Z</time>
</trkpt>
<trkpt lat="-26.7565656" lon="153.0467832">
<ele>44.272</ele>
<time>2017-06-11T05:17:39.777Z</time>
</trkpt>
<trkpt lat="-26.7570818" lon="153.0467611">
<ele>42.923</ele>
<time>2017-06-11T05:17:41.754Z</time>
</trkpt>
<trkpt lat="-26.7578655" lon="153.0466747">
<ele>42.145</ele>
<time>2017-06-11T05:17:44.769Z</time>
</trkpt>
<trkpt lat="-26.7583881" lon="153.0466500">
<ele>41.801</ele>
<time>2017-06-11T05:17:46.766Z</time>
</trkpt>
<trkpt lat="-26.7591685" lon="153.0465693">
<ele>41.707</ele>
<time>2017-06-11T05:17:49.756Z</time>
</trkpt>
<trkpt lat="-26.7596958" lon="153.0465296">
<ele>41.713</ele>
<time>2017-06-11T05:17:51.771Z</time>
</trkpt>
<trkpt lat="-26.7602161" lon="153.0464728">
<ele>41.772</ele>
<time>2017-06-11T05:17:53.766Z</time>
</trkpt>
<trkpt lat="-26.7610006" lon="153.0463758">
<ele>41.919</ele>
<time>2017-06-11T05:17:56.777Z</time>
</trkpt>
<trkpt lat="-26.7615464" lon="153.0463165">
<ele>42.196</ele>
<time>2017-06-11T05:17:58.866Z</time>
</trkpt>
<trkpt lat="-26.7620587" lon="153.0462450">
<ele>42.602</ele>
<time>2017-06-11T05:18:00.836Z</time>
</trkpt>
<trkpt lat="-26.7628380" lon="153.0461190">
<ele>43.071</ele>
<time>2017-06-11T05:18:03.844Z</time>
</trkpt>
<trkpt lat="-26.7633499" lon="153.0460217">
<ele>43.490</ele>
<time>2017-06-11T05:18:05.826Z</time>
</trkpt>
<trkpt lat="-26.7641097" lon="153.0458743">
<ele>43.762</ele>
<time>2017-06-11T05:18:08.779Z</time>
</trkpt>
<trkpt lat="-26.7646058" lon="153.0457788">
<ele>43.615</ele>
<time>2017-06-11T05:18:10.743Z</time>
</trkpt>
<trkpt lat="-26.7650864" lon="153.0456540">
<ele>42.708</ele>
<time>2017-06-11T05:18:12.711Z</time>
</trkpt>
<trkpt lat="-26.7658113" lon="153.0454891">
<ele>41.174</ele>
<time>2017-06-11T05:18:15.700Z</time>
</trkpt>
<trkpt lat="-26.7665192" lon="153.0453097">
<ele>39.516</ele>
<time>2017-06-11T05:18:18.664Z</time>
</trkpt>
<trkpt lat="-26.7672494" lon="153.0451664">
<ele>38.116</ele>
<time>2017-06-11T05:18:21.685Z</time>
</trkpt>
<trkpt lat="-26.7677437" lon="153.0451058">
<ele>37.215</ele>
<time>2017-06-11T05:18:23.684Z</time>
</trkpt>
<trkpt lat="-26.7682131" lon="153.0449086">
<ele>36.862</ele>
<time>2017-06-11T05:18:25.686Z</time>
</trkpt>
<trkpt lat="-26.7689219" lon="153.0445916">
<ele>36.922</ele>
<time>2017-06-11T05:18:28.716Z</time>
</trkpt>
<trkpt lat="-26.7693749" lon="153.0443390">
<ele>37.215</ele>
<time>2017-06-11T05:18:30.713Z</time>
</trkpt>
<trkpt lat="-26.7700652" lon="153.0440029">
<ele>37.518</ele>
<time>2017-06-11T05:18:33.671Z</time>
</trkpt>
<trkpt lat="-26.7705531" lon="153.0438054">
<ele>37.677</ele>
<time>2017-06-11T05:18:35.688Z</time>
</trkpt>
<trkpt lat="-26.7713163" lon="153.0435647">
<ele>37.704</ele>
<time>2017-06-11T05:18:38.743Z</time>
</trkpt>
<trkpt lat="-26.7718265" lon="153.0434316">
<ele>37.674</ele>
<time>2017-06-11T05:18:40.748Z</time>
</trkpt>
<trkpt lat="-26.7723273" lon="153.0433037">
<ele>37.675</ele>
<time>2017-06-11T05:18:42.715Z</time>
</trkpt>
<trkpt lat="-26.7728487" lon="153.0432012">
<ele>37.799</ele>
<time>2017-06-11T05:18:44.741Z</time>
</trkpt>
<trkpt lat="-26.7736298" lon="153.0431005">
<ele>38.027</ele>
<time>2017-06-11T05:18:47.745Z</time>
</trkpt>
<trkpt lat="-26.7741543" lon="153.0430479">
<ele>38.226</ele>
<time>2017-06-11T05:18:49.753Z</time>
</trkpt>
<trkpt lat="-26.7749391" lon="153.0430066">
<ele>38.300</ele>
<time>2017-06-11T05:18:52.750Z</time>
</trkpt>
<trkpt lat="-26.7757295" lon="153.0430894">
<ele>38.278</ele>
<time>2017-06-11T05:18:55.780Z</time>
</trkpt>
<trkpt lat="-26.7765014" lon="153.0431869">
<ele>38.246</ele>
<time>2017-06-11T05:18:58.768Z</time>
</trkpt>
<trkpt lat="-26.7772546" lon="153.0433139">
<ele>38.349</ele>
<time>2017-06-11T05:19:01.753Z</time>
</trkpt>
<trkpt lat="-26.7777397" lon="153.0434070">
<ele>38.617</ele>
<time>2017-06-11T05:19:03.718Z</time>
</trkpt>
<trkpt lat="-26.7784646" lon="153.0436027">
<ele>38.920</ele>
<time>2017-06-11T05:19:06.720Z</time>
</trkpt>
<trkpt lat="-26.7791820" lon="153.0437556">
<ele>39.211</ele>
<time>2017-06-11T05:19:09.685Z</time>
</trkpt>
<trkpt lat="-26.7796640" lon="153.0438588">
<ele>39.602</ele>
<time>2017-06-11T05:19:11.672Z</time>
</trkpt>
<trkpt lat="-26.7801649" lon="153.0439659">
<ele>40.131</ele>
<time>2017-06-11T05:19:13.705Z</time>
</trkpt>
<trkpt lat="-26.7806635" lon="153.0440889">
<ele>40.768</ele>
<time>2017-06-11T05:19:15.711Z</time>
</trkpt>
<trkpt lat="-26.7814194" lon="153.0442509">
<ele>41.468</ele>
<time>2017-06-11T05:19:18.733Z</time>
</trkpt>
<trkpt lat="-26.7821328" lon="153.0444372">
<ele>42.200</ele>
<time>2017-06-11T05:19:21.681Z</time>
</trkpt>
<trkpt lat="-26.7828322" lon="153.0445885">
<ele>42.999</ele>
<time>2017-06-11T05:19:24.630Z</time>
</trkpt>
<trkpt lat="-26.7833104" lon="153.0446880">
<ele>43.913</ele>
<time>2017-06-11T05:19:26.659Z</time>
</trkpt>
<trkpt lat="-26.7837805" lon="153.0448362">
<ele>44.795</ele>
<time>2017-06-11T05:19:28.705Z</time>
</trkpt>
<trkpt lat="-26.7844655" lon="153.0449855">
<ele>45.423</ele>
<time>2017-06-11T05:19:31.659Z</time>
</trkpt>
<trkpt lat="-26.7849309" lon="153.0450870">
<ele>45.840</ele>
<time>2017-06-11T05:19:33.675Z</time>
</trkpt>
<trkpt lat="-26.7856431" lon="153.0452050">
<ele>46.336</ele>
<time>2017-06-11T05:19:36.700Z</time>
</trkpt>
<trkpt lat="-26.7861087" lon="153.0453133">
<ele>47.137</ele>
<time>2017-06-11T05:19:38.681Z</time>
</trkpt>
<trkpt lat="-26.7868152" lon="153.0454139">
<ele>48.164</ele>
<time>2017-06-11T05:19:41.656Z</time>
</trkpt>
<trkpt lat="-26.7872875" lon="153.0454515">
<ele>49.036</ele>
<time>2017-06-11T05:19:43.657Z</time>
</trkpt>
<trkpt lat="-26.7877344" lon="153.0454957">
<ele>49.380</ele>
<time>2017-06-11T05:19:45.590Z</time>
</trkpt>
<trkpt lat="-26.7884304" lon="153.0455381">
<ele>49.171</ele>
<time>2017-06-11T05:19:48.596Z</time>
</trkpt>
<trkpt lat="-26.7889173" lon="153.0455459">
<ele>48.710</ele>
<time>2017-06-11T05:19:50.620Z</time>
</trkpt>
<trkpt lat="-26.7896701" lon="153.0455224">
<ele>48.340</ele>
<time>2017-06-11T05:19:53.675Z</time>
</trkpt>
<trkpt lat="-26.7901712" lon="153.0454785">
<ele>48.221</ele>
<time>2017-06-11T05:19:55.702Z</time>
</trkpt>
<trkpt lat="-26.7906419" lon="153.0454142">
<ele>48.318</ele>
<time>2017-06-11T05:19:57.641Z</time>
</trkpt>
<trkpt lat="-26.7911276" lon="153.0453440">
<ele>48.455</ele>
<time>2017-06-11T05:19:59.648Z</time>
</trkpt>
<trkpt lat="-26.7916248" lon="153.0452723">
<ele>48.503</ele>
<time>2017-06-11T05:20:01.667Z</time>
</trkpt>
<trkpt lat="-26.7923834" lon="153.0451532">
<ele>48.483</ele>
<time>2017-06-11T05:20:04.708Z</time>
</trkpt>
<trkpt lat="-26.7928628" lon="153.0449972">
<ele>48.468</ele>
<time>2017-06-11T05:20:06.683Z</time>
</trkpt>
<trkpt lat="-26.7933576" lon="153.0448699">
<ele>48.495</ele>
<time>2017-06-11T05:20:08.692Z</time>
</trkpt>
<trkpt lat="-26.7940846" lon="153.0446351">
<ele>48.551</ele>
<time>2017-06-11T05:20:11.684Z</time>
</trkpt>
<trkpt lat="-26.7945686" lon="153.0444770">
<ele>48.584</ele>
<time>2017-06-11T05:20:13.680Z</time>
</trkpt>
<trkpt lat="-26.7952956" lon="153.0442259">
<ele>48.561</ele>
<time>2017-06-11T05:20:16.704Z</time>
</trkpt>
<trkpt lat="-26.7959843" lon="153.0439652">
<ele>48.448</ele>
<time>2017-06-11T05:20:19.644Z</time>
</trkpt>
<trkpt lat="-26.7964590" lon="153.0438106">
<ele>48.175</ele>
<time>2017-06-11T05:20:21.657Z</time>
</trkpt>
<trkpt lat="-26.7971881" lon="153.0435777">
<ele>47.797</ele>
<time>2017-06-11T05:20:24.705Z</time>
</trkpt>
<trkpt lat="-26.7976620" lon="153.0434095">
<ele>47.468</ele>
<time>2017-06-11T05:20:26.679Z</time>
</trkpt>
<trkpt lat="-26.7981454" lon="153.0432185">
<ele>47.183</ele>
<time>2017-06-11T05:20:28.706Z</time>
</trkpt>
<trkpt lat="-26.7988779" lon="153.0430147">
<ele>46.856</ele>
<time>2017-06-11T05:20:31.697Z</time>
</trkpt>
<trkpt lat="-26.7993649" lon="153.0428359">
<ele>46.398</ele>
<time>2017-06-11T05:20:33.721Z</time>
</trkpt>
<trkpt lat="-26.8001058" lon="153.0425786">
<ele>45.744</ele>
<time>2017-06-11T05:20:36.759Z</time>
</trkpt>
<trkpt lat="-26.8005918" lon="153.0424385">
<ele>44.955</ele>
<time>2017-06-11T05:20:38.724Z</time>
</trkpt>
<trkpt lat="-26.8013108" lon="153.0421649">
<ele>44.100</ele>
<time>2017-06-11T05:20:41.713Z</time>
</trkpt>
<trkpt lat="-26.8017951" lon="153.0420092">
<ele>43.216</ele>
<time>2017-06-11T05:20:43.683Z</time>
</trkpt>
<trkpt lat="-26.8023163" lon="153.0418277">
<ele>42.483</ele>
<time>2017-06-11T05:20:45.745Z</time>
</trkpt>
<trkpt lat="-26.8031314" lon="153.0415526">
<ele>42.118</ele>
<time>2017-06-11T05:20:48.845Z</time>
</trkpt>
<trkpt lat="-26.8036594" lon="153.0413859">
<ele>42.114</ele>
<time>2017-06-11T05:20:50.825Z</time>
</trkpt>
<trkpt lat="-26.8041751" lon="153.0412262">
<ele>42.247</ele>
<time>2017-06-11T05:20:52.799Z</time>
</trkpt>
<trkpt lat="-26.8046555" lon="153.0410278">
<ele>42.268</ele>
<time>2017-06-11T05:20:54.769Z</time>
</trkpt>
<trkpt lat="-26.8053642" lon="153.0408108">
<ele>41.933</ele>
<time>2017-06-11T05:20:57.707Z</time>
</trkpt>
<trkpt lat="-26.8058323" lon="153.0406384">
<ele>41.167</ele>
<time>2017-06-11T05:20:59.706Z</time>
</trkpt>
<trkpt lat="-26.8063143" lon="153.0404866">
<ele>40.260</ele>
<time>2017-06-11T05:21:01.715Z</time>
</trkpt>
<trkpt lat="-26.8068014" lon="153.0403464">
<ele>39.610</ele>
<time>2017-06-11T05:21:03.722Z</time>
</trkpt>
<trkpt lat="-26.8075091" lon="153.0400881">
<ele>39.369</ele>
<time>2017-06-11T05:21:06.686Z</time>
</trkpt>
<trkpt lat="-26.8079930" lon="153.0399045">
<ele>39.503</ele>
<time>2017-06-11T05:21:08.689Z</time>
</trkpt>
<trkpt lat="-26.8084981" lon="153.0397473">
<ele>39.905</ele>
<time>2017-06-11T05:21:10.704Z</time>
</trkpt>
<trkpt lat="-26.8092588" lon="153.0395019">
<ele>40.486</ele>
<time>2017-06-11T05:21:13.710Z</time>
</trkpt>
<trkpt lat="-26.8097714" lon="153.0393387">
<ele>41.248</ele>
<time>2017-06-11T05:21:15.709Z</time>
</trkpt>
<trkpt lat="-26.8105488" lon="153.0390688">
<ele>42.048</ele>
<time>2017-06-11T05:21:18.724Z</time>
</trkpt>
<trkpt lat="-26.8113466" lon="153.0388359">
<ele>42.640</ele>
<time>2017-06-11T05:21:21.744Z</time>
</trkpt>
<trkpt lat="-26.8121463" lon="153.0385974">
<ele>42.979</ele>
<time>2017-06-11T05:21:24.753Z</time>
</trkpt>
<trkpt lat="-26.8126715" lon="153.0384173">
<ele>43.237</ele>
<time>2017-06-11T05:21:26.755Z</time>
</trkpt>
<trkpt lat="-26.8134553" lon="153.0381585">
<ele>43.551</ele>
<time>2017-06-11T05:21:29.746Z</time>
</trkpt>
<trkpt lat="-26.8139943" lon="153.0380281">
<ele>43.868</ele>
<time>2017-06-11T05:21:31.778Z</time>
</trkpt>
<trkpt lat="-26.8144997" lon="153.0378817">
<ele>44.061</ele>
<time>2017-06-11T05:21:33.752Z</time>
</trkpt>
<trkpt lat="-26.8149862" lon="153.0377574">
<ele>44.015</ele>
<time>2017-06-11T05:21:35.704Z</time>
</trkpt>
<trkpt lat="-26.8157052" lon="153.0375061">
<ele>43.631</ele>
<time>2017-06-11T05:21:38.684Z</time>
</trkpt>
<trkpt lat="-26.8162212" lon="153.0374121">
<ele>43.082</ele>
<time>2017-06-11T05:21:40.727Z</time>
</trkpt>
<trkpt lat="-26.8167138" lon="153.0372384">
<ele>42.693</ele>
<time>2017-06-11T05:21:42.723Z</time>
</trkpt>
<trkpt lat="-26.8174661" lon="153.0370217">
<ele>42.626</ele>
<time>2017-06-11T05:21:45.703Z</time>
</trkpt>
<trkpt lat="-26.8179891" lon="153.0368922">
<ele>42.936</ele>
<time>2017-06-11T05:21:47.740Z</time>
</trkpt>
<trkpt lat="-26.8184960" lon="153.0367540">
<ele>43.554</ele>
<time>2017-06-11T05:21:49.738Z</time>
</trkpt>
<trkpt lat="-26.8192402" lon="153.0365842">
<ele>44.192</ele>
<time>2017-06-11T05:21:52.702Z</time>
</trkpt>
<trkpt lat="-26.8197107" lon="153.0364263">
<ele>44.599</ele>
<time>2017-06-11T05:21:54.675Z</time>
</trkpt>
<trkpt lat="-26.8201894" lon="153.0362967">
<ele>44.777</ele>
<time>2017-06-11T05:21:56.669Z</time>
</trkpt>
<trkpt lat="-26.8206875" lon="153.0361808">
<ele>44.930</ele>
<time>2017-06-11T05:21:58.701Z</time>
</trkpt>
<trkpt lat="-26.8211861" lon="153.0360480">
<ele>45.278</ele>
<time>2017-06-11T05:22:00.738Z</time>
</trkpt>
<trkpt lat="-26.8218894" lon="153.0358765">
<ele>45.815</ele>
<time>2017-06-11T05:22:03.669Z</time>
</trkpt>
<trkpt lat="-26.8225846" lon="153.0357578">
<ele>46.314</ele>
<time>2017-06-11T05:22:06.620Z</time>
</trkpt>
<trkpt lat="-26.8230521" lon="153.0356098">
<ele>46.669</ele>
<time>2017-06-11T05:22:08.643Z</time>
</trkpt>
<trkpt lat="-26.8237692" lon="153.0354268">
<ele>46.978</ele>
<time>2017-06-11T05:22:11.649Z</time>
</trkpt>
<trkpt lat="-26.8242831" lon="153.0353001">
<ele>47.412</ele>
<time>2017-06-11T05:22:13.720Z</time>
</trkpt>
<trkpt lat="-26.8250500" lon="153.0351128">
<ele>48.075</ele>
<time>2017-06-11T05:22:16.753Z</time>
</trkpt>
<trkpt lat="-26.8257832" lon="153.0349307">
<ele>48.801</ele>
<time>2017-06-11T05:22:19.667Z</time>
</trkpt>
<trkpt lat="-26.8262791" lon="153.0347920">
<ele>49.247</ele>
<time>2017-06-11T05:22:21.652Z</time>
</trkpt>
<trkpt lat="-26.8270552" lon="153.0345971">
<ele>49.312</ele>
<time>2017-06-11T05:22:24.692Z</time>
</trkpt>
<trkpt lat="-26.8278486" lon="153.0344120">
<ele>49.169</ele>
<time>2017-06-11T05:22:27.723Z</time>
</trkpt>
<trkpt lat="-26.8283807" lon="153.0343157">
<ele>49.021</ele>
<time>2017-06-11T05:22:29.719Z</time>
</trkpt>
<trkpt lat="-26.8289165" lon="153.0342100">
<ele>48.918</ele>
<time>2017-06-11T05:22:31.737Z</time>
</trkpt>
<trkpt lat="-26.8294435" lon="153.0341079">
<ele>48.760</ele>
<time>2017-06-11T05:22:33.724Z</time>
</trkpt>
<trkpt lat="-26.8302513" lon="153.0339472">
<ele>48.460</ele>
<time>2017-06-11T05:22:36.765Z</time>
</trkpt>
<trkpt lat="-26.8310493" lon="153.0337554">
<ele>48.027</ele>
<time>2017-06-11T05:22:39.764Z</time>
</trkpt>
<trkpt lat="-26.8315784" lon="153.0336475">
<ele>47.555</ele>
<time>2017-06-11T05:22:41.728Z</time>
</trkpt>
<trkpt lat="-26.8321207" lon="153.0335324">
<ele>47.175</ele>
<time>2017-06-11T05:22:43.736Z</time>
</trkpt>
<trkpt lat="-26.8329263" lon="153.0333512">
<ele>46.965</ele>
<time>2017-06-11T05:22:46.721Z</time>
</trkpt>
<trkpt lat="-26.8334670" lon="153.0332518">
<ele>46.865</ele>
<time>2017-06-11T05:22:48.729Z</time>
</trkpt>
<trkpt lat="-26.8342611" lon="153.0331330">
<ele>46.781</ele>
<time>2017-06-11T05:22:51.685Z</time>
</trkpt>
<trkpt lat="-26.8350729" lon="153.0329242">
<ele>46.704</ele>
<time>2017-06-11T05:22:54.719Z</time>
</trkpt>
<trkpt lat="-26.8356297" lon="153.0328192">
<ele>46.728</ele>
<time>2017-06-11T05:22:56.731Z</time>
</trkpt>
<trkpt lat="-26.8364547" lon="153.0325973">
<ele>46.889</ele>
<time>2017-06-11T05:22:59.740Z</time>
</trkpt>
<trkpt lat="-26.8370279" lon="153.0324847">
<ele>47.048</ele>
<time>2017-06-11T05:23:01.809Z</time>
</trkpt>
<trkpt lat="-26.8378484" lon="153.0323214">
<ele>47.049</ele>
<time>2017-06-11T05:23:04.775Z</time>
</trkpt>
<trkpt lat="-26.8386844" lon="153.0321481">
<ele>46.845</ele>
<time>2017-06-11T05:23:07.787Z</time>
</trkpt>
<trkpt lat="-26.8395172" lon="153.0319988">
<ele>46.432</ele>
<time>2017-06-11T05:23:10.765Z</time>
</trkpt>
<trkpt lat="-26.8403536" lon="153.0318214">
<ele>45.903</ele>
<time>2017-06-11T05:23:13.773Z</time>
</trkpt>
<trkpt lat="-26.8408988" lon="153.0316733">
<ele>45.447</ele>
<time>2017-06-11T05:23:15.759Z</time>
</trkpt>
<trkpt lat="-26.8417253" lon="153.0315241">
<ele>45.135</ele>
<time>2017-06-11T05:23:18.727Z</time>
</trkpt>
<trkpt lat="-26.8422748" lon="153.0313926">
<ele>44.786</ele>
<time>2017-06-11T05:23:20.720Z</time>
</trkpt>
<trkpt lat="-26.8430905" lon="153.0311362">
<ele>44.257</ele>
<time>2017-06-11T05:23:23.719Z</time>
</trkpt>
<trkpt lat="-26.8439104" lon="153.0308962">
<ele>43.675</ele>
<time>2017-06-11T05:23:26.713Z</time>
</trkpt>
<trkpt lat="-26.8447157" lon="153.0305993">
<ele>43.184</ele>
<time>2017-06-11T05:23:29.710Z</time>
</trkpt>
<trkpt lat="-26.8452532" lon="153.0304153">
<ele>42.815</ele>
<time>2017-06-11T05:23:31.700Z</time>
</trkpt>
<trkpt lat="-26.8460505" lon="153.0301152">
<ele>42.608</ele>
<time>2017-06-11T05:23:34.681Z</time>
</trkpt>
<trkpt lat="-26.8465645" lon="153.0298679">
<ele>42.559</ele>
<time>2017-06-11T05:23:36.667Z</time>
</trkpt>
<trkpt lat="-26.8473303" lon="153.0294908">
<ele>42.646</ele>
<time>2017-06-11T05:23:39.634Z</time>
</trkpt>
<trkpt lat="-26.8478583" lon="153.0292614">
<ele>42.923</ele>
<time>2017-06-11T05:23:41.639Z</time>
</trkpt>
<trkpt lat="-26.8486142" lon="153.0288447">
<ele>43.406</ele>
<time>2017-06-11T05:23:44.624Z</time>
</trkpt>
<trkpt lat="-26.8493463" lon="153.0283910">
<ele>43.986</ele>
<time>2017-06-11T05:23:47.597Z</time>
</trkpt>
<trkpt lat="-26.8500891" lon="153.0279483">
<ele>44.499</ele>
<time>2017-06-11T05:23:50.586Z</time>
</trkpt>
<trkpt lat="-26.8508167" lon="153.0274708">
<ele>44.824</ele>
<time>2017-06-11T05:23:53.574Z</time>
</trkpt>
<trkpt lat="-26.8512921" lon="153.0271244">
<ele>44.922</ele>
<time>2017-06-11T05:23:55.579Z</time>
</trkpt>
<trkpt lat="-26.8519964" lon="153.0265957">
<ele>44.759</ele>
<time>2017-06-11T05:23:58.578Z</time>
</trkpt>
<trkpt lat="-26.8526621" lon="153.0260163">
<ele>44.245</ele>
<time>2017-06-11T05:24:01.564Z</time>
</trkpt>
<trkpt lat="-26.8531153" lon="153.0256272">
<ele>43.423</ele>
<time>2017-06-11T05:24:03.578Z</time>
</trkpt>
<trkpt lat="-26.8535513" lon="153.0252265">
<ele>42.575</ele>
<time>2017-06-11T05:24:05.564Z</time>
</trkpt>
<trkpt lat="-26.8539685" lon="153.0248151">
<ele>41.937</ele>
<time>2017-06-11T05:24:07.531Z</time>
</trkpt>
<trkpt lat="-26.8546086" lon="153.0242027">
<ele>41.480</ele>
<time>2017-06-11T05:24:10.519Z</time>
</trkpt>
<trkpt lat="-26.8552342" lon="153.0235683">
<ele>41.044</ele>
<time>2017-06-11T05:24:13.509Z</time>
</trkpt>
<trkpt lat="-26.8558405" lon="153.0229094">
<ele>40.497</ele>
<time>2017-06-11T05:24:16.496Z</time>
</trkpt>
<trkpt lat="-26.8564014" lon="153.0222041">
<ele>39.841</ele>
<time>2017-06-11T05:24:19.475Z</time>
</trkpt>
<trkpt lat="-26.8569543" lon="153.0214931">
<ele>39.157</ele>
<time>2017-06-11T05:24:22.452Z</time>
</trkpt>
<trkpt lat="-26.8573428" lon="153.0210398">
<ele>38.514</ele>
<time>2017-06-11T05:24:24.442Z</time>
</trkpt>
<trkpt lat="-26.8577141" lon="153.0205722">
<ele>38.006</ele>
<time>2017-06-11T05:24:26.425Z</time>
</trkpt>
<trkpt lat="-26.8583160" lon="153.0199062">
<ele>37.664</ele>
<time>2017-06-11T05:24:29.426Z</time>
</trkpt>
<trkpt lat="-26.8586919" lon="153.0194362">
<ele>37.394</ele>
<time>2017-06-11T05:24:31.420Z</time>
</trkpt>
<trkpt lat="-26.8590827" lon="153.0189850">
<ele>37.180</ele>
<time>2017-06-11T05:24:33.410Z</time>
</trkpt>
<trkpt lat="-26.8594943" lon="153.0185601">
<ele>37.076</ele>
<time>2017-06-11T05:24:35.399Z</time>
</trkpt>
<trkpt lat="-26.8599268" lon="153.0181560">
<ele>37.078</ele>
<time>2017-06-11T05:24:37.398Z</time>
</trkpt>
<trkpt lat="-26.8605436" lon="153.0175105">
<ele>37.147</ele>
<time>2017-06-11T05:24:40.389Z</time>
</trkpt>
<trkpt lat="-26.8609728" lon="153.0170991">
<ele>37.250</ele>
<time>2017-06-11T05:24:42.388Z</time>
</trkpt>
<trkpt lat="-26.8614148" lon="153.0167002">
<ele>37.349</ele>
<time>2017-06-11T05:24:44.394Z</time>
</trkpt>
<trkpt lat="-26.8618394" lon="153.0162889">
<ele>37.356</ele>
<time>2017-06-11T05:24:46.377Z</time>
</trkpt>
<trkpt lat="-26.8622927" lon="153.0159185">
<ele>37.223</ele>
<time>2017-06-11T05:24:48.364Z</time>
</trkpt>
<trkpt lat="-26.8627333" lon="153.0155306">
<ele>37.041</ele>
<time>2017-06-11T05:24:50.355Z</time>
</trkpt>
<trkpt lat="-26.8634147" lon="153.0149779">
<ele>36.943</ele>
<time>2017-06-11T05:24:53.344Z</time>
</trkpt>
<trkpt lat="-26.8638974" lon="153.0146517">
<ele>36.965</ele>
<time>2017-06-11T05:24:55.345Z</time>
</trkpt>
<trkpt lat="-26.8645889" lon="153.0141186">
<ele>37.054</ele>
<time>2017-06-11T05:24:58.329Z</time>
</trkpt>
<trkpt lat="-26.8650652" lon="153.0138115">
<ele>37.100</ele>
<time>2017-06-11T05:25:00.302Z</time>
</trkpt>
<trkpt lat="-26.8657562" lon="153.0133233">
<ele>37.033</ele>
<time>2017-06-11T05:25:03.271Z</time>
</trkpt>
<trkpt lat="-26.8662226" lon="153.0130037">
<ele>36.886</ele>
<time>2017-06-11T05:25:05.269Z</time>
</trkpt>
<trkpt lat="-26.8667141" lon="153.0127030">
<ele>36.750</ele>
<time>2017-06-11T05:25:07.312Z</time>
</trkpt>
<trkpt lat="-26.8671987" lon="153.0124063">
<ele>36.715</ele>
<time>2017-06-11T05:25:09.307Z</time>
</trkpt>
<trkpt lat="-26.8679529" lon="153.0119710">
<ele>36.860</ele>
<time>2017-06-11T05:25:12.343Z</time>
</trkpt>
<trkpt lat="-26.8686967" lon="153.0115633">
<ele>37.145</ele>
<time>2017-06-11T05:25:15.302Z</time>
</trkpt>
<trkpt lat="-26.8691996" lon="153.0112775">
<ele>37.407</ele>
<time>2017-06-11T05:25:17.316Z</time>
</trkpt>
<trkpt lat="-26.8697136" lon="153.0109953">
<ele>37.569</ele>
<time>2017-06-11T05:25:19.348Z</time>
</trkpt>
<trkpt lat="-26.8702474" lon="153.0107755">
<ele>37.685</ele>
<time>2017-06-11T05:25:21.356Z</time>
</trkpt>
<trkpt lat="-26.8707745" lon="153.0105381">
<ele>37.803</ele>
<time>2017-06-11T05:25:23.354Z</time>
</trkpt>
<trkpt lat="-26.8713077" lon="153.0103111">
<ele>37.980</ele>
<time>2017-06-11T05:25:25.362Z</time>
</trkpt>
<trkpt lat="-26.8720937" lon="153.0099798">
<ele>38.247</ele>
<time>2017-06-11T05:25:28.334Z</time>
</trkpt>
<trkpt lat="-26.8728925" lon="153.0096913">
<ele>38.542</ele>
<time>2017-06-11T05:25:31.318Z</time>
</trkpt>
<trkpt lat="-26.8734316" lon="153.0094921">
<ele>38.831</ele>
<time>2017-06-11T05:25:33.327Z</time>
</trkpt>
<trkpt lat="-26.8742710" lon="153.0092235">
<ele>39.139</ele>
<time>2017-06-11T05:25:36.357Z</time>
</trkpt>
<trkpt lat="-26.8748421" lon="153.0090547">
<ele>39.505</ele>
<time>2017-06-11T05:25:38.365Z</time>
</trkpt>
<trkpt lat="-26.8754085" lon="153.0088570">
<ele>40.040</ele>
<time>2017-06-11T05:25:40.361Z</time>
</trkpt>
<trkpt lat="-26.8763352" lon="153.0086233">
<ele>40.841</ele>
<time>2017-06-11T05:25:43.534Z</time>
</trkpt>
<trkpt lat="-26.8771700" lon="153.0084124">
<ele>41.851</ele>
<time>2017-06-11T05:25:46.443Z</time>
</trkpt>
<trkpt lat="-26.8780109" lon="153.0082165">
<ele>42.796</ele>
<time>2017-06-11T05:25:49.428Z</time>
</trkpt>
<trkpt lat="-26.8785745" lon="153.0080955">
<ele>43.229</ele>
<time>2017-06-11T05:25:51.423Z</time>
</trkpt>
<trkpt lat="-26.8794133" lon="153.0078631">
<ele>43.047</ele>
<time>2017-06-11T05:25:54.386Z</time>
</trkpt>
<trkpt lat="-26.8802976" lon="153.0076495">
<ele>42.733</ele>
<time>2017-06-11T05:25:57.416Z</time>
</trkpt>
<trkpt lat="-26.8808711" lon="153.0075297">
<ele>42.697</ele>
<time>2017-06-11T05:25:59.377Z</time>
</trkpt>
<trkpt lat="-26.8816982" lon="153.0072817">
<ele>42.948</ele>
<time>2017-06-11T05:26:02.325Z</time>
</trkpt>
<trkpt lat="-26.8822501" lon="153.0071274">
<ele>43.385</ele>
<time>2017-06-11T05:26:04.309Z</time>
</trkpt>
<trkpt lat="-26.8828077" lon="153.0069437">
<ele>43.844</ele>
<time>2017-06-11T05:26:06.315Z</time>
</trkpt>
<trkpt lat="-26.8837185" lon="153.0067186">
<ele>44.159</ele>
<time>2017-06-11T05:26:09.402Z</time>
</trkpt>
<trkpt lat="-26.8846317" lon="153.0064534">
<ele>44.457</ele>
<time>2017-06-11T05:26:12.415Z</time>
</trkpt>
<trkpt lat="-26.8851846" lon="153.0062376">
<ele>44.897</ele>
<time>2017-06-11T05:26:14.352Z</time>
</trkpt>
<trkpt lat="-26.8859893" lon="153.0060205">
<ele>45.324</ele>
<time>2017-06-11T05:26:17.247Z</time>
</trkpt>
<trkpt lat="-26.8865285" lon="153.0058717">
<ele>45.461</ele>
<time>2017-06-11T05:26:19.241Z</time>
</trkpt>
<trkpt lat="-26.8873307" lon="153.0056156">
<ele>45.296</ele>
<time>2017-06-11T05:26:22.236Z</time>
</trkpt>
<trkpt lat="-26.8878765" lon="153.0054698">
<ele>45.046</ele>
<time>2017-06-11T05:26:24.245Z</time>
</trkpt>
<trkpt lat="-26.8884165" lon="153.0053075">
<ele>44.894</ele>
<time>2017-06-11T05:26:26.239Z</time>
</trkpt>
<trkpt lat="-26.8889636" lon="153.0051608">
<ele>44.840</ele>
<time>2017-06-11T05:26:28.240Z</time>
</trkpt>
<trkpt lat="-26.8895045" lon="153.0049925">
<ele>44.796</ele>
<time>2017-06-11T05:26:30.234Z</time>
</trkpt>
<trkpt lat="-26.8903133" lon="153.0047493">
<ele>44.630</ele>
<time>2017-06-11T05:26:33.209Z</time>
</trkpt>
<trkpt lat="-26.8911191" lon="153.0044715">
<ele>44.335</ele>
<time>2017-06-11T05:26:36.209Z</time>
</trkpt>
<trkpt lat="-26.8919263" lon="153.0042162">
<ele>44.066</ele>
<time>2017-06-11T05:26:39.192Z</time>
</trkpt>
<trkpt lat="-26.8924677" lon="153.0040356">
<ele>43.906</ele>
<time>2017-06-11T05:26:41.199Z</time>
</trkpt>
<trkpt lat="-26.8930006" lon="153.0038504">
<ele>43.777</ele>
<time>2017-06-11T05:26:43.185Z</time>
</trkpt>
<trkpt lat="-26.8938115" lon="153.0035733">
<ele>43.573</ele>
<time>2017-06-11T05:26:46.205Z</time>
</trkpt>
<trkpt lat="-26.8943579" lon="153.0034264">
<ele>43.313</ele>
<time>2017-06-11T05:26:48.204Z</time>
</trkpt>
<trkpt lat="-26.8951798" lon="153.0031666">
<ele>43.129</ele>
<time>2017-06-11T05:26:51.236Z</time>
</trkpt>
<trkpt lat="-26.8959855" lon="153.0028237">
<ele>43.133</ele>
<time>2017-06-11T05:26:54.287Z</time>
</trkpt>
<trkpt lat="-26.8968059" lon="153.0025566">
<ele>43.350</ele>
<time>2017-06-11T05:26:57.296Z</time>
</trkpt>
<trkpt lat="-26.8976119" lon="153.0022791">
<ele>43.699</ele>
<time>2017-06-11T05:27:00.258Z</time>
</trkpt>
<trkpt lat="-26.8984343" lon="153.0020024">
<ele>44.044</ele>
<time>2017-06-11T05:27:03.268Z</time>
</trkpt>
<trkpt lat="-26.8989680" lon="153.0017834">
<ele>44.300</ele>
<time>2017-06-11T05:27:05.261Z</time>
</trkpt>
<trkpt lat="-26.8997881" lon="153.0015134">
<ele>44.447</ele>
<time>2017-06-11T05:27:08.264Z</time>
</trkpt>
<trkpt lat="-26.9006025" lon="153.0012274">
<ele>44.535</ele>
<time>2017-06-11T05:27:11.257Z</time>
</trkpt>
<trkpt lat="-26.9011377" lon="153.0010081">
<ele>44.644</ele>
<time>2017-06-11T05:27:13.253Z</time>
</trkpt>
<trkpt lat="-26.9016734" lon="153.0007873">
<ele>44.773</ele>
<time>2017-06-11T05:27:15.254Z</time>
</trkpt>
<trkpt lat="-26.9024681" lon="153.0004301">
<ele>44.862</ele>
<time>2017-06-11T05:27:18.253Z</time>
</trkpt>
<trkpt lat="-26.9029996" lon="153.0002196">
<ele>44.972</ele>
<time>2017-06-11T05:27:20.228Z</time>
</trkpt>
<trkpt lat="-26.9035418" lon="153.0000226">
<ele>45.176</ele>
<time>2017-06-11T05:27:22.224Z</time>
</trkpt>
<trkpt lat="-26.9043474" lon="152.9997155">
<ele>45.374</ele>
<time>2017-06-11T05:27:25.213Z</time>
</trkpt>
<trkpt lat="-26.9051330" lon="152.9993557">
<ele>45.454</ele>
<time>2017-06-11T05:27:28.204Z</time>
</trkpt>
<trkpt lat="-26.9059515" lon="152.9990540">
<ele>45.453</ele>
<time>2017-06-11T05:27:31.227Z</time>
</trkpt>
<trkpt lat="-26.9065136" lon="152.9988312">
<ele>45.433</ele>
<time>2017-06-11T05:27:33.311Z</time>
</trkpt>
<trkpt lat="-26.9070392" lon="152.9986148">
<ele>45.444</ele>
<time>2017-06-11T05:27:35.269Z</time>
</trkpt>
<trkpt lat="-26.9078551" lon="152.9982992">
<ele>45.534</ele>
<time>2017-06-11T05:27:38.287Z</time>
</trkpt>
<trkpt lat="-26.9086440" lon="152.9979531">
<ele>45.742</ele>
<time>2017-06-11T05:27:41.247Z</time>
</trkpt>
<trkpt lat="-26.9091690" lon="152.9977477">
<ele>45.997</ele>
<time>2017-06-11T05:27:43.200Z</time>
</trkpt>
<trkpt lat="-26.9099635" lon="152.9974447">
<ele>46.163</ele>
<time>2017-06-11T05:27:46.185Z</time>
</trkpt>
<trkpt lat="-26.9105097" lon="152.9973010">
<ele>46.179</ele>
<time>2017-06-11T05:27:48.197Z</time>
</trkpt>
<trkpt lat="-26.9113169" lon="152.9970255">
<ele>46.078</ele>
<time>2017-06-11T05:27:51.209Z</time>
</trkpt>
<trkpt lat="-26.9121238" lon="152.9967603">
<ele>45.927</ele>
<time>2017-06-11T05:27:54.194Z</time>
</trkpt>
<trkpt lat="-26.9129307" lon="152.9964793">
<ele>45.803</ele>
<time>2017-06-11T05:27:57.191Z</time>
</trkpt>
<trkpt lat="-26.9137437" lon="152.9962412">
<ele>45.739</ele>
<time>2017-06-11T05:28:00.184Z</time>
</trkpt>
<trkpt lat="-26.9142880" lon="152.9960911">
<ele>45.798</ele>
<time>2017-06-11T05:28:02.186Z</time>
</trkpt>
<trkpt lat="-26.9151037" lon="152.9958592">
<ele>45.996</ele>
<time>2017-06-11T05:28:05.187Z</time>
</trkpt>
<trkpt lat="-26.9156503" lon="152.9957169">
<ele>46.241</ele>
<time>2017-06-11T05:28:07.188Z</time>
</trkpt>
<trkpt lat="-26.9164730" lon="152.9955061">
<ele>46.484</ele>
<time>2017-06-11T05:28:10.200Z</time>
</trkpt>
<trkpt lat="-26.9172982" lon="152.9953226">
<ele>46.876</ele>
<time>2017-06-11T05:28:13.193Z</time>
</trkpt>
<trkpt lat="-26.9178479" lon="152.9951757">
<ele>47.577</ele>
<time>2017-06-11T05:28:15.195Z</time>
</trkpt>
<trkpt lat="-26.9183981" lon="152.9950361">
<ele>48.451</ele>
<time>2017-06-11T05:28:17.192Z</time>
</trkpt>
<trkpt lat="-26.9189490" lon="152.9949322">
<ele>49.168</ele>
<time>2017-06-11T05:28:19.177Z</time>
</trkpt>
<trkpt lat="-26.9197847" lon="152.9947585">
<ele>49.589</ele>
<time>2017-06-11T05:28:22.195Z</time>
</trkpt>
<trkpt lat="-26.9206158" lon="152.9946348">
<ele>49.772</ele>
<time>2017-06-11T05:28:25.183Z</time>
</trkpt>
<trkpt lat="-26.9214593" lon="152.9944926">
<ele>49.796</ele>
<time>2017-06-11T05:28:28.213Z</time>
</trkpt>
<trkpt lat="-26.9220274" lon="152.9944195">
<ele>49.719</ele>
<time>2017-06-11T05:28:30.226Z</time>
</trkpt>
<trkpt lat="-26.9228801" lon="152.9942523">
<ele>49.589</ele>
<time>2017-06-11T05:28:33.267Z</time>
</trkpt>
<trkpt lat="-26.9237329" lon="152.9941734">
<ele>49.365</ele>
<time>2017-06-11T05:28:36.265Z</time>
</trkpt>
<trkpt lat="-26.9245822" lon="152.9940506">
<ele>48.982</ele>
<time>2017-06-11T05:28:39.262Z</time>
</trkpt>
<trkpt lat="-26.9254397" lon="152.9939543">
<ele>48.505</ele>
<time>2017-06-11T05:28:42.277Z</time>
</trkpt>
<trkpt lat="-26.9260034" lon="152.9938928">
<ele>48.067</ele>
<time>2017-06-11T05:28:44.263Z</time>
</trkpt>
<trkpt lat="-26.9265734" lon="152.9938797">
<ele>47.750</ele>
<time>2017-06-11T05:28:46.265Z</time>
</trkpt>
<trkpt lat="-26.9274274" lon="152.9938091">
<ele>47.594</ele>
<time>2017-06-11T05:28:49.262Z</time>
</trkpt>
<trkpt lat="-26.9279973" lon="152.9937800">
<ele>47.542</ele>
<time>2017-06-11T05:28:51.255Z</time>
</trkpt>
<trkpt lat="-26.9285670" lon="152.9937701">
<ele>47.409</ele>
<time>2017-06-11T05:28:53.251Z</time>
</trkpt>
<trkpt lat="-26.9291400" lon="152.9937370">
<ele>47.060</ele>
<time>2017-06-11T05:28:55.262Z</time>
</trkpt>
<trkpt lat="-26.9297108" lon="152.9937165">
<ele>46.562</ele>
<time>2017-06-11T05:28:57.265Z</time>
</trkpt>
<trkpt lat="-26.9305650" lon="152.9936685">
<ele>46.022</ele>
<time>2017-06-11T05:29:00.263Z</time>
</trkpt>
<trkpt lat="-26.9311321" lon="152.9936513">
<ele>45.385</ele>
<time>2017-06-11T05:29:02.250Z</time>
</trkpt>
<trkpt lat="-26.9317341" lon="152.9936224">
<ele>44.599</ele>
<time>2017-06-11T05:29:04.356Z</time>
</trkpt>
<trkpt lat="-26.9323035" lon="152.9936248">
<ele>43.850</ele>
<time>2017-06-11T05:29:06.346Z</time>
</trkpt>
<trkpt lat="-26.9331555" lon="152.9936275">
<ele>43.386</ele>
<time>2017-06-11T05:29:09.329Z</time>
</trkpt>
<trkpt lat="-26.9340092" lon="152.9935904">
<ele>43.325</ele>
<time>2017-06-11T05:29:12.321Z</time>
</trkpt>
<trkpt lat="-26.9348604" lon="152.9935526">
<ele>43.632</ele>
<time>2017-06-11T05:29:15.309Z</time>
</trkpt>
<trkpt lat="-26.9354352" lon="152.9935457">
<ele>44.084</ele>
<time>2017-06-11T05:29:17.322Z</time>
</trkpt>
<trkpt lat="-26.9362911" lon="152.9935052">
<ele>44.409</ele>
<time>2017-06-11T05:29:20.317Z</time>
</trkpt>
<trkpt lat="-26.9368682" lon="152.9934719">
<ele>44.494</ele>
<time>2017-06-11T05:29:22.333Z</time>
</trkpt>
<trkpt lat="-26.9377204" lon="152.9933724">
<ele>44.394</ele>
<time>2017-06-11T05:29:25.326Z</time>
</trkpt>
<trkpt lat="-26.9382843" lon="152.9932976">
<ele>44.273</ele>
<time>2017-06-11T05:29:27.319Z</time>
</trkpt>
<trkpt lat="-26.9388487" lon="152.9932293">
<ele>44.242</ele>
<time>2017-06-11T05:29:29.314Z</time>
</trkpt>
<trkpt lat="-26.9394128" lon="152.9931674">
<ele>44.233</ele>
<time>2017-06-11T05:29:31.300Z</time>
</trkpt>
<trkpt lat="-26.9399803" lon="152.9931036">
<ele>44.118</ele>
<time>2017-06-11T05:29:33.293Z</time>
</trkpt>
<trkpt lat="-26.9408305" lon="152.9929329">
<ele>43.907</ele>
<time>2017-06-11T05:29:36.311Z</time>
</trkpt>
<trkpt lat="-26.9416767" lon="152.9928137">
<ele>43.731</ele>
<time>2017-06-11T05:29:39.299Z</time>
</trkpt>
<trkpt lat="-26.9422346" lon="152.9926825">
<ele>43.725</ele>
<time>2017-06-11T05:29:41.297Z</time>
</trkpt>
<trkpt lat="-26.9428023" lon="152.9925867">
<ele>43.893</ele>
<time>2017-06-11T05:29:43.303Z</time>
</trkpt>
<trkpt lat="-26.9436432" lon="152.9924071">
<ele>44.073</ele>
<time>2017-06-11T05:29:46.288Z</time>
</trkpt>
<trkpt lat="-26.9442010" lon="152.9922600">
<ele>44.136</ele>
<time>2017-06-11T05:29:48.283Z</time>
</trkpt>
<trkpt lat="-26.9447595" lon="152.9921190">
<ele>44.159</ele>
<time>2017-06-11T05:29:50.275Z</time>
</trkpt>
<trkpt lat="-26.9453178" lon="152.9919819">
<ele>44.281</ele>
<time>2017-06-11T05:29:52.270Z</time>
</trkpt>
<trkpt lat="-26.9461450" lon="152.9917369">
<ele>44.530</ele>
<time>2017-06-11T05:29:55.261Z</time>
</trkpt>
<trkpt lat="-26.9469811" lon="152.9915285">
<ele>44.895</ele>
<time>2017-06-11T05:29:58.258Z</time>
</trkpt>
<trkpt lat="-26.9478003" lon="152.9912542">
<ele>45.356</ele>
<time>2017-06-11T05:30:01.249Z</time>
</trkpt>
<trkpt lat="-26.9483481" lon="152.9910712">
<ele>45.836</ele>
<time>2017-06-11T05:30:03.246Z</time>
</trkpt>
<trkpt lat="-26.9491684" lon="152.9908083">
<ele>46.297</ele>
<time>2017-06-11T05:30:06.234Z</time>
</trkpt>
<trkpt lat="-26.9499631" lon="152.9905219">
<ele>46.778</ele>
<time>2017-06-11T05:30:09.192Z</time>
</trkpt>
<trkpt lat="-26.9507457" lon="152.9902178">
<ele>47.293</ele>
<time>2017-06-11T05:30:12.166Z</time>
</trkpt>
<trkpt lat="-26.9514937" lon="152.9899186">
<ele>47.755</ele>
<time>2017-06-11T05:30:15.094Z</time>
</trkpt>
<trkpt lat="-26.9520011" lon="152.9897139">
<ele>48.007</ele>
<time>2017-06-11T05:30:17.147Z</time>
</trkpt>
<trkpt lat="-26.9527144" lon="152.9894375">
<ele>48.013</ele>
<time>2017-06-11T05:30:20.065Z</time>
</trkpt>
<trkpt lat="-26.9534392" lon="152.9891354">
<ele>47.892</ele>
<time>2017-06-11T05:30:23.082Z</time>
</trkpt>
<trkpt lat="-26.9541796" lon="152.9888369">
<ele>47.803</ele>
<time>2017-06-11T05:30:26.110Z</time>
</trkpt>
<trkpt lat="-26.9546666" lon="152.9886174">
<ele>47.877</ele>
<time>2017-06-11T05:30:28.104Z</time>
</trkpt>
<trkpt lat="-26.9554127" lon="152.9883326">
<ele>48.186</ele>
<time>2017-06-11T05:30:31.088Z</time>
</trkpt>
<trkpt lat="-26.9562437" lon="152.9880316">
<ele>48.839</ele>
<time>2017-06-11T05:30:34.301Z</time>
</trkpt>
<trkpt lat="-26.9567615" lon="152.9878350">
<ele>49.972</ele>
<time>2017-06-11T05:30:36.263Z</time>
</trkpt>
<trkpt lat="-26.9575475" lon="152.9875408">
<ele>51.399</ele>
<time>2017-06-11T05:30:39.222Z</time>
</trkpt>
<trkpt lat="-26.9583483" lon="152.9872348">
<ele>52.752</ele>
<time>2017-06-11T05:30:42.238Z</time>
</trkpt>
<trkpt lat="-26.9591555" lon="152.9869731">
<ele>53.790</ele>
<time>2017-06-11T05:30:45.227Z</time>
</trkpt>
<trkpt lat="-26.9597023" lon="152.9868255">
<ele>54.363</ele>
<time>2017-06-11T05:30:47.228Z</time>
</trkpt>
<trkpt lat="-26.9602422" lon="152.9866465">
<ele>54.506</ele>
<time>2017-06-11T05:30:49.232Z</time>
</trkpt>
<trkpt lat="-26.9607841" lon="152.9864666">
<ele>54.455</ele>
<time>2017-06-11T05:30:51.241Z</time>
</trkpt>
<trkpt lat="-26.9613344" lon="152.9863403">
<ele>54.387</ele>
<time>2017-06-11T05:30:53.239Z</time>
</trkpt>
<trkpt lat="-26.9618768" lon="152.9861710">
<ele>54.335</ele>
<time>2017-06-11T05:30:55.245Z</time>
</trkpt>
<trkpt lat="-26.9626905" lon="152.9859190">
<ele>54.262</ele>
<time>2017-06-11T05:30:58.253Z</time>
</trkpt>
<trkpt lat="-26.9632365" lon="152.9857750">
<ele>54.121</ele>
<time>2017-06-11T05:31:00.251Z</time>
</trkpt>
<trkpt lat="-26.9640577" lon="152.9855411">
<ele>53.882</ele>
<time>2017-06-11T05:31:03.265Z</time>
</trkpt>
<trkpt lat="-26.9645998" lon="152.9853963">
<ele>53.571</ele>
<time>2017-06-11T05:31:05.245Z</time>
</trkpt>
<trkpt lat="-26.9654182" lon="152.9851947">
<ele>53.236</ele>
<time>2017-06-11T05:31:08.232Z</time>
</trkpt>
<trkpt lat="-26.9659583" lon="152.9850538">
<ele>52.862</ele>
<time>2017-06-11T05:31:10.215Z</time>
</trkpt>
<trkpt lat="-26.9668354" lon="152.9848314">
<ele>52.477</ele>
<time>2017-06-11T05:31:13.415Z</time>
</trkpt>
<trkpt lat="-26.9676513" lon="152.9846814">
<ele>52.207</ele>
<time>2017-06-11T05:31:16.348Z</time>
</trkpt>
<trkpt lat="-26.9681995" lon="152.9845714">
<ele>52.116</ele>
<time>2017-06-11T05:31:18.328Z</time>
</trkpt>
<trkpt lat="-26.9690169" lon="152.9843928">
<ele>52.161</ele>
<time>2017-06-11T05:31:21.296Z</time>
</trkpt>
<trkpt lat="-26.9698355" lon="152.9841732">
<ele>52.275</ele>
<time>2017-06-11T05:31:24.297Z</time>
</trkpt>
<trkpt lat="-26.9703967" lon="152.9840701">
<ele>52.379</ele>
<time>2017-06-11T05:31:26.321Z</time>
</trkpt>
<trkpt lat="-26.9709400" lon="152.9839604">
<ele>52.431</ele>
<time>2017-06-11T05:31:28.284Z</time>
</trkpt>
<trkpt lat="-26.9714863" lon="152.9838136">
<ele>52.478</ele>
<time>2017-06-11T05:31:30.276Z</time>
</trkpt>
<trkpt lat="-26.9720404" lon="152.9836880">
<ele>52.589</ele>
<time>2017-06-11T05:31:32.279Z</time>
</trkpt>
<trkpt lat="-26.9728641" lon="152.9834974">
<ele>52.756</ele>
<time>2017-06-11T05:31:35.266Z</time>
</trkpt>
<trkpt lat="-26.9734199" lon="152.9834056">
<ele>53.024</ele>
<time>2017-06-11T05:31:37.265Z</time>
</trkpt>
<trkpt lat="-26.9739704" lon="152.9832893">
<ele>53.496</ele>
<time>2017-06-11T05:31:39.257Z</time>
</trkpt>
<trkpt lat="-26.9747877" lon="152.9830794">
<ele>54.112</ele>
<time>2017-06-11T05:31:42.235Z</time>
</trkpt>
<trkpt lat="-26.9756170" lon="152.9828946">
<ele>54.709</ele>
<time>2017-06-11T05:31:45.232Z</time>
</trkpt>
<trkpt lat="-26.9764388" lon="152.9826780">
<ele>55.178</ele>
<time>2017-06-11T05:31:48.226Z</time>
</trkpt>
<trkpt lat="-26.9772677" lon="152.9824780">
<ele>55.611</ele>
<time>2017-06-11T05:31:51.228Z</time>
</trkpt>
<trkpt lat="-26.9781021" lon="152.9822629">
<ele>56.305</ele>
<time>2017-06-11T05:31:54.237Z</time>
</trkpt>
<trkpt lat="-26.9786592" lon="152.9821072">
<ele>57.380</ele>
<time>2017-06-11T05:31:56.249Z</time>
</trkpt>
<trkpt lat="-26.9794910" lon="152.9818598">
<ele>58.596</ele>
<time>2017-06-11T05:31:59.251Z</time>
</trkpt>
<trkpt lat="-26.9803170" lon="152.9815767">
<ele>59.661</ele>
<time>2017-06-11T05:32:02.248Z</time>
</trkpt>
<trkpt lat="-26.9808586" lon="152.9813634">
<ele>60.522</ele>
<time>2017-06-11T05:32:04.244Z</time>
</trkpt>
<trkpt lat="-26.9816798" lon="152.9810946">
<ele>61.280</ele>
<time>2017-06-11T05:32:07.249Z</time>
</trkpt>
<trkpt lat="-26.9821897" lon="152.9809234">
<ele>61.880</ele>
<time>2017-06-11T05:32:09.166Z</time>
</trkpt>
<trkpt lat="-26.9826964" lon="152.9807021">
<ele>62.221</ele>
<time>2017-06-11T05:32:11.163Z</time>
</trkpt>
<trkpt lat="-26.9834689" lon="152.9803888">
<ele>62.352</ele>
<time>2017-06-11T05:32:14.185Z</time>
</trkpt>
<trkpt lat="-26.9839703" lon="152.9801896">
<ele>62.475</ele>
<time>2017-06-11T05:32:16.151Z</time>
</trkpt>
<trkpt lat="-26.9847278" lon="152.9798972">
<ele>62.705</ele>
<time>2017-06-11T05:32:19.142Z</time>
</trkpt>
<trkpt lat="-26.9854791" lon="152.9795615">
<ele>62.838</ele>
<time>2017-06-11T05:32:22.155Z</time>
</trkpt>
<trkpt lat="-26.9859845" lon="152.9793389">
<ele>62.631</ele>
<time>2017-06-11T05:32:24.158Z</time>
</trkpt>
<trkpt lat="-26.9865019" lon="152.9791528">
<ele>62.232</ele>
<time>2017-06-11T05:32:26.155Z</time>
</trkpt>
<trkpt lat="-26.9872865" lon="152.9789614">
<ele>61.887</ele>
<time>2017-06-11T05:32:29.120Z</time>
</trkpt>
<trkpt lat="-26.9880558" lon="152.9787262">
<ele>61.467</ele>
<time>2017-06-11T05:32:32.077Z</time>
</trkpt>
<trkpt lat="-26.9888740" lon="152.9784939">
<ele>60.708</ele>
<time>2017-06-11T05:32:35.142Z</time>
</trkpt>
<trkpt lat="-26.9897041" lon="152.9783223">
<ele>59.614</ele>
<time>2017-06-11T05:32:38.143Z</time>
</trkpt>
<trkpt lat="-26.9902518" lon="152.9781963">
<ele>58.270</ele>
<time>2017-06-11T05:32:40.131Z</time>
</trkpt>
<trkpt lat="-26.9908189" lon="152.9781440">
<ele>56.762</ele>
<time>2017-06-11T05:32:42.162Z</time>
</trkpt>
<trkpt lat="-26.9916511" lon="152.9780422">
<ele>55.307</ele>
<time>2017-06-11T05:32:45.155Z</time>
</trkpt>
<trkpt lat="-26.9921981" lon="152.9779985">
<ele>53.955</ele>
<time>2017-06-11T05:32:47.118Z</time>
</trkpt>
<trkpt lat="-26.9930449" lon="152.9779605">
<ele>52.599</ele>
<time>2017-06-11T05:32:50.146Z</time>
</trkpt>
<trkpt lat="-26.9936195" lon="152.9779261">
<ele>51.156</ele>
<time>2017-06-11T05:32:52.191Z</time>
</trkpt>
<trkpt lat="-26.9944520" lon="152.9778695">
<ele>49.676</ele>
<time>2017-06-11T05:32:55.166Z</time>
</trkpt>
<trkpt lat="-26.9952901" lon="152.9778245">
<ele>48.376</ele>
<time>2017-06-11T05:32:58.168Z</time>
</trkpt>
<trkpt lat="-26.9958530" lon="152.9778448">
<ele>47.408</ele>
<time>2017-06-11T05:33:00.176Z</time>
</trkpt>
<trkpt lat="-26.9966856" lon="152.9777952">
<ele>46.742</ele>
<time>2017-06-11T05:33:03.156Z</time>
</trkpt>
<trkpt lat="-26.9972449" lon="152.9777775">
<ele>46.259</ele>
<time>2017-06-11T05:33:05.155Z</time>
</trkpt>
<trkpt lat="-26.9978122" lon="152.9777689">
<ele>45.827</ele>
<time>2017-06-11T05:33:07.172Z</time>
</trkpt>
<trkpt lat="-26.9983760" lon="152.9777279">
<ele>45.465</ele>
<time>2017-06-11T05:33:09.177Z</time>
</trkpt>
<trkpt lat="-26.9989383" lon="152.9777086">
<ele>45.248</ele>
<time>2017-06-11T05:33:11.171Z</time>
</trkpt>
<trkpt lat="-26.9995015" lon="152.9776471">
<ele>45.115</ele>
<time>2017-06-11T05:33:13.177Z</time>
</trkpt>
<trkpt lat="-27.0003351" lon="152.9776250">
<ele>44.984</ele>
<time>2017-06-11T05:33:16.153Z</time>
</trkpt>
<trkpt lat="-27.0008930" lon="152.9776392">
<ele>44.889</ele>
<time>2017-06-11T05:33:18.154Z</time>
</trkpt>
<trkpt lat="-27.0017351" lon="152.9776191">
<ele>44.882</ele>
<time>2017-06-11T05:33:21.164Z</time>
</trkpt>
<trkpt lat="-27.0023009" lon="152.9775829">
<ele>45.046</ele>
<time>2017-06-11T05:33:23.182Z</time>
</trkpt>
<trkpt lat="-27.0031349" lon="152.9775115">
<ele>45.536</ele>
<time>2017-06-11T05:33:26.168Z</time>
</trkpt>
<trkpt lat="-27.0037040" lon="152.9775069">
<ele>46.356</ele>
<time>2017-06-11T05:33:28.198Z</time>
</trkpt>
<trkpt lat="-27.0045493" lon="152.9774739">
<ele>47.273</ele>
<time>2017-06-11T05:33:31.206Z</time>
</trkpt>
<trkpt lat="-27.0051106" lon="152.9774484">
<ele>47.985</ele>
<time>2017-06-11T05:33:33.203Z</time>
</trkpt>
<trkpt lat="-27.0059532" lon="152.9773918">
<ele>48.227</ele>
<time>2017-06-11T05:33:36.209Z</time>
</trkpt>
<trkpt lat="-27.0065164" lon="152.9773598">
<ele>47.767</ele>
<time>2017-06-11T05:33:38.214Z</time>
</trkpt>
<trkpt lat="-27.0073578" lon="152.9773302">
<ele>46.679</ele>
<time>2017-06-11T05:33:41.209Z</time>
</trkpt>
<trkpt lat="-27.0081967" lon="152.9773259">
<ele>45.543</ele>
<time>2017-06-11T05:33:44.197Z</time>
</trkpt>
<trkpt lat="-27.0090376" lon="152.9772911">
<ele>44.914</ele>
<time>2017-06-11T05:33:47.193Z</time>
</trkpt>
<trkpt lat="-27.0095966" lon="152.9772642">
<ele>44.908</ele>
<time>2017-06-11T05:33:49.187Z</time>
</trkpt>
<trkpt lat="-27.0104419" lon="152.9771988">
<ele>45.369</ele>
<time>2017-06-11T05:33:52.208Z</time>
</trkpt>
<trkpt lat="-27.0112849" lon="152.9771744">
<ele>45.948</ele>
<time>2017-06-11T05:33:55.212Z</time>
</trkpt>
<trkpt lat="-27.0118447" lon="152.9771248">
<ele>46.302</ele>
<time>2017-06-11T05:33:57.217Z</time>
</trkpt>
<trkpt lat="-27.0126817" lon="152.9770861">
<ele>46.319</ele>
<time>2017-06-11T05:34:00.209Z</time>
</trkpt>
<trkpt lat="-27.0132466" lon="152.9770491">
<ele>46.081</ele>
<time>2017-06-11T05:34:02.219Z</time>
</trkpt>
<trkpt lat="-27.0138072" lon="152.9770848">
<ele>45.780</ele>
<time>2017-06-11T05:34:04.210Z</time>
</trkpt>
<trkpt lat="-27.0146488" lon="152.9771158">
<ele>45.575</ele>
<time>2017-06-11T05:34:07.202Z</time>
</trkpt>
<trkpt lat="-27.0155043" lon="152.9771523">
<ele>45.483</ele>
<time>2017-06-11T05:34:10.245Z</time>
</trkpt>
<trkpt lat="-27.0163537" lon="152.9772424">
<ele>45.391</ele>
<time>2017-06-11T05:34:13.274Z</time>
</trkpt>
<trkpt lat="-27.0169140" lon="152.9772600">
<ele>45.153</ele>
<time>2017-06-11T05:34:15.269Z</time>
</trkpt>
<trkpt lat="-27.0177529" lon="152.9773037">
<ele>44.795</ele>
<time>2017-06-11T05:34:18.269Z</time>
</trkpt>
<trkpt lat="-27.0185890" lon="152.9773252">
<ele>44.658</ele>
<time>2017-06-11T05:34:21.259Z</time>
</trkpt>
<trkpt lat="-27.0191490" lon="152.9773708">
<ele>45.171</ele>
<time>2017-06-11T05:34:23.262Z</time>
</trkpt>
<trkpt lat="-27.0199915" lon="152.9774179">
<ele>46.374</ele>
<time>2017-06-11T05:34:26.265Z</time>
</trkpt>
<trkpt lat="-27.0205554" lon="152.9774677">
<ele>47.910</ele>
<time>2017-06-11T05:34:28.272Z</time>
</trkpt>
<trkpt lat="-27.0213950" lon="152.9774895">
<ele>49.400</ele>
<time>2017-06-11T05:34:31.250Z</time>
</trkpt>
<trkpt lat="-27.0222351" lon="152.9775190">
<ele>50.683</ele>
<time>2017-06-11T05:34:34.240Z</time>
</trkpt>
<trkpt lat="-27.0230742" lon="152.9775525">
<ele>51.688</ele>
<time>2017-06-11T05:34:37.233Z</time>
</trkpt>
<trkpt lat="-27.0236319" lon="152.9776210">
<ele>52.347</ele>
<time>2017-06-11T05:34:39.227Z</time>
</trkpt>
<trkpt lat="-27.0244734" lon="152.9776649">
<ele>52.673</ele>
<time>2017-06-11T05:34:42.221Z</time>
</trkpt>
<trkpt lat="-27.0250364" lon="152.9776918">
<ele>52.773</ele>
<time>2017-06-11T05:34:44.219Z</time>
</trkpt>
<trkpt lat="-27.0258707" lon="152.9777703">
<ele>52.763</ele>
<time>2017-06-11T05:34:47.194Z</time>
</trkpt>
<trkpt lat="-27.0264300" lon="152.9777727">
<ele>52.834</ele>
<time>2017-06-11T05:34:49.187Z</time>
</trkpt>
<trkpt lat="-27.0272682" lon="152.9778372">
<ele>53.086</ele>
<time>2017-06-11T05:34:52.185Z</time>
</trkpt>
<trkpt lat="-27.0281055" lon="152.9779064">
<ele>53.411</ele>
<time>2017-06-11T05:34:55.180Z</time>
</trkpt>
<trkpt lat="-27.0286727" lon="152.9779336">
<ele>53.672</ele>
<time>2017-06-11T05:34:57.197Z</time>
</trkpt>
<trkpt lat="-27.0295122" lon="152.9779806">
<ele>53.934</ele>
<time>2017-06-11T05:35:00.187Z</time>
</trkpt>
<trkpt lat="-27.0303507" lon="152.9780277">
<ele>54.526</ele>
<time>2017-06-11T05:35:03.176Z</time>
</trkpt>
<trkpt lat="-27.0311861" lon="152.9780599">
<ele>55.704</ele>
<time>2017-06-11T05:35:06.164Z</time>
</trkpt>
<trkpt lat="-27.0319812" lon="152.9781154">
<ele>57.205</ele>
<time>2017-06-11T05:35:09.090Z</time>
</trkpt>
<trkpt lat="-27.0325140" lon="152.9781336">
<ele>58.495</ele>
<time>2017-06-11T05:35:11.086Z</time>
</trkpt>
<trkpt lat="-27.0333559" lon="152.9781446">
<ele>59.294</ele>
<time>2017-06-11T05:35:14.155Z</time>
</trkpt>
<trkpt lat="-27.0339171" lon="152.9781090">
<ele>59.700</ele>
<time>2017-06-11T05:35:16.153Z</time>
</trkpt>
<trkpt lat="-27.0347603" lon="152.9781207">
<ele>59.899</ele>
<time>2017-06-11T05:35:19.149Z</time>
</trkpt>
<trkpt lat="-27.0353180" lon="152.9781267">
<ele>59.929</ele>
<time>2017-06-11T05:35:21.134Z</time>
</trkpt>
<trkpt lat="-27.0361743" lon="152.9780893">
<ele>59.780</ele>
<time>2017-06-11T05:35:24.167Z</time>
</trkpt>
<trkpt lat="-27.0367811" lon="152.9780559">
<ele>59.560</ele>
<time>2017-06-11T05:35:26.304Z</time>
</trkpt>
<trkpt lat="-27.0373444" lon="152.9780703">
<ele>59.448</ele>
<time>2017-06-11T05:35:28.285Z</time>
</trkpt>
<trkpt lat="-27.0381947" lon="152.9780380">
<ele>59.565</ele>
<time>2017-06-11T05:35:31.276Z</time>
</trkpt>
<trkpt lat="-27.0387612" lon="152.9780478">
<ele>59.952</ele>
<time>2017-06-11T05:35:33.268Z</time>
</trkpt>
<trkpt lat="-27.0396113" lon="152.9779702">
<ele>60.562</ele>
<time>2017-06-11T05:35:36.271Z</time>
</trkpt>
<trkpt lat="-27.0401787" lon="152.9779307">
<ele>61.179</ele>
<time>2017-06-11T05:35:38.268Z</time>
</trkpt>
<trkpt lat="-27.0407442" lon="152.9779329">
<ele>61.563</ele>
<time>2017-06-11T05:35:40.253Z</time>
</trkpt>
<trkpt lat="-27.0415970" lon="152.9778985">
<ele>61.504</ele>
<time>2017-06-11T05:35:43.256Z</time>
</trkpt>
<trkpt lat="-27.0424510" lon="152.9779043">
<ele>60.736</ele>
<time>2017-06-11T05:35:46.255Z</time>
</trkpt>
<trkpt lat="-27.0430194" lon="152.9778542">
<ele>59.229</ele>
<time>2017-06-11T05:35:48.252Z</time>
</trkpt>
<trkpt lat="-27.0435856" lon="152.9778027">
<ele>57.424</ele>
<time>2017-06-11T05:35:50.243Z</time>
</trkpt>
<trkpt lat="-27.0444419" lon="152.9777745">
<ele>55.808</ele>
<time>2017-06-11T05:35:53.242Z</time>
</trkpt>
<trkpt lat="-27.0450115" lon="152.9777368">
<ele>54.477</ele>
<time>2017-06-11T05:35:55.238Z</time>
</trkpt>
<trkpt lat="-27.0455789" lon="152.9776677">
<ele>53.314</ele>
<time>2017-06-11T05:35:57.240Z</time>
</trkpt>
<trkpt lat="-27.0461597" lon="152.9776160">
<ele>52.237</ele>
<time>2017-06-11T05:35:59.281Z</time>
</trkpt>
<trkpt lat="-27.0470245" lon="152.9775231">
<ele>51.184</ele>
<time>2017-06-11T05:36:02.318Z</time>
</trkpt>
<trkpt lat="-27.0475900" lon="152.9774600">
<ele>49.969</ele>
<time>2017-06-11T05:36:04.308Z</time>
</trkpt>
<trkpt lat="-27.0481580" lon="152.9773866">
<ele>48.403</ele>
<time>2017-06-11T05:36:06.318Z</time>
</trkpt>
<trkpt lat="-27.0487268" lon="152.9773442">
<ele>46.503</ele>
<time>2017-06-11T05:36:08.333Z</time>
</trkpt>
<trkpt lat="-27.0492706" lon="152.9772852">
<ele>44.428</ele>
<time>2017-06-11T05:36:10.292Z</time>
</trkpt>
<trkpt lat="-27.0500597" lon="152.9771824">
<ele>42.375</ele>
<time>2017-06-11T05:36:13.212Z</time>
</trkpt>
<trkpt lat="-27.0505900" lon="152.9771287">
<ele>40.542</ele>
<time>2017-06-11T05:36:15.204Z</time>
</trkpt>
<trkpt lat="-27.0513913" lon="152.9770581">
<ele>38.975</ele>
<time>2017-06-11T05:36:18.189Z</time>
</trkpt>
<trkpt lat="-27.0519334" lon="152.9769867">
<ele>37.685</ele>
<time>2017-06-11T05:36:20.194Z</time>
</trkpt>
<trkpt lat="-27.0527421" lon="152.9769304">
<ele>36.789</ele>
<time>2017-06-11T05:36:23.178Z</time>
</trkpt>
<trkpt lat="-27.0532782" lon="152.9769267">
<ele>36.295</ele>
<time>2017-06-11T05:36:25.164Z</time>
</trkpt>
<trkpt lat="-27.0541008" lon="152.9769302">
<ele>36.021</ele>
<time>2017-06-11T05:36:28.182Z</time>
</trkpt>
<trkpt lat="-27.0546442" lon="152.9769199">
<ele>35.699</ele>
<time>2017-06-11T05:36:30.161Z</time>
</trkpt>
<trkpt lat="-27.0551856" lon="152.9769338">
<ele>35.120</ele>
<time>2017-06-11T05:36:32.147Z</time>
</trkpt>
<trkpt lat="-27.0557228" lon="152.9769985">
<ele>34.301</ele>
<time>2017-06-11T05:36:34.143Z</time>
</trkpt>
<trkpt lat="-27.0562441" lon="152.9770876">
<ele>33.458</ele>
<time>2017-06-11T05:36:36.115Z</time>
</trkpt>
<trkpt lat="-27.0567550" lon="152.9771123">
<ele>32.757</ele>
<time>2017-06-11T05:36:38.068Z</time>
</trkpt>
<trkpt lat="-27.0574793" lon="152.9771356">
<ele>32.202</ele>
<time>2017-06-11T05:36:40.961Z</time>
</trkpt>
<trkpt lat="-27.0579499" lon="152.9771962">
<ele>31.554</ele>
<time>2017-06-11T05:36:42.944Z</time>
</trkpt>
<trkpt lat="-27.0584300" lon="152.9772334">
<ele>30.705</ele>
<time>2017-06-11T05:36:44.968Z</time>
</trkpt>
<trkpt lat="-27.0591571" lon="152.9772575">
<ele>29.930</ele>
<time>2017-06-11T05:36:47.990Z</time>
</trkpt>
<trkpt lat="-27.0596448" lon="152.9772780">
<ele>29.493</ele>
<time>2017-06-11T05:36:50.001Z</time>
</trkpt>
<trkpt lat="-27.0601428" lon="152.9773327">
<ele>29.353</ele>
<time>2017-06-11T05:36:52.024Z</time>
</trkpt>
<trkpt lat="-27.0608906" lon="152.9773737">
<ele>29.451</ele>
<time>2017-06-11T05:36:55.006Z</time>
</trkpt>
<trkpt lat="-27.0613748" lon="152.9773999">
<ele>29.713</ele>
<time>2017-06-11T05:36:56.958Z</time>
</trkpt>
<trkpt lat="-27.0621044" lon="152.9774159">
<ele>29.962</ele>
<time>2017-06-11T05:36:59.945Z</time>
</trkpt>
<trkpt lat="-27.0626024" lon="152.9774657">
<ele>30.158</ele>
<time>2017-06-11T05:37:01.970Z</time>
</trkpt>
<trkpt lat="-27.0633581" lon="152.9775135">
<ele>30.466</ele>
<time>2017-06-11T05:37:04.976Z</time>
</trkpt>
<trkpt lat="-27.0638648" lon="152.9775723">
<ele>30.870</ele>
<time>2017-06-11T05:37:06.983Z</time>
</trkpt>
<trkpt lat="-27.0643557" lon="152.9775904">
<ele>31.143</ele>
<time>2017-06-11T05:37:08.944Z</time>
</trkpt>
<trkpt lat="-27.0648489" lon="152.9776164">
<ele>31.187</ele>
<time>2017-06-11T05:37:10.965Z</time>
</trkpt>
<trkpt lat="-27.0655649" lon="152.9776660">
<ele>31.091</ele>
<time>2017-06-11T05:37:13.945Z</time>
</trkpt>
<trkpt lat="-27.0663041" lon="152.9777190">
<ele>30.916</ele>
<time>2017-06-11T05:37:17.008Z</time>
</trkpt>
<trkpt lat="-27.0670458" lon="152.9777196">
<ele>30.646</ele>
<time>2017-06-11T05:37:20.023Z</time>
</trkpt>
<trkpt lat="-27.0677854" lon="152.9777460">
<ele>30.332</ele>
<time>2017-06-11T05:37:23.015Z</time>
</trkpt>
<trkpt lat="-27.0682888" lon="152.9777048">
<ele>30.093</ele>
<time>2017-06-11T05:37:25.066Z</time>
</trkpt>
<trkpt lat="-27.0687714" lon="152.9776817">
<ele>30.012</ele>
<time>2017-06-11T05:37:27.039Z</time>
</trkpt>
<trkpt lat="-27.0692604" lon="152.9776307">
<ele>30.137</ele>
<time>2017-06-11T05:37:29.046Z</time>
</trkpt>
<trkpt lat="-27.0700204" lon="152.9775467">
<ele>30.505</ele>
<time>2017-06-11T05:37:32.087Z</time>
</trkpt>
<trkpt lat="-27.0708055" lon="152.9774669">
<ele>31.194</ele>
<time>2017-06-11T05:37:35.126Z</time>
</trkpt>
<trkpt lat="-27.0713148" lon="152.9773593">
<ele>32.193</ele>
<time>2017-06-11T05:37:37.112Z</time>
</trkpt>
<trkpt lat="-27.0718181" lon="152.9772643">
<ele>33.222</ele>
<time>2017-06-11T05:37:39.086Z</time>
</trkpt>
<trkpt lat="-27.0723160" lon="152.9771889">
<ele>33.964</ele>
<time>2017-06-11T05:37:41.046Z</time>
</trkpt>
<trkpt lat="-27.0728216" lon="152.9771249">
<ele>34.350</ele>
<time>2017-06-11T05:37:43.042Z</time>
</trkpt>
<trkpt lat="-27.0733214" lon="152.9770155">
<ele>34.481</ele>
<time>2017-06-11T05:37:45.038Z</time>
</trkpt>
<trkpt lat="-27.0738298" lon="152.9769299">
<ele>34.494</ele>
<time>2017-06-11T05:37:47.037Z</time>
</trkpt>
<trkpt lat="-27.0743378" lon="152.9768561">
<ele>34.501</ele>
<time>2017-06-11T05:37:49.014Z</time>
</trkpt>
<trkpt lat="-27.0750812" lon="152.9767239">
<ele>34.601</ele>
<time>2017-06-11T05:37:51.962Z</time>
</trkpt>
<trkpt lat="-27.0755815" lon="152.9766588">
<ele>34.847</ele>
<time>2017-06-11T05:37:53.963Z</time>
</trkpt>
<trkpt lat="-27.0763429" lon="152.9765571">
<ele>35.139</ele>
<time>2017-06-11T05:37:56.982Z</time>
</trkpt>
<trkpt lat="-27.0770944" lon="152.9764060">
<ele>35.329</ele>
<time>2017-06-11T05:37:59.974Z</time>
</trkpt>
<trkpt lat="-27.0775983" lon="152.9763121">
<ele>35.395</ele>
<time>2017-06-11T05:38:01.981Z</time>
</trkpt>
<trkpt lat="-27.0781049" lon="152.9762384">
<ele>35.420</ele>
<time>2017-06-11T05:38:03.976Z</time>
</trkpt>
<trkpt lat="-27.0786110" lon="152.9761560">
<ele>35.491</ele>
<time>2017-06-11T05:38:05.962Z</time>
</trkpt>
<trkpt lat="-27.0793877" lon="152.9760788">
<ele>35.650</ele>
<time>2017-06-11T05:38:08.982Z</time>
</trkpt>
<trkpt lat="-27.0798937" lon="152.9759756">
<ele>35.846</ele>
<time>2017-06-11T05:38:10.974Z</time>
</trkpt>
<trkpt lat="-27.0806655" lon="152.9758322">
<ele>35.917</ele>
<time>2017-06-11T05:38:13.999Z</time>
</trkpt>
<trkpt lat="-27.0814253" lon="152.9756894">
<ele>35.773</ele>
<time>2017-06-11T05:38:16.977Z</time>
</trkpt>
<trkpt lat="-27.0819382" lon="152.9755986">
<ele>35.529</ele>
<time>2017-06-11T05:38:18.987Z</time>
</trkpt>
<trkpt lat="-27.0827103" lon="152.9755075">
<ele>35.317</ele>
<time>2017-06-11T05:38:21.997Z</time>
</trkpt>
<trkpt lat="-27.0834869" lon="152.9754265">
<ele>35.181</ele>
<time>2017-06-11T05:38:25.010Z</time>
</trkpt>
<trkpt lat="-27.0840083" lon="152.9753758">
<ele>35.127</ele>
<time>2017-06-11T05:38:27.020Z</time>
</trkpt>
<trkpt lat="-27.0845215" lon="152.9753868">
<ele>35.104</ele>
<time>2017-06-11T05:38:28.999Z</time>
</trkpt>
<trkpt lat="-27.0852921" lon="152.9753409">
<ele>35.054</ele>
<time>2017-06-11T05:38:31.991Z</time>
</trkpt>
<trkpt lat="-27.0858010" lon="152.9753542">
<ele>34.955</ele>
<time>2017-06-11T05:38:33.957Z</time>
</trkpt>
<trkpt lat="-27.0863049" lon="152.9754029">
<ele>34.834</ele>
<time>2017-06-11T05:38:35.909Z</time>
</trkpt>
<trkpt lat="-27.0870833" lon="152.9754645">
<ele>34.752</ele>
<time>2017-06-11T05:38:38.967Z</time>
</trkpt>
<trkpt lat="-27.0878000" lon="152.9755232">
<ele>34.684</ele>
<time>2017-06-11T05:38:41.871Z</time>
</trkpt>
<trkpt lat="-27.0885250" lon="152.9755110">
<ele>34.552</ele>
<time>2017-06-11T05:38:44.864Z</time>
</trkpt>
<trkpt lat="-27.0890173" lon="152.9755639">
<ele>34.343</ele>
<time>2017-06-11T05:38:46.895Z</time>
</trkpt>
<trkpt lat="-27.0897747" lon="152.9755888">
<ele>34.132</ele>
<time>2017-06-11T05:38:49.942Z</time>
</trkpt>
<trkpt lat="-27.0902766" lon="152.9756171">
<ele>34.036</ele>
<time>2017-06-11T05:38:51.937Z</time>
</trkpt>
<trkpt lat="-27.0910303" lon="152.9756278">
<ele>34.092</ele>
<time>2017-06-11T05:38:54.931Z</time>
</trkpt>
<trkpt lat="-27.0915249" lon="152.9756950">
<ele>34.099</ele>
<time>2017-06-11T05:38:56.922Z</time>
</trkpt>
<trkpt lat="-27.0922717" lon="152.9756746">
<ele>33.905</ele>
<time>2017-06-11T05:38:59.919Z</time>
</trkpt>
<trkpt lat="-27.0927816" lon="152.9757194">
<ele>33.667</ele>
<time>2017-06-11T05:39:01.951Z</time>
</trkpt>
<trkpt lat="-27.0932997" lon="152.9757426">
<ele>33.565</ele>
<time>2017-06-11T05:39:03.975Z</time>
</trkpt>
<trkpt lat="-27.0938338" lon="152.9757768">
<ele>33.604</ele>
<time>2017-06-11T05:39:06.028Z</time>
</trkpt>
<trkpt lat="-27.0943795" lon="152.9758147">
<ele>33.713</ele>
<time>2017-06-11T05:39:08.091Z</time>
</trkpt>
<trkpt lat="-27.0949025" lon="152.9758013">
<ele>33.808</ele>
<time>2017-06-11T05:39:10.068Z</time>
</trkpt>
<trkpt lat="-27.0953997" lon="152.9758969">
<ele>33.833</ele>
<time>2017-06-11T05:39:12.014Z</time>
</trkpt>
<trkpt lat="-27.0961800" lon="152.9758964">
<ele>33.798</ele>
<time>2017-06-11T05:39:15.041Z</time>
</trkpt>
<trkpt lat="-27.0969505" lon="152.9759606">
<ele>33.773</ele>
<time>2017-06-11T05:39:18.027Z</time>
</trkpt>
<trkpt lat="-27.0977265" lon="152.9759759">
<ele>33.838</ele>
<time>2017-06-11T05:39:21.033Z</time>
</trkpt>
<trkpt lat="-27.0982451" lon="152.9760058">
<ele>34.020</ele>
<time>2017-06-11T05:39:23.045Z</time>
</trkpt>
<trkpt lat="-27.0987621" lon="152.9760507">
<ele>34.324</ele>
<time>2017-06-11T05:39:25.055Z</time>
</trkpt>
<trkpt lat="-27.0992727" lon="152.9760780">
<ele>34.752</ele>
<time>2017-06-11T05:39:27.034Z</time>
</trkpt>
<trkpt lat="-27.1000428" lon="152.9761309">
<ele>35.277</ele>
<time>2017-06-11T05:39:30.022Z</time>
</trkpt>
<trkpt lat="-27.1005572" lon="152.9761176">
<ele>35.864</ele>
<time>2017-06-11T05:39:32.018Z</time>
</trkpt>
<trkpt lat="-27.1013313" lon="152.9761656">
<ele>36.469</ele>
<time>2017-06-11T05:39:35.016Z</time>
</trkpt>
<trkpt lat="-27.1018444" lon="152.9762041">
<ele>37.045</ele>
<time>2017-06-11T05:39:37.004Z</time>
</trkpt>
<trkpt lat="-27.1023574" lon="152.9761981">
<ele>37.571</ele>
<time>2017-06-11T05:39:38.993Z</time>
</trkpt>
<trkpt lat="-27.1031368" lon="152.9762700">
<ele>38.032</ele>
<time>2017-06-11T05:39:42.021Z</time>
</trkpt>
<trkpt lat="-27.1036672" lon="152.9762832">
<ele>38.432</ele>
<time>2017-06-11T05:39:44.066Z</time>
</trkpt>
<trkpt lat="-27.1041817" lon="152.9762801">
<ele>38.763</ele>
<time>2017-06-11T05:39:46.050Z</time>
</trkpt>
<trkpt lat="-27.1048980" lon="152.9763365">
<ele>38.852</ele>
<time>2017-06-11T05:39:48.923Z</time>
</trkpt>
<trkpt lat="-27.1056201" lon="152.9763777">
<ele>38.394</ele>
<time>2017-06-11T05:39:51.921Z</time>
</trkpt>
<trkpt lat="-27.1063485" lon="152.9764141">
<ele>37.279</ele>
<time>2017-06-11T05:39:54.934Z</time>
</trkpt>
<trkpt lat="-27.1070982" lon="152.9764414">
<ele>35.724</ele>
<time>2017-06-11T05:39:57.981Z</time>
</trkpt>
<trkpt lat="-27.1076093" lon="152.9764408">
<ele>34.144</ele>
<time>2017-06-11T05:40:00.010Z</time>
</trkpt>
<trkpt lat="-27.1081190" lon="152.9765021">
<ele>32.894</ele>
<time>2017-06-11T05:40:02.019Z</time>
</trkpt>
<trkpt lat="-27.1086204" lon="152.9765199">
<ele>32.045</ele>
<time>2017-06-11T05:40:03.990Z</time>
</trkpt>
<trkpt lat="-27.1093890" lon="152.9765712">
<ele>31.515</ele>
<time>2017-06-11T05:40:07.012Z</time>
</trkpt>
<trkpt lat="-27.1101595" lon="152.9766317">
<ele>31.281</ele>
<time>2017-06-11T05:40:10.008Z</time>
</trkpt>
<trkpt lat="-27.1106743" lon="152.9766372">
<ele>31.430</ele>
<time>2017-06-11T05:40:12.001Z</time>
</trkpt>
<trkpt lat="-27.1111845" lon="152.9766889">
<ele>32.087</ele>
<time>2017-06-11T05:40:13.991Z</time>
</trkpt>
<trkpt lat="-27.1116928" lon="152.9766892">
<ele>33.131</ele>
<time>2017-06-11T05:40:15.982Z</time>
</trkpt>
<trkpt lat="-27.1124349" lon="152.9767164">
<ele>34.166</ele>
<time>2017-06-11T05:40:18.937Z</time>
</trkpt>
<trkpt lat="-27.1129096" lon="152.9767624">
<ele>34.875</ele>
<time>2017-06-11T05:40:20.874Z</time>
</trkpt>
<trkpt lat="-27.1136582" lon="152.9768215">
<ele>35.207</ele>
<time>2017-06-11T05:40:23.922Z</time>
</trkpt>
<trkpt lat="-27.1141566" lon="152.9768557">
<ele>35.434</ele>
<time>2017-06-11T05:40:25.929Z</time>
</trkpt>
<trkpt lat="-27.1146372" lon="152.9768632">
<ele>35.798</ele>
<time>2017-06-11T05:40:27.884Z</time>
</trkpt>
<trkpt lat="-27.1153602" lon="152.9768871">
<ele>36.167</ele>
<time>2017-06-11T05:40:30.871Z</time>
</trkpt>
<trkpt lat="-27.1160784" lon="152.9769348">
<ele>36.345</ele>
<time>2017-06-11T05:40:33.862Z</time>
</trkpt>
<trkpt lat="-27.1168509" lon="152.9769417">
<ele>36.392</ele>
<time>2017-06-11T05:40:36.972Z</time>
</trkpt>
<trkpt lat="-27.1173480" lon="152.9769655">
<ele>36.412</ele>
<time>2017-06-11T05:40:38.932Z</time>
</trkpt>
<trkpt lat="-27.1178460" lon="152.9770009">
<ele>36.351</ele>
<time>2017-06-11T05:40:40.921Z</time>
</trkpt>
<trkpt lat="-27.1186030" lon="152.9770411">
<ele>36.027</ele>
<time>2017-06-11T05:40:43.921Z</time>
</trkpt>
<trkpt lat="-27.1193866" lon="152.9770547">
<ele>35.356</ele>
<time>2017-06-11T05:40:46.965Z</time>
</trkpt>
<trkpt lat="-27.1201393" lon="152.9770957">
<ele>34.422</ele>
<time>2017-06-11T05:40:49.899Z</time>
</trkpt>
<trkpt lat="-27.1208923" lon="152.9771526">
<ele>33.313</ele>
<time>2017-06-11T05:40:52.883Z</time>
</trkpt>
<trkpt lat="-27.1214021" lon="152.9772014">
<ele>32.150</ele>
<time>2017-06-11T05:40:54.899Z</time>
</trkpt>
<trkpt lat="-27.1221632" lon="152.9772342">
<ele>31.219</ele>
<time>2017-06-11T05:40:57.883Z</time>
</trkpt>
<trkpt lat="-27.1226593" lon="152.9772623">
<ele>30.728</ele>
<time>2017-06-11T05:40:59.851Z</time>
</trkpt>
<trkpt lat="-27.1231552" lon="152.9772896">
<ele>30.601</ele>
<time>2017-06-11T05:41:01.843Z</time>
</trkpt>
<trkpt lat="-27.1238952" lon="152.9773045">
<ele>30.642</ele>
<time>2017-06-11T05:41:04.823Z</time>
</trkpt>
<trkpt lat="-27.1246466" lon="152.9773277">
<ele>30.705</ele>
<time>2017-06-11T05:41:07.836Z</time>
</trkpt>
<trkpt lat="-27.1251443" lon="152.9773893">
<ele>30.778</ele>
<time>2017-06-11T05:41:09.832Z</time>
</trkpt>
<trkpt lat="-27.1259090" lon="152.9774093">
<ele>30.897</ele>
<time>2017-06-11T05:41:12.847Z</time>
</trkpt>
<trkpt lat="-27.1264267" lon="152.9774039">
<ele>31.015</ele>
<time>2017-06-11T05:41:14.856Z</time>
</trkpt>
<trkpt lat="-27.1271923" lon="152.9774741">
<ele>31.071</ele>
<time>2017-06-11T05:41:17.837Z</time>
</trkpt>
<trkpt lat="-27.1279598" lon="152.9775006">
<ele>31.071</ele>
<time>2017-06-11T05:41:20.834Z</time>
</trkpt>
<trkpt lat="-27.1287281" lon="152.9776055">
<ele>31.299</ele>
<time>2017-06-11T05:41:23.842Z</time>
</trkpt>
<trkpt lat="-27.1295098" lon="152.9776194">
<ele>32.228</ele>
<time>2017-06-11T05:41:26.854Z</time>
</trkpt>
<trkpt lat="-27.1300328" lon="152.9776162">
<ele>33.839</ele>
<time>2017-06-11T05:41:28.859Z</time>
</trkpt>
<trkpt lat="-27.1305502" lon="152.9776541">
<ele>35.587</ele>
<time>2017-06-11T05:41:30.850Z</time>
</trkpt>
<trkpt lat="-27.1310703" lon="152.9776931">
<ele>37.086</ele>
<time>2017-06-11T05:41:32.852Z</time>
</trkpt>
<trkpt lat="-27.1318431" lon="152.9777426">
<ele>38.290</ele>
<time>2017-06-11T05:41:35.834Z</time>
</trkpt>
<trkpt lat="-27.1323458" lon="152.9777794">
<ele>39.276</ele>
<time>2017-06-11T05:41:37.794Z</time>
</trkpt>
<trkpt lat="-27.1331111" lon="152.9777742">
<ele>40.119</ele>
<time>2017-06-11T05:41:40.795Z</time>
</trkpt>
<trkpt lat="-27.1338850" lon="152.9778332">
<ele>40.864</ele>
<time>2017-06-11T05:41:43.824Z</time>
</trkpt>
<trkpt lat="-27.1346626" lon="152.9778462">
<ele>41.498</ele>
<time>2017-06-11T05:41:46.847Z</time>
</trkpt>
<trkpt lat="-27.1351907" lon="152.9778548">
<ele>41.968</ele>
<time>2017-06-11T05:41:48.898Z</time>
</trkpt>
<trkpt lat="-27.1356929" lon="152.9778821">
<ele>42.327</ele>
<time>2017-06-11T05:41:50.851Z</time>
</trkpt>
<trkpt lat="-27.1362166" lon="152.9779074">
<ele>42.674</ele>
<time>2017-06-11T05:41:52.885Z</time>
</trkpt>
<trkpt lat="-27.1367258" lon="152.9779748">
<ele>42.974</ele>
<time>2017-06-11T05:41:54.873Z</time>
</trkpt>
<trkpt lat="-27.1372445" lon="152.9779793">
<ele>43.156</ele>
<time>2017-06-11T05:41:56.881Z</time>
</trkpt>
<trkpt lat="-27.1380245" lon="152.9780040">
<ele>43.252</ele>
<time>2017-06-11T05:41:59.906Z</time>
</trkpt>
<trkpt lat="-27.1385369" lon="152.9780522">
<ele>43.401</ele>
<time>2017-06-11T05:42:01.904Z</time>
</trkpt>
<trkpt lat="-27.1393052" lon="152.9781037">
<ele>43.681</ele>
<time>2017-06-11T05:42:04.895Z</time>
</trkpt>
<trkpt lat="-27.1400758" lon="152.9781212">
<ele>44.052</ele>
<time>2017-06-11T05:42:07.886Z</time>
</trkpt>
<trkpt lat="-27.1405866" lon="152.9781516">
<ele>44.432</ele>
<time>2017-06-11T05:42:09.867Z</time>
</trkpt>
<trkpt lat="-27.1413602" lon="152.9782059">
<ele>44.597</ele>
<time>2017-06-11T05:42:12.869Z</time>
</trkpt>
<trkpt lat="-27.1421290" lon="152.9782325">
<ele>44.313</ele>
<time>2017-06-11T05:42:15.856Z</time>
</trkpt>
<trkpt lat="-27.1426517" lon="152.9782624">
<ele>43.573</ele>
<time>2017-06-11T05:42:17.883Z</time>
</trkpt>
<trkpt lat="-27.1431661" lon="152.9782851">
<ele>42.586</ele>
<time>2017-06-11T05:42:19.879Z</time>
</trkpt>
<trkpt lat="-27.1439371" lon="152.9783011">
<ele>41.614</ele>
<time>2017-06-11T05:42:22.876Z</time>
</trkpt>
<trkpt lat="-27.1444496" lon="152.9783592">
<ele>40.792</ele>
<time>2017-06-11T05:42:24.871Z</time>
</trkpt>
<trkpt lat="-27.1449676" lon="152.9783059">
<ele>40.147</ele>
<time>2017-06-11T05:42:26.886Z</time>
</trkpt>
<trkpt lat="-27.1454809" lon="152.9783251">
<ele>39.722</ele>
<time>2017-06-11T05:42:28.881Z</time>
</trkpt>
<trkpt lat="-27.1462570" lon="152.9783385">
<ele>39.506</ele>
<time>2017-06-11T05:42:31.897Z</time>
</trkpt>
<trkpt lat="-27.1470326" lon="152.9782597">
<ele>39.415</ele>
<time>2017-06-11T05:42:34.904Z</time>
</trkpt>
<trkpt lat="-27.1475475" lon="152.9782539">
<ele>39.307</ele>
<time>2017-06-11T05:42:36.891Z</time>
</trkpt>
<trkpt lat="-27.1480615" lon="152.9781937">
<ele>39.119</ele>
<time>2017-06-11T05:42:38.892Z</time>
</trkpt>
<trkpt lat="-27.1485747" lon="152.9781722">
<ele>38.942</ele>
<time>2017-06-11T05:42:40.885Z</time>
</trkpt>
<trkpt lat="-27.1493442" lon="152.9781001">
<ele>38.830</ele>
<time>2017-06-11T05:42:43.878Z</time>
</trkpt>
<trkpt lat="-27.1501111" lon="152.9779812">
<ele>38.612</ele>
<time>2017-06-11T05:42:46.875Z</time>
</trkpt>
<trkpt lat="-27.1506256" lon="152.9779108">
<ele>38.092</ele>
<time>2017-06-11T05:42:48.882Z</time>
</trkpt>
<trkpt lat="-27.1514672" lon="152.9778630">
<ele>37.395</ele>
<time>2017-06-11T05:42:52.138Z</time>
</trkpt>
<trkpt lat="-27.1519719" lon="152.9778566">
<ele>36.873</ele>
<time>2017-06-11T05:42:54.073Z</time>
</trkpt>
<trkpt lat="-27.1524888" lon="152.9777956">
<ele>36.670</ele>
<time>2017-06-11T05:42:56.062Z</time>
</trkpt>
<trkpt lat="-27.1532544" lon="152.9777146">
<ele>36.646</ele>
<time>2017-06-11T05:42:59.029Z</time>
</trkpt>
<trkpt lat="-27.1537580" lon="152.9776383">
<ele>36.586</ele>
<time>2017-06-11T05:43:01.003Z</time>
</trkpt>
<trkpt lat="-27.1542619" lon="152.9776216">
<ele>36.388</ele>
<time>2017-06-11T05:43:02.962Z</time>
</trkpt>
<trkpt lat="-27.1550361" lon="152.9776650">
<ele>36.156</ele>
<time>2017-06-11T05:43:05.966Z</time>
</trkpt>
<trkpt lat="-27.1555472" lon="152.9777039">
<ele>36.007</ele>
<time>2017-06-11T05:43:07.953Z</time>
</trkpt>
<trkpt lat="-27.1560431" lon="152.9777253">
<ele>35.916</ele>
<time>2017-06-11T05:43:09.904Z</time>
</trkpt>
<trkpt lat="-27.1567808" lon="152.9778024">
<ele>35.768</ele>
<time>2017-06-11T05:43:12.869Z</time>
</trkpt>
<trkpt lat="-27.1575434" lon="152.9778427">
<ele>35.536</ele>
<time>2017-06-11T05:43:15.896Z</time>
</trkpt>
<trkpt lat="-27.1580550" lon="152.9778890">
<ele>35.450</ele>
<time>2017-06-11T05:43:17.898Z</time>
</trkpt>
<trkpt lat="-27.1588054" lon="152.9780861">
<ele>35.740</ele>
<time>2017-06-11T05:43:20.891Z</time>
</trkpt>
<trkpt lat="-27.1593011" lon="152.9782252">
<ele>36.406</ele>
<time>2017-06-11T05:43:22.875Z</time>
</trkpt>
<trkpt lat="-27.1597945" lon="152.9783682">
<ele>37.296</ele>
<time>2017-06-11T05:43:24.862Z</time>
</trkpt>
<trkpt lat="-27.1605422" lon="152.9785959">
<ele>38.199</ele>
<time>2017-06-11T05:43:27.876Z</time>
</trkpt>
<trkpt lat="-27.1612917" lon="152.9787971">
<ele>38.995</ele>
<time>2017-06-11T05:43:30.866Z</time>
</trkpt>
<trkpt lat="-27.1620494" lon="152.9789719">
<ele>39.701</ele>
<time>2017-06-11T05:43:33.876Z</time>
</trkpt>
<trkpt lat="-27.1625459" lon="152.9791250">
<ele>40.240</ele>
<time>2017-06-11T05:43:35.882Z</time>
</trkpt>
<trkpt lat="-27.1633033" lon="152.9793139">
<ele>40.463</ele>
<time>2017-06-11T05:43:38.897Z</time>
</trkpt>
<trkpt lat="-27.1637920" lon="152.9794991">
<ele>40.304</ele>
<time>2017-06-11T05:43:40.900Z</time>
</trkpt>
<trkpt lat="-27.1645409" lon="152.9797216">
<ele>39.860</ele>
<time>2017-06-11T05:43:43.910Z</time>
</trkpt>
<trkpt lat="-27.1650261" lon="152.9799167">
<ele>39.402</ele>
<time>2017-06-11T05:43:45.909Z</time>
</trkpt>
<trkpt lat="-27.1657682" lon="152.9801563">
<ele>39.167</ele>
<time>2017-06-11T05:43:48.907Z</time>
</trkpt>
<trkpt lat="-27.1662670" lon="152.9803019">
<ele>39.262</ele>
<time>2017-06-11T05:43:50.909Z</time>
</trkpt>
<trkpt lat="-27.1670160" lon="152.9804895">
<ele>39.640</ele>
<time>2017-06-11T05:43:53.893Z</time>
</trkpt>
<trkpt lat="-27.1675174" lon="152.9806446">
<ele>40.064</ele>
<time>2017-06-11T05:43:55.907Z</time>
</trkpt>
<trkpt lat="-27.1682588" lon="152.9808880">
<ele>40.322</ele>
<time>2017-06-11T05:43:58.894Z</time>
</trkpt>
<trkpt lat="-27.1687579" lon="152.9810337">
<ele>40.522</ele>
<time>2017-06-11T05:44:00.894Z</time>
</trkpt>
<trkpt lat="-27.1692594" lon="152.9811584">
<ele>40.968</ele>
<time>2017-06-11T05:44:02.888Z</time>
</trkpt>
<trkpt lat="-27.1700050" lon="152.9813600">
<ele>41.772</ele>
<time>2017-06-11T05:44:05.868Z</time>
</trkpt>
<trkpt lat="-27.1705200" lon="152.9815159">
<ele>42.738</ele>
<time>2017-06-11T05:44:07.943Z</time>
</trkpt>
<trkpt lat="-27.1710043" lon="152.9816396">
<ele>43.638</ele>
<time>2017-06-11T05:44:09.874Z</time>
</trkpt>
<trkpt lat="-27.1717709" lon="152.9818404">
<ele>44.305</ele>
<time>2017-06-11T05:44:12.916Z</time>
</trkpt>
<trkpt lat="-27.1725666" lon="152.9820667">
<ele>44.553</ele>
<time>2017-06-11T05:44:16.055Z</time>
</trkpt>
<trkpt lat="-27.1730576" lon="152.9822226">
<ele>44.282</ele>
<time>2017-06-11T05:44:17.996Z</time>
</trkpt>
<trkpt lat="-27.1738159" lon="152.9824444">
<ele>43.713</ele>
<time>2017-06-11T05:44:20.981Z</time>
</trkpt>
<trkpt lat="-27.1743199" lon="152.9825506">
<ele>43.207</ele>
<time>2017-06-11T05:44:22.946Z</time>
</trkpt>
<trkpt lat="-27.1750720" lon="152.9827779">
<ele>42.925</ele>
<time>2017-06-11T05:44:25.941Z</time>
</trkpt>
<trkpt lat="-27.1755673" lon="152.9829452">
<ele>42.791</ele>
<time>2017-06-11T05:44:27.928Z</time>
</trkpt>
<trkpt lat="-27.1762460" lon="152.9831453">
<ele>42.691</ele>
<time>2017-06-11T05:44:30.766Z</time>
</trkpt>
<trkpt lat="-27.1766676" lon="152.9833188">
<ele>42.331</ele>
<time>2017-06-11T05:44:32.703Z</time>
</trkpt>
<trkpt lat="-27.1773810" lon="152.9834649">
<ele>41.518</ele>
<time>2017-06-11T05:44:35.807Z</time>
</trkpt>
<trkpt lat="-27.1781164" lon="152.9836831">
<ele>40.613</ele>
<time>2017-06-11T05:44:38.883Z</time>
</trkpt>
<trkpt lat="-27.1785820" lon="152.9838105">
<ele>40.317</ele>
<time>2017-06-11T05:44:40.801Z</time>
</trkpt>
<trkpt lat="-27.1790628" lon="152.9839844">
<ele>40.917</ele>
<time>2017-06-11T05:44:42.842Z</time>
</trkpt>
<trkpt lat="-27.1798171" lon="152.9841929">
<ele>42.154</ele>
<time>2017-06-11T05:44:45.920Z</time>
</trkpt>
<trkpt lat="-27.1805717" lon="152.9843802">
<ele>43.869</ele>
<time>2017-06-11T05:44:48.921Z</time>
</trkpt>
<trkpt lat="-27.1810798" lon="152.9845309">
<ele>46.151</ele>
<time>2017-06-11T05:44:50.944Z</time>
</trkpt>
<trkpt lat="-27.1815728" lon="152.9847122">
<ele>48.639</ele>
<time>2017-06-11T05:44:52.933Z</time>
</trkpt>
<trkpt lat="-27.1821044" lon="152.9848311">
<ele>50.753</ele>
<time>2017-06-11T05:44:55.024Z</time>
</trkpt>
<trkpt lat="-27.1825957" lon="152.9849451">
<ele>52.315</ele>
<time>2017-06-11T05:44:56.986Z</time>
</trkpt>
<trkpt lat="-27.1830655" lon="152.9850924">
<ele>53.456</ele>
<time>2017-06-11T05:44:58.907Z</time>
</trkpt>
<trkpt lat="-27.1838263" lon="152.9853011">
<ele>54.325</ele>
<time>2017-06-11T05:45:01.973Z</time>
</trkpt>
<trkpt lat="-27.1843236" lon="152.9854757">
<ele>55.092</ele>
<time>2017-06-11T05:45:04.002Z</time>
</trkpt>
<trkpt lat="-27.1848354" lon="152.9856027">
<ele>55.854</ele>
<time>2017-06-11T05:45:06.042Z</time>
</trkpt>
<trkpt lat="-27.1855930" lon="152.9857888">
<ele>56.500</ele>
<time>2017-06-11T05:45:09.054Z</time>
</trkpt>
<trkpt lat="-27.1863465" lon="152.9859830">
<ele>56.906</ele>
<time>2017-06-11T05:45:12.049Z</time>
</trkpt>
<trkpt lat="-27.1870907" lon="152.9861701">
<ele>57.103</ele>
<time>2017-06-11T05:45:15.002Z</time>
</trkpt>
<trkpt lat="-27.1878469" lon="152.9863452">
<ele>57.052</ele>
<time>2017-06-11T05:45:17.992Z</time>
</trkpt>
<trkpt lat="-27.1886141" lon="152.9865064">
<ele>56.657</ele>
<time>2017-06-11T05:45:21.001Z</time>
</trkpt>
<trkpt lat="-27.1893771" lon="152.9866664">
<ele>55.888</ele>
<time>2017-06-11T05:45:24.000Z</time>
</trkpt>
<trkpt lat="-27.1898774" lon="152.9867907">
<ele>54.716</ele>
<time>2017-06-11T05:45:25.992Z</time>
</trkpt>
<trkpt lat="-27.1904221" lon="152.9868616">
<ele>53.250</ele>
<time>2017-06-11T05:45:28.118Z</time>
</trkpt>
<trkpt lat="-27.1909150" lon="152.9869674">
<ele>51.744</ele>
<time>2017-06-11T05:45:30.060Z</time>
</trkpt>
<trkpt lat="-27.1916652" lon="152.9871179">
<ele>50.287</ele>
<time>2017-06-11T05:45:33.018Z</time>
</trkpt>
<trkpt lat="-27.1921815" lon="152.9872043">
<ele>48.823</ele>
<time>2017-06-11T05:45:35.048Z</time>
</trkpt>
<trkpt lat="-27.1926802" lon="152.9872878">
<ele>47.497</ele>
<time>2017-06-11T05:45:37.009Z</time>
</trkpt>
<trkpt lat="-27.1934230" lon="152.9875081">
<ele>46.627</ele>
<time>2017-06-11T05:45:40.004Z</time>
</trkpt>
<trkpt lat="-27.1939411" lon="152.9875542">
<ele>46.409</ele>
<time>2017-06-11T05:45:42.030Z</time>
</trkpt>
<trkpt lat="-27.1944426" lon="152.9876684">
<ele>46.757</ele>
<time>2017-06-11T05:45:44.022Z</time>
</trkpt>
<trkpt lat="-27.1949498" lon="152.9877931">
<ele>47.474</ele>
<time>2017-06-11T05:45:46.038Z</time>
</trkpt>
<trkpt lat="-27.1954639" lon="152.9878476">
<ele>48.438</ele>
<time>2017-06-11T05:45:48.036Z</time>
</trkpt>
<trkpt lat="-27.1962195" lon="152.9880126">
<ele>49.543</ele>
<time>2017-06-11T05:45:51.023Z</time>
</trkpt>
<trkpt lat="-27.1967254" lon="152.9881315">
<ele>50.529</ele>
<time>2017-06-11T05:45:53.037Z</time>
</trkpt>
<trkpt lat="-27.1972337" lon="152.9882577">
<ele>51.141</ele>
<time>2017-06-11T05:45:55.055Z</time>
</trkpt>
<trkpt lat="-27.1977453" lon="152.9883502">
<ele>51.358</ele>
<time>2017-06-11T05:45:57.055Z</time>
</trkpt>
<trkpt lat="-27.1985152" lon="152.9884371">
<ele>51.373</ele>
<time>2017-06-11T05:46:00.055Z</time>
</trkpt>
<trkpt lat="-27.1990099" lon="152.9885985">
<ele>51.432</ele>
<time>2017-06-11T05:46:02.059Z</time>
</trkpt>
<trkpt lat="-27.1997675" lon="152.9887060">
<ele>51.654</ele>
<time>2017-06-11T05:46:05.041Z</time>
</trkpt>
<trkpt lat="-27.2002773" lon="152.9887595">
<ele>52.007</ele>
<time>2017-06-11T05:46:07.034Z</time>
</trkpt>
<trkpt lat="-27.2010338" lon="152.9889190">
<ele>52.418</ele>
<time>2017-06-11T05:46:10.028Z</time>
</trkpt>
<trkpt lat="-27.2015445" lon="152.9890254">
<ele>52.861</ele>
<time>2017-06-11T05:46:12.056Z</time>
</trkpt>
<trkpt lat="-27.2023022" lon="152.9891782">
<ele>53.327</ele>
<time>2017-06-11T05:46:15.052Z</time>
</trkpt>
<trkpt lat="-27.2030728" lon="152.9893114">
<ele>53.763</ele>
<time>2017-06-11T05:46:18.074Z</time>
</trkpt>
<trkpt lat="-27.2038370" lon="152.9894349">
<ele>54.186</ele>
<time>2017-06-11T05:46:21.065Z</time>
</trkpt>
<trkpt lat="-27.2043525" lon="152.9895107">
<ele>54.673</ele>
<time>2017-06-11T05:46:23.077Z</time>
</trkpt>
<trkpt lat="-27.2051048" lon="152.9897456">
<ele>55.214</ele>
<time>2017-06-11T05:46:26.095Z</time>
</trkpt>
<trkpt lat="-27.2056189" lon="152.9897943">
<ele>55.789</ele>
<time>2017-06-11T05:46:28.094Z</time>
</trkpt>
<trkpt lat="-27.2063726" lon="152.9899876">
<ele>56.322</ele>
<time>2017-06-11T05:46:31.095Z</time>
</trkpt>
<trkpt lat="-27.2068705" lon="152.9901179">
<ele>56.613</ele>
<time>2017-06-11T05:46:33.079Z</time>
</trkpt>
<trkpt lat="-27.2076134" lon="152.9903673">
<ele>56.554</ele>
<time>2017-06-11T05:46:36.079Z</time>
</trkpt>
<trkpt lat="-27.2083507" lon="152.9906482">
<ele>56.201</ele>
<time>2017-06-11T05:46:39.085Z</time>
</trkpt>
<trkpt lat="-27.2088514" lon="152.9908425">
<ele>55.759</ele>
<time>2017-06-11T05:46:41.131Z</time>
</trkpt>
<trkpt lat="-27.2095892" lon="152.9911147">
<ele>55.456</ele>
<time>2017-06-11T05:46:44.127Z</time>
</trkpt>
<trkpt lat="-27.2100774" lon="152.9912843">
<ele>55.347</ele>
<time>2017-06-11T05:46:46.101Z</time>
</trkpt>
<trkpt lat="-27.2105502" lon="152.9914888">
<ele>55.329</ele>
<time>2017-06-11T05:46:48.068Z</time>
</trkpt>
<trkpt lat="-27.2110086" lon="152.9917618">
<ele>55.254</ele>
<time>2017-06-11T05:46:50.088Z</time>
</trkpt>
<trkpt lat="-27.2117362" lon="152.9920798">
<ele>54.914</ele>
<time>2017-06-11T05:46:53.115Z</time>
</trkpt>
<trkpt lat="-27.2121962" lon="152.9923355">
<ele>54.176</ele>
<time>2017-06-11T05:46:55.100Z</time>
</trkpt>
<trkpt lat="-27.2126378" lon="152.9926477">
<ele>53.184</ele>
<time>2017-06-11T05:46:57.121Z</time>
</trkpt>
<trkpt lat="-27.2133329" lon="152.9930127">
<ele>52.228</ele>
<time>2017-06-11T05:47:00.104Z</time>
</trkpt>
<trkpt lat="-27.2137659" lon="152.9933067">
<ele>51.369</ele>
<time>2017-06-11T05:47:02.089Z</time>
</trkpt>
<trkpt lat="-27.2144224" lon="152.9937245">
<ele>50.483</ele>
<time>2017-06-11T05:47:05.073Z</time>
</trkpt>
<trkpt lat="-27.2150686" lon="152.9941807">
<ele>49.522</ele>
<time>2017-06-11T05:47:08.081Z</time>
</trkpt>
<trkpt lat="-27.2155051" lon="152.9944738">
<ele>48.461</ele>
<time>2017-06-11T05:47:10.076Z</time>
</trkpt>
<trkpt lat="-27.2159305" lon="152.9947794">
<ele>47.354</ele>
<time>2017-06-11T05:47:12.065Z</time>
</trkpt>
<trkpt lat="-27.2163438" lon="152.9951132">
<ele>46.388</ele>
<time>2017-06-11T05:47:14.073Z</time>
</trkpt>
<trkpt lat="-27.2169830" lon="152.9955638">
<ele>45.649</ele>
<time>2017-06-11T05:47:17.047Z</time>
</trkpt>
<trkpt lat="-27.2176242" lon="152.9960180">
<ele>45.127</ele>
<time>2017-06-11T05:47:20.035Z</time>
</trkpt>
<trkpt lat="-27.2182641" lon="152.9964714">
<ele>44.848</ele>
<time>2017-06-11T05:47:23.033Z</time>
</trkpt>
<trkpt lat="-27.2189023" lon="152.9969233">
<ele>44.825</ele>
<time>2017-06-11T05:47:26.027Z</time>
</trkpt>
<trkpt lat="-27.2195681" lon="152.9973402">
<ele>45.117</ele>
<time>2017-06-11T05:47:29.029Z</time>
</trkpt>
<trkpt lat="-27.2200150" lon="152.9976158">
<ele>45.883</ele>
<time>2017-06-11T05:47:31.036Z</time>
</trkpt>
<trkpt lat="-27.2204608" lon="152.9978821">
<ele>47.168</ele>
<time>2017-06-11T05:47:33.030Z</time>
</trkpt>
<trkpt lat="-27.2209300" lon="152.9981303">
<ele>48.718</ele>
<time>2017-06-11T05:47:35.065Z</time>
</trkpt>
<trkpt lat="-27.2216251" lon="152.9985117">
<ele>50.256</ele>
<time>2017-06-11T05:47:38.071Z</time>
</trkpt>
<trkpt lat="-27.2223325" lon="152.9988505">
<ele>51.941</ele>
<time>2017-06-11T05:47:41.059Z</time>
</trkpt>
<trkpt lat="-27.2228026" lon="152.9990780">
<ele>54.061</ele>
<time>2017-06-11T05:47:43.054Z</time>
</trkpt>
<trkpt lat="-27.2233063" lon="152.9992554">
<ele>56.386</ele>
<time>2017-06-11T05:47:45.112Z</time>
</trkpt>
<trkpt lat="-27.2239977" lon="152.9995893">
<ele>58.381</ele>
<time>2017-06-11T05:47:48.044Z</time>
</trkpt>
<trkpt lat="-27.2244537" lon="152.9998488">
<ele>60.040</ele>
<time>2017-06-11T05:47:50.034Z</time>
</trkpt>
<trkpt lat="-27.2249363" lon="153.0000598">
<ele>61.603</ele>
<time>2017-06-11T05:47:52.043Z</time>
</trkpt>
<trkpt lat="-27.2256298" lon="153.0004270">
<ele>62.897</ele>
<time>2017-06-11T05:47:55.020Z</time>
</trkpt>
<trkpt lat="-27.2260939" lon="153.0006832">
<ele>63.665</ele>
<time>2017-06-11T05:47:57.032Z</time>
</trkpt>
<trkpt lat="-27.2268002" lon="153.0010417">
<ele>64.010</ele>
<time>2017-06-11T05:48:00.039Z</time>
</trkpt>
<trkpt lat="-27.2272797" lon="153.0012616">
<ele>64.172</ele>
<time>2017-06-11T05:48:02.046Z</time>
</trkpt>
<trkpt lat="-27.2279913" lon="153.0016150">
<ele>64.334</ele>
<time>2017-06-11T05:48:05.055Z</time>
</trkpt>
<trkpt lat="-27.2284655" lon="153.0018450">
<ele>64.506</ele>
<time>2017-06-11T05:48:07.052Z</time>
</trkpt>
<trkpt lat="-27.2289364" lon="153.0020915">
<ele>64.595</ele>
<time>2017-06-11T05:48:09.067Z</time>
</trkpt>
<trkpt lat="-27.2294181" lon="153.0022982">
<ele>64.476</ele>
<time>2017-06-11T05:48:11.067Z</time>
</trkpt>
<trkpt lat="-27.2301354" lon="153.0026274">
<ele>64.039</ele>
<time>2017-06-11T05:48:14.068Z</time>
</trkpt>
<trkpt lat="-27.2305960" lon="153.0028942">
<ele>63.374</ele>
<time>2017-06-11T05:48:16.073Z</time>
</trkpt>
<trkpt lat="-27.2310816" lon="153.0031048">
<ele>62.619</ele>
<time>2017-06-11T05:48:18.086Z</time>
</trkpt>
<trkpt lat="-27.2315685" lon="153.0033106">
<ele>61.787</ele>
<time>2017-06-11T05:48:20.096Z</time>
</trkpt>
<trkpt lat="-27.2322544" lon="153.0037233">
<ele>60.922</ele>
<time>2017-06-11T05:48:23.102Z</time>
</trkpt>
<trkpt lat="-27.2327357" lon="153.0039510">
<ele>60.017</ele>
<time>2017-06-11T05:48:25.115Z</time>
</trkpt>
<trkpt lat="-27.2332393" lon="153.0041582">
<ele>59.015</ele>
<time>2017-06-11T05:48:27.182Z</time>
</trkpt>
<trkpt lat="-27.2339419" lon="153.0045030">
<ele>58.048</ele>
<time>2017-06-11T05:48:30.148Z</time>
</trkpt>
<trkpt lat="-27.2344026" lon="153.0047558">
<ele>57.212</ele>
<time>2017-06-11T05:48:32.131Z</time>
</trkpt>
<trkpt lat="-27.2351151" lon="153.0051199">
<ele>56.518</ele>
<time>2017-06-11T05:48:35.145Z</time>
</trkpt>
<trkpt lat="-27.2356033" lon="153.0053010">
<ele>55.985</ele>
<time>2017-06-11T05:48:37.127Z</time>
</trkpt>
<trkpt lat="-27.2360736" lon="153.0055268">
<ele>55.581</ele>
<time>2017-06-11T05:48:39.108Z</time>
</trkpt>
<trkpt lat="-27.2367509" lon="153.0059402">
<ele>55.247</ele>
<time>2017-06-11T05:48:42.101Z</time>
</trkpt>
<trkpt lat="-27.2374006" lon="153.0063907">
<ele>54.834</ele>
<time>2017-06-11T05:48:45.067Z</time>
</trkpt>
<trkpt lat="-27.2378336" lon="153.0067034">
<ele>54.224</ele>
<time>2017-06-11T05:48:47.065Z</time>
</trkpt>
<trkpt lat="-27.2384051" lon="153.0072913">
<ele>53.577</ele>
<time>2017-06-11T05:48:50.067Z</time>
</trkpt>
<trkpt lat="-27.2388279" lon="153.0076209">
<ele>53.043</ele>
<time>2017-06-11T05:48:52.061Z</time>
</trkpt>
<trkpt lat="-27.2394116" lon="153.0082414">
<ele>52.610</ele>
<time>2017-06-11T05:48:55.153Z</time>
</trkpt>
<trkpt lat="-27.2397806" lon="153.0086348">
<ele>52.260</ele>
<time>2017-06-11T05:48:57.109Z</time>
</trkpt>
<trkpt lat="-27.2402569" lon="153.0093014">
<ele>51.922</ele>
<time>2017-06-11T05:49:00.055Z</time>
</trkpt>
<trkpt lat="-27.2407590" lon="153.0099507">
<ele>51.445</ele>
<time>2017-06-11T05:49:03.028Z</time>
</trkpt>
<trkpt lat="-27.2412491" lon="153.0106208">
<ele>50.809</ele>
<time>2017-06-11T05:49:06.030Z</time>
</trkpt>
<trkpt lat="-27.2415652" lon="153.0110856">
<ele>50.057</ele>
<time>2017-06-11T05:49:08.044Z</time>
</trkpt>
<trkpt lat="-27.2420706" lon="153.0117464">
<ele>49.192</ele>
<time>2017-06-11T05:49:11.038Z</time>
</trkpt>
<trkpt lat="-27.2423933" lon="153.0122041">
<ele>48.253</ele>
<time>2017-06-11T05:49:13.043Z</time>
</trkpt>
<trkpt lat="-27.2428903" lon="153.0128669">
<ele>47.345</ele>
<time>2017-06-11T05:49:16.021Z</time>
</trkpt>
<trkpt lat="-27.2432090" lon="153.0133187">
<ele>46.540</ele>
<time>2017-06-11T05:49:18.010Z</time>
</trkpt>
<trkpt lat="-27.2435579" lon="153.0137604">
<ele>45.846</ele>
<time>2017-06-11T05:49:20.047Z</time>
</trkpt>
<trkpt lat="-27.2440485" lon="153.0144365">
<ele>45.236</ele>
<time>2017-06-11T05:49:23.053Z</time>
</trkpt>
<trkpt lat="-27.2443786" lon="153.0148772">
<ele>44.617</ele>
<time>2017-06-11T05:49:25.037Z</time>
</trkpt>
<trkpt lat="-27.2448682" lon="153.0155432">
<ele>43.899</ele>
<time>2017-06-11T05:49:28.016Z</time>
</trkpt>
<trkpt lat="-27.2454548" lon="153.0161153">
<ele>43.088</ele>
<time>2017-06-11T05:49:31.028Z</time>
</trkpt>
<trkpt lat="-27.2458485" lon="153.0164886">
<ele>42.197</ele>
<time>2017-06-11T05:49:33.026Z</time>
</trkpt>
<trkpt lat="-27.2462680" lon="153.0168151">
<ele>41.274</ele>
<time>2017-06-11T05:49:35.004Z</time>
</trkpt>
<trkpt lat="-27.2469204" lon="153.0172925">
<ele>40.445</ele>
<time>2017-06-11T05:49:38.006Z</time>
</trkpt>
<trkpt lat="-27.2473606" lon="153.0175953">
<ele>39.681</ele>
<time>2017-06-11T05:49:39.995Z</time>
</trkpt>
<trkpt lat="-27.2478183" lon="153.0178650">
<ele>38.898</ele>
<time>2017-06-11T05:49:41.995Z</time>
</trkpt>
<trkpt lat="-27.2485261" lon="153.0182219">
<ele>38.171</ele>
<time>2017-06-11T05:49:44.999Z</time>
</trkpt>
<trkpt lat="-27.2490031" lon="153.0184422">
<ele>37.634</ele>
<time>2017-06-11T05:49:46.999Z</time>
</trkpt>
<trkpt lat="-27.2494891" lon="153.0186231">
<ele>37.332</ele>
<time>2017-06-11T05:49:48.999Z</time>
</trkpt>
<trkpt lat="-27.2499887" lon="153.0187653">
<ele>37.293</ele>
<time>2017-06-11T05:49:51.014Z</time>
</trkpt>
<trkpt lat="-27.2507397" lon="153.0189696">
<ele>37.479</ele>
<time>2017-06-11T05:49:54.030Z</time>
</trkpt>
<trkpt lat="-27.2515011" lon="153.0191032">
<ele>37.732</ele>
<time>2017-06-11T05:49:57.027Z</time>
</trkpt>
<trkpt lat="-27.2520016" lon="153.0191522">
<ele>37.953</ele>
<time>2017-06-11T05:49:58.990Z</time>
</trkpt>
<trkpt lat="-27.2525100" lon="153.0192126">
<ele>38.320</ele>
<time>2017-06-11T05:50:00.980Z</time>
</trkpt>
<trkpt lat="-27.2532841" lon="153.0191869">
<ele>39.082</ele>
<time>2017-06-11T05:50:03.980Z</time>
</trkpt>
<trkpt lat="-27.2540493" lon="153.0191304">
<ele>40.245</ele>
<time>2017-06-11T05:50:06.962Z</time>
</trkpt>
<trkpt lat="-27.2545642" lon="153.0191306">
<ele>41.697</ele>
<time>2017-06-11T05:50:08.971Z</time>
</trkpt>
<trkpt lat="-27.2553350" lon="153.0190639">
<ele>43.294</ele>
<time>2017-06-11T05:50:11.990Z</time>
</trkpt>
<trkpt lat="-27.2558480" lon="153.0190485">
<ele>44.898</ele>
<time>2017-06-11T05:50:13.995Z</time>
</trkpt>
<trkpt lat="-27.2563636" lon="153.0190220">
<ele>46.407</ele>
<time>2017-06-11T05:50:16.003Z</time>
</trkpt>
<trkpt lat="-27.2571369" lon="153.0189482">
<ele>47.724</ele>
<time>2017-06-11T05:50:19.008Z</time>
</trkpt>
<trkpt lat="-27.2578991" lon="153.0188311">
<ele>48.928</ele>
<time>2017-06-11T05:50:22.005Z</time>
</trkpt>
<trkpt lat="-27.2586741" lon="153.0188090">
<ele>50.242</ele>
<time>2017-06-11T05:50:25.029Z</time>
</trkpt>
<trkpt lat="-27.2594426" lon="153.0187306">
<ele>51.470</ele>
<time>2017-06-11T05:50:28.033Z</time>
</trkpt>
<trkpt lat="-27.2599492" lon="153.0186759">
<ele>52.166</ele>
<time>2017-06-11T05:50:30.032Z</time>
</trkpt>
<trkpt lat="-27.2606996" lon="153.0186060">
<ele>52.244</ele>
<time>2017-06-11T05:50:33.017Z</time>
</trkpt>
<trkpt lat="-27.2612111" lon="153.0186053">
<ele>51.951</ele>
<time>2017-06-11T05:50:35.045Z</time>
</trkpt>
<trkpt lat="-27.2617155" lon="153.0185483">
<ele>51.566</ele>
<time>2017-06-11T05:50:37.057Z</time>
</trkpt>
<trkpt lat="-27.2624766" lon="153.0185137">
<ele>51.284</ele>
<time>2017-06-11T05:50:40.072Z</time>
</trkpt>
<trkpt lat="-27.2629861" lon="153.0184869">
<ele>51.000</ele>
<time>2017-06-11T05:50:42.082Z</time>
</trkpt>
<trkpt lat="-27.2637380" lon="153.0184369">
<ele>50.438</ele>
<time>2017-06-11T05:50:45.065Z</time>
</trkpt>
<trkpt lat="-27.2644967" lon="153.0183633">
<ele>49.600</ele>
<time>2017-06-11T05:50:48.085Z</time>
</trkpt>
<trkpt lat="-27.2652630" lon="153.0183217">
<ele>48.595</ele>
<time>2017-06-11T05:50:51.108Z</time>
</trkpt>
<trkpt lat="-27.2657831" lon="153.0182916">
<ele>47.400</ele>
<time>2017-06-11T05:50:53.146Z</time>
</trkpt>
<trkpt lat="-27.2662920" lon="153.0182551">
<ele>46.168</ele>
<time>2017-06-11T05:50:55.138Z</time>
</trkpt>
<trkpt lat="-27.2668079" lon="153.0181820">
<ele>45.100</ele>
<time>2017-06-11T05:50:57.167Z</time>
</trkpt>
<trkpt lat="-27.2675778" lon="153.0181153">
<ele>44.175</ele>
<time>2017-06-11T05:51:00.175Z</time>
</trkpt>
<trkpt lat="-27.2680921" lon="153.0181412">
<ele>43.261</ele>
<time>2017-06-11T05:51:02.182Z</time>
</trkpt>
<trkpt lat="-27.2686076" lon="153.0180990">
<ele>42.305</ele>
<time>2017-06-11T05:51:04.200Z</time>
</trkpt>
<trkpt lat="-27.2691225" lon="153.0180218">
<ele>41.429</ele>
<time>2017-06-11T05:51:06.227Z</time>
</trkpt>
<trkpt lat="-27.2696375" lon="153.0179934">
<ele>40.742</ele>
<time>2017-06-11T05:51:08.237Z</time>
</trkpt>
<trkpt lat="-27.2704147" lon="153.0179654">
<ele>40.108</ele>
<time>2017-06-11T05:51:11.266Z</time>
</trkpt>
<trkpt lat="-27.2711805" lon="153.0178961">
<ele>39.308</ele>
<time>2017-06-11T05:51:14.264Z</time>
</trkpt>
<trkpt lat="-27.2716909" lon="153.0178589">
<ele>38.287</ele>
<time>2017-06-11T05:51:16.263Z</time>
</trkpt>
<trkpt lat="-27.2724601" lon="153.0178229">
<ele>37.269</ele>
<time>2017-06-11T05:51:19.279Z</time>
</trkpt>
<trkpt lat="-27.2732208" lon="153.0177957">
<ele>36.578</ele>
<time>2017-06-11T05:51:22.272Z</time>
</trkpt>
<trkpt lat="-27.2739851" lon="153.0177721">
<ele>36.364</ele>
<time>2017-06-11T05:51:25.273Z</time>
</trkpt>
<trkpt lat="-27.2747527" lon="153.0178164">
<ele>36.561</ele>
<time>2017-06-11T05:51:28.283Z</time>
</trkpt>
<trkpt lat="-27.2755254" lon="153.0179732">
<ele>36.928</ele>
<time>2017-06-11T05:51:31.338Z</time>
</trkpt>
<trkpt lat="-27.2762719" lon="153.0181928">
<ele>37.100</ele>
<time>2017-06-11T05:51:34.332Z</time>
</trkpt>
<trkpt lat="-27.2769953" lon="153.0184923">
<ele>36.899</ele>
<time>2017-06-11T05:51:37.335Z</time>
</trkpt>
<trkpt lat="-27.2774798" lon="153.0187277">
<ele>36.530</ele>
<time>2017-06-11T05:51:39.400Z</time>
</trkpt>
<trkpt lat="-27.2780029" lon="153.0189510">
<ele>36.319</ele>
<time>2017-06-11T05:51:41.588Z</time>
</trkpt>
<trkpt lat="-27.2784477" lon="153.0191546">
<ele>36.355</ele>
<time>2017-06-11T05:51:43.460Z</time>
</trkpt>
<trkpt lat="-27.2789348" lon="153.0193644">
<ele>36.493</ele>
<time>2017-06-11T05:51:45.493Z</time>
</trkpt>
<trkpt lat="-27.2796508" lon="153.0197066">
<ele>36.590</ele>
<time>2017-06-11T05:51:48.526Z</time>
</trkpt>
<trkpt lat="-27.2801198" lon="153.0199191">
<ele>36.654</ele>
<time>2017-06-11T05:51:50.498Z</time>
</trkpt>
<trkpt lat="-27.2808418" lon="153.0202080">
<ele>36.817</ele>
<time>2017-06-11T05:51:53.490Z</time>
</trkpt>
<trkpt lat="-27.2815813" lon="153.0203867">
<ele>37.254</ele>
<time>2017-06-11T05:51:56.454Z</time>
</trkpt>
<trkpt lat="-27.2820866" lon="153.0204819">
<ele>37.874</ele>
<time>2017-06-11T05:51:58.461Z</time>
</trkpt>
<trkpt lat="-27.2825977" lon="153.0205279">
<ele>38.335</ele>
<time>2017-06-11T05:52:00.461Z</time>
</trkpt>
<trkpt lat="-27.2831191" lon="153.0205687">
<ele>38.432</ele>
<time>2017-06-11T05:52:02.485Z</time>
</trkpt>
<trkpt lat="-27.2838971" lon="153.0206335">
<ele>38.191</ele>
<time>2017-06-11T05:52:05.498Z</time>
</trkpt>
<trkpt lat="-27.2846782" lon="153.0206106">
<ele>37.786</ele>
<time>2017-06-11T05:52:08.519Z</time>
</trkpt>
<trkpt lat="-27.2851928" lon="153.0206340">
<ele>37.501</ele>
<time>2017-06-11T05:52:10.521Z</time>
</trkpt>
<trkpt lat="-27.2857063" lon="153.0205553">
<ele>37.455</ele>
<time>2017-06-11T05:52:12.543Z</time>
</trkpt>
<trkpt lat="-27.2864950" lon="153.0205103">
<ele>37.505</ele>
<time>2017-06-11T05:52:15.612Z</time>
</trkpt>
<trkpt lat="-27.2872554" lon="153.0204286">
<ele>37.444</ele>
<time>2017-06-11T05:52:18.579Z</time>
</trkpt>
<trkpt lat="-27.2877638" lon="153.0203237">
<ele>37.215</ele>
<time>2017-06-11T05:52:20.596Z</time>
</trkpt>
<trkpt lat="-27.2885189" lon="153.0201378">
<ele>36.908</ele>
<time>2017-06-11T05:52:23.611Z</time>
</trkpt>
<trkpt lat="-27.2890200" lon="153.0200111">
<ele>36.577</ele>
<time>2017-06-11T05:52:25.612Z</time>
</trkpt>
<trkpt lat="-27.2895119" lon="153.0198486">
<ele>36.125</ele>
<time>2017-06-11T05:52:27.611Z</time>
</trkpt>
<trkpt lat="-27.2902610" lon="153.0196264">
<ele>35.460</ele>
<time>2017-06-11T05:52:30.630Z</time>
</trkpt>
<trkpt lat="-27.2907629" lon="153.0194989">
<ele>34.584</ele>
<time>2017-06-11T05:52:32.630Z</time>
</trkpt>
<trkpt lat="-27.2915198" lon="153.0192872">
<ele>33.569</ele>
<time>2017-06-11T05:52:35.648Z</time>
</trkpt>
<trkpt lat="-27.2920097" lon="153.0191111">
<ele>32.558</ele>
<time>2017-06-11T05:52:37.638Z</time>
</trkpt>
<trkpt lat="-27.2925163" lon="153.0189883">
<ele>31.743</ele>
<time>2017-06-11T05:52:39.648Z</time>
</trkpt>
<trkpt lat="-27.2930136" lon="153.0188366">
<ele>31.207</ele>
<time>2017-06-11T05:52:41.657Z</time>
</trkpt>
<trkpt lat="-27.2937433" lon="153.0186412">
<ele>30.878</ele>
<time>2017-06-11T05:52:44.620Z</time>
</trkpt>
<trkpt lat="-27.2942149" lon="153.0184842">
<ele>30.600</ele>
<time>2017-06-11T05:52:46.603Z</time>
</trkpt>
<trkpt lat="-27.2949362" lon="153.0182704">
<ele>30.319</ele>
<time>2017-06-11T05:52:49.635Z</time>
</trkpt>
<trkpt lat="-27.2954048" lon="153.0181208">
<ele>30.129</ele>
<time>2017-06-11T05:52:51.613Z</time>
</trkpt>
<trkpt lat="-27.2959028" lon="153.0179874">
<ele>30.083</ele>
<time>2017-06-11T05:52:53.680Z</time>
</trkpt>
<trkpt lat="-27.2966175" lon="153.0177716">
<ele>30.106</ele>
<time>2017-06-11T05:52:56.672Z</time>
</trkpt>
<trkpt lat="-27.2971004" lon="153.0176479">
<ele>30.127</ele>
<time>2017-06-11T05:52:58.674Z</time>
</trkpt>
<trkpt lat="-27.2975752" lon="153.0174784">
<ele>30.211</ele>
<time>2017-06-11T05:53:00.675Z</time>
</trkpt>
<trkpt lat="-27.2980563" lon="153.0173472">
<ele>30.509</ele>
<time>2017-06-11T05:53:02.664Z</time>
</trkpt>
<trkpt lat="-27.2985231" lon="153.0172133">
<ele>30.971</ele>
<time>2017-06-11T05:53:04.619Z</time>
</trkpt>
<trkpt lat="-27.2992443" lon="153.0169934">
<ele>31.347</ele>
<time>2017-06-11T05:53:07.662Z</time>
</trkpt>
<trkpt lat="-27.2997241" lon="153.0168808">
<ele>31.494</ele>
<time>2017-06-11T05:53:09.650Z</time>
</trkpt>
<trkpt lat="-27.3004343" lon="153.0166600">
<ele>31.471</ele>
<time>2017-06-11T05:53:12.644Z</time>
</trkpt>
<trkpt lat="-27.3009220" lon="153.0165059">
<ele>31.396</ele>
<time>2017-06-11T05:53:14.673Z</time>
</trkpt>
<trkpt lat="-27.3014229" lon="153.0163679">
<ele>31.348</ele>
<time>2017-06-11T05:53:16.711Z</time>
</trkpt>
<trkpt lat="-27.3021482" lon="153.0161647">
<ele>31.346</ele>
<time>2017-06-11T05:53:19.681Z</time>
</trkpt>
<trkpt lat="-27.3028769" lon="153.0159166">
<ele>31.380</ele>
<time>2017-06-11T05:53:22.734Z</time>
</trkpt>
<trkpt lat="-27.3036088" lon="153.0156660">
<ele>31.503</ele>
<time>2017-06-11T05:53:25.757Z</time>
</trkpt>
<trkpt lat="-27.3042864" lon="153.0152380">
<ele>31.823</ele>
<time>2017-06-11T05:53:28.785Z</time>
</trkpt>
<trkpt lat="-27.3047114" lon="153.0149196">
<ele>32.289</ele>
<time>2017-06-11T05:53:30.776Z</time>
</trkpt>
<trkpt lat="-27.3051168" lon="153.0145667">
<ele>32.770</ele>
<time>2017-06-11T05:53:32.778Z</time>
</trkpt>
<trkpt lat="-27.3057153" lon="153.0140219">
<ele>33.249</ele>
<time>2017-06-11T05:53:35.783Z</time>
</trkpt>
<trkpt lat="-27.3061203" lon="153.0136684">
<ele>33.663</ele>
<time>2017-06-11T05:53:37.789Z</time>
</trkpt>
<trkpt lat="-27.3065367" lon="153.0133424">
<ele>33.863</ele>
<time>2017-06-11T05:53:39.812Z</time>
</trkpt>
<trkpt lat="-27.3071554" lon="153.0129560">
<ele>33.755</ele>
<time>2017-06-11T05:53:42.732Z</time>
</trkpt>
<trkpt lat="-27.3075734" lon="153.0127324">
<ele>33.253</ele>
<time>2017-06-11T05:53:44.714Z</time>
</trkpt>
<trkpt lat="-27.3080129" lon="153.0125562">
<ele>32.381</ele>
<time>2017-06-11T05:53:46.702Z</time>
</trkpt>
<trkpt lat="-27.3087192" lon="153.0123472">
<ele>31.482</ele>
<time>2017-06-11T05:53:49.742Z</time>
</trkpt>
<trkpt lat="-27.3094639" lon="153.0121911">
<ele>30.992</ele>
<time>2017-06-11T05:53:52.785Z</time>
</trkpt>
<trkpt lat="-27.3099702" lon="153.0121079">
<ele>31.133</ele>
<time>2017-06-11T05:53:54.802Z</time>
</trkpt>
<trkpt lat="-27.3107208" lon="153.0119391">
<ele>31.886</ele>
<time>2017-06-11T05:53:57.810Z</time>
</trkpt>
<trkpt lat="-27.3112279" lon="153.0118620">
<ele>33.072</ele>
<time>2017-06-11T05:53:59.820Z</time>
</trkpt>
<trkpt lat="-27.3119822" lon="153.0117126">
<ele>34.284</ele>
<time>2017-06-11T05:54:02.830Z</time>
</trkpt>
<trkpt lat="-27.3124870" lon="153.0115936">
<ele>35.045</ele>
<time>2017-06-11T05:54:04.852Z</time>
</trkpt>
<trkpt lat="-27.3132498" lon="153.0115629">
<ele>35.248</ele>
<time>2017-06-11T05:54:07.831Z</time>
</trkpt>
<trkpt lat="-27.3137788" lon="153.0116164">
<ele>35.220</ele>
<time>2017-06-11T05:54:09.885Z</time>
</trkpt>
<trkpt lat="-27.3146073" lon="153.0118322">
<ele>35.318</ele>
<time>2017-06-11T05:54:13.158Z</time>
</trkpt>
<trkpt lat="-27.3153216" lon="153.0120811">
<ele>35.606</ele>
<time>2017-06-11T05:54:16.055Z</time>
</trkpt>
<trkpt lat="-27.3160524" lon="153.0123314">
<ele>35.821</ele>
<time>2017-06-11T05:54:19.038Z</time>
</trkpt>
<trkpt lat="-27.3167760" lon="153.0126342">
<ele>35.790</ele>
<time>2017-06-11T05:54:22.050Z</time>
</trkpt>
<trkpt lat="-27.3172711" lon="153.0128020">
<ele>35.696</ele>
<time>2017-06-11T05:54:24.064Z</time>
</trkpt>
<trkpt lat="-27.3177724" lon="153.0129466">
<ele>35.763</ele>
<time>2017-06-11T05:54:26.081Z</time>
</trkpt>
<trkpt lat="-27.3182757" lon="153.0130634">
<ele>36.024</ele>
<time>2017-06-11T05:54:28.084Z</time>
</trkpt>
<trkpt lat="-27.3190201" lon="153.0132205">
<ele>36.406</ele>
<time>2017-06-11T05:54:31.045Z</time>
</trkpt>
<trkpt lat="-27.3197770" lon="153.0133730">
<ele>36.949</ele>
<time>2017-06-11T05:54:34.053Z</time>
</trkpt>
<trkpt lat="-27.3205490" lon="153.0134865">
<ele>37.781</ele>
<time>2017-06-11T05:54:37.083Z</time>
</trkpt>
<trkpt lat="-27.3210763" lon="153.0135099">
<ele>38.901</ele>
<time>2017-06-11T05:54:39.124Z</time>
</trkpt>
<trkpt lat="-27.3218522" lon="153.0134566">
<ele>40.113</ele>
<time>2017-06-11T05:54:42.131Z</time>
</trkpt>
<trkpt lat="-27.3223650" lon="153.0133740">
<ele>41.246</ele>
<time>2017-06-11T05:54:44.145Z</time>
</trkpt>
<trkpt lat="-27.3231236" lon="153.0132218">
<ele>42.315</ele>
<time>2017-06-11T05:54:47.146Z</time>
</trkpt>
<trkpt lat="-27.3236383" lon="153.0131689">
<ele>43.324</ele>
<time>2017-06-11T05:54:49.156Z</time>
</trkpt>
<trkpt lat="-27.3241448" lon="153.0130649">
<ele>44.064</ele>
<time>2017-06-11T05:54:51.157Z</time>
</trkpt>
<trkpt lat="-27.3249147" lon="153.0129489">
<ele>44.414</ele>
<time>2017-06-11T05:54:54.170Z</time>
</trkpt>
<trkpt lat="-27.3254277" lon="153.0128602">
<ele>44.503</ele>
<time>2017-06-11T05:54:56.178Z</time>
</trkpt>
<trkpt lat="-27.3259356" lon="153.0127750">
<ele>44.334</ele>
<time>2017-06-11T05:54:58.164Z</time>
</trkpt>
<trkpt lat="-27.3264462" lon="153.0126745">
<ele>43.725</ele>
<time>2017-06-11T05:55:00.170Z</time>
</trkpt>
<trkpt lat="-27.3272169" lon="153.0125643">
<ele>42.663</ele>
<time>2017-06-11T05:55:03.181Z</time>
</trkpt>
<trkpt lat="-27.3277234" lon="153.0124750">
<ele>41.330</ele>
<time>2017-06-11T05:55:05.176Z</time>
</trkpt>
<trkpt lat="-27.3282315" lon="153.0124004">
<ele>39.976</ele>
<time>2017-06-11T05:55:07.173Z</time>
</trkpt>
<trkpt lat="-27.3289915" lon="153.0122665">
<ele>38.910</ele>
<time>2017-06-11T05:55:10.169Z</time>
</trkpt>
<trkpt lat="-27.3294999" lon="153.0121985">
<ele>38.327</ele>
<time>2017-06-11T05:55:12.168Z</time>
</trkpt>
<trkpt lat="-27.3299981" lon="153.0120946">
<ele>38.160</ele>
<time>2017-06-11T05:55:14.187Z</time>
</trkpt>
<trkpt lat="-27.3307020" lon="153.0119644">
<ele>38.200</ele>
<time>2017-06-11T05:55:17.160Z</time>
</trkpt>
<trkpt lat="-27.3313323" lon="153.0118266">
<ele>38.209</ele>
<time>2017-06-11T05:55:20.080Z</time>
</trkpt>
<trkpt lat="-27.3316944" lon="153.0117549">
<ele>37.969</ele>
<time>2017-06-11T05:55:22.061Z</time>
</trkpt>
<trkpt lat="-27.3320879" lon="153.0116914">
<ele>37.342</ele>
<time>2017-06-11T05:55:24.660Z</time>
</trkpt>
<trkpt lat="-27.3323592" lon="153.0117448">
<ele>36.192</ele>
<time>2017-06-11T05:55:27.187Z</time>
</trkpt>
<trkpt lat="-27.3324614" lon="153.0119801">
<ele>34.529</ele>
<time>2017-06-11T05:55:30.017Z</time>
</trkpt>
<trkpt lat="-27.3324519" lon="153.0122251">
<ele>32.762</ele>
<time>2017-06-11T05:55:32.586Z</time>
</trkpt>
<trkpt lat="-27.3323466" lon="153.0125054">
<ele>31.460</ele>
<time>2017-06-11T05:55:35.629Z</time>
</trkpt>
<trkpt lat="-27.3322023" lon="153.0125827">
<ele>30.849</ele>
<time>2017-06-11T05:55:37.620Z</time>
</trkpt>
<trkpt lat="-27.3320776" lon="153.0125435">
<ele>30.742</ele>
<time>2017-06-11T05:55:39.682Z</time>
</trkpt>
<trkpt lat="-27.3319726" lon="153.0125080">
<ele>30.807</ele>
<time>2017-06-11T05:55:41.998Z</time>
</trkpt>
<trkpt lat="-27.3319726" lon="153.0125080">
<ele>30.840</ele>
<time>2017-06-11T05:55:45.998Z</time>
</trkpt>
<trkpt lat="-27.3319726" lon="153.0125080">
<ele>30.816</ele>
<time>2017-06-11T05:55:51.621Z</time>
</trkpt>
<trkpt lat="-27.3317444" lon="153.0125015">
<ele>30.790</ele>
<time>2017-06-11T05:55:57.964Z</time>
</trkpt>
<trkpt lat="-27.3316432" lon="153.0124026">
<ele>30.824</ele>
<time>2017-06-11T05:55:59.697Z</time>
</trkpt>
<trkpt lat="-27.3315862" lon="153.0120658">
<ele>31.025</ele>
<time>2017-06-11T05:56:02.988Z</time>
</trkpt>
<trkpt lat="-27.3315370" lon="153.0118347">
<ele>31.560</ele>
<time>2017-06-11T05:56:04.869Z</time>
</trkpt>
<trkpt lat="-27.3314748" lon="153.0114549">
<ele>32.452</ele>
<time>2017-06-11T05:56:07.774Z</time>
</trkpt>
<trkpt lat="-27.3313984" lon="153.0110481">
<ele>33.499</ele>
<time>2017-06-11T05:56:10.787Z</time>
</trkpt>
<trkpt lat="-27.3313592" lon="153.0106517">
<ele>34.396</ele>
<time>2017-06-11T05:56:13.691Z</time>
</trkpt>
<trkpt lat="-27.3313122" lon="153.0103878">
<ele>34.899</ele>
<time>2017-06-11T05:56:15.609Z</time>
</trkpt>
<trkpt lat="-27.3313184" lon="153.0101084">
<ele>34.957</ele>
<time>2017-06-11T05:56:17.492Z</time>
</trkpt>
<trkpt lat="-27.3312658" lon="153.0096544">
<ele>34.666</ele>
<time>2017-06-11T05:56:20.490Z</time>
</trkpt>
<trkpt lat="-27.3312361" lon="153.0093574">
<ele>34.022</ele>
<time>2017-06-11T05:56:22.470Z</time>
</trkpt>
<trkpt lat="-27.3311508" lon="153.0089502">
<ele>33.044</ele>
<time>2017-06-11T05:56:25.324Z</time>
</trkpt>
<trkpt lat="-27.3311113" lon="153.0085433">
<ele>31.960</ele>
<time>2017-06-11T05:56:28.153Z</time>
</trkpt>
<trkpt lat="-27.3310977" lon="153.0082527">
<ele>31.027</ele>
<time>2017-06-11T05:56:30.040Z</time>
</trkpt>
<trkpt lat="-27.3310638" lon="153.0079205">
<ele>30.368</ele>
<time>2017-06-11T05:56:32.013Z</time>
</trkpt>
<trkpt lat="-27.3309222" lon="153.0073914">
<ele>30.011</ele>
<time>2017-06-11T05:56:35.044Z</time>
</trkpt>
<trkpt lat="-27.3308798" lon="153.0070144">
<ele>29.818</ele>
<time>2017-06-11T05:56:37.020Z</time>
</trkpt>
<trkpt lat="-27.3309057" lon="153.0066286">
<ele>29.585</ele>
<time>2017-06-11T05:56:38.998Z</time>
</trkpt>
<trkpt lat="-27.3309987" lon="153.0060403">
<ele>29.266</ele>
<time>2017-06-11T05:56:42.006Z</time>
</trkpt>
<trkpt lat="-27.3311087" lon="153.0056421">
<ele>28.973</ele>
<time>2017-06-11T05:56:44.063Z</time>
</trkpt>
<trkpt lat="-27.3311628" lon="153.0052610">
<ele>28.890</ele>
<time>2017-06-11T05:56:46.010Z</time>
</trkpt>
<trkpt lat="-27.3312662" lon="153.0047399">
<ele>29.061</ele>
<time>2017-06-11T05:56:48.849Z</time>
</trkpt>
<trkpt lat="-27.3313197" lon="153.0044436">
<ele>29.310</ele>
<time>2017-06-11T05:56:50.781Z</time>
</trkpt>
<trkpt lat="-27.3313563" lon="153.0041611">
<ele>29.346</ele>
<time>2017-06-11T05:56:52.998Z</time>
</trkpt>
<trkpt lat="-27.3313563" lon="153.0041611">
<ele>29.094</ele>
<time>2017-06-11T05:56:57.998Z</time>
</trkpt>
<trkpt lat="-27.3313563" lon="153.0041611">
<ele>28.838</ele>
<time>2017-06-11T05:57:09.431Z</time>
</trkpt>
<trkpt lat="-27.3313240" lon="153.0038634">
<ele>28.826</ele>
<time>2017-06-11T05:57:14.204Z</time>
</trkpt>
<trkpt lat="-27.3312652" lon="153.0033749">
<ele>28.508</ele>
<time>2017-06-11T05:57:17.429Z</time>
</trkpt>
<trkpt lat="-27.3312078" lon="153.0027182">
<ele>27.460</ele>
<time>2017-06-11T05:57:20.593Z</time>
</trkpt>
<trkpt lat="-27.3310575" lon="153.0020099">
<ele>26.820</ele>
<time>2017-06-11T05:57:23.763Z</time>
</trkpt>
<trkpt lat="-27.3309724" lon="153.0013669">
<ele>27.764</ele>
<time>2017-06-11T05:57:26.726Z</time>
</trkpt>
<trkpt lat="-27.3308804" lon="153.0007772">
<ele>29.533</ele>
<time>2017-06-11T05:57:29.659Z</time>
</trkpt>
<trkpt lat="-27.3308375" lon="153.0003961">
<ele>30.711</ele>
<time>2017-06-11T05:57:31.621Z</time>
</trkpt>
<trkpt lat="-27.3307316" lon="152.9998203">
<ele>30.853</ele>
<time>2017-06-11T05:57:34.620Z</time>
</trkpt>
<trkpt lat="-27.3306028" lon="152.9992382">
<ele>30.361</ele>
<time>2017-06-11T05:57:37.645Z</time>
</trkpt>
<trkpt lat="-27.3305116" lon="152.9986480">
<ele>29.770</ele>
<time>2017-06-11T05:57:40.649Z</time>
</trkpt>
<trkpt lat="-27.3304172" lon="152.9982627">
<ele>29.354</ele>
<time>2017-06-11T05:57:42.658Z</time>
</trkpt>
<trkpt lat="-27.3303428" lon="152.9976793">
<ele>29.181</ele>
<time>2017-06-11T05:57:45.627Z</time>
</trkpt>
<trkpt lat="-27.3302457" lon="152.9970931">
<ele>29.230</ele>
<time>2017-06-11T05:57:48.621Z</time>
</trkpt>
<trkpt lat="-27.3301307" lon="152.9965034">
<ele>29.417</ele>
<time>2017-06-11T05:57:51.634Z</time>
</trkpt>
<trkpt lat="-27.3299944" lon="152.9959227">
<ele>29.665</ele>
<time>2017-06-11T05:57:54.627Z</time>
</trkpt>
<trkpt lat="-27.3298889" lon="152.9955431">
<ele>29.953</ele>
<time>2017-06-11T05:57:56.614Z</time>
</trkpt>
<trkpt lat="-27.3297788" lon="152.9951691">
<ele>30.302</ele>
<time>2017-06-11T05:57:58.587Z</time>
</trkpt>
<trkpt lat="-27.3296362" lon="152.9948039">
<ele>30.727</ele>
<time>2017-06-11T05:58:00.586Z</time>
</trkpt>
<trkpt lat="-27.3294070" lon="152.9942710">
<ele>31.209</ele>
<time>2017-06-11T05:58:03.555Z</time>
</trkpt>
<trkpt lat="-27.3292473" lon="152.9939173">
<ele>31.779</ele>
<time>2017-06-11T05:58:05.550Z</time>
</trkpt>
<trkpt lat="-27.3290715" lon="152.9935693">
<ele>32.489</ele>
<time>2017-06-11T05:58:07.554Z</time>
</trkpt>
<trkpt lat="-27.3289073" lon="152.9932135">
<ele>33.179</ele>
<time>2017-06-11T05:58:09.547Z</time>
</trkpt>
<trkpt lat="-27.3286449" lon="152.9926846">
<ele>33.597</ele>
<time>2017-06-11T05:58:12.557Z</time>
</trkpt>
<trkpt lat="-27.3284091" lon="152.9921415">
<ele>33.720</ele>
<time>2017-06-11T05:58:15.564Z</time>
</trkpt>
<trkpt lat="-27.3282226" lon="152.9915804">
<ele>33.727</ele>
<time>2017-06-11T05:58:18.534Z</time>
</trkpt>
<trkpt lat="-27.3280662" lon="152.9909945">
<ele>33.762</ele>
<time>2017-06-11T05:58:21.554Z</time>
</trkpt>
<trkpt lat="-27.3280195" lon="152.9905950">
<ele>33.826</ele>
<time>2017-06-11T05:58:23.558Z</time>
</trkpt>
<trkpt lat="-27.3279786" lon="152.9899994">
<ele>33.830</ele>
<time>2017-06-11T05:58:26.557Z</time>
</trkpt>
<trkpt lat="-27.3279201" lon="152.9894102">
<ele>33.682</ele>
<time>2017-06-11T05:58:29.548Z</time>
</trkpt>
<trkpt lat="-27.3278795" lon="152.9890066">
<ele>33.334</ele>
<time>2017-06-11T05:58:31.580Z</time>
</trkpt>
<trkpt lat="-27.3278192" lon="152.9884067">
<ele>32.846</ele>
<time>2017-06-11T05:58:34.591Z</time>
</trkpt>
<trkpt lat="-27.3277876" lon="152.9880088">
<ele>32.325</ele>
<time>2017-06-11T05:58:36.582Z</time>
</trkpt>
<trkpt lat="-27.3277149" lon="152.9874112">
<ele>31.886</ele>
<time>2017-06-11T05:58:39.586Z</time>
</trkpt>
<trkpt lat="-27.3276817" lon="152.9870168">
<ele>31.679</ele>
<time>2017-06-11T05:58:41.562Z</time>
</trkpt>
<trkpt lat="-27.3275956" lon="152.9866279">
<ele>31.762</ele>
<time>2017-06-11T05:58:43.563Z</time>
</trkpt>
<trkpt lat="-27.3275264" lon="152.9860347">
<ele>32.020</ele>
<time>2017-06-11T05:58:46.545Z</time>
</trkpt>
<trkpt lat="-27.3274608" lon="152.9856387">
<ele>32.314</ele>
<time>2017-06-11T05:58:48.549Z</time>
</trkpt>
<trkpt lat="-27.3273952" lon="152.9852484">
<ele>32.575</ele>
<time>2017-06-11T05:58:50.522Z</time>
</trkpt>
<trkpt lat="-27.3273082" lon="152.9846563">
<ele>32.802</ele>
<time>2017-06-11T05:58:53.498Z</time>
</trkpt>
<trkpt lat="-27.3272565" lon="152.9842610">
<ele>33.019</ele>
<time>2017-06-11T05:58:55.477Z</time>
</trkpt>
<trkpt lat="-27.3271909" lon="152.9836598">
<ele>33.202</ele>
<time>2017-06-11T05:58:58.475Z</time>
</trkpt>
<trkpt lat="-27.3270669" lon="152.9830712">
<ele>33.335</ele>
<time>2017-06-11T05:59:01.476Z</time>
</trkpt>
<trkpt lat="-27.3269746" lon="152.9824858">
<ele>33.466</ele>
<time>2017-06-11T05:59:04.438Z</time>
</trkpt>
<trkpt lat="-27.3268782" lon="152.9818916">
<ele>33.607</ele>
<time>2017-06-11T05:59:07.456Z</time>
</trkpt>
<trkpt lat="-27.3268762" lon="152.9814874">
<ele>33.710</ele>
<time>2017-06-11T05:59:09.484Z</time>
</trkpt>
<trkpt lat="-27.3267890" lon="152.9808993">
<ele>33.776</ele>
<time>2017-06-11T05:59:12.501Z</time>
</trkpt>
<trkpt lat="-27.3267304" lon="152.9805136">
<ele>33.834</ele>
<time>2017-06-11T05:59:14.638Z</time>
</trkpt>
<trkpt lat="-27.3266896" lon="152.9800401">
<ele>33.861</ele>
<time>2017-06-11T05:59:17.389Z</time>
</trkpt>
<trkpt lat="-27.3266314" lon="152.9795917">
<ele>33.689</ele>
<time>2017-06-11T05:59:19.977Z</time>
</trkpt>
<trkpt lat="-27.3265348" lon="152.9789626">
<ele>33.268</ele>
<time>2017-06-11T05:59:23.209Z</time>
</trkpt>
<trkpt lat="-27.3264932" lon="152.9785261">
<ele>33.005</ele>
<time>2017-06-11T05:59:25.302Z</time>
</trkpt>
<trkpt lat="-27.3263801" lon="152.9781537">
<ele>33.212</ele>
<time>2017-06-11T05:59:27.247Z</time>
</trkpt>
<trkpt lat="-27.3262966" lon="152.9775713">
<ele>33.633</ele>
<time>2017-06-11T05:59:30.223Z</time>
</trkpt>
<trkpt lat="-27.3262014" lon="152.9769904">
<ele>33.988</ele>
<time>2017-06-11T05:59:33.207Z</time>
</trkpt>
<trkpt lat="-27.3261318" lon="152.9764033">
<ele>34.265</ele>
<time>2017-06-11T05:59:36.184Z</time>
</trkpt>
<trkpt lat="-27.3260796" lon="152.9760088">
<ele>34.481</ele>
<time>2017-06-11T05:59:38.190Z</time>
</trkpt>
<trkpt lat="-27.3260318" lon="152.9756181">
<ele>34.650</ele>
<time>2017-06-11T05:59:40.174Z</time>
</trkpt>
<trkpt lat="-27.3259709" lon="152.9750199">
<ele>34.788</ele>
<time>2017-06-11T05:59:43.192Z</time>
</trkpt>
<trkpt lat="-27.3259264" lon="152.9746177">
<ele>34.887</ele>
<time>2017-06-11T05:59:45.215Z</time>
</trkpt>
<trkpt lat="-27.3258246" lon="152.9740280">
<ele>34.953</ele>
<time>2017-06-11T05:59:48.211Z</time>
</trkpt>
<trkpt lat="-27.3257935" lon="152.9736285">
<ele>34.997</ele>
<time>2017-06-11T05:59:50.209Z</time>
</trkpt>
<trkpt lat="-27.3257139" lon="152.9730456">
<ele>35.026</ele>
<time>2017-06-11T05:59:53.133Z</time>
</trkpt>
<trkpt lat="-27.3256550" lon="152.9724305">
<ele>35.067</ele>
<time>2017-06-11T05:59:56.090Z</time>
</trkpt>
<trkpt lat="-27.3255534" lon="152.9717413">
<ele>35.213</ele>
<time>2017-06-11T05:59:59.187Z</time>
</trkpt>
<trkpt lat="-27.3254775" lon="152.9712791">
<ele>35.657</ele>
<time>2017-06-11T06:00:01.202Z</time>
</trkpt>
<trkpt lat="-27.3253710" lon="152.9706146">
<ele>36.408</ele>
<time>2017-06-11T06:00:04.136Z</time>
</trkpt>
<trkpt lat="-27.3253096" lon="152.9701697">
<ele>37.180</ele>
<time>2017-06-11T06:00:06.116Z</time>
</trkpt>
<trkpt lat="-27.3252156" lon="152.9694938">
<ele>37.737</ele>
<time>2017-06-11T06:00:09.122Z</time>
</trkpt>
<trkpt lat="-27.3251302" lon="152.9688240">
<ele>38.074</ele>
<time>2017-06-11T06:00:12.093Z</time>
</trkpt>
<trkpt lat="-27.3250371" lon="152.9681503">
<ele>38.307</ele>
<time>2017-06-11T06:00:15.086Z</time>
</trkpt>
<trkpt lat="-27.3249905" lon="152.9677006">
<ele>38.518</ele>
<time>2017-06-11T06:00:17.072Z</time>
</trkpt>
<trkpt lat="-27.3249096" lon="152.9670190">
<ele>38.656</ele>
<time>2017-06-11T06:00:20.081Z</time>
</trkpt>
<trkpt lat="-27.3248290" lon="152.9665658">
<ele>38.685</ele>
<time>2017-06-11T06:00:22.098Z</time>
</trkpt>
<trkpt lat="-27.3247241" lon="152.9658943">
<ele>38.666</ele>
<time>2017-06-11T06:00:25.089Z</time>
</trkpt>
<trkpt lat="-27.3246230" lon="152.9652273">
<ele>38.765</ele>
<time>2017-06-11T06:00:28.079Z</time>
</trkpt>
<trkpt lat="-27.3245851" lon="152.9647770">
<ele>39.432</ele>
<time>2017-06-11T06:00:30.093Z</time>
</trkpt>
<trkpt lat="-27.3246164" lon="152.9641150">
<ele>40.842</ele>
<time>2017-06-11T06:00:33.111Z</time>
</trkpt>
<trkpt lat="-27.3247654" lon="152.9637444">
<ele>42.315</ele>
<time>2017-06-11T06:00:35.078Z</time>
</trkpt>
<trkpt lat="-27.3249476" lon="152.9634133">
<ele>42.992</ele>
<time>2017-06-11T06:00:37.012Z</time>
</trkpt>
<trkpt lat="-27.3253375" lon="152.9629859">
<ele>42.802</ele>
<time>2017-06-11T06:00:40.032Z</time>
</trkpt>
<trkpt lat="-27.3256537" lon="152.9627741">
<ele>42.745</ele>
<time>2017-06-11T06:00:42.034Z</time>
</trkpt>
<trkpt lat="-27.3260478" lon="152.9627858">
<ele>43.753</ele>
<time>2017-06-11T06:00:44.124Z</time>
</trkpt>
<trkpt lat="-27.3266444" lon="152.9626666">
<ele>45.394</ele>
<time>2017-06-11T06:00:47.212Z</time>
</trkpt>
<trkpt lat="-27.3272507" lon="152.9625097">
<ele>46.664</ele>
<time>2017-06-11T06:00:50.249Z</time>
</trkpt>
<trkpt lat="-27.3276585" lon="152.9624144">
<ele>47.022</ele>
<time>2017-06-11T06:00:52.263Z</time>
</trkpt>
<trkpt lat="-27.3280520" lon="152.9622911">
<ele>46.253</ele>
<time>2017-06-11T06:00:54.257Z</time>
</trkpt>
<trkpt lat="-27.3286398" lon="152.9621693">
<ele>44.432</ele>
<time>2017-06-11T06:00:57.204Z</time>
</trkpt>
<trkpt lat="-27.3290415" lon="152.9620989">
<ele>41.823</ele>
<time>2017-06-11T06:00:59.219Z</time>
</trkpt>
<trkpt lat="-27.3294407" lon="152.9620332">
<ele>39.017</ele>
<time>2017-06-11T06:01:01.213Z</time>
</trkpt>
<trkpt lat="-27.3300400" lon="152.9619179">
<ele>36.942</ele>
<time>2017-06-11T06:01:04.214Z</time>
</trkpt>
<trkpt lat="-27.3304406" lon="152.9618463">
<ele>36.085</ele>
<time>2017-06-11T06:01:06.208Z</time>
</trkpt>
<trkpt lat="-27.3308468" lon="152.9617613">
<ele>36.094</ele>
<time>2017-06-11T06:01:08.223Z</time>
</trkpt>
<trkpt lat="-27.3314587" lon="152.9616373">
<ele>36.365</ele>
<time>2017-06-11T06:01:11.244Z</time>
</trkpt>
<trkpt lat="-27.3320716" lon="152.9615652">
<ele>36.404</ele>
<time>2017-06-11T06:01:14.253Z</time>
</trkpt>
<trkpt lat="-27.3326709" lon="152.9614744">
<ele>35.754</ele>
<time>2017-06-11T06:01:17.243Z</time>
</trkpt>
<trkpt lat="-27.3332642" lon="152.9614483">
<ele>34.282</ele>
<time>2017-06-11T06:01:20.202Z</time>
</trkpt>
<trkpt lat="-27.3338590" lon="152.9613611">
<ele>32.629</ele>
<time>2017-06-11T06:01:23.183Z</time>
</trkpt>
<trkpt lat="-27.3342583" lon="152.9613151">
<ele>31.900</ele>
<time>2017-06-11T06:01:25.221Z</time>
</trkpt>
<trkpt lat="-27.3346207" lon="152.9612662">
<ele>32.674</ele>
<time>2017-06-11T06:01:27.190Z</time>
</trkpt>
<trkpt lat="-27.3349596" lon="152.9611942">
<ele>34.484</ele>
<time>2017-06-11T06:01:29.161Z</time>
</trkpt>
<trkpt lat="-27.3352881" lon="152.9611141">
<ele>36.387</ele>
<time>2017-06-11T06:01:31.117Z</time>
</trkpt>
<trkpt lat="-27.3356293" lon="152.9610263">
<ele>37.789</ele>
<time>2017-06-11T06:01:33.135Z</time>
</trkpt>
<trkpt lat="-27.3361520" lon="152.9609086">
<ele>38.551</ele>
<time>2017-06-11T06:01:36.185Z</time>
</trkpt>
<trkpt lat="-27.3364895" lon="152.9608593">
<ele>38.736</ele>
<time>2017-06-11T06:01:38.173Z</time>
</trkpt>
<trkpt lat="-27.3367953" lon="152.9608082">
<ele>38.429</ele>
<time>2017-06-11T06:01:40.137Z</time>
</trkpt>
<trkpt lat="-27.3371975" lon="152.9607658">
<ele>37.731</ele>
<time>2017-06-11T06:01:42.927Z</time>
</trkpt>
<trkpt lat="-27.3376143" lon="152.9607261">
<ele>36.853</ele>
<time>2017-06-11T06:01:45.916Z</time>
</trkpt>
<trkpt lat="-27.3380792" lon="152.9606310">
<ele>36.118</ele>
<time>2017-06-11T06:01:49.011Z</time>
</trkpt>
<trkpt lat="-27.3384045" lon="152.9606387">
<ele>35.854</ele>
<time>2017-06-11T06:01:51.038Z</time>
</trkpt>
<trkpt lat="-27.3388766" lon="152.9607194">
<ele>36.078</ele>
<time>2017-06-11T06:01:54.030Z</time>
</trkpt>
<trkpt lat="-27.3393428" lon="152.9608625">
<ele>36.396</ele>
<time>2017-06-11T06:01:57.088Z</time>
</trkpt>
<trkpt lat="-27.3397820" lon="152.9610229">
<ele>36.357</ele>
<time>2017-06-11T06:02:00.051Z</time>
</trkpt>
<trkpt lat="-27.3400853" lon="152.9610642">
<ele>35.725</ele>
<time>2017-06-11T06:02:01.994Z</time>
</trkpt>
<trkpt lat="-27.3406027" lon="152.9611024">
<ele>34.560</ele>
<time>2017-06-11T06:02:05.160Z</time>
</trkpt>
<trkpt lat="-27.3411523" lon="152.9611806">
<ele>33.033</ele>
<time>2017-06-11T06:02:08.370Z</time>
</trkpt>
<trkpt lat="-27.3415271" lon="152.9611971">
<ele>31.136</ele>
<time>2017-06-11T06:02:10.488Z</time>
</trkpt>
<trkpt lat="-27.3420376" lon="152.9612753">
<ele>28.995</ele>
<time>2017-06-11T06:02:13.410Z</time>
</trkpt>
<trkpt lat="-27.3423796" lon="152.9612962">
<ele>26.912</ele>
<time>2017-06-11T06:02:15.410Z</time>
</trkpt>
<trkpt lat="-27.3428876" lon="152.9613616">
<ele>25.087</ele>
<time>2017-06-11T06:02:18.484Z</time>
</trkpt>
<trkpt lat="-27.3431977" lon="152.9613708">
<ele>23.571</ele>
<time>2017-06-11T06:02:20.452Z</time>
</trkpt>
<trkpt lat="-27.3434777" lon="152.9614853">
<ele>22.350</ele>
<time>2017-06-11T06:02:22.464Z</time>
</trkpt>
<trkpt lat="-27.3437160" lon="152.9616002">
<ele>21.441</ele>
<time>2017-06-11T06:02:24.350Z</time>
</trkpt>
<trkpt lat="-27.3440718" lon="152.9617663">
<ele>20.915</ele>
<time>2017-06-11T06:02:27.228Z</time>
</trkpt>
<trkpt lat="-27.3444048" lon="152.9619890">
<ele>20.800</ele>
<time>2017-06-11T06:02:30.121Z</time>
</trkpt>
<trkpt lat="-27.3446350" lon="152.9621439">
<ele>21.228</ele>
<time>2017-06-11T06:02:32.130Z</time>
</trkpt>
<trkpt lat="-27.3448212" lon="152.9623313">
<ele>22.251</ele>
<time>2017-06-11T06:02:34.150Z</time>
</trkpt>
<trkpt lat="-27.3450476" lon="152.9625733">
<ele>23.554</ele>
<time>2017-06-11T06:02:36.964Z</time>
</trkpt>
<trkpt lat="-27.3451858" lon="152.9627020">
<ele>24.740</ele>
<time>2017-06-11T06:02:38.842Z</time>
</trkpt>
<trkpt lat="-27.3453690" lon="152.9629208">
<ele>25.647</ele>
<time>2017-06-11T06:02:41.820Z</time>
</trkpt>
<trkpt lat="-27.3454580" lon="152.9630543">
<ele>26.248</ele>
<time>2017-06-11T06:02:43.685Z</time>
</trkpt>
<trkpt lat="-27.3455586" lon="152.9631945">
<ele>26.578</ele>
<time>2017-06-11T06:02:46.000Z</time>
</trkpt>
<trkpt lat="-27.3455586" lon="152.9631945">
<ele>26.691</ele>
<time>2017-06-11T06:02:51.000Z</time>
</trkpt>
<trkpt lat="-27.3455586" lon="152.9631945">
<ele>26.661</ele>
<time>2017-06-11T06:04:09.960Z</time>
</trkpt>
<trkpt lat="-27.3457243" lon="152.9632639">
<ele>26.594</ele>
<time>2017-06-11T06:04:15.555Z</time>
</trkpt>
<trkpt lat="-27.3458966" lon="152.9632389">
<ele>26.567</ele>
<time>2017-06-11T06:04:17.641Z</time>
</trkpt>
<trkpt lat="-27.3461470" lon="152.9629775">
<ele>26.680</ele>
<time>2017-06-11T06:04:20.831Z</time>
</trkpt>
<trkpt lat="-27.3464281" lon="152.9626966">
<ele>27.258</ele>
<time>2017-06-11T06:04:23.868Z</time>
</trkpt>
<trkpt lat="-27.3466191" lon="152.9625050">
<ele>28.691</ele>
<time>2017-06-11T06:04:25.864Z</time>
</trkpt>
<trkpt lat="-27.3469140" lon="152.9622273">
<ele>30.745</ele>
<time>2017-06-11T06:04:28.828Z</time>
</trkpt>
<trkpt lat="-27.3471102" lon="152.9620330">
<ele>32.559</ele>
<time>2017-06-11T06:04:30.824Z</time>
</trkpt>
<trkpt lat="-27.3473089" lon="152.9618548">
<ele>33.548</ele>
<time>2017-06-11T06:04:32.804Z</time>
</trkpt>
<trkpt lat="-27.3475798" lon="152.9615706">
<ele>33.694</ele>
<time>2017-06-11T06:04:35.735Z</time>
</trkpt>
<trkpt lat="-27.3478038" lon="152.9612309">
<ele>33.121</ele>
<time>2017-06-11T06:04:38.737Z</time>
</trkpt>
<trkpt lat="-27.3479265" lon="152.9609835">
<ele>32.076</ele>
<time>2017-06-11T06:04:40.713Z</time>
</trkpt>
<trkpt lat="-27.3479539" lon="152.9606949">
<ele>30.970</ele>
<time>2017-06-11T06:04:42.694Z</time>
</trkpt>
<trkpt lat="-27.3480251" lon="152.9602648">
<ele>30.033</ele>
<time>2017-06-11T06:04:45.662Z</time>
</trkpt>
<trkpt lat="-27.3479914" lon="152.9598308">
<ele>29.031</ele>
<time>2017-06-11T06:04:48.629Z</time>
</trkpt>
<trkpt lat="-27.3479365" lon="152.9595519">
<ele>27.525</ele>
<time>2017-06-11T06:04:50.632Z</time>
</trkpt>
<trkpt lat="-27.3478724" lon="152.9591408">
<ele>25.529</ele>
<time>2017-06-11T06:04:53.610Z</time>
</trkpt>
<trkpt lat="-27.3478311" lon="152.9588727">
<ele>23.530</ele>
<time>2017-06-11T06:04:55.594Z</time>
</trkpt>
<trkpt lat="-27.3477909" lon="152.9586059">
<ele>22.029</ele>
<time>2017-06-11T06:04:57.579Z</time>
</trkpt>
<trkpt lat="-27.3477640" lon="152.9581992">
<ele>21.293</ele>
<time>2017-06-11T06:05:00.561Z</time>
</trkpt>
<trkpt lat="-27.3477464" lon="152.9577918">
<ele>21.401</ele>
<time>2017-06-11T06:05:03.524Z</time>
</trkpt>
<trkpt lat="-27.3478249" lon="152.9573924">
<ele>22.413</ele>
<time>2017-06-11T06:05:06.471Z</time>
</trkpt>
<trkpt lat="-27.3480026" lon="152.9570219">
<ele>24.368</ele>
<time>2017-06-11T06:05:09.472Z</time>
</trkpt>
<trkpt lat="-27.3481450" lon="152.9567926">
<ele>27.076</ele>
<time>2017-06-11T06:05:11.440Z</time>
</trkpt>
<trkpt lat="-27.3484150" lon="152.9564951">
<ele>29.973</ele>
<time>2017-06-11T06:05:14.408Z</time>
</trkpt>
<trkpt lat="-27.3485908" lon="152.9562934">
<ele>32.431</ele>
<time>2017-06-11T06:05:16.355Z</time>
</trkpt>
<trkpt lat="-27.3488568" lon="152.9559872">
<ele>34.201</ele>
<time>2017-06-11T06:05:19.295Z</time>
</trkpt>
<trkpt lat="-27.3490545" lon="152.9558013">
<ele>35.281</ele>
<time>2017-06-11T06:05:21.281Z</time>
</trkpt>
<trkpt lat="-27.3493985" lon="152.9556011">
<ele>35.731</ele>
<time>2017-06-11T06:05:24.266Z</time>
</trkpt>
<trkpt lat="-27.3496401" lon="152.9555009">
<ele>35.584</ele>
<time>2017-06-11T06:05:26.306Z</time>
</trkpt>
<trkpt lat="-27.3499641" lon="152.9553426">
<ele>34.803</ele>
<time>2017-06-11T06:05:29.165Z</time>
</trkpt>
<trkpt lat="-27.3503117" lon="152.9551943">
<ele>33.578</ele>
<time>2017-06-11T06:05:32.170Z</time>
</trkpt>
<trkpt lat="-27.3505491" lon="152.9551193">
<ele>32.418</ele>
<time>2017-06-11T06:05:34.156Z</time>
</trkpt>
<trkpt lat="-27.3508828" lon="152.9549819">
<ele>31.833</ele>
<time>2017-06-11T06:05:37.049Z</time>
</trkpt>
<trkpt lat="-27.3511143" lon="152.9548887">
<ele>32.167</ele>
<time>2017-06-11T06:05:39.031Z</time>
</trkpt>
<trkpt lat="-27.3513556" lon="152.9547868">
<ele>33.423</ele>
<time>2017-06-11T06:05:41.047Z</time>
</trkpt>
<trkpt lat="-27.3517234" lon="152.9546500">
<ele>35.163</ele>
<time>2017-06-11T06:05:44.023Z</time>
</trkpt>
<trkpt lat="-27.3520819" lon="152.9544885">
<ele>36.672</ele>
<time>2017-06-11T06:05:46.976Z</time>
</trkpt>
<trkpt lat="-27.3523330" lon="152.9544153">
<ele>37.361</ele>
<time>2017-06-11T06:05:49.013Z</time>
</trkpt>
<trkpt lat="-27.3526884" lon="152.9542982">
<ele>37.110</ele>
<time>2017-06-11T06:05:52.058Z</time>
</trkpt>
<trkpt lat="-27.3529018" lon="152.9542518">
<ele>36.284</ele>
<time>2017-06-11T06:05:54.005Z</time>
</trkpt>
<trkpt lat="-27.3532210" lon="152.9542457">
<ele>35.432</ele>
<time>2017-06-11T06:05:56.906Z</time>
</trkpt>
<trkpt lat="-27.3534668" lon="152.9542822">
<ele>35.060</ele>
<time>2017-06-11T06:05:58.984Z</time>
</trkpt>
<trkpt lat="-27.3538294" lon="152.9544269">
<ele>35.492</ele>
<time>2017-06-11T06:06:02.064Z</time>
</trkpt>
<trkpt lat="-27.3541216" lon="152.9546844">
<ele>36.796</ele>
<time>2017-06-11T06:06:05.031Z</time>
</trkpt>
<trkpt lat="-27.3543009" lon="152.9548754">
<ele>38.539</ele>
<time>2017-06-11T06:06:07.050Z</time>
</trkpt>
<trkpt lat="-27.3544556" lon="152.9550678">
<ele>39.944</ele>
<time>2017-06-11T06:06:09.029Z</time>
</trkpt>
<trkpt lat="-27.3545869" lon="152.9552521">
<ele>40.613</ele>
<time>2017-06-11T06:06:10.937Z</time>
</trkpt>
<trkpt lat="-27.3547321" lon="152.9555637">
<ele>40.720</ele>
<time>2017-06-11T06:06:13.833Z</time>
</trkpt>
<trkpt lat="-27.3547982" lon="152.9558128">
<ele>40.353</ele>
<time>2017-06-11T06:06:15.894Z</time>
</trkpt>
<trkpt lat="-27.3548307" lon="152.9560814">
<ele>39.350</ele>
<time>2017-06-11T06:06:17.975Z</time>
</trkpt>
<trkpt lat="-27.3548428" lon="152.9564695">
<ele>37.672</ele>
<time>2017-06-11T06:06:20.992Z</time>
</trkpt>
<trkpt lat="-27.3548798" lon="152.9567008">
<ele>35.405</ele>
<time>2017-06-11T06:06:22.957Z</time>
</trkpt>
<trkpt lat="-27.3548869" lon="152.9569062">
<ele>32.786</ele>
<time>2017-06-11T06:06:24.846Z</time>
</trkpt>
<trkpt lat="-27.3549003" lon="152.9570716">
<ele>30.330</ele>
<time>2017-06-11T06:06:26.633Z</time>
</trkpt>
<trkpt lat="-27.3548752" lon="152.9572542">
<ele>28.376</ele>
<time>2017-06-11T06:06:29.019Z</time>
</trkpt>
<trkpt lat="-27.3548799" lon="152.9573948">
<ele>26.832</ele>
<time>2017-06-11T06:06:31.561Z</time>
</trkpt>
<trkpt lat="-27.3549881" lon="152.9574205">
<ele>25.603</ele>
<time>2017-06-11T06:06:33.978Z</time>
</trkpt>
<trkpt lat="-27.3551136" lon="152.9573559">
<ele>24.792</ele>
<time>2017-06-11T06:06:36.312Z</time>
</trkpt>
<trkpt lat="-27.3553938" lon="152.9573057">
<ele>24.455</ele>
<time>2017-06-11T06:06:39.700Z</time>
</trkpt>
<trkpt lat="-27.3555901" lon="152.9572160">
<ele>24.523</ele>
<time>2017-06-11T06:06:41.836Z</time>
</trkpt>
<trkpt lat="-27.3557824" lon="152.9571771">
<ele>24.878</ele>
<time>2017-06-11T06:06:43.820Z</time>
</trkpt>
<trkpt lat="-27.3560360" lon="152.9570645">
<ele>25.325</ele>
<time>2017-06-11T06:06:46.699Z</time>
</trkpt>
<trkpt lat="-27.3561850" lon="152.9569410">
<ele>25.668</ele>
<time>2017-06-11T06:06:48.703Z</time>
</trkpt>
<trkpt lat="-27.3564169" lon="152.9567728">
<ele>25.872</ele>
<time>2017-06-11T06:06:51.697Z</time>
</trkpt>
<trkpt lat="-27.3565634" lon="152.9566720">
<ele>26.021</ele>
<time>2017-06-11T06:06:53.704Z</time>
</trkpt>
<trkpt lat="-27.3567186" lon="152.9565839">
<ele>26.171</ele>
<time>2017-06-11T06:06:55.999Z</time>
</trkpt>
<trkpt lat="-27.3567186" lon="152.9565839">
<ele>26.258</ele>
<time>2017-06-11T06:07:01.999Z</time>
</trkpt>
</trkseg>
</trk>
<extensions>
<fpdata xmlns="http://www.motionx.com/GPX-Extensions/1/1" sfv="10" origin="MotionXGPSFull 24.2 Build 5063R64">
<bin enc="base64">
RgIAAAACAAAAAr39HBtP1kEBAAAAyNKooTdP1kEAANoeFYTcQPsUAAAQOJEBMVN/vy3I
PUDNLEBSAUI6QAAAAAAXAAAAR2VyYXJkJ3MgUnVuIDExIEp1biAxNwAVAAAAMTEgSnVu
IDIwMTcgIDg6MDIgYW0AAAAAANjSqKE3T9ZBnQ9YrzdP1kGgmLsBxfxkRtUjjEAsAAAA
AgAAAK/IDKsFH2NAqEOJCK1bO8AxU3+/Lcg9QAAAAAAAADBAAAAAQHp5CEAAAAAAAHar
QAAAAAAAAAAAAAAAAEfhehSuE3FAFirz9JxkQEABAAAAnKFcBAg7hb8BAAAAAQAAADLC
4Dekp8M/BElovxAdwL8BAAAAAQAAAAEAAAAxU3+/Lcg9QAAAAAAAAAAAAQAAABsAAABH
ZXJhcmQnc19SdW5fMTFfSnVuXzE3LmdweAABAAAAQxxZrzdP1kEKAAAAAQAAABcAAABH
ZXJhcmQncyBSdW4gMTEgSnVuIDE3AAAAAAAAAAAAAAAAAAAAAACSAAAA2fx/gTdP1kEA
AAAAAAAAAAAAAAAAAAAA/yVEvAIAAAAAAAAAAAAAAAEAAAAnAAAAMjQuMiBCdWlsZCA1
MDYzUjY0LCBNWEFFIDguMSBiLiA2MjZSNjQAAAAAAH5wAAABAAAAAQ4AAABzbDxZhN48
WQQGvv0cG0/WQQa+/RwbT9ZBAAAAAAB4Dz8AAAAAA5pDnQQrT9ZBmkOdBCtP1kEAgDAN
P8/PQAAAAAAEYkhLBytP1kFiSEsHK0/WQQCAuRab1M9AAAAAAAMdVqAHK0/WQR1WoAcr
T9ZBAABZMkXVz0AAAAAABJrPyworT9ZBms/LCitP1kEAgCglnNvPQAAAAAAD7PqbEitP
1kHs+psSK0/WQQCA/ns8689AAAAAAARIqEoYK0/WQUioShgrT9ZBAACu1pn2z0AAAAAA
A35XmhwrT9ZBfleaHCtP1kEAgBE1Of/PQAAAAAAEqvELICtP1kGq8QsgK0/WQQAAtTQO
A9BAAAAAAANjl9ceME/WQWOX1x4wT9ZBAMBy2tkB1UAAAAAABKYLiiIwT9ZBpguKIjBP
1kEAQLFOjAXVQAAAAAADKUHZ7jFP1kEpQdnuMU/WQQAAOITb0dZAAAAAAATm5ovyMU/W
Qebmi/IxT9ZBAEDtKY7V1kAAAAAAARK9/RwbT9ZB7NsSoTdP1kEAANoeFYTcQAAAAAAA
AAAA
</bin>
</fpdata>
</extensions>
</gpx>